<?xml version="1.0" encoding="UTF-8" standalone="no" ?>
<gpx xmlns="http://www.topografix.com/GPX/1/1" xmlns:xsi="http://www.w3.org/2001/XMLSchema-instance" xsi:schemaLocation="http://www.topografix.com/GPX/1/1 http://www.topografix.com/GPX/1/1/gpx.xsd" version="1.1" creator="VisuGPX - https://www.visugpx.com">
  <metadata>
    <name>Magic</name>
  </metadata>
  <trk>
    <name><![CDATA[Sortie à vélo matinale]]></name>
    <trkseg>
      <trkpt lat="45.42654" lon="4.58238">
        <ele>505.2</ele>
        <time>1970-01-01T00:00:00.000Z</time>
      </trkpt>
      <trkpt lat="45.42655" lon="4.58238">
        <ele>505.2</ele>
        <time>1970-01-01T00:00:04.000Z</time>
      </trkpt>
      <trkpt lat="45.42655" lon="4.58238">
        <ele>509</ele>
        <time>1970-01-01T00:00:05.000Z</time>
      </trkpt>
      <trkpt lat="45.42654" lon="4.58239">
        <ele>516.4</ele>
        <time>1970-01-01T00:00:06.000Z</time>
      </trkpt>
      <trkpt lat="45.42654" lon="4.58239">
        <ele>520.2</ele>
        <time>1970-01-01T00:00:07.000Z</time>
      </trkpt>
      <trkpt lat="45.42653" lon="4.58238">
        <ele>520.2</ele>
        <time>1970-01-01T00:00:10.000Z</time>
      </trkpt>
      <trkpt lat="45.42656" lon="4.58238">
        <ele>520.2</ele>
        <time>1970-01-01T00:00:16.000Z</time>
      </trkpt>
      <trkpt lat="45.42663" lon="4.58238">
        <ele>520.2</ele>
        <time>1970-01-01T00:00:27.000Z</time>
      </trkpt>
      <trkpt lat="45.42663" lon="4.58237">
        <ele>520.2</ele>
        <time>1970-01-01T00:00:38.000Z</time>
      </trkpt>
      <trkpt lat="45.42663" lon="4.58237">
        <ele>520.2</ele>
        <time>1970-01-01T00:00:45.000Z</time>
      </trkpt>
      <trkpt lat="45.42663" lon="4.58237">
        <ele>520.2</ele>
        <time>1970-01-01T00:00:54.000Z</time>
      </trkpt>
      <trkpt lat="45.42662" lon="4.58236">
        <ele>520.2</ele>
        <time>1970-01-01T00:01:02.000Z</time>
      </trkpt>
      <trkpt lat="45.4266" lon="4.58235">
        <ele>520.2</ele>
        <time>1970-01-01T00:01:10.000Z</time>
      </trkpt>
      <trkpt lat="45.42652" lon="4.5824">
        <ele>520.2</ele>
        <time>1970-01-01T00:01:16.000Z</time>
      </trkpt>
      <trkpt lat="45.4265" lon="4.58241">
        <ele>520.2</ele>
        <time>1970-01-01T00:01:22.000Z</time>
      </trkpt>
      <trkpt lat="45.42649" lon="4.58242">
        <ele>520.2</ele>
        <time>1970-01-01T00:01:24.000Z</time>
      </trkpt>
      <trkpt lat="45.42647" lon="4.58242">
        <ele>520.2</ele>
        <time>1970-01-01T00:01:28.000Z</time>
      </trkpt>
      <trkpt lat="45.42648" lon="4.58242">
        <ele>520.2</ele>
        <time>1970-01-01T00:01:33.000Z</time>
      </trkpt>
      <trkpt lat="45.42648" lon="4.58243">
        <ele>520.2</ele>
        <time>1970-01-01T00:01:36.000Z</time>
      </trkpt>
      <trkpt lat="45.42647" lon="4.58245">
        <ele>520.2</ele>
        <time>1970-01-01T00:01:38.000Z</time>
      </trkpt>
      <trkpt lat="45.42646" lon="4.58247">
        <ele>520.2</ele>
        <time>1970-01-01T00:01:39.000Z</time>
      </trkpt>
      <trkpt lat="45.42645" lon="4.58251">
        <ele>520.2</ele>
        <time>1970-01-01T00:01:46.000Z</time>
      </trkpt>
      <trkpt lat="45.42644" lon="4.58255">
        <ele>520.2</ele>
        <time>1970-01-01T00:01:54.000Z</time>
      </trkpt>
      <trkpt lat="45.42641" lon="4.58274">
        <ele>520.2</ele>
        <time>1970-01-01T00:02:00.000Z</time>
      </trkpt>
      <trkpt lat="45.42641" lon="4.58299">
        <ele>520.2</ele>
        <time>1970-01-01T00:02:05.000Z</time>
      </trkpt>
      <trkpt lat="45.42643" lon="4.58306">
        <ele>520.2</ele>
        <time>1970-01-01T00:02:06.000Z</time>
      </trkpt>
      <trkpt lat="45.42647" lon="4.58322">
        <ele>516.8</ele>
        <time>1970-01-01T00:02:08.000Z</time>
      </trkpt>
      <trkpt lat="45.4265" lon="4.58331">
        <ele>513.2</ele>
        <time>1970-01-01T00:02:09.000Z</time>
      </trkpt>
      <trkpt lat="45.42652" lon="4.58339">
        <ele>506.4</ele>
        <time>1970-01-01T00:02:10.000Z</time>
      </trkpt>
      <trkpt lat="45.42655" lon="4.58347">
        <ele>503</ele>
        <time>1970-01-01T00:02:11.000Z</time>
      </trkpt>
      <trkpt lat="45.42662" lon="4.58367">
        <ele>503</ele>
        <time>1970-01-01T00:02:14.000Z</time>
      </trkpt>
      <trkpt lat="45.42664" lon="4.58374">
        <ele>503</ele>
        <time>1970-01-01T00:02:15.000Z</time>
      </trkpt>
      <trkpt lat="45.42666" lon="4.58386">
        <ele>503</ele>
        <time>1970-01-01T00:02:17.000Z</time>
      </trkpt>
      <trkpt lat="45.4267" lon="4.58396">
        <ele>503</ele>
        <time>1970-01-01T00:02:19.000Z</time>
      </trkpt>
      <trkpt lat="45.42668" lon="4.58415">
        <ele>503</ele>
        <time>1970-01-01T00:02:23.000Z</time>
      </trkpt>
      <trkpt lat="45.42665" lon="4.58428">
        <ele>503</ele>
        <time>1970-01-01T00:02:26.000Z</time>
      </trkpt>
      <trkpt lat="45.42665" lon="4.58435">
        <ele>503</ele>
        <time>1970-01-01T00:02:28.000Z</time>
      </trkpt>
      <trkpt lat="45.42663" lon="4.58457">
        <ele>503.4</ele>
        <time>1970-01-01T00:02:34.000Z</time>
      </trkpt>
      <trkpt lat="45.42663" lon="4.58462">
        <ele>504.2</ele>
        <time>1970-01-01T00:02:35.000Z</time>
      </trkpt>
      <trkpt lat="45.42661" lon="4.58466">
        <ele>504.6</ele>
        <time>1970-01-01T00:02:36.000Z</time>
      </trkpt>
      <trkpt lat="45.4266" lon="4.5847">
        <ele>505.2</ele>
        <time>1970-01-01T00:02:37.000Z</time>
      </trkpt>
      <trkpt lat="45.42657" lon="4.58479">
        <ele>505.2</ele>
        <time>1970-01-01T00:02:39.000Z</time>
      </trkpt>
      <trkpt lat="45.42651" lon="4.58501">
        <ele>505.2</ele>
        <time>1970-01-01T00:02:44.000Z</time>
      </trkpt>
      <trkpt lat="45.42644" lon="4.58521">
        <ele>505.2</ele>
        <time>1970-01-01T00:02:49.000Z</time>
      </trkpt>
      <trkpt lat="45.42626" lon="4.5854">
        <ele>505.2</ele>
        <time>1970-01-01T00:02:56.000Z</time>
      </trkpt>
      <trkpt lat="45.42606" lon="4.58548">
        <ele>505.2</ele>
        <time>1970-01-01T00:03:02.000Z</time>
      </trkpt>
      <trkpt lat="45.42587" lon="4.58549">
        <ele>505.2</ele>
        <time>1970-01-01T00:03:08.000Z</time>
      </trkpt>
      <trkpt lat="45.42574" lon="4.58548">
        <ele>505.2</ele>
        <time>1970-01-01T00:03:13.000Z</time>
      </trkpt>
      <trkpt lat="45.42569" lon="4.58548">
        <ele>505.6</ele>
        <time>1970-01-01T00:03:15.000Z</time>
      </trkpt>
      <trkpt lat="45.42565" lon="4.58548">
        <ele>506</ele>
        <time>1970-01-01T00:03:16.000Z</time>
      </trkpt>
      <trkpt lat="45.42562" lon="4.58548">
        <ele>506.4</ele>
        <time>1970-01-01T00:03:17.000Z</time>
      </trkpt>
      <trkpt lat="45.42559" lon="4.58548">
        <ele>506.8</ele>
        <time>1970-01-01T00:03:18.000Z</time>
      </trkpt>
      <trkpt lat="45.42556" lon="4.58548">
        <ele>507.2</ele>
        <time>1970-01-01T00:03:19.000Z</time>
      </trkpt>
      <trkpt lat="45.42554" lon="4.58549">
        <ele>507.2</ele>
        <time>1970-01-01T00:03:20.000Z</time>
      </trkpt>
      <trkpt lat="45.42548" lon="4.5855">
        <ele>507.6</ele>
        <time>1970-01-01T00:03:22.000Z</time>
      </trkpt>
      <trkpt lat="45.42545" lon="4.58551">
        <ele>508</ele>
        <time>1970-01-01T00:03:23.000Z</time>
      </trkpt>
      <trkpt lat="45.42543" lon="4.58551">
        <ele>508.8</ele>
        <time>1970-01-01T00:03:24.000Z</time>
      </trkpt>
      <trkpt lat="45.4254" lon="4.58551">
        <ele>509.2</ele>
        <time>1970-01-01T00:03:25.000Z</time>
      </trkpt>
      <trkpt lat="45.42536" lon="4.58551">
        <ele>509.6</ele>
        <time>1970-01-01T00:03:27.000Z</time>
      </trkpt>
      <trkpt lat="45.42533" lon="4.58551">
        <ele>510.2</ele>
        <time>1970-01-01T00:03:28.000Z</time>
      </trkpt>
      <trkpt lat="45.42531" lon="4.58551">
        <ele>510.6</ele>
        <time>1970-01-01T00:03:29.000Z</time>
      </trkpt>
      <trkpt lat="45.42529" lon="4.58551">
        <ele>511</ele>
        <time>1970-01-01T00:03:30.000Z</time>
      </trkpt>
      <trkpt lat="45.42527" lon="4.5855">
        <ele>511.4</ele>
        <time>1970-01-01T00:03:31.000Z</time>
      </trkpt>
      <trkpt lat="45.42523" lon="4.58549">
        <ele>512</ele>
        <time>1970-01-01T00:03:33.000Z</time>
      </trkpt>
      <trkpt lat="45.4252" lon="4.5855">
        <ele>512.4</ele>
        <time>1970-01-01T00:03:34.000Z</time>
      </trkpt>
      <trkpt lat="45.42518" lon="4.5855">
        <ele>512.8</ele>
        <time>1970-01-01T00:03:35.000Z</time>
      </trkpt>
      <trkpt lat="45.42517" lon="4.58549">
        <ele>513.2</ele>
        <time>1970-01-01T00:03:36.000Z</time>
      </trkpt>
      <trkpt lat="45.42515" lon="4.58549">
        <ele>513.6</ele>
        <time>1970-01-01T00:03:37.000Z</time>
      </trkpt>
      <trkpt lat="45.42512" lon="4.58548">
        <ele>513.6</ele>
        <time>1970-01-01T00:03:39.000Z</time>
      </trkpt>
      <trkpt lat="45.42511" lon="4.58549">
        <ele>514.2</ele>
        <time>1970-01-01T00:03:40.000Z</time>
      </trkpt>
      <trkpt lat="45.42508" lon="4.58548">
        <ele>514.6</ele>
        <time>1970-01-01T00:03:41.000Z</time>
      </trkpt>
      <trkpt lat="45.42506" lon="4.58547">
        <ele>515</ele>
        <time>1970-01-01T00:03:42.000Z</time>
      </trkpt>
      <trkpt lat="45.42504" lon="4.58547">
        <ele>515.4</ele>
        <time>1970-01-01T00:03:43.000Z</time>
      </trkpt>
      <trkpt lat="45.42501" lon="4.58547">
        <ele>516</ele>
        <time>1970-01-01T00:03:44.000Z</time>
      </trkpt>
      <trkpt lat="45.42496" lon="4.58545">
        <ele>516.4</ele>
        <time>1970-01-01T00:03:47.000Z</time>
      </trkpt>
      <trkpt lat="45.42494" lon="4.58545">
        <ele>516.8</ele>
        <time>1970-01-01T00:03:48.000Z</time>
      </trkpt>
      <trkpt lat="45.42493" lon="4.58544">
        <ele>517.6</ele>
        <time>1970-01-01T00:03:49.000Z</time>
      </trkpt>
      <trkpt lat="45.42491" lon="4.58543">
        <ele>518</ele>
        <time>1970-01-01T00:03:50.000Z</time>
      </trkpt>
      <trkpt lat="45.42484" lon="4.58542">
        <ele>518.4</ele>
        <time>1970-01-01T00:03:54.000Z</time>
      </trkpt>
      <trkpt lat="45.42482" lon="4.58542">
        <ele>518.8</ele>
        <time>1970-01-01T00:03:55.000Z</time>
      </trkpt>
      <trkpt lat="45.4248" lon="4.58543">
        <ele>519.4</ele>
        <time>1970-01-01T00:03:56.000Z</time>
      </trkpt>
      <trkpt lat="45.42478" lon="4.58542">
        <ele>519.8</ele>
        <time>1970-01-01T00:03:57.000Z</time>
      </trkpt>
      <trkpt lat="45.42476" lon="4.58542">
        <ele>520.2</ele>
        <time>1970-01-01T00:03:58.000Z</time>
      </trkpt>
      <trkpt lat="45.42469" lon="4.58543">
        <ele>520.2</ele>
        <time>1970-01-01T00:04:01.000Z</time>
      </trkpt>
      <trkpt lat="45.42468" lon="4.58543">
        <ele>520.6</ele>
        <time>1970-01-01T00:04:02.000Z</time>
      </trkpt>
      <trkpt lat="45.42466" lon="4.58542">
        <ele>521</ele>
        <time>1970-01-01T00:04:03.000Z</time>
      </trkpt>
      <trkpt lat="45.42464" lon="4.58542">
        <ele>521.4</ele>
        <time>1970-01-01T00:04:04.000Z</time>
      </trkpt>
      <trkpt lat="45.42463" lon="4.58541">
        <ele>521.8</ele>
        <time>1970-01-01T00:04:05.000Z</time>
      </trkpt>
      <trkpt lat="45.4246" lon="4.58541">
        <ele>522.2</ele>
        <time>1970-01-01T00:04:06.000Z</time>
      </trkpt>
      <trkpt lat="45.42453" lon="4.58539">
        <ele>522.2</ele>
        <time>1970-01-01T00:04:10.000Z</time>
      </trkpt>
      <trkpt lat="45.42451" lon="4.58539">
        <ele>522.6</ele>
        <time>1970-01-01T00:04:11.000Z</time>
      </trkpt>
      <trkpt lat="45.42448" lon="4.58538">
        <ele>523</ele>
        <time>1970-01-01T00:04:12.000Z</time>
      </trkpt>
      <trkpt lat="45.42447" lon="4.58537">
        <ele>523.4</ele>
        <time>1970-01-01T00:04:13.000Z</time>
      </trkpt>
      <trkpt lat="45.42445" lon="4.58536">
        <ele>524.4</ele>
        <time>1970-01-01T00:04:14.000Z</time>
      </trkpt>
      <trkpt lat="45.42439" lon="4.58536">
        <ele>524.4</ele>
        <time>1970-01-01T00:04:17.000Z</time>
      </trkpt>
      <trkpt lat="45.4243" lon="4.58532">
        <ele>524.8</ele>
        <time>1970-01-01T00:04:22.000Z</time>
      </trkpt>
      <trkpt lat="45.42428" lon="4.58531">
        <ele>525.2</ele>
        <time>1970-01-01T00:04:23.000Z</time>
      </trkpt>
      <trkpt lat="45.42426" lon="4.58531">
        <ele>525.6</ele>
        <time>1970-01-01T00:04:24.000Z</time>
      </trkpt>
      <trkpt lat="45.42425" lon="4.5853">
        <ele>526</ele>
        <time>1970-01-01T00:04:25.000Z</time>
      </trkpt>
      <trkpt lat="45.42423" lon="4.58529">
        <ele>526.6</ele>
        <time>1970-01-01T00:04:26.000Z</time>
      </trkpt>
      <trkpt lat="45.42418" lon="4.58527">
        <ele>526.6</ele>
        <time>1970-01-01T00:04:29.000Z</time>
      </trkpt>
      <trkpt lat="45.42417" lon="4.58527">
        <ele>527</ele>
        <time>1970-01-01T00:04:30.000Z</time>
      </trkpt>
      <trkpt lat="45.42415" lon="4.58526">
        <ele>527.4</ele>
        <time>1970-01-01T00:04:31.000Z</time>
      </trkpt>
      <trkpt lat="45.42413" lon="4.58526">
        <ele>527.8</ele>
        <time>1970-01-01T00:04:32.000Z</time>
      </trkpt>
      <trkpt lat="45.42412" lon="4.58526">
        <ele>528.2</ele>
        <time>1970-01-01T00:04:33.000Z</time>
      </trkpt>
      <trkpt lat="45.4241" lon="4.58525">
        <ele>528.6</ele>
        <time>1970-01-01T00:04:34.000Z</time>
      </trkpt>
      <trkpt lat="45.42404" lon="4.58523">
        <ele>529.4</ele>
        <time>1970-01-01T00:04:38.000Z</time>
      </trkpt>
      <trkpt lat="45.42402" lon="4.58523">
        <ele>529.8</ele>
        <time>1970-01-01T00:04:39.000Z</time>
      </trkpt>
      <trkpt lat="45.424" lon="4.58522">
        <ele>530.2</ele>
        <time>1970-01-01T00:04:40.000Z</time>
      </trkpt>
      <trkpt lat="45.42398" lon="4.58521">
        <ele>530.8</ele>
        <time>1970-01-01T00:04:41.000Z</time>
      </trkpt>
      <trkpt lat="45.42391" lon="4.58519">
        <ele>531.2</ele>
        <time>1970-01-01T00:04:45.000Z</time>
      </trkpt>
      <trkpt lat="45.4239" lon="4.58519">
        <ele>531.6</ele>
        <time>1970-01-01T00:04:46.000Z</time>
      </trkpt>
      <trkpt lat="45.42388" lon="4.58518">
        <ele>532</ele>
        <time>1970-01-01T00:04:47.000Z</time>
      </trkpt>
      <trkpt lat="45.42385" lon="4.58517">
        <ele>532.6</ele>
        <time>1970-01-01T00:04:48.000Z</time>
      </trkpt>
      <trkpt lat="45.42383" lon="4.58517">
        <ele>533</ele>
        <time>1970-01-01T00:04:49.000Z</time>
      </trkpt>
      <trkpt lat="45.42379" lon="4.58512">
        <ele>533.4</ele>
        <time>1970-01-01T00:04:52.000Z</time>
      </trkpt>
      <trkpt lat="45.42377" lon="4.58511">
        <ele>533.8</ele>
        <time>1970-01-01T00:04:53.000Z</time>
      </trkpt>
      <trkpt lat="45.42375" lon="4.58509">
        <ele>534.2</ele>
        <time>1970-01-01T00:04:54.000Z</time>
      </trkpt>
      <trkpt lat="45.42374" lon="4.58508">
        <ele>534.6</ele>
        <time>1970-01-01T00:04:55.000Z</time>
      </trkpt>
      <trkpt lat="45.42372" lon="4.58506">
        <ele>535</ele>
        <time>1970-01-01T00:04:56.000Z</time>
      </trkpt>
      <trkpt lat="45.42367" lon="4.585">
        <ele>535.4</ele>
        <time>1970-01-01T00:05:00.000Z</time>
      </trkpt>
      <trkpt lat="45.42364" lon="4.58498">
        <ele>535.8</ele>
        <time>1970-01-01T00:05:01.000Z</time>
      </trkpt>
      <trkpt lat="45.42363" lon="4.58496">
        <ele>536.2</ele>
        <time>1970-01-01T00:05:02.000Z</time>
      </trkpt>
      <trkpt lat="45.42361" lon="4.58494">
        <ele>537</ele>
        <time>1970-01-01T00:05:03.000Z</time>
      </trkpt>
      <trkpt lat="45.42352" lon="4.58484">
        <ele>537</ele>
        <time>1970-01-01T00:05:08.000Z</time>
      </trkpt>
      <trkpt lat="45.4235" lon="4.58481">
        <ele>537.4</ele>
        <time>1970-01-01T00:05:10.000Z</time>
      </trkpt>
      <trkpt lat="45.42349" lon="4.58479">
        <ele>537.8</ele>
        <time>1970-01-01T00:05:11.000Z</time>
      </trkpt>
      <trkpt lat="45.42348" lon="4.58477">
        <ele>538.2</ele>
        <time>1970-01-01T00:05:12.000Z</time>
      </trkpt>
      <trkpt lat="45.42346" lon="4.58475">
        <ele>538.6</ele>
        <time>1970-01-01T00:05:13.000Z</time>
      </trkpt>
      <trkpt lat="45.42344" lon="4.58474">
        <ele>539</ele>
        <time>1970-01-01T00:05:14.000Z</time>
      </trkpt>
      <trkpt lat="45.4234" lon="4.58465">
        <ele>539.6</ele>
        <time>1970-01-01T00:05:18.000Z</time>
      </trkpt>
      <trkpt lat="45.42338" lon="4.58464">
        <ele>540</ele>
        <time>1970-01-01T00:05:19.000Z</time>
      </trkpt>
      <trkpt lat="45.42337" lon="4.58462">
        <ele>540.4</ele>
        <time>1970-01-01T00:05:20.000Z</time>
      </trkpt>
      <trkpt lat="45.42335" lon="4.5846">
        <ele>540.8</ele>
        <time>1970-01-01T00:05:21.000Z</time>
      </trkpt>
      <trkpt lat="45.42334" lon="4.58458">
        <ele>541.2</ele>
        <time>1970-01-01T00:05:22.000Z</time>
      </trkpt>
      <trkpt lat="45.4233" lon="4.58451">
        <ele>541.2</ele>
        <time>1970-01-01T00:05:25.000Z</time>
      </trkpt>
      <trkpt lat="45.42329" lon="4.5845">
        <ele>541.6</ele>
        <time>1970-01-01T00:05:26.000Z</time>
      </trkpt>
      <trkpt lat="45.42328" lon="4.58448">
        <ele>542.4</ele>
        <time>1970-01-01T00:05:27.000Z</time>
      </trkpt>
      <trkpt lat="45.42327" lon="4.58446">
        <ele>542.8</ele>
        <time>1970-01-01T00:05:28.000Z</time>
      </trkpt>
      <trkpt lat="45.42325" lon="4.58444">
        <ele>543.2</ele>
        <time>1970-01-01T00:05:29.000Z</time>
      </trkpt>
      <trkpt lat="45.42321" lon="4.58438">
        <ele>543.2</ele>
        <time>1970-01-01T00:05:32.000Z</time>
      </trkpt>
      <trkpt lat="45.42319" lon="4.58434">
        <ele>543.8</ele>
        <time>1970-01-01T00:05:34.000Z</time>
      </trkpt>
      <trkpt lat="45.42317" lon="4.58432">
        <ele>544.2</ele>
        <time>1970-01-01T00:05:35.000Z</time>
      </trkpt>
      <trkpt lat="45.42316" lon="4.5843">
        <ele>544.6</ele>
        <time>1970-01-01T00:05:36.000Z</time>
      </trkpt>
      <trkpt lat="45.42315" lon="4.58427">
        <ele>545</ele>
        <time>1970-01-01T00:05:37.000Z</time>
      </trkpt>
      <trkpt lat="45.42314" lon="4.58425">
        <ele>545.6</ele>
        <time>1970-01-01T00:05:38.000Z</time>
      </trkpt>
      <trkpt lat="45.42312" lon="4.58424">
        <ele>545.6</ele>
        <time>1970-01-01T00:05:39.000Z</time>
      </trkpt>
      <trkpt lat="45.42306" lon="4.58413">
        <ele>546</ele>
        <time>1970-01-01T00:05:44.000Z</time>
      </trkpt>
      <trkpt lat="45.42305" lon="4.58411">
        <ele>546.4</ele>
        <time>1970-01-01T00:05:45.000Z</time>
      </trkpt>
      <trkpt lat="45.42304" lon="4.5841">
        <ele>546.8</ele>
        <time>1970-01-01T00:05:46.000Z</time>
      </trkpt>
      <trkpt lat="45.42303" lon="4.58407">
        <ele>547.2</ele>
        <time>1970-01-01T00:05:47.000Z</time>
      </trkpt>
      <trkpt lat="45.42302" lon="4.58405">
        <ele>547.6</ele>
        <time>1970-01-01T00:05:48.000Z</time>
      </trkpt>
      <trkpt lat="45.423" lon="4.584">
        <ele>547.6</ele>
        <time>1970-01-01T00:05:51.000Z</time>
      </trkpt>
      <trkpt lat="45.42297" lon="4.58394">
        <ele>548.2</ele>
        <time>1970-01-01T00:05:54.000Z</time>
      </trkpt>
      <trkpt lat="45.42295" lon="4.58391">
        <ele>548.6</ele>
        <time>1970-01-01T00:05:55.000Z</time>
      </trkpt>
      <trkpt lat="45.42295" lon="4.58389">
        <ele>549</ele>
        <time>1970-01-01T00:05:56.000Z</time>
      </trkpt>
      <trkpt lat="45.42294" lon="4.58387">
        <ele>549.4</ele>
        <time>1970-01-01T00:05:57.000Z</time>
      </trkpt>
      <trkpt lat="45.42293" lon="4.58385">
        <ele>550</ele>
        <time>1970-01-01T00:05:58.000Z</time>
      </trkpt>
      <trkpt lat="45.42289" lon="4.58375">
        <ele>550.4</ele>
        <time>1970-01-01T00:06:03.000Z</time>
      </trkpt>
      <trkpt lat="45.42288" lon="4.58372">
        <ele>550.8</ele>
        <time>1970-01-01T00:06:04.000Z</time>
      </trkpt>
      <trkpt lat="45.42287" lon="4.58369">
        <ele>551.2</ele>
        <time>1970-01-01T00:06:05.000Z</time>
      </trkpt>
      <trkpt lat="45.42286" lon="4.58367">
        <ele>551.6</ele>
        <time>1970-01-01T00:06:06.000Z</time>
      </trkpt>
      <trkpt lat="45.42285" lon="4.58365">
        <ele>552</ele>
        <time>1970-01-01T00:06:07.000Z</time>
      </trkpt>
      <trkpt lat="45.42279" lon="4.58352">
        <ele>552</ele>
        <time>1970-01-01T00:06:13.000Z</time>
      </trkpt>
      <trkpt lat="45.42275" lon="4.58343">
        <ele>552.8</ele>
        <time>1970-01-01T00:06:17.000Z</time>
      </trkpt>
      <trkpt lat="45.42275" lon="4.5834">
        <ele>553.4</ele>
        <time>1970-01-01T00:06:18.000Z</time>
      </trkpt>
      <trkpt lat="45.42273" lon="4.58338">
        <ele>553.8</ele>
        <time>1970-01-01T00:06:19.000Z</time>
      </trkpt>
      <trkpt lat="45.42273" lon="4.58336">
        <ele>554.2</ele>
        <time>1970-01-01T00:06:20.000Z</time>
      </trkpt>
      <trkpt lat="45.42272" lon="4.58334">
        <ele>554.2</ele>
        <time>1970-01-01T00:06:21.000Z</time>
      </trkpt>
      <trkpt lat="45.42268" lon="4.58324">
        <ele>554.6</ele>
        <time>1970-01-01T00:06:26.000Z</time>
      </trkpt>
      <trkpt lat="45.42267" lon="4.58321">
        <ele>555</ele>
        <time>1970-01-01T00:06:27.000Z</time>
      </trkpt>
      <trkpt lat="45.42267" lon="4.58319">
        <ele>555.4</ele>
        <time>1970-01-01T00:06:28.000Z</time>
      </trkpt>
      <trkpt lat="45.42267" lon="4.58316">
        <ele>555.8</ele>
        <time>1970-01-01T00:06:29.000Z</time>
      </trkpt>
      <trkpt lat="45.42267" lon="4.58314">
        <ele>556.2</ele>
        <time>1970-01-01T00:06:30.000Z</time>
      </trkpt>
      <trkpt lat="45.42269" lon="4.58309">
        <ele>556.2</ele>
        <time>1970-01-01T00:06:32.000Z</time>
      </trkpt>
      <trkpt lat="45.4227" lon="4.58307">
        <ele>556.6</ele>
        <time>1970-01-01T00:06:33.000Z</time>
      </trkpt>
      <trkpt lat="45.42273" lon="4.58306">
        <ele>557.2</ele>
        <time>1970-01-01T00:06:34.000Z</time>
      </trkpt>
      <trkpt lat="45.42275" lon="4.58306">
        <ele>557.6</ele>
        <time>1970-01-01T00:06:35.000Z</time>
      </trkpt>
      <trkpt lat="45.42276" lon="4.58307">
        <ele>558</ele>
        <time>1970-01-01T00:06:36.000Z</time>
      </trkpt>
      <trkpt lat="45.42277" lon="4.58308">
        <ele>558.6</ele>
        <time>1970-01-01T00:06:37.000Z</time>
      </trkpt>
      <trkpt lat="45.4228" lon="4.58312">
        <ele>558.6</ele>
        <time>1970-01-01T00:06:39.000Z</time>
      </trkpt>
      <trkpt lat="45.4228" lon="4.58314">
        <ele>559</ele>
        <time>1970-01-01T00:06:40.000Z</time>
      </trkpt>
      <trkpt lat="45.42281" lon="4.58316">
        <ele>559.4</ele>
        <time>1970-01-01T00:06:41.000Z</time>
      </trkpt>
      <trkpt lat="45.42282" lon="4.58318">
        <ele>560.2</ele>
        <time>1970-01-01T00:06:42.000Z</time>
      </trkpt>
      <trkpt lat="45.42283" lon="4.5832">
        <ele>560.6</ele>
        <time>1970-01-01T00:06:43.000Z</time>
      </trkpt>
      <trkpt lat="45.42284" lon="4.58322">
        <ele>560.6</ele>
        <time>1970-01-01T00:06:44.000Z</time>
      </trkpt>
      <trkpt lat="45.42291" lon="4.58329">
        <ele>561</ele>
        <time>1970-01-01T00:06:49.000Z</time>
      </trkpt>
      <trkpt lat="45.42292" lon="4.58331">
        <ele>561.4</ele>
        <time>1970-01-01T00:06:50.000Z</time>
      </trkpt>
      <trkpt lat="45.42294" lon="4.58333">
        <ele>561.8</ele>
        <time>1970-01-01T00:06:51.000Z</time>
      </trkpt>
      <trkpt lat="45.42295" lon="4.58335">
        <ele>562.4</ele>
        <time>1970-01-01T00:06:52.000Z</time>
      </trkpt>
      <trkpt lat="45.42296" lon="4.58337">
        <ele>562.8</ele>
        <time>1970-01-01T00:06:53.000Z</time>
      </trkpt>
      <trkpt lat="45.42306" lon="4.58346">
        <ele>563.2</ele>
        <time>1970-01-01T00:06:59.000Z</time>
      </trkpt>
      <trkpt lat="45.42308" lon="4.58347">
        <ele>563.6</ele>
        <time>1970-01-01T00:07:00.000Z</time>
      </trkpt>
      <trkpt lat="45.4231" lon="4.58348">
        <ele>564</ele>
        <time>1970-01-01T00:07:01.000Z</time>
      </trkpt>
      <trkpt lat="45.42312" lon="4.5835">
        <ele>564.4</ele>
        <time>1970-01-01T00:07:02.000Z</time>
      </trkpt>
      <trkpt lat="45.42314" lon="4.58351">
        <ele>564.8</ele>
        <time>1970-01-01T00:07:03.000Z</time>
      </trkpt>
      <trkpt lat="45.42328" lon="4.58359">
        <ele>565.2</ele>
        <time>1970-01-01T00:07:10.000Z</time>
      </trkpt>
      <trkpt lat="45.4233" lon="4.5836">
        <ele>565.8</ele>
        <time>1970-01-01T00:07:11.000Z</time>
      </trkpt>
      <trkpt lat="45.42332" lon="4.58361">
        <ele>566.2</ele>
        <time>1970-01-01T00:07:12.000Z</time>
      </trkpt>
      <trkpt lat="45.42334" lon="4.58362">
        <ele>566.6</ele>
        <time>1970-01-01T00:07:13.000Z</time>
      </trkpt>
      <trkpt lat="45.42337" lon="4.58363">
        <ele>567</ele>
        <time>1970-01-01T00:07:14.000Z</time>
      </trkpt>
      <trkpt lat="45.42345" lon="4.58365">
        <ele>567</ele>
        <time>1970-01-01T00:07:18.000Z</time>
      </trkpt>
      <trkpt lat="45.42351" lon="4.58366">
        <ele>567.4</ele>
        <time>1970-01-01T00:07:21.000Z</time>
      </trkpt>
      <trkpt lat="45.42354" lon="4.58367">
        <ele>567.8</ele>
        <time>1970-01-01T00:07:22.000Z</time>
      </trkpt>
      <trkpt lat="45.42356" lon="4.58367">
        <ele>568.2</ele>
        <time>1970-01-01T00:07:23.000Z</time>
      </trkpt>
      <trkpt lat="45.42358" lon="4.58367">
        <ele>568.6</ele>
        <time>1970-01-01T00:07:24.000Z</time>
      </trkpt>
      <trkpt lat="45.4236" lon="4.58366">
        <ele>569</ele>
        <time>1970-01-01T00:07:25.000Z</time>
      </trkpt>
      <trkpt lat="45.42362" lon="4.58366">
        <ele>569</ele>
        <time>1970-01-01T00:07:26.000Z</time>
      </trkpt>
      <trkpt lat="45.42371" lon="4.58364">
        <ele>569.4</ele>
        <time>1970-01-01T00:07:30.000Z</time>
      </trkpt>
      <trkpt lat="45.42372" lon="4.58363">
        <ele>570</ele>
        <time>1970-01-01T00:07:31.000Z</time>
      </trkpt>
      <trkpt lat="45.42374" lon="4.58362">
        <ele>570.4</ele>
        <time>1970-01-01T00:07:32.000Z</time>
      </trkpt>
      <trkpt lat="45.42376" lon="4.58361">
        <ele>570.8</ele>
        <time>1970-01-01T00:07:33.000Z</time>
      </trkpt>
      <trkpt lat="45.42378" lon="4.5836">
        <ele>571.2</ele>
        <time>1970-01-01T00:07:34.000Z</time>
      </trkpt>
      <trkpt lat="45.4238" lon="4.58359">
        <ele>571.2</ele>
        <time>1970-01-01T00:07:35.000Z</time>
      </trkpt>
      <trkpt lat="45.42391" lon="4.5835">
        <ele>571.6</ele>
        <time>1970-01-01T00:07:41.000Z</time>
      </trkpt>
      <trkpt lat="45.42393" lon="4.58348">
        <ele>572</ele>
        <time>1970-01-01T00:07:42.000Z</time>
      </trkpt>
      <trkpt lat="45.42394" lon="4.58346">
        <ele>572.6</ele>
        <time>1970-01-01T00:07:43.000Z</time>
      </trkpt>
      <trkpt lat="45.42396" lon="4.58345">
        <ele>573</ele>
        <time>1970-01-01T00:07:44.000Z</time>
      </trkpt>
      <trkpt lat="45.42398" lon="4.58343">
        <ele>573.4</ele>
        <time>1970-01-01T00:07:45.000Z</time>
      </trkpt>
      <trkpt lat="45.42408" lon="4.58329">
        <ele>573.8</ele>
        <time>1970-01-01T00:07:52.000Z</time>
      </trkpt>
      <trkpt lat="45.42409" lon="4.58326">
        <ele>574.2</ele>
        <time>1970-01-01T00:07:53.000Z</time>
      </trkpt>
      <trkpt lat="45.4241" lon="4.58324">
        <ele>574.6</ele>
        <time>1970-01-01T00:07:54.000Z</time>
      </trkpt>
      <trkpt lat="45.4241" lon="4.58321">
        <ele>575</ele>
        <time>1970-01-01T00:07:55.000Z</time>
      </trkpt>
      <trkpt lat="45.42411" lon="4.58318">
        <ele>575.6</ele>
        <time>1970-01-01T00:07:56.000Z</time>
      </trkpt>
      <trkpt lat="45.42411" lon="4.58313">
        <ele>575.6</ele>
        <time>1970-01-01T00:07:58.000Z</time>
      </trkpt>
      <trkpt lat="45.4241" lon="4.5831">
        <ele>575.6</ele>
        <time>1970-01-01T00:07:59.000Z</time>
      </trkpt>
      <trkpt lat="45.42409" lon="4.58308">
        <ele>576</ele>
        <time>1970-01-01T00:08:00.000Z</time>
      </trkpt>
      <trkpt lat="45.42407" lon="4.58306">
        <ele>576.4</ele>
        <time>1970-01-01T00:08:01.000Z</time>
      </trkpt>
      <trkpt lat="45.42405" lon="4.58305">
        <ele>577</ele>
        <time>1970-01-01T00:08:02.000Z</time>
      </trkpt>
      <trkpt lat="45.42403" lon="4.58305">
        <ele>577.4</ele>
        <time>1970-01-01T00:08:03.000Z</time>
      </trkpt>
      <trkpt lat="45.42401" lon="4.58304">
        <ele>577.8</ele>
        <time>1970-01-01T00:08:04.000Z</time>
      </trkpt>
      <trkpt lat="45.42397" lon="4.58305">
        <ele>577.8</ele>
        <time>1970-01-01T00:08:06.000Z</time>
      </trkpt>
      <trkpt lat="45.4239" lon="4.58305">
        <ele>578.2</ele>
        <time>1970-01-01T00:08:09.000Z</time>
      </trkpt>
      <trkpt lat="45.42389" lon="4.58305">
        <ele>578.6</ele>
        <time>1970-01-01T00:08:10.000Z</time>
      </trkpt>
      <trkpt lat="45.42387" lon="4.58305">
        <ele>579.2</ele>
        <time>1970-01-01T00:08:11.000Z</time>
      </trkpt>
      <trkpt lat="45.42385" lon="4.58305">
        <ele>579.6</ele>
        <time>1970-01-01T00:08:12.000Z</time>
      </trkpt>
      <trkpt lat="45.42383" lon="4.58304">
        <ele>580</ele>
        <time>1970-01-01T00:08:13.000Z</time>
      </trkpt>
      <trkpt lat="45.42374" lon="4.58302">
        <ele>580</ele>
        <time>1970-01-01T00:08:17.000Z</time>
      </trkpt>
      <trkpt lat="45.42369" lon="4.583">
        <ele>580.8</ele>
        <time>1970-01-01T00:08:20.000Z</time>
      </trkpt>
      <trkpt lat="45.42367" lon="4.583">
        <ele>581.2</ele>
        <time>1970-01-01T00:08:21.000Z</time>
      </trkpt>
      <trkpt lat="45.42365" lon="4.58299">
        <ele>581.8</ele>
        <time>1970-01-01T00:08:22.000Z</time>
      </trkpt>
      <trkpt lat="45.42363" lon="4.58299">
        <ele>582.2</ele>
        <time>1970-01-01T00:08:23.000Z</time>
      </trkpt>
      <trkpt lat="45.42361" lon="4.58298">
        <ele>582.2</ele>
        <time>1970-01-01T00:08:24.000Z</time>
      </trkpt>
      <trkpt lat="45.42351" lon="4.58292">
        <ele>582.6</ele>
        <time>1970-01-01T00:08:29.000Z</time>
      </trkpt>
      <trkpt lat="45.4235" lon="4.58291">
        <ele>583</ele>
        <time>1970-01-01T00:08:30.000Z</time>
      </trkpt>
      <trkpt lat="45.42348" lon="4.58289">
        <ele>583.4</ele>
        <time>1970-01-01T00:08:31.000Z</time>
      </trkpt>
      <trkpt lat="45.42346" lon="4.58287">
        <ele>583.8</ele>
        <time>1970-01-01T00:08:32.000Z</time>
      </trkpt>
      <trkpt lat="45.42344" lon="4.58285">
        <ele>584.4</ele>
        <time>1970-01-01T00:08:33.000Z</time>
      </trkpt>
      <trkpt lat="45.42332" lon="4.58274">
        <ele>584.8</ele>
        <time>1970-01-01T00:08:40.000Z</time>
      </trkpt>
      <trkpt lat="45.4233" lon="4.58272">
        <ele>585.2</ele>
        <time>1970-01-01T00:08:41.000Z</time>
      </trkpt>
      <trkpt lat="45.42328" lon="4.5827">
        <ele>585.6</ele>
        <time>1970-01-01T00:08:42.000Z</time>
      </trkpt>
      <trkpt lat="45.42327" lon="4.58268">
        <ele>586</ele>
        <time>1970-01-01T00:08:43.000Z</time>
      </trkpt>
      <trkpt lat="45.42325" lon="4.58266">
        <ele>586.4</ele>
        <time>1970-01-01T00:08:44.000Z</time>
      </trkpt>
      <trkpt lat="45.4232" lon="4.58261">
        <ele>586.4</ele>
        <time>1970-01-01T00:08:47.000Z</time>
      </trkpt>
      <trkpt lat="45.42316" lon="4.58255">
        <ele>586.8</ele>
        <time>1970-01-01T00:08:50.000Z</time>
      </trkpt>
      <trkpt lat="45.42314" lon="4.58253">
        <ele>587.2</ele>
        <time>1970-01-01T00:08:51.000Z</time>
      </trkpt>
      <trkpt lat="45.42313" lon="4.58251">
        <ele>587.6</ele>
        <time>1970-01-01T00:08:52.000Z</time>
      </trkpt>
      <trkpt lat="45.42311" lon="4.58249">
        <ele>588</ele>
        <time>1970-01-01T00:08:53.000Z</time>
      </trkpt>
      <trkpt lat="45.42309" lon="4.58247">
        <ele>588.4</ele>
        <time>1970-01-01T00:08:54.000Z</time>
      </trkpt>
      <trkpt lat="45.42303" lon="4.58239">
        <ele>588.8</ele>
        <time>1970-01-01T00:08:58.000Z</time>
      </trkpt>
      <trkpt lat="45.42301" lon="4.58237">
        <ele>589.2</ele>
        <time>1970-01-01T00:08:59.000Z</time>
      </trkpt>
      <trkpt lat="45.423" lon="4.58235">
        <ele>589.6</ele>
        <time>1970-01-01T00:09:00.000Z</time>
      </trkpt>
      <trkpt lat="45.42298" lon="4.58233">
        <ele>590</ele>
        <time>1970-01-01T00:09:01.000Z</time>
      </trkpt>
      <trkpt lat="45.42296" lon="4.58231">
        <ele>590.6</ele>
        <time>1970-01-01T00:09:02.000Z</time>
      </trkpt>
      <trkpt lat="45.42295" lon="4.58229">
        <ele>590.6</ele>
        <time>1970-01-01T00:09:03.000Z</time>
      </trkpt>
      <trkpt lat="45.4229" lon="4.58219">
        <ele>591</ele>
        <time>1970-01-01T00:09:07.000Z</time>
      </trkpt>
      <trkpt lat="45.42289" lon="4.58216">
        <ele>591.4</ele>
        <time>1970-01-01T00:09:08.000Z</time>
      </trkpt>
      <trkpt lat="45.42288" lon="4.58213">
        <ele>591.8</ele>
        <time>1970-01-01T00:09:09.000Z</time>
      </trkpt>
      <trkpt lat="45.42287" lon="4.58211">
        <ele>592.6</ele>
        <time>1970-01-01T00:09:10.000Z</time>
      </trkpt>
      <trkpt lat="45.42278" lon="4.58193">
        <ele>592.6</ele>
        <time>1970-01-01T00:09:17.000Z</time>
      </trkpt>
      <trkpt lat="45.42275" lon="4.58189">
        <ele>593</ele>
        <time>1970-01-01T00:09:19.000Z</time>
      </trkpt>
      <trkpt lat="45.42274" lon="4.58187">
        <ele>593.4</ele>
        <time>1970-01-01T00:09:20.000Z</time>
      </trkpt>
      <trkpt lat="45.42272" lon="4.58185">
        <ele>593.8</ele>
        <time>1970-01-01T00:09:21.000Z</time>
      </trkpt>
      <trkpt lat="45.42271" lon="4.58183">
        <ele>594.2</ele>
        <time>1970-01-01T00:09:22.000Z</time>
      </trkpt>
      <trkpt lat="45.42269" lon="4.58181">
        <ele>594.6</ele>
        <time>1970-01-01T00:09:23.000Z</time>
      </trkpt>
      <trkpt lat="45.4226" lon="4.58171">
        <ele>595</ele>
        <time>1970-01-01T00:09:29.000Z</time>
      </trkpt>
      <trkpt lat="45.42259" lon="4.58169">
        <ele>595.4</ele>
        <time>1970-01-01T00:09:30.000Z</time>
      </trkpt>
      <trkpt lat="45.42257" lon="4.58168">
        <ele>596</ele>
        <time>1970-01-01T00:09:31.000Z</time>
      </trkpt>
      <trkpt lat="45.42256" lon="4.58166">
        <ele>596.4</ele>
        <time>1970-01-01T00:09:32.000Z</time>
      </trkpt>
      <trkpt lat="45.42254" lon="4.58164">
        <ele>596.8</ele>
        <time>1970-01-01T00:09:33.000Z</time>
      </trkpt>
      <trkpt lat="45.42247" lon="4.58157">
        <ele>596.8</ele>
        <time>1970-01-01T00:09:37.000Z</time>
      </trkpt>
      <trkpt lat="45.42245" lon="4.58156">
        <ele>597.2</ele>
        <time>1970-01-01T00:09:38.000Z</time>
      </trkpt>
      <trkpt lat="45.42244" lon="4.58154">
        <ele>597.6</ele>
        <time>1970-01-01T00:09:39.000Z</time>
      </trkpt>
      <trkpt lat="45.42242" lon="4.58153">
        <ele>598</ele>
        <time>1970-01-01T00:09:40.000Z</time>
      </trkpt>
      <trkpt lat="45.42241" lon="4.58151">
        <ele>598.4</ele>
        <time>1970-01-01T00:09:41.000Z</time>
      </trkpt>
      <trkpt lat="45.42239" lon="4.58149">
        <ele>598.8</ele>
        <time>1970-01-01T00:09:42.000Z</time>
      </trkpt>
      <trkpt lat="45.42236" lon="4.58145">
        <ele>598.8</ele>
        <time>1970-01-01T00:09:44.000Z</time>
      </trkpt>
      <trkpt lat="45.42229" lon="4.58138">
        <ele>599.4</ele>
        <time>1970-01-01T00:09:48.000Z</time>
      </trkpt>
      <trkpt lat="45.42227" lon="4.58137">
        <ele>599.8</ele>
        <time>1970-01-01T00:09:49.000Z</time>
      </trkpt>
      <trkpt lat="45.42226" lon="4.58135">
        <ele>600.2</ele>
        <time>1970-01-01T00:09:50.000Z</time>
      </trkpt>
      <trkpt lat="45.42224" lon="4.58133">
        <ele>600.6</ele>
        <time>1970-01-01T00:09:51.000Z</time>
      </trkpt>
      <trkpt lat="45.42222" lon="4.58132">
        <ele>601</ele>
        <time>1970-01-01T00:09:52.000Z</time>
      </trkpt>
      <trkpt lat="45.4222" lon="4.5813">
        <ele>601</ele>
        <time>1970-01-01T00:09:53.000Z</time>
      </trkpt>
      <trkpt lat="45.42213" lon="4.58122">
        <ele>601.4</ele>
        <time>1970-01-01T00:09:57.000Z</time>
      </trkpt>
      <trkpt lat="45.42212" lon="4.5812">
        <ele>601.8</ele>
        <time>1970-01-01T00:09:58.000Z</time>
      </trkpt>
      <trkpt lat="45.4221" lon="4.58118">
        <ele>602.2</ele>
        <time>1970-01-01T00:09:59.000Z</time>
      </trkpt>
      <trkpt lat="45.42209" lon="4.58117">
        <ele>603</ele>
        <time>1970-01-01T00:10:00.000Z</time>
      </trkpt>
      <trkpt lat="45.42205" lon="4.58113">
        <ele>603</ele>
        <time>1970-01-01T00:10:02.000Z</time>
      </trkpt>
      <trkpt lat="45.42198" lon="4.58107">
        <ele>603.4</ele>
        <time>1970-01-01T00:10:06.000Z</time>
      </trkpt>
      <trkpt lat="45.42196" lon="4.58105">
        <ele>604</ele>
        <time>1970-01-01T00:10:07.000Z</time>
      </trkpt>
      <trkpt lat="45.42193" lon="4.58103">
        <ele>604.4</ele>
        <time>1970-01-01T00:10:08.000Z</time>
      </trkpt>
      <trkpt lat="45.42192" lon="4.58101">
        <ele>604.8</ele>
        <time>1970-01-01T00:10:09.000Z</time>
      </trkpt>
      <trkpt lat="45.4219" lon="4.581">
        <ele>605.2</ele>
        <time>1970-01-01T00:10:10.000Z</time>
      </trkpt>
      <trkpt lat="45.42183" lon="4.58094">
        <ele>605.6</ele>
        <time>1970-01-01T00:10:14.000Z</time>
      </trkpt>
      <trkpt lat="45.42181" lon="4.58092">
        <ele>606</ele>
        <time>1970-01-01T00:10:15.000Z</time>
      </trkpt>
      <trkpt lat="45.42179" lon="4.58091">
        <ele>606.4</ele>
        <time>1970-01-01T00:10:16.000Z</time>
      </trkpt>
      <trkpt lat="45.42178" lon="4.58089">
        <ele>606.8</ele>
        <time>1970-01-01T00:10:17.000Z</time>
      </trkpt>
      <trkpt lat="45.42176" lon="4.58087">
        <ele>607.2</ele>
        <time>1970-01-01T00:10:18.000Z</time>
      </trkpt>
      <trkpt lat="45.42167" lon="4.58077">
        <ele>607.6</ele>
        <time>1970-01-01T00:10:24.000Z</time>
      </trkpt>
      <trkpt lat="45.42165" lon="4.58075">
        <ele>608.6</ele>
        <time>1970-01-01T00:10:25.000Z</time>
      </trkpt>
      <trkpt lat="45.42164" lon="4.58073">
        <ele>609</ele>
        <time>1970-01-01T00:10:26.000Z</time>
      </trkpt>
      <trkpt lat="45.42162" lon="4.58071">
        <ele>609.4</ele>
        <time>1970-01-01T00:10:27.000Z</time>
      </trkpt>
      <trkpt lat="45.42154" lon="4.5806">
        <ele>609.4</ele>
        <time>1970-01-01T00:10:32.000Z</time>
      </trkpt>
      <trkpt lat="45.42149" lon="4.58054">
        <ele>609.8</ele>
        <time>1970-01-01T00:10:35.000Z</time>
      </trkpt>
      <trkpt lat="45.42148" lon="4.58052">
        <ele>610.4</ele>
        <time>1970-01-01T00:10:36.000Z</time>
      </trkpt>
      <trkpt lat="45.42146" lon="4.5805">
        <ele>610.8</ele>
        <time>1970-01-01T00:10:37.000Z</time>
      </trkpt>
      <trkpt lat="45.42144" lon="4.58048">
        <ele>611.2</ele>
        <time>1970-01-01T00:10:38.000Z</time>
      </trkpt>
      <trkpt lat="45.42142" lon="4.58046">
        <ele>611.6</ele>
        <time>1970-01-01T00:10:39.000Z</time>
      </trkpt>
      <trkpt lat="45.42134" lon="4.58038">
        <ele>612</ele>
        <time>1970-01-01T00:10:44.000Z</time>
      </trkpt>
      <trkpt lat="45.42132" lon="4.58037">
        <ele>612.4</ele>
        <time>1970-01-01T00:10:45.000Z</time>
      </trkpt>
      <trkpt lat="45.42131" lon="4.58036">
        <ele>612.8</ele>
        <time>1970-01-01T00:10:46.000Z</time>
      </trkpt>
      <trkpt lat="45.42129" lon="4.58035">
        <ele>613.2</ele>
        <time>1970-01-01T00:10:47.000Z</time>
      </trkpt>
      <trkpt lat="45.42128" lon="4.58033">
        <ele>613.6</ele>
        <time>1970-01-01T00:10:48.000Z</time>
      </trkpt>
      <trkpt lat="45.42119" lon="4.58024">
        <ele>613.6</ele>
        <time>1970-01-01T00:10:53.000Z</time>
      </trkpt>
      <trkpt lat="45.42115" lon="4.58022">
        <ele>614</ele>
        <time>1970-01-01T00:10:55.000Z</time>
      </trkpt>
      <trkpt lat="45.42113" lon="4.58021">
        <ele>614.4</ele>
        <time>1970-01-01T00:10:56.000Z</time>
      </trkpt>
      <trkpt lat="45.42111" lon="4.5802">
        <ele>614.8</ele>
        <time>1970-01-01T00:10:57.000Z</time>
      </trkpt>
      <trkpt lat="45.42109" lon="4.58018">
        <ele>615.4</ele>
        <time>1970-01-01T00:10:58.000Z</time>
      </trkpt>
      <trkpt lat="45.42107" lon="4.58017">
        <ele>615.8</ele>
        <time>1970-01-01T00:10:59.000Z</time>
      </trkpt>
      <trkpt lat="45.42105" lon="4.58016">
        <ele>615.8</ele>
        <time>1970-01-01T00:11:00.000Z</time>
      </trkpt>
      <trkpt lat="45.42092" lon="4.58008">
        <ele>615.8</ele>
        <time>1970-01-01T00:11:06.000Z</time>
      </trkpt>
      <trkpt lat="45.42084" lon="4.58001">
        <ele>616.2</ele>
        <time>1970-01-01T00:11:10.000Z</time>
      </trkpt>
      <trkpt lat="45.42082" lon="4.57999">
        <ele>616.6</ele>
        <time>1970-01-01T00:11:11.000Z</time>
      </trkpt>
      <trkpt lat="45.4208" lon="4.57997">
        <ele>617</ele>
        <time>1970-01-01T00:11:12.000Z</time>
      </trkpt>
      <trkpt lat="45.42078" lon="4.57995">
        <ele>617.4</ele>
        <time>1970-01-01T00:11:13.000Z</time>
      </trkpt>
      <trkpt lat="45.42076" lon="4.57993">
        <ele>617.8</ele>
        <time>1970-01-01T00:11:14.000Z</time>
      </trkpt>
      <trkpt lat="45.42061" lon="4.57975">
        <ele>617.8</ele>
        <time>1970-01-01T00:11:21.000Z</time>
      </trkpt>
      <trkpt lat="45.4204" lon="4.57951">
        <ele>617.8</ele>
        <time>1970-01-01T00:11:29.000Z</time>
      </trkpt>
      <trkpt lat="45.42037" lon="4.57942">
        <ele>617.8</ele>
        <time>1970-01-01T00:11:32.000Z</time>
      </trkpt>
      <trkpt lat="45.42039" lon="4.5794">
        <ele>617.8</ele>
        <time>1970-01-01T00:11:33.000Z</time>
      </trkpt>
      <trkpt lat="45.4204" lon="4.57939">
        <ele>618.2</ele>
        <time>1970-01-01T00:11:34.000Z</time>
      </trkpt>
      <trkpt lat="45.42041" lon="4.57939">
        <ele>618.6</ele>
        <time>1970-01-01T00:11:35.000Z</time>
      </trkpt>
      <trkpt lat="45.42042" lon="4.5794">
        <ele>619</ele>
        <time>1970-01-01T00:11:36.000Z</time>
      </trkpt>
      <trkpt lat="45.42043" lon="4.57941">
        <ele>619.4</ele>
        <time>1970-01-01T00:11:37.000Z</time>
      </trkpt>
      <trkpt lat="45.42044" lon="4.57943">
        <ele>619.8</ele>
        <time>1970-01-01T00:11:38.000Z</time>
      </trkpt>
      <trkpt lat="45.42045" lon="4.57944">
        <ele>619.8</ele>
        <time>1970-01-01T00:11:39.000Z</time>
      </trkpt>
      <trkpt lat="45.42048" lon="4.57947">
        <ele>620.2</ele>
        <time>1970-01-01T00:11:41.000Z</time>
      </trkpt>
      <trkpt lat="45.42049" lon="4.57949">
        <ele>620.6</ele>
        <time>1970-01-01T00:11:42.000Z</time>
      </trkpt>
      <trkpt lat="45.42051" lon="4.57951">
        <ele>621</ele>
        <time>1970-01-01T00:11:43.000Z</time>
      </trkpt>
      <trkpt lat="45.42053" lon="4.57952">
        <ele>621.4</ele>
        <time>1970-01-01T00:11:44.000Z</time>
      </trkpt>
      <trkpt lat="45.42055" lon="4.57954">
        <ele>621.8</ele>
        <time>1970-01-01T00:11:45.000Z</time>
      </trkpt>
      <trkpt lat="45.42058" lon="4.57957">
        <ele>622.2</ele>
        <time>1970-01-01T00:11:47.000Z</time>
      </trkpt>
      <trkpt lat="45.4206" lon="4.57959">
        <ele>622.8</ele>
        <time>1970-01-01T00:11:48.000Z</time>
      </trkpt>
      <trkpt lat="45.42062" lon="4.57961">
        <ele>623.2</ele>
        <time>1970-01-01T00:11:49.000Z</time>
      </trkpt>
      <trkpt lat="45.42064" lon="4.57962">
        <ele>623.6</ele>
        <time>1970-01-01T00:11:50.000Z</time>
      </trkpt>
      <trkpt lat="45.42066" lon="4.57964">
        <ele>624</ele>
        <time>1970-01-01T00:11:51.000Z</time>
      </trkpt>
      <trkpt lat="45.42073" lon="4.57969">
        <ele>624.4</ele>
        <time>1970-01-01T00:11:55.000Z</time>
      </trkpt>
      <trkpt lat="45.42076" lon="4.5797">
        <ele>625</ele>
        <time>1970-01-01T00:11:56.000Z</time>
      </trkpt>
      <trkpt lat="45.42078" lon="4.57971">
        <ele>625.4</ele>
        <time>1970-01-01T00:11:57.000Z</time>
      </trkpt>
      <trkpt lat="45.4208" lon="4.57972">
        <ele>625.8</ele>
        <time>1970-01-01T00:11:58.000Z</time>
      </trkpt>
      <trkpt lat="45.42083" lon="4.57973">
        <ele>626.2</ele>
        <time>1970-01-01T00:11:59.000Z</time>
      </trkpt>
      <trkpt lat="45.42101" lon="4.57976">
        <ele>626.2</ele>
        <time>1970-01-01T00:12:06.000Z</time>
      </trkpt>
      <trkpt lat="45.42117" lon="4.57976">
        <ele>626.6</ele>
        <time>1970-01-01T00:12:12.000Z</time>
      </trkpt>
      <trkpt lat="45.42119" lon="4.57976">
        <ele>627</ele>
        <time>1970-01-01T00:12:13.000Z</time>
      </trkpt>
      <trkpt lat="45.42121" lon="4.57975">
        <ele>627.6</ele>
        <time>1970-01-01T00:12:14.000Z</time>
      </trkpt>
      <trkpt lat="45.42124" lon="4.57975">
        <ele>628</ele>
        <time>1970-01-01T00:12:15.000Z</time>
      </trkpt>
      <trkpt lat="45.42126" lon="4.57974">
        <ele>628.4</ele>
        <time>1970-01-01T00:12:16.000Z</time>
      </trkpt>
      <trkpt lat="45.42139" lon="4.5797">
        <ele>628.4</ele>
        <time>1970-01-01T00:12:21.000Z</time>
      </trkpt>
      <trkpt lat="45.42146" lon="4.57967">
        <ele>628.8</ele>
        <time>1970-01-01T00:12:24.000Z</time>
      </trkpt>
      <trkpt lat="45.42148" lon="4.57966">
        <ele>629.2</ele>
        <time>1970-01-01T00:12:25.000Z</time>
      </trkpt>
      <trkpt lat="45.42151" lon="4.57964">
        <ele>629.6</ele>
        <time>1970-01-01T00:12:26.000Z</time>
      </trkpt>
      <trkpt lat="45.42153" lon="4.57962">
        <ele>630</ele>
        <time>1970-01-01T00:12:27.000Z</time>
      </trkpt>
      <trkpt lat="45.42155" lon="4.57961">
        <ele>630.4</ele>
        <time>1970-01-01T00:12:28.000Z</time>
      </trkpt>
      <trkpt lat="45.4216" lon="4.57957">
        <ele>630.4</ele>
        <time>1970-01-01T00:12:30.000Z</time>
      </trkpt>
      <trkpt lat="45.42172" lon="4.57944">
        <ele>630.4</ele>
        <time>1970-01-01T00:12:36.000Z</time>
      </trkpt>
      <trkpt lat="45.42172" lon="4.57926">
        <ele>630.4</ele>
        <time>1970-01-01T00:12:41.000Z</time>
      </trkpt>
      <trkpt lat="45.42167" lon="4.57917">
        <ele>630.8</ele>
        <time>1970-01-01T00:12:44.000Z</time>
      </trkpt>
      <trkpt lat="45.42166" lon="4.57915">
        <ele>631.2</ele>
        <time>1970-01-01T00:12:45.000Z</time>
      </trkpt>
      <trkpt lat="45.42164" lon="4.57913">
        <ele>631.6</ele>
        <time>1970-01-01T00:12:46.000Z</time>
      </trkpt>
      <trkpt lat="45.42162" lon="4.5791">
        <ele>632</ele>
        <time>1970-01-01T00:12:47.000Z</time>
      </trkpt>
      <trkpt lat="45.42161" lon="4.57908">
        <ele>632.4</ele>
        <time>1970-01-01T00:12:48.000Z</time>
      </trkpt>
      <trkpt lat="45.42154" lon="4.57898">
        <ele>632.8</ele>
        <time>1970-01-01T00:12:52.000Z</time>
      </trkpt>
      <trkpt lat="45.42152" lon="4.57896">
        <ele>633.2</ele>
        <time>1970-01-01T00:12:53.000Z</time>
      </trkpt>
      <trkpt lat="45.42151" lon="4.57894">
        <ele>633.6</ele>
        <time>1970-01-01T00:12:54.000Z</time>
      </trkpt>
      <trkpt lat="45.42149" lon="4.57892">
        <ele>634</ele>
        <time>1970-01-01T00:12:55.000Z</time>
      </trkpt>
      <trkpt lat="45.42148" lon="4.5789">
        <ele>634.4</ele>
        <time>1970-01-01T00:12:56.000Z</time>
      </trkpt>
      <trkpt lat="45.42143" lon="4.57884">
        <ele>634.8</ele>
        <time>1970-01-01T00:12:59.000Z</time>
      </trkpt>
      <trkpt lat="45.42141" lon="4.57882">
        <ele>635.4</ele>
        <time>1970-01-01T00:13:00.000Z</time>
      </trkpt>
      <trkpt lat="45.4214" lon="4.57879">
        <ele>635.8</ele>
        <time>1970-01-01T00:13:01.000Z</time>
      </trkpt>
      <trkpt lat="45.42138" lon="4.57876">
        <ele>636.2</ele>
        <time>1970-01-01T00:13:02.000Z</time>
      </trkpt>
      <trkpt lat="45.42136" lon="4.57874">
        <ele>636.6</ele>
        <time>1970-01-01T00:13:03.000Z</time>
      </trkpt>
      <trkpt lat="45.42129" lon="4.57866">
        <ele>637</ele>
        <time>1970-01-01T00:13:07.000Z</time>
      </trkpt>
      <trkpt lat="45.42128" lon="4.57864">
        <ele>637.4</ele>
        <time>1970-01-01T00:13:08.000Z</time>
      </trkpt>
      <trkpt lat="45.42126" lon="4.57863">
        <ele>637.8</ele>
        <time>1970-01-01T00:13:09.000Z</time>
      </trkpt>
      <trkpt lat="45.42125" lon="4.57861">
        <ele>638.2</ele>
        <time>1970-01-01T00:13:10.000Z</time>
      </trkpt>
      <trkpt lat="45.42123" lon="4.57859">
        <ele>638.6</ele>
        <time>1970-01-01T00:13:11.000Z</time>
      </trkpt>
      <trkpt lat="45.42114" lon="4.5785">
        <ele>639</ele>
        <time>1970-01-01T00:13:16.000Z</time>
      </trkpt>
      <trkpt lat="45.42112" lon="4.57849">
        <ele>639.8</ele>
        <time>1970-01-01T00:13:17.000Z</time>
      </trkpt>
      <trkpt lat="45.42111" lon="4.57847">
        <ele>640.4</ele>
        <time>1970-01-01T00:13:18.000Z</time>
      </trkpt>
      <trkpt lat="45.42109" lon="4.57845">
        <ele>640.8</ele>
        <time>1970-01-01T00:13:19.000Z</time>
      </trkpt>
      <trkpt lat="45.42103" lon="4.57836">
        <ele>641.2</ele>
        <time>1970-01-01T00:13:23.000Z</time>
      </trkpt>
      <trkpt lat="45.42101" lon="4.57834">
        <ele>641.6</ele>
        <time>1970-01-01T00:13:24.000Z</time>
      </trkpt>
      <trkpt lat="45.421" lon="4.57832">
        <ele>642</ele>
        <time>1970-01-01T00:13:25.000Z</time>
      </trkpt>
      <trkpt lat="45.42098" lon="4.5783">
        <ele>642.4</ele>
        <time>1970-01-01T00:13:26.000Z</time>
      </trkpt>
      <trkpt lat="45.42097" lon="4.57828">
        <ele>642.8</ele>
        <time>1970-01-01T00:13:27.000Z</time>
      </trkpt>
      <trkpt lat="45.42094" lon="4.57821">
        <ele>643.2</ele>
        <time>1970-01-01T00:13:30.000Z</time>
      </trkpt>
      <trkpt lat="45.42093" lon="4.57819">
        <ele>643.6</ele>
        <time>1970-01-01T00:13:31.000Z</time>
      </trkpt>
      <trkpt lat="45.42092" lon="4.57817">
        <ele>644</ele>
        <time>1970-01-01T00:13:32.000Z</time>
      </trkpt>
      <trkpt lat="45.42091" lon="4.57814">
        <ele>644.4</ele>
        <time>1970-01-01T00:13:33.000Z</time>
      </trkpt>
      <trkpt lat="45.4209" lon="4.57812">
        <ele>644.8</ele>
        <time>1970-01-01T00:13:34.000Z</time>
      </trkpt>
      <trkpt lat="45.42087" lon="4.57809">
        <ele>644.8</ele>
        <time>1970-01-01T00:13:36.000Z</time>
      </trkpt>
      <trkpt lat="45.42084" lon="4.57804">
        <ele>645.4</ele>
        <time>1970-01-01T00:13:38.000Z</time>
      </trkpt>
      <trkpt lat="45.42082" lon="4.57802">
        <ele>645.8</ele>
        <time>1970-01-01T00:13:39.000Z</time>
      </trkpt>
      <trkpt lat="45.42081" lon="4.578">
        <ele>646.2</ele>
        <time>1970-01-01T00:13:40.000Z</time>
      </trkpt>
      <trkpt lat="45.4208" lon="4.57798">
        <ele>647.2</ele>
        <time>1970-01-01T00:13:41.000Z</time>
      </trkpt>
      <trkpt lat="45.42078" lon="4.57795">
        <ele>647.2</ele>
        <time>1970-01-01T00:13:43.000Z</time>
      </trkpt>
      <trkpt lat="45.42074" lon="4.5779">
        <ele>647.6</ele>
        <time>1970-01-01T00:13:46.000Z</time>
      </trkpt>
      <trkpt lat="45.42073" lon="4.57788">
        <ele>648</ele>
        <time>1970-01-01T00:13:47.000Z</time>
      </trkpt>
      <trkpt lat="45.42072" lon="4.57786">
        <ele>648.4</ele>
        <time>1970-01-01T00:13:48.000Z</time>
      </trkpt>
      <trkpt lat="45.42071" lon="4.57783">
        <ele>649</ele>
        <time>1970-01-01T00:13:49.000Z</time>
      </trkpt>
      <trkpt lat="45.4207" lon="4.57781">
        <ele>649.4</ele>
        <time>1970-01-01T00:13:50.000Z</time>
      </trkpt>
      <trkpt lat="45.42066" lon="4.57773">
        <ele>649.8</ele>
        <time>1970-01-01T00:13:54.000Z</time>
      </trkpt>
      <trkpt lat="45.42065" lon="4.57771">
        <ele>650.2</ele>
        <time>1970-01-01T00:13:55.000Z</time>
      </trkpt>
      <trkpt lat="45.42064" lon="4.57769">
        <ele>650.6</ele>
        <time>1970-01-01T00:13:56.000Z</time>
      </trkpt>
      <trkpt lat="45.42063" lon="4.57767">
        <ele>651.2</ele>
        <time>1970-01-01T00:13:57.000Z</time>
      </trkpt>
      <trkpt lat="45.42061" lon="4.57765">
        <ele>651.6</ele>
        <time>1970-01-01T00:13:58.000Z</time>
      </trkpt>
      <trkpt lat="45.42056" lon="4.57756">
        <ele>652</ele>
        <time>1970-01-01T00:14:02.000Z</time>
      </trkpt>
      <trkpt lat="45.42056" lon="4.57753">
        <ele>652.4</ele>
        <time>1970-01-01T00:14:03.000Z</time>
      </trkpt>
      <trkpt lat="45.42055" lon="4.57751">
        <ele>652.8</ele>
        <time>1970-01-01T00:14:04.000Z</time>
      </trkpt>
      <trkpt lat="45.42055" lon="4.57748">
        <ele>653.2</ele>
        <time>1970-01-01T00:14:05.000Z</time>
      </trkpt>
      <trkpt lat="45.42055" lon="4.57746">
        <ele>653.8</ele>
        <time>1970-01-01T00:14:06.000Z</time>
      </trkpt>
      <trkpt lat="45.42056" lon="4.57745">
        <ele>654.6</ele>
        <time>1970-01-01T00:14:07.000Z</time>
      </trkpt>
      <trkpt lat="45.42056" lon="4.57744">
        <ele>655</ele>
        <time>1970-01-01T00:14:08.000Z</time>
      </trkpt>
      <trkpt lat="45.42057" lon="4.57743">
        <ele>655.4</ele>
        <time>1970-01-01T00:14:09.000Z</time>
      </trkpt>
      <trkpt lat="45.42059" lon="4.57742">
        <ele>656</ele>
        <time>1970-01-01T00:14:10.000Z</time>
      </trkpt>
      <trkpt lat="45.4207" lon="4.5773">
        <ele>656</ele>
        <time>1970-01-01T00:14:16.000Z</time>
      </trkpt>
      <trkpt lat="45.42079" lon="4.57716">
        <ele>656</ele>
        <time>1970-01-01T00:14:21.000Z</time>
      </trkpt>
      <trkpt lat="45.42089" lon="4.57697">
        <ele>656</ele>
        <time>1970-01-01T00:14:26.000Z</time>
      </trkpt>
      <trkpt lat="45.42098" lon="4.57676">
        <ele>656</ele>
        <time>1970-01-01T00:14:30.000Z</time>
      </trkpt>
      <trkpt lat="45.421" lon="4.57671">
        <ele>655</ele>
        <time>1970-01-01T00:14:31.000Z</time>
      </trkpt>
      <trkpt lat="45.42102" lon="4.57664">
        <ele>654.6</ele>
        <time>1970-01-01T00:14:32.000Z</time>
      </trkpt>
      <trkpt lat="45.42104" lon="4.57659">
        <ele>654.2</ele>
        <time>1970-01-01T00:14:33.000Z</time>
      </trkpt>
      <trkpt lat="45.42106" lon="4.57653">
        <ele>653.8</ele>
        <time>1970-01-01T00:14:34.000Z</time>
      </trkpt>
      <trkpt lat="45.42107" lon="4.57647">
        <ele>653.8</ele>
        <time>1970-01-01T00:14:35.000Z</time>
      </trkpt>
      <trkpt lat="45.4211" lon="4.57635">
        <ele>653.8</ele>
        <time>1970-01-01T00:14:37.000Z</time>
      </trkpt>
      <trkpt lat="45.42113" lon="4.57623">
        <ele>653.8</ele>
        <time>1970-01-01T00:14:39.000Z</time>
      </trkpt>
      <trkpt lat="45.42115" lon="4.57617">
        <ele>653.8</ele>
        <time>1970-01-01T00:14:40.000Z</time>
      </trkpt>
      <trkpt lat="45.42119" lon="4.57603">
        <ele>653.4</ele>
        <time>1970-01-01T00:14:42.000Z</time>
      </trkpt>
      <trkpt lat="45.42121" lon="4.57595">
        <ele>652.8</ele>
        <time>1970-01-01T00:14:43.000Z</time>
      </trkpt>
      <trkpt lat="45.42124" lon="4.57587">
        <ele>652.4</ele>
        <time>1970-01-01T00:14:44.000Z</time>
      </trkpt>
      <trkpt lat="45.42127" lon="4.57579">
        <ele>652</ele>
        <time>1970-01-01T00:14:45.000Z</time>
      </trkpt>
      <trkpt lat="45.4213" lon="4.5757">
        <ele>651.4</ele>
        <time>1970-01-01T00:14:46.000Z</time>
      </trkpt>
      <trkpt lat="45.42131" lon="4.57561">
        <ele>651.4</ele>
        <time>1970-01-01T00:14:47.000Z</time>
      </trkpt>
      <trkpt lat="45.42132" lon="4.57553">
        <ele>651</ele>
        <time>1970-01-01T00:14:48.000Z</time>
      </trkpt>
      <trkpt lat="45.42132" lon="4.57547">
        <ele>650.4</ele>
        <time>1970-01-01T00:14:49.000Z</time>
      </trkpt>
      <trkpt lat="45.42131" lon="4.57542">
        <ele>650</ele>
        <time>1970-01-01T00:14:50.000Z</time>
      </trkpt>
      <trkpt lat="45.4213" lon="4.57538">
        <ele>649.4</ele>
        <time>1970-01-01T00:14:51.000Z</time>
      </trkpt>
      <trkpt lat="45.4213" lon="4.57533">
        <ele>648.8</ele>
        <time>1970-01-01T00:14:52.000Z</time>
      </trkpt>
      <trkpt lat="45.42131" lon="4.57518">
        <ele>649.4</ele>
        <time>1970-01-01T00:14:55.000Z</time>
      </trkpt>
      <trkpt lat="45.42132" lon="4.57514">
        <ele>650.2</ele>
        <time>1970-01-01T00:14:56.000Z</time>
      </trkpt>
      <trkpt lat="45.42133" lon="4.57509">
        <ele>650.6</ele>
        <time>1970-01-01T00:14:57.000Z</time>
      </trkpt>
      <trkpt lat="45.42133" lon="4.57504">
        <ele>651</ele>
        <time>1970-01-01T00:14:58.000Z</time>
      </trkpt>
      <trkpt lat="45.42134" lon="4.57499">
        <ele>651.6</ele>
        <time>1970-01-01T00:14:59.000Z</time>
      </trkpt>
      <trkpt lat="45.42133" lon="4.57495">
        <ele>652</ele>
        <time>1970-01-01T00:15:00.000Z</time>
      </trkpt>
      <trkpt lat="45.42133" lon="4.57491">
        <ele>652.4</ele>
        <time>1970-01-01T00:15:01.000Z</time>
      </trkpt>
      <trkpt lat="45.42133" lon="4.57489">
        <ele>653</ele>
        <time>1970-01-01T00:15:02.000Z</time>
      </trkpt>
      <trkpt lat="45.42133" lon="4.57486">
        <ele>653.4</ele>
        <time>1970-01-01T00:15:03.000Z</time>
      </trkpt>
      <trkpt lat="45.42134" lon="4.57484">
        <ele>654</ele>
        <time>1970-01-01T00:15:04.000Z</time>
      </trkpt>
      <trkpt lat="45.42134" lon="4.57481">
        <ele>654.4</ele>
        <time>1970-01-01T00:15:05.000Z</time>
      </trkpt>
      <trkpt lat="45.42134" lon="4.57477">
        <ele>654.8</ele>
        <time>1970-01-01T00:15:06.000Z</time>
      </trkpt>
      <trkpt lat="45.42134" lon="4.57474">
        <ele>655.2</ele>
        <time>1970-01-01T00:15:07.000Z</time>
      </trkpt>
      <trkpt lat="45.42135" lon="4.57471">
        <ele>655.8</ele>
        <time>1970-01-01T00:15:08.000Z</time>
      </trkpt>
      <trkpt lat="45.42137" lon="4.57466">
        <ele>656.2</ele>
        <time>1970-01-01T00:15:11.000Z</time>
      </trkpt>
      <trkpt lat="45.42138" lon="4.57464">
        <ele>656.6</ele>
        <time>1970-01-01T00:15:12.000Z</time>
      </trkpt>
      <trkpt lat="45.42139" lon="4.57461">
        <ele>657</ele>
        <time>1970-01-01T00:15:13.000Z</time>
      </trkpt>
      <trkpt lat="45.42139" lon="4.57459">
        <ele>657.6</ele>
        <time>1970-01-01T00:15:14.000Z</time>
      </trkpt>
      <trkpt lat="45.4214" lon="4.57456">
        <ele>658</ele>
        <time>1970-01-01T00:15:15.000Z</time>
      </trkpt>
      <trkpt lat="45.42142" lon="4.57449">
        <ele>658</ele>
        <time>1970-01-01T00:15:18.000Z</time>
      </trkpt>
      <trkpt lat="45.42144" lon="4.57447">
        <ele>658</ele>
        <time>1970-01-01T00:15:19.000Z</time>
      </trkpt>
      <trkpt lat="45.42146" lon="4.57438">
        <ele>658</ele>
        <time>1970-01-01T00:15:22.000Z</time>
      </trkpt>
      <trkpt lat="45.42146" lon="4.57428">
        <ele>658.4</ele>
        <time>1970-01-01T00:15:26.000Z</time>
      </trkpt>
      <trkpt lat="45.42145" lon="4.57426">
        <ele>658.8</ele>
        <time>1970-01-01T00:15:27.000Z</time>
      </trkpt>
      <trkpt lat="45.42145" lon="4.57424">
        <ele>659.2</ele>
        <time>1970-01-01T00:15:28.000Z</time>
      </trkpt>
      <trkpt lat="45.42145" lon="4.57422">
        <ele>659.8</ele>
        <time>1970-01-01T00:15:29.000Z</time>
      </trkpt>
      <trkpt lat="45.42145" lon="4.5742">
        <ele>660.2</ele>
        <time>1970-01-01T00:15:30.000Z</time>
      </trkpt>
      <trkpt lat="45.42147" lon="4.57411">
        <ele>660.2</ele>
        <time>1970-01-01T00:15:33.000Z</time>
      </trkpt>
      <trkpt lat="45.42152" lon="4.57395">
        <ele>660.2</ele>
        <time>1970-01-01T00:15:38.000Z</time>
      </trkpt>
      <trkpt lat="45.42154" lon="4.57393">
        <ele>660.6</ele>
        <time>1970-01-01T00:15:39.000Z</time>
      </trkpt>
      <trkpt lat="45.42155" lon="4.57391">
        <ele>661</ele>
        <time>1970-01-01T00:15:40.000Z</time>
      </trkpt>
      <trkpt lat="45.42156" lon="4.57388">
        <ele>661.4</ele>
        <time>1970-01-01T00:15:41.000Z</time>
      </trkpt>
      <trkpt lat="45.42157" lon="4.57383">
        <ele>661.8</ele>
        <time>1970-01-01T00:15:42.000Z</time>
      </trkpt>
      <trkpt lat="45.42158" lon="4.57377">
        <ele>662.2</ele>
        <time>1970-01-01T00:15:43.000Z</time>
      </trkpt>
      <trkpt lat="45.42155" lon="4.57375">
        <ele>662.2</ele>
        <time>1970-01-01T00:15:47.000Z</time>
      </trkpt>
      <trkpt lat="45.4215" lon="4.57375">
        <ele>662.6</ele>
        <time>1970-01-01T00:15:50.000Z</time>
      </trkpt>
      <trkpt lat="45.42149" lon="4.57375">
        <ele>663</ele>
        <time>1970-01-01T00:15:51.000Z</time>
      </trkpt>
      <trkpt lat="45.42148" lon="4.57375">
        <ele>663.6</ele>
        <time>1970-01-01T00:15:52.000Z</time>
      </trkpt>
      <trkpt lat="45.42147" lon="4.57375">
        <ele>664</ele>
        <time>1970-01-01T00:15:53.000Z</time>
      </trkpt>
      <trkpt lat="45.42146" lon="4.57376">
        <ele>664.4</ele>
        <time>1970-01-01T00:15:54.000Z</time>
      </trkpt>
      <trkpt lat="45.42141" lon="4.57378">
        <ele>664.8</ele>
        <time>1970-01-01T00:15:59.000Z</time>
      </trkpt>
      <trkpt lat="45.42139" lon="4.57379">
        <ele>665.4</ele>
        <time>1970-01-01T00:16:00.000Z</time>
      </trkpt>
      <trkpt lat="45.42138" lon="4.5738">
        <ele>665.8</ele>
        <time>1970-01-01T00:16:01.000Z</time>
      </trkpt>
      <trkpt lat="45.42137" lon="4.57381">
        <ele>666.2</ele>
        <time>1970-01-01T00:16:02.000Z</time>
      </trkpt>
      <trkpt lat="45.42136" lon="4.57382">
        <ele>666.6</ele>
        <time>1970-01-01T00:16:03.000Z</time>
      </trkpt>
      <trkpt lat="45.42135" lon="4.57382">
        <ele>666.6</ele>
        <time>1970-01-01T00:16:04.000Z</time>
      </trkpt>
      <trkpt lat="45.42135" lon="4.57382">
        <ele>666.6</ele>
        <time>1970-01-01T00:16:05.000Z</time>
      </trkpt>
      <trkpt lat="45.42134" lon="4.57383">
        <ele>667</ele>
        <time>1970-01-01T00:16:07.000Z</time>
      </trkpt>
      <trkpt lat="45.42132" lon="4.57384">
        <ele>667.4</ele>
        <time>1970-01-01T00:16:08.000Z</time>
      </trkpt>
      <trkpt lat="45.42131" lon="4.57384">
        <ele>667.8</ele>
        <time>1970-01-01T00:16:09.000Z</time>
      </trkpt>
      <trkpt lat="45.42131" lon="4.57384">
        <ele>668.8</ele>
        <time>1970-01-01T00:16:10.000Z</time>
      </trkpt>
      <trkpt lat="45.42128" lon="4.57385">
        <ele>668.8</ele>
        <time>1970-01-01T00:16:12.000Z</time>
      </trkpt>
      <trkpt lat="45.42126" lon="4.57386">
        <ele>669.2</ele>
        <time>1970-01-01T00:16:14.000Z</time>
      </trkpt>
      <trkpt lat="45.42124" lon="4.57387">
        <ele>669.6</ele>
        <time>1970-01-01T00:16:15.000Z</time>
      </trkpt>
      <trkpt lat="45.42123" lon="4.57387">
        <ele>670</ele>
        <time>1970-01-01T00:16:16.000Z</time>
      </trkpt>
      <trkpt lat="45.42122" lon="4.57387">
        <ele>670.4</ele>
        <time>1970-01-01T00:16:17.000Z</time>
      </trkpt>
      <trkpt lat="45.42121" lon="4.57387">
        <ele>670.8</ele>
        <time>1970-01-01T00:16:18.000Z</time>
      </trkpt>
      <trkpt lat="45.42116" lon="4.57389">
        <ele>671.4</ele>
        <time>1970-01-01T00:16:22.000Z</time>
      </trkpt>
      <trkpt lat="45.42114" lon="4.57389">
        <ele>671.8</ele>
        <time>1970-01-01T00:16:23.000Z</time>
      </trkpt>
      <trkpt lat="45.42113" lon="4.5739">
        <ele>672.2</ele>
        <time>1970-01-01T00:16:24.000Z</time>
      </trkpt>
      <trkpt lat="45.42111" lon="4.5739">
        <ele>672.6</ele>
        <time>1970-01-01T00:16:25.000Z</time>
      </trkpt>
      <trkpt lat="45.4211" lon="4.57391">
        <ele>673</ele>
        <time>1970-01-01T00:16:26.000Z</time>
      </trkpt>
      <trkpt lat="45.42108" lon="4.57393">
        <ele>673</ele>
        <time>1970-01-01T00:16:29.000Z</time>
      </trkpt>
      <trkpt lat="45.42107" lon="4.57393">
        <ele>673.4</ele>
        <time>1970-01-01T00:16:30.000Z</time>
      </trkpt>
      <trkpt lat="45.42106" lon="4.57394">
        <ele>673.8</ele>
        <time>1970-01-01T00:16:31.000Z</time>
      </trkpt>
      <trkpt lat="45.42105" lon="4.57395">
        <ele>674.2</ele>
        <time>1970-01-01T00:16:32.000Z</time>
      </trkpt>
      <trkpt lat="45.42104" lon="4.57395">
        <ele>674.8</ele>
        <time>1970-01-01T00:16:33.000Z</time>
      </trkpt>
      <trkpt lat="45.42104" lon="4.57395">
        <ele>675.2</ele>
        <time>1970-01-01T00:16:34.000Z</time>
      </trkpt>
      <trkpt lat="45.42101" lon="4.57397">
        <ele>675.6</ele>
        <time>1970-01-01T00:16:36.000Z</time>
      </trkpt>
      <trkpt lat="45.42099" lon="4.57398">
        <ele>676</ele>
        <time>1970-01-01T00:16:37.000Z</time>
      </trkpt>
      <trkpt lat="45.42098" lon="4.57399">
        <ele>676.4</ele>
        <time>1970-01-01T00:16:38.000Z</time>
      </trkpt>
      <trkpt lat="45.42096" lon="4.574">
        <ele>676.8</ele>
        <time>1970-01-01T00:16:39.000Z</time>
      </trkpt>
      <trkpt lat="45.42094" lon="4.57401">
        <ele>677.2</ele>
        <time>1970-01-01T00:16:40.000Z</time>
      </trkpt>
      <trkpt lat="45.42091" lon="4.57403">
        <ele>677.2</ele>
        <time>1970-01-01T00:16:43.000Z</time>
      </trkpt>
      <trkpt lat="45.42085" lon="4.57406">
        <ele>677.6</ele>
        <time>1970-01-01T00:16:47.000Z</time>
      </trkpt>
      <trkpt lat="45.42084" lon="4.57407">
        <ele>678</ele>
        <time>1970-01-01T00:16:48.000Z</time>
      </trkpt>
      <trkpt lat="45.42083" lon="4.57408">
        <ele>678.4</ele>
        <time>1970-01-01T00:16:49.000Z</time>
      </trkpt>
      <trkpt lat="45.42082" lon="4.57409">
        <ele>679</ele>
        <time>1970-01-01T00:16:50.000Z</time>
      </trkpt>
      <trkpt lat="45.42081" lon="4.5741">
        <ele>679.4</ele>
        <time>1970-01-01T00:16:51.000Z</time>
      </trkpt>
      <trkpt lat="45.42079" lon="4.57413">
        <ele>679.4</ele>
        <time>1970-01-01T00:16:53.000Z</time>
      </trkpt>
      <trkpt lat="45.42076" lon="4.57415">
        <ele>679.4</ele>
        <time>1970-01-01T00:16:55.000Z</time>
      </trkpt>
      <trkpt lat="45.42075" lon="4.57415">
        <ele>679.8</ele>
        <time>1970-01-01T00:16:56.000Z</time>
      </trkpt>
      <trkpt lat="45.42073" lon="4.57416">
        <ele>680.2</ele>
        <time>1970-01-01T00:16:57.000Z</time>
      </trkpt>
      <trkpt lat="45.42071" lon="4.57418">
        <ele>680.6</ele>
        <time>1970-01-01T00:16:58.000Z</time>
      </trkpt>
      <trkpt lat="45.4207" lon="4.57419">
        <ele>681.4</ele>
        <time>1970-01-01T00:16:59.000Z</time>
      </trkpt>
      <trkpt lat="45.42067" lon="4.57421">
        <ele>681.4</ele>
        <time>1970-01-01T00:17:01.000Z</time>
      </trkpt>
      <trkpt lat="45.42066" lon="4.57421">
        <ele>681.4</ele>
        <time>1970-01-01T00:17:02.000Z</time>
      </trkpt>
      <trkpt lat="45.42062" lon="4.57425">
        <ele>681.8</ele>
        <time>1970-01-01T00:17:05.000Z</time>
      </trkpt>
      <trkpt lat="45.42061" lon="4.57426">
        <ele>682.4</ele>
        <time>1970-01-01T00:17:06.000Z</time>
      </trkpt>
      <trkpt lat="45.42059" lon="4.57428">
        <ele>682.8</ele>
        <time>1970-01-01T00:17:07.000Z</time>
      </trkpt>
      <trkpt lat="45.42057" lon="4.57429">
        <ele>683.2</ele>
        <time>1970-01-01T00:17:08.000Z</time>
      </trkpt>
      <trkpt lat="45.42056" lon="4.57431">
        <ele>683.6</ele>
        <time>1970-01-01T00:17:09.000Z</time>
      </trkpt>
      <trkpt lat="45.42055" lon="4.57432">
        <ele>683.6</ele>
        <time>1970-01-01T00:17:10.000Z</time>
      </trkpt>
      <trkpt lat="45.42051" lon="4.57435">
        <ele>683.6</ele>
        <time>1970-01-01T00:17:13.000Z</time>
      </trkpt>
      <trkpt lat="45.42047" lon="4.57438">
        <ele>684</ele>
        <time>1970-01-01T00:17:15.000Z</time>
      </trkpt>
      <trkpt lat="45.42045" lon="4.57439">
        <ele>684.6</ele>
        <time>1970-01-01T00:17:16.000Z</time>
      </trkpt>
      <trkpt lat="45.42043" lon="4.5744">
        <ele>685</ele>
        <time>1970-01-01T00:17:17.000Z</time>
      </trkpt>
      <trkpt lat="45.42042" lon="4.57441">
        <ele>685.4</ele>
        <time>1970-01-01T00:17:18.000Z</time>
      </trkpt>
      <trkpt lat="45.4204" lon="4.57443">
        <ele>685.8</ele>
        <time>1970-01-01T00:17:19.000Z</time>
      </trkpt>
      <trkpt lat="45.42032" lon="4.5745">
        <ele>685.8</ele>
        <time>1970-01-01T00:17:23.000Z</time>
      </trkpt>
      <trkpt lat="45.4203" lon="4.57452">
        <ele>686.8</ele>
        <time>1970-01-01T00:17:24.000Z</time>
      </trkpt>
      <trkpt lat="45.42027" lon="4.57453">
        <ele>687.2</ele>
        <time>1970-01-01T00:17:25.000Z</time>
      </trkpt>
      <trkpt lat="45.42026" lon="4.57454">
        <ele>687.6</ele>
        <time>1970-01-01T00:17:26.000Z</time>
      </trkpt>
      <trkpt lat="45.42025" lon="4.57456">
        <ele>688</ele>
        <time>1970-01-01T00:17:27.000Z</time>
      </trkpt>
      <trkpt lat="45.42023" lon="4.57458">
        <ele>688</ele>
        <time>1970-01-01T00:17:29.000Z</time>
      </trkpt>
      <trkpt lat="45.42019" lon="4.5746">
        <ele>688</ele>
        <time>1970-01-01T00:17:31.000Z</time>
      </trkpt>
      <trkpt lat="45.42015" lon="4.57461">
        <ele>688.4</ele>
        <time>1970-01-01T00:17:33.000Z</time>
      </trkpt>
      <trkpt lat="45.42013" lon="4.57462">
        <ele>688.8</ele>
        <time>1970-01-01T00:17:34.000Z</time>
      </trkpt>
      <trkpt lat="45.42011" lon="4.57463">
        <ele>689.4</ele>
        <time>1970-01-01T00:17:35.000Z</time>
      </trkpt>
      <trkpt lat="45.42009" lon="4.57464">
        <ele>689.8</ele>
        <time>1970-01-01T00:17:36.000Z</time>
      </trkpt>
      <trkpt lat="45.42008" lon="4.57465">
        <ele>690.2</ele>
        <time>1970-01-01T00:17:37.000Z</time>
      </trkpt>
      <trkpt lat="45.42005" lon="4.57466">
        <ele>690.2</ele>
        <time>1970-01-01T00:17:39.000Z</time>
      </trkpt>
      <trkpt lat="45.41999" lon="4.57468">
        <ele>690.6</ele>
        <time>1970-01-01T00:17:43.000Z</time>
      </trkpt>
      <trkpt lat="45.41997" lon="4.57468">
        <ele>691</ele>
        <time>1970-01-01T00:17:44.000Z</time>
      </trkpt>
      <trkpt lat="45.41996" lon="4.57469">
        <ele>691.6</ele>
        <time>1970-01-01T00:17:45.000Z</time>
      </trkpt>
      <trkpt lat="45.41994" lon="4.57471">
        <ele>692</ele>
        <time>1970-01-01T00:17:46.000Z</time>
      </trkpt>
      <trkpt lat="45.41993" lon="4.57472">
        <ele>692.4</ele>
        <time>1970-01-01T00:17:47.000Z</time>
      </trkpt>
      <trkpt lat="45.4199" lon="4.57474">
        <ele>692.4</ele>
        <time>1970-01-01T00:17:49.000Z</time>
      </trkpt>
      <trkpt lat="45.41985" lon="4.57476">
        <ele>692.8</ele>
        <time>1970-01-01T00:17:54.000Z</time>
      </trkpt>
      <trkpt lat="45.41984" lon="4.57477">
        <ele>693.2</ele>
        <time>1970-01-01T00:17:55.000Z</time>
      </trkpt>
      <trkpt lat="45.41982" lon="4.57478">
        <ele>693.6</ele>
        <time>1970-01-01T00:17:56.000Z</time>
      </trkpt>
      <trkpt lat="45.41981" lon="4.57479">
        <ele>694.2</ele>
        <time>1970-01-01T00:17:57.000Z</time>
      </trkpt>
      <trkpt lat="45.4198" lon="4.5748">
        <ele>694.6</ele>
        <time>1970-01-01T00:17:58.000Z</time>
      </trkpt>
      <trkpt lat="45.41977" lon="4.57482">
        <ele>694.6</ele>
        <time>1970-01-01T00:18:00.000Z</time>
      </trkpt>
      <trkpt lat="45.41975" lon="4.57483">
        <ele>695</ele>
        <time>1970-01-01T00:18:02.000Z</time>
      </trkpt>
      <trkpt lat="45.41973" lon="4.57484">
        <ele>695.4</ele>
        <time>1970-01-01T00:18:03.000Z</time>
      </trkpt>
      <trkpt lat="45.41971" lon="4.57485">
        <ele>695.8</ele>
        <time>1970-01-01T00:18:04.000Z</time>
      </trkpt>
      <trkpt lat="45.41969" lon="4.57486">
        <ele>696.2</ele>
        <time>1970-01-01T00:18:05.000Z</time>
      </trkpt>
      <trkpt lat="45.41968" lon="4.57487">
        <ele>696.6</ele>
        <time>1970-01-01T00:18:06.000Z</time>
      </trkpt>
      <trkpt lat="45.41963" lon="4.57489">
        <ele>696.6</ele>
        <time>1970-01-01T00:18:09.000Z</time>
      </trkpt>
      <trkpt lat="45.41962" lon="4.5749">
        <ele>696.6</ele>
        <time>1970-01-01T00:18:10.000Z</time>
      </trkpt>
      <trkpt lat="45.41951" lon="4.57495">
        <ele>696.6</ele>
        <time>1970-01-01T00:18:16.000Z</time>
      </trkpt>
      <trkpt lat="45.41947" lon="4.57496">
        <ele>697</ele>
        <time>1970-01-01T00:18:18.000Z</time>
      </trkpt>
      <trkpt lat="45.41945" lon="4.57496">
        <ele>697.4</ele>
        <time>1970-01-01T00:18:19.000Z</time>
      </trkpt>
      <trkpt lat="45.41943" lon="4.57498">
        <ele>697.8</ele>
        <time>1970-01-01T00:18:20.000Z</time>
      </trkpt>
      <trkpt lat="45.41942" lon="4.57498">
        <ele>698.2</ele>
        <time>1970-01-01T00:18:21.000Z</time>
      </trkpt>
      <trkpt lat="45.4194" lon="4.57499">
        <ele>698.6</ele>
        <time>1970-01-01T00:18:22.000Z</time>
      </trkpt>
      <trkpt lat="45.41935" lon="4.575">
        <ele>698.6</ele>
        <time>1970-01-01T00:18:25.000Z</time>
      </trkpt>
      <trkpt lat="45.41932" lon="4.575">
        <ele>698.6</ele>
        <time>1970-01-01T00:18:26.000Z</time>
      </trkpt>
      <trkpt lat="45.4192" lon="4.57503">
        <ele>699</ele>
        <time>1970-01-01T00:18:30.000Z</time>
      </trkpt>
      <trkpt lat="45.41918" lon="4.57504">
        <ele>699.4</ele>
        <time>1970-01-01T00:18:31.000Z</time>
      </trkpt>
      <trkpt lat="45.41916" lon="4.57504">
        <ele>699.8</ele>
        <time>1970-01-01T00:18:32.000Z</time>
      </trkpt>
      <trkpt lat="45.41914" lon="4.57505">
        <ele>700.2</ele>
        <time>1970-01-01T00:18:33.000Z</time>
      </trkpt>
      <trkpt lat="45.41912" lon="4.57505">
        <ele>700.6</ele>
        <time>1970-01-01T00:18:34.000Z</time>
      </trkpt>
      <trkpt lat="45.41908" lon="4.57504">
        <ele>700.6</ele>
        <time>1970-01-01T00:18:36.000Z</time>
      </trkpt>
      <trkpt lat="45.41906" lon="4.57503">
        <ele>701.4</ele>
        <time>1970-01-01T00:18:37.000Z</time>
      </trkpt>
      <trkpt lat="45.41904" lon="4.57502">
        <ele>701.8</ele>
        <time>1970-01-01T00:18:38.000Z</time>
      </trkpt>
      <trkpt lat="45.41903" lon="4.57501">
        <ele>702.4</ele>
        <time>1970-01-01T00:18:39.000Z</time>
      </trkpt>
      <trkpt lat="45.41901" lon="4.575">
        <ele>702.8</ele>
        <time>1970-01-01T00:18:40.000Z</time>
      </trkpt>
      <trkpt lat="45.41896" lon="4.57497">
        <ele>702.8</ele>
        <time>1970-01-01T00:18:44.000Z</time>
      </trkpt>
      <trkpt lat="45.41893" lon="4.57496">
        <ele>703.2</ele>
        <time>1970-01-01T00:18:46.000Z</time>
      </trkpt>
      <trkpt lat="45.41892" lon="4.57496">
        <ele>703.6</ele>
        <time>1970-01-01T00:18:47.000Z</time>
      </trkpt>
      <trkpt lat="45.41891" lon="4.57495">
        <ele>704</ele>
        <time>1970-01-01T00:18:48.000Z</time>
      </trkpt>
      <trkpt lat="45.4189" lon="4.57494">
        <ele>704.4</ele>
        <time>1970-01-01T00:18:49.000Z</time>
      </trkpt>
      <trkpt lat="45.41889" lon="4.57493">
        <ele>704.8</ele>
        <time>1970-01-01T00:18:50.000Z</time>
      </trkpt>
      <trkpt lat="45.41881" lon="4.57487">
        <ele>705.2</ele>
        <time>1970-01-01T00:18:55.000Z</time>
      </trkpt>
      <trkpt lat="45.41879" lon="4.57486">
        <ele>705.6</ele>
        <time>1970-01-01T00:18:56.000Z</time>
      </trkpt>
      <trkpt lat="45.41878" lon="4.57485">
        <ele>706</ele>
        <time>1970-01-01T00:18:57.000Z</time>
      </trkpt>
      <trkpt lat="45.41877" lon="4.57485">
        <ele>706.4</ele>
        <time>1970-01-01T00:18:58.000Z</time>
      </trkpt>
      <trkpt lat="45.41875" lon="4.57484">
        <ele>706.8</ele>
        <time>1970-01-01T00:18:59.000Z</time>
      </trkpt>
      <trkpt lat="45.41872" lon="4.57483">
        <ele>707.2</ele>
        <time>1970-01-01T00:19:01.000Z</time>
      </trkpt>
      <trkpt lat="45.41871" lon="4.57482">
        <ele>707.8</ele>
        <time>1970-01-01T00:19:02.000Z</time>
      </trkpt>
      <trkpt lat="45.4187" lon="4.5748">
        <ele>708.2</ele>
        <time>1970-01-01T00:19:03.000Z</time>
      </trkpt>
      <trkpt lat="45.41869" lon="4.57478">
        <ele>708.6</ele>
        <time>1970-01-01T00:19:04.000Z</time>
      </trkpt>
      <trkpt lat="45.41868" lon="4.57476">
        <ele>709</ele>
        <time>1970-01-01T00:19:05.000Z</time>
      </trkpt>
      <trkpt lat="45.41866" lon="4.57473">
        <ele>709</ele>
        <time>1970-01-01T00:19:07.000Z</time>
      </trkpt>
      <trkpt lat="45.41865" lon="4.5747">
        <ele>709</ele>
        <time>1970-01-01T00:19:09.000Z</time>
      </trkpt>
      <trkpt lat="45.41864" lon="4.57468">
        <ele>709.4</ele>
        <time>1970-01-01T00:19:10.000Z</time>
      </trkpt>
      <trkpt lat="45.41864" lon="4.57467">
        <ele>709.8</ele>
        <time>1970-01-01T00:19:11.000Z</time>
      </trkpt>
      <trkpt lat="45.41864" lon="4.57465">
        <ele>710.4</ele>
        <time>1970-01-01T00:19:12.000Z</time>
      </trkpt>
      <trkpt lat="45.41864" lon="4.57463">
        <ele>710.8</ele>
        <time>1970-01-01T00:19:13.000Z</time>
      </trkpt>
      <trkpt lat="45.41864" lon="4.57461">
        <ele>711.2</ele>
        <time>1970-01-01T00:19:14.000Z</time>
      </trkpt>
      <trkpt lat="45.41864" lon="4.5746">
        <ele>711.2</ele>
        <time>1970-01-01T00:19:15.000Z</time>
      </trkpt>
      <trkpt lat="45.41863" lon="4.57456">
        <ele>711.2</ele>
        <time>1970-01-01T00:19:17.000Z</time>
      </trkpt>
      <trkpt lat="45.41863" lon="4.57455">
        <ele>711.6</ele>
        <time>1970-01-01T00:19:18.000Z</time>
      </trkpt>
      <trkpt lat="45.41863" lon="4.57452">
        <ele>712.2</ele>
        <time>1970-01-01T00:19:19.000Z</time>
      </trkpt>
      <trkpt lat="45.41863" lon="4.5745">
        <ele>712.6</ele>
        <time>1970-01-01T00:19:20.000Z</time>
      </trkpt>
      <trkpt lat="45.41863" lon="4.57448">
        <ele>713</ele>
        <time>1970-01-01T00:19:21.000Z</time>
      </trkpt>
      <trkpt lat="45.41863" lon="4.57446">
        <ele>713.6</ele>
        <time>1970-01-01T00:19:22.000Z</time>
      </trkpt>
      <trkpt lat="45.41862" lon="4.57443">
        <ele>714</ele>
        <time>1970-01-01T00:19:24.000Z</time>
      </trkpt>
      <trkpt lat="45.41862" lon="4.57441">
        <ele>714.4</ele>
        <time>1970-01-01T00:19:25.000Z</time>
      </trkpt>
      <trkpt lat="45.41862" lon="4.57439">
        <ele>715.4</ele>
        <time>1970-01-01T00:19:26.000Z</time>
      </trkpt>
      <trkpt lat="45.41863" lon="4.57437">
        <ele>715.8</ele>
        <time>1970-01-01T00:19:27.000Z</time>
      </trkpt>
      <trkpt lat="45.41863" lon="4.57435">
        <ele>715.8</ele>
        <time>1970-01-01T00:19:28.000Z</time>
      </trkpt>
      <trkpt lat="45.41865" lon="4.5743">
        <ele>715.8</ele>
        <time>1970-01-01T00:19:31.000Z</time>
      </trkpt>
      <trkpt lat="45.41865" lon="4.57428">
        <ele>716.2</ele>
        <time>1970-01-01T00:19:32.000Z</time>
      </trkpt>
      <trkpt lat="45.41865" lon="4.57427">
        <ele>716.8</ele>
        <time>1970-01-01T00:19:33.000Z</time>
      </trkpt>
      <trkpt lat="45.41866" lon="4.57425">
        <ele>717.2</ele>
        <time>1970-01-01T00:19:34.000Z</time>
      </trkpt>
      <trkpt lat="45.41866" lon="4.57423">
        <ele>717.6</ele>
        <time>1970-01-01T00:19:35.000Z</time>
      </trkpt>
      <trkpt lat="45.41866" lon="4.57421">
        <ele>718</ele>
        <time>1970-01-01T00:19:36.000Z</time>
      </trkpt>
      <trkpt lat="45.41867" lon="4.57417">
        <ele>718.4</ele>
        <time>1970-01-01T00:19:38.000Z</time>
      </trkpt>
      <trkpt lat="45.41867" lon="4.57414">
        <ele>718.8</ele>
        <time>1970-01-01T00:19:39.000Z</time>
      </trkpt>
      <trkpt lat="45.41867" lon="4.57412">
        <ele>719.4</ele>
        <time>1970-01-01T00:19:40.000Z</time>
      </trkpt>
      <trkpt lat="45.41868" lon="4.5741">
        <ele>719.8</ele>
        <time>1970-01-01T00:19:41.000Z</time>
      </trkpt>
      <trkpt lat="45.41868" lon="4.57408">
        <ele>720.2</ele>
        <time>1970-01-01T00:19:42.000Z</time>
      </trkpt>
      <trkpt lat="45.41869" lon="4.57406">
        <ele>720.6</ele>
        <time>1970-01-01T00:19:43.000Z</time>
      </trkpt>
      <trkpt lat="45.41869" lon="4.57403">
        <ele>721</ele>
        <time>1970-01-01T00:19:44.000Z</time>
      </trkpt>
      <trkpt lat="45.4187" lon="4.57402">
        <ele>721.6</ele>
        <time>1970-01-01T00:19:45.000Z</time>
      </trkpt>
      <trkpt lat="45.4187" lon="4.57401">
        <ele>722</ele>
        <time>1970-01-01T00:19:46.000Z</time>
      </trkpt>
      <trkpt lat="45.4187" lon="4.57399">
        <ele>722.4</ele>
        <time>1970-01-01T00:19:47.000Z</time>
      </trkpt>
      <trkpt lat="45.4187" lon="4.57397">
        <ele>722.4</ele>
        <time>1970-01-01T00:19:48.000Z</time>
      </trkpt>
      <trkpt lat="45.41871" lon="4.57395">
        <ele>722.8</ele>
        <time>1970-01-01T00:19:49.000Z</time>
      </trkpt>
      <trkpt lat="45.41871" lon="4.57394">
        <ele>723.2</ele>
        <time>1970-01-01T00:19:50.000Z</time>
      </trkpt>
      <trkpt lat="45.41871" lon="4.57392">
        <ele>724</ele>
        <time>1970-01-01T00:19:51.000Z</time>
      </trkpt>
      <trkpt lat="45.41872" lon="4.57391">
        <ele>724.6</ele>
        <time>1970-01-01T00:19:52.000Z</time>
      </trkpt>
      <trkpt lat="45.41874" lon="4.57385">
        <ele>724.6</ele>
        <time>1970-01-01T00:19:55.000Z</time>
      </trkpt>
      <trkpt lat="45.41874" lon="4.57383">
        <ele>724.6</ele>
        <time>1970-01-01T00:19:56.000Z</time>
      </trkpt>
      <trkpt lat="45.41877" lon="4.57374">
        <ele>724.6</ele>
        <time>1970-01-01T00:20:02.000Z</time>
      </trkpt>
      <trkpt lat="45.41879" lon="4.5737">
        <ele>725</ele>
        <time>1970-01-01T00:20:04.000Z</time>
      </trkpt>
      <trkpt lat="45.4188" lon="4.57369">
        <ele>725.4</ele>
        <time>1970-01-01T00:20:05.000Z</time>
      </trkpt>
      <trkpt lat="45.4188" lon="4.57368">
        <ele>725.8</ele>
        <time>1970-01-01T00:20:06.000Z</time>
      </trkpt>
      <trkpt lat="45.4188" lon="4.57366">
        <ele>726.2</ele>
        <time>1970-01-01T00:20:07.000Z</time>
      </trkpt>
      <trkpt lat="45.4188" lon="4.57365">
        <ele>726.6</ele>
        <time>1970-01-01T00:20:08.000Z</time>
      </trkpt>
      <trkpt lat="45.41881" lon="4.57359">
        <ele>727</ele>
        <time>1970-01-01T00:20:12.000Z</time>
      </trkpt>
      <trkpt lat="45.41881" lon="4.57356">
        <ele>727.4</ele>
        <time>1970-01-01T00:20:13.000Z</time>
      </trkpt>
      <trkpt lat="45.41881" lon="4.57354">
        <ele>727.8</ele>
        <time>1970-01-01T00:20:14.000Z</time>
      </trkpt>
      <trkpt lat="45.41882" lon="4.57351">
        <ele>728.8</ele>
        <time>1970-01-01T00:20:15.000Z</time>
      </trkpt>
      <trkpt lat="45.41882" lon="4.57346">
        <ele>729.2</ele>
        <time>1970-01-01T00:20:16.000Z</time>
      </trkpt>
      <trkpt lat="45.41882" lon="4.57344">
        <ele>729.6</ele>
        <time>1970-01-01T00:20:17.000Z</time>
      </trkpt>
      <trkpt lat="45.41883" lon="4.57342">
        <ele>730.2</ele>
        <time>1970-01-01T00:20:18.000Z</time>
      </trkpt>
      <trkpt lat="45.41884" lon="4.5734">
        <ele>730.6</ele>
        <time>1970-01-01T00:20:19.000Z</time>
      </trkpt>
      <trkpt lat="45.41886" lon="4.57337">
        <ele>730.6</ele>
        <time>1970-01-01T00:20:21.000Z</time>
      </trkpt>
      <trkpt lat="45.41889" lon="4.57325">
        <ele>730.6</ele>
        <time>1970-01-01T00:20:25.000Z</time>
      </trkpt>
      <trkpt lat="45.4189" lon="4.57323">
        <ele>731</ele>
        <time>1970-01-01T00:20:26.000Z</time>
      </trkpt>
      <trkpt lat="45.4189" lon="4.57321">
        <ele>731.4</ele>
        <time>1970-01-01T00:20:27.000Z</time>
      </trkpt>
      <trkpt lat="45.41891" lon="4.57319">
        <ele>731.8</ele>
        <time>1970-01-01T00:20:28.000Z</time>
      </trkpt>
      <trkpt lat="45.41892" lon="4.57316">
        <ele>732.2</ele>
        <time>1970-01-01T00:20:29.000Z</time>
      </trkpt>
      <trkpt lat="45.41893" lon="4.57314">
        <ele>732.6</ele>
        <time>1970-01-01T00:20:30.000Z</time>
      </trkpt>
      <trkpt lat="45.41896" lon="4.57308">
        <ele>733.2</ele>
        <time>1970-01-01T00:20:34.000Z</time>
      </trkpt>
      <trkpt lat="45.41897" lon="4.57307">
        <ele>733.6</ele>
        <time>1970-01-01T00:20:35.000Z</time>
      </trkpt>
      <trkpt lat="45.41897" lon="4.57305">
        <ele>734</ele>
        <time>1970-01-01T00:20:36.000Z</time>
      </trkpt>
      <trkpt lat="45.41897" lon="4.57304">
        <ele>734.4</ele>
        <time>1970-01-01T00:20:37.000Z</time>
      </trkpt>
      <trkpt lat="45.41897" lon="4.57303">
        <ele>734.8</ele>
        <time>1970-01-01T00:20:38.000Z</time>
      </trkpt>
      <trkpt lat="45.41897" lon="4.57301">
        <ele>734.8</ele>
        <time>1970-01-01T00:20:39.000Z</time>
      </trkpt>
      <trkpt lat="45.419" lon="4.57293">
        <ele>735.2</ele>
        <time>1970-01-01T00:20:45.000Z</time>
      </trkpt>
      <trkpt lat="45.419" lon="4.57291">
        <ele>735.8</ele>
        <time>1970-01-01T00:20:46.000Z</time>
      </trkpt>
      <trkpt lat="45.41901" lon="4.5729">
        <ele>736.2</ele>
        <time>1970-01-01T00:20:47.000Z</time>
      </trkpt>
      <trkpt lat="45.41901" lon="4.57287">
        <ele>736.6</ele>
        <time>1970-01-01T00:20:48.000Z</time>
      </trkpt>
      <trkpt lat="45.41901" lon="4.57285">
        <ele>737</ele>
        <time>1970-01-01T00:20:49.000Z</time>
      </trkpt>
      <trkpt lat="45.41901" lon="4.57283">
        <ele>737</ele>
        <time>1970-01-01T00:20:50.000Z</time>
      </trkpt>
      <trkpt lat="45.41902" lon="4.57276">
        <ele>737</ele>
        <time>1970-01-01T00:20:54.000Z</time>
      </trkpt>
      <trkpt lat="45.41901" lon="4.57273">
        <ele>737.4</ele>
        <time>1970-01-01T00:20:55.000Z</time>
      </trkpt>
      <trkpt lat="45.419" lon="4.5727">
        <ele>737.8</ele>
        <time>1970-01-01T00:20:56.000Z</time>
      </trkpt>
      <trkpt lat="45.419" lon="4.57267">
        <ele>738.2</ele>
        <time>1970-01-01T00:20:57.000Z</time>
      </trkpt>
      <trkpt lat="45.41901" lon="4.57262">
        <ele>738.6</ele>
        <time>1970-01-01T00:20:58.000Z</time>
      </trkpt>
      <trkpt lat="45.41901" lon="4.57259">
        <ele>739</ele>
        <time>1970-01-01T00:20:59.000Z</time>
      </trkpt>
      <trkpt lat="45.41901" lon="4.57254">
        <ele>739</ele>
        <time>1970-01-01T00:21:01.000Z</time>
      </trkpt>
      <trkpt lat="45.41901" lon="4.57251">
        <ele>739.4</ele>
        <time>1970-01-01T00:21:02.000Z</time>
      </trkpt>
      <trkpt lat="45.419" lon="4.57249">
        <ele>739.8</ele>
        <time>1970-01-01T00:21:03.000Z</time>
      </trkpt>
      <trkpt lat="45.41899" lon="4.57247">
        <ele>740.2</ele>
        <time>1970-01-01T00:21:04.000Z</time>
      </trkpt>
      <trkpt lat="45.41899" lon="4.57244">
        <ele>741.2</ele>
        <time>1970-01-01T00:21:05.000Z</time>
      </trkpt>
      <trkpt lat="45.41898" lon="4.57242">
        <ele>741.2</ele>
        <time>1970-01-01T00:21:06.000Z</time>
      </trkpt>
      <trkpt lat="45.41898" lon="4.57238">
        <ele>741.6</ele>
        <time>1970-01-01T00:21:08.000Z</time>
      </trkpt>
      <trkpt lat="45.41899" lon="4.57236">
        <ele>742</ele>
        <time>1970-01-01T00:21:09.000Z</time>
      </trkpt>
      <trkpt lat="45.41899" lon="4.57233">
        <ele>742.4</ele>
        <time>1970-01-01T00:21:10.000Z</time>
      </trkpt>
      <trkpt lat="45.419" lon="4.5723">
        <ele>742.8</ele>
        <time>1970-01-01T00:21:11.000Z</time>
      </trkpt>
      <trkpt lat="45.419" lon="4.57227">
        <ele>743.2</ele>
        <time>1970-01-01T00:21:12.000Z</time>
      </trkpt>
      <trkpt lat="45.41901" lon="4.57219">
        <ele>743.2</ele>
        <time>1970-01-01T00:21:14.000Z</time>
      </trkpt>
      <trkpt lat="45.41901" lon="4.57216">
        <ele>743.6</ele>
        <time>1970-01-01T00:21:15.000Z</time>
      </trkpt>
      <trkpt lat="45.41901" lon="4.57212">
        <ele>744.2</ele>
        <time>1970-01-01T00:21:16.000Z</time>
      </trkpt>
      <trkpt lat="45.41902" lon="4.57208">
        <ele>744.6</ele>
        <time>1970-01-01T00:21:17.000Z</time>
      </trkpt>
      <trkpt lat="45.41902" lon="4.57204">
        <ele>745.2</ele>
        <time>1970-01-01T00:21:18.000Z</time>
      </trkpt>
      <trkpt lat="45.41902" lon="4.572">
        <ele>745.6</ele>
        <time>1970-01-01T00:21:19.000Z</time>
      </trkpt>
      <trkpt lat="45.41903" lon="4.57196">
        <ele>746</ele>
        <time>1970-01-01T00:21:20.000Z</time>
      </trkpt>
      <trkpt lat="45.41903" lon="4.57192">
        <ele>746.4</ele>
        <time>1970-01-01T00:21:21.000Z</time>
      </trkpt>
      <trkpt lat="45.41903" lon="4.5719">
        <ele>747</ele>
        <time>1970-01-01T00:21:22.000Z</time>
      </trkpt>
      <trkpt lat="45.41904" lon="4.57187">
        <ele>747.4</ele>
        <time>1970-01-01T00:21:23.000Z</time>
      </trkpt>
      <trkpt lat="45.41904" lon="4.57185">
        <ele>747.8</ele>
        <time>1970-01-01T00:21:24.000Z</time>
      </trkpt>
      <trkpt lat="45.41904" lon="4.57182">
        <ele>747.8</ele>
        <time>1970-01-01T00:21:25.000Z</time>
      </trkpt>
      <trkpt lat="45.41903" lon="4.5718">
        <ele>747.8</ele>
        <time>1970-01-01T00:21:26.000Z</time>
      </trkpt>
      <trkpt lat="45.41903" lon="4.57177">
        <ele>748.2</ele>
        <time>1970-01-01T00:21:27.000Z</time>
      </trkpt>
      <trkpt lat="45.41903" lon="4.57176">
        <ele>748.6</ele>
        <time>1970-01-01T00:21:28.000Z</time>
      </trkpt>
      <trkpt lat="45.41903" lon="4.57173">
        <ele>749</ele>
        <time>1970-01-01T00:21:29.000Z</time>
      </trkpt>
      <trkpt lat="45.41903" lon="4.57171">
        <ele>749.8</ele>
        <time>1970-01-01T00:21:30.000Z</time>
      </trkpt>
      <trkpt lat="45.41901" lon="4.57162">
        <ele>750.4</ele>
        <time>1970-01-01T00:21:33.000Z</time>
      </trkpt>
      <trkpt lat="45.41901" lon="4.5716">
        <ele>750.8</ele>
        <time>1970-01-01T00:21:34.000Z</time>
      </trkpt>
      <trkpt lat="45.41901" lon="4.57158">
        <ele>751.2</ele>
        <time>1970-01-01T00:21:35.000Z</time>
      </trkpt>
      <trkpt lat="45.419" lon="4.57156">
        <ele>751.6</ele>
        <time>1970-01-01T00:21:36.000Z</time>
      </trkpt>
      <trkpt lat="45.41899" lon="4.57153">
        <ele>752</ele>
        <time>1970-01-01T00:21:37.000Z</time>
      </trkpt>
      <trkpt lat="45.41898" lon="4.57149">
        <ele>752</ele>
        <time>1970-01-01T00:21:39.000Z</time>
      </trkpt>
      <trkpt lat="45.41896" lon="4.57147">
        <ele>752.4</ele>
        <time>1970-01-01T00:21:41.000Z</time>
      </trkpt>
      <trkpt lat="45.41895" lon="4.57145">
        <ele>752.8</ele>
        <time>1970-01-01T00:21:42.000Z</time>
      </trkpt>
      <trkpt lat="45.41894" lon="4.57143">
        <ele>753.2</ele>
        <time>1970-01-01T00:21:43.000Z</time>
      </trkpt>
      <trkpt lat="45.41893" lon="4.57141">
        <ele>753.8</ele>
        <time>1970-01-01T00:21:44.000Z</time>
      </trkpt>
      <trkpt lat="45.41892" lon="4.5714">
        <ele>754.2</ele>
        <time>1970-01-01T00:21:45.000Z</time>
      </trkpt>
      <trkpt lat="45.41886" lon="4.5713">
        <ele>754.6</ele>
        <time>1970-01-01T00:21:51.000Z</time>
      </trkpt>
      <trkpt lat="45.41885" lon="4.57128">
        <ele>755</ele>
        <time>1970-01-01T00:21:52.000Z</time>
      </trkpt>
      <trkpt lat="45.41884" lon="4.57127">
        <ele>755.4</ele>
        <time>1970-01-01T00:21:53.000Z</time>
      </trkpt>
      <trkpt lat="45.41883" lon="4.57125">
        <ele>755.8</ele>
        <time>1970-01-01T00:21:54.000Z</time>
      </trkpt>
      <trkpt lat="45.41882" lon="4.57124">
        <ele>756.4</ele>
        <time>1970-01-01T00:21:55.000Z</time>
      </trkpt>
      <trkpt lat="45.4188" lon="4.57121">
        <ele>756.8</ele>
        <time>1970-01-01T00:21:57.000Z</time>
      </trkpt>
      <trkpt lat="45.41879" lon="4.57119">
        <ele>757.2</ele>
        <time>1970-01-01T00:21:58.000Z</time>
      </trkpt>
      <trkpt lat="45.41878" lon="4.57117">
        <ele>757.6</ele>
        <time>1970-01-01T00:21:59.000Z</time>
      </trkpt>
      <trkpt lat="45.41877" lon="4.57115">
        <ele>758.2</ele>
        <time>1970-01-01T00:22:00.000Z</time>
      </trkpt>
      <trkpt lat="45.41876" lon="4.57114">
        <ele>758.6</ele>
        <time>1970-01-01T00:22:01.000Z</time>
      </trkpt>
      <trkpt lat="45.41872" lon="4.57107">
        <ele>758.6</ele>
        <time>1970-01-01T00:22:05.000Z</time>
      </trkpt>
      <trkpt lat="45.41872" lon="4.57106">
        <ele>759</ele>
        <time>1970-01-01T00:22:06.000Z</time>
      </trkpt>
      <trkpt lat="45.41871" lon="4.57105">
        <ele>759.4</ele>
        <time>1970-01-01T00:22:07.000Z</time>
      </trkpt>
      <trkpt lat="45.4187" lon="4.57103">
        <ele>760</ele>
        <time>1970-01-01T00:22:08.000Z</time>
      </trkpt>
      <trkpt lat="45.41869" lon="4.57102">
        <ele>760.4</ele>
        <time>1970-01-01T00:22:09.000Z</time>
      </trkpt>
      <trkpt lat="45.41868" lon="4.57101">
        <ele>760.8</ele>
        <time>1970-01-01T00:22:10.000Z</time>
      </trkpt>
      <trkpt lat="45.41865" lon="4.57095">
        <ele>761.2</ele>
        <time>1970-01-01T00:22:13.000Z</time>
      </trkpt>
      <trkpt lat="45.41865" lon="4.57094">
        <ele>761.6</ele>
        <time>1970-01-01T00:22:14.000Z</time>
      </trkpt>
      <trkpt lat="45.41864" lon="4.57092">
        <ele>762.2</ele>
        <time>1970-01-01T00:22:15.000Z</time>
      </trkpt>
      <trkpt lat="45.41863" lon="4.5709">
        <ele>762.6</ele>
        <time>1970-01-01T00:22:16.000Z</time>
      </trkpt>
      <trkpt lat="45.41862" lon="4.57088">
        <ele>763</ele>
        <time>1970-01-01T00:22:17.000Z</time>
      </trkpt>
      <trkpt lat="45.41859" lon="4.57081">
        <ele>763.4</ele>
        <time>1970-01-01T00:22:21.000Z</time>
      </trkpt>
      <trkpt lat="45.41857" lon="4.57079">
        <ele>763.8</ele>
        <time>1970-01-01T00:22:22.000Z</time>
      </trkpt>
      <trkpt lat="45.41856" lon="4.57077">
        <ele>764.2</ele>
        <time>1970-01-01T00:22:23.000Z</time>
      </trkpt>
      <trkpt lat="45.41855" lon="4.57075">
        <ele>764.6</ele>
        <time>1970-01-01T00:22:24.000Z</time>
      </trkpt>
      <trkpt lat="45.41854" lon="4.57074">
        <ele>765</ele>
        <time>1970-01-01T00:22:25.000Z</time>
      </trkpt>
      <trkpt lat="45.41851" lon="4.5707">
        <ele>765.6</ele>
        <time>1970-01-01T00:22:28.000Z</time>
      </trkpt>
      <trkpt lat="45.4185" lon="4.57069">
        <ele>766</ele>
        <time>1970-01-01T00:22:29.000Z</time>
      </trkpt>
      <trkpt lat="45.4185" lon="4.57069">
        <ele>766.4</ele>
        <time>1970-01-01T00:22:30.000Z</time>
      </trkpt>
      <trkpt lat="45.41849" lon="4.57067">
        <ele>767</ele>
        <time>1970-01-01T00:22:31.000Z</time>
      </trkpt>
      <trkpt lat="45.41847" lon="4.57066">
        <ele>767.4</ele>
        <time>1970-01-01T00:22:32.000Z</time>
      </trkpt>
      <trkpt lat="45.41846" lon="4.57065">
        <ele>767.4</ele>
        <time>1970-01-01T00:22:33.000Z</time>
      </trkpt>
      <trkpt lat="45.41843" lon="4.57061">
        <ele>767.4</ele>
        <time>1970-01-01T00:22:36.000Z</time>
      </trkpt>
      <trkpt lat="45.4184" lon="4.57059">
        <ele>767.8</ele>
        <time>1970-01-01T00:22:38.000Z</time>
      </trkpt>
      <trkpt lat="45.41838" lon="4.57058">
        <ele>768.2</ele>
        <time>1970-01-01T00:22:39.000Z</time>
      </trkpt>
      <trkpt lat="45.41837" lon="4.57056">
        <ele>768.6</ele>
        <time>1970-01-01T00:22:40.000Z</time>
      </trkpt>
      <trkpt lat="45.41835" lon="4.57055">
        <ele>769</ele>
        <time>1970-01-01T00:22:41.000Z</time>
      </trkpt>
      <trkpt lat="45.41833" lon="4.57054">
        <ele>769.4</ele>
        <time>1970-01-01T00:22:42.000Z</time>
      </trkpt>
      <trkpt lat="45.41828" lon="4.57051">
        <ele>769.8</ele>
        <time>1970-01-01T00:22:45.000Z</time>
      </trkpt>
      <trkpt lat="45.41826" lon="4.57049">
        <ele>770.2</ele>
        <time>1970-01-01T00:22:46.000Z</time>
      </trkpt>
      <trkpt lat="45.41824" lon="4.57048">
        <ele>770.8</ele>
        <time>1970-01-01T00:22:47.000Z</time>
      </trkpt>
      <trkpt lat="45.41823" lon="4.57046">
        <ele>771.2</ele>
        <time>1970-01-01T00:22:48.000Z</time>
      </trkpt>
      <trkpt lat="45.41821" lon="4.57044">
        <ele>771.6</ele>
        <time>1970-01-01T00:22:49.000Z</time>
      </trkpt>
      <trkpt lat="45.41818" lon="4.5704">
        <ele>771.6</ele>
        <time>1970-01-01T00:22:52.000Z</time>
      </trkpt>
      <trkpt lat="45.4181" lon="4.57032">
        <ele>771.6</ele>
        <time>1970-01-01T00:22:58.000Z</time>
      </trkpt>
      <trkpt lat="45.41809" lon="4.57032">
        <ele>771.6</ele>
        <time>1970-01-01T00:22:59.000Z</time>
      </trkpt>
      <trkpt lat="45.41807" lon="4.57032">
        <ele>772</ele>
        <time>1970-01-01T00:23:00.000Z</time>
      </trkpt>
      <trkpt lat="45.41806" lon="4.57031">
        <ele>772.4</ele>
        <time>1970-01-01T00:23:01.000Z</time>
      </trkpt>
      <trkpt lat="45.41804" lon="4.57031">
        <ele>772.8</ele>
        <time>1970-01-01T00:23:02.000Z</time>
      </trkpt>
      <trkpt lat="45.41802" lon="4.5703">
        <ele>773.2</ele>
        <time>1970-01-01T00:23:03.000Z</time>
      </trkpt>
      <trkpt lat="45.41801" lon="4.57029">
        <ele>773.6</ele>
        <time>1970-01-01T00:23:04.000Z</time>
      </trkpt>
      <trkpt lat="45.41792" lon="4.57028">
        <ele>773.6</ele>
        <time>1970-01-01T00:23:08.000Z</time>
      </trkpt>
      <trkpt lat="45.41786" lon="4.57027">
        <ele>774</ele>
        <time>1970-01-01T00:23:11.000Z</time>
      </trkpt>
      <trkpt lat="45.41783" lon="4.57027">
        <ele>774.6</ele>
        <time>1970-01-01T00:23:12.000Z</time>
      </trkpt>
      <trkpt lat="45.41782" lon="4.57027">
        <ele>775</ele>
        <time>1970-01-01T00:23:13.000Z</time>
      </trkpt>
      <trkpt lat="45.4178" lon="4.57027">
        <ele>775.4</ele>
        <time>1970-01-01T00:23:14.000Z</time>
      </trkpt>
      <trkpt lat="45.41778" lon="4.57028">
        <ele>776</ele>
        <time>1970-01-01T00:23:15.000Z</time>
      </trkpt>
      <trkpt lat="45.41774" lon="4.57029">
        <ele>776.4</ele>
        <time>1970-01-01T00:23:17.000Z</time>
      </trkpt>
      <trkpt lat="45.41772" lon="4.57029">
        <ele>776.8</ele>
        <time>1970-01-01T00:23:18.000Z</time>
      </trkpt>
      <trkpt lat="45.4177" lon="4.57029">
        <ele>777.2</ele>
        <time>1970-01-01T00:23:19.000Z</time>
      </trkpt>
      <trkpt lat="45.41768" lon="4.57029">
        <ele>777.6</ele>
        <time>1970-01-01T00:23:20.000Z</time>
      </trkpt>
      <trkpt lat="45.41766" lon="4.57029">
        <ele>778</ele>
        <time>1970-01-01T00:23:21.000Z</time>
      </trkpt>
      <trkpt lat="45.41761" lon="4.57031">
        <ele>778</ele>
        <time>1970-01-01T00:23:24.000Z</time>
      </trkpt>
      <trkpt lat="45.4176" lon="4.57031">
        <ele>778.6</ele>
        <time>1970-01-01T00:23:26.000Z</time>
      </trkpt>
      <trkpt lat="45.41758" lon="4.57031">
        <ele>779</ele>
        <time>1970-01-01T00:23:27.000Z</time>
      </trkpt>
      <trkpt lat="45.41756" lon="4.57031">
        <ele>779.4</ele>
        <time>1970-01-01T00:23:28.000Z</time>
      </trkpt>
      <trkpt lat="45.41755" lon="4.57031">
        <ele>780</ele>
        <time>1970-01-01T00:23:29.000Z</time>
      </trkpt>
      <trkpt lat="45.41754" lon="4.57031">
        <ele>780.4</ele>
        <time>1970-01-01T00:23:30.000Z</time>
      </trkpt>
      <trkpt lat="45.41752" lon="4.57031">
        <ele>780.4</ele>
        <time>1970-01-01T00:23:31.000Z</time>
      </trkpt>
      <trkpt lat="45.41736" lon="4.57031">
        <ele>780.8</ele>
        <time>1970-01-01T00:23:38.000Z</time>
      </trkpt>
      <trkpt lat="45.41734" lon="4.5703">
        <ele>781.2</ele>
        <time>1970-01-01T00:23:39.000Z</time>
      </trkpt>
      <trkpt lat="45.41732" lon="4.5703">
        <ele>781.6</ele>
        <time>1970-01-01T00:23:40.000Z</time>
      </trkpt>
      <trkpt lat="45.4173" lon="4.5703">
        <ele>782</ele>
        <time>1970-01-01T00:23:41.000Z</time>
      </trkpt>
      <trkpt lat="45.41728" lon="4.57029">
        <ele>782.4</ele>
        <time>1970-01-01T00:23:42.000Z</time>
      </trkpt>
      <trkpt lat="45.41724" lon="4.57029">
        <ele>782.4</ele>
        <time>1970-01-01T00:23:44.000Z</time>
      </trkpt>
      <trkpt lat="45.41714" lon="4.57028">
        <ele>782.8</ele>
        <time>1970-01-01T00:23:50.000Z</time>
      </trkpt>
      <trkpt lat="45.41712" lon="4.57028">
        <ele>783.2</ele>
        <time>1970-01-01T00:23:51.000Z</time>
      </trkpt>
      <trkpt lat="45.4171" lon="4.57027">
        <ele>783.6</ele>
        <time>1970-01-01T00:23:52.000Z</time>
      </trkpt>
      <trkpt lat="45.41707" lon="4.57027">
        <ele>784.2</ele>
        <time>1970-01-01T00:23:53.000Z</time>
      </trkpt>
      <trkpt lat="45.41705" lon="4.57026">
        <ele>784.6</ele>
        <time>1970-01-01T00:23:54.000Z</time>
      </trkpt>
      <trkpt lat="45.41699" lon="4.57024">
        <ele>784.6</ele>
        <time>1970-01-01T00:23:58.000Z</time>
      </trkpt>
      <trkpt lat="45.41697" lon="4.57024">
        <ele>785</ele>
        <time>1970-01-01T00:23:59.000Z</time>
      </trkpt>
      <trkpt lat="45.41696" lon="4.57024">
        <ele>785.4</ele>
        <time>1970-01-01T00:24:00.000Z</time>
      </trkpt>
      <trkpt lat="45.41694" lon="4.57023">
        <ele>785.8</ele>
        <time>1970-01-01T00:24:01.000Z</time>
      </trkpt>
      <trkpt lat="45.41693" lon="4.57023">
        <ele>786.2</ele>
        <time>1970-01-01T00:24:02.000Z</time>
      </trkpt>
      <trkpt lat="45.41691" lon="4.57023">
        <ele>786.6</ele>
        <time>1970-01-01T00:24:03.000Z</time>
      </trkpt>
      <trkpt lat="45.41689" lon="4.57023">
        <ele>786.6</ele>
        <time>1970-01-01T00:24:05.000Z</time>
      </trkpt>
      <trkpt lat="45.41686" lon="4.57023">
        <ele>787</ele>
        <time>1970-01-01T00:24:07.000Z</time>
      </trkpt>
      <trkpt lat="45.41684" lon="4.57023">
        <ele>787.4</ele>
        <time>1970-01-01T00:24:08.000Z</time>
      </trkpt>
      <trkpt lat="45.41683" lon="4.57023">
        <ele>787.8</ele>
        <time>1970-01-01T00:24:09.000Z</time>
      </trkpt>
      <trkpt lat="45.41681" lon="4.57024">
        <ele>788.2</ele>
        <time>1970-01-01T00:24:10.000Z</time>
      </trkpt>
      <trkpt lat="45.4168" lon="4.57025">
        <ele>788.6</ele>
        <time>1970-01-01T00:24:11.000Z</time>
      </trkpt>
      <trkpt lat="45.41676" lon="4.57026">
        <ele>789.2</ele>
        <time>1970-01-01T00:24:14.000Z</time>
      </trkpt>
      <trkpt lat="45.41674" lon="4.57026">
        <ele>789.6</ele>
        <time>1970-01-01T00:24:15.000Z</time>
      </trkpt>
      <trkpt lat="45.41672" lon="4.57027">
        <ele>790</ele>
        <time>1970-01-01T00:24:16.000Z</time>
      </trkpt>
      <trkpt lat="45.4167" lon="4.57027">
        <ele>790.4</ele>
        <time>1970-01-01T00:24:17.000Z</time>
      </trkpt>
      <trkpt lat="45.41668" lon="4.57027">
        <ele>791</ele>
        <time>1970-01-01T00:24:18.000Z</time>
      </trkpt>
      <trkpt lat="45.41655" lon="4.57029">
        <ele>791</ele>
        <time>1970-01-01T00:24:23.000Z</time>
      </trkpt>
      <trkpt lat="45.41641" lon="4.57031">
        <ele>791.4</ele>
        <time>1970-01-01T00:24:29.000Z</time>
      </trkpt>
      <trkpt lat="45.41639" lon="4.57031">
        <ele>791.8</ele>
        <time>1970-01-01T00:24:30.000Z</time>
      </trkpt>
      <trkpt lat="45.41637" lon="4.57032">
        <ele>792.2</ele>
        <time>1970-01-01T00:24:31.000Z</time>
      </trkpt>
      <trkpt lat="45.41635" lon="4.57032">
        <ele>792.6</ele>
        <time>1970-01-01T00:24:32.000Z</time>
      </trkpt>
      <trkpt lat="45.41633" lon="4.57033">
        <ele>793</ele>
        <time>1970-01-01T00:24:33.000Z</time>
      </trkpt>
      <trkpt lat="45.41629" lon="4.57036">
        <ele>793</ele>
        <time>1970-01-01T00:24:35.000Z</time>
      </trkpt>
      <trkpt lat="45.41614" lon="4.5705">
        <ele>793</ele>
        <time>1970-01-01T00:24:42.000Z</time>
      </trkpt>
      <trkpt lat="45.41608" lon="4.57058">
        <ele>793.4</ele>
        <time>1970-01-01T00:24:46.000Z</time>
      </trkpt>
      <trkpt lat="45.41606" lon="4.5706">
        <ele>793.8</ele>
        <time>1970-01-01T00:24:47.000Z</time>
      </trkpt>
      <trkpt lat="45.41605" lon="4.57062">
        <ele>794.6</ele>
        <time>1970-01-01T00:24:48.000Z</time>
      </trkpt>
      <trkpt lat="45.41603" lon="4.57064">
        <ele>795.2</ele>
        <time>1970-01-01T00:24:49.000Z</time>
      </trkpt>
      <trkpt lat="45.41598" lon="4.57076">
        <ele>795.2</ele>
        <time>1970-01-01T00:24:54.000Z</time>
      </trkpt>
      <trkpt lat="45.41589" lon="4.5709">
        <ele>795.2</ele>
        <time>1970-01-01T00:25:00.000Z</time>
      </trkpt>
      <trkpt lat="45.41577" lon="4.571">
        <ele>795.2</ele>
        <time>1970-01-01T00:25:06.000Z</time>
      </trkpt>
      <trkpt lat="45.41563" lon="4.57108">
        <ele>795.2</ele>
        <time>1970-01-01T00:25:13.000Z</time>
      </trkpt>
      <trkpt lat="45.41547" lon="4.57113">
        <ele>795.2</ele>
        <time>1970-01-01T00:25:20.000Z</time>
      </trkpt>
      <trkpt lat="45.41534" lon="4.57121">
        <ele>795.2</ele>
        <time>1970-01-01T00:25:27.000Z</time>
      </trkpt>
      <trkpt lat="45.41528" lon="4.57121">
        <ele>795.6</ele>
        <time>1970-01-01T00:25:30.000Z</time>
      </trkpt>
      <trkpt lat="45.41527" lon="4.5712">
        <ele>796</ele>
        <time>1970-01-01T00:25:31.000Z</time>
      </trkpt>
      <trkpt lat="45.41525" lon="4.5712">
        <ele>796.4</ele>
        <time>1970-01-01T00:25:32.000Z</time>
      </trkpt>
      <trkpt lat="45.41523" lon="4.5712">
        <ele>796.8</ele>
        <time>1970-01-01T00:25:33.000Z</time>
      </trkpt>
      <trkpt lat="45.41522" lon="4.5712">
        <ele>797.4</ele>
        <time>1970-01-01T00:25:34.000Z</time>
      </trkpt>
      <trkpt lat="45.4152" lon="4.57121">
        <ele>797.8</ele>
        <time>1970-01-01T00:25:35.000Z</time>
      </trkpt>
      <trkpt lat="45.41519" lon="4.57121">
        <ele>798.2</ele>
        <time>1970-01-01T00:25:36.000Z</time>
      </trkpt>
      <trkpt lat="45.41517" lon="4.57121">
        <ele>798.8</ele>
        <time>1970-01-01T00:25:37.000Z</time>
      </trkpt>
      <trkpt lat="45.41515" lon="4.5712">
        <ele>799.6</ele>
        <time>1970-01-01T00:25:38.000Z</time>
      </trkpt>
      <trkpt lat="45.41512" lon="4.57119">
        <ele>799.6</ele>
        <time>1970-01-01T00:25:40.000Z</time>
      </trkpt>
      <trkpt lat="45.41507" lon="4.57119">
        <ele>799.6</ele>
        <time>1970-01-01T00:25:43.000Z</time>
      </trkpt>
      <trkpt lat="45.41505" lon="4.57119">
        <ele>800</ele>
        <time>1970-01-01T00:25:44.000Z</time>
      </trkpt>
      <trkpt lat="45.41504" lon="4.57119">
        <ele>800.4</ele>
        <time>1970-01-01T00:25:45.000Z</time>
      </trkpt>
      <trkpt lat="45.41502" lon="4.57118">
        <ele>800.8</ele>
        <time>1970-01-01T00:25:46.000Z</time>
      </trkpt>
      <trkpt lat="45.415" lon="4.57117">
        <ele>801.2</ele>
        <time>1970-01-01T00:25:47.000Z</time>
      </trkpt>
      <trkpt lat="45.41498" lon="4.57116">
        <ele>801.6</ele>
        <time>1970-01-01T00:25:48.000Z</time>
      </trkpt>
      <trkpt lat="45.41492" lon="4.57115">
        <ele>802</ele>
        <time>1970-01-01T00:25:51.000Z</time>
      </trkpt>
      <trkpt lat="45.4149" lon="4.57116">
        <ele>802.4</ele>
        <time>1970-01-01T00:25:52.000Z</time>
      </trkpt>
      <trkpt lat="45.41488" lon="4.57116">
        <ele>802.8</ele>
        <time>1970-01-01T00:25:53.000Z</time>
      </trkpt>
      <trkpt lat="45.41486" lon="4.57116">
        <ele>803.2</ele>
        <time>1970-01-01T00:25:54.000Z</time>
      </trkpt>
      <trkpt lat="45.41485" lon="4.57116">
        <ele>803.6</ele>
        <time>1970-01-01T00:25:55.000Z</time>
      </trkpt>
      <trkpt lat="45.41483" lon="4.57115">
        <ele>804.2</ele>
        <time>1970-01-01T00:25:56.000Z</time>
      </trkpt>
      <trkpt lat="45.41481" lon="4.57115">
        <ele>804.6</ele>
        <time>1970-01-01T00:25:57.000Z</time>
      </trkpt>
      <trkpt lat="45.4148" lon="4.57115">
        <ele>805</ele>
        <time>1970-01-01T00:25:58.000Z</time>
      </trkpt>
      <trkpt lat="45.41478" lon="4.57115">
        <ele>805.4</ele>
        <time>1970-01-01T00:25:59.000Z</time>
      </trkpt>
      <trkpt lat="45.41476" lon="4.57116">
        <ele>805.8</ele>
        <time>1970-01-01T00:26:00.000Z</time>
      </trkpt>
      <trkpt lat="45.41472" lon="4.57121">
        <ele>805.8</ele>
        <time>1970-01-01T00:26:04.000Z</time>
      </trkpt>
      <trkpt lat="45.41472" lon="4.57122">
        <ele>806.2</ele>
        <time>1970-01-01T00:26:05.000Z</time>
      </trkpt>
      <trkpt lat="45.41473" lon="4.57124">
        <ele>806.6</ele>
        <time>1970-01-01T00:26:06.000Z</time>
      </trkpt>
      <trkpt lat="45.41473" lon="4.57126">
        <ele>807.2</ele>
        <time>1970-01-01T00:26:07.000Z</time>
      </trkpt>
      <trkpt lat="45.41474" lon="4.57129">
        <ele>807.6</ele>
        <time>1970-01-01T00:26:08.000Z</time>
      </trkpt>
      <trkpt lat="45.41475" lon="4.5713">
        <ele>808</ele>
        <time>1970-01-01T00:26:09.000Z</time>
      </trkpt>
      <trkpt lat="45.41476" lon="4.57131">
        <ele>808</ele>
        <time>1970-01-01T00:26:10.000Z</time>
      </trkpt>
      <trkpt lat="45.41477" lon="4.5713">
        <ele>808</ele>
        <time>1970-01-01T00:26:11.000Z</time>
      </trkpt>
      <trkpt lat="45.41476" lon="4.57122">
        <ele>808</ele>
        <time>1970-01-01T00:26:15.000Z</time>
      </trkpt>
      <trkpt lat="45.41474" lon="4.5712">
        <ele>808</ele>
        <time>1970-01-01T00:26:16.000Z</time>
      </trkpt>
      <trkpt lat="45.41465" lon="4.57113">
        <ele>808</ele>
        <time>1970-01-01T00:26:21.000Z</time>
      </trkpt>
      <trkpt lat="45.41455" lon="4.57106">
        <ele>808.4</ele>
        <time>1970-01-01T00:26:26.000Z</time>
      </trkpt>
      <trkpt lat="45.41454" lon="4.57105">
        <ele>809.2</ele>
        <time>1970-01-01T00:26:27.000Z</time>
      </trkpt>
      <trkpt lat="45.41452" lon="4.57103">
        <ele>809.6</ele>
        <time>1970-01-01T00:26:28.000Z</time>
      </trkpt>
      <trkpt lat="45.4145" lon="4.57102">
        <ele>810</ele>
        <time>1970-01-01T00:26:29.000Z</time>
      </trkpt>
      <trkpt lat="45.4144" lon="4.57096">
        <ele>810</ele>
        <time>1970-01-01T00:26:34.000Z</time>
      </trkpt>
      <trkpt lat="45.41428" lon="4.57089">
        <ele>810</ele>
        <time>1970-01-01T00:26:41.000Z</time>
      </trkpt>
      <trkpt lat="45.41414" lon="4.57077">
        <ele>810</ele>
        <time>1970-01-01T00:26:49.000Z</time>
      </trkpt>
      <trkpt lat="45.41409" lon="4.57072">
        <ele>810.4</ele>
        <time>1970-01-01T00:26:52.000Z</time>
      </trkpt>
      <trkpt lat="45.41407" lon="4.5707">
        <ele>810.8</ele>
        <time>1970-01-01T00:26:53.000Z</time>
      </trkpt>
      <trkpt lat="45.41406" lon="4.57069">
        <ele>811.4</ele>
        <time>1970-01-01T00:26:54.000Z</time>
      </trkpt>
      <trkpt lat="45.41404" lon="4.57067">
        <ele>811.8</ele>
        <time>1970-01-01T00:26:55.000Z</time>
      </trkpt>
      <trkpt lat="45.41403" lon="4.57066">
        <ele>812.2</ele>
        <time>1970-01-01T00:26:56.000Z</time>
      </trkpt>
      <trkpt lat="45.41394" lon="4.57056">
        <ele>812.6</ele>
        <time>1970-01-01T00:27:01.000Z</time>
      </trkpt>
      <trkpt lat="45.41392" lon="4.57054">
        <ele>813</ele>
        <time>1970-01-01T00:27:02.000Z</time>
      </trkpt>
      <trkpt lat="45.4139" lon="4.57053">
        <ele>813.6</ele>
        <time>1970-01-01T00:27:03.000Z</time>
      </trkpt>
      <trkpt lat="45.41388" lon="4.57051">
        <ele>814</ele>
        <time>1970-01-01T00:27:04.000Z</time>
      </trkpt>
      <trkpt lat="45.41386" lon="4.57048">
        <ele>814.4</ele>
        <time>1970-01-01T00:27:05.000Z</time>
      </trkpt>
      <trkpt lat="45.41377" lon="4.57037">
        <ele>814.4</ele>
        <time>1970-01-01T00:27:11.000Z</time>
      </trkpt>
      <trkpt lat="45.41376" lon="4.57035">
        <ele>814.8</ele>
        <time>1970-01-01T00:27:12.000Z</time>
      </trkpt>
      <trkpt lat="45.41375" lon="4.57032">
        <ele>815.2</ele>
        <time>1970-01-01T00:27:13.000Z</time>
      </trkpt>
      <trkpt lat="45.41373" lon="4.5703">
        <ele>815.6</ele>
        <time>1970-01-01T00:27:14.000Z</time>
      </trkpt>
      <trkpt lat="45.41371" lon="4.57027">
        <ele>816</ele>
        <time>1970-01-01T00:27:15.000Z</time>
      </trkpt>
      <trkpt lat="45.4137" lon="4.57024">
        <ele>816.4</ele>
        <time>1970-01-01T00:27:16.000Z</time>
      </trkpt>
      <trkpt lat="45.41365" lon="4.57017">
        <ele>816.4</ele>
        <time>1970-01-01T00:27:19.000Z</time>
      </trkpt>
      <trkpt lat="45.41356" lon="4.57001">
        <ele>816.4</ele>
        <time>1970-01-01T00:27:26.000Z</time>
      </trkpt>
      <trkpt lat="45.41345" lon="4.56989">
        <ele>816.4</ele>
        <time>1970-01-01T00:27:32.000Z</time>
      </trkpt>
      <trkpt lat="45.41336" lon="4.56982">
        <ele>816.4</ele>
        <time>1970-01-01T00:27:37.000Z</time>
      </trkpt>
      <trkpt lat="45.41335" lon="4.56982">
        <ele>816.4</ele>
        <time>1970-01-01T00:27:38.000Z</time>
      </trkpt>
      <trkpt lat="45.41333" lon="4.56985">
        <ele>816.8</ele>
        <time>1970-01-01T00:27:40.000Z</time>
      </trkpt>
      <trkpt lat="45.41332" lon="4.56987">
        <ele>817.8</ele>
        <time>1970-01-01T00:27:41.000Z</time>
      </trkpt>
      <trkpt lat="45.41333" lon="4.56989">
        <ele>818.2</ele>
        <time>1970-01-01T00:27:42.000Z</time>
      </trkpt>
      <trkpt lat="45.41334" lon="4.56991">
        <ele>818.6</ele>
        <time>1970-01-01T00:27:43.000Z</time>
      </trkpt>
      <trkpt lat="45.41334" lon="4.56998">
        <ele>819</ele>
        <time>1970-01-01T00:27:46.000Z</time>
      </trkpt>
      <trkpt lat="45.41334" lon="4.57">
        <ele>819.4</ele>
        <time>1970-01-01T00:27:47.000Z</time>
      </trkpt>
      <trkpt lat="45.41334" lon="4.57002">
        <ele>819.8</ele>
        <time>1970-01-01T00:27:48.000Z</time>
      </trkpt>
      <trkpt lat="45.41333" lon="4.57004">
        <ele>820.2</ele>
        <time>1970-01-01T00:27:49.000Z</time>
      </trkpt>
      <trkpt lat="45.41333" lon="4.57006">
        <ele>820.6</ele>
        <time>1970-01-01T00:27:50.000Z</time>
      </trkpt>
      <trkpt lat="45.41333" lon="4.57009">
        <ele>820.6</ele>
        <time>1970-01-01T00:27:51.000Z</time>
      </trkpt>
      <trkpt lat="45.41333" lon="4.57014">
        <ele>821.2</ele>
        <time>1970-01-01T00:27:53.000Z</time>
      </trkpt>
      <trkpt lat="45.41333" lon="4.57016">
        <ele>821.6</ele>
        <time>1970-01-01T00:27:54.000Z</time>
      </trkpt>
      <trkpt lat="45.41333" lon="4.57018">
        <ele>822</ele>
        <time>1970-01-01T00:27:55.000Z</time>
      </trkpt>
      <trkpt lat="45.41333" lon="4.57021">
        <ele>822.4</ele>
        <time>1970-01-01T00:27:56.000Z</time>
      </trkpt>
      <trkpt lat="45.41333" lon="4.57023">
        <ele>822.8</ele>
        <time>1970-01-01T00:27:57.000Z</time>
      </trkpt>
      <trkpt lat="45.41333" lon="4.57025">
        <ele>822.8</ele>
        <time>1970-01-01T00:27:58.000Z</time>
      </trkpt>
      <trkpt lat="45.41332" lon="4.5703">
        <ele>823.2</ele>
        <time>1970-01-01T00:28:00.000Z</time>
      </trkpt>
      <trkpt lat="45.41332" lon="4.57032">
        <ele>823.6</ele>
        <time>1970-01-01T00:28:01.000Z</time>
      </trkpt>
      <trkpt lat="45.41333" lon="4.57034">
        <ele>824</ele>
        <time>1970-01-01T00:28:02.000Z</time>
      </trkpt>
      <trkpt lat="45.41332" lon="4.57037">
        <ele>824.4</ele>
        <time>1970-01-01T00:28:03.000Z</time>
      </trkpt>
      <trkpt lat="45.41333" lon="4.57039">
        <ele>825</ele>
        <time>1970-01-01T00:28:04.000Z</time>
      </trkpt>
      <trkpt lat="45.41332" lon="4.57044">
        <ele>825.4</ele>
        <time>1970-01-01T00:28:06.000Z</time>
      </trkpt>
      <trkpt lat="45.41332" lon="4.57046">
        <ele>826.2</ele>
        <time>1970-01-01T00:28:07.000Z</time>
      </trkpt>
      <trkpt lat="45.41332" lon="4.57048">
        <ele>826.6</ele>
        <time>1970-01-01T00:28:08.000Z</time>
      </trkpt>
      <trkpt lat="45.41332" lon="4.5705">
        <ele>827</ele>
        <time>1970-01-01T00:28:09.000Z</time>
      </trkpt>
      <trkpt lat="45.41332" lon="4.57052">
        <ele>827</ele>
        <time>1970-01-01T00:28:10.000Z</time>
      </trkpt>
      <trkpt lat="45.41331" lon="4.57055">
        <ele>827.4</ele>
        <time>1970-01-01T00:28:11.000Z</time>
      </trkpt>
      <trkpt lat="45.41331" lon="4.57057">
        <ele>827.8</ele>
        <time>1970-01-01T00:28:12.000Z</time>
      </trkpt>
      <trkpt lat="45.41331" lon="4.57059">
        <ele>828.2</ele>
        <time>1970-01-01T00:28:13.000Z</time>
      </trkpt>
      <trkpt lat="45.4133" lon="4.57061">
        <ele>828.6</ele>
        <time>1970-01-01T00:28:14.000Z</time>
      </trkpt>
      <trkpt lat="45.4133" lon="4.57063">
        <ele>829</ele>
        <time>1970-01-01T00:28:15.000Z</time>
      </trkpt>
      <trkpt lat="45.41329" lon="4.57068">
        <ele>829</ele>
        <time>1970-01-01T00:28:17.000Z</time>
      </trkpt>
      <trkpt lat="45.41329" lon="4.5707">
        <ele>829.6</ele>
        <time>1970-01-01T00:28:18.000Z</time>
      </trkpt>
      <trkpt lat="45.41328" lon="4.57072">
        <ele>830</ele>
        <time>1970-01-01T00:28:19.000Z</time>
      </trkpt>
      <trkpt lat="45.41328" lon="4.57074">
        <ele>830.4</ele>
        <time>1970-01-01T00:28:20.000Z</time>
      </trkpt>
      <trkpt lat="45.41327" lon="4.57077">
        <ele>830.8</ele>
        <time>1970-01-01T00:28:21.000Z</time>
      </trkpt>
      <trkpt lat="45.41326" lon="4.57078">
        <ele>831.2</ele>
        <time>1970-01-01T00:28:22.000Z</time>
      </trkpt>
      <trkpt lat="45.41326" lon="4.57085">
        <ele>831.6</ele>
        <time>1970-01-01T00:28:25.000Z</time>
      </trkpt>
      <trkpt lat="45.41326" lon="4.57087">
        <ele>832.2</ele>
        <time>1970-01-01T00:28:26.000Z</time>
      </trkpt>
      <trkpt lat="45.41325" lon="4.57089">
        <ele>832.6</ele>
        <time>1970-01-01T00:28:27.000Z</time>
      </trkpt>
      <trkpt lat="45.41325" lon="4.57091">
        <ele>833</ele>
        <time>1970-01-01T00:28:28.000Z</time>
      </trkpt>
      <trkpt lat="45.41324" lon="4.57093">
        <ele>833.6</ele>
        <time>1970-01-01T00:28:29.000Z</time>
      </trkpt>
      <trkpt lat="45.41321" lon="4.57102">
        <ele>834</ele>
        <time>1970-01-01T00:28:33.000Z</time>
      </trkpt>
      <trkpt lat="45.4132" lon="4.57104">
        <ele>834.4</ele>
        <time>1970-01-01T00:28:34.000Z</time>
      </trkpt>
      <trkpt lat="45.4132" lon="4.57105">
        <ele>834.8</ele>
        <time>1970-01-01T00:28:35.000Z</time>
      </trkpt>
      <trkpt lat="45.41319" lon="4.57107">
        <ele>835.2</ele>
        <time>1970-01-01T00:28:36.000Z</time>
      </trkpt>
      <trkpt lat="45.41319" lon="4.57109">
        <ele>835.6</ele>
        <time>1970-01-01T00:28:37.000Z</time>
      </trkpt>
      <trkpt lat="45.41316" lon="4.57114">
        <ele>836</ele>
        <time>1970-01-01T00:28:40.000Z</time>
      </trkpt>
      <trkpt lat="45.41316" lon="4.57116">
        <ele>836.6</ele>
        <time>1970-01-01T00:28:41.000Z</time>
      </trkpt>
      <trkpt lat="45.41315" lon="4.57118">
        <ele>837</ele>
        <time>1970-01-01T00:28:42.000Z</time>
      </trkpt>
      <trkpt lat="45.41314" lon="4.5712">
        <ele>837.4</ele>
        <time>1970-01-01T00:28:43.000Z</time>
      </trkpt>
      <trkpt lat="45.41313" lon="4.57121">
        <ele>838</ele>
        <time>1970-01-01T00:28:44.000Z</time>
      </trkpt>
      <trkpt lat="45.41312" lon="4.57126">
        <ele>838</ele>
        <time>1970-01-01T00:28:47.000Z</time>
      </trkpt>
      <trkpt lat="45.4131" lon="4.57133">
        <ele>838.4</ele>
        <time>1970-01-01T00:28:50.000Z</time>
      </trkpt>
      <trkpt lat="45.4131" lon="4.57136">
        <ele>838.8</ele>
        <time>1970-01-01T00:28:51.000Z</time>
      </trkpt>
      <trkpt lat="45.4131" lon="4.57138">
        <ele>839.2</ele>
        <time>1970-01-01T00:28:52.000Z</time>
      </trkpt>
      <trkpt lat="45.41309" lon="4.5714">
        <ele>839.8</ele>
        <time>1970-01-01T00:28:53.000Z</time>
      </trkpt>
      <trkpt lat="45.41309" lon="4.57143">
        <ele>840.2</ele>
        <time>1970-01-01T00:28:54.000Z</time>
      </trkpt>
      <trkpt lat="45.41308" lon="4.57147">
        <ele>840.2</ele>
        <time>1970-01-01T00:28:56.000Z</time>
      </trkpt>
      <trkpt lat="45.41307" lon="4.5715">
        <ele>840.6</ele>
        <time>1970-01-01T00:28:57.000Z</time>
      </trkpt>
      <trkpt lat="45.41307" lon="4.57152">
        <ele>841</ele>
        <time>1970-01-01T00:28:58.000Z</time>
      </trkpt>
      <trkpt lat="45.41306" lon="4.57155">
        <ele>841.4</ele>
        <time>1970-01-01T00:28:59.000Z</time>
      </trkpt>
      <trkpt lat="45.41305" lon="4.57158">
        <ele>841.8</ele>
        <time>1970-01-01T00:29:00.000Z</time>
      </trkpt>
      <trkpt lat="45.41304" lon="4.5716">
        <ele>842.2</ele>
        <time>1970-01-01T00:29:01.000Z</time>
      </trkpt>
      <trkpt lat="45.41303" lon="4.57163">
        <ele>842.2</ele>
        <time>1970-01-01T00:29:02.000Z</time>
      </trkpt>
      <trkpt lat="45.41296" lon="4.57179">
        <ele>842.2</ele>
        <time>1970-01-01T00:29:07.000Z</time>
      </trkpt>
      <trkpt lat="45.41288" lon="4.57198">
        <ele>842.2</ele>
        <time>1970-01-01T00:29:13.000Z</time>
      </trkpt>
      <trkpt lat="45.41278" lon="4.57213">
        <ele>842.2</ele>
        <time>1970-01-01T00:29:19.000Z</time>
      </trkpt>
      <trkpt lat="45.41274" lon="4.57217">
        <ele>842.8</ele>
        <time>1970-01-01T00:29:21.000Z</time>
      </trkpt>
      <trkpt lat="45.41273" lon="4.5722">
        <ele>843.2</ele>
        <time>1970-01-01T00:29:22.000Z</time>
      </trkpt>
      <trkpt lat="45.41271" lon="4.57223">
        <ele>843.6</ele>
        <time>1970-01-01T00:29:23.000Z</time>
      </trkpt>
      <trkpt lat="45.41268" lon="4.57225">
        <ele>844</ele>
        <time>1970-01-01T00:29:24.000Z</time>
      </trkpt>
      <trkpt lat="45.41266" lon="4.57228">
        <ele>844.4</ele>
        <time>1970-01-01T00:29:25.000Z</time>
      </trkpt>
      <trkpt lat="45.41252" lon="4.57248">
        <ele>844.4</ele>
        <time>1970-01-01T00:29:32.000Z</time>
      </trkpt>
      <trkpt lat="45.41234" lon="4.57269">
        <ele>844.4</ele>
        <time>1970-01-01T00:29:40.000Z</time>
      </trkpt>
      <trkpt lat="45.4123" lon="4.57274">
        <ele>844.8</ele>
        <time>1970-01-01T00:29:42.000Z</time>
      </trkpt>
      <trkpt lat="45.41227" lon="4.57277">
        <ele>845.2</ele>
        <time>1970-01-01T00:29:43.000Z</time>
      </trkpt>
      <trkpt lat="45.41225" lon="4.57279">
        <ele>845.6</ele>
        <time>1970-01-01T00:29:44.000Z</time>
      </trkpt>
      <trkpt lat="45.41223" lon="4.57282">
        <ele>846</ele>
        <time>1970-01-01T00:29:45.000Z</time>
      </trkpt>
      <trkpt lat="45.4122" lon="4.57284">
        <ele>846.6</ele>
        <time>1970-01-01T00:29:46.000Z</time>
      </trkpt>
      <trkpt lat="45.41218" lon="4.57286">
        <ele>846.6</ele>
        <time>1970-01-01T00:29:47.000Z</time>
      </trkpt>
      <trkpt lat="45.41204" lon="4.57299">
        <ele>847</ele>
        <time>1970-01-01T00:29:53.000Z</time>
      </trkpt>
      <trkpt lat="45.41202" lon="4.57302">
        <ele>847.4</ele>
        <time>1970-01-01T00:29:54.000Z</time>
      </trkpt>
      <trkpt lat="45.412" lon="4.57304">
        <ele>847.8</ele>
        <time>1970-01-01T00:29:55.000Z</time>
      </trkpt>
      <trkpt lat="45.41198" lon="4.57306">
        <ele>848.2</ele>
        <time>1970-01-01T00:29:56.000Z</time>
      </trkpt>
      <trkpt lat="45.41196" lon="4.57308">
        <ele>848.6</ele>
        <time>1970-01-01T00:29:57.000Z</time>
      </trkpt>
      <trkpt lat="45.4119" lon="4.57314">
        <ele>848.6</ele>
        <time>1970-01-01T00:30:00.000Z</time>
      </trkpt>
      <trkpt lat="45.41184" lon="4.57321">
        <ele>849.2</ele>
        <time>1970-01-01T00:30:04.000Z</time>
      </trkpt>
      <trkpt lat="45.41182" lon="4.57323">
        <ele>849.6</ele>
        <time>1970-01-01T00:30:05.000Z</time>
      </trkpt>
      <trkpt lat="45.41181" lon="4.57325">
        <ele>850</ele>
        <time>1970-01-01T00:30:06.000Z</time>
      </trkpt>
      <trkpt lat="45.4118" lon="4.57326">
        <ele>850.4</ele>
        <time>1970-01-01T00:30:07.000Z</time>
      </trkpt>
      <trkpt lat="45.41178" lon="4.57328">
        <ele>850.8</ele>
        <time>1970-01-01T00:30:08.000Z</time>
      </trkpt>
      <trkpt lat="45.41173" lon="4.57334">
        <ele>851.2</ele>
        <time>1970-01-01T00:30:11.000Z</time>
      </trkpt>
      <trkpt lat="45.41171" lon="4.57336">
        <ele>851.6</ele>
        <time>1970-01-01T00:30:12.000Z</time>
      </trkpt>
      <trkpt lat="45.4117" lon="4.57338">
        <ele>852</ele>
        <time>1970-01-01T00:30:13.000Z</time>
      </trkpt>
      <trkpt lat="45.41168" lon="4.5734">
        <ele>852.4</ele>
        <time>1970-01-01T00:30:14.000Z</time>
      </trkpt>
      <trkpt lat="45.41166" lon="4.57341">
        <ele>852.8</ele>
        <time>1970-01-01T00:30:15.000Z</time>
      </trkpt>
      <trkpt lat="45.41157" lon="4.57347">
        <ele>853.2</ele>
        <time>1970-01-01T00:30:20.000Z</time>
      </trkpt>
      <trkpt lat="45.41155" lon="4.57348">
        <ele>853.8</ele>
        <time>1970-01-01T00:30:21.000Z</time>
      </trkpt>
      <trkpt lat="45.41153" lon="4.57349">
        <ele>854.2</ele>
        <time>1970-01-01T00:30:22.000Z</time>
      </trkpt>
      <trkpt lat="45.41151" lon="4.57349">
        <ele>854.6</ele>
        <time>1970-01-01T00:30:23.000Z</time>
      </trkpt>
      <trkpt lat="45.4115" lon="4.57349">
        <ele>855.2</ele>
        <time>1970-01-01T00:30:24.000Z</time>
      </trkpt>
      <trkpt lat="45.41144" lon="4.57352">
        <ele>855.2</ele>
        <time>1970-01-01T00:30:27.000Z</time>
      </trkpt>
      <trkpt lat="45.41131" lon="4.57356">
        <ele>855.6</ele>
        <time>1970-01-01T00:30:34.000Z</time>
      </trkpt>
      <trkpt lat="45.4113" lon="4.57356">
        <ele>856.4</ele>
        <time>1970-01-01T00:30:35.000Z</time>
      </trkpt>
      <trkpt lat="45.41128" lon="4.57357">
        <ele>857</ele>
        <time>1970-01-01T00:30:36.000Z</time>
      </trkpt>
      <trkpt lat="45.41126" lon="4.57358">
        <ele>857.4</ele>
        <time>1970-01-01T00:30:37.000Z</time>
      </trkpt>
      <trkpt lat="45.41122" lon="4.57359">
        <ele>857.8</ele>
        <time>1970-01-01T00:30:39.000Z</time>
      </trkpt>
      <trkpt lat="45.41121" lon="4.5736">
        <ele>858.2</ele>
        <time>1970-01-01T00:30:40.000Z</time>
      </trkpt>
      <trkpt lat="45.41119" lon="4.57361">
        <ele>858.8</ele>
        <time>1970-01-01T00:30:41.000Z</time>
      </trkpt>
      <trkpt lat="45.41117" lon="4.57362">
        <ele>859.2</ele>
        <time>1970-01-01T00:30:42.000Z</time>
      </trkpt>
      <trkpt lat="45.41116" lon="4.57362">
        <ele>859.6</ele>
        <time>1970-01-01T00:30:43.000Z</time>
      </trkpt>
      <trkpt lat="45.41112" lon="4.57364">
        <ele>860</ele>
        <time>1970-01-01T00:30:45.000Z</time>
      </trkpt>
      <trkpt lat="45.4111" lon="4.57365">
        <ele>860.4</ele>
        <time>1970-01-01T00:30:46.000Z</time>
      </trkpt>
      <trkpt lat="45.41109" lon="4.57366">
        <ele>860.8</ele>
        <time>1970-01-01T00:30:47.000Z</time>
      </trkpt>
      <trkpt lat="45.41107" lon="4.57366">
        <ele>861.2</ele>
        <time>1970-01-01T00:30:48.000Z</time>
      </trkpt>
      <trkpt lat="45.41106" lon="4.57367">
        <ele>861.6</ele>
        <time>1970-01-01T00:30:49.000Z</time>
      </trkpt>
      <trkpt lat="45.41097" lon="4.57373">
        <ele>861.6</ele>
        <time>1970-01-01T00:30:54.000Z</time>
      </trkpt>
      <trkpt lat="45.41092" lon="4.57376">
        <ele>862</ele>
        <time>1970-01-01T00:30:57.000Z</time>
      </trkpt>
      <trkpt lat="45.4109" lon="4.57378">
        <ele>862.4</ele>
        <time>1970-01-01T00:30:58.000Z</time>
      </trkpt>
      <trkpt lat="45.41088" lon="4.57379">
        <ele>862.8</ele>
        <time>1970-01-01T00:30:59.000Z</time>
      </trkpt>
      <trkpt lat="45.41087" lon="4.57379">
        <ele>863.8</ele>
        <time>1970-01-01T00:31:00.000Z</time>
      </trkpt>
      <trkpt lat="45.41085" lon="4.5738">
        <ele>863.8</ele>
        <time>1970-01-01T00:31:01.000Z</time>
      </trkpt>
      <trkpt lat="45.41075" lon="4.57384">
        <ele>864.2</ele>
        <time>1970-01-01T00:31:07.000Z</time>
      </trkpt>
      <trkpt lat="45.41073" lon="4.57385">
        <ele>864.6</ele>
        <time>1970-01-01T00:31:08.000Z</time>
      </trkpt>
      <trkpt lat="45.41071" lon="4.57386">
        <ele>865</ele>
        <time>1970-01-01T00:31:09.000Z</time>
      </trkpt>
      <trkpt lat="45.41069" lon="4.57386">
        <ele>865.4</ele>
        <time>1970-01-01T00:31:10.000Z</time>
      </trkpt>
      <trkpt lat="45.41067" lon="4.57386">
        <ele>865.8</ele>
        <time>1970-01-01T00:31:11.000Z</time>
      </trkpt>
      <trkpt lat="45.4106" lon="4.57388">
        <ele>865.8</ele>
        <time>1970-01-01T00:31:16.000Z</time>
      </trkpt>
      <trkpt lat="45.41059" lon="4.57388">
        <ele>866.2</ele>
        <time>1970-01-01T00:31:17.000Z</time>
      </trkpt>
      <trkpt lat="45.41058" lon="4.57389">
        <ele>866.8</ele>
        <time>1970-01-01T00:31:18.000Z</time>
      </trkpt>
      <trkpt lat="45.41057" lon="4.57389">
        <ele>867.2</ele>
        <time>1970-01-01T00:31:19.000Z</time>
      </trkpt>
      <trkpt lat="45.41056" lon="4.5739">
        <ele>867.6</ele>
        <time>1970-01-01T00:31:20.000Z</time>
      </trkpt>
      <trkpt lat="45.41055" lon="4.57389">
        <ele>868</ele>
        <time>1970-01-01T00:31:21.000Z</time>
      </trkpt>
      <trkpt lat="45.41053" lon="4.57389">
        <ele>868</ele>
        <time>1970-01-01T00:31:22.000Z</time>
      </trkpt>
      <trkpt lat="45.41047" lon="4.5739">
        <ele>868.4</ele>
        <time>1970-01-01T00:31:28.000Z</time>
      </trkpt>
      <trkpt lat="45.41045" lon="4.57391">
        <ele>868.8</ele>
        <time>1970-01-01T00:31:29.000Z</time>
      </trkpt>
      <trkpt lat="45.41044" lon="4.57391">
        <ele>869.2</ele>
        <time>1970-01-01T00:31:30.000Z</time>
      </trkpt>
      <trkpt lat="45.41043" lon="4.57391">
        <ele>869.6</ele>
        <time>1970-01-01T00:31:31.000Z</time>
      </trkpt>
      <trkpt lat="45.41041" lon="4.57392">
        <ele>870</ele>
        <time>1970-01-01T00:31:32.000Z</time>
      </trkpt>
      <trkpt lat="45.41038" lon="4.57392">
        <ele>870</ele>
        <time>1970-01-01T00:31:34.000Z</time>
      </trkpt>
      <trkpt lat="45.41032" lon="4.57392">
        <ele>870.4</ele>
        <time>1970-01-01T00:31:38.000Z</time>
      </trkpt>
      <trkpt lat="45.41031" lon="4.57392">
        <ele>870.8</ele>
        <time>1970-01-01T00:31:39.000Z</time>
      </trkpt>
      <trkpt lat="45.4103" lon="4.57392">
        <ele>871.2</ele>
        <time>1970-01-01T00:31:40.000Z</time>
      </trkpt>
      <trkpt lat="45.41029" lon="4.57393">
        <ele>871.6</ele>
        <time>1970-01-01T00:31:41.000Z</time>
      </trkpt>
      <trkpt lat="45.41028" lon="4.57393">
        <ele>872</ele>
        <time>1970-01-01T00:31:42.000Z</time>
      </trkpt>
      <trkpt lat="45.41019" lon="4.57392">
        <ele>872</ele>
        <time>1970-01-01T00:31:48.000Z</time>
      </trkpt>
      <trkpt lat="45.41017" lon="4.57391">
        <ele>872.4</ele>
        <time>1970-01-01T00:31:49.000Z</time>
      </trkpt>
      <trkpt lat="45.41015" lon="4.57391">
        <ele>872.8</ele>
        <time>1970-01-01T00:31:50.000Z</time>
      </trkpt>
      <trkpt lat="45.41014" lon="4.5739">
        <ele>873.2</ele>
        <time>1970-01-01T00:31:51.000Z</time>
      </trkpt>
      <trkpt lat="45.41013" lon="4.5739">
        <ele>873.6</ele>
        <time>1970-01-01T00:31:52.000Z</time>
      </trkpt>
      <trkpt lat="45.41012" lon="4.5739">
        <ele>874</ele>
        <time>1970-01-01T00:31:53.000Z</time>
      </trkpt>
      <trkpt lat="45.4101" lon="4.57389">
        <ele>874</ele>
        <time>1970-01-01T00:31:54.000Z</time>
      </trkpt>
      <trkpt lat="45.41001" lon="4.57385">
        <ele>874.4</ele>
        <time>1970-01-01T00:31:59.000Z</time>
      </trkpt>
      <trkpt lat="45.40999" lon="4.57384">
        <ele>875</ele>
        <time>1970-01-01T00:32:00.000Z</time>
      </trkpt>
      <trkpt lat="45.40997" lon="4.57383">
        <ele>875.4</ele>
        <time>1970-01-01T00:32:01.000Z</time>
      </trkpt>
      <trkpt lat="45.40995" lon="4.57383">
        <ele>875.8</ele>
        <time>1970-01-01T00:32:02.000Z</time>
      </trkpt>
      <trkpt lat="45.40993" lon="4.57382">
        <ele>876.2</ele>
        <time>1970-01-01T00:32:03.000Z</time>
      </trkpt>
      <trkpt lat="45.40988" lon="4.57382">
        <ele>876.2</ele>
        <time>1970-01-01T00:32:05.000Z</time>
      </trkpt>
      <trkpt lat="45.40987" lon="4.57382">
        <ele>876.2</ele>
        <time>1970-01-01T00:32:06.000Z</time>
      </trkpt>
      <trkpt lat="45.40979" lon="4.5738">
        <ele>876.6</ele>
        <time>1970-01-01T00:32:10.000Z</time>
      </trkpt>
      <trkpt lat="45.40978" lon="4.5738">
        <ele>877</ele>
        <time>1970-01-01T00:32:11.000Z</time>
      </trkpt>
      <trkpt lat="45.40977" lon="4.5738">
        <ele>877.4</ele>
        <time>1970-01-01T00:32:12.000Z</time>
      </trkpt>
      <trkpt lat="45.40975" lon="4.5738">
        <ele>877.8</ele>
        <time>1970-01-01T00:32:13.000Z</time>
      </trkpt>
      <trkpt lat="45.40973" lon="4.57379">
        <ele>878.2</ele>
        <time>1970-01-01T00:32:14.000Z</time>
      </trkpt>
      <trkpt lat="45.40956" lon="4.57377">
        <ele>878.2</ele>
        <time>1970-01-01T00:32:19.000Z</time>
      </trkpt>
      <trkpt lat="45.40948" lon="4.57377">
        <ele>878.6</ele>
        <time>1970-01-01T00:32:21.000Z</time>
      </trkpt>
      <trkpt lat="45.40946" lon="4.57376">
        <ele>879</ele>
        <time>1970-01-01T00:32:22.000Z</time>
      </trkpt>
      <trkpt lat="45.40943" lon="4.57375">
        <ele>879.4</ele>
        <time>1970-01-01T00:32:23.000Z</time>
      </trkpt>
      <trkpt lat="45.40941" lon="4.57373">
        <ele>880</ele>
        <time>1970-01-01T00:32:24.000Z</time>
      </trkpt>
      <trkpt lat="45.40938" lon="4.57372">
        <ele>880.4</ele>
        <time>1970-01-01T00:32:25.000Z</time>
      </trkpt>
      <trkpt lat="45.40936" lon="4.57371">
        <ele>880.4</ele>
        <time>1970-01-01T00:32:26.000Z</time>
      </trkpt>
      <trkpt lat="45.40925" lon="4.57365">
        <ele>880.4</ele>
        <time>1970-01-01T00:32:31.000Z</time>
      </trkpt>
      <trkpt lat="45.40923" lon="4.57364">
        <ele>880.8</ele>
        <time>1970-01-01T00:32:32.000Z</time>
      </trkpt>
      <trkpt lat="45.4092" lon="4.57363">
        <ele>881.2</ele>
        <time>1970-01-01T00:32:33.000Z</time>
      </trkpt>
      <trkpt lat="45.40918" lon="4.57363">
        <ele>881.6</ele>
        <time>1970-01-01T00:32:34.000Z</time>
      </trkpt>
      <trkpt lat="45.40916" lon="4.57363">
        <ele>882</ele>
        <time>1970-01-01T00:32:35.000Z</time>
      </trkpt>
      <trkpt lat="45.40914" lon="4.57362">
        <ele>882.4</ele>
        <time>1970-01-01T00:32:36.000Z</time>
      </trkpt>
      <trkpt lat="45.4091" lon="4.57361">
        <ele>882.4</ele>
        <time>1970-01-01T00:32:38.000Z</time>
      </trkpt>
      <trkpt lat="45.40895" lon="4.57358">
        <ele>883</ele>
        <time>1970-01-01T00:32:44.000Z</time>
      </trkpt>
      <trkpt lat="45.40893" lon="4.57358">
        <ele>883.4</ele>
        <time>1970-01-01T00:32:45.000Z</time>
      </trkpt>
      <trkpt lat="45.40892" lon="4.57357">
        <ele>883.8</ele>
        <time>1970-01-01T00:32:46.000Z</time>
      </trkpt>
      <trkpt lat="45.40891" lon="4.57357">
        <ele>884.2</ele>
        <time>1970-01-01T00:32:47.000Z</time>
      </trkpt>
      <trkpt lat="45.40889" lon="4.57356">
        <ele>884.6</ele>
        <time>1970-01-01T00:32:48.000Z</time>
      </trkpt>
      <trkpt lat="45.40884" lon="4.57352">
        <ele>884.6</ele>
        <time>1970-01-01T00:32:51.000Z</time>
      </trkpt>
      <trkpt lat="45.40877" lon="4.57351">
        <ele>885</ele>
        <time>1970-01-01T00:32:54.000Z</time>
      </trkpt>
      <trkpt lat="45.40874" lon="4.57351">
        <ele>885.4</ele>
        <time>1970-01-01T00:32:55.000Z</time>
      </trkpt>
      <trkpt lat="45.40872" lon="4.5735">
        <ele>885.8</ele>
        <time>1970-01-01T00:32:56.000Z</time>
      </trkpt>
      <trkpt lat="45.4087" lon="4.57351">
        <ele>886.2</ele>
        <time>1970-01-01T00:32:57.000Z</time>
      </trkpt>
      <trkpt lat="45.40868" lon="4.57349">
        <ele>886.6</ele>
        <time>1970-01-01T00:32:58.000Z</time>
      </trkpt>
      <trkpt lat="45.4086" lon="4.57348">
        <ele>886.6</ele>
        <time>1970-01-01T00:33:02.000Z</time>
      </trkpt>
      <trkpt lat="45.40848" lon="4.57346">
        <ele>886.6</ele>
        <time>1970-01-01T00:33:07.000Z</time>
      </trkpt>
      <trkpt lat="45.40838" lon="4.57342">
        <ele>886.6</ele>
        <time>1970-01-01T00:33:12.000Z</time>
      </trkpt>
      <trkpt lat="45.40833" lon="4.57338">
        <ele>887</ele>
        <time>1970-01-01T00:33:14.000Z</time>
      </trkpt>
      <trkpt lat="45.4083" lon="4.57338">
        <ele>887.4</ele>
        <time>1970-01-01T00:33:15.000Z</time>
      </trkpt>
      <trkpt lat="45.40826" lon="4.57338">
        <ele>887.8</ele>
        <time>1970-01-01T00:33:16.000Z</time>
      </trkpt>
      <trkpt lat="45.40823" lon="4.57338">
        <ele>888.4</ele>
        <time>1970-01-01T00:33:17.000Z</time>
      </trkpt>
      <trkpt lat="45.4082" lon="4.57338">
        <ele>888.8</ele>
        <time>1970-01-01T00:33:18.000Z</time>
      </trkpt>
      <trkpt lat="45.40806" lon="4.57337">
        <ele>888.8</ele>
        <time>1970-01-01T00:33:23.000Z</time>
      </trkpt>
      <trkpt lat="45.40791" lon="4.57332">
        <ele>888.8</ele>
        <time>1970-01-01T00:33:28.000Z</time>
      </trkpt>
      <trkpt lat="45.40773" lon="4.57328">
        <ele>888.8</ele>
        <time>1970-01-01T00:33:34.000Z</time>
      </trkpt>
      <trkpt lat="45.40757" lon="4.57331">
        <ele>889.2</ele>
        <time>1970-01-01T00:33:39.000Z</time>
      </trkpt>
      <trkpt lat="45.40754" lon="4.57332">
        <ele>889.6</ele>
        <time>1970-01-01T00:33:40.000Z</time>
      </trkpt>
      <trkpt lat="45.40751" lon="4.57333">
        <ele>890</ele>
        <time>1970-01-01T00:33:41.000Z</time>
      </trkpt>
      <trkpt lat="45.40748" lon="4.57333">
        <ele>890.6</ele>
        <time>1970-01-01T00:33:42.000Z</time>
      </trkpt>
      <trkpt lat="45.40744" lon="4.57333">
        <ele>891</ele>
        <time>1970-01-01T00:33:43.000Z</time>
      </trkpt>
      <trkpt lat="45.40736" lon="4.57335">
        <ele>891</ele>
        <time>1970-01-01T00:33:46.000Z</time>
      </trkpt>
      <trkpt lat="45.40725" lon="4.57335">
        <ele>891.4</ele>
        <time>1970-01-01T00:33:51.000Z</time>
      </trkpt>
      <trkpt lat="45.40722" lon="4.57335">
        <ele>891.8</ele>
        <time>1970-01-01T00:33:52.000Z</time>
      </trkpt>
      <trkpt lat="45.4072" lon="4.57336">
        <ele>892.6</ele>
        <time>1970-01-01T00:33:53.000Z</time>
      </trkpt>
      <trkpt lat="45.40718" lon="4.57336">
        <ele>893</ele>
        <time>1970-01-01T00:33:54.000Z</time>
      </trkpt>
      <trkpt lat="45.40709" lon="4.5734">
        <ele>893</ele>
        <time>1970-01-01T00:33:58.000Z</time>
      </trkpt>
      <trkpt lat="45.40694" lon="4.57342">
        <ele>893</ele>
        <time>1970-01-01T00:34:04.000Z</time>
      </trkpt>
      <trkpt lat="45.40691" lon="4.57343">
        <ele>893.4</ele>
        <time>1970-01-01T00:34:05.000Z</time>
      </trkpt>
      <trkpt lat="45.40687" lon="4.57343">
        <ele>893.8</ele>
        <time>1970-01-01T00:34:06.000Z</time>
      </trkpt>
      <trkpt lat="45.40685" lon="4.57344">
        <ele>894.2</ele>
        <time>1970-01-01T00:34:07.000Z</time>
      </trkpt>
      <trkpt lat="45.40682" lon="4.57344">
        <ele>894.8</ele>
        <time>1970-01-01T00:34:08.000Z</time>
      </trkpt>
      <trkpt lat="45.40679" lon="4.57344">
        <ele>895.2</ele>
        <time>1970-01-01T00:34:09.000Z</time>
      </trkpt>
      <trkpt lat="45.40677" lon="4.57345">
        <ele>895.2</ele>
        <time>1970-01-01T00:34:10.000Z</time>
      </trkpt>
      <trkpt lat="45.40661" lon="4.57348">
        <ele>895.2</ele>
        <time>1970-01-01T00:34:15.000Z</time>
      </trkpt>
      <trkpt lat="45.40641" lon="4.57354">
        <ele>895.2</ele>
        <time>1970-01-01T00:34:20.000Z</time>
      </trkpt>
      <trkpt lat="45.40637" lon="4.57354">
        <ele>895.2</ele>
        <time>1970-01-01T00:34:21.000Z</time>
      </trkpt>
      <trkpt lat="45.40619" lon="4.57362">
        <ele>895.2</ele>
        <time>1970-01-01T00:34:26.000Z</time>
      </trkpt>
      <trkpt lat="45.40602" lon="4.57368">
        <ele>895.2</ele>
        <time>1970-01-01T00:34:31.000Z</time>
      </trkpt>
      <trkpt lat="45.40587" lon="4.57371">
        <ele>895.2</ele>
        <time>1970-01-01T00:34:36.000Z</time>
      </trkpt>
      <trkpt lat="45.40575" lon="4.57375">
        <ele>895.6</ele>
        <time>1970-01-01T00:34:40.000Z</time>
      </trkpt>
      <trkpt lat="45.40573" lon="4.57376">
        <ele>896</ele>
        <time>1970-01-01T00:34:41.000Z</time>
      </trkpt>
      <trkpt lat="45.40571" lon="4.57377">
        <ele>896.8</ele>
        <time>1970-01-01T00:34:42.000Z</time>
      </trkpt>
      <trkpt lat="45.40569" lon="4.57378">
        <ele>897.2</ele>
        <time>1970-01-01T00:34:43.000Z</time>
      </trkpt>
      <trkpt lat="45.40554" lon="4.5738">
        <ele>897.2</ele>
        <time>1970-01-01T00:34:48.000Z</time>
      </trkpt>
      <trkpt lat="45.4054" lon="4.57386">
        <ele>897.6</ele>
        <time>1970-01-01T00:34:53.000Z</time>
      </trkpt>
      <trkpt lat="45.40537" lon="4.57387">
        <ele>898</ele>
        <time>1970-01-01T00:34:54.000Z</time>
      </trkpt>
      <trkpt lat="45.40534" lon="4.57389">
        <ele>898.4</ele>
        <time>1970-01-01T00:34:55.000Z</time>
      </trkpt>
      <trkpt lat="45.4053" lon="4.5739">
        <ele>898.8</ele>
        <time>1970-01-01T00:34:56.000Z</time>
      </trkpt>
      <trkpt lat="45.40527" lon="4.57391">
        <ele>899.2</ele>
        <time>1970-01-01T00:34:57.000Z</time>
      </trkpt>
      <trkpt lat="45.40517" lon="4.57394">
        <ele>899.2</ele>
        <time>1970-01-01T00:35:01.000Z</time>
      </trkpt>
      <trkpt lat="45.40511" lon="4.57394">
        <ele>899.8</ele>
        <time>1970-01-01T00:35:04.000Z</time>
      </trkpt>
      <trkpt lat="45.40509" lon="4.57394">
        <ele>900.2</ele>
        <time>1970-01-01T00:35:05.000Z</time>
      </trkpt>
      <trkpt lat="45.40505" lon="4.57396">
        <ele>901</ele>
        <time>1970-01-01T00:35:06.000Z</time>
      </trkpt>
      <trkpt lat="45.40502" lon="4.57397">
        <ele>901.6</ele>
        <time>1970-01-01T00:35:07.000Z</time>
      </trkpt>
      <trkpt lat="45.40484" lon="4.57402">
        <ele>902</ele>
        <time>1970-01-01T00:35:12.000Z</time>
      </trkpt>
      <trkpt lat="45.40481" lon="4.57404">
        <ele>902.4</ele>
        <time>1970-01-01T00:35:13.000Z</time>
      </trkpt>
      <trkpt lat="45.40478" lon="4.57404">
        <ele>902.8</ele>
        <time>1970-01-01T00:35:14.000Z</time>
      </trkpt>
      <trkpt lat="45.40475" lon="4.57405">
        <ele>903.2</ele>
        <time>1970-01-01T00:35:15.000Z</time>
      </trkpt>
      <trkpt lat="45.40473" lon="4.57405">
        <ele>903.6</ele>
        <time>1970-01-01T00:35:16.000Z</time>
      </trkpt>
      <trkpt lat="45.40467" lon="4.57407">
        <ele>903.6</ele>
        <time>1970-01-01T00:35:18.000Z</time>
      </trkpt>
      <trkpt lat="45.40465" lon="4.57407">
        <ele>904</ele>
        <time>1970-01-01T00:35:19.000Z</time>
      </trkpt>
      <trkpt lat="45.40463" lon="4.57408">
        <ele>904.4</ele>
        <time>1970-01-01T00:35:20.000Z</time>
      </trkpt>
      <trkpt lat="45.4046" lon="4.57408">
        <ele>904.8</ele>
        <time>1970-01-01T00:35:21.000Z</time>
      </trkpt>
      <trkpt lat="45.40458" lon="4.57408">
        <ele>905.2</ele>
        <time>1970-01-01T00:35:22.000Z</time>
      </trkpt>
      <trkpt lat="45.40456" lon="4.57409">
        <ele>905.8</ele>
        <time>1970-01-01T00:35:23.000Z</time>
      </trkpt>
      <trkpt lat="45.40454" lon="4.5741">
        <ele>905.8</ele>
        <time>1970-01-01T00:35:24.000Z</time>
      </trkpt>
      <trkpt lat="45.40446" lon="4.57412">
        <ele>906.2</ele>
        <time>1970-01-01T00:35:27.000Z</time>
      </trkpt>
      <trkpt lat="45.40444" lon="4.57413">
        <ele>906.6</ele>
        <time>1970-01-01T00:35:28.000Z</time>
      </trkpt>
      <trkpt lat="45.40441" lon="4.57413">
        <ele>907</ele>
        <time>1970-01-01T00:35:29.000Z</time>
      </trkpt>
      <trkpt lat="45.40439" lon="4.57413">
        <ele>907.4</ele>
        <time>1970-01-01T00:35:30.000Z</time>
      </trkpt>
      <trkpt lat="45.40437" lon="4.57414">
        <ele>907.8</ele>
        <time>1970-01-01T00:35:31.000Z</time>
      </trkpt>
      <trkpt lat="45.40427" lon="4.57416">
        <ele>908.4</ele>
        <time>1970-01-01T00:35:35.000Z</time>
      </trkpt>
      <trkpt lat="45.40425" lon="4.57416">
        <ele>908.8</ele>
        <time>1970-01-01T00:35:36.000Z</time>
      </trkpt>
      <trkpt lat="45.40423" lon="4.57417">
        <ele>909.2</ele>
        <time>1970-01-01T00:35:37.000Z</time>
      </trkpt>
      <trkpt lat="45.40422" lon="4.57417">
        <ele>909.6</ele>
        <time>1970-01-01T00:35:38.000Z</time>
      </trkpt>
      <trkpt lat="45.40421" lon="4.57418">
        <ele>910</ele>
        <time>1970-01-01T00:35:39.000Z</time>
      </trkpt>
      <trkpt lat="45.40416" lon="4.57419">
        <ele>910</ele>
        <time>1970-01-01T00:35:41.000Z</time>
      </trkpt>
      <trkpt lat="45.40414" lon="4.5742">
        <ele>910</ele>
        <time>1970-01-01T00:35:42.000Z</time>
      </trkpt>
      <trkpt lat="45.40413" lon="4.5742">
        <ele>910.4</ele>
        <time>1970-01-01T00:35:43.000Z</time>
      </trkpt>
      <trkpt lat="45.40411" lon="4.57421">
        <ele>910.8</ele>
        <time>1970-01-01T00:35:44.000Z</time>
      </trkpt>
      <trkpt lat="45.40408" lon="4.57422">
        <ele>911.4</ele>
        <time>1970-01-01T00:35:45.000Z</time>
      </trkpt>
      <trkpt lat="45.40406" lon="4.57422">
        <ele>911.8</ele>
        <time>1970-01-01T00:35:46.000Z</time>
      </trkpt>
      <trkpt lat="45.40404" lon="4.57423">
        <ele>912.2</ele>
        <time>1970-01-01T00:35:47.000Z</time>
      </trkpt>
      <trkpt lat="45.40397" lon="4.57424">
        <ele>912.6</ele>
        <time>1970-01-01T00:35:50.000Z</time>
      </trkpt>
      <trkpt lat="45.40395" lon="4.57424">
        <ele>913</ele>
        <time>1970-01-01T00:35:51.000Z</time>
      </trkpt>
      <trkpt lat="45.40393" lon="4.57425">
        <ele>913.4</ele>
        <time>1970-01-01T00:35:52.000Z</time>
      </trkpt>
      <trkpt lat="45.4039" lon="4.57426">
        <ele>913.8</ele>
        <time>1970-01-01T00:35:53.000Z</time>
      </trkpt>
      <trkpt lat="45.40388" lon="4.57426">
        <ele>914.2</ele>
        <time>1970-01-01T00:35:54.000Z</time>
      </trkpt>
      <trkpt lat="45.4038" lon="4.5743">
        <ele>914.6</ele>
        <time>1970-01-01T00:35:58.000Z</time>
      </trkpt>
      <trkpt lat="45.40377" lon="4.57432">
        <ele>915.2</ele>
        <time>1970-01-01T00:35:59.000Z</time>
      </trkpt>
      <trkpt lat="45.40375" lon="4.57434">
        <ele>915.6</ele>
        <time>1970-01-01T00:36:00.000Z</time>
      </trkpt>
      <trkpt lat="45.40373" lon="4.57435">
        <ele>916</ele>
        <time>1970-01-01T00:36:01.000Z</time>
      </trkpt>
      <trkpt lat="45.40372" lon="4.57435">
        <ele>916.4</ele>
        <time>1970-01-01T00:36:02.000Z</time>
      </trkpt>
      <trkpt lat="45.4037" lon="4.57437">
        <ele>916.4</ele>
        <time>1970-01-01T00:36:03.000Z</time>
      </trkpt>
      <trkpt lat="45.40352" lon="4.57448">
        <ele>916.4</ele>
        <time>1970-01-01T00:36:10.000Z</time>
      </trkpt>
      <trkpt lat="45.40336" lon="4.5746">
        <ele>916.4</ele>
        <time>1970-01-01T00:36:16.000Z</time>
      </trkpt>
      <trkpt lat="45.4032" lon="4.57473">
        <ele>916.4</ele>
        <time>1970-01-01T00:36:22.000Z</time>
      </trkpt>
      <trkpt lat="45.40304" lon="4.57487">
        <ele>916.4</ele>
        <time>1970-01-01T00:36:28.000Z</time>
      </trkpt>
      <trkpt lat="45.40294" lon="4.57497">
        <ele>916.4</ele>
        <time>1970-01-01T00:36:32.000Z</time>
      </trkpt>
      <trkpt lat="45.40282" lon="4.57511">
        <ele>916.8</ele>
        <time>1970-01-01T00:36:36.000Z</time>
      </trkpt>
      <trkpt lat="45.40278" lon="4.57514">
        <ele>917.2</ele>
        <time>1970-01-01T00:36:37.000Z</time>
      </trkpt>
      <trkpt lat="45.40275" lon="4.57517">
        <ele>917.6</ele>
        <time>1970-01-01T00:36:38.000Z</time>
      </trkpt>
      <trkpt lat="45.40272" lon="4.57521">
        <ele>918</ele>
        <time>1970-01-01T00:36:39.000Z</time>
      </trkpt>
      <trkpt lat="45.4027" lon="4.57524">
        <ele>918.4</ele>
        <time>1970-01-01T00:36:40.000Z</time>
      </trkpt>
      <trkpt lat="45.40261" lon="4.57534">
        <ele>918.4</ele>
        <time>1970-01-01T00:36:43.000Z</time>
      </trkpt>
      <trkpt lat="45.40248" lon="4.57546">
        <ele>918.4</ele>
        <time>1970-01-01T00:36:48.000Z</time>
      </trkpt>
      <trkpt lat="45.40235" lon="4.57553">
        <ele>918.4</ele>
        <time>1970-01-01T00:36:53.000Z</time>
      </trkpt>
      <trkpt lat="45.40224" lon="4.57566">
        <ele>918.4</ele>
        <time>1970-01-01T00:36:59.000Z</time>
      </trkpt>
      <trkpt lat="45.40221" lon="4.57575">
        <ele>918.8</ele>
        <time>1970-01-01T00:37:02.000Z</time>
      </trkpt>
      <trkpt lat="45.4022" lon="4.57578">
        <ele>919.2</ele>
        <time>1970-01-01T00:37:03.000Z</time>
      </trkpt>
      <trkpt lat="45.40221" lon="4.57582">
        <ele>919.6</ele>
        <time>1970-01-01T00:37:04.000Z</time>
      </trkpt>
      <trkpt lat="45.40221" lon="4.57585">
        <ele>920.2</ele>
        <time>1970-01-01T00:37:05.000Z</time>
      </trkpt>
      <trkpt lat="45.40221" lon="4.57586">
        <ele>920.6</ele>
        <time>1970-01-01T00:37:06.000Z</time>
      </trkpt>
      <trkpt lat="45.40222" lon="4.5759">
        <ele>920.6</ele>
        <time>1970-01-01T00:37:08.000Z</time>
      </trkpt>
      <trkpt lat="45.40223" lon="4.57593">
        <ele>920.6</ele>
        <time>1970-01-01T00:37:10.000Z</time>
      </trkpt>
      <trkpt lat="45.40228" lon="4.576">
        <ele>921</ele>
        <time>1970-01-01T00:37:13.000Z</time>
      </trkpt>
      <trkpt lat="45.40229" lon="4.57603">
        <ele>921.4</ele>
        <time>1970-01-01T00:37:14.000Z</time>
      </trkpt>
      <trkpt lat="45.40231" lon="4.57605">
        <ele>921.8</ele>
        <time>1970-01-01T00:37:15.000Z</time>
      </trkpt>
      <trkpt lat="45.40233" lon="4.57608">
        <ele>922.2</ele>
        <time>1970-01-01T00:37:16.000Z</time>
      </trkpt>
      <trkpt lat="45.40235" lon="4.5761">
        <ele>922.6</ele>
        <time>1970-01-01T00:37:17.000Z</time>
      </trkpt>
      <trkpt lat="45.40243" lon="4.57624">
        <ele>922.6</ele>
        <time>1970-01-01T00:37:22.000Z</time>
      </trkpt>
      <trkpt lat="45.40249" lon="4.5763">
        <ele>923</ele>
        <time>1970-01-01T00:37:26.000Z</time>
      </trkpt>
      <trkpt lat="45.40251" lon="4.57631">
        <ele>923.4</ele>
        <time>1970-01-01T00:37:27.000Z</time>
      </trkpt>
      <trkpt lat="45.40252" lon="4.57631">
        <ele>923.8</ele>
        <time>1970-01-01T00:37:28.000Z</time>
      </trkpt>
      <trkpt lat="45.40254" lon="4.57633">
        <ele>924.2</ele>
        <time>1970-01-01T00:37:29.000Z</time>
      </trkpt>
      <trkpt lat="45.40255" lon="4.57635">
        <ele>924.6</ele>
        <time>1970-01-01T00:37:30.000Z</time>
      </trkpt>
      <trkpt lat="45.40257" lon="4.57638">
        <ele>924.6</ele>
        <time>1970-01-01T00:37:32.000Z</time>
      </trkpt>
      <trkpt lat="45.4026" lon="4.57643">
        <ele>925.6</ele>
        <time>1970-01-01T00:37:35.000Z</time>
      </trkpt>
      <trkpt lat="45.40261" lon="4.57645">
        <ele>926</ele>
        <time>1970-01-01T00:37:36.000Z</time>
      </trkpt>
      <trkpt lat="45.40262" lon="4.57646">
        <ele>926.4</ele>
        <time>1970-01-01T00:37:37.000Z</time>
      </trkpt>
      <trkpt lat="45.40264" lon="4.57647">
        <ele>926.8</ele>
        <time>1970-01-01T00:37:38.000Z</time>
      </trkpt>
      <trkpt lat="45.40265" lon="4.57648">
        <ele>926.8</ele>
        <time>1970-01-01T00:37:39.000Z</time>
      </trkpt>
      <trkpt lat="45.40272" lon="4.57652">
        <ele>926.8</ele>
        <time>1970-01-01T00:37:45.000Z</time>
      </trkpt>
      <trkpt lat="45.40274" lon="4.57653">
        <ele>927.2</ele>
        <time>1970-01-01T00:37:47.000Z</time>
      </trkpt>
      <trkpt lat="45.40276" lon="4.57655">
        <ele>927.6</ele>
        <time>1970-01-01T00:37:48.000Z</time>
      </trkpt>
      <trkpt lat="45.40278" lon="4.57658">
        <ele>928</ele>
        <time>1970-01-01T00:37:49.000Z</time>
      </trkpt>
      <trkpt lat="45.4028" lon="4.57661">
        <ele>928.4</ele>
        <time>1970-01-01T00:37:50.000Z</time>
      </trkpt>
      <trkpt lat="45.40283" lon="4.57666">
        <ele>928.8</ele>
        <time>1970-01-01T00:37:51.000Z</time>
      </trkpt>
      <trkpt lat="45.40291" lon="4.57687">
        <ele>928.8</ele>
        <time>1970-01-01T00:37:56.000Z</time>
      </trkpt>
      <trkpt lat="45.40297" lon="4.57707">
        <ele>928.8</ele>
        <time>1970-01-01T00:38:02.000Z</time>
      </trkpt>
      <trkpt lat="45.40305" lon="4.57737">
        <ele>928.8</ele>
        <time>1970-01-01T00:38:08.000Z</time>
      </trkpt>
      <trkpt lat="45.40312" lon="4.57761">
        <ele>928.8</ele>
        <time>1970-01-01T00:38:14.000Z</time>
      </trkpt>
      <trkpt lat="45.40325" lon="4.57787">
        <ele>928.8</ele>
        <time>1970-01-01T00:38:20.000Z</time>
      </trkpt>
      <trkpt lat="45.40328" lon="4.57795">
        <ele>928.8</ele>
        <time>1970-01-01T00:38:22.000Z</time>
      </trkpt>
      <trkpt lat="45.40335" lon="4.57814">
        <ele>928.8</ele>
        <time>1970-01-01T00:38:25.000Z</time>
      </trkpt>
      <trkpt lat="45.40345" lon="4.57834">
        <ele>928.8</ele>
        <time>1970-01-01T00:38:30.000Z</time>
      </trkpt>
      <trkpt lat="45.40361" lon="4.57861">
        <ele>928.8</ele>
        <time>1970-01-01T00:38:35.000Z</time>
      </trkpt>
      <trkpt lat="45.40374" lon="4.57881">
        <ele>928.8</ele>
        <time>1970-01-01T00:38:41.000Z</time>
      </trkpt>
      <trkpt lat="45.40387" lon="4.57898">
        <ele>928.8</ele>
        <time>1970-01-01T00:38:47.000Z</time>
      </trkpt>
      <trkpt lat="45.40401" lon="4.5792">
        <ele>928.8</ele>
        <time>1970-01-01T00:38:52.000Z</time>
      </trkpt>
      <trkpt lat="45.40422" lon="4.57949">
        <ele>928.8</ele>
        <time>1970-01-01T00:38:58.000Z</time>
      </trkpt>
      <trkpt lat="45.4044" lon="4.57983">
        <ele>928.8</ele>
        <time>1970-01-01T00:39:03.000Z</time>
      </trkpt>
      <trkpt lat="45.40444" lon="4.58011">
        <ele>928.8</ele>
        <time>1970-01-01T00:39:08.000Z</time>
      </trkpt>
      <trkpt lat="45.4044" lon="4.58027">
        <ele>928.8</ele>
        <time>1970-01-01T00:39:12.000Z</time>
      </trkpt>
      <trkpt lat="45.40437" lon="4.58034">
        <ele>928.8</ele>
        <time>1970-01-01T00:39:14.000Z</time>
      </trkpt>
      <trkpt lat="45.40432" lon="4.58044">
        <ele>928.8</ele>
        <time>1970-01-01T00:39:18.000Z</time>
      </trkpt>
      <trkpt lat="45.4043" lon="4.58045">
        <ele>928.8</ele>
        <time>1970-01-01T00:39:19.000Z</time>
      </trkpt>
      <trkpt lat="45.40428" lon="4.58052">
        <ele>928.8</ele>
        <time>1970-01-01T00:39:22.000Z</time>
      </trkpt>
      <trkpt lat="45.40428" lon="4.58054">
        <ele>928.8</ele>
        <time>1970-01-01T00:39:23.000Z</time>
      </trkpt>
      <trkpt lat="45.40425" lon="4.58066">
        <ele>928.8</ele>
        <time>1970-01-01T00:39:26.000Z</time>
      </trkpt>
      <trkpt lat="45.40418" lon="4.58073">
        <ele>928.8</ele>
        <time>1970-01-01T00:39:31.000Z</time>
      </trkpt>
      <trkpt lat="45.40405" lon="4.58087">
        <ele>928.8</ele>
        <time>1970-01-01T00:39:37.000Z</time>
      </trkpt>
      <trkpt lat="45.40402" lon="4.58093">
        <ele>928.8</ele>
        <time>1970-01-01T00:39:38.000Z</time>
      </trkpt>
      <trkpt lat="45.40382" lon="4.58109">
        <ele>928.8</ele>
        <time>1970-01-01T00:39:42.000Z</time>
      </trkpt>
      <trkpt lat="45.40376" lon="4.58111">
        <ele>928.8</ele>
        <time>1970-01-01T00:39:43.000Z</time>
      </trkpt>
      <trkpt lat="45.40347" lon="4.58133">
        <ele>928.4</ele>
        <time>1970-01-01T00:39:48.000Z</time>
      </trkpt>
      <trkpt lat="45.40343" lon="4.58139">
        <ele>928</ele>
        <time>1970-01-01T00:39:49.000Z</time>
      </trkpt>
      <trkpt lat="45.40339" lon="4.58144">
        <ele>927.6</ele>
        <time>1970-01-01T00:39:50.000Z</time>
      </trkpt>
      <trkpt lat="45.40335" lon="4.58156">
        <ele>927.2</ele>
        <time>1970-01-01T00:39:51.000Z</time>
      </trkpt>
      <trkpt lat="45.40329" lon="4.58162">
        <ele>926.8</ele>
        <time>1970-01-01T00:39:52.000Z</time>
      </trkpt>
      <trkpt lat="45.40324" lon="4.58164">
        <ele>926.8</ele>
        <time>1970-01-01T00:39:53.000Z</time>
      </trkpt>
      <trkpt lat="45.4031" lon="4.5817">
        <ele>926.4</ele>
        <time>1970-01-01T00:39:55.000Z</time>
      </trkpt>
      <trkpt lat="45.40302" lon="4.58172">
        <ele>925.8</ele>
        <time>1970-01-01T00:39:56.000Z</time>
      </trkpt>
      <trkpt lat="45.40295" lon="4.58173">
        <ele>925.4</ele>
        <time>1970-01-01T00:39:57.000Z</time>
      </trkpt>
      <trkpt lat="45.40289" lon="4.58174">
        <ele>925</ele>
        <time>1970-01-01T00:39:58.000Z</time>
      </trkpt>
      <trkpt lat="45.40281" lon="4.58177">
        <ele>924.6</ele>
        <time>1970-01-01T00:39:59.000Z</time>
      </trkpt>
      <trkpt lat="45.40272" lon="4.58176">
        <ele>924.6</ele>
        <time>1970-01-01T00:40:01.000Z</time>
      </trkpt>
      <trkpt lat="45.40269" lon="4.58177">
        <ele>924.2</ele>
        <time>1970-01-01T00:40:02.000Z</time>
      </trkpt>
      <trkpt lat="45.40266" lon="4.58178">
        <ele>923.2</ele>
        <time>1970-01-01T00:40:03.000Z</time>
      </trkpt>
      <trkpt lat="45.40263" lon="4.58178">
        <ele>922.8</ele>
        <time>1970-01-01T00:40:04.000Z</time>
      </trkpt>
      <trkpt lat="45.40259" lon="4.58177">
        <ele>922.4</ele>
        <time>1970-01-01T00:40:05.000Z</time>
      </trkpt>
      <trkpt lat="45.4025" lon="4.58179">
        <ele>922.4</ele>
        <time>1970-01-01T00:40:08.000Z</time>
      </trkpt>
      <trkpt lat="45.40243" lon="4.58182">
        <ele>922.4</ele>
        <time>1970-01-01T00:40:10.000Z</time>
      </trkpt>
      <trkpt lat="45.40219" lon="4.58189">
        <ele>922.4</ele>
        <time>1970-01-01T00:40:16.000Z</time>
      </trkpt>
      <trkpt lat="45.40201" lon="4.58195">
        <ele>922.4</ele>
        <time>1970-01-01T00:40:20.000Z</time>
      </trkpt>
      <trkpt lat="45.40197" lon="4.58196">
        <ele>922.4</ele>
        <time>1970-01-01T00:40:21.000Z</time>
      </trkpt>
      <trkpt lat="45.40179" lon="4.58206">
        <ele>922.4</ele>
        <time>1970-01-01T00:40:26.000Z</time>
      </trkpt>
      <trkpt lat="45.40171" lon="4.58209">
        <ele>923.2</ele>
        <time>1970-01-01T00:40:28.000Z</time>
      </trkpt>
      <trkpt lat="45.40166" lon="4.58211">
        <ele>923.8</ele>
        <time>1970-01-01T00:40:29.000Z</time>
      </trkpt>
      <trkpt lat="45.40163" lon="4.58213">
        <ele>924.2</ele>
        <time>1970-01-01T00:40:30.000Z</time>
      </trkpt>
      <trkpt lat="45.40159" lon="4.58215">
        <ele>924.6</ele>
        <time>1970-01-01T00:40:31.000Z</time>
      </trkpt>
      <trkpt lat="45.40153" lon="4.58219">
        <ele>924.6</ele>
        <time>1970-01-01T00:40:33.000Z</time>
      </trkpt>
      <trkpt lat="45.40133" lon="4.58232">
        <ele>924.6</ele>
        <time>1970-01-01T00:40:39.000Z</time>
      </trkpt>
      <trkpt lat="45.40117" lon="4.58243">
        <ele>924.6</ele>
        <time>1970-01-01T00:40:44.000Z</time>
      </trkpt>
      <trkpt lat="45.40113" lon="4.58246">
        <ele>925</ele>
        <time>1970-01-01T00:40:45.000Z</time>
      </trkpt>
      <trkpt lat="45.40109" lon="4.58248">
        <ele>925.4</ele>
        <time>1970-01-01T00:40:46.000Z</time>
      </trkpt>
      <trkpt lat="45.40106" lon="4.5825">
        <ele>926</ele>
        <time>1970-01-01T00:40:47.000Z</time>
      </trkpt>
      <trkpt lat="45.40103" lon="4.58252">
        <ele>926.4</ele>
        <time>1970-01-01T00:40:48.000Z</time>
      </trkpt>
      <trkpt lat="45.401" lon="4.58253">
        <ele>926.8</ele>
        <time>1970-01-01T00:40:49.000Z</time>
      </trkpt>
      <trkpt lat="45.40097" lon="4.58254">
        <ele>926.8</ele>
        <time>1970-01-01T00:40:50.000Z</time>
      </trkpt>
      <trkpt lat="45.40094" lon="4.58255">
        <ele>927.4</ele>
        <time>1970-01-01T00:40:51.000Z</time>
      </trkpt>
      <trkpt lat="45.40091" lon="4.58256">
        <ele>928.2</ele>
        <time>1970-01-01T00:40:52.000Z</time>
      </trkpt>
      <trkpt lat="45.40088" lon="4.58256">
        <ele>928.6</ele>
        <time>1970-01-01T00:40:53.000Z</time>
      </trkpt>
      <trkpt lat="45.40085" lon="4.58257">
        <ele>929.2</ele>
        <time>1970-01-01T00:40:54.000Z</time>
      </trkpt>
      <trkpt lat="45.40075" lon="4.58259">
        <ele>929.2</ele>
        <time>1970-01-01T00:40:57.000Z</time>
      </trkpt>
      <trkpt lat="45.40057" lon="4.58253">
        <ele>929.2</ele>
        <time>1970-01-01T00:41:02.000Z</time>
      </trkpt>
      <trkpt lat="45.40045" lon="4.58249">
        <ele>929.2</ele>
        <time>1970-01-01T00:41:05.000Z</time>
      </trkpt>
      <trkpt lat="45.40037" lon="4.58249">
        <ele>929.2</ele>
        <time>1970-01-01T00:41:07.000Z</time>
      </trkpt>
      <trkpt lat="45.40032" lon="4.5825">
        <ele>929.2</ele>
        <time>1970-01-01T00:41:08.000Z</time>
      </trkpt>
      <trkpt lat="45.40009" lon="4.5825">
        <ele>929.2</ele>
        <time>1970-01-01T00:41:14.000Z</time>
      </trkpt>
      <trkpt lat="45.4" lon="4.58249">
        <ele>929.2</ele>
        <time>1970-01-01T00:41:16.000Z</time>
      </trkpt>
      <trkpt lat="45.39992" lon="4.58249">
        <ele>929.2</ele>
        <time>1970-01-01T00:41:18.000Z</time>
      </trkpt>
      <trkpt lat="45.3998" lon="4.5825">
        <ele>929.6</ele>
        <time>1970-01-01T00:41:21.000Z</time>
      </trkpt>
      <trkpt lat="45.39977" lon="4.58251">
        <ele>930</ele>
        <time>1970-01-01T00:41:22.000Z</time>
      </trkpt>
      <trkpt lat="45.39973" lon="4.58252">
        <ele>930.4</ele>
        <time>1970-01-01T00:41:23.000Z</time>
      </trkpt>
      <trkpt lat="45.39971" lon="4.58252">
        <ele>930.8</ele>
        <time>1970-01-01T00:41:24.000Z</time>
      </trkpt>
      <trkpt lat="45.39967" lon="4.58252">
        <ele>931.2</ele>
        <time>1970-01-01T00:41:25.000Z</time>
      </trkpt>
      <trkpt lat="45.39963" lon="4.58252">
        <ele>931.2</ele>
        <time>1970-01-01T00:41:26.000Z</time>
      </trkpt>
      <trkpt lat="45.39943" lon="4.58254">
        <ele>931.2</ele>
        <time>1970-01-01T00:41:32.000Z</time>
      </trkpt>
      <trkpt lat="45.39939" lon="4.58255">
        <ele>931.6</ele>
        <time>1970-01-01T00:41:33.000Z</time>
      </trkpt>
      <trkpt lat="45.39936" lon="4.58255">
        <ele>932.2</ele>
        <time>1970-01-01T00:41:34.000Z</time>
      </trkpt>
      <trkpt lat="45.39933" lon="4.58256">
        <ele>932.6</ele>
        <time>1970-01-01T00:41:35.000Z</time>
      </trkpt>
      <trkpt lat="45.39929" lon="4.58256">
        <ele>933</ele>
        <time>1970-01-01T00:41:36.000Z</time>
      </trkpt>
      <trkpt lat="45.39926" lon="4.58257">
        <ele>933.4</ele>
        <time>1970-01-01T00:41:37.000Z</time>
      </trkpt>
      <trkpt lat="45.39923" lon="4.58258">
        <ele>933.4</ele>
        <time>1970-01-01T00:41:38.000Z</time>
      </trkpt>
      <trkpt lat="45.3991" lon="4.5826">
        <ele>933.8</ele>
        <time>1970-01-01T00:41:42.000Z</time>
      </trkpt>
      <trkpt lat="45.39907" lon="4.58261">
        <ele>934.2</ele>
        <time>1970-01-01T00:41:43.000Z</time>
      </trkpt>
      <trkpt lat="45.39904" lon="4.58262">
        <ele>934.6</ele>
        <time>1970-01-01T00:41:44.000Z</time>
      </trkpt>
      <trkpt lat="45.399" lon="4.58263">
        <ele>935</ele>
        <time>1970-01-01T00:41:45.000Z</time>
      </trkpt>
      <trkpt lat="45.39897" lon="4.58265">
        <ele>935.4</ele>
        <time>1970-01-01T00:41:46.000Z</time>
      </trkpt>
      <trkpt lat="45.39888" lon="4.58266">
        <ele>935.4</ele>
        <time>1970-01-01T00:41:49.000Z</time>
      </trkpt>
      <trkpt lat="45.39882" lon="4.58268">
        <ele>935.8</ele>
        <time>1970-01-01T00:41:52.000Z</time>
      </trkpt>
      <trkpt lat="45.3988" lon="4.58269">
        <ele>936.2</ele>
        <time>1970-01-01T00:41:53.000Z</time>
      </trkpt>
      <trkpt lat="45.39877" lon="4.5827">
        <ele>936.6</ele>
        <time>1970-01-01T00:41:54.000Z</time>
      </trkpt>
      <trkpt lat="45.39874" lon="4.58272">
        <ele>937</ele>
        <time>1970-01-01T00:41:55.000Z</time>
      </trkpt>
      <trkpt lat="45.39871" lon="4.58272">
        <ele>937.4</ele>
        <time>1970-01-01T00:41:56.000Z</time>
      </trkpt>
      <trkpt lat="45.39859" lon="4.58273">
        <ele>937.4</ele>
        <time>1970-01-01T00:42:00.000Z</time>
      </trkpt>
      <trkpt lat="45.3985" lon="4.58274">
        <ele>937.8</ele>
        <time>1970-01-01T00:42:03.000Z</time>
      </trkpt>
      <trkpt lat="45.39847" lon="4.58274">
        <ele>938.4</ele>
        <time>1970-01-01T00:42:04.000Z</time>
      </trkpt>
      <trkpt lat="45.39844" lon="4.58274">
        <ele>938.8</ele>
        <time>1970-01-01T00:42:05.000Z</time>
      </trkpt>
      <trkpt lat="45.3984" lon="4.58275">
        <ele>939.6</ele>
        <time>1970-01-01T00:42:06.000Z</time>
      </trkpt>
      <trkpt lat="45.39837" lon="4.58275">
        <ele>939.6</ele>
        <time>1970-01-01T00:42:07.000Z</time>
      </trkpt>
      <trkpt lat="45.39823" lon="4.58276">
        <ele>939.6</ele>
        <time>1970-01-01T00:42:12.000Z</time>
      </trkpt>
      <trkpt lat="45.3982" lon="4.58276">
        <ele>940</ele>
        <time>1970-01-01T00:42:13.000Z</time>
      </trkpt>
      <trkpt lat="45.39816" lon="4.58276">
        <ele>940.4</ele>
        <time>1970-01-01T00:42:14.000Z</time>
      </trkpt>
      <trkpt lat="45.39813" lon="4.58277">
        <ele>940.8</ele>
        <time>1970-01-01T00:42:15.000Z</time>
      </trkpt>
      <trkpt lat="45.3981" lon="4.58278">
        <ele>941.2</ele>
        <time>1970-01-01T00:42:16.000Z</time>
      </trkpt>
      <trkpt lat="45.39806" lon="4.58279">
        <ele>941.6</ele>
        <time>1970-01-01T00:42:17.000Z</time>
      </trkpt>
      <trkpt lat="45.398" lon="4.58281">
        <ele>941.6</ele>
        <time>1970-01-01T00:42:19.000Z</time>
      </trkpt>
      <trkpt lat="45.39779" lon="4.58287">
        <ele>941.6</ele>
        <time>1970-01-01T00:42:25.000Z</time>
      </trkpt>
      <trkpt lat="45.39754" lon="4.58297">
        <ele>941.6</ele>
        <time>1970-01-01T00:42:32.000Z</time>
      </trkpt>
      <trkpt lat="45.39733" lon="4.58308">
        <ele>941.6</ele>
        <time>1970-01-01T00:42:38.000Z</time>
      </trkpt>
      <trkpt lat="45.39715" lon="4.58316">
        <ele>942</ele>
        <time>1970-01-01T00:42:43.000Z</time>
      </trkpt>
      <trkpt lat="45.39711" lon="4.58318">
        <ele>942.6</ele>
        <time>1970-01-01T00:42:44.000Z</time>
      </trkpt>
      <trkpt lat="45.39707" lon="4.58319">
        <ele>943</ele>
        <time>1970-01-01T00:42:45.000Z</time>
      </trkpt>
      <trkpt lat="45.39704" lon="4.58321">
        <ele>943.4</ele>
        <time>1970-01-01T00:42:46.000Z</time>
      </trkpt>
      <trkpt lat="45.397" lon="4.58324">
        <ele>943.8</ele>
        <time>1970-01-01T00:42:47.000Z</time>
      </trkpt>
      <trkpt lat="45.39687" lon="4.5833">
        <ele>943.8</ele>
        <time>1970-01-01T00:42:50.000Z</time>
      </trkpt>
      <trkpt lat="45.39671" lon="4.58342">
        <ele>943.8</ele>
        <time>1970-01-01T00:42:54.000Z</time>
      </trkpt>
      <trkpt lat="45.39663" lon="4.58349">
        <ele>943.8</ele>
        <time>1970-01-01T00:42:56.000Z</time>
      </trkpt>
      <trkpt lat="45.39643" lon="4.5837">
        <ele>943.8</ele>
        <time>1970-01-01T00:43:01.000Z</time>
      </trkpt>
      <trkpt lat="45.39639" lon="4.58375">
        <ele>943.8</ele>
        <time>1970-01-01T00:43:02.000Z</time>
      </trkpt>
      <trkpt lat="45.39634" lon="4.5838">
        <ele>943.4</ele>
        <time>1970-01-01T00:43:03.000Z</time>
      </trkpt>
      <trkpt lat="45.3963" lon="4.58385">
        <ele>943</ele>
        <time>1970-01-01T00:43:04.000Z</time>
      </trkpt>
      <trkpt lat="45.39626" lon="4.58389">
        <ele>942.6</ele>
        <time>1970-01-01T00:43:05.000Z</time>
      </trkpt>
      <trkpt lat="45.39622" lon="4.58394">
        <ele>942.2</ele>
        <time>1970-01-01T00:43:06.000Z</time>
      </trkpt>
      <trkpt lat="45.39619" lon="4.58399">
        <ele>941.8</ele>
        <time>1970-01-01T00:43:07.000Z</time>
      </trkpt>
      <trkpt lat="45.39612" lon="4.58406">
        <ele>941.8</ele>
        <time>1970-01-01T00:43:09.000Z</time>
      </trkpt>
      <trkpt lat="45.39601" lon="4.58419">
        <ele>941.8</ele>
        <time>1970-01-01T00:43:13.000Z</time>
      </trkpt>
      <trkpt lat="45.39585" lon="4.5844">
        <ele>941.8</ele>
        <time>1970-01-01T00:43:19.000Z</time>
      </trkpt>
      <trkpt lat="45.39574" lon="4.58455">
        <ele>941.8</ele>
        <time>1970-01-01T00:43:23.000Z</time>
      </trkpt>
      <trkpt lat="45.39568" lon="4.58463">
        <ele>941.8</ele>
        <time>1970-01-01T00:43:25.000Z</time>
      </trkpt>
      <trkpt lat="45.39552" lon="4.58486">
        <ele>941.8</ele>
        <time>1970-01-01T00:43:31.000Z</time>
      </trkpt>
      <trkpt lat="45.39545" lon="4.58494">
        <ele>942.2</ele>
        <time>1970-01-01T00:43:34.000Z</time>
      </trkpt>
      <trkpt lat="45.39543" lon="4.58497">
        <ele>942.6</ele>
        <time>1970-01-01T00:43:35.000Z</time>
      </trkpt>
      <trkpt lat="45.39541" lon="4.58501">
        <ele>943</ele>
        <time>1970-01-01T00:43:36.000Z</time>
      </trkpt>
      <trkpt lat="45.39539" lon="4.58504">
        <ele>943.4</ele>
        <time>1970-01-01T00:43:37.000Z</time>
      </trkpt>
      <trkpt lat="45.39536" lon="4.58508">
        <ele>943.8</ele>
        <time>1970-01-01T00:43:38.000Z</time>
      </trkpt>
      <trkpt lat="45.39529" lon="4.5852">
        <ele>944.2</ele>
        <time>1970-01-01T00:43:41.000Z</time>
      </trkpt>
      <trkpt lat="45.39526" lon="4.58523">
        <ele>944.6</ele>
        <time>1970-01-01T00:43:42.000Z</time>
      </trkpt>
      <trkpt lat="45.39523" lon="4.58527">
        <ele>945.2</ele>
        <time>1970-01-01T00:43:43.000Z</time>
      </trkpt>
      <trkpt lat="45.39521" lon="4.5853">
        <ele>945.6</ele>
        <time>1970-01-01T00:43:44.000Z</time>
      </trkpt>
      <trkpt lat="45.39519" lon="4.58534">
        <ele>946</ele>
        <time>1970-01-01T00:43:45.000Z</time>
      </trkpt>
      <trkpt lat="45.39512" lon="4.58545">
        <ele>946.4</ele>
        <time>1970-01-01T00:43:48.000Z</time>
      </trkpt>
      <trkpt lat="45.3951" lon="4.58549">
        <ele>946.8</ele>
        <time>1970-01-01T00:43:49.000Z</time>
      </trkpt>
      <trkpt lat="45.39509" lon="4.58553">
        <ele>947.2</ele>
        <time>1970-01-01T00:43:50.000Z</time>
      </trkpt>
      <trkpt lat="45.39507" lon="4.58556">
        <ele>947.6</ele>
        <time>1970-01-01T00:43:51.000Z</time>
      </trkpt>
      <trkpt lat="45.39504" lon="4.5856">
        <ele>948</ele>
        <time>1970-01-01T00:43:52.000Z</time>
      </trkpt>
      <trkpt lat="45.39499" lon="4.58566">
        <ele>948</ele>
        <time>1970-01-01T00:43:54.000Z</time>
      </trkpt>
      <trkpt lat="45.39486" lon="4.58583">
        <ele>948.4</ele>
        <time>1970-01-01T00:44:00.000Z</time>
      </trkpt>
      <trkpt lat="45.39484" lon="4.58586">
        <ele>948.8</ele>
        <time>1970-01-01T00:44:01.000Z</time>
      </trkpt>
      <trkpt lat="45.39482" lon="4.58589">
        <ele>949.2</ele>
        <time>1970-01-01T00:44:02.000Z</time>
      </trkpt>
      <trkpt lat="45.39479" lon="4.58592">
        <ele>949.8</ele>
        <time>1970-01-01T00:44:03.000Z</time>
      </trkpt>
      <trkpt lat="45.39477" lon="4.58596">
        <ele>950.2</ele>
        <time>1970-01-01T00:44:04.000Z</time>
      </trkpt>
      <trkpt lat="45.39474" lon="4.58599">
        <ele>950.2</ele>
        <time>1970-01-01T00:44:05.000Z</time>
      </trkpt>
      <trkpt lat="45.39471" lon="4.58603">
        <ele>950.2</ele>
        <time>1970-01-01T00:44:06.000Z</time>
      </trkpt>
      <trkpt lat="45.39468" lon="4.58606">
        <ele>950.6</ele>
        <time>1970-01-01T00:44:07.000Z</time>
      </trkpt>
      <trkpt lat="45.39466" lon="4.58609">
        <ele>951</ele>
        <time>1970-01-01T00:44:08.000Z</time>
      </trkpt>
      <trkpt lat="45.39464" lon="4.58612">
        <ele>951.4</ele>
        <time>1970-01-01T00:44:09.000Z</time>
      </trkpt>
      <trkpt lat="45.39461" lon="4.58615">
        <ele>952.4</ele>
        <time>1970-01-01T00:44:10.000Z</time>
      </trkpt>
      <trkpt lat="45.39457" lon="4.58621">
        <ele>952.8</ele>
        <time>1970-01-01T00:44:12.000Z</time>
      </trkpt>
      <trkpt lat="45.39454" lon="4.58624">
        <ele>953.2</ele>
        <time>1970-01-01T00:44:13.000Z</time>
      </trkpt>
      <trkpt lat="45.39452" lon="4.58627">
        <ele>953.6</ele>
        <time>1970-01-01T00:44:14.000Z</time>
      </trkpt>
      <trkpt lat="45.39449" lon="4.5863">
        <ele>954</ele>
        <time>1970-01-01T00:44:15.000Z</time>
      </trkpt>
      <trkpt lat="45.39447" lon="4.58633">
        <ele>954.4</ele>
        <time>1970-01-01T00:44:16.000Z</time>
      </trkpt>
      <trkpt lat="45.39445" lon="4.58635">
        <ele>954.4</ele>
        <time>1970-01-01T00:44:17.000Z</time>
      </trkpt>
      <trkpt lat="45.39439" lon="4.58641">
        <ele>954.8</ele>
        <time>1970-01-01T00:44:20.000Z</time>
      </trkpt>
      <trkpt lat="45.39436" lon="4.58642">
        <ele>955.4</ele>
        <time>1970-01-01T00:44:21.000Z</time>
      </trkpt>
      <trkpt lat="45.39433" lon="4.58644">
        <ele>955.8</ele>
        <time>1970-01-01T00:44:22.000Z</time>
      </trkpt>
      <trkpt lat="45.3943" lon="4.58645">
        <ele>956.2</ele>
        <time>1970-01-01T00:44:23.000Z</time>
      </trkpt>
      <trkpt lat="45.39427" lon="4.58647">
        <ele>956.6</ele>
        <time>1970-01-01T00:44:24.000Z</time>
      </trkpt>
      <trkpt lat="45.39422" lon="4.58649">
        <ele>956.6</ele>
        <time>1970-01-01T00:44:27.000Z</time>
      </trkpt>
      <trkpt lat="45.3942" lon="4.58651">
        <ele>957</ele>
        <time>1970-01-01T00:44:28.000Z</time>
      </trkpt>
      <trkpt lat="45.39415" lon="4.58653">
        <ele>957.4</ele>
        <time>1970-01-01T00:44:29.000Z</time>
      </trkpt>
      <trkpt lat="45.39411" lon="4.58654">
        <ele>957.8</ele>
        <time>1970-01-01T00:44:30.000Z</time>
      </trkpt>
      <trkpt lat="45.39407" lon="4.58656">
        <ele>958.2</ele>
        <time>1970-01-01T00:44:31.000Z</time>
      </trkpt>
      <trkpt lat="45.39402" lon="4.58658">
        <ele>958.6</ele>
        <time>1970-01-01T00:44:32.000Z</time>
      </trkpt>
      <trkpt lat="45.39381" lon="4.58663">
        <ele>958.6</ele>
        <time>1970-01-01T00:44:37.000Z</time>
      </trkpt>
      <trkpt lat="45.3937" lon="4.58671">
        <ele>959.2</ele>
        <time>1970-01-01T00:44:40.000Z</time>
      </trkpt>
      <trkpt lat="45.39366" lon="4.58672">
        <ele>959.6</ele>
        <time>1970-01-01T00:44:41.000Z</time>
      </trkpt>
      <trkpt lat="45.39362" lon="4.58673">
        <ele>960</ele>
        <time>1970-01-01T00:44:42.000Z</time>
      </trkpt>
      <trkpt lat="45.39358" lon="4.58675">
        <ele>960.4</ele>
        <time>1970-01-01T00:44:43.000Z</time>
      </trkpt>
      <trkpt lat="45.39354" lon="4.58677">
        <ele>960.8</ele>
        <time>1970-01-01T00:44:44.000Z</time>
      </trkpt>
      <trkpt lat="45.39332" lon="4.58689">
        <ele>960.8</ele>
        <time>1970-01-01T00:44:50.000Z</time>
      </trkpt>
      <trkpt lat="45.3931" lon="4.58698">
        <ele>960.8</ele>
        <time>1970-01-01T00:44:56.000Z</time>
      </trkpt>
      <trkpt lat="45.39306" lon="4.58699">
        <ele>960.8</ele>
        <time>1970-01-01T00:44:57.000Z</time>
      </trkpt>
      <trkpt lat="45.3929" lon="4.58709">
        <ele>960.8</ele>
        <time>1970-01-01T00:45:01.000Z</time>
      </trkpt>
      <trkpt lat="45.39283" lon="4.58715">
        <ele>960.8</ele>
        <time>1970-01-01T00:45:03.000Z</time>
      </trkpt>
      <trkpt lat="45.39265" lon="4.58737">
        <ele>960.8</ele>
        <time>1970-01-01T00:45:09.000Z</time>
      </trkpt>
      <trkpt lat="45.39262" lon="4.5874">
        <ele>960.8</ele>
        <time>1970-01-01T00:45:10.000Z</time>
      </trkpt>
      <trkpt lat="45.39255" lon="4.58748">
        <ele>960.8</ele>
        <time>1970-01-01T00:45:12.000Z</time>
      </trkpt>
      <trkpt lat="45.39252" lon="4.58751">
        <ele>960.8</ele>
        <time>1970-01-01T00:45:13.000Z</time>
      </trkpt>
      <trkpt lat="45.3924" lon="4.58764">
        <ele>960.8</ele>
        <time>1970-01-01T00:45:17.000Z</time>
      </trkpt>
      <trkpt lat="45.39237" lon="4.58766">
        <ele>960.8</ele>
        <time>1970-01-01T00:45:18.000Z</time>
      </trkpt>
      <trkpt lat="45.39223" lon="4.58775">
        <ele>961.4</ele>
        <time>1970-01-01T00:45:23.000Z</time>
      </trkpt>
      <trkpt lat="45.39221" lon="4.58778">
        <ele>962.2</ele>
        <time>1970-01-01T00:45:24.000Z</time>
      </trkpt>
      <trkpt lat="45.39219" lon="4.5878">
        <ele>962.6</ele>
        <time>1970-01-01T00:45:25.000Z</time>
      </trkpt>
      <trkpt lat="45.39217" lon="4.58782">
        <ele>963</ele>
        <time>1970-01-01T00:45:26.000Z</time>
      </trkpt>
      <trkpt lat="45.39212" lon="4.58786">
        <ele>963</ele>
        <time>1970-01-01T00:45:28.000Z</time>
      </trkpt>
      <trkpt lat="45.39201" lon="4.58796">
        <ele>963.6</ele>
        <time>1970-01-01T00:45:33.000Z</time>
      </trkpt>
      <trkpt lat="45.39199" lon="4.58798">
        <ele>964</ele>
        <time>1970-01-01T00:45:34.000Z</time>
      </trkpt>
      <trkpt lat="45.39197" lon="4.588">
        <ele>964.4</ele>
        <time>1970-01-01T00:45:35.000Z</time>
      </trkpt>
      <trkpt lat="45.39195" lon="4.58804">
        <ele>964.8</ele>
        <time>1970-01-01T00:45:36.000Z</time>
      </trkpt>
      <trkpt lat="45.39194" lon="4.58807">
        <ele>965.2</ele>
        <time>1970-01-01T00:45:37.000Z</time>
      </trkpt>
      <trkpt lat="45.39191" lon="4.58815">
        <ele>965.2</ele>
        <time>1970-01-01T00:45:39.000Z</time>
      </trkpt>
      <trkpt lat="45.3919" lon="4.5883">
        <ele>965.2</ele>
        <time>1970-01-01T00:45:43.000Z</time>
      </trkpt>
      <trkpt lat="45.3919" lon="4.58833">
        <ele>965.6</ele>
        <time>1970-01-01T00:45:44.000Z</time>
      </trkpt>
      <trkpt lat="45.39191" lon="4.58836">
        <ele>966</ele>
        <time>1970-01-01T00:45:45.000Z</time>
      </trkpt>
      <trkpt lat="45.39192" lon="4.5884">
        <ele>966.4</ele>
        <time>1970-01-01T00:45:46.000Z</time>
      </trkpt>
      <trkpt lat="45.39193" lon="4.58843">
        <ele>966.8</ele>
        <time>1970-01-01T00:45:47.000Z</time>
      </trkpt>
      <trkpt lat="45.39194" lon="4.58845">
        <ele>967.2</ele>
        <time>1970-01-01T00:45:48.000Z</time>
      </trkpt>
      <trkpt lat="45.39197" lon="4.58851">
        <ele>967.2</ele>
        <time>1970-01-01T00:45:50.000Z</time>
      </trkpt>
      <trkpt lat="45.39199" lon="4.58853">
        <ele>967.6</ele>
        <time>1970-01-01T00:45:51.000Z</time>
      </trkpt>
      <trkpt lat="45.392" lon="4.58856">
        <ele>968</ele>
        <time>1970-01-01T00:45:52.000Z</time>
      </trkpt>
      <trkpt lat="45.39201" lon="4.58859">
        <ele>968.4</ele>
        <time>1970-01-01T00:45:53.000Z</time>
      </trkpt>
      <trkpt lat="45.39202" lon="4.58862">
        <ele>968.8</ele>
        <time>1970-01-01T00:45:54.000Z</time>
      </trkpt>
      <trkpt lat="45.39204" lon="4.58864">
        <ele>969.2</ele>
        <time>1970-01-01T00:45:55.000Z</time>
      </trkpt>
      <trkpt lat="45.39206" lon="4.58866">
        <ele>969.2</ele>
        <time>1970-01-01T00:45:57.000Z</time>
      </trkpt>
      <trkpt lat="45.39207" lon="4.58867">
        <ele>969.6</ele>
        <time>1970-01-01T00:45:58.000Z</time>
      </trkpt>
      <trkpt lat="45.39209" lon="4.58868">
        <ele>970</ele>
        <time>1970-01-01T00:45:59.000Z</time>
      </trkpt>
      <trkpt lat="45.39211" lon="4.5887">
        <ele>970.4</ele>
        <time>1970-01-01T00:46:00.000Z</time>
      </trkpt>
      <trkpt lat="45.39213" lon="4.58872">
        <ele>970.8</ele>
        <time>1970-01-01T00:46:01.000Z</time>
      </trkpt>
      <trkpt lat="45.39215" lon="4.58873">
        <ele>971.2</ele>
        <time>1970-01-01T00:46:02.000Z</time>
      </trkpt>
      <trkpt lat="45.39219" lon="4.58876">
        <ele>971.2</ele>
        <time>1970-01-01T00:46:04.000Z</time>
      </trkpt>
      <trkpt lat="45.39225" lon="4.58882">
        <ele>971.2</ele>
        <time>1970-01-01T00:46:07.000Z</time>
      </trkpt>
      <trkpt lat="45.39227" lon="4.58884">
        <ele>971.6</ele>
        <time>1970-01-01T00:46:08.000Z</time>
      </trkpt>
      <trkpt lat="45.39228" lon="4.58885">
        <ele>972.2</ele>
        <time>1970-01-01T00:46:09.000Z</time>
      </trkpt>
      <trkpt lat="45.3923" lon="4.58887">
        <ele>972.6</ele>
        <time>1970-01-01T00:46:10.000Z</time>
      </trkpt>
      <trkpt lat="45.39232" lon="4.58889">
        <ele>973</ele>
        <time>1970-01-01T00:46:11.000Z</time>
      </trkpt>
      <trkpt lat="45.39235" lon="4.58891">
        <ele>973.4</ele>
        <time>1970-01-01T00:46:12.000Z</time>
      </trkpt>
      <trkpt lat="45.39241" lon="4.58896">
        <ele>973.4</ele>
        <time>1970-01-01T00:46:15.000Z</time>
      </trkpt>
      <trkpt lat="45.39243" lon="4.58898">
        <ele>973.8</ele>
        <time>1970-01-01T00:46:16.000Z</time>
      </trkpt>
      <trkpt lat="45.39245" lon="4.589">
        <ele>974.2</ele>
        <time>1970-01-01T00:46:17.000Z</time>
      </trkpt>
      <trkpt lat="45.39248" lon="4.58902">
        <ele>974.8</ele>
        <time>1970-01-01T00:46:18.000Z</time>
      </trkpt>
      <trkpt lat="45.39251" lon="4.58904">
        <ele>975.2</ele>
        <time>1970-01-01T00:46:19.000Z</time>
      </trkpt>
      <trkpt lat="45.39253" lon="4.58905">
        <ele>975.6</ele>
        <time>1970-01-01T00:46:20.000Z</time>
      </trkpt>
      <trkpt lat="45.39264" lon="4.58908">
        <ele>976</ele>
        <time>1970-01-01T00:46:24.000Z</time>
      </trkpt>
      <trkpt lat="45.39266" lon="4.58908">
        <ele>976.4</ele>
        <time>1970-01-01T00:46:25.000Z</time>
      </trkpt>
      <trkpt lat="45.39268" lon="4.5891">
        <ele>976.8</ele>
        <time>1970-01-01T00:46:26.000Z</time>
      </trkpt>
      <trkpt lat="45.39271" lon="4.58911">
        <ele>977.2</ele>
        <time>1970-01-01T00:46:27.000Z</time>
      </trkpt>
      <trkpt lat="45.39274" lon="4.58911">
        <ele>977.6</ele>
        <time>1970-01-01T00:46:28.000Z</time>
      </trkpt>
      <trkpt lat="45.39278" lon="4.58912">
        <ele>977.6</ele>
        <time>1970-01-01T00:46:30.000Z</time>
      </trkpt>
      <trkpt lat="45.39282" lon="4.58912">
        <ele>978</ele>
        <time>1970-01-01T00:46:32.000Z</time>
      </trkpt>
      <trkpt lat="45.39286" lon="4.58915">
        <ele>978.4</ele>
        <time>1970-01-01T00:46:33.000Z</time>
      </trkpt>
      <trkpt lat="45.39289" lon="4.58918">
        <ele>979</ele>
        <time>1970-01-01T00:46:34.000Z</time>
      </trkpt>
      <trkpt lat="45.39292" lon="4.58919">
        <ele>979.4</ele>
        <time>1970-01-01T00:46:35.000Z</time>
      </trkpt>
      <trkpt lat="45.39295" lon="4.5892">
        <ele>979.8</ele>
        <time>1970-01-01T00:46:36.000Z</time>
      </trkpt>
      <trkpt lat="45.393" lon="4.58921">
        <ele>980.2</ele>
        <time>1970-01-01T00:46:38.000Z</time>
      </trkpt>
      <trkpt lat="45.39303" lon="4.58921">
        <ele>980.8</ele>
        <time>1970-01-01T00:46:39.000Z</time>
      </trkpt>
      <trkpt lat="45.39305" lon="4.58921">
        <ele>981.2</ele>
        <time>1970-01-01T00:46:40.000Z</time>
      </trkpt>
      <trkpt lat="45.39308" lon="4.58922">
        <ele>981.6</ele>
        <time>1970-01-01T00:46:41.000Z</time>
      </trkpt>
      <trkpt lat="45.3931" lon="4.58925">
        <ele>982</ele>
        <time>1970-01-01T00:46:42.000Z</time>
      </trkpt>
      <trkpt lat="45.39322" lon="4.58938">
        <ele>982</ele>
        <time>1970-01-01T00:46:47.000Z</time>
      </trkpt>
      <trkpt lat="45.3933" lon="4.58946">
        <ele>982</ele>
        <time>1970-01-01T00:46:51.000Z</time>
      </trkpt>
      <trkpt lat="45.39332" lon="4.58948">
        <ele>982.4</ele>
        <time>1970-01-01T00:46:52.000Z</time>
      </trkpt>
      <trkpt lat="45.39334" lon="4.58951">
        <ele>982.8</ele>
        <time>1970-01-01T00:46:53.000Z</time>
      </trkpt>
      <trkpt lat="45.39336" lon="4.58954">
        <ele>983.2</ele>
        <time>1970-01-01T00:46:54.000Z</time>
      </trkpt>
      <trkpt lat="45.39338" lon="4.58956">
        <ele>983.6</ele>
        <time>1970-01-01T00:46:55.000Z</time>
      </trkpt>
      <trkpt lat="45.3934" lon="4.58959">
        <ele>984</ele>
        <time>1970-01-01T00:46:56.000Z</time>
      </trkpt>
      <trkpt lat="45.39355" lon="4.58977">
        <ele>984.4</ele>
        <time>1970-01-01T00:47:02.000Z</time>
      </trkpt>
      <trkpt lat="45.39357" lon="4.58979">
        <ele>985.4</ele>
        <time>1970-01-01T00:47:03.000Z</time>
      </trkpt>
      <trkpt lat="45.3936" lon="4.58982">
        <ele>985.8</ele>
        <time>1970-01-01T00:47:04.000Z</time>
      </trkpt>
      <trkpt lat="45.39362" lon="4.58985">
        <ele>986.2</ele>
        <time>1970-01-01T00:47:05.000Z</time>
      </trkpt>
      <trkpt lat="45.39367" lon="4.58991">
        <ele>986.2</ele>
        <time>1970-01-01T00:47:07.000Z</time>
      </trkpt>
      <trkpt lat="45.39384" lon="4.59013">
        <ele>986.2</ele>
        <time>1970-01-01T00:47:14.000Z</time>
      </trkpt>
      <trkpt lat="45.39398" lon="4.59032">
        <ele>986.2</ele>
        <time>1970-01-01T00:47:20.000Z</time>
      </trkpt>
      <trkpt lat="45.39407" lon="4.59042">
        <ele>986.6</ele>
        <time>1970-01-01T00:47:24.000Z</time>
      </trkpt>
      <trkpt lat="45.39409" lon="4.59045">
        <ele>987</ele>
        <time>1970-01-01T00:47:25.000Z</time>
      </trkpt>
      <trkpt lat="45.39412" lon="4.59048">
        <ele>987.4</ele>
        <time>1970-01-01T00:47:26.000Z</time>
      </trkpt>
      <trkpt lat="45.39414" lon="4.5905">
        <ele>988.2</ele>
        <time>1970-01-01T00:47:27.000Z</time>
      </trkpt>
      <trkpt lat="45.3942" lon="4.59059">
        <ele>988.6</ele>
        <time>1970-01-01T00:47:30.000Z</time>
      </trkpt>
      <trkpt lat="45.39422" lon="4.59062">
        <ele>989</ele>
        <time>1970-01-01T00:47:31.000Z</time>
      </trkpt>
      <trkpt lat="45.39424" lon="4.59064">
        <ele>989.4</ele>
        <time>1970-01-01T00:47:32.000Z</time>
      </trkpt>
      <trkpt lat="45.39426" lon="4.59067">
        <ele>989.8</ele>
        <time>1970-01-01T00:47:33.000Z</time>
      </trkpt>
      <trkpt lat="45.39427" lon="4.5907">
        <ele>990.2</ele>
        <time>1970-01-01T00:47:34.000Z</time>
      </trkpt>
      <trkpt lat="45.39431" lon="4.59081">
        <ele>990.8</ele>
        <time>1970-01-01T00:47:37.000Z</time>
      </trkpt>
      <trkpt lat="45.39431" lon="4.59085">
        <ele>991.2</ele>
        <time>1970-01-01T00:47:38.000Z</time>
      </trkpt>
      <trkpt lat="45.39431" lon="4.59089">
        <ele>991.6</ele>
        <time>1970-01-01T00:47:39.000Z</time>
      </trkpt>
      <trkpt lat="45.3943" lon="4.59092">
        <ele>992</ele>
        <time>1970-01-01T00:47:40.000Z</time>
      </trkpt>
      <trkpt lat="45.39429" lon="4.59094">
        <ele>992.4</ele>
        <time>1970-01-01T00:47:41.000Z</time>
      </trkpt>
      <trkpt lat="45.39428" lon="4.59101">
        <ele>992.4</ele>
        <time>1970-01-01T00:47:43.000Z</time>
      </trkpt>
      <trkpt lat="45.39426" lon="4.59112">
        <ele>992.4</ele>
        <time>1970-01-01T00:47:46.000Z</time>
      </trkpt>
      <trkpt lat="45.39418" lon="4.59148">
        <ele>992.4</ele>
        <time>1970-01-01T00:47:53.000Z</time>
      </trkpt>
      <trkpt lat="45.39411" lon="4.59168">
        <ele>992.4</ele>
        <time>1970-01-01T00:47:58.000Z</time>
      </trkpt>
      <trkpt lat="45.39403" lon="4.59184">
        <ele>992.4</ele>
        <time>1970-01-01T00:48:03.000Z</time>
      </trkpt>
      <trkpt lat="45.39397" lon="4.59209">
        <ele>992.4</ele>
        <time>1970-01-01T00:48:08.000Z</time>
      </trkpt>
      <trkpt lat="45.39393" lon="4.59236">
        <ele>992.4</ele>
        <time>1970-01-01T00:48:13.000Z</time>
      </trkpt>
      <trkpt lat="45.39388" lon="4.59269">
        <ele>992.4</ele>
        <time>1970-01-01T00:48:19.000Z</time>
      </trkpt>
      <trkpt lat="45.39386" lon="4.59274">
        <ele>992</ele>
        <time>1970-01-01T00:48:20.000Z</time>
      </trkpt>
      <trkpt lat="45.39384" lon="4.59279">
        <ele>991.4</ele>
        <time>1970-01-01T00:48:21.000Z</time>
      </trkpt>
      <trkpt lat="45.39382" lon="4.59284">
        <ele>991</ele>
        <time>1970-01-01T00:48:22.000Z</time>
      </trkpt>
      <trkpt lat="45.39381" lon="4.59289">
        <ele>990.6</ele>
        <time>1970-01-01T00:48:23.000Z</time>
      </trkpt>
      <trkpt lat="45.39379" lon="4.59294">
        <ele>990.2</ele>
        <time>1970-01-01T00:48:24.000Z</time>
      </trkpt>
      <trkpt lat="45.39378" lon="4.59299">
        <ele>990.2</ele>
        <time>1970-01-01T00:48:25.000Z</time>
      </trkpt>
      <trkpt lat="45.39373" lon="4.59328">
        <ele>990.2</ele>
        <time>1970-01-01T00:48:31.000Z</time>
      </trkpt>
      <trkpt lat="45.39369" lon="4.59358">
        <ele>990.2</ele>
        <time>1970-01-01T00:48:38.000Z</time>
      </trkpt>
      <trkpt lat="45.39369" lon="4.59384">
        <ele>990.2</ele>
        <time>1970-01-01T00:48:44.000Z</time>
      </trkpt>
      <trkpt lat="45.39369" lon="4.59389">
        <ele>990.6</ele>
        <time>1970-01-01T00:48:45.000Z</time>
      </trkpt>
      <trkpt lat="45.39369" lon="4.59393">
        <ele>991</ele>
        <time>1970-01-01T00:48:46.000Z</time>
      </trkpt>
      <trkpt lat="45.39369" lon="4.59398">
        <ele>991.4</ele>
        <time>1970-01-01T00:48:47.000Z</time>
      </trkpt>
      <trkpt lat="45.39369" lon="4.59402">
        <ele>992</ele>
        <time>1970-01-01T00:48:48.000Z</time>
      </trkpt>
      <trkpt lat="45.39369" lon="4.59407">
        <ele>992.4</ele>
        <time>1970-01-01T00:48:49.000Z</time>
      </trkpt>
      <trkpt lat="45.39369" lon="4.59411">
        <ele>992.4</ele>
        <time>1970-01-01T00:48:50.000Z</time>
      </trkpt>
      <trkpt lat="45.39373" lon="4.5943">
        <ele>992.8</ele>
        <time>1970-01-01T00:48:54.000Z</time>
      </trkpt>
      <trkpt lat="45.39375" lon="4.59433">
        <ele>993.2</ele>
        <time>1970-01-01T00:48:55.000Z</time>
      </trkpt>
      <trkpt lat="45.39377" lon="4.59437">
        <ele>993.6</ele>
        <time>1970-01-01T00:48:56.000Z</time>
      </trkpt>
      <trkpt lat="45.39379" lon="4.59441">
        <ele>994</ele>
        <time>1970-01-01T00:48:57.000Z</time>
      </trkpt>
      <trkpt lat="45.39381" lon="4.59445">
        <ele>994.4</ele>
        <time>1970-01-01T00:48:58.000Z</time>
      </trkpt>
      <trkpt lat="45.39386" lon="4.5945">
        <ele>994.4</ele>
        <time>1970-01-01T00:49:00.000Z</time>
      </trkpt>
      <trkpt lat="45.39401" lon="4.59462">
        <ele>994.4</ele>
        <time>1970-01-01T00:49:05.000Z</time>
      </trkpt>
      <trkpt lat="45.39427" lon="4.59473">
        <ele>994.4</ele>
        <time>1970-01-01T00:49:12.000Z</time>
      </trkpt>
      <trkpt lat="45.39439" lon="4.59478">
        <ele>994.4</ele>
        <time>1970-01-01T00:49:15.000Z</time>
      </trkpt>
      <trkpt lat="45.39456" lon="4.59487">
        <ele>994.4</ele>
        <time>1970-01-01T00:49:19.000Z</time>
      </trkpt>
      <trkpt lat="45.39482" lon="4.59506">
        <ele>994</ele>
        <time>1970-01-01T00:49:25.000Z</time>
      </trkpt>
      <trkpt lat="45.39486" lon="4.59509">
        <ele>993.6</ele>
        <time>1970-01-01T00:49:26.000Z</time>
      </trkpt>
      <trkpt lat="45.3949" lon="4.59511">
        <ele>993.2</ele>
        <time>1970-01-01T00:49:27.000Z</time>
      </trkpt>
      <trkpt lat="45.39494" lon="4.59514">
        <ele>992.8</ele>
        <time>1970-01-01T00:49:28.000Z</time>
      </trkpt>
      <trkpt lat="45.39499" lon="4.59516">
        <ele>992.4</ele>
        <time>1970-01-01T00:49:29.000Z</time>
      </trkpt>
      <trkpt lat="45.39503" lon="4.59519">
        <ele>992.4</ele>
        <time>1970-01-01T00:49:30.000Z</time>
      </trkpt>
      <trkpt lat="45.39507" lon="4.59521">
        <ele>992.4</ele>
        <time>1970-01-01T00:49:31.000Z</time>
      </trkpt>
      <trkpt lat="45.39531" lon="4.59531">
        <ele>992.8</ele>
        <time>1970-01-01T00:49:36.000Z</time>
      </trkpt>
      <trkpt lat="45.39535" lon="4.59532">
        <ele>993.2</ele>
        <time>1970-01-01T00:49:37.000Z</time>
      </trkpt>
      <trkpt lat="45.3954" lon="4.59534">
        <ele>993.8</ele>
        <time>1970-01-01T00:49:38.000Z</time>
      </trkpt>
      <trkpt lat="45.39544" lon="4.59535">
        <ele>994.2</ele>
        <time>1970-01-01T00:49:39.000Z</time>
      </trkpt>
      <trkpt lat="45.39549" lon="4.59537">
        <ele>994.6</ele>
        <time>1970-01-01T00:49:40.000Z</time>
      </trkpt>
      <trkpt lat="45.39558" lon="4.59541">
        <ele>995</ele>
        <time>1970-01-01T00:49:42.000Z</time>
      </trkpt>
      <trkpt lat="45.39563" lon="4.59543">
        <ele>995.4</ele>
        <time>1970-01-01T00:49:43.000Z</time>
      </trkpt>
      <trkpt lat="45.39568" lon="4.59544">
        <ele>996</ele>
        <time>1970-01-01T00:49:44.000Z</time>
      </trkpt>
      <trkpt lat="45.39572" lon="4.59545">
        <ele>996.4</ele>
        <time>1970-01-01T00:49:45.000Z</time>
      </trkpt>
      <trkpt lat="45.39576" lon="4.59545">
        <ele>996.8</ele>
        <time>1970-01-01T00:49:46.000Z</time>
      </trkpt>
      <trkpt lat="45.39581" lon="4.59546">
        <ele>997.4</ele>
        <time>1970-01-01T00:49:47.000Z</time>
      </trkpt>
      <trkpt lat="45.39585" lon="4.59547">
        <ele>997.8</ele>
        <time>1970-01-01T00:49:48.000Z</time>
      </trkpt>
      <trkpt lat="45.39589" lon="4.59548">
        <ele>998.2</ele>
        <time>1970-01-01T00:49:49.000Z</time>
      </trkpt>
      <trkpt lat="45.39594" lon="4.59548">
        <ele>998.8</ele>
        <time>1970-01-01T00:49:50.000Z</time>
      </trkpt>
      <trkpt lat="45.39598" lon="4.59549">
        <ele>999.2</ele>
        <time>1970-01-01T00:49:51.000Z</time>
      </trkpt>
      <trkpt lat="45.39602" lon="4.59549">
        <ele>999.8</ele>
        <time>1970-01-01T00:49:52.000Z</time>
      </trkpt>
      <trkpt lat="45.39606" lon="4.59549">
        <ele>1000.2</ele>
        <time>1970-01-01T00:49:53.000Z</time>
      </trkpt>
      <trkpt lat="45.3961" lon="4.59549">
        <ele>1000.6</ele>
        <time>1970-01-01T00:49:54.000Z</time>
      </trkpt>
      <trkpt lat="45.39614" lon="4.5955">
        <ele>1001.4</ele>
        <time>1970-01-01T00:49:55.000Z</time>
      </trkpt>
      <trkpt lat="45.39625" lon="4.59555">
        <ele>1002</ele>
        <time>1970-01-01T00:49:58.000Z</time>
      </trkpt>
      <trkpt lat="45.39629" lon="4.59557">
        <ele>1002.4</ele>
        <time>1970-01-01T00:49:59.000Z</time>
      </trkpt>
      <trkpt lat="45.39633" lon="4.59559">
        <ele>1002.8</ele>
        <time>1970-01-01T00:50:00.000Z</time>
      </trkpt>
      <trkpt lat="45.39637" lon="4.59562">
        <ele>1003.2</ele>
        <time>1970-01-01T00:50:01.000Z</time>
      </trkpt>
      <trkpt lat="45.3964" lon="4.59565">
        <ele>1003.6</ele>
        <time>1970-01-01T00:50:02.000Z</time>
      </trkpt>
      <trkpt lat="45.39647" lon="4.59572">
        <ele>1003.6</ele>
        <time>1970-01-01T00:50:04.000Z</time>
      </trkpt>
      <trkpt lat="45.3965" lon="4.59576">
        <ele>1003.6</ele>
        <time>1970-01-01T00:50:05.000Z</time>
      </trkpt>
      <trkpt lat="45.39662" lon="4.59594">
        <ele>1003.6</ele>
        <time>1970-01-01T00:50:09.000Z</time>
      </trkpt>
      <trkpt lat="45.3968" lon="4.59624">
        <ele>1003.6</ele>
        <time>1970-01-01T00:50:16.000Z</time>
      </trkpt>
      <trkpt lat="45.39704" lon="4.59662">
        <ele>1003.6</ele>
        <time>1970-01-01T00:50:24.000Z</time>
      </trkpt>
      <trkpt lat="45.39707" lon="4.59666">
        <ele>1003.6</ele>
        <time>1970-01-01T00:50:25.000Z</time>
      </trkpt>
      <trkpt lat="45.39714" lon="4.5968">
        <ele>1003.6</ele>
        <time>1970-01-01T00:50:28.000Z</time>
      </trkpt>
      <trkpt lat="45.39727" lon="4.59704">
        <ele>1003.6</ele>
        <time>1970-01-01T00:50:34.000Z</time>
      </trkpt>
      <trkpt lat="45.39735" lon="4.59722">
        <ele>1004</ele>
        <time>1970-01-01T00:50:39.000Z</time>
      </trkpt>
      <trkpt lat="45.39737" lon="4.59725">
        <ele>1004.4</ele>
        <time>1970-01-01T00:50:40.000Z</time>
      </trkpt>
      <trkpt lat="45.39739" lon="4.59729">
        <ele>1004.8</ele>
        <time>1970-01-01T00:50:41.000Z</time>
      </trkpt>
      <trkpt lat="45.39741" lon="4.59733">
        <ele>1005.2</ele>
        <time>1970-01-01T00:50:42.000Z</time>
      </trkpt>
      <trkpt lat="45.39743" lon="4.59737">
        <ele>1005.6</ele>
        <time>1970-01-01T00:50:43.000Z</time>
      </trkpt>
      <trkpt lat="45.39748" lon="4.59744">
        <ele>1005.6</ele>
        <time>1970-01-01T00:50:45.000Z</time>
      </trkpt>
      <trkpt lat="45.39758" lon="4.59769">
        <ele>1006</ele>
        <time>1970-01-01T00:50:51.000Z</time>
      </trkpt>
      <trkpt lat="45.3976" lon="4.59772">
        <ele>1006.4</ele>
        <time>1970-01-01T00:50:52.000Z</time>
      </trkpt>
      <trkpt lat="45.39761" lon="4.59776">
        <ele>1007</ele>
        <time>1970-01-01T00:50:53.000Z</time>
      </trkpt>
      <trkpt lat="45.39763" lon="4.59781">
        <ele>1007.4</ele>
        <time>1970-01-01T00:50:54.000Z</time>
      </trkpt>
      <trkpt lat="45.39764" lon="4.59786">
        <ele>1007.8</ele>
        <time>1970-01-01T00:50:55.000Z</time>
      </trkpt>
      <trkpt lat="45.39772" lon="4.59807">
        <ele>1008.2</ele>
        <time>1970-01-01T00:51:00.000Z</time>
      </trkpt>
      <trkpt lat="45.39774" lon="4.59811">
        <ele>1008.6</ele>
        <time>1970-01-01T00:51:01.000Z</time>
      </trkpt>
      <trkpt lat="45.39775" lon="4.59816">
        <ele>1009</ele>
        <time>1970-01-01T00:51:02.000Z</time>
      </trkpt>
      <trkpt lat="45.39777" lon="4.59821">
        <ele>1009.4</ele>
        <time>1970-01-01T00:51:03.000Z</time>
      </trkpt>
      <trkpt lat="45.39778" lon="4.59826">
        <ele>1010</ele>
        <time>1970-01-01T00:51:04.000Z</time>
      </trkpt>
      <trkpt lat="45.39781" lon="4.59836">
        <ele>1010</ele>
        <time>1970-01-01T00:51:06.000Z</time>
      </trkpt>
      <trkpt lat="45.39788" lon="4.59854">
        <ele>1010</ele>
        <time>1970-01-01T00:51:10.000Z</time>
      </trkpt>
      <trkpt lat="45.39791" lon="4.59878">
        <ele>1010</ele>
        <time>1970-01-01T00:51:15.000Z</time>
      </trkpt>
      <trkpt lat="45.3979" lon="4.59885">
        <ele>1010</ele>
        <time>1970-01-01T00:51:16.000Z</time>
      </trkpt>
      <trkpt lat="45.39789" lon="4.59892">
        <ele>1010</ele>
        <time>1970-01-01T00:51:17.000Z</time>
      </trkpt>
      <trkpt lat="45.39782" lon="4.59907">
        <ele>1010</ele>
        <time>1970-01-01T00:51:20.000Z</time>
      </trkpt>
      <trkpt lat="45.39776" lon="4.59914">
        <ele>1010</ele>
        <time>1970-01-01T00:51:22.000Z</time>
      </trkpt>
      <trkpt lat="45.3977" lon="4.59921">
        <ele>1010</ele>
        <time>1970-01-01T00:51:24.000Z</time>
      </trkpt>
      <trkpt lat="45.39763" lon="4.59929">
        <ele>1010</ele>
        <time>1970-01-01T00:51:26.000Z</time>
      </trkpt>
      <trkpt lat="45.3975" lon="4.59943">
        <ele>1010</ele>
        <time>1970-01-01T00:51:30.000Z</time>
      </trkpt>
      <trkpt lat="45.39747" lon="4.59947">
        <ele>1010</ele>
        <time>1970-01-01T00:51:31.000Z</time>
      </trkpt>
      <trkpt lat="45.39736" lon="4.5996">
        <ele>1010</ele>
        <time>1970-01-01T00:51:34.000Z</time>
      </trkpt>
      <trkpt lat="45.39711" lon="4.59989">
        <ele>1010</ele>
        <time>1970-01-01T00:51:40.000Z</time>
      </trkpt>
      <trkpt lat="45.39689" lon="4.60018">
        <ele>1010</ele>
        <time>1970-01-01T00:51:47.000Z</time>
      </trkpt>
      <trkpt lat="45.39685" lon="4.60022">
        <ele>1010</ele>
        <time>1970-01-01T00:51:48.000Z</time>
      </trkpt>
      <trkpt lat="45.39675" lon="4.60029">
        <ele>1010</ele>
        <time>1970-01-01T00:51:51.000Z</time>
      </trkpt>
      <trkpt lat="45.39665" lon="4.60051">
        <ele>1010</ele>
        <time>1970-01-01T00:51:56.000Z</time>
      </trkpt>
      <trkpt lat="45.39651" lon="4.60086">
        <ele>1010</ele>
        <time>1970-01-01T00:52:03.000Z</time>
      </trkpt>
      <trkpt lat="45.39641" lon="4.60109">
        <ele>1010</ele>
        <time>1970-01-01T00:52:08.000Z</time>
      </trkpt>
      <trkpt lat="45.39634" lon="4.60126">
        <ele>1009.4</ele>
        <time>1970-01-01T00:52:12.000Z</time>
      </trkpt>
      <trkpt lat="45.39632" lon="4.6013">
        <ele>1009</ele>
        <time>1970-01-01T00:52:13.000Z</time>
      </trkpt>
      <trkpt lat="45.39631" lon="4.60134">
        <ele>1008.6</ele>
        <time>1970-01-01T00:52:14.000Z</time>
      </trkpt>
      <trkpt lat="45.3963" lon="4.60139">
        <ele>1008</ele>
        <time>1970-01-01T00:52:15.000Z</time>
      </trkpt>
      <trkpt lat="45.39629" lon="4.60144">
        <ele>1007.6</ele>
        <time>1970-01-01T00:52:16.000Z</time>
      </trkpt>
      <trkpt lat="45.39625" lon="4.60158">
        <ele>1007.6</ele>
        <time>1970-01-01T00:52:19.000Z</time>
      </trkpt>
      <trkpt lat="45.39621" lon="4.60177">
        <ele>1007.6</ele>
        <time>1970-01-01T00:52:23.000Z</time>
      </trkpt>
      <trkpt lat="45.39619" lon="4.60182">
        <ele>1007.2</ele>
        <time>1970-01-01T00:52:24.000Z</time>
      </trkpt>
      <trkpt lat="45.39618" lon="4.60188">
        <ele>1006.6</ele>
        <time>1970-01-01T00:52:25.000Z</time>
      </trkpt>
      <trkpt lat="45.39617" lon="4.60192">
        <ele>1006.2</ele>
        <time>1970-01-01T00:52:26.000Z</time>
      </trkpt>
      <trkpt lat="45.39616" lon="4.60197">
        <ele>1005.8</ele>
        <time>1970-01-01T00:52:27.000Z</time>
      </trkpt>
      <trkpt lat="45.39615" lon="4.60202">
        <ele>1005.4</ele>
        <time>1970-01-01T00:52:28.000Z</time>
      </trkpt>
      <trkpt lat="45.39611" lon="4.60233">
        <ele>1005.4</ele>
        <time>1970-01-01T00:52:34.000Z</time>
      </trkpt>
      <trkpt lat="45.3961" lon="4.60239">
        <ele>1005.4</ele>
        <time>1970-01-01T00:52:35.000Z</time>
      </trkpt>
      <trkpt lat="45.39606" lon="4.6025">
        <ele>1005</ele>
        <time>1970-01-01T00:52:37.000Z</time>
      </trkpt>
      <trkpt lat="45.39605" lon="4.60256">
        <ele>1004.4</ele>
        <time>1970-01-01T00:52:38.000Z</time>
      </trkpt>
      <trkpt lat="45.39603" lon="4.60262">
        <ele>1004</ele>
        <time>1970-01-01T00:52:39.000Z</time>
      </trkpt>
      <trkpt lat="45.39601" lon="4.60269">
        <ele>1003.6</ele>
        <time>1970-01-01T00:52:40.000Z</time>
      </trkpt>
      <trkpt lat="45.39599" lon="4.60276">
        <ele>1003.2</ele>
        <time>1970-01-01T00:52:41.000Z</time>
      </trkpt>
      <trkpt lat="45.39592" lon="4.60294">
        <ele>1003.2</ele>
        <time>1970-01-01T00:52:44.000Z</time>
      </trkpt>
      <trkpt lat="45.39589" lon="4.60301">
        <ele>1002.8</ele>
        <time>1970-01-01T00:52:45.000Z</time>
      </trkpt>
      <trkpt lat="45.39587" lon="4.60308">
        <ele>1002.4</ele>
        <time>1970-01-01T00:52:46.000Z</time>
      </trkpt>
      <trkpt lat="45.39586" lon="4.60315">
        <ele>1002</ele>
        <time>1970-01-01T00:52:47.000Z</time>
      </trkpt>
      <trkpt lat="45.39584" lon="4.60322">
        <ele>1001.2</ele>
        <time>1970-01-01T00:52:48.000Z</time>
      </trkpt>
      <trkpt lat="45.39583" lon="4.60328">
        <ele>1001.2</ele>
        <time>1970-01-01T00:52:49.000Z</time>
      </trkpt>
      <trkpt lat="45.39579" lon="4.60359">
        <ele>1001.2</ele>
        <time>1970-01-01T00:52:54.000Z</time>
      </trkpt>
      <trkpt lat="45.3958" lon="4.6037">
        <ele>1001.2</ele>
        <time>1970-01-01T00:52:56.000Z</time>
      </trkpt>
      <trkpt lat="45.39582" lon="4.60381">
        <ele>1001.2</ele>
        <time>1970-01-01T00:52:58.000Z</time>
      </trkpt>
      <trkpt lat="45.39586" lon="4.6039">
        <ele>1001.2</ele>
        <time>1970-01-01T00:53:00.000Z</time>
      </trkpt>
      <trkpt lat="45.39589" lon="4.60395">
        <ele>1000.8</ele>
        <time>1970-01-01T00:53:01.000Z</time>
      </trkpt>
      <trkpt lat="45.39591" lon="4.604">
        <ele>1000.4</ele>
        <time>1970-01-01T00:53:02.000Z</time>
      </trkpt>
      <trkpt lat="45.39594" lon="4.60404">
        <ele>1000</ele>
        <time>1970-01-01T00:53:03.000Z</time>
      </trkpt>
      <trkpt lat="45.39597" lon="4.60407">
        <ele>999.6</ele>
        <time>1970-01-01T00:53:04.000Z</time>
      </trkpt>
      <trkpt lat="45.39601" lon="4.60411">
        <ele>999</ele>
        <time>1970-01-01T00:53:05.000Z</time>
      </trkpt>
      <trkpt lat="45.3961" lon="4.60418">
        <ele>999</ele>
        <time>1970-01-01T00:53:07.000Z</time>
      </trkpt>
      <trkpt lat="45.39614" lon="4.60422">
        <ele>999</ele>
        <time>1970-01-01T00:53:08.000Z</time>
      </trkpt>
      <trkpt lat="45.39634" lon="4.60433">
        <ele>999</ele>
        <time>1970-01-01T00:53:12.000Z</time>
      </trkpt>
      <trkpt lat="45.39639" lon="4.60436">
        <ele>999</ele>
        <time>1970-01-01T00:53:13.000Z</time>
      </trkpt>
      <trkpt lat="45.39649" lon="4.60444">
        <ele>998.6</ele>
        <time>1970-01-01T00:53:15.000Z</time>
      </trkpt>
      <trkpt lat="45.39654" lon="4.60447">
        <ele>998.2</ele>
        <time>1970-01-01T00:53:16.000Z</time>
      </trkpt>
      <trkpt lat="45.39659" lon="4.6045">
        <ele>997.8</ele>
        <time>1970-01-01T00:53:17.000Z</time>
      </trkpt>
      <trkpt lat="45.39664" lon="4.60453">
        <ele>997.4</ele>
        <time>1970-01-01T00:53:18.000Z</time>
      </trkpt>
      <trkpt lat="45.39667" lon="4.60455">
        <ele>997</ele>
        <time>1970-01-01T00:53:19.000Z</time>
      </trkpt>
      <trkpt lat="45.39681" lon="4.60464">
        <ele>997</ele>
        <time>1970-01-01T00:53:23.000Z</time>
      </trkpt>
      <trkpt lat="45.39703" lon="4.60477">
        <ele>997</ele>
        <time>1970-01-01T00:53:29.000Z</time>
      </trkpt>
      <trkpt lat="45.39706" lon="4.60481">
        <ele>996.6</ele>
        <time>1970-01-01T00:53:30.000Z</time>
      </trkpt>
      <trkpt lat="45.39708" lon="4.60487">
        <ele>996.2</ele>
        <time>1970-01-01T00:53:31.000Z</time>
      </trkpt>
      <trkpt lat="45.39709" lon="4.60492">
        <ele>995.8</ele>
        <time>1970-01-01T00:53:32.000Z</time>
      </trkpt>
      <trkpt lat="45.39709" lon="4.60496">
        <ele>995.4</ele>
        <time>1970-01-01T00:53:33.000Z</time>
      </trkpt>
      <trkpt lat="45.39708" lon="4.60501">
        <ele>995</ele>
        <time>1970-01-01T00:53:34.000Z</time>
      </trkpt>
      <trkpt lat="45.39704" lon="4.60516">
        <ele>994.4</ele>
        <time>1970-01-01T00:53:37.000Z</time>
      </trkpt>
      <trkpt lat="45.39703" lon="4.60522">
        <ele>994</ele>
        <time>1970-01-01T00:53:38.000Z</time>
      </trkpt>
      <trkpt lat="45.39702" lon="4.60528">
        <ele>993.6</ele>
        <time>1970-01-01T00:53:39.000Z</time>
      </trkpt>
      <trkpt lat="45.39701" lon="4.60535">
        <ele>993.2</ele>
        <time>1970-01-01T00:53:40.000Z</time>
      </trkpt>
      <trkpt lat="45.397" lon="4.60542">
        <ele>992.6</ele>
        <time>1970-01-01T00:53:41.000Z</time>
      </trkpt>
      <trkpt lat="45.397" lon="4.6055">
        <ele>992.6</ele>
        <time>1970-01-01T00:53:42.000Z</time>
      </trkpt>
      <trkpt lat="45.39699" lon="4.60557">
        <ele>992.2</ele>
        <time>1970-01-01T00:53:43.000Z</time>
      </trkpt>
      <trkpt lat="45.397" lon="4.60565">
        <ele>991.8</ele>
        <time>1970-01-01T00:53:44.000Z</time>
      </trkpt>
      <trkpt lat="45.39699" lon="4.60573">
        <ele>991.2</ele>
        <time>1970-01-01T00:53:45.000Z</time>
      </trkpt>
      <trkpt lat="45.39699" lon="4.6058">
        <ele>990.8</ele>
        <time>1970-01-01T00:53:46.000Z</time>
      </trkpt>
      <trkpt lat="45.39698" lon="4.60587">
        <ele>990.4</ele>
        <time>1970-01-01T00:53:47.000Z</time>
      </trkpt>
      <trkpt lat="45.39699" lon="4.60593">
        <ele>989.8</ele>
        <time>1970-01-01T00:53:48.000Z</time>
      </trkpt>
      <trkpt lat="45.39699" lon="4.606">
        <ele>989.4</ele>
        <time>1970-01-01T00:53:49.000Z</time>
      </trkpt>
      <trkpt lat="45.39699" lon="4.60605">
        <ele>989</ele>
        <time>1970-01-01T00:53:50.000Z</time>
      </trkpt>
      <trkpt lat="45.39698" lon="4.60611">
        <ele>988.4</ele>
        <time>1970-01-01T00:53:51.000Z</time>
      </trkpt>
      <trkpt lat="45.39699" lon="4.60617">
        <ele>988</ele>
        <time>1970-01-01T00:53:52.000Z</time>
      </trkpt>
      <trkpt lat="45.39698" lon="4.60629">
        <ele>988</ele>
        <time>1970-01-01T00:53:54.000Z</time>
      </trkpt>
      <trkpt lat="45.39697" lon="4.60639">
        <ele>987.6</ele>
        <time>1970-01-01T00:53:56.000Z</time>
      </trkpt>
      <trkpt lat="45.39696" lon="4.60645">
        <ele>987.2</ele>
        <time>1970-01-01T00:53:57.000Z</time>
      </trkpt>
      <trkpt lat="45.39696" lon="4.6065">
        <ele>986.6</ele>
        <time>1970-01-01T00:53:58.000Z</time>
      </trkpt>
      <trkpt lat="45.39696" lon="4.60656">
        <ele>986.2</ele>
        <time>1970-01-01T00:53:59.000Z</time>
      </trkpt>
      <trkpt lat="45.39695" lon="4.60662">
        <ele>985.8</ele>
        <time>1970-01-01T00:54:00.000Z</time>
      </trkpt>
      <trkpt lat="45.39695" lon="4.60669">
        <ele>985.8</ele>
        <time>1970-01-01T00:54:01.000Z</time>
      </trkpt>
      <trkpt lat="45.39694" lon="4.60695">
        <ele>985.8</ele>
        <time>1970-01-01T00:54:05.000Z</time>
      </trkpt>
      <trkpt lat="45.39696" lon="4.60709">
        <ele>985.8</ele>
        <time>1970-01-01T00:54:07.000Z</time>
      </trkpt>
      <trkpt lat="45.39697" lon="4.60716">
        <ele>985.4</ele>
        <time>1970-01-01T00:54:08.000Z</time>
      </trkpt>
      <trkpt lat="45.39698" lon="4.60722">
        <ele>985</ele>
        <time>1970-01-01T00:54:09.000Z</time>
      </trkpt>
      <trkpt lat="45.39698" lon="4.60729">
        <ele>984.6</ele>
        <time>1970-01-01T00:54:10.000Z</time>
      </trkpt>
      <trkpt lat="45.39699" lon="4.60735">
        <ele>984.2</ele>
        <time>1970-01-01T00:54:11.000Z</time>
      </trkpt>
      <trkpt lat="45.39699" lon="4.60742">
        <ele>983.6</ele>
        <time>1970-01-01T00:54:12.000Z</time>
      </trkpt>
      <trkpt lat="45.39699" lon="4.60747">
        <ele>983.6</ele>
        <time>1970-01-01T00:54:13.000Z</time>
      </trkpt>
      <trkpt lat="45.39701" lon="4.60767">
        <ele>983.2</ele>
        <time>1970-01-01T00:54:16.000Z</time>
      </trkpt>
      <trkpt lat="45.39701" lon="4.60774">
        <ele>982.8</ele>
        <time>1970-01-01T00:54:17.000Z</time>
      </trkpt>
      <trkpt lat="45.39702" lon="4.60781">
        <ele>982.4</ele>
        <time>1970-01-01T00:54:18.000Z</time>
      </trkpt>
      <trkpt lat="45.39703" lon="4.60787">
        <ele>982</ele>
        <time>1970-01-01T00:54:19.000Z</time>
      </trkpt>
      <trkpt lat="45.39704" lon="4.60794">
        <ele>981.6</ele>
        <time>1970-01-01T00:54:20.000Z</time>
      </trkpt>
      <trkpt lat="45.39711" lon="4.60806">
        <ele>981.6</ele>
        <time>1970-01-01T00:54:23.000Z</time>
      </trkpt>
      <trkpt lat="45.39716" lon="4.60811">
        <ele>981.6</ele>
        <time>1970-01-01T00:54:25.000Z</time>
      </trkpt>
      <trkpt lat="45.39723" lon="4.60816">
        <ele>981.6</ele>
        <time>1970-01-01T00:54:28.000Z</time>
      </trkpt>
      <trkpt lat="45.39736" lon="4.60824">
        <ele>981.6</ele>
        <time>1970-01-01T00:54:33.000Z</time>
      </trkpt>
      <trkpt lat="45.39757" lon="4.60834">
        <ele>981.6</ele>
        <time>1970-01-01T00:54:40.000Z</time>
      </trkpt>
      <trkpt lat="45.39775" lon="4.60842">
        <ele>981.6</ele>
        <time>1970-01-01T00:54:46.000Z</time>
      </trkpt>
      <trkpt lat="45.39783" lon="4.60845">
        <ele>982.2</ele>
        <time>1970-01-01T00:54:49.000Z</time>
      </trkpt>
      <trkpt lat="45.39786" lon="4.60846">
        <ele>982.6</ele>
        <time>1970-01-01T00:54:50.000Z</time>
      </trkpt>
      <trkpt lat="45.39789" lon="4.60847">
        <ele>983.4</ele>
        <time>1970-01-01T00:54:51.000Z</time>
      </trkpt>
      <trkpt lat="45.39792" lon="4.60849">
        <ele>983.8</ele>
        <time>1970-01-01T00:54:52.000Z</time>
      </trkpt>
      <trkpt lat="45.39808" lon="4.60852">
        <ele>983.8</ele>
        <time>1970-01-01T00:54:57.000Z</time>
      </trkpt>
      <trkpt lat="45.39822" lon="4.60854">
        <ele>983.8</ele>
        <time>1970-01-01T00:55:02.000Z</time>
      </trkpt>
      <trkpt lat="45.39825" lon="4.60854">
        <ele>984.2</ele>
        <time>1970-01-01T00:55:03.000Z</time>
      </trkpt>
      <trkpt lat="45.39828" lon="4.60855">
        <ele>984.6</ele>
        <time>1970-01-01T00:55:04.000Z</time>
      </trkpt>
      <trkpt lat="45.39831" lon="4.60855">
        <ele>985</ele>
        <time>1970-01-01T00:55:05.000Z</time>
      </trkpt>
      <trkpt lat="45.39834" lon="4.60855">
        <ele>985.4</ele>
        <time>1970-01-01T00:55:06.000Z</time>
      </trkpt>
      <trkpt lat="45.39837" lon="4.60856">
        <ele>985.8</ele>
        <time>1970-01-01T00:55:07.000Z</time>
      </trkpt>
      <trkpt lat="45.39846" lon="4.60857">
        <ele>985.8</ele>
        <time>1970-01-01T00:55:10.000Z</time>
      </trkpt>
      <trkpt lat="45.39855" lon="4.60858">
        <ele>986.2</ele>
        <time>1970-01-01T00:55:13.000Z</time>
      </trkpt>
      <trkpt lat="45.39858" lon="4.60859">
        <ele>986.8</ele>
        <time>1970-01-01T00:55:14.000Z</time>
      </trkpt>
      <trkpt lat="45.39861" lon="4.60859">
        <ele>987.2</ele>
        <time>1970-01-01T00:55:15.000Z</time>
      </trkpt>
      <trkpt lat="45.39865" lon="4.60859">
        <ele>988</ele>
        <time>1970-01-01T00:55:16.000Z</time>
      </trkpt>
      <trkpt lat="45.39868" lon="4.60859">
        <ele>988</ele>
        <time>1970-01-01T00:55:17.000Z</time>
      </trkpt>
      <trkpt lat="45.39888" lon="4.60861">
        <ele>988</ele>
        <time>1970-01-01T00:55:23.000Z</time>
      </trkpt>
      <trkpt lat="45.3991" lon="4.60863">
        <ele>988</ele>
        <time>1970-01-01T00:55:30.000Z</time>
      </trkpt>
      <trkpt lat="45.39922" lon="4.60863">
        <ele>988.4</ele>
        <time>1970-01-01T00:55:34.000Z</time>
      </trkpt>
      <trkpt lat="45.39925" lon="4.60863">
        <ele>988.8</ele>
        <time>1970-01-01T00:55:35.000Z</time>
      </trkpt>
      <trkpt lat="45.39928" lon="4.60863">
        <ele>989.2</ele>
        <time>1970-01-01T00:55:36.000Z</time>
      </trkpt>
      <trkpt lat="45.39932" lon="4.60863">
        <ele>989.6</ele>
        <time>1970-01-01T00:55:37.000Z</time>
      </trkpt>
      <trkpt lat="45.39935" lon="4.60861">
        <ele>990</ele>
        <time>1970-01-01T00:55:38.000Z</time>
      </trkpt>
      <trkpt lat="45.39951" lon="4.60858">
        <ele>990</ele>
        <time>1970-01-01T00:55:43.000Z</time>
      </trkpt>
      <trkpt lat="45.39973" lon="4.6085">
        <ele>990</ele>
        <time>1970-01-01T00:55:50.000Z</time>
      </trkpt>
      <trkpt lat="45.39996" lon="4.60843">
        <ele>990</ele>
        <time>1970-01-01T00:55:57.000Z</time>
      </trkpt>
      <trkpt lat="45.39999" lon="4.60842">
        <ele>990.4</ele>
        <time>1970-01-01T00:55:58.000Z</time>
      </trkpt>
      <trkpt lat="45.40002" lon="4.60841">
        <ele>990.8</ele>
        <time>1970-01-01T00:55:59.000Z</time>
      </trkpt>
      <trkpt lat="45.40005" lon="4.6084">
        <ele>991.2</ele>
        <time>1970-01-01T00:56:00.000Z</time>
      </trkpt>
      <trkpt lat="45.40008" lon="4.60839">
        <ele>991.6</ele>
        <time>1970-01-01T00:56:01.000Z</time>
      </trkpt>
      <trkpt lat="45.40012" lon="4.60837">
        <ele>992</ele>
        <time>1970-01-01T00:56:02.000Z</time>
      </trkpt>
      <trkpt lat="45.40018" lon="4.60835">
        <ele>992</ele>
        <time>1970-01-01T00:56:04.000Z</time>
      </trkpt>
      <trkpt lat="45.40045" lon="4.60823">
        <ele>992</ele>
        <time>1970-01-01T00:56:12.000Z</time>
      </trkpt>
      <trkpt lat="45.40056" lon="4.60819">
        <ele>991.6</ele>
        <time>1970-01-01T00:56:15.000Z</time>
      </trkpt>
      <trkpt lat="45.4006" lon="4.60817">
        <ele>991.2</ele>
        <time>1970-01-01T00:56:16.000Z</time>
      </trkpt>
      <trkpt lat="45.40064" lon="4.60816">
        <ele>990.8</ele>
        <time>1970-01-01T00:56:17.000Z</time>
      </trkpt>
      <trkpt lat="45.40067" lon="4.60814">
        <ele>990.4</ele>
        <time>1970-01-01T00:56:18.000Z</time>
      </trkpt>
      <trkpt lat="45.40071" lon="4.60813">
        <ele>990</ele>
        <time>1970-01-01T00:56:19.000Z</time>
      </trkpt>
      <trkpt lat="45.40075" lon="4.60812">
        <ele>989.6</ele>
        <time>1970-01-01T00:56:20.000Z</time>
      </trkpt>
      <trkpt lat="45.4008" lon="4.6081">
        <ele>989.2</ele>
        <time>1970-01-01T00:56:21.000Z</time>
      </trkpt>
      <trkpt lat="45.40085" lon="4.60809">
        <ele>988.6</ele>
        <time>1970-01-01T00:56:22.000Z</time>
      </trkpt>
      <trkpt lat="45.4009" lon="4.60809">
        <ele>988.2</ele>
        <time>1970-01-01T00:56:23.000Z</time>
      </trkpt>
      <trkpt lat="45.40094" lon="4.60809">
        <ele>987.8</ele>
        <time>1970-01-01T00:56:24.000Z</time>
      </trkpt>
      <trkpt lat="45.40108" lon="4.6081">
        <ele>987.8</ele>
        <time>1970-01-01T00:56:27.000Z</time>
      </trkpt>
      <trkpt lat="45.40117" lon="4.60813">
        <ele>987.2</ele>
        <time>1970-01-01T00:56:29.000Z</time>
      </trkpt>
      <trkpt lat="45.40122" lon="4.60816">
        <ele>986</ele>
        <time>1970-01-01T00:56:30.000Z</time>
      </trkpt>
      <trkpt lat="45.40126" lon="4.60818">
        <ele>985.4</ele>
        <time>1970-01-01T00:56:31.000Z</time>
      </trkpt>
      <trkpt lat="45.40131" lon="4.6082">
        <ele>984.8</ele>
        <time>1970-01-01T00:56:32.000Z</time>
      </trkpt>
      <trkpt lat="45.40137" lon="4.60822">
        <ele>984.4</ele>
        <time>1970-01-01T00:56:33.000Z</time>
      </trkpt>
      <trkpt lat="45.40143" lon="4.60823">
        <ele>984</ele>
        <time>1970-01-01T00:56:34.000Z</time>
      </trkpt>
      <trkpt lat="45.4015" lon="4.60824">
        <ele>983.6</ele>
        <time>1970-01-01T00:56:35.000Z</time>
      </trkpt>
      <trkpt lat="45.40156" lon="4.60824">
        <ele>983.2</ele>
        <time>1970-01-01T00:56:36.000Z</time>
      </trkpt>
      <trkpt lat="45.40162" lon="4.60825">
        <ele>982.8</ele>
        <time>1970-01-01T00:56:37.000Z</time>
      </trkpt>
      <trkpt lat="45.40175" lon="4.60826">
        <ele>982.8</ele>
        <time>1970-01-01T00:56:39.000Z</time>
      </trkpt>
      <trkpt lat="45.4018" lon="4.60826">
        <ele>982.4</ele>
        <time>1970-01-01T00:56:40.000Z</time>
      </trkpt>
      <trkpt lat="45.40187" lon="4.60826">
        <ele>982</ele>
        <time>1970-01-01T00:56:41.000Z</time>
      </trkpt>
      <trkpt lat="45.40193" lon="4.60825">
        <ele>981.2</ele>
        <time>1970-01-01T00:56:42.000Z</time>
      </trkpt>
      <trkpt lat="45.402" lon="4.60825">
        <ele>980.4</ele>
        <time>1970-01-01T00:56:43.000Z</time>
      </trkpt>
      <trkpt lat="45.40207" lon="4.60826">
        <ele>979.6</ele>
        <time>1970-01-01T00:56:44.000Z</time>
      </trkpt>
      <trkpt lat="45.40214" lon="4.60826">
        <ele>978.8</ele>
        <time>1970-01-01T00:56:45.000Z</time>
      </trkpt>
      <trkpt lat="45.40222" lon="4.60826">
        <ele>978</ele>
        <time>1970-01-01T00:56:46.000Z</time>
      </trkpt>
      <trkpt lat="45.40243" lon="4.60824">
        <ele>977.4</ele>
        <time>1970-01-01T00:56:49.000Z</time>
      </trkpt>
      <trkpt lat="45.4025" lon="4.60824">
        <ele>977</ele>
        <time>1970-01-01T00:56:50.000Z</time>
      </trkpt>
      <trkpt lat="45.40256" lon="4.60822">
        <ele>976.6</ele>
        <time>1970-01-01T00:56:51.000Z</time>
      </trkpt>
      <trkpt lat="45.40263" lon="4.60821">
        <ele>976</ele>
        <time>1970-01-01T00:56:52.000Z</time>
      </trkpt>
      <trkpt lat="45.40271" lon="4.60819">
        <ele>975.4</ele>
        <time>1970-01-01T00:56:53.000Z</time>
      </trkpt>
      <trkpt lat="45.40278" lon="4.60818">
        <ele>974.8</ele>
        <time>1970-01-01T00:56:54.000Z</time>
      </trkpt>
      <trkpt lat="45.40284" lon="4.60817">
        <ele>973.6</ele>
        <time>1970-01-01T00:56:55.000Z</time>
      </trkpt>
      <trkpt lat="45.4029" lon="4.60816">
        <ele>973</ele>
        <time>1970-01-01T00:56:56.000Z</time>
      </trkpt>
      <trkpt lat="45.40297" lon="4.60815">
        <ele>972.6</ele>
        <time>1970-01-01T00:56:57.000Z</time>
      </trkpt>
      <trkpt lat="45.40304" lon="4.60813">
        <ele>972</ele>
        <time>1970-01-01T00:56:58.000Z</time>
      </trkpt>
      <trkpt lat="45.40311" lon="4.60811">
        <ele>971.4</ele>
        <time>1970-01-01T00:56:59.000Z</time>
      </trkpt>
      <trkpt lat="45.40319" lon="4.60809">
        <ele>971</ele>
        <time>1970-01-01T00:57:00.000Z</time>
      </trkpt>
      <trkpt lat="45.40339" lon="4.60803">
        <ele>970.4</ele>
        <time>1970-01-01T00:57:03.000Z</time>
      </trkpt>
      <trkpt lat="45.40345" lon="4.60802">
        <ele>970</ele>
        <time>1970-01-01T00:57:04.000Z</time>
      </trkpt>
      <trkpt lat="45.40351" lon="4.608">
        <ele>969.6</ele>
        <time>1970-01-01T00:57:05.000Z</time>
      </trkpt>
      <trkpt lat="45.40357" lon="4.60798">
        <ele>969</ele>
        <time>1970-01-01T00:57:06.000Z</time>
      </trkpt>
      <trkpt lat="45.40363" lon="4.60796">
        <ele>968.6</ele>
        <time>1970-01-01T00:57:07.000Z</time>
      </trkpt>
      <trkpt lat="45.40377" lon="4.60792">
        <ele>968.6</ele>
        <time>1970-01-01T00:57:09.000Z</time>
      </trkpt>
      <trkpt lat="45.40401" lon="4.60782">
        <ele>968.2</ele>
        <time>1970-01-01T00:57:13.000Z</time>
      </trkpt>
      <trkpt lat="45.40406" lon="4.6078">
        <ele>967.8</ele>
        <time>1970-01-01T00:57:14.000Z</time>
      </trkpt>
      <trkpt lat="45.40412" lon="4.60778">
        <ele>967.4</ele>
        <time>1970-01-01T00:57:15.000Z</time>
      </trkpt>
      <trkpt lat="45.40417" lon="4.60777">
        <ele>967</ele>
        <time>1970-01-01T00:57:16.000Z</time>
      </trkpt>
      <trkpt lat="45.40423" lon="4.60776">
        <ele>966.6</ele>
        <time>1970-01-01T00:57:17.000Z</time>
      </trkpt>
      <trkpt lat="45.40436" lon="4.60775">
        <ele>966.6</ele>
        <time>1970-01-01T00:57:20.000Z</time>
      </trkpt>
      <trkpt lat="45.40458" lon="4.60772">
        <ele>966.2</ele>
        <time>1970-01-01T00:57:25.000Z</time>
      </trkpt>
      <trkpt lat="45.40462" lon="4.60771">
        <ele>965.8</ele>
        <time>1970-01-01T00:57:26.000Z</time>
      </trkpt>
      <trkpt lat="45.40467" lon="4.60771">
        <ele>965.4</ele>
        <time>1970-01-01T00:57:27.000Z</time>
      </trkpt>
      <trkpt lat="45.40472" lon="4.6077">
        <ele>965</ele>
        <time>1970-01-01T00:57:28.000Z</time>
      </trkpt>
      <trkpt lat="45.40476" lon="4.60769">
        <ele>964.6</ele>
        <time>1970-01-01T00:57:29.000Z</time>
      </trkpt>
      <trkpt lat="45.40498" lon="4.60767">
        <ele>964</ele>
        <time>1970-01-01T00:57:33.000Z</time>
      </trkpt>
      <trkpt lat="45.40504" lon="4.60767">
        <ele>963.6</ele>
        <time>1970-01-01T00:57:34.000Z</time>
      </trkpt>
      <trkpt lat="45.4051" lon="4.60767">
        <ele>963.2</ele>
        <time>1970-01-01T00:57:35.000Z</time>
      </trkpt>
      <trkpt lat="45.40517" lon="4.60768">
        <ele>962.8</ele>
        <time>1970-01-01T00:57:36.000Z</time>
      </trkpt>
      <trkpt lat="45.40525" lon="4.60768">
        <ele>962.4</ele>
        <time>1970-01-01T00:57:37.000Z</time>
      </trkpt>
      <trkpt lat="45.40531" lon="4.60769">
        <ele>961.8</ele>
        <time>1970-01-01T00:57:38.000Z</time>
      </trkpt>
      <trkpt lat="45.40539" lon="4.60771">
        <ele>961.4</ele>
        <time>1970-01-01T00:57:40.000Z</time>
      </trkpt>
      <trkpt lat="45.40546" lon="4.60773">
        <ele>960.8</ele>
        <time>1970-01-01T00:57:41.000Z</time>
      </trkpt>
      <trkpt lat="45.40554" lon="4.60775">
        <ele>960.4</ele>
        <time>1970-01-01T00:57:42.000Z</time>
      </trkpt>
      <trkpt lat="45.40561" lon="4.60778">
        <ele>959.6</ele>
        <time>1970-01-01T00:57:43.000Z</time>
      </trkpt>
      <trkpt lat="45.40568" lon="4.60781">
        <ele>959</ele>
        <time>1970-01-01T00:57:44.000Z</time>
      </trkpt>
      <trkpt lat="45.40574" lon="4.60784">
        <ele>957.8</ele>
        <time>1970-01-01T00:57:45.000Z</time>
      </trkpt>
      <trkpt lat="45.4058" lon="4.60787">
        <ele>957.2</ele>
        <time>1970-01-01T00:57:46.000Z</time>
      </trkpt>
      <trkpt lat="45.40586" lon="4.60789">
        <ele>956.8</ele>
        <time>1970-01-01T00:57:47.000Z</time>
      </trkpt>
      <trkpt lat="45.40592" lon="4.60793">
        <ele>956.4</ele>
        <time>1970-01-01T00:57:48.000Z</time>
      </trkpt>
      <trkpt lat="45.40598" lon="4.60796">
        <ele>955.8</ele>
        <time>1970-01-01T00:57:49.000Z</time>
      </trkpt>
      <trkpt lat="45.40604" lon="4.60799">
        <ele>955.4</ele>
        <time>1970-01-01T00:57:50.000Z</time>
      </trkpt>
      <trkpt lat="45.40609" lon="4.60803">
        <ele>955</ele>
        <time>1970-01-01T00:57:51.000Z</time>
      </trkpt>
      <trkpt lat="45.40615" lon="4.60807">
        <ele>954.4</ele>
        <time>1970-01-01T00:57:52.000Z</time>
      </trkpt>
      <trkpt lat="45.40621" lon="4.60812">
        <ele>953.8</ele>
        <time>1970-01-01T00:57:53.000Z</time>
      </trkpt>
      <trkpt lat="45.40627" lon="4.60816">
        <ele>953.4</ele>
        <time>1970-01-01T00:57:54.000Z</time>
      </trkpt>
      <trkpt lat="45.40632" lon="4.60821">
        <ele>952.8</ele>
        <time>1970-01-01T00:57:55.000Z</time>
      </trkpt>
      <trkpt lat="45.40665" lon="4.60837">
        <ele>952.4</ele>
        <time>1970-01-01T00:58:00.000Z</time>
      </trkpt>
      <trkpt lat="45.40671" lon="4.60838">
        <ele>952</ele>
        <time>1970-01-01T00:58:01.000Z</time>
      </trkpt>
      <trkpt lat="45.40678" lon="4.60839">
        <ele>951.6</ele>
        <time>1970-01-01T00:58:02.000Z</time>
      </trkpt>
      <trkpt lat="45.40684" lon="4.6084">
        <ele>951.2</ele>
        <time>1970-01-01T00:58:03.000Z</time>
      </trkpt>
      <trkpt lat="45.4069" lon="4.60841">
        <ele>950.6</ele>
        <time>1970-01-01T00:58:04.000Z</time>
      </trkpt>
      <trkpt lat="45.40704" lon="4.6084">
        <ele>950.2</ele>
        <time>1970-01-01T00:58:07.000Z</time>
      </trkpt>
      <trkpt lat="45.40709" lon="4.6084">
        <ele>949.8</ele>
        <time>1970-01-01T00:58:08.000Z</time>
      </trkpt>
      <trkpt lat="45.40714" lon="4.60839">
        <ele>949.4</ele>
        <time>1970-01-01T00:58:09.000Z</time>
      </trkpt>
      <trkpt lat="45.40719" lon="4.60838">
        <ele>948.6</ele>
        <time>1970-01-01T00:58:10.000Z</time>
      </trkpt>
      <trkpt lat="45.40727" lon="4.60836">
        <ele>948.6</ele>
        <time>1970-01-01T00:58:12.000Z</time>
      </trkpt>
      <trkpt lat="45.4074" lon="4.60834">
        <ele>948.6</ele>
        <time>1970-01-01T00:58:15.000Z</time>
      </trkpt>
      <trkpt lat="45.40764" lon="4.60828">
        <ele>948.6</ele>
        <time>1970-01-01T00:58:21.000Z</time>
      </trkpt>
      <trkpt lat="45.40768" lon="4.60828">
        <ele>948.6</ele>
        <time>1970-01-01T00:58:22.000Z</time>
      </trkpt>
      <trkpt lat="45.40793" lon="4.60828">
        <ele>948.6</ele>
        <time>1970-01-01T00:58:28.000Z</time>
      </trkpt>
      <trkpt lat="45.40801" lon="4.60827">
        <ele>949</ele>
        <time>1970-01-01T00:58:30.000Z</time>
      </trkpt>
      <trkpt lat="45.40805" lon="4.60825">
        <ele>949.4</ele>
        <time>1970-01-01T00:58:31.000Z</time>
      </trkpt>
      <trkpt lat="45.40808" lon="4.60823">
        <ele>949.8</ele>
        <time>1970-01-01T00:58:32.000Z</time>
      </trkpt>
      <trkpt lat="45.40812" lon="4.60821">
        <ele>950.2</ele>
        <time>1970-01-01T00:58:33.000Z</time>
      </trkpt>
      <trkpt lat="45.40816" lon="4.60819">
        <ele>950.8</ele>
        <time>1970-01-01T00:58:34.000Z</time>
      </trkpt>
      <trkpt lat="45.40825" lon="4.60815">
        <ele>950.8</ele>
        <time>1970-01-01T00:58:37.000Z</time>
      </trkpt>
      <trkpt lat="45.40835" lon="4.60811">
        <ele>950.8</ele>
        <time>1970-01-01T00:58:40.000Z</time>
      </trkpt>
      <trkpt lat="45.40847" lon="4.60805">
        <ele>950.8</ele>
        <time>1970-01-01T00:58:43.000Z</time>
      </trkpt>
      <trkpt lat="45.40868" lon="4.60789">
        <ele>950.8</ele>
        <time>1970-01-01T00:58:48.000Z</time>
      </trkpt>
      <trkpt lat="45.40872" lon="4.60785">
        <ele>950.8</ele>
        <time>1970-01-01T00:58:49.000Z</time>
      </trkpt>
      <trkpt lat="45.4089" lon="4.6077">
        <ele>950.8</ele>
        <time>1970-01-01T00:58:53.000Z</time>
      </trkpt>
      <trkpt lat="45.40894" lon="4.60765">
        <ele>950.2</ele>
        <time>1970-01-01T00:58:54.000Z</time>
      </trkpt>
      <trkpt lat="45.40898" lon="4.6076">
        <ele>949.8</ele>
        <time>1970-01-01T00:58:55.000Z</time>
      </trkpt>
      <trkpt lat="45.40902" lon="4.60755">
        <ele>949.4</ele>
        <time>1970-01-01T00:58:56.000Z</time>
      </trkpt>
      <trkpt lat="45.40906" lon="4.6075">
        <ele>949</ele>
        <time>1970-01-01T00:58:57.000Z</time>
      </trkpt>
      <trkpt lat="45.40909" lon="4.60744">
        <ele>948.6</ele>
        <time>1970-01-01T00:58:58.000Z</time>
      </trkpt>
      <trkpt lat="45.40912" lon="4.60738">
        <ele>948.6</ele>
        <time>1970-01-01T00:58:59.000Z</time>
      </trkpt>
      <trkpt lat="45.40916" lon="4.60733">
        <ele>948.6</ele>
        <time>1970-01-01T00:59:00.000Z</time>
      </trkpt>
      <trkpt lat="45.40925" lon="4.60719">
        <ele>948.6</ele>
        <time>1970-01-01T00:59:03.000Z</time>
      </trkpt>
      <trkpt lat="45.40929" lon="4.60715">
        <ele>948.6</ele>
        <time>1970-01-01T00:59:04.000Z</time>
      </trkpt>
      <trkpt lat="45.40943" lon="4.60698">
        <ele>948.6</ele>
        <time>1970-01-01T00:59:08.000Z</time>
      </trkpt>
      <trkpt lat="45.40949" lon="4.60689">
        <ele>948.6</ele>
        <time>1970-01-01T00:59:10.000Z</time>
      </trkpt>
      <trkpt lat="45.40974" lon="4.60657">
        <ele>948.6</ele>
        <time>1970-01-01T00:59:17.000Z</time>
      </trkpt>
      <trkpt lat="45.40983" lon="4.6064">
        <ele>948.6</ele>
        <time>1970-01-01T00:59:20.000Z</time>
      </trkpt>
      <trkpt lat="45.40988" lon="4.60627">
        <ele>948.6</ele>
        <time>1970-01-01T00:59:22.000Z</time>
      </trkpt>
      <trkpt lat="45.40993" lon="4.60616">
        <ele>948.6</ele>
        <time>1970-01-01T00:59:24.000Z</time>
      </trkpt>
      <trkpt lat="45.40996" lon="4.60603">
        <ele>948.6</ele>
        <time>1970-01-01T00:59:26.000Z</time>
      </trkpt>
      <trkpt lat="45.40997" lon="4.60596">
        <ele>948.6</ele>
        <time>1970-01-01T00:59:27.000Z</time>
      </trkpt>
      <trkpt lat="45.41001" lon="4.60584">
        <ele>948.2</ele>
        <time>1970-01-01T00:59:29.000Z</time>
      </trkpt>
      <trkpt lat="45.41003" lon="4.60577">
        <ele>947.8</ele>
        <time>1970-01-01T00:59:30.000Z</time>
      </trkpt>
      <trkpt lat="45.41005" lon="4.60571">
        <ele>947.4</ele>
        <time>1970-01-01T00:59:31.000Z</time>
      </trkpt>
      <trkpt lat="45.41007" lon="4.60565">
        <ele>947</ele>
        <time>1970-01-01T00:59:32.000Z</time>
      </trkpt>
      <trkpt lat="45.41009" lon="4.60558">
        <ele>946.6</ele>
        <time>1970-01-01T00:59:33.000Z</time>
      </trkpt>
      <trkpt lat="45.41014" lon="4.6054">
        <ele>946.6</ele>
        <time>1970-01-01T00:59:36.000Z</time>
      </trkpt>
      <trkpt lat="45.41016" lon="4.60534">
        <ele>946.6</ele>
        <time>1970-01-01T00:59:37.000Z</time>
      </trkpt>
      <trkpt lat="45.41019" lon="4.60522">
        <ele>946.6</ele>
        <time>1970-01-01T00:59:39.000Z</time>
      </trkpt>
      <trkpt lat="45.41024" lon="4.60503">
        <ele>946.6</ele>
        <time>1970-01-01T00:59:42.000Z</time>
      </trkpt>
      <trkpt lat="45.41033" lon="4.6048">
        <ele>946.6</ele>
        <time>1970-01-01T00:59:46.000Z</time>
      </trkpt>
      <trkpt lat="45.41037" lon="4.60462">
        <ele>946.6</ele>
        <time>1970-01-01T00:59:49.000Z</time>
      </trkpt>
      <trkpt lat="45.41042" lon="4.60435">
        <ele>947</ele>
        <time>1970-01-01T00:59:54.000Z</time>
      </trkpt>
      <trkpt lat="45.41044" lon="4.6043">
        <ele>947.4</ele>
        <time>1970-01-01T00:59:55.000Z</time>
      </trkpt>
      <trkpt lat="45.41045" lon="4.60425">
        <ele>947.8</ele>
        <time>1970-01-01T00:59:56.000Z</time>
      </trkpt>
      <trkpt lat="45.41046" lon="4.6042">
        <ele>948.2</ele>
        <time>1970-01-01T00:59:57.000Z</time>
      </trkpt>
      <trkpt lat="45.41047" lon="4.60415">
        <ele>948.6</ele>
        <time>1970-01-01T00:59:58.000Z</time>
      </trkpt>
      <trkpt lat="45.4105" lon="4.60404">
        <ele>948.6</ele>
        <time>1970-01-01T01:00:00.000Z</time>
      </trkpt>
      <trkpt lat="45.41053" lon="4.60386">
        <ele>948.6</ele>
        <time>1970-01-01T01:00:03.000Z</time>
      </trkpt>
      <trkpt lat="45.41057" lon="4.60372">
        <ele>948.6</ele>
        <time>1970-01-01T01:00:05.000Z</time>
      </trkpt>
      <trkpt lat="45.41063" lon="4.60343">
        <ele>948.2</ele>
        <time>1970-01-01T01:00:09.000Z</time>
      </trkpt>
      <trkpt lat="45.41065" lon="4.60336">
        <ele>947.8</ele>
        <time>1970-01-01T01:00:10.000Z</time>
      </trkpt>
      <trkpt lat="45.41066" lon="4.60328">
        <ele>947.4</ele>
        <time>1970-01-01T01:00:11.000Z</time>
      </trkpt>
      <trkpt lat="45.41067" lon="4.60319">
        <ele>947</ele>
        <time>1970-01-01T01:00:12.000Z</time>
      </trkpt>
      <trkpt lat="45.41068" lon="4.60311">
        <ele>946.4</ele>
        <time>1970-01-01T01:00:13.000Z</time>
      </trkpt>
      <trkpt lat="45.41069" lon="4.60303">
        <ele>946</ele>
        <time>1970-01-01T01:00:14.000Z</time>
      </trkpt>
      <trkpt lat="45.41069" lon="4.60294">
        <ele>945.6</ele>
        <time>1970-01-01T01:00:15.000Z</time>
      </trkpt>
      <trkpt lat="45.41071" lon="4.60285">
        <ele>945</ele>
        <time>1970-01-01T01:00:16.000Z</time>
      </trkpt>
      <trkpt lat="45.41072" lon="4.60276">
        <ele>944.6</ele>
        <time>1970-01-01T01:00:17.000Z</time>
      </trkpt>
      <trkpt lat="45.41073" lon="4.60267">
        <ele>944</ele>
        <time>1970-01-01T01:00:18.000Z</time>
      </trkpt>
      <trkpt lat="45.41076" lon="4.6025">
        <ele>944</ele>
        <time>1970-01-01T01:00:20.000Z</time>
      </trkpt>
      <trkpt lat="45.41082" lon="4.60238">
        <ele>944</ele>
        <time>1970-01-01T01:00:22.000Z</time>
      </trkpt>
      <trkpt lat="45.41093" lon="4.60219">
        <ele>944</ele>
        <time>1970-01-01T01:00:26.000Z</time>
      </trkpt>
      <trkpt lat="45.41099" lon="4.6021">
        <ele>944</ele>
        <time>1970-01-01T01:00:28.000Z</time>
      </trkpt>
      <trkpt lat="45.41109" lon="4.60187">
        <ele>944</ele>
        <time>1970-01-01T01:00:33.000Z</time>
      </trkpt>
      <trkpt lat="45.41111" lon="4.60163">
        <ele>944</ele>
        <time>1970-01-01T01:00:38.000Z</time>
      </trkpt>
      <trkpt lat="45.41114" lon="4.60137">
        <ele>944</ele>
        <time>1970-01-01T01:00:44.000Z</time>
      </trkpt>
      <trkpt lat="45.41115" lon="4.60133">
        <ele>944.6</ele>
        <time>1970-01-01T01:00:45.000Z</time>
      </trkpt>
      <trkpt lat="45.41116" lon="4.6013">
        <ele>945</ele>
        <time>1970-01-01T01:00:46.000Z</time>
      </trkpt>
      <trkpt lat="45.41117" lon="4.60126">
        <ele>945.4</ele>
        <time>1970-01-01T01:00:47.000Z</time>
      </trkpt>
      <trkpt lat="45.41117" lon="4.60122">
        <ele>945.8</ele>
        <time>1970-01-01T01:00:48.000Z</time>
      </trkpt>
      <trkpt lat="45.41119" lon="4.60118">
        <ele>946.2</ele>
        <time>1970-01-01T01:00:49.000Z</time>
      </trkpt>
      <trkpt lat="45.41119" lon="4.60113">
        <ele>946.2</ele>
        <time>1970-01-01T01:00:50.000Z</time>
      </trkpt>
      <trkpt lat="45.41123" lon="4.60103">
        <ele>946.6</ele>
        <time>1970-01-01T01:00:53.000Z</time>
      </trkpt>
      <trkpt lat="45.41124" lon="4.601">
        <ele>947</ele>
        <time>1970-01-01T01:00:54.000Z</time>
      </trkpt>
      <trkpt lat="45.41126" lon="4.60096">
        <ele>947.6</ele>
        <time>1970-01-01T01:00:55.000Z</time>
      </trkpt>
      <trkpt lat="45.41127" lon="4.60093">
        <ele>948</ele>
        <time>1970-01-01T01:00:56.000Z</time>
      </trkpt>
      <trkpt lat="45.41128" lon="4.6009">
        <ele>948.4</ele>
        <time>1970-01-01T01:00:57.000Z</time>
      </trkpt>
      <trkpt lat="45.41134" lon="4.60078">
        <ele>948.4</ele>
        <time>1970-01-01T01:01:01.000Z</time>
      </trkpt>
      <trkpt lat="45.41142" lon="4.60069">
        <ele>948.4</ele>
        <time>1970-01-01T01:01:05.000Z</time>
      </trkpt>
      <trkpt lat="45.41144" lon="4.60067">
        <ele>948.4</ele>
        <time>1970-01-01T01:01:06.000Z</time>
      </trkpt>
      <trkpt lat="45.41147" lon="4.60067">
        <ele>948.8</ele>
        <time>1970-01-01T01:01:07.000Z</time>
      </trkpt>
      <trkpt lat="45.41149" lon="4.60066">
        <ele>949.2</ele>
        <time>1970-01-01T01:01:08.000Z</time>
      </trkpt>
      <trkpt lat="45.41152" lon="4.60066">
        <ele>949.6</ele>
        <time>1970-01-01T01:01:09.000Z</time>
      </trkpt>
      <trkpt lat="45.41155" lon="4.60065">
        <ele>950</ele>
        <time>1970-01-01T01:01:10.000Z</time>
      </trkpt>
      <trkpt lat="45.41157" lon="4.60064">
        <ele>950.4</ele>
        <time>1970-01-01T01:01:11.000Z</time>
      </trkpt>
      <trkpt lat="45.4117" lon="4.60059">
        <ele>950.4</ele>
        <time>1970-01-01T01:01:17.000Z</time>
      </trkpt>
      <trkpt lat="45.41174" lon="4.60059">
        <ele>950.8</ele>
        <time>1970-01-01T01:01:19.000Z</time>
      </trkpt>
      <trkpt lat="45.41176" lon="4.6006">
        <ele>951.2</ele>
        <time>1970-01-01T01:01:20.000Z</time>
      </trkpt>
      <trkpt lat="45.41179" lon="4.6006">
        <ele>951.8</ele>
        <time>1970-01-01T01:01:21.000Z</time>
      </trkpt>
      <trkpt lat="45.41181" lon="4.60061">
        <ele>952.2</ele>
        <time>1970-01-01T01:01:22.000Z</time>
      </trkpt>
      <trkpt lat="45.41185" lon="4.60061">
        <ele>952.6</ele>
        <time>1970-01-01T01:01:23.000Z</time>
      </trkpt>
      <trkpt lat="45.41197" lon="4.60066">
        <ele>952.6</ele>
        <time>1970-01-01T01:01:28.000Z</time>
      </trkpt>
      <trkpt lat="45.41206" lon="4.60073">
        <ele>952.6</ele>
        <time>1970-01-01T01:01:33.000Z</time>
      </trkpt>
      <trkpt lat="45.41207" lon="4.60075">
        <ele>953</ele>
        <time>1970-01-01T01:01:34.000Z</time>
      </trkpt>
      <trkpt lat="45.4121" lon="4.60077">
        <ele>953.4</ele>
        <time>1970-01-01T01:01:35.000Z</time>
      </trkpt>
      <trkpt lat="45.41212" lon="4.6008">
        <ele>953.8</ele>
        <time>1970-01-01T01:01:36.000Z</time>
      </trkpt>
      <trkpt lat="45.41214" lon="4.60082">
        <ele>954.2</ele>
        <time>1970-01-01T01:01:37.000Z</time>
      </trkpt>
      <trkpt lat="45.41215" lon="4.60084">
        <ele>954.6</ele>
        <time>1970-01-01T01:01:38.000Z</time>
      </trkpt>
      <trkpt lat="45.41217" lon="4.60087">
        <ele>954.6</ele>
        <time>1970-01-01T01:01:39.000Z</time>
      </trkpt>
      <trkpt lat="45.41224" lon="4.60096">
        <ele>955</ele>
        <time>1970-01-01T01:01:43.000Z</time>
      </trkpt>
      <trkpt lat="45.41226" lon="4.60099">
        <ele>955.6</ele>
        <time>1970-01-01T01:01:44.000Z</time>
      </trkpt>
      <trkpt lat="45.41227" lon="4.60101">
        <ele>956</ele>
        <time>1970-01-01T01:01:45.000Z</time>
      </trkpt>
      <trkpt lat="45.4123" lon="4.60104">
        <ele>956.4</ele>
        <time>1970-01-01T01:01:46.000Z</time>
      </trkpt>
      <trkpt lat="45.41231" lon="4.60108">
        <ele>956.8</ele>
        <time>1970-01-01T01:01:47.000Z</time>
      </trkpt>
      <trkpt lat="45.41238" lon="4.60121">
        <ele>956.8</ele>
        <time>1970-01-01T01:01:51.000Z</time>
      </trkpt>
      <trkpt lat="45.41252" lon="4.60152">
        <ele>956.8</ele>
        <time>1970-01-01T01:01:59.000Z</time>
      </trkpt>
      <trkpt lat="45.4126" lon="4.60176">
        <ele>957.4</ele>
        <time>1970-01-01T01:02:05.000Z</time>
      </trkpt>
      <trkpt lat="45.41261" lon="4.6018">
        <ele>957.8</ele>
        <time>1970-01-01T01:02:06.000Z</time>
      </trkpt>
      <trkpt lat="45.41262" lon="4.60184">
        <ele>958.2</ele>
        <time>1970-01-01T01:02:07.000Z</time>
      </trkpt>
      <trkpt lat="45.41263" lon="4.60187">
        <ele>958.6</ele>
        <time>1970-01-01T01:02:08.000Z</time>
      </trkpt>
      <trkpt lat="45.41264" lon="4.6019">
        <ele>959</ele>
        <time>1970-01-01T01:02:09.000Z</time>
      </trkpt>
      <trkpt lat="45.41264" lon="4.60202">
        <ele>959</ele>
        <time>1970-01-01T01:02:12.000Z</time>
      </trkpt>
      <trkpt lat="45.41271" lon="4.60226">
        <ele>959.4</ele>
        <time>1970-01-01T01:02:17.000Z</time>
      </trkpt>
      <trkpt lat="45.41272" lon="4.60231">
        <ele>959.8</ele>
        <time>1970-01-01T01:02:18.000Z</time>
      </trkpt>
      <trkpt lat="45.41273" lon="4.60235">
        <ele>960.2</ele>
        <time>1970-01-01T01:02:19.000Z</time>
      </trkpt>
      <trkpt lat="45.41274" lon="4.6024">
        <ele>960.6</ele>
        <time>1970-01-01T01:02:20.000Z</time>
      </trkpt>
      <trkpt lat="45.41276" lon="4.60244">
        <ele>961</ele>
        <time>1970-01-01T01:02:21.000Z</time>
      </trkpt>
      <trkpt lat="45.41279" lon="4.60254">
        <ele>961</ele>
        <time>1970-01-01T01:02:23.000Z</time>
      </trkpt>
      <trkpt lat="45.41284" lon="4.60276">
        <ele>961</ele>
        <time>1970-01-01T01:02:28.000Z</time>
      </trkpt>
      <trkpt lat="45.41293" lon="4.60303">
        <ele>961</ele>
        <time>1970-01-01T01:02:34.000Z</time>
      </trkpt>
      <trkpt lat="45.41308" lon="4.60333">
        <ele>961</ele>
        <time>1970-01-01T01:02:41.000Z</time>
      </trkpt>
      <trkpt lat="45.41317" lon="4.60358">
        <ele>961</ele>
        <time>1970-01-01T01:02:46.000Z</time>
      </trkpt>
      <trkpt lat="45.41318" lon="4.60362">
        <ele>961.4</ele>
        <time>1970-01-01T01:02:47.000Z</time>
      </trkpt>
      <trkpt lat="45.4132" lon="4.60368">
        <ele>961.8</ele>
        <time>1970-01-01T01:02:48.000Z</time>
      </trkpt>
      <trkpt lat="45.41322" lon="4.60372">
        <ele>962.2</ele>
        <time>1970-01-01T01:02:49.000Z</time>
      </trkpt>
      <trkpt lat="45.41324" lon="4.60376">
        <ele>962.6</ele>
        <time>1970-01-01T01:02:50.000Z</time>
      </trkpt>
      <trkpt lat="45.41326" lon="4.60379">
        <ele>963</ele>
        <time>1970-01-01T01:02:51.000Z</time>
      </trkpt>
      <trkpt lat="45.41332" lon="4.60391">
        <ele>963</ele>
        <time>1970-01-01T01:02:54.000Z</time>
      </trkpt>
      <trkpt lat="45.41336" lon="4.60398">
        <ele>963</ele>
        <time>1970-01-01T01:02:56.000Z</time>
      </trkpt>
      <trkpt lat="45.41348" lon="4.60417">
        <ele>963.4</ele>
        <time>1970-01-01T01:03:01.000Z</time>
      </trkpt>
      <trkpt lat="45.4135" lon="4.6042">
        <ele>963.8</ele>
        <time>1970-01-01T01:03:02.000Z</time>
      </trkpt>
      <trkpt lat="45.41352" lon="4.60423">
        <ele>964.2</ele>
        <time>1970-01-01T01:03:03.000Z</time>
      </trkpt>
      <trkpt lat="45.41355" lon="4.60426">
        <ele>964.6</ele>
        <time>1970-01-01T01:03:04.000Z</time>
      </trkpt>
      <trkpt lat="45.41358" lon="4.6043">
        <ele>965</ele>
        <time>1970-01-01T01:03:05.000Z</time>
      </trkpt>
      <trkpt lat="45.41374" lon="4.60445">
        <ele>965</ele>
        <time>1970-01-01T01:03:10.000Z</time>
      </trkpt>
      <trkpt lat="45.41386" lon="4.60462">
        <ele>965</ele>
        <time>1970-01-01T01:03:15.000Z</time>
      </trkpt>
      <trkpt lat="45.41403" lon="4.60483">
        <ele>965</ele>
        <time>1970-01-01T01:03:21.000Z</time>
      </trkpt>
      <trkpt lat="45.41415" lon="4.60494">
        <ele>965.4</ele>
        <time>1970-01-01T01:03:25.000Z</time>
      </trkpt>
      <trkpt lat="45.41418" lon="4.60496">
        <ele>966</ele>
        <time>1970-01-01T01:03:26.000Z</time>
      </trkpt>
      <trkpt lat="45.41422" lon="4.60499">
        <ele>966.4</ele>
        <time>1970-01-01T01:03:27.000Z</time>
      </trkpt>
      <trkpt lat="45.41425" lon="4.60501">
        <ele>966.8</ele>
        <time>1970-01-01T01:03:28.000Z</time>
      </trkpt>
      <trkpt lat="45.41429" lon="4.60504">
        <ele>967.2</ele>
        <time>1970-01-01T01:03:29.000Z</time>
      </trkpt>
      <trkpt lat="45.41438" lon="4.60511">
        <ele>967.2</ele>
        <time>1970-01-01T01:03:32.000Z</time>
      </trkpt>
      <trkpt lat="45.41458" lon="4.60524">
        <ele>967.2</ele>
        <time>1970-01-01T01:03:38.000Z</time>
      </trkpt>
      <trkpt lat="45.41478" lon="4.60532">
        <ele>967.2</ele>
        <time>1970-01-01T01:03:43.000Z</time>
      </trkpt>
      <trkpt lat="45.41481" lon="4.60534">
        <ele>967.6</ele>
        <time>1970-01-01T01:03:44.000Z</time>
      </trkpt>
      <trkpt lat="45.41485" lon="4.60536">
        <ele>968</ele>
        <time>1970-01-01T01:03:45.000Z</time>
      </trkpt>
      <trkpt lat="45.41489" lon="4.60537">
        <ele>968.4</ele>
        <time>1970-01-01T01:03:46.000Z</time>
      </trkpt>
      <trkpt lat="45.41492" lon="4.60538">
        <ele>968.8</ele>
        <time>1970-01-01T01:03:47.000Z</time>
      </trkpt>
      <trkpt lat="45.41496" lon="4.60539">
        <ele>969.2</ele>
        <time>1970-01-01T01:03:48.000Z</time>
      </trkpt>
      <trkpt lat="45.41517" lon="4.60544">
        <ele>969.2</ele>
        <time>1970-01-01T01:03:54.000Z</time>
      </trkpt>
      <trkpt lat="45.41521" lon="4.60545">
        <ele>970.2</ele>
        <time>1970-01-01T01:03:55.000Z</time>
      </trkpt>
      <trkpt lat="45.41525" lon="4.60547">
        <ele>970.6</ele>
        <time>1970-01-01T01:03:56.000Z</time>
      </trkpt>
      <trkpt lat="45.41529" lon="4.60548">
        <ele>971</ele>
        <time>1970-01-01T01:03:57.000Z</time>
      </trkpt>
      <trkpt lat="45.41533" lon="4.60549">
        <ele>971.4</ele>
        <time>1970-01-01T01:03:58.000Z</time>
      </trkpt>
      <trkpt lat="45.41541" lon="4.60551">
        <ele>971.4</ele>
        <time>1970-01-01T01:04:00.000Z</time>
      </trkpt>
      <trkpt lat="45.41565" lon="4.60558">
        <ele>971.4</ele>
        <time>1970-01-01T01:04:06.000Z</time>
      </trkpt>
      <trkpt lat="45.41586" lon="4.60562">
        <ele>971.8</ele>
        <time>1970-01-01T01:04:12.000Z</time>
      </trkpt>
      <trkpt lat="45.4159" lon="4.60562">
        <ele>972.2</ele>
        <time>1970-01-01T01:04:13.000Z</time>
      </trkpt>
      <trkpt lat="45.41593" lon="4.6056">
        <ele>972.6</ele>
        <time>1970-01-01T01:04:14.000Z</time>
      </trkpt>
      <trkpt lat="45.41597" lon="4.60559">
        <ele>973.2</ele>
        <time>1970-01-01T01:04:15.000Z</time>
      </trkpt>
      <trkpt lat="45.416" lon="4.60559">
        <ele>973.6</ele>
        <time>1970-01-01T01:04:16.000Z</time>
      </trkpt>
      <trkpt lat="45.41608" lon="4.60555">
        <ele>973.6</ele>
        <time>1970-01-01T01:04:18.000Z</time>
      </trkpt>
      <trkpt lat="45.41625" lon="4.60546">
        <ele>973.6</ele>
        <time>1970-01-01T01:04:23.000Z</time>
      </trkpt>
      <trkpt lat="45.4164" lon="4.60538">
        <ele>973.6</ele>
        <time>1970-01-01T01:04:27.000Z</time>
      </trkpt>
      <trkpt lat="45.41644" lon="4.60538">
        <ele>974</ele>
        <time>1970-01-01T01:04:28.000Z</time>
      </trkpt>
      <trkpt lat="45.41648" lon="4.60538">
        <ele>974.4</ele>
        <time>1970-01-01T01:04:29.000Z</time>
      </trkpt>
      <trkpt lat="45.41652" lon="4.60539">
        <ele>974.8</ele>
        <time>1970-01-01T01:04:30.000Z</time>
      </trkpt>
      <trkpt lat="45.41655" lon="4.60541">
        <ele>975.2</ele>
        <time>1970-01-01T01:04:31.000Z</time>
      </trkpt>
      <trkpt lat="45.41658" lon="4.60543">
        <ele>975.6</ele>
        <time>1970-01-01T01:04:32.000Z</time>
      </trkpt>
      <trkpt lat="45.41662" lon="4.60546">
        <ele>975.6</ele>
        <time>1970-01-01T01:04:33.000Z</time>
      </trkpt>
      <trkpt lat="45.41673" lon="4.60551">
        <ele>975.6</ele>
        <time>1970-01-01T01:04:36.000Z</time>
      </trkpt>
      <trkpt lat="45.41689" lon="4.6056">
        <ele>975.6</ele>
        <time>1970-01-01T01:04:41.000Z</time>
      </trkpt>
      <trkpt lat="45.41714" lon="4.60587">
        <ele>975.6</ele>
        <time>1970-01-01T01:04:49.000Z</time>
      </trkpt>
      <trkpt lat="45.41719" lon="4.60597">
        <ele>976</ele>
        <time>1970-01-01T01:04:51.000Z</time>
      </trkpt>
      <trkpt lat="45.41721" lon="4.60602">
        <ele>976.6</ele>
        <time>1970-01-01T01:04:52.000Z</time>
      </trkpt>
      <trkpt lat="45.41724" lon="4.60607">
        <ele>977</ele>
        <time>1970-01-01T01:04:53.000Z</time>
      </trkpt>
      <trkpt lat="45.41726" lon="4.60612">
        <ele>977.4</ele>
        <time>1970-01-01T01:04:54.000Z</time>
      </trkpt>
      <trkpt lat="45.41728" lon="4.60618">
        <ele>977.8</ele>
        <time>1970-01-01T01:04:55.000Z</time>
      </trkpt>
      <trkpt lat="45.41732" lon="4.60632">
        <ele>977.8</ele>
        <time>1970-01-01T01:04:58.000Z</time>
      </trkpt>
      <trkpt lat="45.41734" lon="4.6065">
        <ele>978.2</ele>
        <time>1970-01-01T01:05:02.000Z</time>
      </trkpt>
      <trkpt lat="45.41734" lon="4.60654">
        <ele>978.6</ele>
        <time>1970-01-01T01:05:03.000Z</time>
      </trkpt>
      <trkpt lat="45.41735" lon="4.60659">
        <ele>979</ele>
        <time>1970-01-01T01:05:04.000Z</time>
      </trkpt>
      <trkpt lat="45.41736" lon="4.60663">
        <ele>979.4</ele>
        <time>1970-01-01T01:05:05.000Z</time>
      </trkpt>
      <trkpt lat="45.41737" lon="4.60667">
        <ele>979.8</ele>
        <time>1970-01-01T01:05:06.000Z</time>
      </trkpt>
      <trkpt lat="45.41738" lon="4.60674">
        <ele>979.8</ele>
        <time>1970-01-01T01:05:08.000Z</time>
      </trkpt>
      <trkpt lat="45.41741" lon="4.60687">
        <ele>980.2</ele>
        <time>1970-01-01T01:05:11.000Z</time>
      </trkpt>
      <trkpt lat="45.41741" lon="4.6069">
        <ele>980.8</ele>
        <time>1970-01-01T01:05:12.000Z</time>
      </trkpt>
      <trkpt lat="45.41742" lon="4.60694">
        <ele>981.2</ele>
        <time>1970-01-01T01:05:13.000Z</time>
      </trkpt>
      <trkpt lat="45.41743" lon="4.60698">
        <ele>981.6</ele>
        <time>1970-01-01T01:05:14.000Z</time>
      </trkpt>
      <trkpt lat="45.41744" lon="4.60702">
        <ele>982</ele>
        <time>1970-01-01T01:05:15.000Z</time>
      </trkpt>
      <trkpt lat="45.41748" lon="4.60717">
        <ele>982.4</ele>
        <time>1970-01-01T01:05:19.000Z</time>
      </trkpt>
      <trkpt lat="45.41749" lon="4.60722">
        <ele>982.8</ele>
        <time>1970-01-01T01:05:20.000Z</time>
      </trkpt>
      <trkpt lat="45.4175" lon="4.60726">
        <ele>983.2</ele>
        <time>1970-01-01T01:05:21.000Z</time>
      </trkpt>
      <trkpt lat="45.41751" lon="4.60729">
        <ele>983.6</ele>
        <time>1970-01-01T01:05:22.000Z</time>
      </trkpt>
      <trkpt lat="45.41752" lon="4.60733">
        <ele>984.2</ele>
        <time>1970-01-01T01:05:23.000Z</time>
      </trkpt>
      <trkpt lat="45.41754" lon="4.60744">
        <ele>984.2</ele>
        <time>1970-01-01T01:05:26.000Z</time>
      </trkpt>
      <trkpt lat="45.41758" lon="4.6076">
        <ele>984.6</ele>
        <time>1970-01-01T01:05:30.000Z</time>
      </trkpt>
      <trkpt lat="45.41759" lon="4.60764">
        <ele>985</ele>
        <time>1970-01-01T01:05:31.000Z</time>
      </trkpt>
      <trkpt lat="45.4176" lon="4.60768">
        <ele>985.6</ele>
        <time>1970-01-01T01:05:32.000Z</time>
      </trkpt>
      <trkpt lat="45.41762" lon="4.60771">
        <ele>986</ele>
        <time>1970-01-01T01:05:33.000Z</time>
      </trkpt>
      <trkpt lat="45.41763" lon="4.60774">
        <ele>986.4</ele>
        <time>1970-01-01T01:05:34.000Z</time>
      </trkpt>
      <trkpt lat="45.41765" lon="4.60777">
        <ele>986.8</ele>
        <time>1970-01-01T01:05:35.000Z</time>
      </trkpt>
      <trkpt lat="45.41766" lon="4.60781">
        <ele>987.2</ele>
        <time>1970-01-01T01:05:36.000Z</time>
      </trkpt>
      <trkpt lat="45.41767" lon="4.60784">
        <ele>987.6</ele>
        <time>1970-01-01T01:05:37.000Z</time>
      </trkpt>
      <trkpt lat="45.41768" lon="4.60788">
        <ele>988.2</ele>
        <time>1970-01-01T01:05:38.000Z</time>
      </trkpt>
      <trkpt lat="45.4177" lon="4.60791">
        <ele>988.6</ele>
        <time>1970-01-01T01:05:39.000Z</time>
      </trkpt>
      <trkpt lat="45.41772" lon="4.60799">
        <ele>988.6</ele>
        <time>1970-01-01T01:05:41.000Z</time>
      </trkpt>
      <trkpt lat="45.41776" lon="4.60811">
        <ele>988.6</ele>
        <time>1970-01-01T01:05:44.000Z</time>
      </trkpt>
      <trkpt lat="45.41781" lon="4.60826">
        <ele>988.6</ele>
        <time>1970-01-01T01:05:49.000Z</time>
      </trkpt>
      <trkpt lat="45.41787" lon="4.60842">
        <ele>988.6</ele>
        <time>1970-01-01T01:05:54.000Z</time>
      </trkpt>
      <trkpt lat="45.41793" lon="4.6086">
        <ele>989</ele>
        <time>1970-01-01T01:05:59.000Z</time>
      </trkpt>
      <trkpt lat="45.41794" lon="4.60864">
        <ele>989.4</ele>
        <time>1970-01-01T01:06:00.000Z</time>
      </trkpt>
      <trkpt lat="45.41795" lon="4.60868">
        <ele>989.8</ele>
        <time>1970-01-01T01:06:01.000Z</time>
      </trkpt>
      <trkpt lat="45.41797" lon="4.60872">
        <ele>990.2</ele>
        <time>1970-01-01T01:06:02.000Z</time>
      </trkpt>
      <trkpt lat="45.41797" lon="4.60875">
        <ele>990.6</ele>
        <time>1970-01-01T01:06:03.000Z</time>
      </trkpt>
      <trkpt lat="45.41799" lon="4.60879">
        <ele>990.6</ele>
        <time>1970-01-01T01:06:04.000Z</time>
      </trkpt>
      <trkpt lat="45.41806" lon="4.60904">
        <ele>990.6</ele>
        <time>1970-01-01T01:06:10.000Z</time>
      </trkpt>
      <trkpt lat="45.41811" lon="4.60922">
        <ele>990.2</ele>
        <time>1970-01-01T01:06:13.000Z</time>
      </trkpt>
      <trkpt lat="45.41813" lon="4.60928">
        <ele>989.8</ele>
        <time>1970-01-01T01:06:14.000Z</time>
      </trkpt>
      <trkpt lat="45.41813" lon="4.60934">
        <ele>989.2</ele>
        <time>1970-01-01T01:06:15.000Z</time>
      </trkpt>
      <trkpt lat="45.41813" lon="4.6094">
        <ele>988.8</ele>
        <time>1970-01-01T01:06:16.000Z</time>
      </trkpt>
      <trkpt lat="45.41813" lon="4.60947">
        <ele>988.4</ele>
        <time>1970-01-01T01:06:17.000Z</time>
      </trkpt>
      <trkpt lat="45.41815" lon="4.60966">
        <ele>988.4</ele>
        <time>1970-01-01T01:06:20.000Z</time>
      </trkpt>
      <trkpt lat="45.41815" lon="4.60973">
        <ele>988.4</ele>
        <time>1970-01-01T01:06:21.000Z</time>
      </trkpt>
      <trkpt lat="45.41815" lon="4.60984">
        <ele>988.4</ele>
        <time>1970-01-01T01:06:23.000Z</time>
      </trkpt>
      <trkpt lat="45.41816" lon="4.60996">
        <ele>988.4</ele>
        <time>1970-01-01T01:06:25.000Z</time>
      </trkpt>
      <trkpt lat="45.41816" lon="4.61031">
        <ele>988.4</ele>
        <time>1970-01-01T01:06:31.000Z</time>
      </trkpt>
      <trkpt lat="45.41818" lon="4.61065">
        <ele>988.4</ele>
        <time>1970-01-01T01:06:37.000Z</time>
      </trkpt>
      <trkpt lat="45.41819" lon="4.61092">
        <ele>988.4</ele>
        <time>1970-01-01T01:06:42.000Z</time>
      </trkpt>
      <trkpt lat="45.4182" lon="4.61108">
        <ele>988.4</ele>
        <time>1970-01-01T01:06:45.000Z</time>
      </trkpt>
      <trkpt lat="45.41821" lon="4.6112">
        <ele>988.4</ele>
        <time>1970-01-01T01:06:47.000Z</time>
      </trkpt>
      <trkpt lat="45.41822" lon="4.61131">
        <ele>988.4</ele>
        <time>1970-01-01T01:06:49.000Z</time>
      </trkpt>
      <trkpt lat="45.41826" lon="4.61158">
        <ele>988.4</ele>
        <time>1970-01-01T01:06:54.000Z</time>
      </trkpt>
      <trkpt lat="45.41835" lon="4.61195">
        <ele>988.4</ele>
        <time>1970-01-01T01:07:01.000Z</time>
      </trkpt>
      <trkpt lat="45.4184" lon="4.61216">
        <ele>988.8</ele>
        <time>1970-01-01T01:07:05.000Z</time>
      </trkpt>
      <trkpt lat="45.41841" lon="4.61222">
        <ele>989.4</ele>
        <time>1970-01-01T01:07:06.000Z</time>
      </trkpt>
      <trkpt lat="45.41843" lon="4.61227">
        <ele>989.8</ele>
        <time>1970-01-01T01:07:07.000Z</time>
      </trkpt>
      <trkpt lat="45.41844" lon="4.61233">
        <ele>990.2</ele>
        <time>1970-01-01T01:07:08.000Z</time>
      </trkpt>
      <trkpt lat="45.41846" lon="4.61238">
        <ele>990.6</ele>
        <time>1970-01-01T01:07:09.000Z</time>
      </trkpt>
      <trkpt lat="45.41853" lon="4.61264">
        <ele>990.6</ele>
        <time>1970-01-01T01:07:14.000Z</time>
      </trkpt>
      <trkpt lat="45.41865" lon="4.61298">
        <ele>990.6</ele>
        <time>1970-01-01T01:07:21.000Z</time>
      </trkpt>
      <trkpt lat="45.41872" lon="4.61319">
        <ele>991</ele>
        <time>1970-01-01T01:07:25.000Z</time>
      </trkpt>
      <trkpt lat="45.41873" lon="4.61325">
        <ele>991.4</ele>
        <time>1970-01-01T01:07:26.000Z</time>
      </trkpt>
      <trkpt lat="45.41874" lon="4.6133">
        <ele>992</ele>
        <time>1970-01-01T01:07:27.000Z</time>
      </trkpt>
      <trkpt lat="45.41876" lon="4.61336">
        <ele>992.4</ele>
        <time>1970-01-01T01:07:28.000Z</time>
      </trkpt>
      <trkpt lat="45.41877" lon="4.61342">
        <ele>992.8</ele>
        <time>1970-01-01T01:07:29.000Z</time>
      </trkpt>
      <trkpt lat="45.41883" lon="4.6137">
        <ele>992.8</ele>
        <time>1970-01-01T01:07:34.000Z</time>
      </trkpt>
      <trkpt lat="45.41885" lon="4.61376">
        <ele>992.8</ele>
        <time>1970-01-01T01:07:35.000Z</time>
      </trkpt>
      <trkpt lat="45.41893" lon="4.61403">
        <ele>992.8</ele>
        <time>1970-01-01T01:07:40.000Z</time>
      </trkpt>
      <trkpt lat="45.41904" lon="4.61434">
        <ele>993.2</ele>
        <time>1970-01-01T01:07:46.000Z</time>
      </trkpt>
      <trkpt lat="45.41906" lon="4.61439">
        <ele>993.6</ele>
        <time>1970-01-01T01:07:47.000Z</time>
      </trkpt>
      <trkpt lat="45.41908" lon="4.61444">
        <ele>994.2</ele>
        <time>1970-01-01T01:07:48.000Z</time>
      </trkpt>
      <trkpt lat="45.4191" lon="4.6145">
        <ele>994.6</ele>
        <time>1970-01-01T01:07:49.000Z</time>
      </trkpt>
      <trkpt lat="45.41912" lon="4.61455">
        <ele>995</ele>
        <time>1970-01-01T01:07:50.000Z</time>
      </trkpt>
      <trkpt lat="45.41921" lon="4.61479">
        <ele>995.4</ele>
        <time>1970-01-01T01:07:55.000Z</time>
      </trkpt>
      <trkpt lat="45.41923" lon="4.61485">
        <ele>996</ele>
        <time>1970-01-01T01:07:56.000Z</time>
      </trkpt>
      <trkpt lat="45.41924" lon="4.61489">
        <ele>996.4</ele>
        <time>1970-01-01T01:07:57.000Z</time>
      </trkpt>
      <trkpt lat="45.41926" lon="4.61494">
        <ele>997</ele>
        <time>1970-01-01T01:07:58.000Z</time>
      </trkpt>
      <trkpt lat="45.41927" lon="4.61499">
        <ele>997.4</ele>
        <time>1970-01-01T01:07:59.000Z</time>
      </trkpt>
      <trkpt lat="45.41933" lon="4.61517">
        <ele>997.8</ele>
        <time>1970-01-01T01:08:03.000Z</time>
      </trkpt>
      <trkpt lat="45.41934" lon="4.61522">
        <ele>998.2</ele>
        <time>1970-01-01T01:08:04.000Z</time>
      </trkpt>
      <trkpt lat="45.41935" lon="4.61526">
        <ele>998.6</ele>
        <time>1970-01-01T01:08:05.000Z</time>
      </trkpt>
      <trkpt lat="45.41935" lon="4.61532">
        <ele>999</ele>
        <time>1970-01-01T01:08:06.000Z</time>
      </trkpt>
      <trkpt lat="45.41935" lon="4.61536">
        <ele>999.4</ele>
        <time>1970-01-01T01:08:07.000Z</time>
      </trkpt>
      <trkpt lat="45.41935" lon="4.61546">
        <ele>999.4</ele>
        <time>1970-01-01T01:08:09.000Z</time>
      </trkpt>
      <trkpt lat="45.41935" lon="4.61587">
        <ele>999.4</ele>
        <time>1970-01-01T01:08:17.000Z</time>
      </trkpt>
      <trkpt lat="45.41933" lon="4.61603">
        <ele>999.8</ele>
        <time>1970-01-01T01:08:20.000Z</time>
      </trkpt>
      <trkpt lat="45.41932" lon="4.61608">
        <ele>1000.4</ele>
        <time>1970-01-01T01:08:21.000Z</time>
      </trkpt>
      <trkpt lat="45.41931" lon="4.61613">
        <ele>1000.8</ele>
        <time>1970-01-01T01:08:22.000Z</time>
      </trkpt>
      <trkpt lat="45.4193" lon="4.61617">
        <ele>1001.2</ele>
        <time>1970-01-01T01:08:23.000Z</time>
      </trkpt>
      <trkpt lat="45.41929" lon="4.61621">
        <ele>1001.6</ele>
        <time>1970-01-01T01:08:24.000Z</time>
      </trkpt>
      <trkpt lat="45.41925" lon="4.61638">
        <ele>1001.6</ele>
        <time>1970-01-01T01:08:27.000Z</time>
      </trkpt>
      <trkpt lat="45.41922" lon="4.61643">
        <ele>1001.6</ele>
        <time>1970-01-01T01:08:28.000Z</time>
      </trkpt>
      <trkpt lat="45.41915" lon="4.61658">
        <ele>1001.6</ele>
        <time>1970-01-01T01:08:31.000Z</time>
      </trkpt>
      <trkpt lat="45.41906" lon="4.61667">
        <ele>1001.6</ele>
        <time>1970-01-01T01:08:34.000Z</time>
      </trkpt>
      <trkpt lat="45.41893" lon="4.61681">
        <ele>1002</ele>
        <time>1970-01-01T01:08:39.000Z</time>
      </trkpt>
      <trkpt lat="45.4189" lon="4.61683">
        <ele>1002.4</ele>
        <time>1970-01-01T01:08:40.000Z</time>
      </trkpt>
      <trkpt lat="45.41886" lon="4.61685">
        <ele>1002.8</ele>
        <time>1970-01-01T01:08:41.000Z</time>
      </trkpt>
      <trkpt lat="45.41883" lon="4.61687">
        <ele>1003.2</ele>
        <time>1970-01-01T01:08:42.000Z</time>
      </trkpt>
      <trkpt lat="45.4188" lon="4.61689">
        <ele>1003.6</ele>
        <time>1970-01-01T01:08:43.000Z</time>
      </trkpt>
      <trkpt lat="45.41871" lon="4.61695">
        <ele>1003.6</ele>
        <time>1970-01-01T01:08:46.000Z</time>
      </trkpt>
      <trkpt lat="45.41858" lon="4.61699">
        <ele>1004</ele>
        <time>1970-01-01T01:08:50.000Z</time>
      </trkpt>
      <trkpt lat="45.41855" lon="4.61699">
        <ele>1004.8</ele>
        <time>1970-01-01T01:08:51.000Z</time>
      </trkpt>
      <trkpt lat="45.41852" lon="4.61699">
        <ele>1005.4</ele>
        <time>1970-01-01T01:08:52.000Z</time>
      </trkpt>
      <trkpt lat="45.41848" lon="4.617">
        <ele>1005.8</ele>
        <time>1970-01-01T01:08:53.000Z</time>
      </trkpt>
      <trkpt lat="45.41837" lon="4.61703">
        <ele>1005.8</ele>
        <time>1970-01-01T01:08:56.000Z</time>
      </trkpt>
      <trkpt lat="45.41819" lon="4.61703">
        <ele>1005.8</ele>
        <time>1970-01-01T01:09:02.000Z</time>
      </trkpt>
      <trkpt lat="45.41809" lon="4.61698">
        <ele>1005.8</ele>
        <time>1970-01-01T01:09:06.000Z</time>
      </trkpt>
      <trkpt lat="45.41795" lon="4.61694">
        <ele>1006.2</ele>
        <time>1970-01-01T01:09:10.000Z</time>
      </trkpt>
      <trkpt lat="45.41792" lon="4.61694">
        <ele>1006.6</ele>
        <time>1970-01-01T01:09:11.000Z</time>
      </trkpt>
      <trkpt lat="45.4179" lon="4.61693">
        <ele>1007</ele>
        <time>1970-01-01T01:09:12.000Z</time>
      </trkpt>
      <trkpt lat="45.41787" lon="4.61692">
        <ele>1007.4</ele>
        <time>1970-01-01T01:09:13.000Z</time>
      </trkpt>
      <trkpt lat="45.41785" lon="4.61691">
        <ele>1007.8</ele>
        <time>1970-01-01T01:09:14.000Z</time>
      </trkpt>
      <trkpt lat="45.41779" lon="4.61689">
        <ele>1008.2</ele>
        <time>1970-01-01T01:09:16.000Z</time>
      </trkpt>
      <trkpt lat="45.41776" lon="4.61689">
        <ele>1008.6</ele>
        <time>1970-01-01T01:09:17.000Z</time>
      </trkpt>
      <trkpt lat="45.41773" lon="4.61688">
        <ele>1009</ele>
        <time>1970-01-01T01:09:18.000Z</time>
      </trkpt>
      <trkpt lat="45.41771" lon="4.61687">
        <ele>1009.4</ele>
        <time>1970-01-01T01:09:19.000Z</time>
      </trkpt>
      <trkpt lat="45.41768" lon="4.61687">
        <ele>1009.8</ele>
        <time>1970-01-01T01:09:20.000Z</time>
      </trkpt>
      <trkpt lat="45.41758" lon="4.61686">
        <ele>1009.8</ele>
        <time>1970-01-01T01:09:23.000Z</time>
      </trkpt>
      <trkpt lat="45.41747" lon="4.61682">
        <ele>1009.8</ele>
        <time>1970-01-01T01:09:27.000Z</time>
      </trkpt>
      <trkpt lat="45.41727" lon="4.61678">
        <ele>1009.8</ele>
        <time>1970-01-01T01:09:34.000Z</time>
      </trkpt>
      <trkpt lat="45.41724" lon="4.61677">
        <ele>1010.4</ele>
        <time>1970-01-01T01:09:35.000Z</time>
      </trkpt>
      <trkpt lat="45.41722" lon="4.61677">
        <ele>1010.8</ele>
        <time>1970-01-01T01:09:36.000Z</time>
      </trkpt>
      <trkpt lat="45.41719" lon="4.61677">
        <ele>1011.2</ele>
        <time>1970-01-01T01:09:37.000Z</time>
      </trkpt>
      <trkpt lat="45.41716" lon="4.61677">
        <ele>1011.6</ele>
        <time>1970-01-01T01:09:38.000Z</time>
      </trkpt>
      <trkpt lat="45.41714" lon="4.61678">
        <ele>1012</ele>
        <time>1970-01-01T01:09:39.000Z</time>
      </trkpt>
      <trkpt lat="45.41711" lon="4.61678">
        <ele>1012</ele>
        <time>1970-01-01T01:09:40.000Z</time>
      </trkpt>
      <trkpt lat="45.41696" lon="4.6168">
        <ele>1012</ele>
        <time>1970-01-01T01:09:46.000Z</time>
      </trkpt>
      <trkpt lat="45.41689" lon="4.61679">
        <ele>1012.4</ele>
        <time>1970-01-01T01:09:48.000Z</time>
      </trkpt>
      <trkpt lat="45.41687" lon="4.61679">
        <ele>1012.8</ele>
        <time>1970-01-01T01:09:49.000Z</time>
      </trkpt>
      <trkpt lat="45.41684" lon="4.6168">
        <ele>1013.4</ele>
        <time>1970-01-01T01:09:50.000Z</time>
      </trkpt>
      <trkpt lat="45.41682" lon="4.61681">
        <ele>1013.8</ele>
        <time>1970-01-01T01:09:51.000Z</time>
      </trkpt>
      <trkpt lat="45.4168" lon="4.61683">
        <ele>1014.2</ele>
        <time>1970-01-01T01:09:52.000Z</time>
      </trkpt>
      <trkpt lat="45.41671" lon="4.61687">
        <ele>1014.2</ele>
        <time>1970-01-01T01:09:56.000Z</time>
      </trkpt>
      <trkpt lat="45.41667" lon="4.61691">
        <ele>1014.6</ele>
        <time>1970-01-01T01:09:58.000Z</time>
      </trkpt>
      <trkpt lat="45.41664" lon="4.61693">
        <ele>1015</ele>
        <time>1970-01-01T01:09:59.000Z</time>
      </trkpt>
      <trkpt lat="45.41662" lon="4.61695">
        <ele>1015.4</ele>
        <time>1970-01-01T01:10:00.000Z</time>
      </trkpt>
      <trkpt lat="45.4166" lon="4.61697">
        <ele>1015.8</ele>
        <time>1970-01-01T01:10:01.000Z</time>
      </trkpt>
      <trkpt lat="45.41658" lon="4.61697">
        <ele>1016.2</ele>
        <time>1970-01-01T01:10:02.000Z</time>
      </trkpt>
      <trkpt lat="45.41656" lon="4.61698">
        <ele>1016.2</ele>
        <time>1970-01-01T01:10:03.000Z</time>
      </trkpt>
      <trkpt lat="45.41642" lon="4.61705">
        <ele>1016.6</ele>
        <time>1970-01-01T01:10:08.000Z</time>
      </trkpt>
      <trkpt lat="45.41639" lon="4.61707">
        <ele>1017</ele>
        <time>1970-01-01T01:10:09.000Z</time>
      </trkpt>
      <trkpt lat="45.41636" lon="4.61709">
        <ele>1017.6</ele>
        <time>1970-01-01T01:10:10.000Z</time>
      </trkpt>
      <trkpt lat="45.41632" lon="4.61711">
        <ele>1018</ele>
        <time>1970-01-01T01:10:11.000Z</time>
      </trkpt>
      <trkpt lat="45.41629" lon="4.61713">
        <ele>1018.4</ele>
        <time>1970-01-01T01:10:12.000Z</time>
      </trkpt>
      <trkpt lat="45.41627" lon="4.61714">
        <ele>1018.4</ele>
        <time>1970-01-01T01:10:13.000Z</time>
      </trkpt>
      <trkpt lat="45.41613" lon="4.61719">
        <ele>1018.4</ele>
        <time>1970-01-01T01:10:18.000Z</time>
      </trkpt>
      <trkpt lat="45.41603" lon="4.61724">
        <ele>1018.8</ele>
        <time>1970-01-01T01:10:22.000Z</time>
      </trkpt>
      <trkpt lat="45.416" lon="4.61726">
        <ele>1019.2</ele>
        <time>1970-01-01T01:10:23.000Z</time>
      </trkpt>
      <trkpt lat="45.41598" lon="4.61728">
        <ele>1019.6</ele>
        <time>1970-01-01T01:10:24.000Z</time>
      </trkpt>
      <trkpt lat="45.41596" lon="4.6173">
        <ele>1020</ele>
        <time>1970-01-01T01:10:25.000Z</time>
      </trkpt>
      <trkpt lat="45.41593" lon="4.61731">
        <ele>1020.4</ele>
        <time>1970-01-01T01:10:26.000Z</time>
      </trkpt>
      <trkpt lat="45.41588" lon="4.61734">
        <ele>1020.4</ele>
        <time>1970-01-01T01:10:28.000Z</time>
      </trkpt>
      <trkpt lat="45.41577" lon="4.6174">
        <ele>1020.8</ele>
        <time>1970-01-01T01:10:32.000Z</time>
      </trkpt>
      <trkpt lat="45.41574" lon="4.61742">
        <ele>1021.2</ele>
        <time>1970-01-01T01:10:33.000Z</time>
      </trkpt>
      <trkpt lat="45.41572" lon="4.61744">
        <ele>1021.8</ele>
        <time>1970-01-01T01:10:34.000Z</time>
      </trkpt>
      <trkpt lat="45.41571" lon="4.61746">
        <ele>1022.2</ele>
        <time>1970-01-01T01:10:35.000Z</time>
      </trkpt>
      <trkpt lat="45.41569" lon="4.61747">
        <ele>1022.6</ele>
        <time>1970-01-01T01:10:36.000Z</time>
      </trkpt>
      <trkpt lat="45.41557" lon="4.6175">
        <ele>1022.6</ele>
        <time>1970-01-01T01:10:40.000Z</time>
      </trkpt>
      <trkpt lat="45.41542" lon="4.61754">
        <ele>1022.6</ele>
        <time>1970-01-01T01:10:46.000Z</time>
      </trkpt>
      <trkpt lat="45.41537" lon="4.61756">
        <ele>1023</ele>
        <time>1970-01-01T01:10:48.000Z</time>
      </trkpt>
      <trkpt lat="45.41534" lon="4.61757">
        <ele>1023.4</ele>
        <time>1970-01-01T01:10:49.000Z</time>
      </trkpt>
      <trkpt lat="45.41531" lon="4.61757">
        <ele>1023.8</ele>
        <time>1970-01-01T01:10:50.000Z</time>
      </trkpt>
      <trkpt lat="45.41528" lon="4.61756">
        <ele>1024.2</ele>
        <time>1970-01-01T01:10:51.000Z</time>
      </trkpt>
      <trkpt lat="45.41525" lon="4.61757">
        <ele>1024.6</ele>
        <time>1970-01-01T01:10:52.000Z</time>
      </trkpt>
      <trkpt lat="45.41506" lon="4.61758">
        <ele>1024.6</ele>
        <time>1970-01-01T01:10:58.000Z</time>
      </trkpt>
      <trkpt lat="45.41488" lon="4.61758">
        <ele>1024.6</ele>
        <time>1970-01-01T01:11:04.000Z</time>
      </trkpt>
      <trkpt lat="45.41486" lon="4.61759">
        <ele>1025</ele>
        <time>1970-01-01T01:11:05.000Z</time>
      </trkpt>
      <trkpt lat="45.41483" lon="4.61761">
        <ele>1025.6</ele>
        <time>1970-01-01T01:11:06.000Z</time>
      </trkpt>
      <trkpt lat="45.4148" lon="4.61761">
        <ele>1026</ele>
        <time>1970-01-01T01:11:07.000Z</time>
      </trkpt>
      <trkpt lat="45.41477" lon="4.61761">
        <ele>1026.4</ele>
        <time>1970-01-01T01:11:08.000Z</time>
      </trkpt>
      <trkpt lat="45.41474" lon="4.61762">
        <ele>1026.8</ele>
        <time>1970-01-01T01:11:09.000Z</time>
      </trkpt>
      <trkpt lat="45.4146" lon="4.61767">
        <ele>1026.8</ele>
        <time>1970-01-01T01:11:14.000Z</time>
      </trkpt>
      <trkpt lat="45.4144" lon="4.61775">
        <ele>1027.4</ele>
        <time>1970-01-01T01:11:20.000Z</time>
      </trkpt>
      <trkpt lat="45.41437" lon="4.61777">
        <ele>1027.8</ele>
        <time>1970-01-01T01:11:21.000Z</time>
      </trkpt>
      <trkpt lat="45.41434" lon="4.61779">
        <ele>1028.2</ele>
        <time>1970-01-01T01:11:22.000Z</time>
      </trkpt>
      <trkpt lat="45.41431" lon="4.61781">
        <ele>1028.6</ele>
        <time>1970-01-01T01:11:23.000Z</time>
      </trkpt>
      <trkpt lat="45.41427" lon="4.61782">
        <ele>1029</ele>
        <time>1970-01-01T01:11:24.000Z</time>
      </trkpt>
      <trkpt lat="45.41419" lon="4.61785">
        <ele>1029</ele>
        <time>1970-01-01T01:11:27.000Z</time>
      </trkpt>
      <trkpt lat="45.41405" lon="4.61791">
        <ele>1029</ele>
        <time>1970-01-01T01:11:32.000Z</time>
      </trkpt>
      <trkpt lat="45.41394" lon="4.61796">
        <ele>1029.4</ele>
        <time>1970-01-01T01:11:36.000Z</time>
      </trkpt>
      <trkpt lat="45.41392" lon="4.61797">
        <ele>1029.8</ele>
        <time>1970-01-01T01:11:37.000Z</time>
      </trkpt>
      <trkpt lat="45.41389" lon="4.61798">
        <ele>1030.2</ele>
        <time>1970-01-01T01:11:38.000Z</time>
      </trkpt>
      <trkpt lat="45.41387" lon="4.618">
        <ele>1030.6</ele>
        <time>1970-01-01T01:11:39.000Z</time>
      </trkpt>
      <trkpt lat="45.41383" lon="4.618">
        <ele>1031</ele>
        <time>1970-01-01T01:11:40.000Z</time>
      </trkpt>
      <trkpt lat="45.41369" lon="4.61806">
        <ele>1031</ele>
        <time>1970-01-01T01:11:45.000Z</time>
      </trkpt>
      <trkpt lat="45.41354" lon="4.61809">
        <ele>1031.6</ele>
        <time>1970-01-01T01:11:50.000Z</time>
      </trkpt>
      <trkpt lat="45.41351" lon="4.61809">
        <ele>1032</ele>
        <time>1970-01-01T01:11:51.000Z</time>
      </trkpt>
      <trkpt lat="45.41347" lon="4.61809">
        <ele>1032.4</ele>
        <time>1970-01-01T01:11:52.000Z</time>
      </trkpt>
      <trkpt lat="45.41344" lon="4.6181">
        <ele>1032.8</ele>
        <time>1970-01-01T01:11:53.000Z</time>
      </trkpt>
      <trkpt lat="45.41341" lon="4.61811">
        <ele>1033.2</ele>
        <time>1970-01-01T01:11:54.000Z</time>
      </trkpt>
      <trkpt lat="45.41332" lon="4.61813">
        <ele>1033.2</ele>
        <time>1970-01-01T01:11:57.000Z</time>
      </trkpt>
      <trkpt lat="45.41329" lon="4.61813">
        <ele>1033.8</ele>
        <time>1970-01-01T01:11:58.000Z</time>
      </trkpt>
      <trkpt lat="45.41325" lon="4.61814">
        <ele>1034.2</ele>
        <time>1970-01-01T01:11:59.000Z</time>
      </trkpt>
      <trkpt lat="45.41322" lon="4.61815">
        <ele>1034.6</ele>
        <time>1970-01-01T01:12:00.000Z</time>
      </trkpt>
      <trkpt lat="45.41318" lon="4.61815">
        <ele>1035</ele>
        <time>1970-01-01T01:12:01.000Z</time>
      </trkpt>
      <trkpt lat="45.41315" lon="4.61816">
        <ele>1035.6</ele>
        <time>1970-01-01T01:12:02.000Z</time>
      </trkpt>
      <trkpt lat="45.41312" lon="4.61817">
        <ele>1035.6</ele>
        <time>1970-01-01T01:12:03.000Z</time>
      </trkpt>
      <trkpt lat="45.41306" lon="4.6182">
        <ele>1036</ele>
        <time>1970-01-01T01:12:05.000Z</time>
      </trkpt>
      <trkpt lat="45.41302" lon="4.6182">
        <ele>1036.4</ele>
        <time>1970-01-01T01:12:06.000Z</time>
      </trkpt>
      <trkpt lat="45.41298" lon="4.61821">
        <ele>1037</ele>
        <time>1970-01-01T01:12:07.000Z</time>
      </trkpt>
      <trkpt lat="45.41295" lon="4.61822">
        <ele>1037.4</ele>
        <time>1970-01-01T01:12:08.000Z</time>
      </trkpt>
      <trkpt lat="45.41292" lon="4.61823">
        <ele>1038</ele>
        <time>1970-01-01T01:12:09.000Z</time>
      </trkpt>
      <trkpt lat="45.4128" lon="4.61831">
        <ele>1038.4</ele>
        <time>1970-01-01T01:12:13.000Z</time>
      </trkpt>
      <trkpt lat="45.41277" lon="4.61831">
        <ele>1038.8</ele>
        <time>1970-01-01T01:12:14.000Z</time>
      </trkpt>
      <trkpt lat="45.41273" lon="4.61832">
        <ele>1039.2</ele>
        <time>1970-01-01T01:12:15.000Z</time>
      </trkpt>
      <trkpt lat="45.4127" lon="4.61834">
        <ele>1039.6</ele>
        <time>1970-01-01T01:12:16.000Z</time>
      </trkpt>
      <trkpt lat="45.41267" lon="4.61835">
        <ele>1040</ele>
        <time>1970-01-01T01:12:17.000Z</time>
      </trkpt>
      <trkpt lat="45.41259" lon="4.61836">
        <ele>1040</ele>
        <time>1970-01-01T01:12:19.000Z</time>
      </trkpt>
      <trkpt lat="45.41245" lon="4.61839">
        <ele>1040.4</ele>
        <time>1970-01-01T01:12:23.000Z</time>
      </trkpt>
      <trkpt lat="45.41242" lon="4.6184">
        <ele>1040.8</ele>
        <time>1970-01-01T01:12:24.000Z</time>
      </trkpt>
      <trkpt lat="45.41239" lon="4.61841">
        <ele>1041.2</ele>
        <time>1970-01-01T01:12:25.000Z</time>
      </trkpt>
      <trkpt lat="45.41236" lon="4.61842">
        <ele>1041.8</ele>
        <time>1970-01-01T01:12:26.000Z</time>
      </trkpt>
      <trkpt lat="45.41232" lon="4.61842">
        <ele>1042.2</ele>
        <time>1970-01-01T01:12:27.000Z</time>
      </trkpt>
      <trkpt lat="45.41223" lon="4.61844">
        <ele>1042.2</ele>
        <time>1970-01-01T01:12:30.000Z</time>
      </trkpt>
      <trkpt lat="45.41205" lon="4.61847">
        <ele>1042.6</ele>
        <time>1970-01-01T01:12:37.000Z</time>
      </trkpt>
      <trkpt lat="45.41204" lon="4.61845">
        <ele>1043</ele>
        <time>1970-01-01T01:12:38.000Z</time>
      </trkpt>
      <trkpt lat="45.41204" lon="4.61844">
        <ele>1043.4</ele>
        <time>1970-01-01T01:12:39.000Z</time>
      </trkpt>
      <trkpt lat="45.41204" lon="4.61842">
        <ele>1043.8</ele>
        <time>1970-01-01T01:12:40.000Z</time>
      </trkpt>
      <trkpt lat="45.41204" lon="4.61841">
        <ele>1044.2</ele>
        <time>1970-01-01T01:12:41.000Z</time>
      </trkpt>
      <trkpt lat="45.41209" lon="4.61841">
        <ele>1044.2</ele>
        <time>1970-01-01T01:12:45.000Z</time>
      </trkpt>
      <trkpt lat="45.41211" lon="4.61841">
        <ele>1044.2</ele>
        <time>1970-01-01T01:12:47.000Z</time>
      </trkpt>
      <trkpt lat="45.41215" lon="4.6184">
        <ele>1044.2</ele>
        <time>1970-01-01T01:12:50.000Z</time>
      </trkpt>
      <trkpt lat="45.41218" lon="4.61838">
        <ele>1044.2</ele>
        <time>1970-01-01T01:12:52.000Z</time>
      </trkpt>
      <trkpt lat="45.41227" lon="4.61836">
        <ele>1044.6</ele>
        <time>1970-01-01T01:12:56.000Z</time>
      </trkpt>
      <trkpt lat="45.41229" lon="4.61835">
        <ele>1045.6</ele>
        <time>1970-01-01T01:12:57.000Z</time>
      </trkpt>
      <trkpt lat="45.41231" lon="4.61834">
        <ele>1046</ele>
        <time>1970-01-01T01:12:58.000Z</time>
      </trkpt>
      <trkpt lat="45.41233" lon="4.61833">
        <ele>1046.4</ele>
        <time>1970-01-01T01:12:59.000Z</time>
      </trkpt>
      <trkpt lat="45.41236" lon="4.6183">
        <ele>1046.4</ele>
        <time>1970-01-01T01:13:02.000Z</time>
      </trkpt>
      <trkpt lat="45.4125" lon="4.61824">
        <ele>1046.4</ele>
        <time>1970-01-01T01:13:09.000Z</time>
      </trkpt>
      <trkpt lat="45.41253" lon="4.61821">
        <ele>1046.8</ele>
        <time>1970-01-01T01:13:11.000Z</time>
      </trkpt>
      <trkpt lat="45.41255" lon="4.6182">
        <ele>1047.2</ele>
        <time>1970-01-01T01:13:12.000Z</time>
      </trkpt>
      <trkpt lat="45.41257" lon="4.61819">
        <ele>1047.6</ele>
        <time>1970-01-01T01:13:13.000Z</time>
      </trkpt>
      <trkpt lat="45.41258" lon="4.61818">
        <ele>1048</ele>
        <time>1970-01-01T01:13:14.000Z</time>
      </trkpt>
      <trkpt lat="45.4126" lon="4.61817">
        <ele>1048.4</ele>
        <time>1970-01-01T01:13:15.000Z</time>
      </trkpt>
      <trkpt lat="45.41269" lon="4.61811">
        <ele>1048.4</ele>
        <time>1970-01-01T01:13:20.000Z</time>
      </trkpt>
      <trkpt lat="45.41275" lon="4.61807">
        <ele>1048.8</ele>
        <time>1970-01-01T01:13:23.000Z</time>
      </trkpt>
      <trkpt lat="45.41276" lon="4.61806">
        <ele>1049.2</ele>
        <time>1970-01-01T01:13:24.000Z</time>
      </trkpt>
      <trkpt lat="45.41278" lon="4.61805">
        <ele>1049.6</ele>
        <time>1970-01-01T01:13:25.000Z</time>
      </trkpt>
      <trkpt lat="45.4128" lon="4.61804">
        <ele>1050</ele>
        <time>1970-01-01T01:13:26.000Z</time>
      </trkpt>
      <trkpt lat="45.41282" lon="4.61802">
        <ele>1050.4</ele>
        <time>1970-01-01T01:13:27.000Z</time>
      </trkpt>
      <trkpt lat="45.41284" lon="4.61802">
        <ele>1050.4</ele>
        <time>1970-01-01T01:13:28.000Z</time>
      </trkpt>
      <trkpt lat="45.41294" lon="4.61794">
        <ele>1050.4</ele>
        <time>1970-01-01T01:13:34.000Z</time>
      </trkpt>
      <trkpt lat="45.41296" lon="4.61792">
        <ele>1050.4</ele>
        <time>1970-01-01T01:13:35.000Z</time>
      </trkpt>
      <trkpt lat="45.413" lon="4.61791">
        <ele>1051</ele>
        <time>1970-01-01T01:13:37.000Z</time>
      </trkpt>
      <trkpt lat="45.41302" lon="4.61789">
        <ele>1051.4</ele>
        <time>1970-01-01T01:13:38.000Z</time>
      </trkpt>
      <trkpt lat="45.41304" lon="4.61788">
        <ele>1051.8</ele>
        <time>1970-01-01T01:13:39.000Z</time>
      </trkpt>
      <trkpt lat="45.41306" lon="4.61787">
        <ele>1052.2</ele>
        <time>1970-01-01T01:13:40.000Z</time>
      </trkpt>
      <trkpt lat="45.41307" lon="4.61785">
        <ele>1052.6</ele>
        <time>1970-01-01T01:13:41.000Z</time>
      </trkpt>
      <trkpt lat="45.41315" lon="4.61776">
        <ele>1053.6</ele>
        <time>1970-01-01T01:13:46.000Z</time>
      </trkpt>
      <trkpt lat="45.41316" lon="4.61774">
        <ele>1054</ele>
        <time>1970-01-01T01:13:47.000Z</time>
      </trkpt>
      <trkpt lat="45.41318" lon="4.61773">
        <ele>1054.6</ele>
        <time>1970-01-01T01:13:48.000Z</time>
      </trkpt>
      <trkpt lat="45.4132" lon="4.61772">
        <ele>1055</ele>
        <time>1970-01-01T01:13:49.000Z</time>
      </trkpt>
      <trkpt lat="45.41327" lon="4.61766">
        <ele>1055</ele>
        <time>1970-01-01T01:13:53.000Z</time>
      </trkpt>
      <trkpt lat="45.41332" lon="4.61763">
        <ele>1055.4</ele>
        <time>1970-01-01T01:13:56.000Z</time>
      </trkpt>
      <trkpt lat="45.41332" lon="4.6176">
        <ele>1055.8</ele>
        <time>1970-01-01T01:13:57.000Z</time>
      </trkpt>
      <trkpt lat="45.41334" lon="4.61759">
        <ele>1056.2</ele>
        <time>1970-01-01T01:13:58.000Z</time>
      </trkpt>
      <trkpt lat="45.41336" lon="4.61758">
        <ele>1056.8</ele>
        <time>1970-01-01T01:13:59.000Z</time>
      </trkpt>
      <trkpt lat="45.41338" lon="4.61756">
        <ele>1057.2</ele>
        <time>1970-01-01T01:14:00.000Z</time>
      </trkpt>
      <trkpt lat="45.41349" lon="4.61746">
        <ele>1057.2</ele>
        <time>1970-01-01T01:14:06.000Z</time>
      </trkpt>
      <trkpt lat="45.41351" lon="4.61744">
        <ele>1057.6</ele>
        <time>1970-01-01T01:14:07.000Z</time>
      </trkpt>
      <trkpt lat="45.41353" lon="4.61742">
        <ele>1058</ele>
        <time>1970-01-01T01:14:08.000Z</time>
      </trkpt>
      <trkpt lat="45.41355" lon="4.6174">
        <ele>1058.4</ele>
        <time>1970-01-01T01:14:09.000Z</time>
      </trkpt>
      <trkpt lat="45.41356" lon="4.61739">
        <ele>1058.8</ele>
        <time>1970-01-01T01:14:10.000Z</time>
      </trkpt>
      <trkpt lat="45.41358" lon="4.61736">
        <ele>1059.2</ele>
        <time>1970-01-01T01:14:11.000Z</time>
      </trkpt>
      <trkpt lat="45.41362" lon="4.61732">
        <ele>1059.2</ele>
        <time>1970-01-01T01:14:13.000Z</time>
      </trkpt>
      <trkpt lat="45.41375" lon="4.61722">
        <ele>1059.6</ele>
        <time>1970-01-01T01:14:19.000Z</time>
      </trkpt>
      <trkpt lat="45.41377" lon="4.61721">
        <ele>1060.2</ele>
        <time>1970-01-01T01:14:20.000Z</time>
      </trkpt>
      <trkpt lat="45.41378" lon="4.61719">
        <ele>1060.6</ele>
        <time>1970-01-01T01:14:21.000Z</time>
      </trkpt>
      <trkpt lat="45.4138" lon="4.61717">
        <ele>1061</ele>
        <time>1970-01-01T01:14:22.000Z</time>
      </trkpt>
      <trkpt lat="45.41382" lon="4.61716">
        <ele>1061.4</ele>
        <time>1970-01-01T01:14:23.000Z</time>
      </trkpt>
      <trkpt lat="45.41388" lon="4.61712">
        <ele>1061.4</ele>
        <time>1970-01-01T01:14:26.000Z</time>
      </trkpt>
      <trkpt lat="45.41397" lon="4.61704">
        <ele>1061.8</ele>
        <time>1970-01-01T01:14:31.000Z</time>
      </trkpt>
      <trkpt lat="45.414" lon="4.61702">
        <ele>1062.2</ele>
        <time>1970-01-01T01:14:32.000Z</time>
      </trkpt>
      <trkpt lat="45.41402" lon="4.617">
        <ele>1062.6</ele>
        <time>1970-01-01T01:14:33.000Z</time>
      </trkpt>
      <trkpt lat="45.41404" lon="4.61699">
        <ele>1063</ele>
        <time>1970-01-01T01:14:34.000Z</time>
      </trkpt>
      <trkpt lat="45.41406" lon="4.61697">
        <ele>1063.4</ele>
        <time>1970-01-01T01:14:35.000Z</time>
      </trkpt>
      <trkpt lat="45.41413" lon="4.61693">
        <ele>1063.8</ele>
        <time>1970-01-01T01:14:38.000Z</time>
      </trkpt>
      <trkpt lat="45.41416" lon="4.61692">
        <ele>1064.2</ele>
        <time>1970-01-01T01:14:39.000Z</time>
      </trkpt>
      <trkpt lat="45.41418" lon="4.61691">
        <ele>1064.8</ele>
        <time>1970-01-01T01:14:40.000Z</time>
      </trkpt>
      <trkpt lat="45.4142" lon="4.61691">
        <ele>1065.2</ele>
        <time>1970-01-01T01:14:41.000Z</time>
      </trkpt>
      <trkpt lat="45.41422" lon="4.6169">
        <ele>1065.6</ele>
        <time>1970-01-01T01:14:42.000Z</time>
      </trkpt>
      <trkpt lat="45.41428" lon="4.61686">
        <ele>1065.6</ele>
        <time>1970-01-01T01:14:45.000Z</time>
      </trkpt>
      <trkpt lat="45.41442" lon="4.61682">
        <ele>1066</ele>
        <time>1970-01-01T01:14:51.000Z</time>
      </trkpt>
      <trkpt lat="45.41444" lon="4.61682">
        <ele>1066.4</ele>
        <time>1970-01-01T01:14:52.000Z</time>
      </trkpt>
      <trkpt lat="45.41446" lon="4.61681">
        <ele>1066.8</ele>
        <time>1970-01-01T01:14:53.000Z</time>
      </trkpt>
      <trkpt lat="45.41449" lon="4.61681">
        <ele>1067.2</ele>
        <time>1970-01-01T01:14:54.000Z</time>
      </trkpt>
      <trkpt lat="45.41451" lon="4.6168">
        <ele>1067.6</ele>
        <time>1970-01-01T01:14:55.000Z</time>
      </trkpt>
      <trkpt lat="45.4146" lon="4.6168">
        <ele>1067.6</ele>
        <time>1970-01-01T01:14:58.000Z</time>
      </trkpt>
      <trkpt lat="45.41476" lon="4.61679">
        <ele>1067.6</ele>
        <time>1970-01-01T01:15:04.000Z</time>
      </trkpt>
      <trkpt lat="45.41478" lon="4.61677">
        <ele>1068</ele>
        <time>1970-01-01T01:15:05.000Z</time>
      </trkpt>
      <trkpt lat="45.41481" lon="4.61677">
        <ele>1068.4</ele>
        <time>1970-01-01T01:15:06.000Z</time>
      </trkpt>
      <trkpt lat="45.41484" lon="4.61675">
        <ele>1068.8</ele>
        <time>1970-01-01T01:15:07.000Z</time>
      </trkpt>
      <trkpt lat="45.41486" lon="4.61674">
        <ele>1069.2</ele>
        <time>1970-01-01T01:15:08.000Z</time>
      </trkpt>
      <trkpt lat="45.41489" lon="4.61673">
        <ele>1069.6</ele>
        <time>1970-01-01T01:15:09.000Z</time>
      </trkpt>
      <trkpt lat="45.41491" lon="4.61672">
        <ele>1069.6</ele>
        <time>1970-01-01T01:15:10.000Z</time>
      </trkpt>
      <trkpt lat="45.41503" lon="4.61666">
        <ele>1070.2</ele>
        <time>1970-01-01T01:15:15.000Z</time>
      </trkpt>
      <trkpt lat="45.41506" lon="4.61665">
        <ele>1070.6</ele>
        <time>1970-01-01T01:15:16.000Z</time>
      </trkpt>
      <trkpt lat="45.41508" lon="4.61664">
        <ele>1071</ele>
        <time>1970-01-01T01:15:17.000Z</time>
      </trkpt>
      <trkpt lat="45.41511" lon="4.61663">
        <ele>1071.4</ele>
        <time>1970-01-01T01:15:18.000Z</time>
      </trkpt>
      <trkpt lat="45.41514" lon="4.61661">
        <ele>1071.8</ele>
        <time>1970-01-01T01:15:19.000Z</time>
      </trkpt>
      <trkpt lat="45.41523" lon="4.61659">
        <ele>1071.8</ele>
        <time>1970-01-01T01:15:22.000Z</time>
      </trkpt>
      <trkpt lat="45.4153" lon="4.61655">
        <ele>1072.2</ele>
        <time>1970-01-01T01:15:25.000Z</time>
      </trkpt>
      <trkpt lat="45.41532" lon="4.61653">
        <ele>1072.6</ele>
        <time>1970-01-01T01:15:26.000Z</time>
      </trkpt>
      <trkpt lat="45.41534" lon="4.61652">
        <ele>1073</ele>
        <time>1970-01-01T01:15:27.000Z</time>
      </trkpt>
      <trkpt lat="45.41537" lon="4.6165">
        <ele>1073.4</ele>
        <time>1970-01-01T01:15:28.000Z</time>
      </trkpt>
      <trkpt lat="45.41539" lon="4.61648">
        <ele>1073.8</ele>
        <time>1970-01-01T01:15:29.000Z</time>
      </trkpt>
      <trkpt lat="45.41542" lon="4.61645">
        <ele>1073.8</ele>
        <time>1970-01-01T01:15:31.000Z</time>
      </trkpt>
      <trkpt lat="45.41559" lon="4.61634">
        <ele>1073.8</ele>
        <time>1970-01-01T01:15:38.000Z</time>
      </trkpt>
      <trkpt lat="45.41562" lon="4.6163">
        <ele>1074.2</ele>
        <time>1970-01-01T01:15:40.000Z</time>
      </trkpt>
      <trkpt lat="45.41565" lon="4.61628">
        <ele>1074.8</ele>
        <time>1970-01-01T01:15:41.000Z</time>
      </trkpt>
      <trkpt lat="45.41567" lon="4.61625">
        <ele>1075.2</ele>
        <time>1970-01-01T01:15:42.000Z</time>
      </trkpt>
      <trkpt lat="45.41569" lon="4.61623">
        <ele>1075.6</ele>
        <time>1970-01-01T01:15:43.000Z</time>
      </trkpt>
      <trkpt lat="45.41572" lon="4.6162">
        <ele>1076</ele>
        <time>1970-01-01T01:15:44.000Z</time>
      </trkpt>
      <trkpt lat="45.4158" lon="4.61612">
        <ele>1076</ele>
        <time>1970-01-01T01:15:48.000Z</time>
      </trkpt>
      <trkpt lat="45.41593" lon="4.61597">
        <ele>1076</ele>
        <time>1970-01-01T01:15:55.000Z</time>
      </trkpt>
      <trkpt lat="45.41594" lon="4.61595">
        <ele>1076.4</ele>
        <time>1970-01-01T01:15:56.000Z</time>
      </trkpt>
      <trkpt lat="45.41596" lon="4.61592">
        <ele>1076.8</ele>
        <time>1970-01-01T01:15:57.000Z</time>
      </trkpt>
      <trkpt lat="45.41598" lon="4.61589">
        <ele>1077.2</ele>
        <time>1970-01-01T01:15:58.000Z</time>
      </trkpt>
      <trkpt lat="45.41599" lon="4.61587">
        <ele>1077.6</ele>
        <time>1970-01-01T01:15:59.000Z</time>
      </trkpt>
      <trkpt lat="45.41601" lon="4.61584">
        <ele>1078</ele>
        <time>1970-01-01T01:16:00.000Z</time>
      </trkpt>
      <trkpt lat="45.41603" lon="4.61578">
        <ele>1078</ele>
        <time>1970-01-01T01:16:02.000Z</time>
      </trkpt>
      <trkpt lat="45.41613" lon="4.61559">
        <ele>1078</ele>
        <time>1970-01-01T01:16:09.000Z</time>
      </trkpt>
      <trkpt lat="45.41617" lon="4.61547">
        <ele>1079</ele>
        <time>1970-01-01T01:16:13.000Z</time>
      </trkpt>
      <trkpt lat="45.41618" lon="4.61544">
        <ele>1079.4</ele>
        <time>1970-01-01T01:16:14.000Z</time>
      </trkpt>
      <trkpt lat="45.41619" lon="4.61542">
        <ele>1079.8</ele>
        <time>1970-01-01T01:16:15.000Z</time>
      </trkpt>
      <trkpt lat="45.4162" lon="4.6154">
        <ele>1080.2</ele>
        <time>1970-01-01T01:16:16.000Z</time>
      </trkpt>
      <trkpt lat="45.41621" lon="4.61535">
        <ele>1080.6</ele>
        <time>1970-01-01T01:16:18.000Z</time>
      </trkpt>
      <trkpt lat="45.41621" lon="4.61533">
        <ele>1081</ele>
        <time>1970-01-01T01:16:19.000Z</time>
      </trkpt>
      <trkpt lat="45.41621" lon="4.61531">
        <ele>1081.4</ele>
        <time>1970-01-01T01:16:20.000Z</time>
      </trkpt>
      <trkpt lat="45.4162" lon="4.61531">
        <ele>1081.8</ele>
        <time>1970-01-01T01:16:21.000Z</time>
      </trkpt>
      <trkpt lat="45.41619" lon="4.61532">
        <ele>1082.2</ele>
        <time>1970-01-01T01:16:22.000Z</time>
      </trkpt>
      <trkpt lat="45.41612" lon="4.61539">
        <ele>1082.2</ele>
        <time>1970-01-01T01:16:26.000Z</time>
      </trkpt>
      <trkpt lat="45.4161" lon="4.61543">
        <ele>1082.2</ele>
        <time>1970-01-01T01:16:28.000Z</time>
      </trkpt>
      <trkpt lat="45.41607" lon="4.61547">
        <ele>1082.2</ele>
        <time>1970-01-01T01:16:30.000Z</time>
      </trkpt>
      <trkpt lat="45.41606" lon="4.61548">
        <ele>1082.8</ele>
        <time>1970-01-01T01:16:31.000Z</time>
      </trkpt>
      <trkpt lat="45.41605" lon="4.6155">
        <ele>1083.2</ele>
        <time>1970-01-01T01:16:32.000Z</time>
      </trkpt>
      <trkpt lat="45.41604" lon="4.61552">
        <ele>1083.6</ele>
        <time>1970-01-01T01:16:33.000Z</time>
      </trkpt>
      <trkpt lat="45.41602" lon="4.61554">
        <ele>1084.2</ele>
        <time>1970-01-01T01:16:34.000Z</time>
      </trkpt>
      <trkpt lat="45.416" lon="4.61556">
        <ele>1084.6</ele>
        <time>1970-01-01T01:16:35.000Z</time>
      </trkpt>
      <trkpt lat="45.41593" lon="4.61563">
        <ele>1084.6</ele>
        <time>1970-01-01T01:16:39.000Z</time>
      </trkpt>
      <trkpt lat="45.4159" lon="4.61565">
        <ele>1084.6</ele>
        <time>1970-01-01T01:16:40.000Z</time>
      </trkpt>
      <trkpt lat="45.41586" lon="4.61569">
        <ele>1085</ele>
        <time>1970-01-01T01:16:42.000Z</time>
      </trkpt>
      <trkpt lat="45.41583" lon="4.6157">
        <ele>1085.4</ele>
        <time>1970-01-01T01:16:43.000Z</time>
      </trkpt>
      <trkpt lat="45.4158" lon="4.61572">
        <ele>1085.8</ele>
        <time>1970-01-01T01:16:44.000Z</time>
      </trkpt>
      <trkpt lat="45.41578" lon="4.61573">
        <ele>1086.2</ele>
        <time>1970-01-01T01:16:45.000Z</time>
      </trkpt>
      <trkpt lat="45.41576" lon="4.61575">
        <ele>1086.6</ele>
        <time>1970-01-01T01:16:46.000Z</time>
      </trkpt>
      <trkpt lat="45.41562" lon="4.61582">
        <ele>1086.6</ele>
        <time>1970-01-01T01:16:51.000Z</time>
      </trkpt>
      <trkpt lat="45.41557" lon="4.61585">
        <ele>1087</ele>
        <time>1970-01-01T01:16:54.000Z</time>
      </trkpt>
      <trkpt lat="45.41557" lon="4.61585">
        <ele>1087.4</ele>
        <time>1970-01-01T01:16:55.000Z</time>
      </trkpt>
      <trkpt lat="45.41556" lon="4.61586">
        <ele>1088</ele>
        <time>1970-01-01T01:16:56.000Z</time>
      </trkpt>
      <trkpt lat="45.41556" lon="4.61586">
        <ele>1088.4</ele>
        <time>1970-01-01T01:16:57.000Z</time>
      </trkpt>
      <trkpt lat="45.41556" lon="4.61587">
        <ele>1088.8</ele>
        <time>1970-01-01T01:16:58.000Z</time>
      </trkpt>
      <trkpt lat="45.41556" lon="4.61587">
        <ele>1088.8</ele>
        <time>1970-01-01T01:17:02.000Z</time>
      </trkpt>
      <trkpt lat="45.41555" lon="4.61588">
        <ele>1088.8</ele>
        <time>1970-01-01T01:17:05.000Z</time>
      </trkpt>
      <trkpt lat="45.41552" lon="4.6159">
        <ele>1088.8</ele>
        <time>1970-01-01T01:17:07.000Z</time>
      </trkpt>
      <trkpt lat="45.4155" lon="4.61591">
        <ele>1089.2</ele>
        <time>1970-01-01T01:17:08.000Z</time>
      </trkpt>
      <trkpt lat="45.41548" lon="4.61591">
        <ele>1089.6</ele>
        <time>1970-01-01T01:17:09.000Z</time>
      </trkpt>
      <trkpt lat="45.41548" lon="4.61591">
        <ele>1090</ele>
        <time>1970-01-01T01:17:10.000Z</time>
      </trkpt>
      <trkpt lat="45.41548" lon="4.61589">
        <ele>1090.4</ele>
        <time>1970-01-01T01:17:11.000Z</time>
      </trkpt>
      <trkpt lat="45.41549" lon="4.61586">
        <ele>1090.8</ele>
        <time>1970-01-01T01:17:12.000Z</time>
      </trkpt>
      <trkpt lat="45.4155" lon="4.61583">
        <ele>1090.8</ele>
        <time>1970-01-01T01:17:14.000Z</time>
      </trkpt>
      <trkpt lat="45.41554" lon="4.61579">
        <ele>1091.2</ele>
        <time>1970-01-01T01:17:17.000Z</time>
      </trkpt>
      <trkpt lat="45.41555" lon="4.61577">
        <ele>1091.6</ele>
        <time>1970-01-01T01:17:18.000Z</time>
      </trkpt>
      <trkpt lat="45.41557" lon="4.61575">
        <ele>1092</ele>
        <time>1970-01-01T01:17:19.000Z</time>
      </trkpt>
      <trkpt lat="45.41559" lon="4.61574">
        <ele>1092.4</ele>
        <time>1970-01-01T01:17:20.000Z</time>
      </trkpt>
      <trkpt lat="45.4156" lon="4.61572">
        <ele>1092.8</ele>
        <time>1970-01-01T01:17:21.000Z</time>
      </trkpt>
      <trkpt lat="45.41562" lon="4.61565">
        <ele>1092.8</ele>
        <time>1970-01-01T01:17:24.000Z</time>
      </trkpt>
      <trkpt lat="45.41563" lon="4.61561">
        <ele>1093.4</ele>
        <time>1970-01-01T01:17:26.000Z</time>
      </trkpt>
      <trkpt lat="45.41565" lon="4.61559">
        <ele>1093.8</ele>
        <time>1970-01-01T01:17:27.000Z</time>
      </trkpt>
      <trkpt lat="45.41566" lon="4.61558">
        <ele>1094.6</ele>
        <time>1970-01-01T01:17:28.000Z</time>
      </trkpt>
      <trkpt lat="45.41567" lon="4.61557">
        <ele>1095</ele>
        <time>1970-01-01T01:17:29.000Z</time>
      </trkpt>
      <trkpt lat="45.41568" lon="4.61555">
        <ele>1095.6</ele>
        <time>1970-01-01T01:17:30.000Z</time>
      </trkpt>
      <trkpt lat="45.41568" lon="4.61553">
        <ele>1096</ele>
        <time>1970-01-01T01:17:31.000Z</time>
      </trkpt>
      <trkpt lat="45.41569" lon="4.61552">
        <ele>1096.6</ele>
        <time>1970-01-01T01:17:32.000Z</time>
      </trkpt>
      <trkpt lat="45.4157" lon="4.6155">
        <ele>1097</ele>
        <time>1970-01-01T01:17:33.000Z</time>
      </trkpt>
      <trkpt lat="45.4157" lon="4.61548">
        <ele>1097.6</ele>
        <time>1970-01-01T01:17:34.000Z</time>
      </trkpt>
      <trkpt lat="45.41571" lon="4.61546">
        <ele>1097.6</ele>
        <time>1970-01-01T01:17:35.000Z</time>
      </trkpt>
      <trkpt lat="45.41572" lon="4.6154">
        <ele>1097.6</ele>
        <time>1970-01-01T01:17:38.000Z</time>
      </trkpt>
      <trkpt lat="45.41571" lon="4.61538">
        <ele>1098</ele>
        <time>1970-01-01T01:17:39.000Z</time>
      </trkpt>
      <trkpt lat="45.4157" lon="4.61537">
        <ele>1098.4</ele>
        <time>1970-01-01T01:17:40.000Z</time>
      </trkpt>
      <trkpt lat="45.41569" lon="4.61536">
        <ele>1098.8</ele>
        <time>1970-01-01T01:17:41.000Z</time>
      </trkpt>
      <trkpt lat="45.41568" lon="4.61536">
        <ele>1099.2</ele>
        <time>1970-01-01T01:17:42.000Z</time>
      </trkpt>
      <trkpt lat="45.41566" lon="4.61537">
        <ele>1099.8</ele>
        <time>1970-01-01T01:17:43.000Z</time>
      </trkpt>
      <trkpt lat="45.41565" lon="4.61538">
        <ele>1099.8</ele>
        <time>1970-01-01T01:17:44.000Z</time>
      </trkpt>
      <trkpt lat="45.41561" lon="4.61539">
        <ele>1099.8</ele>
        <time>1970-01-01T01:17:46.000Z</time>
      </trkpt>
      <trkpt lat="45.41556" lon="4.61541">
        <ele>1100.2</ele>
        <time>1970-01-01T01:17:50.000Z</time>
      </trkpt>
      <trkpt lat="45.41554" lon="4.61542">
        <ele>1100.6</ele>
        <time>1970-01-01T01:17:51.000Z</time>
      </trkpt>
      <trkpt lat="45.41553" lon="4.61542">
        <ele>1101</ele>
        <time>1970-01-01T01:17:52.000Z</time>
      </trkpt>
      <trkpt lat="45.41551" lon="4.61543">
        <ele>1102</ele>
        <time>1970-01-01T01:17:53.000Z</time>
      </trkpt>
      <trkpt lat="45.41544" lon="4.61547">
        <ele>1102</ele>
        <time>1970-01-01T01:17:58.000Z</time>
      </trkpt>
      <trkpt lat="45.41543" lon="4.61548">
        <ele>1102.4</ele>
        <time>1970-01-01T01:17:59.000Z</time>
      </trkpt>
      <trkpt lat="45.41541" lon="4.61548">
        <ele>1102.8</ele>
        <time>1970-01-01T01:18:00.000Z</time>
      </trkpt>
      <trkpt lat="45.41539" lon="4.61548">
        <ele>1103.2</ele>
        <time>1970-01-01T01:18:01.000Z</time>
      </trkpt>
      <trkpt lat="45.41538" lon="4.61548">
        <ele>1103.6</ele>
        <time>1970-01-01T01:18:02.000Z</time>
      </trkpt>
      <trkpt lat="45.41537" lon="4.61549">
        <ele>1104.2</ele>
        <time>1970-01-01T01:18:03.000Z</time>
      </trkpt>
      <trkpt lat="45.41535" lon="4.6155">
        <ele>1104.2</ele>
        <time>1970-01-01T01:18:04.000Z</time>
      </trkpt>
      <trkpt lat="45.4153" lon="4.61554">
        <ele>1104.6</ele>
        <time>1970-01-01T01:18:08.000Z</time>
      </trkpt>
      <trkpt lat="45.41529" lon="4.61555">
        <ele>1105</ele>
        <time>1970-01-01T01:18:09.000Z</time>
      </trkpt>
      <trkpt lat="45.41528" lon="4.61556">
        <ele>1105.4</ele>
        <time>1970-01-01T01:18:10.000Z</time>
      </trkpt>
      <trkpt lat="45.41526" lon="4.61557">
        <ele>1105.8</ele>
        <time>1970-01-01T01:18:11.000Z</time>
      </trkpt>
      <trkpt lat="45.41524" lon="4.61558">
        <ele>1106.2</ele>
        <time>1970-01-01T01:18:12.000Z</time>
      </trkpt>
      <trkpt lat="45.41517" lon="4.61563">
        <ele>1106.2</ele>
        <time>1970-01-01T01:18:17.000Z</time>
      </trkpt>
      <trkpt lat="45.41514" lon="4.61564">
        <ele>1106.6</ele>
        <time>1970-01-01T01:18:19.000Z</time>
      </trkpt>
      <trkpt lat="45.41513" lon="4.61564">
        <ele>1107</ele>
        <time>1970-01-01T01:18:20.000Z</time>
      </trkpt>
      <trkpt lat="45.41511" lon="4.61565">
        <ele>1107.4</ele>
        <time>1970-01-01T01:18:21.000Z</time>
      </trkpt>
      <trkpt lat="45.4151" lon="4.61565">
        <ele>1107.8</ele>
        <time>1970-01-01T01:18:22.000Z</time>
      </trkpt>
      <trkpt lat="45.4151" lon="4.61565">
        <ele>1108.2</ele>
        <time>1970-01-01T01:18:23.000Z</time>
      </trkpt>
      <trkpt lat="45.41506" lon="4.61567">
        <ele>1108.2</ele>
        <time>1970-01-01T01:18:26.000Z</time>
      </trkpt>
      <trkpt lat="45.41505" lon="4.61568">
        <ele>1108.8</ele>
        <time>1970-01-01T01:18:28.000Z</time>
      </trkpt>
      <trkpt lat="45.41504" lon="4.61569">
        <ele>1109.2</ele>
        <time>1970-01-01T01:18:29.000Z</time>
      </trkpt>
      <trkpt lat="45.41502" lon="4.6157">
        <ele>1109.6</ele>
        <time>1970-01-01T01:18:30.000Z</time>
      </trkpt>
      <trkpt lat="45.41501" lon="4.6157">
        <ele>1110</ele>
        <time>1970-01-01T01:18:31.000Z</time>
      </trkpt>
      <trkpt lat="45.415" lon="4.6157">
        <ele>1110.4</ele>
        <time>1970-01-01T01:18:32.000Z</time>
      </trkpt>
      <trkpt lat="45.41498" lon="4.6157">
        <ele>1110.4</ele>
        <time>1970-01-01T01:18:33.000Z</time>
      </trkpt>
      <trkpt lat="45.41491" lon="4.61572">
        <ele>1110.8</ele>
        <time>1970-01-01T01:18:37.000Z</time>
      </trkpt>
      <trkpt lat="45.4149" lon="4.61572">
        <ele>1111.2</ele>
        <time>1970-01-01T01:18:38.000Z</time>
      </trkpt>
      <trkpt lat="45.41489" lon="4.61572">
        <ele>1111.6</ele>
        <time>1970-01-01T01:18:39.000Z</time>
      </trkpt>
      <trkpt lat="45.41489" lon="4.61573">
        <ele>1112</ele>
        <time>1970-01-01T01:18:40.000Z</time>
      </trkpt>
      <trkpt lat="45.41488" lon="4.61573">
        <ele>1112.4</ele>
        <time>1970-01-01T01:18:41.000Z</time>
      </trkpt>
      <trkpt lat="45.41487" lon="4.61573">
        <ele>1112.8</ele>
        <time>1970-01-01T01:18:42.000Z</time>
      </trkpt>
      <trkpt lat="45.41485" lon="4.61573">
        <ele>1113.4</ele>
        <time>1970-01-01T01:18:43.000Z</time>
      </trkpt>
      <trkpt lat="45.41483" lon="4.61574">
        <ele>1113.8</ele>
        <time>1970-01-01T01:18:44.000Z</time>
      </trkpt>
      <trkpt lat="45.41481" lon="4.61575">
        <ele>1114.2</ele>
        <time>1970-01-01T01:18:45.000Z</time>
      </trkpt>
      <trkpt lat="45.41478" lon="4.61575">
        <ele>1114.6</ele>
        <time>1970-01-01T01:18:46.000Z</time>
      </trkpt>
      <trkpt lat="45.41474" lon="4.61577">
        <ele>1115</ele>
        <time>1970-01-01T01:18:48.000Z</time>
      </trkpt>
      <trkpt lat="45.41472" lon="4.61578">
        <ele>1115.4</ele>
        <time>1970-01-01T01:18:49.000Z</time>
      </trkpt>
      <trkpt lat="45.4147" lon="4.61579">
        <ele>1115.8</ele>
        <time>1970-01-01T01:18:50.000Z</time>
      </trkpt>
      <trkpt lat="45.41468" lon="4.6158">
        <ele>1116.2</ele>
        <time>1970-01-01T01:18:51.000Z</time>
      </trkpt>
      <trkpt lat="45.41467" lon="4.61581">
        <ele>1116.6</ele>
        <time>1970-01-01T01:18:52.000Z</time>
      </trkpt>
      <trkpt lat="45.41457" lon="4.6158">
        <ele>1116.6</ele>
        <time>1970-01-01T01:18:58.000Z</time>
      </trkpt>
      <trkpt lat="45.41454" lon="4.61579">
        <ele>1116.6</ele>
        <time>1970-01-01T01:19:00.000Z</time>
      </trkpt>
      <trkpt lat="45.41453" lon="4.61578">
        <ele>1117</ele>
        <time>1970-01-01T01:19:01.000Z</time>
      </trkpt>
      <trkpt lat="45.41453" lon="4.61578">
        <ele>1117.4</ele>
        <time>1970-01-01T01:19:02.000Z</time>
      </trkpt>
      <trkpt lat="45.41454" lon="4.61578">
        <ele>1117.8</ele>
        <time>1970-01-01T01:19:03.000Z</time>
      </trkpt>
      <trkpt lat="45.41456" lon="4.61577">
        <ele>1118.2</ele>
        <time>1970-01-01T01:19:04.000Z</time>
      </trkpt>
      <trkpt lat="45.41458" lon="4.61576">
        <ele>1118.6</ele>
        <time>1970-01-01T01:19:05.000Z</time>
      </trkpt>
      <trkpt lat="45.4146" lon="4.61575">
        <ele>1119.2</ele>
        <time>1970-01-01T01:19:06.000Z</time>
      </trkpt>
      <trkpt lat="45.41461" lon="4.61573">
        <ele>1120</ele>
        <time>1970-01-01T01:19:07.000Z</time>
      </trkpt>
      <trkpt lat="45.41462" lon="4.61571">
        <ele>1120.4</ele>
        <time>1970-01-01T01:19:08.000Z</time>
      </trkpt>
      <trkpt lat="45.41464" lon="4.6157">
        <ele>1120.8</ele>
        <time>1970-01-01T01:19:09.000Z</time>
      </trkpt>
      <trkpt lat="45.41467" lon="4.61566">
        <ele>1120.8</ele>
        <time>1970-01-01T01:19:12.000Z</time>
      </trkpt>
      <trkpt lat="45.41477" lon="4.61556">
        <ele>1120.8</ele>
        <time>1970-01-01T01:19:18.000Z</time>
      </trkpt>
      <trkpt lat="45.41486" lon="4.61544">
        <ele>1121.2</ele>
        <time>1970-01-01T01:19:24.000Z</time>
      </trkpt>
      <trkpt lat="45.41488" lon="4.61541">
        <ele>1121.8</ele>
        <time>1970-01-01T01:19:25.000Z</time>
      </trkpt>
      <trkpt lat="45.4149" lon="4.61539">
        <ele>1122.2</ele>
        <time>1970-01-01T01:19:26.000Z</time>
      </trkpt>
      <trkpt lat="45.41493" lon="4.61536">
        <ele>1122.6</ele>
        <time>1970-01-01T01:19:27.000Z</time>
      </trkpt>
      <trkpt lat="45.41494" lon="4.61534">
        <ele>1123</ele>
        <time>1970-01-01T01:19:28.000Z</time>
      </trkpt>
      <trkpt lat="45.41496" lon="4.61528">
        <ele>1123</ele>
        <time>1970-01-01T01:19:30.000Z</time>
      </trkpt>
      <trkpt lat="45.41506" lon="4.61512">
        <ele>1123</ele>
        <time>1970-01-01T01:19:36.000Z</time>
      </trkpt>
      <trkpt lat="45.41513" lon="4.61503">
        <ele>1123</ele>
        <time>1970-01-01T01:19:41.000Z</time>
      </trkpt>
      <trkpt lat="45.41516" lon="4.615">
        <ele>1123</ele>
        <time>1970-01-01T01:19:43.000Z</time>
      </trkpt>
      <trkpt lat="45.4152" lon="4.61493">
        <ele>1123</ele>
        <time>1970-01-01T01:19:46.000Z</time>
      </trkpt>
      <trkpt lat="45.41527" lon="4.61479">
        <ele>1123</ele>
        <time>1970-01-01T01:19:52.000Z</time>
      </trkpt>
      <trkpt lat="45.41535" lon="4.61464">
        <ele>1123</ele>
        <time>1970-01-01T01:19:56.000Z</time>
      </trkpt>
      <trkpt lat="45.41538" lon="4.61458">
        <ele>1122.6</ele>
        <time>1970-01-01T01:19:57.000Z</time>
      </trkpt>
      <trkpt lat="45.4154" lon="4.61452">
        <ele>1122.2</ele>
        <time>1970-01-01T01:19:58.000Z</time>
      </trkpt>
      <trkpt lat="45.41542" lon="4.61444">
        <ele>1121.8</ele>
        <time>1970-01-01T01:19:59.000Z</time>
      </trkpt>
      <trkpt lat="45.41544" lon="4.61434">
        <ele>1121.4</ele>
        <time>1970-01-01T01:20:00.000Z</time>
      </trkpt>
      <trkpt lat="45.41543" lon="4.61425">
        <ele>1120.8</ele>
        <time>1970-01-01T01:20:01.000Z</time>
      </trkpt>
      <trkpt lat="45.41541" lon="4.61415">
        <ele>1120.4</ele>
        <time>1970-01-01T01:20:02.000Z</time>
      </trkpt>
      <trkpt lat="45.41539" lon="4.61405">
        <ele>1119.6</ele>
        <time>1970-01-01T01:20:03.000Z</time>
      </trkpt>
      <trkpt lat="45.41538" lon="4.61396">
        <ele>1118.8</ele>
        <time>1970-01-01T01:20:04.000Z</time>
      </trkpt>
      <trkpt lat="45.41536" lon="4.61387">
        <ele>1117.8</ele>
        <time>1970-01-01T01:20:05.000Z</time>
      </trkpt>
      <trkpt lat="45.41534" lon="4.61379">
        <ele>1117</ele>
        <time>1970-01-01T01:20:06.000Z</time>
      </trkpt>
      <trkpt lat="45.41533" lon="4.6137">
        <ele>1116.2</ele>
        <time>1970-01-01T01:20:07.000Z</time>
      </trkpt>
      <trkpt lat="45.41529" lon="4.61353">
        <ele>1115.8</ele>
        <time>1970-01-01T01:20:09.000Z</time>
      </trkpt>
      <trkpt lat="45.41528" lon="4.61345">
        <ele>1115.4</ele>
        <time>1970-01-01T01:20:10.000Z</time>
      </trkpt>
      <trkpt lat="45.41526" lon="4.61336">
        <ele>1114.8</ele>
        <time>1970-01-01T01:20:11.000Z</time>
      </trkpt>
      <trkpt lat="45.41523" lon="4.61328">
        <ele>1114.2</ele>
        <time>1970-01-01T01:20:12.000Z</time>
      </trkpt>
      <trkpt lat="45.41521" lon="4.61319">
        <ele>1113.6</ele>
        <time>1970-01-01T01:20:13.000Z</time>
      </trkpt>
      <trkpt lat="45.41519" lon="4.61311">
        <ele>1112.8</ele>
        <time>1970-01-01T01:20:14.000Z</time>
      </trkpt>
      <trkpt lat="45.41517" lon="4.61302">
        <ele>1112.2</ele>
        <time>1970-01-01T01:20:15.000Z</time>
      </trkpt>
      <trkpt lat="45.41515" lon="4.61293">
        <ele>1111.6</ele>
        <time>1970-01-01T01:20:16.000Z</time>
      </trkpt>
      <trkpt lat="45.41513" lon="4.61284">
        <ele>1111</ele>
        <time>1970-01-01T01:20:17.000Z</time>
      </trkpt>
      <trkpt lat="45.4151" lon="4.61276">
        <ele>1110.4</ele>
        <time>1970-01-01T01:20:18.000Z</time>
      </trkpt>
      <trkpt lat="45.41508" lon="4.61267">
        <ele>1109.6</ele>
        <time>1970-01-01T01:20:19.000Z</time>
      </trkpt>
      <trkpt lat="45.41506" lon="4.61259">
        <ele>1109</ele>
        <time>1970-01-01T01:20:20.000Z</time>
      </trkpt>
      <trkpt lat="45.41505" lon="4.61251">
        <ele>1107.6</ele>
        <time>1970-01-01T01:20:21.000Z</time>
      </trkpt>
      <trkpt lat="45.41503" lon="4.61243">
        <ele>1107</ele>
        <time>1970-01-01T01:20:22.000Z</time>
      </trkpt>
      <trkpt lat="45.41501" lon="4.61235">
        <ele>1106.4</ele>
        <time>1970-01-01T01:20:23.000Z</time>
      </trkpt>
      <trkpt lat="45.41499" lon="4.61227">
        <ele>1106</ele>
        <time>1970-01-01T01:20:24.000Z</time>
      </trkpt>
      <trkpt lat="45.41497" lon="4.61219">
        <ele>1105.6</ele>
        <time>1970-01-01T01:20:25.000Z</time>
      </trkpt>
      <trkpt lat="45.41495" lon="4.61211">
        <ele>1105</ele>
        <time>1970-01-01T01:20:26.000Z</time>
      </trkpt>
      <trkpt lat="45.41492" lon="4.61203">
        <ele>1104.6</ele>
        <time>1970-01-01T01:20:27.000Z</time>
      </trkpt>
      <trkpt lat="45.4149" lon="4.61195">
        <ele>1104.2</ele>
        <time>1970-01-01T01:20:28.000Z</time>
      </trkpt>
      <trkpt lat="45.41487" lon="4.61187">
        <ele>1103.6</ele>
        <time>1970-01-01T01:20:29.000Z</time>
      </trkpt>
      <trkpt lat="45.41484" lon="4.61179">
        <ele>1103.2</ele>
        <time>1970-01-01T01:20:30.000Z</time>
      </trkpt>
      <trkpt lat="45.41481" lon="4.6117">
        <ele>1102.8</ele>
        <time>1970-01-01T01:20:31.000Z</time>
      </trkpt>
      <trkpt lat="45.41478" lon="4.61161">
        <ele>1102.2</ele>
        <time>1970-01-01T01:20:32.000Z</time>
      </trkpt>
      <trkpt lat="45.41475" lon="4.61153">
        <ele>1101.8</ele>
        <time>1970-01-01T01:20:33.000Z</time>
      </trkpt>
      <trkpt lat="45.41471" lon="4.61145">
        <ele>1101.2</ele>
        <time>1970-01-01T01:20:34.000Z</time>
      </trkpt>
      <trkpt lat="45.41467" lon="4.61138">
        <ele>1100.8</ele>
        <time>1970-01-01T01:20:35.000Z</time>
      </trkpt>
      <trkpt lat="45.41462" lon="4.61131">
        <ele>1100</ele>
        <time>1970-01-01T01:20:36.000Z</time>
      </trkpt>
      <trkpt lat="45.41457" lon="4.61124">
        <ele>1099.4</ele>
        <time>1970-01-01T01:20:37.000Z</time>
      </trkpt>
      <trkpt lat="45.41452" lon="4.61116">
        <ele>1098.6</ele>
        <time>1970-01-01T01:20:38.000Z</time>
      </trkpt>
      <trkpt lat="45.41447" lon="4.61109">
        <ele>1097.8</ele>
        <time>1970-01-01T01:20:39.000Z</time>
      </trkpt>
      <trkpt lat="45.41442" lon="4.61103">
        <ele>1097.2</ele>
        <time>1970-01-01T01:20:40.000Z</time>
      </trkpt>
      <trkpt lat="45.41437" lon="4.61097">
        <ele>1096.4</ele>
        <time>1970-01-01T01:20:41.000Z</time>
      </trkpt>
      <trkpt lat="45.41433" lon="4.61089">
        <ele>1095.8</ele>
        <time>1970-01-01T01:20:42.000Z</time>
      </trkpt>
      <trkpt lat="45.41428" lon="4.61082">
        <ele>1095</ele>
        <time>1970-01-01T01:20:43.000Z</time>
      </trkpt>
      <trkpt lat="45.41423" lon="4.61075">
        <ele>1094.4</ele>
        <time>1970-01-01T01:20:44.000Z</time>
      </trkpt>
      <trkpt lat="45.41419" lon="4.61069">
        <ele>1094</ele>
        <time>1970-01-01T01:20:45.000Z</time>
      </trkpt>
      <trkpt lat="45.41414" lon="4.61063">
        <ele>1092.8</ele>
        <time>1970-01-01T01:20:46.000Z</time>
      </trkpt>
      <trkpt lat="45.4141" lon="4.61057">
        <ele>1092.4</ele>
        <time>1970-01-01T01:20:47.000Z</time>
      </trkpt>
      <trkpt lat="45.41405" lon="4.61051">
        <ele>1091.8</ele>
        <time>1970-01-01T01:20:48.000Z</time>
      </trkpt>
      <trkpt lat="45.41401" lon="4.61046">
        <ele>1091.2</ele>
        <time>1970-01-01T01:20:49.000Z</time>
      </trkpt>
      <trkpt lat="45.41396" lon="4.61041">
        <ele>1090.6</ele>
        <time>1970-01-01T01:20:50.000Z</time>
      </trkpt>
      <trkpt lat="45.4139" lon="4.61037">
        <ele>1090.2</ele>
        <time>1970-01-01T01:20:51.000Z</time>
      </trkpt>
      <trkpt lat="45.41384" lon="4.61032">
        <ele>1089.6</ele>
        <time>1970-01-01T01:20:52.000Z</time>
      </trkpt>
      <trkpt lat="45.4138" lon="4.61027">
        <ele>1089.2</ele>
        <time>1970-01-01T01:20:53.000Z</time>
      </trkpt>
      <trkpt lat="45.41375" lon="4.61022">
        <ele>1088.6</ele>
        <time>1970-01-01T01:20:54.000Z</time>
      </trkpt>
      <trkpt lat="45.41371" lon="4.61017">
        <ele>1088</ele>
        <time>1970-01-01T01:20:55.000Z</time>
      </trkpt>
      <trkpt lat="45.41367" lon="4.61012">
        <ele>1087.6</ele>
        <time>1970-01-01T01:20:56.000Z</time>
      </trkpt>
      <trkpt lat="45.41363" lon="4.61007">
        <ele>1087</ele>
        <time>1970-01-01T01:20:57.000Z</time>
      </trkpt>
      <trkpt lat="45.41359" lon="4.61002">
        <ele>1086.4</ele>
        <time>1970-01-01T01:20:58.000Z</time>
      </trkpt>
      <trkpt lat="45.41354" lon="4.60996">
        <ele>1085.6</ele>
        <time>1970-01-01T01:20:59.000Z</time>
      </trkpt>
      <trkpt lat="45.41349" lon="4.60991">
        <ele>1084.8</ele>
        <time>1970-01-01T01:21:00.000Z</time>
      </trkpt>
      <trkpt lat="45.41345" lon="4.60987">
        <ele>1084.2</ele>
        <time>1970-01-01T01:21:01.000Z</time>
      </trkpt>
      <trkpt lat="45.4134" lon="4.60984">
        <ele>1083.6</ele>
        <time>1970-01-01T01:21:02.000Z</time>
      </trkpt>
      <trkpt lat="45.41336" lon="4.60981">
        <ele>1083</ele>
        <time>1970-01-01T01:21:03.000Z</time>
      </trkpt>
      <trkpt lat="45.41331" lon="4.60977">
        <ele>1082.4</ele>
        <time>1970-01-01T01:21:04.000Z</time>
      </trkpt>
      <trkpt lat="45.41327" lon="4.60972">
        <ele>1081.8</ele>
        <time>1970-01-01T01:21:05.000Z</time>
      </trkpt>
      <trkpt lat="45.41323" lon="4.60967">
        <ele>1081.2</ele>
        <time>1970-01-01T01:21:06.000Z</time>
      </trkpt>
      <trkpt lat="45.41314" lon="4.60956">
        <ele>1080.8</ele>
        <time>1970-01-01T01:21:08.000Z</time>
      </trkpt>
      <trkpt lat="45.4131" lon="4.60949">
        <ele>1080.4</ele>
        <time>1970-01-01T01:21:09.000Z</time>
      </trkpt>
      <trkpt lat="45.41305" lon="4.60942">
        <ele>1080</ele>
        <time>1970-01-01T01:21:10.000Z</time>
      </trkpt>
      <trkpt lat="45.413" lon="4.60934">
        <ele>1078.8</ele>
        <time>1970-01-01T01:21:11.000Z</time>
      </trkpt>
      <trkpt lat="45.41294" lon="4.60927">
        <ele>1078.2</ele>
        <time>1970-01-01T01:21:12.000Z</time>
      </trkpt>
      <trkpt lat="45.41288" lon="4.60919">
        <ele>1077.6</ele>
        <time>1970-01-01T01:21:13.000Z</time>
      </trkpt>
      <trkpt lat="45.41282" lon="4.60912">
        <ele>1077</ele>
        <time>1970-01-01T01:21:14.000Z</time>
      </trkpt>
      <trkpt lat="45.41276" lon="4.60904">
        <ele>1076.2</ele>
        <time>1970-01-01T01:21:15.000Z</time>
      </trkpt>
      <trkpt lat="45.41271" lon="4.60895">
        <ele>1075.6</ele>
        <time>1970-01-01T01:21:16.000Z</time>
      </trkpt>
      <trkpt lat="45.41266" lon="4.60887">
        <ele>1075</ele>
        <time>1970-01-01T01:21:17.000Z</time>
      </trkpt>
      <trkpt lat="45.41261" lon="4.60877">
        <ele>1074.4</ele>
        <time>1970-01-01T01:21:18.000Z</time>
      </trkpt>
      <trkpt lat="45.41257" lon="4.60869">
        <ele>1073.8</ele>
        <time>1970-01-01T01:21:19.000Z</time>
      </trkpt>
      <trkpt lat="45.41253" lon="4.60864">
        <ele>1073</ele>
        <time>1970-01-01T01:21:20.000Z</time>
      </trkpt>
      <trkpt lat="45.4125" lon="4.60859">
        <ele>1072.2</ele>
        <time>1970-01-01T01:21:21.000Z</time>
      </trkpt>
      <trkpt lat="45.41246" lon="4.60853">
        <ele>1071.2</ele>
        <time>1970-01-01T01:21:22.000Z</time>
      </trkpt>
      <trkpt lat="45.41242" lon="4.60847">
        <ele>1070.2</ele>
        <time>1970-01-01T01:21:23.000Z</time>
      </trkpt>
      <trkpt lat="45.41238" lon="4.60842">
        <ele>1069.4</ele>
        <time>1970-01-01T01:21:24.000Z</time>
      </trkpt>
      <trkpt lat="45.41234" lon="4.60836">
        <ele>1068.4</ele>
        <time>1970-01-01T01:21:25.000Z</time>
      </trkpt>
      <trkpt lat="45.41229" lon="4.6083">
        <ele>1067.4</ele>
        <time>1970-01-01T01:21:26.000Z</time>
      </trkpt>
      <trkpt lat="45.4122" lon="4.60818">
        <ele>1067</ele>
        <time>1970-01-01T01:21:28.000Z</time>
      </trkpt>
      <trkpt lat="45.41216" lon="4.60811">
        <ele>1066.6</ele>
        <time>1970-01-01T01:21:29.000Z</time>
      </trkpt>
      <trkpt lat="45.41212" lon="4.60805">
        <ele>1066.2</ele>
        <time>1970-01-01T01:21:30.000Z</time>
      </trkpt>
      <trkpt lat="45.41207" lon="4.60798">
        <ele>1065.8</ele>
        <time>1970-01-01T01:21:31.000Z</time>
      </trkpt>
      <trkpt lat="45.41203" lon="4.60792">
        <ele>1065.4</ele>
        <time>1970-01-01T01:21:32.000Z</time>
      </trkpt>
      <trkpt lat="45.41196" lon="4.60779">
        <ele>1064.8</ele>
        <time>1970-01-01T01:21:34.000Z</time>
      </trkpt>
      <trkpt lat="45.41191" lon="4.60773">
        <ele>1064</ele>
        <time>1970-01-01T01:21:35.000Z</time>
      </trkpt>
      <trkpt lat="45.41187" lon="4.60769">
        <ele>1063.6</ele>
        <time>1970-01-01T01:21:36.000Z</time>
      </trkpt>
      <trkpt lat="45.41184" lon="4.60766">
        <ele>1063</ele>
        <time>1970-01-01T01:21:37.000Z</time>
      </trkpt>
      <trkpt lat="45.41182" lon="4.60764">
        <ele>1062.2</ele>
        <time>1970-01-01T01:21:38.000Z</time>
      </trkpt>
      <trkpt lat="45.41181" lon="4.60762">
        <ele>1061.6</ele>
        <time>1970-01-01T01:21:39.000Z</time>
      </trkpt>
      <trkpt lat="45.4118" lon="4.6076">
        <ele>1060.8</ele>
        <time>1970-01-01T01:21:40.000Z</time>
      </trkpt>
      <trkpt lat="45.4118" lon="4.60757">
        <ele>1060.2</ele>
        <time>1970-01-01T01:21:41.000Z</time>
      </trkpt>
      <trkpt lat="45.41179" lon="4.60755">
        <ele>1059.4</ele>
        <time>1970-01-01T01:21:42.000Z</time>
      </trkpt>
      <trkpt lat="45.41179" lon="4.60752">
        <ele>1058.6</ele>
        <time>1970-01-01T01:21:43.000Z</time>
      </trkpt>
      <trkpt lat="45.41179" lon="4.60749">
        <ele>1058</ele>
        <time>1970-01-01T01:21:44.000Z</time>
      </trkpt>
      <trkpt lat="45.4118" lon="4.60747">
        <ele>1058</ele>
        <time>1970-01-01T01:21:45.000Z</time>
      </trkpt>
      <trkpt lat="45.41182" lon="4.60745">
        <ele>1057.6</ele>
        <time>1970-01-01T01:21:46.000Z</time>
      </trkpt>
      <trkpt lat="45.41183" lon="4.60742">
        <ele>1057</ele>
        <time>1970-01-01T01:21:47.000Z</time>
      </trkpt>
      <trkpt lat="45.41185" lon="4.6074">
        <ele>1056.6</ele>
        <time>1970-01-01T01:21:48.000Z</time>
      </trkpt>
      <trkpt lat="45.41188" lon="4.60738">
        <ele>1056.2</ele>
        <time>1970-01-01T01:21:49.000Z</time>
      </trkpt>
      <trkpt lat="45.41193" lon="4.60737">
        <ele>1055.6</ele>
        <time>1970-01-01T01:21:50.000Z</time>
      </trkpt>
      <trkpt lat="45.41197" lon="4.60737">
        <ele>1055</ele>
        <time>1970-01-01T01:21:51.000Z</time>
      </trkpt>
      <trkpt lat="45.41202" lon="4.60737">
        <ele>1054.6</ele>
        <time>1970-01-01T01:21:52.000Z</time>
      </trkpt>
      <trkpt lat="45.41208" lon="4.60736">
        <ele>1054</ele>
        <time>1970-01-01T01:21:53.000Z</time>
      </trkpt>
      <trkpt lat="45.41215" lon="4.60736">
        <ele>1053.4</ele>
        <time>1970-01-01T01:21:54.000Z</time>
      </trkpt>
      <trkpt lat="45.41221" lon="4.60736">
        <ele>1053</ele>
        <time>1970-01-01T01:21:55.000Z</time>
      </trkpt>
      <trkpt lat="45.41228" lon="4.60735">
        <ele>1052.6</ele>
        <time>1970-01-01T01:21:56.000Z</time>
      </trkpt>
      <trkpt lat="45.41234" lon="4.60733">
        <ele>1052</ele>
        <time>1970-01-01T01:21:57.000Z</time>
      </trkpt>
      <trkpt lat="45.4124" lon="4.60732">
        <ele>1051.4</ele>
        <time>1970-01-01T01:21:58.000Z</time>
      </trkpt>
      <trkpt lat="45.41245" lon="4.6073">
        <ele>1050.8</ele>
        <time>1970-01-01T01:21:59.000Z</time>
      </trkpt>
      <trkpt lat="45.4125" lon="4.60729">
        <ele>1049</ele>
        <time>1970-01-01T01:22:00.000Z</time>
      </trkpt>
      <trkpt lat="45.41254" lon="4.60729">
        <ele>1048</ele>
        <time>1970-01-01T01:22:01.000Z</time>
      </trkpt>
      <trkpt lat="45.41257" lon="4.60732">
        <ele>1046.8</ele>
        <time>1970-01-01T01:22:02.000Z</time>
      </trkpt>
      <trkpt lat="45.41261" lon="4.60735">
        <ele>1045.6</ele>
        <time>1970-01-01T01:22:03.000Z</time>
      </trkpt>
      <trkpt lat="45.41265" lon="4.60738">
        <ele>1044.6</ele>
        <time>1970-01-01T01:22:04.000Z</time>
      </trkpt>
      <trkpt lat="45.41268" lon="4.6074">
        <ele>1043.4</ele>
        <time>1970-01-01T01:22:05.000Z</time>
      </trkpt>
      <trkpt lat="45.4127" lon="4.60744">
        <ele>1043.4</ele>
        <time>1970-01-01T01:22:06.000Z</time>
      </trkpt>
      <trkpt lat="45.41276" lon="4.60749">
        <ele>1043.4</ele>
        <time>1970-01-01T01:22:08.000Z</time>
      </trkpt>
      <trkpt lat="45.41289" lon="4.60753">
        <ele>1043</ele>
        <time>1970-01-01T01:22:11.000Z</time>
      </trkpt>
      <trkpt lat="45.41293" lon="4.60754">
        <ele>1042.6</ele>
        <time>1970-01-01T01:22:12.000Z</time>
      </trkpt>
      <trkpt lat="45.41299" lon="4.60755">
        <ele>1042.2</ele>
        <time>1970-01-01T01:22:13.000Z</time>
      </trkpt>
      <trkpt lat="45.41304" lon="4.60755">
        <ele>1041.6</ele>
        <time>1970-01-01T01:22:14.000Z</time>
      </trkpt>
      <trkpt lat="45.41307" lon="4.60754">
        <ele>1040.8</ele>
        <time>1970-01-01T01:22:15.000Z</time>
      </trkpt>
      <trkpt lat="45.41309" lon="4.60754">
        <ele>1040</ele>
        <time>1970-01-01T01:22:16.000Z</time>
      </trkpt>
      <trkpt lat="45.41311" lon="4.60753">
        <ele>1039</ele>
        <time>1970-01-01T01:22:17.000Z</time>
      </trkpt>
      <trkpt lat="45.41312" lon="4.60752">
        <ele>1038</ele>
        <time>1970-01-01T01:22:18.000Z</time>
      </trkpt>
      <trkpt lat="45.41313" lon="4.60753">
        <ele>1037.4</ele>
        <time>1970-01-01T01:22:19.000Z</time>
      </trkpt>
      <trkpt lat="45.41313" lon="4.60753">
        <ele>1036.6</ele>
        <time>1970-01-01T01:22:20.000Z</time>
      </trkpt>
      <trkpt lat="45.41313" lon="4.60753">
        <ele>1035.8</ele>
        <time>1970-01-01T01:22:21.000Z</time>
      </trkpt>
      <trkpt lat="45.41315" lon="4.60752">
        <ele>1035</ele>
        <time>1970-01-01T01:22:22.000Z</time>
      </trkpt>
      <trkpt lat="45.41319" lon="4.60751">
        <ele>1034.2</ele>
        <time>1970-01-01T01:22:23.000Z</time>
      </trkpt>
      <trkpt lat="45.41326" lon="4.60746">
        <ele>1033.4</ele>
        <time>1970-01-01T01:22:25.000Z</time>
      </trkpt>
      <trkpt lat="45.41328" lon="4.60743">
        <ele>1033</ele>
        <time>1970-01-01T01:22:26.000Z</time>
      </trkpt>
      <trkpt lat="45.41329" lon="4.60741">
        <ele>1032.2</ele>
        <time>1970-01-01T01:22:27.000Z</time>
      </trkpt>
      <trkpt lat="45.41329" lon="4.60737">
        <ele>1031.6</ele>
        <time>1970-01-01T01:22:28.000Z</time>
      </trkpt>
      <trkpt lat="45.41328" lon="4.60732">
        <ele>1030.8</ele>
        <time>1970-01-01T01:22:29.000Z</time>
      </trkpt>
      <trkpt lat="45.41328" lon="4.60725">
        <ele>1030.2</ele>
        <time>1970-01-01T01:22:30.000Z</time>
      </trkpt>
      <trkpt lat="45.41327" lon="4.60719">
        <ele>1029.4</ele>
        <time>1970-01-01T01:22:31.000Z</time>
      </trkpt>
      <trkpt lat="45.41327" lon="4.60714">
        <ele>1028.8</ele>
        <time>1970-01-01T01:22:32.000Z</time>
      </trkpt>
      <trkpt lat="45.41326" lon="4.60708">
        <ele>1028</ele>
        <time>1970-01-01T01:22:33.000Z</time>
      </trkpt>
      <trkpt lat="45.41325" lon="4.60702">
        <ele>1027.2</ele>
        <time>1970-01-01T01:22:34.000Z</time>
      </trkpt>
      <trkpt lat="45.41326" lon="4.60696">
        <ele>1026.2</ele>
        <time>1970-01-01T01:22:35.000Z</time>
      </trkpt>
      <trkpt lat="45.41329" lon="4.60691">
        <ele>1025.2</ele>
        <time>1970-01-01T01:22:36.000Z</time>
      </trkpt>
      <trkpt lat="45.41333" lon="4.60688">
        <ele>1024</ele>
        <time>1970-01-01T01:22:37.000Z</time>
      </trkpt>
      <trkpt lat="45.41336" lon="4.60685">
        <ele>1023</ele>
        <time>1970-01-01T01:22:38.000Z</time>
      </trkpt>
      <trkpt lat="45.41339" lon="4.60685">
        <ele>1021.8</ele>
        <time>1970-01-01T01:22:39.000Z</time>
      </trkpt>
      <trkpt lat="45.41342" lon="4.60687">
        <ele>1020.6</ele>
        <time>1970-01-01T01:22:40.000Z</time>
      </trkpt>
      <trkpt lat="45.41345" lon="4.60689">
        <ele>1019.2</ele>
        <time>1970-01-01T01:22:41.000Z</time>
      </trkpt>
      <trkpt lat="45.41348" lon="4.60692">
        <ele>1018.4</ele>
        <time>1970-01-01T01:22:42.000Z</time>
      </trkpt>
      <trkpt lat="45.41352" lon="4.60693">
        <ele>1017.4</ele>
        <time>1970-01-01T01:22:43.000Z</time>
      </trkpt>
      <trkpt lat="45.41356" lon="4.60696">
        <ele>1016.6</ele>
        <time>1970-01-01T01:22:44.000Z</time>
      </trkpt>
      <trkpt lat="45.4136" lon="4.60698">
        <ele>1015.6</ele>
        <time>1970-01-01T01:22:45.000Z</time>
      </trkpt>
      <trkpt lat="45.41363" lon="4.60699">
        <ele>1014.6</ele>
        <time>1970-01-01T01:22:46.000Z</time>
      </trkpt>
      <trkpt lat="45.41374" lon="4.607">
        <ele>1014.6</ele>
        <time>1970-01-01T01:22:48.000Z</time>
      </trkpt>
      <trkpt lat="45.41388" lon="4.60693">
        <ele>1014</ele>
        <time>1970-01-01T01:22:50.000Z</time>
      </trkpt>
      <trkpt lat="45.41394" lon="4.60689">
        <ele>1013.6</ele>
        <time>1970-01-01T01:22:51.000Z</time>
      </trkpt>
      <trkpt lat="45.41401" lon="4.60684">
        <ele>1012.6</ele>
        <time>1970-01-01T01:22:52.000Z</time>
      </trkpt>
      <trkpt lat="45.41409" lon="4.60683">
        <ele>1011.6</ele>
        <time>1970-01-01T01:22:53.000Z</time>
      </trkpt>
      <trkpt lat="45.41416" lon="4.60682">
        <ele>1010.4</ele>
        <time>1970-01-01T01:22:54.000Z</time>
      </trkpt>
      <trkpt lat="45.41422" lon="4.6068">
        <ele>1009</ele>
        <time>1970-01-01T01:22:55.000Z</time>
      </trkpt>
      <trkpt lat="45.41427" lon="4.60676">
        <ele>1007.6</ele>
        <time>1970-01-01T01:22:56.000Z</time>
      </trkpt>
      <trkpt lat="45.4143" lon="4.60673">
        <ele>1006.2</ele>
        <time>1970-01-01T01:22:57.000Z</time>
      </trkpt>
      <trkpt lat="45.41432" lon="4.60672">
        <ele>1004.8</ele>
        <time>1970-01-01T01:22:58.000Z</time>
      </trkpt>
      <trkpt lat="45.41433" lon="4.60672">
        <ele>1003.4</ele>
        <time>1970-01-01T01:22:59.000Z</time>
      </trkpt>
      <trkpt lat="45.41434" lon="4.60672">
        <ele>1002</ele>
        <time>1970-01-01T01:23:00.000Z</time>
      </trkpt>
      <trkpt lat="45.41435" lon="4.60672">
        <ele>1000.4</ele>
        <time>1970-01-01T01:23:01.000Z</time>
      </trkpt>
      <trkpt lat="45.41435" lon="4.60671">
        <ele>999</ele>
        <time>1970-01-01T01:23:02.000Z</time>
      </trkpt>
      <trkpt lat="45.41437" lon="4.60669">
        <ele>999</ele>
        <time>1970-01-01T01:23:04.000Z</time>
      </trkpt>
      <trkpt lat="45.41437" lon="4.60667">
        <ele>998.6</ele>
        <time>1970-01-01T01:23:05.000Z</time>
      </trkpt>
      <trkpt lat="45.41435" lon="4.60662">
        <ele>998.2</ele>
        <time>1970-01-01T01:23:06.000Z</time>
      </trkpt>
      <trkpt lat="45.41434" lon="4.60656">
        <ele>997.8</ele>
        <time>1970-01-01T01:23:07.000Z</time>
      </trkpt>
      <trkpt lat="45.41431" lon="4.6065">
        <ele>997.4</ele>
        <time>1970-01-01T01:23:08.000Z</time>
      </trkpt>
      <trkpt lat="45.41426" lon="4.60646">
        <ele>996.8</ele>
        <time>1970-01-01T01:23:09.000Z</time>
      </trkpt>
      <trkpt lat="45.41422" lon="4.60642">
        <ele>996.2</ele>
        <time>1970-01-01T01:23:10.000Z</time>
      </trkpt>
      <trkpt lat="45.41418" lon="4.60637">
        <ele>995.8</ele>
        <time>1970-01-01T01:23:11.000Z</time>
      </trkpt>
      <trkpt lat="45.41415" lon="4.60629">
        <ele>995</ele>
        <time>1970-01-01T01:23:12.000Z</time>
      </trkpt>
      <trkpt lat="45.41413" lon="4.60621">
        <ele>994.4</ele>
        <time>1970-01-01T01:23:13.000Z</time>
      </trkpt>
      <trkpt lat="45.41411" lon="4.60615">
        <ele>992.4</ele>
        <time>1970-01-01T01:23:14.000Z</time>
      </trkpt>
      <trkpt lat="45.41412" lon="4.6061">
        <ele>991.2</ele>
        <time>1970-01-01T01:23:15.000Z</time>
      </trkpt>
      <trkpt lat="45.41414" lon="4.60606">
        <ele>990.2</ele>
        <time>1970-01-01T01:23:16.000Z</time>
      </trkpt>
      <trkpt lat="45.41417" lon="4.60602">
        <ele>989</ele>
        <time>1970-01-01T01:23:17.000Z</time>
      </trkpt>
      <trkpt lat="45.41423" lon="4.60599">
        <ele>988</ele>
        <time>1970-01-01T01:23:18.000Z</time>
      </trkpt>
      <trkpt lat="45.4143" lon="4.60598">
        <ele>987</ele>
        <time>1970-01-01T01:23:19.000Z</time>
      </trkpt>
      <trkpt lat="45.41437" lon="4.60598">
        <ele>986</ele>
        <time>1970-01-01T01:23:20.000Z</time>
      </trkpt>
      <trkpt lat="45.41443" lon="4.60597">
        <ele>985</ele>
        <time>1970-01-01T01:23:21.000Z</time>
      </trkpt>
      <trkpt lat="45.41451" lon="4.60594">
        <ele>984</ele>
        <time>1970-01-01T01:23:22.000Z</time>
      </trkpt>
      <trkpt lat="45.41457" lon="4.60592">
        <ele>983</ele>
        <time>1970-01-01T01:23:23.000Z</time>
      </trkpt>
      <trkpt lat="45.4146" lon="4.6059">
        <ele>982.2</ele>
        <time>1970-01-01T01:23:24.000Z</time>
      </trkpt>
      <trkpt lat="45.41463" lon="4.60587">
        <ele>981.2</ele>
        <time>1970-01-01T01:23:25.000Z</time>
      </trkpt>
      <trkpt lat="45.41466" lon="4.60581">
        <ele>980.4</ele>
        <time>1970-01-01T01:23:26.000Z</time>
      </trkpt>
      <trkpt lat="45.41467" lon="4.60576">
        <ele>979.6</ele>
        <time>1970-01-01T01:23:27.000Z</time>
      </trkpt>
      <trkpt lat="45.41467" lon="4.60572">
        <ele>978.6</ele>
        <time>1970-01-01T01:23:28.000Z</time>
      </trkpt>
      <trkpt lat="45.41467" lon="4.60568">
        <ele>977.6</ele>
        <time>1970-01-01T01:23:29.000Z</time>
      </trkpt>
      <trkpt lat="45.41467" lon="4.60563">
        <ele>976.8</ele>
        <time>1970-01-01T01:23:30.000Z</time>
      </trkpt>
      <trkpt lat="45.41467" lon="4.60557">
        <ele>975.8</ele>
        <time>1970-01-01T01:23:31.000Z</time>
      </trkpt>
      <trkpt lat="45.41467" lon="4.60551">
        <ele>975</ele>
        <time>1970-01-01T01:23:32.000Z</time>
      </trkpt>
      <trkpt lat="45.41467" lon="4.60545">
        <ele>974</ele>
        <time>1970-01-01T01:23:33.000Z</time>
      </trkpt>
      <trkpt lat="45.41466" lon="4.6054">
        <ele>973.2</ele>
        <time>1970-01-01T01:23:34.000Z</time>
      </trkpt>
      <trkpt lat="45.41466" lon="4.60535">
        <ele>972</ele>
        <time>1970-01-01T01:23:35.000Z</time>
      </trkpt>
      <trkpt lat="45.41467" lon="4.60531">
        <ele>970.8</ele>
        <time>1970-01-01T01:23:36.000Z</time>
      </trkpt>
      <trkpt lat="45.41467" lon="4.60529">
        <ele>969.6</ele>
        <time>1970-01-01T01:23:37.000Z</time>
      </trkpt>
      <trkpt lat="45.41467" lon="4.60529">
        <ele>968.2</ele>
        <time>1970-01-01T01:23:38.000Z</time>
      </trkpt>
      <trkpt lat="45.41467" lon="4.60529">
        <ele>965.6</ele>
        <time>1970-01-01T01:23:39.000Z</time>
      </trkpt>
      <trkpt lat="45.41467" lon="4.60529">
        <ele>964.4</ele>
        <time>1970-01-01T01:23:40.000Z</time>
      </trkpt>
      <trkpt lat="45.41467" lon="4.60529">
        <ele>964.4</ele>
        <time>1970-01-01T01:23:51.000Z</time>
      </trkpt>
      <trkpt lat="45.41467" lon="4.60529">
        <ele>964.4</ele>
        <time>1970-01-01T01:24:03.000Z</time>
      </trkpt>
      <trkpt lat="45.41467" lon="4.60529">
        <ele>964.4</ele>
        <time>1970-01-01T01:24:12.000Z</time>
      </trkpt>
      <trkpt lat="45.41467" lon="4.60528">
        <ele>964.4</ele>
        <time>1970-01-01T01:24:21.000Z</time>
      </trkpt>
      <trkpt lat="45.41467" lon="4.60528">
        <ele>964.4</ele>
        <time>1970-01-01T01:24:34.000Z</time>
      </trkpt>
      <trkpt lat="45.41469" lon="4.60521">
        <ele>964.4</ele>
        <time>1970-01-01T01:24:43.000Z</time>
      </trkpt>
      <trkpt lat="45.41473" lon="4.60511">
        <ele>964</ele>
        <time>1970-01-01T01:24:45.000Z</time>
      </trkpt>
      <trkpt lat="45.41476" lon="4.60505">
        <ele>963.6</ele>
        <time>1970-01-01T01:24:46.000Z</time>
      </trkpt>
      <trkpt lat="45.4148" lon="4.60499">
        <ele>963.2</ele>
        <time>1970-01-01T01:24:47.000Z</time>
      </trkpt>
      <trkpt lat="45.41483" lon="4.60493">
        <ele>962.4</ele>
        <time>1970-01-01T01:24:48.000Z</time>
      </trkpt>
      <trkpt lat="45.41486" lon="4.60486">
        <ele>961.8</ele>
        <time>1970-01-01T01:24:49.000Z</time>
      </trkpt>
      <trkpt lat="45.41489" lon="4.6048">
        <ele>961</ele>
        <time>1970-01-01T01:24:50.000Z</time>
      </trkpt>
      <trkpt lat="45.41492" lon="4.60475">
        <ele>960</ele>
        <time>1970-01-01T01:24:51.000Z</time>
      </trkpt>
      <trkpt lat="45.41496" lon="4.60468">
        <ele>958.8</ele>
        <time>1970-01-01T01:24:52.000Z</time>
      </trkpt>
      <trkpt lat="45.41499" lon="4.60463">
        <ele>956.6</ele>
        <time>1970-01-01T01:24:53.000Z</time>
      </trkpt>
      <trkpt lat="45.41501" lon="4.60458">
        <ele>955.4</ele>
        <time>1970-01-01T01:24:54.000Z</time>
      </trkpt>
      <trkpt lat="45.41503" lon="4.60454">
        <ele>954.2</ele>
        <time>1970-01-01T01:24:55.000Z</time>
      </trkpt>
      <trkpt lat="45.41504" lon="4.60451">
        <ele>952.8</ele>
        <time>1970-01-01T01:24:56.000Z</time>
      </trkpt>
      <trkpt lat="45.41505" lon="4.60447">
        <ele>951.6</ele>
        <time>1970-01-01T01:24:57.000Z</time>
      </trkpt>
      <trkpt lat="45.41503" lon="4.60441">
        <ele>950.6</ele>
        <time>1970-01-01T01:24:58.000Z</time>
      </trkpt>
      <trkpt lat="45.41501" lon="4.60435">
        <ele>949.6</ele>
        <time>1970-01-01T01:24:59.000Z</time>
      </trkpt>
      <trkpt lat="45.41498" lon="4.6043">
        <ele>948.8</ele>
        <time>1970-01-01T01:25:00.000Z</time>
      </trkpt>
      <trkpt lat="45.41495" lon="4.60425">
        <ele>947.6</ele>
        <time>1970-01-01T01:25:01.000Z</time>
      </trkpt>
      <trkpt lat="45.41493" lon="4.60418">
        <ele>946.6</ele>
        <time>1970-01-01T01:25:02.000Z</time>
      </trkpt>
      <trkpt lat="45.41488" lon="4.60413">
        <ele>945.2</ele>
        <time>1970-01-01T01:25:03.000Z</time>
      </trkpt>
      <trkpt lat="45.41483" lon="4.60407">
        <ele>943.8</ele>
        <time>1970-01-01T01:25:04.000Z</time>
      </trkpt>
      <trkpt lat="45.41478" lon="4.60401">
        <ele>942.6</ele>
        <time>1970-01-01T01:25:05.000Z</time>
      </trkpt>
      <trkpt lat="45.41475" lon="4.60394">
        <ele>941.6</ele>
        <time>1970-01-01T01:25:06.000Z</time>
      </trkpt>
      <trkpt lat="45.41472" lon="4.60386">
        <ele>940.6</ele>
        <time>1970-01-01T01:25:07.000Z</time>
      </trkpt>
      <trkpt lat="45.41468" lon="4.60378">
        <ele>939.6</ele>
        <time>1970-01-01T01:25:08.000Z</time>
      </trkpt>
      <trkpt lat="45.41465" lon="4.60371">
        <ele>938.6</ele>
        <time>1970-01-01T01:25:09.000Z</time>
      </trkpt>
      <trkpt lat="45.41463" lon="4.60363">
        <ele>937.6</ele>
        <time>1970-01-01T01:25:10.000Z</time>
      </trkpt>
      <trkpt lat="45.41461" lon="4.60355">
        <ele>936.6</ele>
        <time>1970-01-01T01:25:11.000Z</time>
      </trkpt>
      <trkpt lat="45.41459" lon="4.60347">
        <ele>935.4</ele>
        <time>1970-01-01T01:25:12.000Z</time>
      </trkpt>
      <trkpt lat="45.41458" lon="4.60343">
        <ele>934.4</ele>
        <time>1970-01-01T01:25:13.000Z</time>
      </trkpt>
      <trkpt lat="45.41457" lon="4.6034">
        <ele>933.2</ele>
        <time>1970-01-01T01:25:14.000Z</time>
      </trkpt>
      <trkpt lat="45.41457" lon="4.6034">
        <ele>932.6</ele>
        <time>1970-01-01T01:25:15.000Z</time>
      </trkpt>
      <trkpt lat="45.41457" lon="4.6034">
        <ele>931.8</ele>
        <time>1970-01-01T01:25:16.000Z</time>
      </trkpt>
      <trkpt lat="45.41457" lon="4.6034">
        <ele>931</ele>
        <time>1970-01-01T01:25:17.000Z</time>
      </trkpt>
      <trkpt lat="45.41457" lon="4.6034">
        <ele>929.6</ele>
        <time>1970-01-01T01:25:18.000Z</time>
      </trkpt>
      <trkpt lat="45.41456" lon="4.60334">
        <ele>929.6</ele>
        <time>1970-01-01T01:25:23.000Z</time>
      </trkpt>
      <trkpt lat="45.41454" lon="4.6031">
        <ele>929.6</ele>
        <time>1970-01-01T01:25:27.000Z</time>
      </trkpt>
      <trkpt lat="45.41457" lon="4.60303">
        <ele>929.2</ele>
        <time>1970-01-01T01:25:28.000Z</time>
      </trkpt>
      <trkpt lat="45.41458" lon="4.60294">
        <ele>928.6</ele>
        <time>1970-01-01T01:25:29.000Z</time>
      </trkpt>
      <trkpt lat="45.41459" lon="4.60285">
        <ele>928</ele>
        <time>1970-01-01T01:25:30.000Z</time>
      </trkpt>
      <trkpt lat="45.4146" lon="4.60277">
        <ele>927.2</ele>
        <time>1970-01-01T01:25:31.000Z</time>
      </trkpt>
      <trkpt lat="45.4146" lon="4.60273">
        <ele>926.4</ele>
        <time>1970-01-01T01:25:32.000Z</time>
      </trkpt>
      <trkpt lat="45.41463" lon="4.60269">
        <ele>925.4</ele>
        <time>1970-01-01T01:25:33.000Z</time>
      </trkpt>
      <trkpt lat="45.41466" lon="4.60268">
        <ele>924.2</ele>
        <time>1970-01-01T01:25:34.000Z</time>
      </trkpt>
      <trkpt lat="45.41471" lon="4.60266">
        <ele>923.2</ele>
        <time>1970-01-01T01:25:35.000Z</time>
      </trkpt>
      <trkpt lat="45.41475" lon="4.60263">
        <ele>922</ele>
        <time>1970-01-01T01:25:36.000Z</time>
      </trkpt>
      <trkpt lat="45.41479" lon="4.60257">
        <ele>920.8</ele>
        <time>1970-01-01T01:25:37.000Z</time>
      </trkpt>
      <trkpt lat="45.41482" lon="4.60251">
        <ele>919.4</ele>
        <time>1970-01-01T01:25:38.000Z</time>
      </trkpt>
      <trkpt lat="45.41482" lon="4.60247">
        <ele>918.2</ele>
        <time>1970-01-01T01:25:39.000Z</time>
      </trkpt>
      <trkpt lat="45.41483" lon="4.60245">
        <ele>916.8</ele>
        <time>1970-01-01T01:25:40.000Z</time>
      </trkpt>
      <trkpt lat="45.41484" lon="4.6024">
        <ele>915.4</ele>
        <time>1970-01-01T01:25:41.000Z</time>
      </trkpt>
      <trkpt lat="45.41486" lon="4.60234">
        <ele>912.8</ele>
        <time>1970-01-01T01:25:42.000Z</time>
      </trkpt>
      <trkpt lat="45.41488" lon="4.60226">
        <ele>911.8</ele>
        <time>1970-01-01T01:25:43.000Z</time>
      </trkpt>
      <trkpt lat="45.41491" lon="4.60217">
        <ele>910.8</ele>
        <time>1970-01-01T01:25:44.000Z</time>
      </trkpt>
      <trkpt lat="45.41492" lon="4.60208">
        <ele>909.6</ele>
        <time>1970-01-01T01:25:45.000Z</time>
      </trkpt>
      <trkpt lat="45.41493" lon="4.60199">
        <ele>908.4</ele>
        <time>1970-01-01T01:25:46.000Z</time>
      </trkpt>
      <trkpt lat="45.41495" lon="4.60189">
        <ele>907</ele>
        <time>1970-01-01T01:25:47.000Z</time>
      </trkpt>
      <trkpt lat="45.41497" lon="4.60179">
        <ele>905.8</ele>
        <time>1970-01-01T01:25:48.000Z</time>
      </trkpt>
      <trkpt lat="45.41499" lon="4.60172">
        <ele>904.4</ele>
        <time>1970-01-01T01:25:49.000Z</time>
      </trkpt>
      <trkpt lat="45.41501" lon="4.60165">
        <ele>902.8</ele>
        <time>1970-01-01T01:25:50.000Z</time>
      </trkpt>
      <trkpt lat="45.41503" lon="4.60159">
        <ele>901.4</ele>
        <time>1970-01-01T01:25:51.000Z</time>
      </trkpt>
      <trkpt lat="45.41504" lon="4.60154">
        <ele>899.8</ele>
        <time>1970-01-01T01:25:52.000Z</time>
      </trkpt>
      <trkpt lat="45.41506" lon="4.60149">
        <ele>898.2</ele>
        <time>1970-01-01T01:25:53.000Z</time>
      </trkpt>
      <trkpt lat="45.41508" lon="4.60142">
        <ele>896.8</ele>
        <time>1970-01-01T01:25:54.000Z</time>
      </trkpt>
      <trkpt lat="45.4151" lon="4.60136">
        <ele>895.2</ele>
        <time>1970-01-01T01:25:55.000Z</time>
      </trkpt>
      <trkpt lat="45.41512" lon="4.60131">
        <ele>893.8</ele>
        <time>1970-01-01T01:25:56.000Z</time>
      </trkpt>
      <trkpt lat="45.41514" lon="4.60126">
        <ele>892.4</ele>
        <time>1970-01-01T01:25:57.000Z</time>
      </trkpt>
      <trkpt lat="45.41513" lon="4.60121">
        <ele>891.2</ele>
        <time>1970-01-01T01:25:58.000Z</time>
      </trkpt>
      <trkpt lat="45.41514" lon="4.60117">
        <ele>889.8</ele>
        <time>1970-01-01T01:25:59.000Z</time>
      </trkpt>
      <trkpt lat="45.41514" lon="4.60112">
        <ele>888.6</ele>
        <time>1970-01-01T01:26:00.000Z</time>
      </trkpt>
      <trkpt lat="45.41515" lon="4.60108">
        <ele>887.6</ele>
        <time>1970-01-01T01:26:01.000Z</time>
      </trkpt>
      <trkpt lat="45.41515" lon="4.60103">
        <ele>886.4</ele>
        <time>1970-01-01T01:26:02.000Z</time>
      </trkpt>
      <trkpt lat="45.41515" lon="4.60098">
        <ele>885.6</ele>
        <time>1970-01-01T01:26:03.000Z</time>
      </trkpt>
      <trkpt lat="45.41516" lon="4.60092">
        <ele>884.6</ele>
        <time>1970-01-01T01:26:04.000Z</time>
      </trkpt>
      <trkpt lat="45.41518" lon="4.60087">
        <ele>883.8</ele>
        <time>1970-01-01T01:26:05.000Z</time>
      </trkpt>
      <trkpt lat="45.41519" lon="4.60082">
        <ele>882.8</ele>
        <time>1970-01-01T01:26:06.000Z</time>
      </trkpt>
      <trkpt lat="45.41521" lon="4.60077">
        <ele>880.6</ele>
        <time>1970-01-01T01:26:07.000Z</time>
      </trkpt>
      <trkpt lat="45.41524" lon="4.60071">
        <ele>879.4</ele>
        <time>1970-01-01T01:26:08.000Z</time>
      </trkpt>
      <trkpt lat="45.41526" lon="4.60065">
        <ele>878</ele>
        <time>1970-01-01T01:26:09.000Z</time>
      </trkpt>
      <trkpt lat="45.41528" lon="4.60058">
        <ele>876.6</ele>
        <time>1970-01-01T01:26:10.000Z</time>
      </trkpt>
      <trkpt lat="45.41527" lon="4.60052">
        <ele>875</ele>
        <time>1970-01-01T01:26:11.000Z</time>
      </trkpt>
      <trkpt lat="45.41525" lon="4.60048">
        <ele>873.4</ele>
        <time>1970-01-01T01:26:12.000Z</time>
      </trkpt>
      <trkpt lat="45.41524" lon="4.60045">
        <ele>871.8</ele>
        <time>1970-01-01T01:26:13.000Z</time>
      </trkpt>
      <trkpt lat="45.41522" lon="4.60042">
        <ele>870.4</ele>
        <time>1970-01-01T01:26:14.000Z</time>
      </trkpt>
      <trkpt lat="45.41521" lon="4.60039">
        <ele>868.8</ele>
        <time>1970-01-01T01:26:15.000Z</time>
      </trkpt>
      <trkpt lat="45.41518" lon="4.60028">
        <ele>868.8</ele>
        <time>1970-01-01T01:26:18.000Z</time>
      </trkpt>
      <trkpt lat="45.41517" lon="4.60015">
        <ele>868.4</ele>
        <time>1970-01-01T01:26:20.000Z</time>
      </trkpt>
      <trkpt lat="45.41516" lon="4.6001">
        <ele>868</ele>
        <time>1970-01-01T01:26:21.000Z</time>
      </trkpt>
      <trkpt lat="45.41515" lon="4.60003">
        <ele>867.6</ele>
        <time>1970-01-01T01:26:22.000Z</time>
      </trkpt>
      <trkpt lat="45.41515" lon="4.59998">
        <ele>867</ele>
        <time>1970-01-01T01:26:23.000Z</time>
      </trkpt>
      <trkpt lat="45.41514" lon="4.59997">
        <ele>866.6</ele>
        <time>1970-01-01T01:26:24.000Z</time>
      </trkpt>
      <trkpt lat="45.41514" lon="4.59996">
        <ele>866.2</ele>
        <time>1970-01-01T01:26:25.000Z</time>
      </trkpt>
      <trkpt lat="45.41514" lon="4.59996">
        <ele>865.8</ele>
        <time>1970-01-01T01:26:26.000Z</time>
      </trkpt>
      <trkpt lat="45.41514" lon="4.59996">
        <ele>865.4</ele>
        <time>1970-01-01T01:26:27.000Z</time>
      </trkpt>
      <trkpt lat="45.41514" lon="4.59996">
        <ele>865</ele>
        <time>1970-01-01T01:26:28.000Z</time>
      </trkpt>
      <trkpt lat="45.41514" lon="4.59996">
        <ele>864.4</ele>
        <time>1970-01-01T01:26:29.000Z</time>
      </trkpt>
      <trkpt lat="45.41514" lon="4.59996">
        <ele>864.4</ele>
        <time>1970-01-01T01:26:38.000Z</time>
      </trkpt>
      <trkpt lat="45.41514" lon="4.59996">
        <ele>864.4</ele>
        <time>1970-01-01T01:26:49.000Z</time>
      </trkpt>
      <trkpt lat="45.41514" lon="4.59996">
        <ele>864.4</ele>
        <time>1970-01-01T01:27:03.000Z</time>
      </trkpt>
      <trkpt lat="45.41513" lon="4.5999">
        <ele>864.4</ele>
        <time>1970-01-01T01:27:09.000Z</time>
      </trkpt>
      <trkpt lat="45.41513" lon="4.5999">
        <ele>864.4</ele>
        <time>1970-01-01T01:27:21.000Z</time>
      </trkpt>
      <trkpt lat="45.41513" lon="4.5999">
        <ele>864.4</ele>
        <time>1970-01-01T01:27:38.000Z</time>
      </trkpt>
      <trkpt lat="45.41513" lon="4.59986">
        <ele>864.4</ele>
        <time>1970-01-01T01:27:48.000Z</time>
      </trkpt>
      <trkpt lat="45.41515" lon="4.59972">
        <ele>864.4</ele>
        <time>1970-01-01T01:27:52.000Z</time>
      </trkpt>
      <trkpt lat="45.41516" lon="4.59966">
        <ele>864</ele>
        <time>1970-01-01T01:27:53.000Z</time>
      </trkpt>
      <trkpt lat="45.41517" lon="4.59961">
        <ele>863.4</ele>
        <time>1970-01-01T01:27:54.000Z</time>
      </trkpt>
      <trkpt lat="45.41518" lon="4.59954">
        <ele>863</ele>
        <time>1970-01-01T01:27:55.000Z</time>
      </trkpt>
      <trkpt lat="45.41517" lon="4.59948">
        <ele>862.4</ele>
        <time>1970-01-01T01:27:56.000Z</time>
      </trkpt>
      <trkpt lat="45.41516" lon="4.59944">
        <ele>862</ele>
        <time>1970-01-01T01:27:57.000Z</time>
      </trkpt>
      <trkpt lat="45.41516" lon="4.5994">
        <ele>861.4</ele>
        <time>1970-01-01T01:27:58.000Z</time>
      </trkpt>
      <trkpt lat="45.41517" lon="4.59937">
        <ele>861</ele>
        <time>1970-01-01T01:27:59.000Z</time>
      </trkpt>
      <trkpt lat="45.41519" lon="4.59933">
        <ele>860.4</ele>
        <time>1970-01-01T01:28:00.000Z</time>
      </trkpt>
      <trkpt lat="45.41521" lon="4.59926">
        <ele>859.8</ele>
        <time>1970-01-01T01:28:01.000Z</time>
      </trkpt>
      <trkpt lat="45.41523" lon="4.5992">
        <ele>859.8</ele>
        <time>1970-01-01T01:28:02.000Z</time>
      </trkpt>
      <trkpt lat="45.41524" lon="4.59913">
        <ele>859.4</ele>
        <time>1970-01-01T01:28:03.000Z</time>
      </trkpt>
      <trkpt lat="45.41526" lon="4.59906">
        <ele>858.8</ele>
        <time>1970-01-01T01:28:04.000Z</time>
      </trkpt>
      <trkpt lat="45.41527" lon="4.59897">
        <ele>858.4</ele>
        <time>1970-01-01T01:28:05.000Z</time>
      </trkpt>
      <trkpt lat="45.41529" lon="4.59889">
        <ele>857.6</ele>
        <time>1970-01-01T01:28:06.000Z</time>
      </trkpt>
      <trkpt lat="45.4153" lon="4.59881">
        <ele>856.8</ele>
        <time>1970-01-01T01:28:07.000Z</time>
      </trkpt>
      <trkpt lat="45.41532" lon="4.59872">
        <ele>856</ele>
        <time>1970-01-01T01:28:08.000Z</time>
      </trkpt>
      <trkpt lat="45.41534" lon="4.59863">
        <ele>855.2</ele>
        <time>1970-01-01T01:28:09.000Z</time>
      </trkpt>
      <trkpt lat="45.41537" lon="4.59856">
        <ele>853.2</ele>
        <time>1970-01-01T01:28:10.000Z</time>
      </trkpt>
      <trkpt lat="45.4154" lon="4.59849">
        <ele>852</ele>
        <time>1970-01-01T01:28:11.000Z</time>
      </trkpt>
      <trkpt lat="45.41543" lon="4.59845">
        <ele>850.8</ele>
        <time>1970-01-01T01:28:12.000Z</time>
      </trkpt>
      <trkpt lat="45.41546" lon="4.59844">
        <ele>849.4</ele>
        <time>1970-01-01T01:28:13.000Z</time>
      </trkpt>
      <trkpt lat="45.4155" lon="4.59844">
        <ele>848.2</ele>
        <time>1970-01-01T01:28:14.000Z</time>
      </trkpt>
      <trkpt lat="45.41555" lon="4.59843">
        <ele>847</ele>
        <time>1970-01-01T01:28:15.000Z</time>
      </trkpt>
      <trkpt lat="45.4156" lon="4.59842">
        <ele>846</ele>
        <time>1970-01-01T01:28:16.000Z</time>
      </trkpt>
      <trkpt lat="45.41566" lon="4.5984">
        <ele>844.8</ele>
        <time>1970-01-01T01:28:17.000Z</time>
      </trkpt>
      <trkpt lat="45.4157" lon="4.59837">
        <ele>843.6</ele>
        <time>1970-01-01T01:28:18.000Z</time>
      </trkpt>
      <trkpt lat="45.41575" lon="4.59834">
        <ele>842.2</ele>
        <time>1970-01-01T01:28:19.000Z</time>
      </trkpt>
      <trkpt lat="45.41582" lon="4.5983">
        <ele>841</ele>
        <time>1970-01-01T01:28:20.000Z</time>
      </trkpt>
      <trkpt lat="45.41586" lon="4.59824">
        <ele>839.8</ele>
        <time>1970-01-01T01:28:21.000Z</time>
      </trkpt>
      <trkpt lat="45.41588" lon="4.59818">
        <ele>838.8</ele>
        <time>1970-01-01T01:28:22.000Z</time>
      </trkpt>
      <trkpt lat="45.41589" lon="4.59812">
        <ele>837.6</ele>
        <time>1970-01-01T01:28:23.000Z</time>
      </trkpt>
      <trkpt lat="45.41591" lon="4.59806">
        <ele>836.4</ele>
        <time>1970-01-01T01:28:24.000Z</time>
      </trkpt>
      <trkpt lat="45.41594" lon="4.59799">
        <ele>835.6</ele>
        <time>1970-01-01T01:28:25.000Z</time>
      </trkpt>
      <trkpt lat="45.41596" lon="4.59792">
        <ele>834.8</ele>
        <time>1970-01-01T01:28:26.000Z</time>
      </trkpt>
      <trkpt lat="45.41598" lon="4.59787">
        <ele>833.8</ele>
        <time>1970-01-01T01:28:27.000Z</time>
      </trkpt>
      <trkpt lat="45.416" lon="4.59784">
        <ele>833</ele>
        <time>1970-01-01T01:28:28.000Z</time>
      </trkpt>
      <trkpt lat="45.41603" lon="4.59781">
        <ele>832</ele>
        <time>1970-01-01T01:28:29.000Z</time>
      </trkpt>
      <trkpt lat="45.41607" lon="4.59777">
        <ele>831.2</ele>
        <time>1970-01-01T01:28:30.000Z</time>
      </trkpt>
      <trkpt lat="45.41612" lon="4.59773">
        <ele>830.2</ele>
        <time>1970-01-01T01:28:31.000Z</time>
      </trkpt>
      <trkpt lat="45.41617" lon="4.59768">
        <ele>829.2</ele>
        <time>1970-01-01T01:28:32.000Z</time>
      </trkpt>
      <trkpt lat="45.41622" lon="4.59764">
        <ele>828</ele>
        <time>1970-01-01T01:28:33.000Z</time>
      </trkpt>
      <trkpt lat="45.41625" lon="4.59759">
        <ele>826.8</ele>
        <time>1970-01-01T01:28:34.000Z</time>
      </trkpt>
      <trkpt lat="45.41627" lon="4.59757">
        <ele>824.2</ele>
        <time>1970-01-01T01:28:35.000Z</time>
      </trkpt>
      <trkpt lat="45.41627" lon="4.59755">
        <ele>823</ele>
        <time>1970-01-01T01:28:36.000Z</time>
      </trkpt>
      <trkpt lat="45.41627" lon="4.59754">
        <ele>822</ele>
        <time>1970-01-01T01:28:37.000Z</time>
      </trkpt>
      <trkpt lat="45.41627" lon="4.5975">
        <ele>821</ele>
        <time>1970-01-01T01:28:38.000Z</time>
      </trkpt>
      <trkpt lat="45.41628" lon="4.59746">
        <ele>820</ele>
        <time>1970-01-01T01:28:39.000Z</time>
      </trkpt>
      <trkpt lat="45.41629" lon="4.59739">
        <ele>819</ele>
        <time>1970-01-01T01:28:40.000Z</time>
      </trkpt>
      <trkpt lat="45.41631" lon="4.5973">
        <ele>818.4</ele>
        <time>1970-01-01T01:28:41.000Z</time>
      </trkpt>
      <trkpt lat="45.41632" lon="4.59726">
        <ele>817.8</ele>
        <time>1970-01-01T01:28:42.000Z</time>
      </trkpt>
      <trkpt lat="45.41633" lon="4.59724">
        <ele>817.2</ele>
        <time>1970-01-01T01:28:43.000Z</time>
      </trkpt>
      <trkpt lat="45.41634" lon="4.59723">
        <ele>816.6</ele>
        <time>1970-01-01T01:28:44.000Z</time>
      </trkpt>
      <trkpt lat="45.41635" lon="4.59721">
        <ele>815.8</ele>
        <time>1970-01-01T01:28:45.000Z</time>
      </trkpt>
      <trkpt lat="45.41637" lon="4.59715">
        <ele>815.4</ele>
        <time>1970-01-01T01:28:47.000Z</time>
      </trkpt>
      <trkpt lat="45.4164" lon="4.5971">
        <ele>815</ele>
        <time>1970-01-01T01:28:48.000Z</time>
      </trkpt>
      <trkpt lat="45.41644" lon="4.59705">
        <ele>814.6</ele>
        <time>1970-01-01T01:28:49.000Z</time>
      </trkpt>
      <trkpt lat="45.41647" lon="4.59699">
        <ele>814.2</ele>
        <time>1970-01-01T01:28:50.000Z</time>
      </trkpt>
      <trkpt lat="45.41649" lon="4.59693">
        <ele>813.8</ele>
        <time>1970-01-01T01:28:51.000Z</time>
      </trkpt>
      <trkpt lat="45.41652" lon="4.59687">
        <ele>813.8</ele>
        <time>1970-01-01T01:28:52.000Z</time>
      </trkpt>
      <trkpt lat="45.41654" lon="4.59681">
        <ele>813.8</ele>
        <time>1970-01-01T01:28:53.000Z</time>
      </trkpt>
      <trkpt lat="45.41659" lon="4.59665">
        <ele>813.4</ele>
        <time>1970-01-01T01:28:55.000Z</time>
      </trkpt>
      <trkpt lat="45.41661" lon="4.59656">
        <ele>813</ele>
        <time>1970-01-01T01:28:56.000Z</time>
      </trkpt>
      <trkpt lat="45.41664" lon="4.59648">
        <ele>812.6</ele>
        <time>1970-01-01T01:28:57.000Z</time>
      </trkpt>
      <trkpt lat="45.41667" lon="4.59639">
        <ele>812.2</ele>
        <time>1970-01-01T01:28:58.000Z</time>
      </trkpt>
      <trkpt lat="45.4167" lon="4.5963">
        <ele>811.6</ele>
        <time>1970-01-01T01:28:59.000Z</time>
      </trkpt>
      <trkpt lat="45.41673" lon="4.59619">
        <ele>810.8</ele>
        <time>1970-01-01T01:29:00.000Z</time>
      </trkpt>
      <trkpt lat="45.41676" lon="4.5961">
        <ele>810.4</ele>
        <time>1970-01-01T01:29:01.000Z</time>
      </trkpt>
      <trkpt lat="45.41679" lon="4.59601">
        <ele>810</ele>
        <time>1970-01-01T01:29:02.000Z</time>
      </trkpt>
      <trkpt lat="45.41681" lon="4.59592">
        <ele>809.6</ele>
        <time>1970-01-01T01:29:03.000Z</time>
      </trkpt>
      <trkpt lat="45.41682" lon="4.59583">
        <ele>809.2</ele>
        <time>1970-01-01T01:29:04.000Z</time>
      </trkpt>
      <trkpt lat="45.41683" lon="4.59575">
        <ele>808.8</ele>
        <time>1970-01-01T01:29:05.000Z</time>
      </trkpt>
      <trkpt lat="45.41684" lon="4.59567">
        <ele>808.4</ele>
        <time>1970-01-01T01:29:06.000Z</time>
      </trkpt>
      <trkpt lat="45.41685" lon="4.5956">
        <ele>808</ele>
        <time>1970-01-01T01:29:07.000Z</time>
      </trkpt>
      <trkpt lat="45.41686" lon="4.59552">
        <ele>807.6</ele>
        <time>1970-01-01T01:29:08.000Z</time>
      </trkpt>
      <trkpt lat="45.41687" lon="4.59538">
        <ele>807.6</ele>
        <time>1970-01-01T01:29:10.000Z</time>
      </trkpt>
      <trkpt lat="45.41687" lon="4.5953">
        <ele>807.2</ele>
        <time>1970-01-01T01:29:11.000Z</time>
      </trkpt>
      <trkpt lat="45.41686" lon="4.59523">
        <ele>806.8</ele>
        <time>1970-01-01T01:29:12.000Z</time>
      </trkpt>
      <trkpt lat="45.41687" lon="4.59519">
        <ele>806.4</ele>
        <time>1970-01-01T01:29:13.000Z</time>
      </trkpt>
      <trkpt lat="45.41688" lon="4.59517">
        <ele>806</ele>
        <time>1970-01-01T01:29:14.000Z</time>
      </trkpt>
      <trkpt lat="45.4169" lon="4.59514">
        <ele>805.6</ele>
        <time>1970-01-01T01:29:15.000Z</time>
      </trkpt>
      <trkpt lat="45.41699" lon="4.59504">
        <ele>805</ele>
        <time>1970-01-01T01:29:18.000Z</time>
      </trkpt>
      <trkpt lat="45.41702" lon="4.59504">
        <ele>804.6</ele>
        <time>1970-01-01T01:29:19.000Z</time>
      </trkpt>
      <trkpt lat="45.41707" lon="4.59504">
        <ele>804.2</ele>
        <time>1970-01-01T01:29:20.000Z</time>
      </trkpt>
      <trkpt lat="45.41712" lon="4.59502">
        <ele>803.4</ele>
        <time>1970-01-01T01:29:21.000Z</time>
      </trkpt>
      <trkpt lat="45.41717" lon="4.59499">
        <ele>802.8</ele>
        <time>1970-01-01T01:29:22.000Z</time>
      </trkpt>
      <trkpt lat="45.41721" lon="4.59495">
        <ele>802</ele>
        <time>1970-01-01T01:29:23.000Z</time>
      </trkpt>
      <trkpt lat="45.41725" lon="4.59493">
        <ele>800.2</ele>
        <time>1970-01-01T01:29:24.000Z</time>
      </trkpt>
      <trkpt lat="45.41729" lon="4.5949">
        <ele>799</ele>
        <time>1970-01-01T01:29:25.000Z</time>
      </trkpt>
      <trkpt lat="45.4173" lon="4.59486">
        <ele>798</ele>
        <time>1970-01-01T01:29:26.000Z</time>
      </trkpt>
      <trkpt lat="45.41734" lon="4.59483">
        <ele>797</ele>
        <time>1970-01-01T01:29:27.000Z</time>
      </trkpt>
      <trkpt lat="45.41738" lon="4.59481">
        <ele>796.2</ele>
        <time>1970-01-01T01:29:28.000Z</time>
      </trkpt>
      <trkpt lat="45.41742" lon="4.59478">
        <ele>795.2</ele>
        <time>1970-01-01T01:29:29.000Z</time>
      </trkpt>
      <trkpt lat="45.41743" lon="4.59475">
        <ele>794.4</ele>
        <time>1970-01-01T01:29:30.000Z</time>
      </trkpt>
      <trkpt lat="45.41743" lon="4.59471">
        <ele>793.4</ele>
        <time>1970-01-01T01:29:31.000Z</time>
      </trkpt>
      <trkpt lat="45.41742" lon="4.59467">
        <ele>792.6</ele>
        <time>1970-01-01T01:29:32.000Z</time>
      </trkpt>
      <trkpt lat="45.41742" lon="4.59464">
        <ele>791.6</ele>
        <time>1970-01-01T01:29:33.000Z</time>
      </trkpt>
      <trkpt lat="45.41743" lon="4.59461">
        <ele>790.6</ele>
        <time>1970-01-01T01:29:34.000Z</time>
      </trkpt>
      <trkpt lat="45.41748" lon="4.59452">
        <ele>790.2</ele>
        <time>1970-01-01T01:29:38.000Z</time>
      </trkpt>
      <trkpt lat="45.4175" lon="4.59451">
        <ele>789.8</ele>
        <time>1970-01-01T01:29:39.000Z</time>
      </trkpt>
      <trkpt lat="45.41752" lon="4.59451">
        <ele>789.4</ele>
        <time>1970-01-01T01:29:40.000Z</time>
      </trkpt>
      <trkpt lat="45.41755" lon="4.59452">
        <ele>788.6</ele>
        <time>1970-01-01T01:29:41.000Z</time>
      </trkpt>
      <trkpt lat="45.41757" lon="4.59453">
        <ele>788</ele>
        <time>1970-01-01T01:29:42.000Z</time>
      </trkpt>
      <trkpt lat="45.4176" lon="4.59454">
        <ele>787.2</ele>
        <time>1970-01-01T01:29:43.000Z</time>
      </trkpt>
      <trkpt lat="45.41762" lon="4.59451">
        <ele>786.6</ele>
        <time>1970-01-01T01:29:44.000Z</time>
      </trkpt>
      <trkpt lat="45.41764" lon="4.59448">
        <ele>785.8</ele>
        <time>1970-01-01T01:29:45.000Z</time>
      </trkpt>
      <trkpt lat="45.41765" lon="4.59444">
        <ele>785</ele>
        <time>1970-01-01T01:29:46.000Z</time>
      </trkpt>
      <trkpt lat="45.41766" lon="4.59443">
        <ele>784</ele>
        <time>1970-01-01T01:29:47.000Z</time>
      </trkpt>
      <trkpt lat="45.41768" lon="4.59443">
        <ele>783</ele>
        <time>1970-01-01T01:29:48.000Z</time>
      </trkpt>
      <trkpt lat="45.41769" lon="4.59443">
        <ele>781</ele>
        <time>1970-01-01T01:29:49.000Z</time>
      </trkpt>
      <trkpt lat="45.4177" lon="4.59444">
        <ele>780.2</ele>
        <time>1970-01-01T01:29:50.000Z</time>
      </trkpt>
      <trkpt lat="45.41771" lon="4.59444">
        <ele>779.2</ele>
        <time>1970-01-01T01:29:51.000Z</time>
      </trkpt>
      <trkpt lat="45.41775" lon="4.59443">
        <ele>778.6</ele>
        <time>1970-01-01T01:29:53.000Z</time>
      </trkpt>
      <trkpt lat="45.41778" lon="4.59442">
        <ele>778.2</ele>
        <time>1970-01-01T01:29:54.000Z</time>
      </trkpt>
      <trkpt lat="45.41782" lon="4.59441">
        <ele>777.4</ele>
        <time>1970-01-01T01:29:55.000Z</time>
      </trkpt>
      <trkpt lat="45.41785" lon="4.59438">
        <ele>776.8</ele>
        <time>1970-01-01T01:29:56.000Z</time>
      </trkpt>
      <trkpt lat="45.41789" lon="4.59435">
        <ele>775.8</ele>
        <time>1970-01-01T01:29:57.000Z</time>
      </trkpt>
      <trkpt lat="45.41793" lon="4.59429">
        <ele>775</ele>
        <time>1970-01-01T01:29:58.000Z</time>
      </trkpt>
      <trkpt lat="45.41797" lon="4.59425">
        <ele>774</ele>
        <time>1970-01-01T01:29:59.000Z</time>
      </trkpt>
      <trkpt lat="45.41799" lon="4.59422">
        <ele>773</ele>
        <time>1970-01-01T01:30:00.000Z</time>
      </trkpt>
      <trkpt lat="45.41802" lon="4.59419">
        <ele>772</ele>
        <time>1970-01-01T01:30:01.000Z</time>
      </trkpt>
      <trkpt lat="45.41804" lon="4.59414">
        <ele>771.2</ele>
        <time>1970-01-01T01:30:02.000Z</time>
      </trkpt>
      <trkpt lat="45.41806" lon="4.59409">
        <ele>770.4</ele>
        <time>1970-01-01T01:30:03.000Z</time>
      </trkpt>
      <trkpt lat="45.41809" lon="4.59403">
        <ele>769.4</ele>
        <time>1970-01-01T01:30:04.000Z</time>
      </trkpt>
      <trkpt lat="45.4181" lon="4.59396">
        <ele>768.6</ele>
        <time>1970-01-01T01:30:05.000Z</time>
      </trkpt>
      <trkpt lat="45.41811" lon="4.5939">
        <ele>767.8</ele>
        <time>1970-01-01T01:30:06.000Z</time>
      </trkpt>
      <trkpt lat="45.41812" lon="4.59385">
        <ele>766.8</ele>
        <time>1970-01-01T01:30:07.000Z</time>
      </trkpt>
      <trkpt lat="45.41813" lon="4.59379">
        <ele>766</ele>
        <time>1970-01-01T01:30:08.000Z</time>
      </trkpt>
      <trkpt lat="45.41814" lon="4.59373">
        <ele>765.2</ele>
        <time>1970-01-01T01:30:09.000Z</time>
      </trkpt>
      <trkpt lat="45.41816" lon="4.59366">
        <ele>764.6</ele>
        <time>1970-01-01T01:30:10.000Z</time>
      </trkpt>
      <trkpt lat="45.41817" lon="4.5936">
        <ele>763.6</ele>
        <time>1970-01-01T01:30:11.000Z</time>
      </trkpt>
      <trkpt lat="45.41819" lon="4.59352">
        <ele>762.8</ele>
        <time>1970-01-01T01:30:12.000Z</time>
      </trkpt>
      <trkpt lat="45.41821" lon="4.59344">
        <ele>761.6</ele>
        <time>1970-01-01T01:30:13.000Z</time>
      </trkpt>
      <trkpt lat="45.41824" lon="4.59338">
        <ele>759.6</ele>
        <time>1970-01-01T01:30:14.000Z</time>
      </trkpt>
      <trkpt lat="45.41827" lon="4.59333">
        <ele>758.4</ele>
        <time>1970-01-01T01:30:15.000Z</time>
      </trkpt>
      <trkpt lat="45.4183" lon="4.59328">
        <ele>757.2</ele>
        <time>1970-01-01T01:30:16.000Z</time>
      </trkpt>
      <trkpt lat="45.41832" lon="4.59322">
        <ele>756.2</ele>
        <time>1970-01-01T01:30:17.000Z</time>
      </trkpt>
      <trkpt lat="45.41833" lon="4.59317">
        <ele>755</ele>
        <time>1970-01-01T01:30:18.000Z</time>
      </trkpt>
      <trkpt lat="45.41834" lon="4.59311">
        <ele>753.8</ele>
        <time>1970-01-01T01:30:19.000Z</time>
      </trkpt>
      <trkpt lat="45.41834" lon="4.59304">
        <ele>752.8</ele>
        <time>1970-01-01T01:30:20.000Z</time>
      </trkpt>
      <trkpt lat="45.41833" lon="4.593">
        <ele>751.8</ele>
        <time>1970-01-01T01:30:21.000Z</time>
      </trkpt>
      <trkpt lat="45.41832" lon="4.59295">
        <ele>750.8</ele>
        <time>1970-01-01T01:30:22.000Z</time>
      </trkpt>
      <trkpt lat="45.41832" lon="4.59291">
        <ele>749.8</ele>
        <time>1970-01-01T01:30:23.000Z</time>
      </trkpt>
      <trkpt lat="45.41832" lon="4.59287">
        <ele>748.8</ele>
        <time>1970-01-01T01:30:24.000Z</time>
      </trkpt>
      <trkpt lat="45.41833" lon="4.59282">
        <ele>748</ele>
        <time>1970-01-01T01:30:25.000Z</time>
      </trkpt>
      <trkpt lat="45.41835" lon="4.59277">
        <ele>747.4</ele>
        <time>1970-01-01T01:30:26.000Z</time>
      </trkpt>
      <trkpt lat="45.41837" lon="4.5927">
        <ele>746.6</ele>
        <time>1970-01-01T01:30:27.000Z</time>
      </trkpt>
      <trkpt lat="45.41839" lon="4.59264">
        <ele>745.8</ele>
        <time>1970-01-01T01:30:28.000Z</time>
      </trkpt>
      <trkpt lat="45.41842" lon="4.59258">
        <ele>745</ele>
        <time>1970-01-01T01:30:29.000Z</time>
      </trkpt>
      <trkpt lat="45.41844" lon="4.59253">
        <ele>744</ele>
        <time>1970-01-01T01:30:30.000Z</time>
      </trkpt>
      <trkpt lat="45.41846" lon="4.59247">
        <ele>742.8</ele>
        <time>1970-01-01T01:30:31.000Z</time>
      </trkpt>
      <trkpt lat="45.41847" lon="4.59241">
        <ele>741.8</ele>
        <time>1970-01-01T01:30:32.000Z</time>
      </trkpt>
      <trkpt lat="45.41848" lon="4.59234">
        <ele>740.8</ele>
        <time>1970-01-01T01:30:33.000Z</time>
      </trkpt>
      <trkpt lat="45.41849" lon="4.59228">
        <ele>739.6</ele>
        <time>1970-01-01T01:30:34.000Z</time>
      </trkpt>
      <trkpt lat="45.4185" lon="4.59224">
        <ele>738.6</ele>
        <time>1970-01-01T01:30:35.000Z</time>
      </trkpt>
      <trkpt lat="45.4185" lon="4.59222">
        <ele>737.4</ele>
        <time>1970-01-01T01:30:36.000Z</time>
      </trkpt>
      <trkpt lat="45.41849" lon="4.59222">
        <ele>736.2</ele>
        <time>1970-01-01T01:30:37.000Z</time>
      </trkpt>
      <trkpt lat="45.41849" lon="4.59222">
        <ele>735</ele>
        <time>1970-01-01T01:30:38.000Z</time>
      </trkpt>
      <trkpt lat="45.41849" lon="4.59222">
        <ele>732.6</ele>
        <time>1970-01-01T01:30:39.000Z</time>
      </trkpt>
      <trkpt lat="45.41849" lon="4.59222">
        <ele>732.6</ele>
        <time>1970-01-01T01:30:50.000Z</time>
      </trkpt>
      <trkpt lat="45.41849" lon="4.59222">
        <ele>732.6</ele>
        <time>1970-01-01T01:31:00.000Z</time>
      </trkpt>
      <trkpt lat="45.41849" lon="4.59221">
        <ele>732.6</ele>
        <time>1970-01-01T01:31:02.000Z</time>
      </trkpt>
      <trkpt lat="45.4185" lon="4.59215">
        <ele>732.6</ele>
        <time>1970-01-01T01:31:04.000Z</time>
      </trkpt>
      <trkpt lat="45.41851" lon="4.59211">
        <ele>732.2</ele>
        <time>1970-01-01T01:31:05.000Z</time>
      </trkpt>
      <trkpt lat="45.41853" lon="4.59208">
        <ele>731.6</ele>
        <time>1970-01-01T01:31:06.000Z</time>
      </trkpt>
      <trkpt lat="45.41855" lon="4.59205">
        <ele>731</ele>
        <time>1970-01-01T01:31:07.000Z</time>
      </trkpt>
      <trkpt lat="45.41857" lon="4.59203">
        <ele>730.2</ele>
        <time>1970-01-01T01:31:08.000Z</time>
      </trkpt>
      <trkpt lat="45.41858" lon="4.592">
        <ele>729.4</ele>
        <time>1970-01-01T01:31:09.000Z</time>
      </trkpt>
      <trkpt lat="45.41857" lon="4.59199">
        <ele>728.6</ele>
        <time>1970-01-01T01:31:10.000Z</time>
      </trkpt>
      <trkpt lat="45.41858" lon="4.59195">
        <ele>728</ele>
        <time>1970-01-01T01:31:11.000Z</time>
      </trkpt>
      <trkpt lat="45.41859" lon="4.59192">
        <ele>727.2</ele>
        <time>1970-01-01T01:31:12.000Z</time>
      </trkpt>
      <trkpt lat="45.4186" lon="4.59188">
        <ele>726.4</ele>
        <time>1970-01-01T01:31:13.000Z</time>
      </trkpt>
      <trkpt lat="45.41862" lon="4.59184">
        <ele>725.4</ele>
        <time>1970-01-01T01:31:14.000Z</time>
      </trkpt>
      <trkpt lat="45.41864" lon="4.59179">
        <ele>724</ele>
        <time>1970-01-01T01:31:15.000Z</time>
      </trkpt>
      <trkpt lat="45.41864" lon="4.59174">
        <ele>722.8</ele>
        <time>1970-01-01T01:31:16.000Z</time>
      </trkpt>
      <trkpt lat="45.41864" lon="4.59169">
        <ele>721.4</ele>
        <time>1970-01-01T01:31:17.000Z</time>
      </trkpt>
      <trkpt lat="45.41865" lon="4.59165">
        <ele>720</ele>
        <time>1970-01-01T01:31:18.000Z</time>
      </trkpt>
      <trkpt lat="45.41866" lon="4.59163">
        <ele>718.4</ele>
        <time>1970-01-01T01:31:19.000Z</time>
      </trkpt>
      <trkpt lat="45.41867" lon="4.5916">
        <ele>717</ele>
        <time>1970-01-01T01:31:20.000Z</time>
      </trkpt>
      <trkpt lat="45.41868" lon="4.59156">
        <ele>715.6</ele>
        <time>1970-01-01T01:31:21.000Z</time>
      </trkpt>
      <trkpt lat="45.41871" lon="4.59152">
        <ele>714.2</ele>
        <time>1970-01-01T01:31:22.000Z</time>
      </trkpt>
      <trkpt lat="45.41875" lon="4.5915">
        <ele>712.8</ele>
        <time>1970-01-01T01:31:23.000Z</time>
      </trkpt>
      <trkpt lat="45.41879" lon="4.5915">
        <ele>711.4</ele>
        <time>1970-01-01T01:31:24.000Z</time>
      </trkpt>
      <trkpt lat="45.41882" lon="4.59149">
        <ele>710</ele>
        <time>1970-01-01T01:31:25.000Z</time>
      </trkpt>
      <trkpt lat="45.41885" lon="4.59147">
        <ele>708.6</ele>
        <time>1970-01-01T01:31:26.000Z</time>
      </trkpt>
      <trkpt lat="45.41886" lon="4.59145">
        <ele>707.4</ele>
        <time>1970-01-01T01:31:27.000Z</time>
      </trkpt>
      <trkpt lat="45.41887" lon="4.59144">
        <ele>704.8</ele>
        <time>1970-01-01T01:31:28.000Z</time>
      </trkpt>
      <trkpt lat="45.41887" lon="4.59141">
        <ele>703.8</ele>
        <time>1970-01-01T01:31:29.000Z</time>
      </trkpt>
      <trkpt lat="45.4189" lon="4.59138">
        <ele>702.8</ele>
        <time>1970-01-01T01:31:30.000Z</time>
      </trkpt>
      <trkpt lat="45.41893" lon="4.59135">
        <ele>701.8</ele>
        <time>1970-01-01T01:31:31.000Z</time>
      </trkpt>
      <trkpt lat="45.41899" lon="4.59132">
        <ele>700.8</ele>
        <time>1970-01-01T01:31:32.000Z</time>
      </trkpt>
      <trkpt lat="45.41902" lon="4.59132">
        <ele>699.8</ele>
        <time>1970-01-01T01:31:33.000Z</time>
      </trkpt>
      <trkpt lat="45.41905" lon="4.59133">
        <ele>698.8</ele>
        <time>1970-01-01T01:31:34.000Z</time>
      </trkpt>
      <trkpt lat="45.41908" lon="4.59134">
        <ele>698</ele>
        <time>1970-01-01T01:31:35.000Z</time>
      </trkpt>
      <trkpt lat="45.41911" lon="4.59135">
        <ele>697</ele>
        <time>1970-01-01T01:31:36.000Z</time>
      </trkpt>
      <trkpt lat="45.41913" lon="4.59137">
        <ele>696.2</ele>
        <time>1970-01-01T01:31:37.000Z</time>
      </trkpt>
      <trkpt lat="45.41915" lon="4.59137">
        <ele>695.2</ele>
        <time>1970-01-01T01:31:38.000Z</time>
      </trkpt>
      <trkpt lat="45.41918" lon="4.59137">
        <ele>694.4</ele>
        <time>1970-01-01T01:31:39.000Z</time>
      </trkpt>
      <trkpt lat="45.41932" lon="4.59143">
        <ele>694.4</ele>
        <time>1970-01-01T01:31:43.000Z</time>
      </trkpt>
      <trkpt lat="45.41938" lon="4.59144">
        <ele>694.4</ele>
        <time>1970-01-01T01:31:47.000Z</time>
      </trkpt>
      <trkpt lat="45.4194" lon="4.59144">
        <ele>694.4</ele>
        <time>1970-01-01T01:31:53.000Z</time>
      </trkpt>
      <trkpt lat="45.4194" lon="4.59144">
        <ele>694.4</ele>
        <time>1970-01-01T01:32:06.000Z</time>
      </trkpt>
      <trkpt lat="45.4194" lon="4.59144">
        <ele>694.4</ele>
        <time>1970-01-01T01:32:17.000Z</time>
      </trkpt>
      <trkpt lat="45.4194" lon="4.59144">
        <ele>694.4</ele>
        <time>1970-01-01T01:32:29.000Z</time>
      </trkpt>
      <trkpt lat="45.41939" lon="4.59144">
        <ele>694.4</ele>
        <time>1970-01-01T01:32:41.000Z</time>
      </trkpt>
      <trkpt lat="45.41939" lon="4.59144">
        <ele>694.4</ele>
        <time>1970-01-01T01:32:52.000Z</time>
      </trkpt>
      <trkpt lat="45.41941" lon="4.59141">
        <ele>694.4</ele>
        <time>1970-01-01T01:33:02.000Z</time>
      </trkpt>
      <trkpt lat="45.41943" lon="4.59123">
        <ele>693.8</ele>
        <time>1970-01-01T01:33:06.000Z</time>
      </trkpt>
      <trkpt lat="45.4194" lon="4.59118">
        <ele>693.4</ele>
        <time>1970-01-01T01:33:07.000Z</time>
      </trkpt>
      <trkpt lat="45.41938" lon="4.59115">
        <ele>692</ele>
        <time>1970-01-01T01:33:08.000Z</time>
      </trkpt>
      <trkpt lat="45.41938" lon="4.59112">
        <ele>691.2</ele>
        <time>1970-01-01T01:33:09.000Z</time>
      </trkpt>
      <trkpt lat="45.4194" lon="4.59109">
        <ele>690.4</ele>
        <time>1970-01-01T01:33:10.000Z</time>
      </trkpt>
      <trkpt lat="45.41941" lon="4.59105">
        <ele>690</ele>
        <time>1970-01-01T01:33:11.000Z</time>
      </trkpt>
      <trkpt lat="45.41944" lon="4.59101">
        <ele>689.4</ele>
        <time>1970-01-01T01:33:12.000Z</time>
      </trkpt>
      <trkpt lat="45.41946" lon="4.59098">
        <ele>688.6</ele>
        <time>1970-01-01T01:33:13.000Z</time>
      </trkpt>
      <trkpt lat="45.41948" lon="4.59093">
        <ele>687.8</ele>
        <time>1970-01-01T01:33:14.000Z</time>
      </trkpt>
      <trkpt lat="45.41949" lon="4.59088">
        <ele>687</ele>
        <time>1970-01-01T01:33:15.000Z</time>
      </trkpt>
      <trkpt lat="45.4195" lon="4.59083">
        <ele>686.2</ele>
        <time>1970-01-01T01:33:16.000Z</time>
      </trkpt>
      <trkpt lat="45.41951" lon="4.59078">
        <ele>685.2</ele>
        <time>1970-01-01T01:33:17.000Z</time>
      </trkpt>
      <trkpt lat="45.41952" lon="4.59074">
        <ele>684.2</ele>
        <time>1970-01-01T01:33:18.000Z</time>
      </trkpt>
      <trkpt lat="45.41953" lon="4.5907">
        <ele>683.4</ele>
        <time>1970-01-01T01:33:19.000Z</time>
      </trkpt>
      <trkpt lat="45.41956" lon="4.59067">
        <ele>682.4</ele>
        <time>1970-01-01T01:33:20.000Z</time>
      </trkpt>
      <trkpt lat="45.41958" lon="4.59064">
        <ele>681.6</ele>
        <time>1970-01-01T01:33:21.000Z</time>
      </trkpt>
      <trkpt lat="45.4196" lon="4.59059">
        <ele>680.6</ele>
        <time>1970-01-01T01:33:22.000Z</time>
      </trkpt>
      <trkpt lat="45.41962" lon="4.59054">
        <ele>679.8</ele>
        <time>1970-01-01T01:33:23.000Z</time>
      </trkpt>
      <trkpt lat="45.41961" lon="4.59045">
        <ele>679</ele>
        <time>1970-01-01T01:33:24.000Z</time>
      </trkpt>
      <trkpt lat="45.41961" lon="4.59037">
        <ele>678.2</ele>
        <time>1970-01-01T01:33:25.000Z</time>
      </trkpt>
      <trkpt lat="45.4196" lon="4.59029">
        <ele>677.4</ele>
        <time>1970-01-01T01:33:26.000Z</time>
      </trkpt>
      <trkpt lat="45.41958" lon="4.59021">
        <ele>676.6</ele>
        <time>1970-01-01T01:33:27.000Z</time>
      </trkpt>
      <trkpt lat="45.41956" lon="4.59015">
        <ele>675.8</ele>
        <time>1970-01-01T01:33:28.000Z</time>
      </trkpt>
      <trkpt lat="45.41954" lon="4.59008">
        <ele>674.8</ele>
        <time>1970-01-01T01:33:29.000Z</time>
      </trkpt>
      <trkpt lat="45.41953" lon="4.58999">
        <ele>673.8</ele>
        <time>1970-01-01T01:33:30.000Z</time>
      </trkpt>
      <trkpt lat="45.41955" lon="4.58989">
        <ele>672.8</ele>
        <time>1970-01-01T01:33:31.000Z</time>
      </trkpt>
      <trkpt lat="45.41958" lon="4.58981">
        <ele>670.6</ele>
        <time>1970-01-01T01:33:32.000Z</time>
      </trkpt>
      <trkpt lat="45.4196" lon="4.58976">
        <ele>669.2</ele>
        <time>1970-01-01T01:33:33.000Z</time>
      </trkpt>
      <trkpt lat="45.41961" lon="4.58976">
        <ele>667.8</ele>
        <time>1970-01-01T01:33:34.000Z</time>
      </trkpt>
      <trkpt lat="45.41961" lon="4.58976">
        <ele>666.6</ele>
        <time>1970-01-01T01:33:35.000Z</time>
      </trkpt>
      <trkpt lat="45.41961" lon="4.58976">
        <ele>665.6</ele>
        <time>1970-01-01T01:33:36.000Z</time>
      </trkpt>
      <trkpt lat="45.41961" lon="4.58976">
        <ele>664.6</ele>
        <time>1970-01-01T01:33:37.000Z</time>
      </trkpt>
      <trkpt lat="45.41961" lon="4.58976">
        <ele>663.6</ele>
        <time>1970-01-01T01:33:38.000Z</time>
      </trkpt>
      <trkpt lat="45.41961" lon="4.58976">
        <ele>662.6</ele>
        <time>1970-01-01T01:33:39.000Z</time>
      </trkpt>
      <trkpt lat="45.41961" lon="4.58976">
        <ele>661.6</ele>
        <time>1970-01-01T01:33:40.000Z</time>
      </trkpt>
      <trkpt lat="45.41961" lon="4.58976">
        <ele>661.6</ele>
        <time>1970-01-01T01:33:43.000Z</time>
      </trkpt>
      <trkpt lat="45.41961" lon="4.58976">
        <ele>661.6</ele>
        <time>1970-01-01T01:33:53.000Z</time>
      </trkpt>
      <trkpt lat="45.41961" lon="4.58976">
        <ele>661.6</ele>
        <time>1970-01-01T01:34:03.000Z</time>
      </trkpt>
      <trkpt lat="45.41964" lon="4.58975">
        <ele>661.6</ele>
        <time>1970-01-01T01:34:15.000Z</time>
      </trkpt>
      <trkpt lat="45.41964" lon="4.58975">
        <ele>661.6</ele>
        <time>1970-01-01T01:34:25.000Z</time>
      </trkpt>
      <trkpt lat="45.41964" lon="4.58974">
        <ele>661.6</ele>
        <time>1970-01-01T01:34:30.000Z</time>
      </trkpt>
      <trkpt lat="45.41966" lon="4.58972">
        <ele>661.6</ele>
        <time>1970-01-01T01:34:31.000Z</time>
      </trkpt>
      <trkpt lat="45.41969" lon="4.58968">
        <ele>661.2</ele>
        <time>1970-01-01T01:34:32.000Z</time>
      </trkpt>
      <trkpt lat="45.41972" lon="4.58966">
        <ele>660.8</ele>
        <time>1970-01-01T01:34:33.000Z</time>
      </trkpt>
      <trkpt lat="45.41975" lon="4.58963">
        <ele>660</ele>
        <time>1970-01-01T01:34:34.000Z</time>
      </trkpt>
      <trkpt lat="45.41978" lon="4.5896">
        <ele>659.2</ele>
        <time>1970-01-01T01:34:35.000Z</time>
      </trkpt>
      <trkpt lat="45.41981" lon="4.58958">
        <ele>658.6</ele>
        <time>1970-01-01T01:34:36.000Z</time>
      </trkpt>
      <trkpt lat="45.41983" lon="4.58958">
        <ele>657.8</ele>
        <time>1970-01-01T01:34:37.000Z</time>
      </trkpt>
      <trkpt lat="45.41985" lon="4.58957">
        <ele>657</ele>
        <time>1970-01-01T01:34:38.000Z</time>
      </trkpt>
      <trkpt lat="45.41987" lon="4.58955">
        <ele>656</ele>
        <time>1970-01-01T01:34:39.000Z</time>
      </trkpt>
      <trkpt lat="45.41988" lon="4.58954">
        <ele>655.2</ele>
        <time>1970-01-01T01:34:40.000Z</time>
      </trkpt>
      <trkpt lat="45.4199" lon="4.58953">
        <ele>654.2</ele>
        <time>1970-01-01T01:34:41.000Z</time>
      </trkpt>
      <trkpt lat="45.41995" lon="4.58953">
        <ele>653.2</ele>
        <time>1970-01-01T01:34:42.000Z</time>
      </trkpt>
      <trkpt lat="45.41998" lon="4.58956">
        <ele>652.4</ele>
        <time>1970-01-01T01:34:43.000Z</time>
      </trkpt>
      <trkpt lat="45.42001" lon="4.58957">
        <ele>651.6</ele>
        <time>1970-01-01T01:34:44.000Z</time>
      </trkpt>
      <trkpt lat="45.42002" lon="4.58957">
        <ele>650.8</ele>
        <time>1970-01-01T01:34:45.000Z</time>
      </trkpt>
      <trkpt lat="45.42002" lon="4.58957">
        <ele>649.4</ele>
        <time>1970-01-01T01:34:46.000Z</time>
      </trkpt>
      <trkpt lat="45.42002" lon="4.58957">
        <ele>648.6</ele>
        <time>1970-01-01T01:34:47.000Z</time>
      </trkpt>
      <trkpt lat="45.42002" lon="4.58957">
        <ele>648</ele>
        <time>1970-01-01T01:34:48.000Z</time>
      </trkpt>
      <trkpt lat="45.42002" lon="4.58957">
        <ele>647.2</ele>
        <time>1970-01-01T01:34:49.000Z</time>
      </trkpt>
      <trkpt lat="45.42002" lon="4.58957">
        <ele>647.2</ele>
        <time>1970-01-01T01:34:51.000Z</time>
      </trkpt>
      <trkpt lat="45.42002" lon="4.58957">
        <ele>647.2</ele>
        <time>1970-01-01T01:35:01.000Z</time>
      </trkpt>
      <trkpt lat="45.42002" lon="4.58957">
        <ele>647.2</ele>
        <time>1970-01-01T01:35:12.000Z</time>
      </trkpt>
      <trkpt lat="45.42002" lon="4.58957">
        <ele>647.2</ele>
        <time>1970-01-01T01:35:19.000Z</time>
      </trkpt>
      <trkpt lat="45.42003" lon="4.58958">
        <ele>647.2</ele>
        <time>1970-01-01T01:35:29.000Z</time>
      </trkpt>
      <trkpt lat="45.4201" lon="4.58963">
        <ele>647.2</ele>
        <time>1970-01-01T01:35:33.000Z</time>
      </trkpt>
      <trkpt lat="45.42014" lon="4.58965">
        <ele>647.2</ele>
        <time>1970-01-01T01:35:34.000Z</time>
      </trkpt>
      <trkpt lat="45.42025" lon="4.58969">
        <ele>646.8</ele>
        <time>1970-01-01T01:35:37.000Z</time>
      </trkpt>
      <trkpt lat="45.42029" lon="4.58968">
        <ele>646.2</ele>
        <time>1970-01-01T01:35:38.000Z</time>
      </trkpt>
      <trkpt lat="45.42033" lon="4.58966">
        <ele>645.8</ele>
        <time>1970-01-01T01:35:39.000Z</time>
      </trkpt>
      <trkpt lat="45.42037" lon="4.58966">
        <ele>645</ele>
        <time>1970-01-01T01:35:40.000Z</time>
      </trkpt>
      <trkpt lat="45.42042" lon="4.58967">
        <ele>644.4</ele>
        <time>1970-01-01T01:35:41.000Z</time>
      </trkpt>
      <trkpt lat="45.42046" lon="4.5897">
        <ele>643.6</ele>
        <time>1970-01-01T01:35:42.000Z</time>
      </trkpt>
      <trkpt lat="45.42049" lon="4.58972">
        <ele>642.8</ele>
        <time>1970-01-01T01:35:43.000Z</time>
      </trkpt>
      <trkpt lat="45.42052" lon="4.58976">
        <ele>642.2</ele>
        <time>1970-01-01T01:35:44.000Z</time>
      </trkpt>
      <trkpt lat="45.42054" lon="4.58979">
        <ele>641.4</ele>
        <time>1970-01-01T01:35:45.000Z</time>
      </trkpt>
      <trkpt lat="45.42056" lon="4.58982">
        <ele>640.6</ele>
        <time>1970-01-01T01:35:46.000Z</time>
      </trkpt>
      <trkpt lat="45.42058" lon="4.58984">
        <ele>639.8</ele>
        <time>1970-01-01T01:35:47.000Z</time>
      </trkpt>
      <trkpt lat="45.4206" lon="4.58986">
        <ele>639.8</ele>
        <time>1970-01-01T01:35:49.000Z</time>
      </trkpt>
      <trkpt lat="45.42064" lon="4.58992">
        <ele>639.8</ele>
        <time>1970-01-01T01:35:55.000Z</time>
      </trkpt>
      <trkpt lat="45.42075" lon="4.59004">
        <ele>639.8</ele>
        <time>1970-01-01T01:36:00.000Z</time>
      </trkpt>
      <trkpt lat="45.4208" lon="4.59007">
        <ele>639.4</ele>
        <time>1970-01-01T01:36:02.000Z</time>
      </trkpt>
      <trkpt lat="45.42082" lon="4.59008">
        <ele>639</ele>
        <time>1970-01-01T01:36:03.000Z</time>
      </trkpt>
      <trkpt lat="45.42086" lon="4.5901">
        <ele>638.6</ele>
        <time>1970-01-01T01:36:04.000Z</time>
      </trkpt>
      <trkpt lat="45.42089" lon="4.59014">
        <ele>637.8</ele>
        <time>1970-01-01T01:36:05.000Z</time>
      </trkpt>
      <trkpt lat="45.42093" lon="4.59016">
        <ele>637</ele>
        <time>1970-01-01T01:36:06.000Z</time>
      </trkpt>
      <trkpt lat="45.42097" lon="4.59018">
        <ele>636.4</ele>
        <time>1970-01-01T01:36:07.000Z</time>
      </trkpt>
      <trkpt lat="45.42102" lon="4.5902">
        <ele>635.4</ele>
        <time>1970-01-01T01:36:08.000Z</time>
      </trkpt>
      <trkpt lat="45.42108" lon="4.59023">
        <ele>634.6</ele>
        <time>1970-01-01T01:36:09.000Z</time>
      </trkpt>
      <trkpt lat="45.42112" lon="4.59025">
        <ele>633.6</ele>
        <time>1970-01-01T01:36:10.000Z</time>
      </trkpt>
      <trkpt lat="45.42116" lon="4.59029">
        <ele>632.6</ele>
        <time>1970-01-01T01:36:11.000Z</time>
      </trkpt>
      <trkpt lat="45.42119" lon="4.5903">
        <ele>631.6</ele>
        <time>1970-01-01T01:36:12.000Z</time>
      </trkpt>
      <trkpt lat="45.42124" lon="4.59033">
        <ele>630.4</ele>
        <time>1970-01-01T01:36:13.000Z</time>
      </trkpt>
      <trkpt lat="45.42126" lon="4.59035">
        <ele>629.4</ele>
        <time>1970-01-01T01:36:14.000Z</time>
      </trkpt>
      <trkpt lat="45.42129" lon="4.59037">
        <ele>628.4</ele>
        <time>1970-01-01T01:36:15.000Z</time>
      </trkpt>
      <trkpt lat="45.42133" lon="4.59038">
        <ele>627.4</ele>
        <time>1970-01-01T01:36:16.000Z</time>
      </trkpt>
      <trkpt lat="45.42137" lon="4.59042">
        <ele>626.2</ele>
        <time>1970-01-01T01:36:17.000Z</time>
      </trkpt>
      <trkpt lat="45.42141" lon="4.59045">
        <ele>625.2</ele>
        <time>1970-01-01T01:36:18.000Z</time>
      </trkpt>
      <trkpt lat="45.42145" lon="4.59048">
        <ele>624.2</ele>
        <time>1970-01-01T01:36:19.000Z</time>
      </trkpt>
      <trkpt lat="45.42149" lon="4.59049">
        <ele>623</ele>
        <time>1970-01-01T01:36:20.000Z</time>
      </trkpt>
      <trkpt lat="45.42152" lon="4.5905">
        <ele>621.8</ele>
        <time>1970-01-01T01:36:21.000Z</time>
      </trkpt>
      <trkpt lat="45.42155" lon="4.59049">
        <ele>620.8</ele>
        <time>1970-01-01T01:36:22.000Z</time>
      </trkpt>
      <trkpt lat="45.42158" lon="4.59049">
        <ele>619.6</ele>
        <time>1970-01-01T01:36:23.000Z</time>
      </trkpt>
      <trkpt lat="45.42161" lon="4.59048">
        <ele>618.2</ele>
        <time>1970-01-01T01:36:24.000Z</time>
      </trkpt>
      <trkpt lat="45.42163" lon="4.59049">
        <ele>616</ele>
        <time>1970-01-01T01:36:25.000Z</time>
      </trkpt>
      <trkpt lat="45.42166" lon="4.59048">
        <ele>614.8</ele>
        <time>1970-01-01T01:36:26.000Z</time>
      </trkpt>
      <trkpt lat="45.42168" lon="4.59049">
        <ele>614</ele>
        <time>1970-01-01T01:36:27.000Z</time>
      </trkpt>
      <trkpt lat="45.4217" lon="4.59048">
        <ele>613</ele>
        <time>1970-01-01T01:36:28.000Z</time>
      </trkpt>
      <trkpt lat="45.42173" lon="4.59049">
        <ele>612</ele>
        <time>1970-01-01T01:36:29.000Z</time>
      </trkpt>
      <trkpt lat="45.42175" lon="4.5905">
        <ele>611</ele>
        <time>1970-01-01T01:36:30.000Z</time>
      </trkpt>
      <trkpt lat="45.42178" lon="4.59054">
        <ele>610</ele>
        <time>1970-01-01T01:36:31.000Z</time>
      </trkpt>
      <trkpt lat="45.4218" lon="4.59055">
        <ele>609</ele>
        <time>1970-01-01T01:36:32.000Z</time>
      </trkpt>
      <trkpt lat="45.42182" lon="4.59057">
        <ele>608</ele>
        <time>1970-01-01T01:36:33.000Z</time>
      </trkpt>
      <trkpt lat="45.42183" lon="4.59055">
        <ele>607</ele>
        <time>1970-01-01T01:36:34.000Z</time>
      </trkpt>
      <trkpt lat="45.42184" lon="4.59055">
        <ele>606.4</ele>
        <time>1970-01-01T01:36:35.000Z</time>
      </trkpt>
      <trkpt lat="45.42184" lon="4.59055">
        <ele>605.6</ele>
        <time>1970-01-01T01:36:36.000Z</time>
      </trkpt>
      <trkpt lat="45.42184" lon="4.59055">
        <ele>604.8</ele>
        <time>1970-01-01T01:36:37.000Z</time>
      </trkpt>
      <trkpt lat="45.42184" lon="4.59055">
        <ele>604</ele>
        <time>1970-01-01T01:36:38.000Z</time>
      </trkpt>
      <trkpt lat="45.42184" lon="4.59055">
        <ele>603.2</ele>
        <time>1970-01-01T01:36:39.000Z</time>
      </trkpt>
      <trkpt lat="45.42185" lon="4.59055">
        <ele>603.2</ele>
        <time>1970-01-01T01:36:42.000Z</time>
      </trkpt>
      <trkpt lat="45.42184" lon="4.59055">
        <ele>602.8</ele>
        <time>1970-01-01T01:36:45.000Z</time>
      </trkpt>
      <trkpt lat="45.42185" lon="4.59055">
        <ele>602.4</ele>
        <time>1970-01-01T01:36:46.000Z</time>
      </trkpt>
      <trkpt lat="45.42188" lon="4.59053">
        <ele>601.6</ele>
        <time>1970-01-01T01:36:47.000Z</time>
      </trkpt>
      <trkpt lat="45.4219" lon="4.59051">
        <ele>600.8</ele>
        <time>1970-01-01T01:36:48.000Z</time>
      </trkpt>
      <trkpt lat="45.42192" lon="4.5905">
        <ele>600</ele>
        <time>1970-01-01T01:36:49.000Z</time>
      </trkpt>
      <trkpt lat="45.42196" lon="4.59048">
        <ele>598.2</ele>
        <time>1970-01-01T01:36:50.000Z</time>
      </trkpt>
      <trkpt lat="45.42198" lon="4.59047">
        <ele>597.4</ele>
        <time>1970-01-01T01:36:51.000Z</time>
      </trkpt>
      <trkpt lat="45.422" lon="4.59048">
        <ele>596.6</ele>
        <time>1970-01-01T01:36:52.000Z</time>
      </trkpt>
      <trkpt lat="45.42203" lon="4.5905">
        <ele>595.8</ele>
        <time>1970-01-01T01:36:53.000Z</time>
      </trkpt>
      <trkpt lat="45.42209" lon="4.59051">
        <ele>594.8</ele>
        <time>1970-01-01T01:36:54.000Z</time>
      </trkpt>
      <trkpt lat="45.42214" lon="4.59052">
        <ele>593.8</ele>
        <time>1970-01-01T01:36:55.000Z</time>
      </trkpt>
      <trkpt lat="45.42219" lon="4.59048">
        <ele>592.6</ele>
        <time>1970-01-01T01:36:56.000Z</time>
      </trkpt>
      <trkpt lat="45.42223" lon="4.59044">
        <ele>591.2</ele>
        <time>1970-01-01T01:36:57.000Z</time>
      </trkpt>
      <trkpt lat="45.42226" lon="4.59042">
        <ele>589.8</ele>
        <time>1970-01-01T01:36:58.000Z</time>
      </trkpt>
      <trkpt lat="45.42228" lon="4.5904">
        <ele>588.4</ele>
        <time>1970-01-01T01:36:59.000Z</time>
      </trkpt>
      <trkpt lat="45.42228" lon="4.59041">
        <ele>587</ele>
        <time>1970-01-01T01:37:00.000Z</time>
      </trkpt>
      <trkpt lat="45.42228" lon="4.59041">
        <ele>586</ele>
        <time>1970-01-01T01:37:01.000Z</time>
      </trkpt>
      <trkpt lat="45.42228" lon="4.59041">
        <ele>585</ele>
        <time>1970-01-01T01:37:02.000Z</time>
      </trkpt>
      <trkpt lat="45.42228" lon="4.59041">
        <ele>584</ele>
        <time>1970-01-01T01:37:03.000Z</time>
      </trkpt>
      <trkpt lat="45.42228" lon="4.59041">
        <ele>583</ele>
        <time>1970-01-01T01:37:04.000Z</time>
      </trkpt>
      <trkpt lat="45.42228" lon="4.59041">
        <ele>582</ele>
        <time>1970-01-01T01:37:05.000Z</time>
      </trkpt>
      <trkpt lat="45.42228" lon="4.59041">
        <ele>582</ele>
        <time>1970-01-01T01:37:08.000Z</time>
      </trkpt>
      <trkpt lat="45.42228" lon="4.59041">
        <ele>582</ele>
        <time>1970-01-01T01:37:20.000Z</time>
      </trkpt>
      <trkpt lat="45.42228" lon="4.59041">
        <ele>582</ele>
        <time>1970-01-01T01:37:33.000Z</time>
      </trkpt>
      <trkpt lat="45.42229" lon="4.59041">
        <ele>582</ele>
        <time>1970-01-01T01:37:45.000Z</time>
      </trkpt>
      <trkpt lat="45.42229" lon="4.59041">
        <ele>582</ele>
        <time>1970-01-01T01:37:57.000Z</time>
      </trkpt>
      <trkpt lat="45.42229" lon="4.59041">
        <ele>582</ele>
        <time>1970-01-01T01:38:04.000Z</time>
      </trkpt>
      <trkpt lat="45.42229" lon="4.59041">
        <ele>582</ele>
        <time>1970-01-01T01:38:11.000Z</time>
      </trkpt>
      <trkpt lat="45.4223" lon="4.59041">
        <ele>582</ele>
        <time>1970-01-01T01:38:17.000Z</time>
      </trkpt>
      <trkpt lat="45.42231" lon="4.59042">
        <ele>582</ele>
        <time>1970-01-01T01:38:21.000Z</time>
      </trkpt>
      <trkpt lat="45.42233" lon="4.59042">
        <ele>582</ele>
        <time>1970-01-01T01:38:22.000Z</time>
      </trkpt>
      <trkpt lat="45.42239" lon="4.59046">
        <ele>581.4</ele>
        <time>1970-01-01T01:38:25.000Z</time>
      </trkpt>
      <trkpt lat="45.4224" lon="4.59047">
        <ele>581</ele>
        <time>1970-01-01T01:38:26.000Z</time>
      </trkpt>
      <trkpt lat="45.42241" lon="4.5905">
        <ele>580.2</ele>
        <time>1970-01-01T01:38:27.000Z</time>
      </trkpt>
      <trkpt lat="45.42242" lon="4.59053">
        <ele>579.4</ele>
        <time>1970-01-01T01:38:28.000Z</time>
      </trkpt>
      <trkpt lat="45.42243" lon="4.59057">
        <ele>578</ele>
        <time>1970-01-01T01:38:29.000Z</time>
      </trkpt>
      <trkpt lat="45.42244" lon="4.59059">
        <ele>577.4</ele>
        <time>1970-01-01T01:38:30.000Z</time>
      </trkpt>
      <trkpt lat="45.42246" lon="4.59061">
        <ele>577.4</ele>
        <time>1970-01-01T01:38:31.000Z</time>
      </trkpt>
      <trkpt lat="45.42248" lon="4.5906">
        <ele>576.8</ele>
        <time>1970-01-01T01:38:32.000Z</time>
      </trkpt>
      <trkpt lat="45.4225" lon="4.5906">
        <ele>576.4</ele>
        <time>1970-01-01T01:38:33.000Z</time>
      </trkpt>
      <trkpt lat="45.42252" lon="4.59058">
        <ele>575.8</ele>
        <time>1970-01-01T01:38:34.000Z</time>
      </trkpt>
      <trkpt lat="45.42253" lon="4.59056">
        <ele>575.4</ele>
        <time>1970-01-01T01:38:35.000Z</time>
      </trkpt>
      <trkpt lat="45.42255" lon="4.59051">
        <ele>574.6</ele>
        <time>1970-01-01T01:38:36.000Z</time>
      </trkpt>
      <trkpt lat="45.42257" lon="4.59046">
        <ele>574</ele>
        <time>1970-01-01T01:38:37.000Z</time>
      </trkpt>
      <trkpt lat="45.42259" lon="4.59041">
        <ele>573.2</ele>
        <time>1970-01-01T01:38:38.000Z</time>
      </trkpt>
      <trkpt lat="45.42261" lon="4.59036">
        <ele>572.4</ele>
        <time>1970-01-01T01:38:39.000Z</time>
      </trkpt>
      <trkpt lat="45.42263" lon="4.59031">
        <ele>571.6</ele>
        <time>1970-01-01T01:38:40.000Z</time>
      </trkpt>
      <trkpt lat="45.42265" lon="4.59029">
        <ele>570.6</ele>
        <time>1970-01-01T01:38:41.000Z</time>
      </trkpt>
      <trkpt lat="45.42266" lon="4.59028">
        <ele>569.4</ele>
        <time>1970-01-01T01:38:42.000Z</time>
      </trkpt>
      <trkpt lat="45.42268" lon="4.59031">
        <ele>568.4</ele>
        <time>1970-01-01T01:38:43.000Z</time>
      </trkpt>
      <trkpt lat="45.42269" lon="4.59034">
        <ele>567.2</ele>
        <time>1970-01-01T01:38:44.000Z</time>
      </trkpt>
      <trkpt lat="45.4227" lon="4.59037">
        <ele>566</ele>
        <time>1970-01-01T01:38:45.000Z</time>
      </trkpt>
      <trkpt lat="45.42272" lon="4.59042">
        <ele>565</ele>
        <time>1970-01-01T01:38:46.000Z</time>
      </trkpt>
      <trkpt lat="45.42273" lon="4.59049">
        <ele>564</ele>
        <time>1970-01-01T01:38:47.000Z</time>
      </trkpt>
      <trkpt lat="45.42276" lon="4.59053">
        <ele>563</ele>
        <time>1970-01-01T01:38:48.000Z</time>
      </trkpt>
      <trkpt lat="45.42279" lon="4.59057">
        <ele>562</ele>
        <time>1970-01-01T01:38:49.000Z</time>
      </trkpt>
      <trkpt lat="45.42283" lon="4.59058">
        <ele>561.2</ele>
        <time>1970-01-01T01:38:50.000Z</time>
      </trkpt>
      <trkpt lat="45.42287" lon="4.5906">
        <ele>560.4</ele>
        <time>1970-01-01T01:38:51.000Z</time>
      </trkpt>
      <trkpt lat="45.42291" lon="4.59061">
        <ele>559.6</ele>
        <time>1970-01-01T01:38:52.000Z</time>
      </trkpt>
      <trkpt lat="45.42295" lon="4.59063">
        <ele>558.8</ele>
        <time>1970-01-01T01:38:53.000Z</time>
      </trkpt>
      <trkpt lat="45.42298" lon="4.59065">
        <ele>558.8</ele>
        <time>1970-01-01T01:38:54.000Z</time>
      </trkpt>
      <trkpt lat="45.42301" lon="4.59066">
        <ele>558.2</ele>
        <time>1970-01-01T01:38:55.000Z</time>
      </trkpt>
      <trkpt lat="45.42305" lon="4.59068">
        <ele>557.8</ele>
        <time>1970-01-01T01:38:56.000Z</time>
      </trkpt>
      <trkpt lat="45.42308" lon="4.5907">
        <ele>557.4</ele>
        <time>1970-01-01T01:38:57.000Z</time>
      </trkpt>
      <trkpt lat="45.4231" lon="4.59071">
        <ele>557</ele>
        <time>1970-01-01T01:38:58.000Z</time>
      </trkpt>
      <trkpt lat="45.42311" lon="4.59071">
        <ele>556.6</ele>
        <time>1970-01-01T01:38:59.000Z</time>
      </trkpt>
      <trkpt lat="45.42315" lon="4.59073">
        <ele>556.6</ele>
        <time>1970-01-01T01:39:04.000Z</time>
      </trkpt>
      <trkpt lat="45.42315" lon="4.59072">
        <ele>556.6</ele>
        <time>1970-01-01T01:39:12.000Z</time>
      </trkpt>
      <trkpt lat="45.42324" lon="4.59065">
        <ele>556.6</ele>
        <time>1970-01-01T01:39:15.000Z</time>
      </trkpt>
      <trkpt lat="45.42318" lon="4.59059">
        <ele>556.6</ele>
        <time>1970-01-01T01:39:16.000Z</time>
      </trkpt>
      <trkpt lat="45.42311" lon="4.59051">
        <ele>556.6</ele>
        <time>1970-01-01T01:39:19.000Z</time>
      </trkpt>
      <trkpt lat="45.42309" lon="4.59049">
        <ele>556.6</ele>
        <time>1970-01-01T01:39:22.000Z</time>
      </trkpt>
      <trkpt lat="45.42307" lon="4.59045">
        <ele>556.6</ele>
        <time>1970-01-01T01:39:25.000Z</time>
      </trkpt>
      <trkpt lat="45.42306" lon="4.59042">
        <ele>556.6</ele>
        <time>1970-01-01T01:39:28.000Z</time>
      </trkpt>
      <trkpt lat="45.42306" lon="4.59036">
        <ele>556.6</ele>
        <time>1970-01-01T01:39:33.000Z</time>
      </trkpt>
      <trkpt lat="45.42306" lon="4.59033">
        <ele>556.6</ele>
        <time>1970-01-01T01:39:35.000Z</time>
      </trkpt>
      <trkpt lat="45.42307" lon="4.59032">
        <ele>556.6</ele>
        <time>1970-01-01T01:39:36.000Z</time>
      </trkpt>
      <trkpt lat="45.42308" lon="4.5903">
        <ele>557</ele>
        <time>1970-01-01T01:39:37.000Z</time>
      </trkpt>
      <trkpt lat="45.42308" lon="4.59029">
        <ele>557.4</ele>
        <time>1970-01-01T01:39:38.000Z</time>
      </trkpt>
      <trkpt lat="45.42308" lon="4.59026">
        <ele>557.8</ele>
        <time>1970-01-01T01:39:39.000Z</time>
      </trkpt>
      <trkpt lat="45.42307" lon="4.59024">
        <ele>558.2</ele>
        <time>1970-01-01T01:39:40.000Z</time>
      </trkpt>
      <trkpt lat="45.42307" lon="4.59021">
        <ele>558.6</ele>
        <time>1970-01-01T01:39:41.000Z</time>
      </trkpt>
      <trkpt lat="45.42307" lon="4.59018">
        <ele>558.6</ele>
        <time>1970-01-01T01:39:42.000Z</time>
      </trkpt>
      <trkpt lat="45.42307" lon="4.59011">
        <ele>559.2</ele>
        <time>1970-01-01T01:39:44.000Z</time>
      </trkpt>
      <trkpt lat="45.42306" lon="4.59008">
        <ele>559.6</ele>
        <time>1970-01-01T01:39:45.000Z</time>
      </trkpt>
      <trkpt lat="45.42305" lon="4.59005">
        <ele>560.2</ele>
        <time>1970-01-01T01:39:46.000Z</time>
      </trkpt>
      <trkpt lat="45.42305" lon="4.59002">
        <ele>560.6</ele>
        <time>1970-01-01T01:39:47.000Z</time>
      </trkpt>
      <trkpt lat="45.42304" lon="4.58999">
        <ele>561.2</ele>
        <time>1970-01-01T01:39:48.000Z</time>
      </trkpt>
      <trkpt lat="45.42303" lon="4.5899">
        <ele>561.2</ele>
        <time>1970-01-01T01:39:51.000Z</time>
      </trkpt>
      <trkpt lat="45.42298" lon="4.58965">
        <ele>561.2</ele>
        <time>1970-01-01T01:39:58.000Z</time>
      </trkpt>
      <trkpt lat="45.42292" lon="4.58943">
        <ele>561.2</ele>
        <time>1970-01-01T01:40:05.000Z</time>
      </trkpt>
      <trkpt lat="45.42291" lon="4.5894">
        <ele>561.6</ele>
        <time>1970-01-01T01:40:06.000Z</time>
      </trkpt>
      <trkpt lat="45.4229" lon="4.58936">
        <ele>562.4</ele>
        <time>1970-01-01T01:40:07.000Z</time>
      </trkpt>
      <trkpt lat="45.4228" lon="4.58932">
        <ele>562.8</ele>
        <time>1970-01-01T01:40:08.000Z</time>
      </trkpt>
      <trkpt lat="45.42276" lon="4.58929">
        <ele>563.2</ele>
        <time>1970-01-01T01:40:09.000Z</time>
      </trkpt>
      <trkpt lat="45.42274" lon="4.58925">
        <ele>563.2</ele>
        <time>1970-01-01T01:40:10.000Z</time>
      </trkpt>
      <trkpt lat="45.4226" lon="4.58903">
        <ele>563.2</ele>
        <time>1970-01-01T01:40:17.000Z</time>
      </trkpt>
      <trkpt lat="45.4225" lon="4.58892">
        <ele>563.2</ele>
        <time>1970-01-01T01:40:23.000Z</time>
      </trkpt>
      <trkpt lat="45.42248" lon="4.58888">
        <ele>563.6</ele>
        <time>1970-01-01T01:40:25.000Z</time>
      </trkpt>
      <trkpt lat="45.42247" lon="4.58887">
        <ele>564</ele>
        <time>1970-01-01T01:40:26.000Z</time>
      </trkpt>
      <trkpt lat="45.42245" lon="4.58886">
        <ele>564.4</ele>
        <time>1970-01-01T01:40:27.000Z</time>
      </trkpt>
      <trkpt lat="45.42244" lon="4.58884">
        <ele>564.8</ele>
        <time>1970-01-01T01:40:28.000Z</time>
      </trkpt>
      <trkpt lat="45.42242" lon="4.58882">
        <ele>565.2</ele>
        <time>1970-01-01T01:40:29.000Z</time>
      </trkpt>
      <trkpt lat="45.42231" lon="4.58872">
        <ele>565.2</ele>
        <time>1970-01-01T01:40:35.000Z</time>
      </trkpt>
      <trkpt lat="45.4223" lon="4.58871">
        <ele>565.6</ele>
        <time>1970-01-01T01:40:36.000Z</time>
      </trkpt>
      <trkpt lat="45.42228" lon="4.58869">
        <ele>566</ele>
        <time>1970-01-01T01:40:37.000Z</time>
      </trkpt>
      <trkpt lat="45.42225" lon="4.58868">
        <ele>566.6</ele>
        <time>1970-01-01T01:40:38.000Z</time>
      </trkpt>
      <trkpt lat="45.42223" lon="4.58867">
        <ele>567</ele>
        <time>1970-01-01T01:40:39.000Z</time>
      </trkpt>
      <trkpt lat="45.42221" lon="4.58865">
        <ele>567.4</ele>
        <time>1970-01-01T01:40:40.000Z</time>
      </trkpt>
      <trkpt lat="45.42218" lon="4.5886">
        <ele>567.4</ele>
        <time>1970-01-01T01:40:42.000Z</time>
      </trkpt>
      <trkpt lat="45.42208" lon="4.5885">
        <ele>567.8</ele>
        <time>1970-01-01T01:40:48.000Z</time>
      </trkpt>
      <trkpt lat="45.42206" lon="4.58848">
        <ele>568.2</ele>
        <time>1970-01-01T01:40:49.000Z</time>
      </trkpt>
      <trkpt lat="45.42205" lon="4.58846">
        <ele>568.6</ele>
        <time>1970-01-01T01:40:50.000Z</time>
      </trkpt>
      <trkpt lat="45.42203" lon="4.58844">
        <ele>569.2</ele>
        <time>1970-01-01T01:40:51.000Z</time>
      </trkpt>
      <trkpt lat="45.42201" lon="4.58841">
        <ele>569.6</ele>
        <time>1970-01-01T01:40:52.000Z</time>
      </trkpt>
      <trkpt lat="45.42198" lon="4.58837">
        <ele>569.6</ele>
        <time>1970-01-01T01:40:54.000Z</time>
      </trkpt>
      <trkpt lat="45.42191" lon="4.58825">
        <ele>569.6</ele>
        <time>1970-01-01T01:41:01.000Z</time>
      </trkpt>
      <trkpt lat="45.42187" lon="4.58816">
        <ele>570</ele>
        <time>1970-01-01T01:41:05.000Z</time>
      </trkpt>
      <trkpt lat="45.42186" lon="4.58813">
        <ele>570.4</ele>
        <time>1970-01-01T01:41:06.000Z</time>
      </trkpt>
      <trkpt lat="45.42184" lon="4.5881">
        <ele>570.8</ele>
        <time>1970-01-01T01:41:07.000Z</time>
      </trkpt>
      <trkpt lat="45.42183" lon="4.58808">
        <ele>571.2</ele>
        <time>1970-01-01T01:41:08.000Z</time>
      </trkpt>
      <trkpt lat="45.42181" lon="4.58805">
        <ele>571.6</ele>
        <time>1970-01-01T01:41:09.000Z</time>
      </trkpt>
      <trkpt lat="45.42175" lon="4.58794">
        <ele>571.6</ele>
        <time>1970-01-01T01:41:14.000Z</time>
      </trkpt>
      <trkpt lat="45.42161" lon="4.58771">
        <ele>571.6</ele>
        <time>1970-01-01T01:41:19.000Z</time>
      </trkpt>
      <trkpt lat="45.42145" lon="4.58744">
        <ele>571.6</ele>
        <time>1970-01-01T01:41:24.000Z</time>
      </trkpt>
      <trkpt lat="45.42138" lon="4.58735">
        <ele>571.6</ele>
        <time>1970-01-01T01:41:26.000Z</time>
      </trkpt>
      <trkpt lat="45.42127" lon="4.58722">
        <ele>571.2</ele>
        <time>1970-01-01T01:41:29.000Z</time>
      </trkpt>
      <trkpt lat="45.42127" lon="4.58719">
        <ele>570.8</ele>
        <time>1970-01-01T01:41:30.000Z</time>
      </trkpt>
      <trkpt lat="45.42127" lon="4.58717">
        <ele>570.4</ele>
        <time>1970-01-01T01:41:31.000Z</time>
      </trkpt>
      <trkpt lat="45.42127" lon="4.58718">
        <ele>570</ele>
        <time>1970-01-01T01:41:32.000Z</time>
      </trkpt>
      <trkpt lat="45.42129" lon="4.58719">
        <ele>569.4</ele>
        <time>1970-01-01T01:41:33.000Z</time>
      </trkpt>
      <trkpt lat="45.42132" lon="4.58721">
        <ele>569</ele>
        <time>1970-01-01T01:41:34.000Z</time>
      </trkpt>
      <trkpt lat="45.42135" lon="4.58723">
        <ele>568.4</ele>
        <time>1970-01-01T01:41:35.000Z</time>
      </trkpt>
      <trkpt lat="45.4214" lon="4.58725">
        <ele>568</ele>
        <time>1970-01-01T01:41:36.000Z</time>
      </trkpt>
      <trkpt lat="45.42145" lon="4.58727">
        <ele>567.4</ele>
        <time>1970-01-01T01:41:37.000Z</time>
      </trkpt>
      <trkpt lat="45.4215" lon="4.58731">
        <ele>566.8</ele>
        <time>1970-01-01T01:41:38.000Z</time>
      </trkpt>
      <trkpt lat="45.42157" lon="4.58733">
        <ele>566.2</ele>
        <time>1970-01-01T01:41:39.000Z</time>
      </trkpt>
      <trkpt lat="45.42163" lon="4.58735">
        <ele>565.6</ele>
        <time>1970-01-01T01:41:40.000Z</time>
      </trkpt>
      <trkpt lat="45.42169" lon="4.58737">
        <ele>564.8</ele>
        <time>1970-01-01T01:41:41.000Z</time>
      </trkpt>
      <trkpt lat="45.42173" lon="4.58739">
        <ele>563.8</ele>
        <time>1970-01-01T01:41:42.000Z</time>
      </trkpt>
      <trkpt lat="45.42178" lon="4.58741">
        <ele>563</ele>
        <time>1970-01-01T01:41:43.000Z</time>
      </trkpt>
      <trkpt lat="45.42183" lon="4.58744">
        <ele>562</ele>
        <time>1970-01-01T01:41:44.000Z</time>
      </trkpt>
      <trkpt lat="45.42188" lon="4.58746">
        <ele>560.4</ele>
        <time>1970-01-01T01:41:45.000Z</time>
      </trkpt>
      <trkpt lat="45.42193" lon="4.58748">
        <ele>559.4</ele>
        <time>1970-01-01T01:41:46.000Z</time>
      </trkpt>
      <trkpt lat="45.42198" lon="4.58751">
        <ele>558.6</ele>
        <time>1970-01-01T01:41:47.000Z</time>
      </trkpt>
      <trkpt lat="45.42203" lon="4.58752">
        <ele>557.6</ele>
        <time>1970-01-01T01:41:48.000Z</time>
      </trkpt>
      <trkpt lat="45.42209" lon="4.58753">
        <ele>556.4</ele>
        <time>1970-01-01T01:41:49.000Z</time>
      </trkpt>
      <trkpt lat="45.42214" lon="4.58755">
        <ele>555.4</ele>
        <time>1970-01-01T01:41:50.000Z</time>
      </trkpt>
      <trkpt lat="45.4222" lon="4.58757">
        <ele>554.2</ele>
        <time>1970-01-01T01:41:51.000Z</time>
      </trkpt>
      <trkpt lat="45.42229" lon="4.5876">
        <ele>553</ele>
        <time>1970-01-01T01:41:52.000Z</time>
      </trkpt>
      <trkpt lat="45.42237" lon="4.58761">
        <ele>551.8</ele>
        <time>1970-01-01T01:41:53.000Z</time>
      </trkpt>
      <trkpt lat="45.42244" lon="4.58764">
        <ele>550.8</ele>
        <time>1970-01-01T01:41:54.000Z</time>
      </trkpt>
      <trkpt lat="45.42251" lon="4.58766">
        <ele>549.6</ele>
        <time>1970-01-01T01:41:55.000Z</time>
      </trkpt>
      <trkpt lat="45.42257" lon="4.58768">
        <ele>548.6</ele>
        <time>1970-01-01T01:41:56.000Z</time>
      </trkpt>
      <trkpt lat="45.42262" lon="4.58768">
        <ele>547.8</ele>
        <time>1970-01-01T01:41:57.000Z</time>
      </trkpt>
      <trkpt lat="45.42268" lon="4.58768">
        <ele>546.8</ele>
        <time>1970-01-01T01:41:58.000Z</time>
      </trkpt>
      <trkpt lat="45.42276" lon="4.58766">
        <ele>545.8</ele>
        <time>1970-01-01T01:41:59.000Z</time>
      </trkpt>
      <trkpt lat="45.42283" lon="4.58766">
        <ele>545</ele>
        <time>1970-01-01T01:42:00.000Z</time>
      </trkpt>
      <trkpt lat="45.4229" lon="4.58767">
        <ele>544.2</ele>
        <time>1970-01-01T01:42:01.000Z</time>
      </trkpt>
      <trkpt lat="45.42298" lon="4.58767">
        <ele>543.4</ele>
        <time>1970-01-01T01:42:02.000Z</time>
      </trkpt>
      <trkpt lat="45.42305" lon="4.58768">
        <ele>542.6</ele>
        <time>1970-01-01T01:42:03.000Z</time>
      </trkpt>
      <trkpt lat="45.42311" lon="4.58768">
        <ele>541.8</ele>
        <time>1970-01-01T01:42:04.000Z</time>
      </trkpt>
      <trkpt lat="45.42317" lon="4.58771">
        <ele>540.8</ele>
        <time>1970-01-01T01:42:05.000Z</time>
      </trkpt>
      <trkpt lat="45.42323" lon="4.58775">
        <ele>539.8</ele>
        <time>1970-01-01T01:42:06.000Z</time>
      </trkpt>
      <trkpt lat="45.4233" lon="4.58779">
        <ele>538.6</ele>
        <time>1970-01-01T01:42:07.000Z</time>
      </trkpt>
      <trkpt lat="45.42337" lon="4.58781">
        <ele>537.4</ele>
        <time>1970-01-01T01:42:08.000Z</time>
      </trkpt>
      <trkpt lat="45.42342" lon="4.58781">
        <ele>536</ele>
        <time>1970-01-01T01:42:09.000Z</time>
      </trkpt>
      <trkpt lat="45.42345" lon="4.58783">
        <ele>533</ele>
        <time>1970-01-01T01:42:10.000Z</time>
      </trkpt>
      <trkpt lat="45.42348" lon="4.58788">
        <ele>531.4</ele>
        <time>1970-01-01T01:42:11.000Z</time>
      </trkpt>
      <trkpt lat="45.42352" lon="4.58792">
        <ele>530</ele>
        <time>1970-01-01T01:42:12.000Z</time>
      </trkpt>
      <trkpt lat="45.42356" lon="4.58797">
        <ele>528.6</ele>
        <time>1970-01-01T01:42:13.000Z</time>
      </trkpt>
      <trkpt lat="45.4236" lon="4.58802">
        <ele>527</ele>
        <time>1970-01-01T01:42:14.000Z</time>
      </trkpt>
      <trkpt lat="45.42365" lon="4.58807">
        <ele>525.8</ele>
        <time>1970-01-01T01:42:15.000Z</time>
      </trkpt>
      <trkpt lat="45.42369" lon="4.58814">
        <ele>524.6</ele>
        <time>1970-01-01T01:42:16.000Z</time>
      </trkpt>
      <trkpt lat="45.42372" lon="4.58821">
        <ele>523.4</ele>
        <time>1970-01-01T01:42:17.000Z</time>
      </trkpt>
      <trkpt lat="45.42379" lon="4.58826">
        <ele>522.2</ele>
        <time>1970-01-01T01:42:18.000Z</time>
      </trkpt>
      <trkpt lat="45.42385" lon="4.58828">
        <ele>521</ele>
        <time>1970-01-01T01:42:19.000Z</time>
      </trkpt>
      <trkpt lat="45.42391" lon="4.58829">
        <ele>520.2</ele>
        <time>1970-01-01T01:42:20.000Z</time>
      </trkpt>
      <trkpt lat="45.42398" lon="4.58829">
        <ele>519.2</ele>
        <time>1970-01-01T01:42:21.000Z</time>
      </trkpt>
      <trkpt lat="45.42405" lon="4.58827">
        <ele>518.4</ele>
        <time>1970-01-01T01:42:22.000Z</time>
      </trkpt>
      <trkpt lat="45.42412" lon="4.58826">
        <ele>517.4</ele>
        <time>1970-01-01T01:42:23.000Z</time>
      </trkpt>
      <trkpt lat="45.42418" lon="4.58824">
        <ele>516.6</ele>
        <time>1970-01-01T01:42:24.000Z</time>
      </trkpt>
      <trkpt lat="45.42425" lon="4.5882">
        <ele>516.6</ele>
        <time>1970-01-01T01:42:25.000Z</time>
      </trkpt>
      <trkpt lat="45.42436" lon="4.58815">
        <ele>516.2</ele>
        <time>1970-01-01T01:42:27.000Z</time>
      </trkpt>
      <trkpt lat="45.42442" lon="4.58811">
        <ele>515.8</ele>
        <time>1970-01-01T01:42:28.000Z</time>
      </trkpt>
      <trkpt lat="45.4245" lon="4.58807">
        <ele>515.4</ele>
        <time>1970-01-01T01:42:29.000Z</time>
      </trkpt>
      <trkpt lat="45.42457" lon="4.58803">
        <ele>514.8</ele>
        <time>1970-01-01T01:42:30.000Z</time>
      </trkpt>
      <trkpt lat="45.42465" lon="4.588">
        <ele>514</ele>
        <time>1970-01-01T01:42:31.000Z</time>
      </trkpt>
      <trkpt lat="45.42473" lon="4.58796">
        <ele>513.4</ele>
        <time>1970-01-01T01:42:32.000Z</time>
      </trkpt>
      <trkpt lat="45.42482" lon="4.58793">
        <ele>512.8</ele>
        <time>1970-01-01T01:42:33.000Z</time>
      </trkpt>
      <trkpt lat="45.4249" lon="4.5879">
        <ele>512.2</ele>
        <time>1970-01-01T01:42:34.000Z</time>
      </trkpt>
      <trkpt lat="45.42498" lon="4.58789">
        <ele>510.8</ele>
        <time>1970-01-01T01:42:35.000Z</time>
      </trkpt>
      <trkpt lat="45.42506" lon="4.58788">
        <ele>510.2</ele>
        <time>1970-01-01T01:42:36.000Z</time>
      </trkpt>
      <trkpt lat="45.42514" lon="4.58787">
        <ele>509.6</ele>
        <time>1970-01-01T01:42:37.000Z</time>
      </trkpt>
      <trkpt lat="45.42528" lon="4.58788">
        <ele>509.2</ele>
        <time>1970-01-01T01:42:39.000Z</time>
      </trkpt>
      <trkpt lat="45.42532" lon="4.58789">
        <ele>508.8</ele>
        <time>1970-01-01T01:42:40.000Z</time>
      </trkpt>
      <trkpt lat="45.42533" lon="4.5879">
        <ele>508.4</ele>
        <time>1970-01-01T01:42:41.000Z</time>
      </trkpt>
      <trkpt lat="45.42533" lon="4.5879">
        <ele>508</ele>
        <time>1970-01-01T01:42:42.000Z</time>
      </trkpt>
      <trkpt lat="45.42533" lon="4.58791">
        <ele>507.6</ele>
        <time>1970-01-01T01:42:43.000Z</time>
      </trkpt>
      <trkpt lat="45.42534" lon="4.58791">
        <ele>507.6</ele>
        <time>1970-01-01T01:42:45.000Z</time>
      </trkpt>
      <trkpt lat="45.42541" lon="4.5879">
        <ele>507.6</ele>
        <time>1970-01-01T01:42:48.000Z</time>
      </trkpt>
      <trkpt lat="45.42545" lon="4.58789">
        <ele>507.6</ele>
        <time>1970-01-01T01:42:49.000Z</time>
      </trkpt>
      <trkpt lat="45.42557" lon="4.58789">
        <ele>507.6</ele>
        <time>1970-01-01T01:42:51.000Z</time>
      </trkpt>
      <trkpt lat="45.42564" lon="4.5879">
        <ele>507.6</ele>
        <time>1970-01-01T01:42:52.000Z</time>
      </trkpt>
      <trkpt lat="45.42581" lon="4.58793">
        <ele>507.6</ele>
        <time>1970-01-01T01:42:55.000Z</time>
      </trkpt>
      <trkpt lat="45.42586" lon="4.58793">
        <ele>507.6</ele>
        <time>1970-01-01T01:42:56.000Z</time>
      </trkpt>
      <trkpt lat="45.426" lon="4.58787">
        <ele>507.6</ele>
        <time>1970-01-01T01:42:59.000Z</time>
      </trkpt>
      <trkpt lat="45.42605" lon="4.58785">
        <ele>507.6</ele>
        <time>1970-01-01T01:43:00.000Z</time>
      </trkpt>
      <trkpt lat="45.42617" lon="4.5878">
        <ele>507.2</ele>
        <time>1970-01-01T01:43:02.000Z</time>
      </trkpt>
      <trkpt lat="45.42624" lon="4.5878">
        <ele>506.8</ele>
        <time>1970-01-01T01:43:03.000Z</time>
      </trkpt>
      <trkpt lat="45.4263" lon="4.58784">
        <ele>506.2</ele>
        <time>1970-01-01T01:43:04.000Z</time>
      </trkpt>
      <trkpt lat="45.42636" lon="4.58787">
        <ele>505.8</ele>
        <time>1970-01-01T01:43:05.000Z</time>
      </trkpt>
      <trkpt lat="45.42641" lon="4.5879">
        <ele>505.4</ele>
        <time>1970-01-01T01:43:06.000Z</time>
      </trkpt>
      <trkpt lat="45.42645" lon="4.58793">
        <ele>505.4</ele>
        <time>1970-01-01T01:43:07.000Z</time>
      </trkpt>
      <trkpt lat="45.42659" lon="4.58807">
        <ele>505</ele>
        <time>1970-01-01T01:43:10.000Z</time>
      </trkpt>
      <trkpt lat="45.42664" lon="4.58813">
        <ele>504.6</ele>
        <time>1970-01-01T01:43:11.000Z</time>
      </trkpt>
      <trkpt lat="45.42669" lon="4.58818">
        <ele>504.2</ele>
        <time>1970-01-01T01:43:12.000Z</time>
      </trkpt>
      <trkpt lat="45.42673" lon="4.5882">
        <ele>503.6</ele>
        <time>1970-01-01T01:43:13.000Z</time>
      </trkpt>
      <trkpt lat="45.42678" lon="4.58823">
        <ele>502.8</ele>
        <time>1970-01-01T01:43:14.000Z</time>
      </trkpt>
      <trkpt lat="45.42684" lon="4.58826">
        <ele>502.2</ele>
        <time>1970-01-01T01:43:15.000Z</time>
      </trkpt>
      <trkpt lat="45.4269" lon="4.5883">
        <ele>501.4</ele>
        <time>1970-01-01T01:43:16.000Z</time>
      </trkpt>
      <trkpt lat="45.42696" lon="4.58832">
        <ele>500.4</ele>
        <time>1970-01-01T01:43:17.000Z</time>
      </trkpt>
      <trkpt lat="45.42702" lon="4.58832">
        <ele>499.4</ele>
        <time>1970-01-01T01:43:18.000Z</time>
      </trkpt>
      <trkpt lat="45.42708" lon="4.58831">
        <ele>498.4</ele>
        <time>1970-01-01T01:43:19.000Z</time>
      </trkpt>
      <trkpt lat="45.42713" lon="4.58828">
        <ele>497.2</ele>
        <time>1970-01-01T01:43:20.000Z</time>
      </trkpt>
      <trkpt lat="45.42718" lon="4.58825">
        <ele>496</ele>
        <time>1970-01-01T01:43:21.000Z</time>
      </trkpt>
      <trkpt lat="45.42722" lon="4.58823">
        <ele>494.8</ele>
        <time>1970-01-01T01:43:22.000Z</time>
      </trkpt>
      <trkpt lat="45.42724" lon="4.58819">
        <ele>493.4</ele>
        <time>1970-01-01T01:43:23.000Z</time>
      </trkpt>
      <trkpt lat="45.42723" lon="4.58813">
        <ele>492.2</ele>
        <time>1970-01-01T01:43:24.000Z</time>
      </trkpt>
      <trkpt lat="45.42718" lon="4.58808">
        <ele>489.8</ele>
        <time>1970-01-01T01:43:25.000Z</time>
      </trkpt>
      <trkpt lat="45.42713" lon="4.58802">
        <ele>488.8</ele>
        <time>1970-01-01T01:43:26.000Z</time>
      </trkpt>
      <trkpt lat="45.42707" lon="4.58796">
        <ele>487.8</ele>
        <time>1970-01-01T01:43:27.000Z</time>
      </trkpt>
      <trkpt lat="45.42702" lon="4.58789">
        <ele>486.4</ele>
        <time>1970-01-01T01:43:28.000Z</time>
      </trkpt>
      <trkpt lat="45.42697" lon="4.58784">
        <ele>485</ele>
        <time>1970-01-01T01:43:29.000Z</time>
      </trkpt>
      <trkpt lat="45.42694" lon="4.58779">
        <ele>483.4</ele>
        <time>1970-01-01T01:43:30.000Z</time>
      </trkpt>
      <trkpt lat="45.42693" lon="4.58773">
        <ele>482</ele>
        <time>1970-01-01T01:43:31.000Z</time>
      </trkpt>
      <trkpt lat="45.42693" lon="4.5877">
        <ele>480.4</ele>
        <time>1970-01-01T01:43:32.000Z</time>
      </trkpt>
      <trkpt lat="45.42693" lon="4.58768">
        <ele>479</ele>
        <time>1970-01-01T01:43:33.000Z</time>
      </trkpt>
      <trkpt lat="45.42694" lon="4.58764">
        <ele>478</ele>
        <time>1970-01-01T01:43:34.000Z</time>
      </trkpt>
      <trkpt lat="45.42699" lon="4.58761">
        <ele>477</ele>
        <time>1970-01-01T01:43:35.000Z</time>
      </trkpt>
      <trkpt lat="45.42703" lon="4.58759">
        <ele>475.8</ele>
        <time>1970-01-01T01:43:36.000Z</time>
      </trkpt>
      <trkpt lat="45.42703" lon="4.58757">
        <ele>474.6</ele>
        <time>1970-01-01T01:43:37.000Z</time>
      </trkpt>
      <trkpt lat="45.427" lon="4.58757">
        <ele>473.4</ele>
        <time>1970-01-01T01:43:38.000Z</time>
      </trkpt>
      <trkpt lat="45.42699" lon="4.58757">
        <ele>472.2</ele>
        <time>1970-01-01T01:43:39.000Z</time>
      </trkpt>
      <trkpt lat="45.42698" lon="4.58755">
        <ele>471</ele>
        <time>1970-01-01T01:43:40.000Z</time>
      </trkpt>
      <trkpt lat="45.42698" lon="4.58752">
        <ele>470.2</ele>
        <time>1970-01-01T01:43:41.000Z</time>
      </trkpt>
      <trkpt lat="45.427" lon="4.5875">
        <ele>469.2</ele>
        <time>1970-01-01T01:43:42.000Z</time>
      </trkpt>
      <trkpt lat="45.42701" lon="4.58748">
        <ele>468.4</ele>
        <time>1970-01-01T01:43:43.000Z</time>
      </trkpt>
      <trkpt lat="45.42702" lon="4.58747">
        <ele>467.4</ele>
        <time>1970-01-01T01:43:44.000Z</time>
      </trkpt>
      <trkpt lat="45.42702" lon="4.58746">
        <ele>466.6</ele>
        <time>1970-01-01T01:43:45.000Z</time>
      </trkpt>
      <trkpt lat="45.42704" lon="4.58745">
        <ele>466.6</ele>
        <time>1970-01-01T01:43:46.000Z</time>
      </trkpt>
      <trkpt lat="45.42705" lon="4.58744">
        <ele>466.6</ele>
        <time>1970-01-01T01:43:47.000Z</time>
      </trkpt>
      <trkpt lat="45.42706" lon="4.58743">
        <ele>466.6</ele>
        <time>1970-01-01T01:43:51.000Z</time>
      </trkpt>
      <trkpt lat="45.42703" lon="4.58727">
        <ele>466</ele>
        <time>1970-01-01T01:43:56.000Z</time>
      </trkpt>
      <trkpt lat="45.42702" lon="4.58723">
        <ele>465.6</ele>
        <time>1970-01-01T01:43:57.000Z</time>
      </trkpt>
      <trkpt lat="45.42702" lon="4.58718">
        <ele>465.2</ele>
        <time>1970-01-01T01:43:58.000Z</time>
      </trkpt>
      <trkpt lat="45.42702" lon="4.58713">
        <ele>464.6</ele>
        <time>1970-01-01T01:43:59.000Z</time>
      </trkpt>
      <trkpt lat="45.42702" lon="4.58709">
        <ele>464.2</ele>
        <time>1970-01-01T01:44:00.000Z</time>
      </trkpt>
      <trkpt lat="45.42701" lon="4.58703">
        <ele>463.8</ele>
        <time>1970-01-01T01:44:01.000Z</time>
      </trkpt>
      <trkpt lat="45.42701" lon="4.58698">
        <ele>463.2</ele>
        <time>1970-01-01T01:44:02.000Z</time>
      </trkpt>
      <trkpt lat="45.42701" lon="4.58692">
        <ele>462.8</ele>
        <time>1970-01-01T01:44:03.000Z</time>
      </trkpt>
      <trkpt lat="45.42701" lon="4.58686">
        <ele>462.2</ele>
        <time>1970-01-01T01:44:04.000Z</time>
      </trkpt>
      <trkpt lat="45.42701" lon="4.58679">
        <ele>461.6</ele>
        <time>1970-01-01T01:44:05.000Z</time>
      </trkpt>
      <trkpt lat="45.42703" lon="4.58671">
        <ele>461.2</ele>
        <time>1970-01-01T01:44:06.000Z</time>
      </trkpt>
      <trkpt lat="45.42706" lon="4.58666">
        <ele>460.6</ele>
        <time>1970-01-01T01:44:07.000Z</time>
      </trkpt>
      <trkpt lat="45.42707" lon="4.58659">
        <ele>460</ele>
        <time>1970-01-01T01:44:08.000Z</time>
      </trkpt>
      <trkpt lat="45.42709" lon="4.58652">
        <ele>459.2</ele>
        <time>1970-01-01T01:44:09.000Z</time>
      </trkpt>
      <trkpt lat="45.42712" lon="4.58646">
        <ele>458.6</ele>
        <time>1970-01-01T01:44:10.000Z</time>
      </trkpt>
      <trkpt lat="45.42714" lon="4.58639">
        <ele>458</ele>
        <time>1970-01-01T01:44:11.000Z</time>
      </trkpt>
      <trkpt lat="45.42717" lon="4.58633">
        <ele>457.4</ele>
        <time>1970-01-01T01:44:12.000Z</time>
      </trkpt>
      <trkpt lat="45.4272" lon="4.58626">
        <ele>457</ele>
        <time>1970-01-01T01:44:13.000Z</time>
      </trkpt>
      <trkpt lat="45.42721" lon="4.58621">
        <ele>456</ele>
        <time>1970-01-01T01:44:14.000Z</time>
      </trkpt>
      <trkpt lat="45.42722" lon="4.58615">
        <ele>455.6</ele>
        <time>1970-01-01T01:44:15.000Z</time>
      </trkpt>
      <trkpt lat="45.42723" lon="4.5861">
        <ele>455</ele>
        <time>1970-01-01T01:44:16.000Z</time>
      </trkpt>
      <trkpt lat="45.42723" lon="4.58606">
        <ele>454.6</ele>
        <time>1970-01-01T01:44:17.000Z</time>
      </trkpt>
      <trkpt lat="45.42723" lon="4.58603">
        <ele>454.2</ele>
        <time>1970-01-01T01:44:18.000Z</time>
      </trkpt>
      <trkpt lat="45.42724" lon="4.586">
        <ele>453.8</ele>
        <time>1970-01-01T01:44:19.000Z</time>
      </trkpt>
      <trkpt lat="45.42726" lon="4.58596">
        <ele>453.2</ele>
        <time>1970-01-01T01:44:20.000Z</time>
      </trkpt>
      <trkpt lat="45.42727" lon="4.58594">
        <ele>452.8</ele>
        <time>1970-01-01T01:44:21.000Z</time>
      </trkpt>
      <trkpt lat="45.42732" lon="4.58593">
        <ele>452.8</ele>
        <time>1970-01-01T01:44:24.000Z</time>
      </trkpt>
      <trkpt lat="45.42735" lon="4.58589">
        <ele>452.8</ele>
        <time>1970-01-01T01:44:27.000Z</time>
      </trkpt>
      <trkpt lat="45.42739" lon="4.58584">
        <ele>452.8</ele>
        <time>1970-01-01T01:44:30.000Z</time>
      </trkpt>
      <trkpt lat="45.42746" lon="4.58578">
        <ele>453.2</ele>
        <time>1970-01-01T01:44:34.000Z</time>
      </trkpt>
      <trkpt lat="45.42748" lon="4.58577">
        <ele>453.8</ele>
        <time>1970-01-01T01:44:35.000Z</time>
      </trkpt>
      <trkpt lat="45.4275" lon="4.58575">
        <ele>454.2</ele>
        <time>1970-01-01T01:44:36.000Z</time>
      </trkpt>
      <trkpt lat="45.42752" lon="4.58574">
        <ele>454.6</ele>
        <time>1970-01-01T01:44:37.000Z</time>
      </trkpt>
      <trkpt lat="45.42753" lon="4.58573">
        <ele>455</ele>
        <time>1970-01-01T01:44:38.000Z</time>
      </trkpt>
      <trkpt lat="45.42758" lon="4.5857">
        <ele>455</ele>
        <time>1970-01-01T01:44:41.000Z</time>
      </trkpt>
      <trkpt lat="45.4276" lon="4.5857">
        <ele>455</ele>
        <time>1970-01-01T01:44:42.000Z</time>
      </trkpt>
      <trkpt lat="45.42767" lon="4.5857">
        <ele>455.4</ele>
        <time>1970-01-01T01:44:45.000Z</time>
      </trkpt>
      <trkpt lat="45.42768" lon="4.5857">
        <ele>455.8</ele>
        <time>1970-01-01T01:44:46.000Z</time>
      </trkpt>
      <trkpt lat="45.4277" lon="4.5857">
        <ele>456.2</ele>
        <time>1970-01-01T01:44:47.000Z</time>
      </trkpt>
      <trkpt lat="45.42772" lon="4.58571">
        <ele>456.6</ele>
        <time>1970-01-01T01:44:48.000Z</time>
      </trkpt>
      <trkpt lat="45.42775" lon="4.5857">
        <ele>457</ele>
        <time>1970-01-01T01:44:49.000Z</time>
      </trkpt>
      <trkpt lat="45.42777" lon="4.58571">
        <ele>457</ele>
        <time>1970-01-01T01:44:50.000Z</time>
      </trkpt>
      <trkpt lat="45.42784" lon="4.5857">
        <ele>457.6</ele>
        <time>1970-01-01T01:44:55.000Z</time>
      </trkpt>
      <trkpt lat="45.42785" lon="4.58569">
        <ele>458</ele>
        <time>1970-01-01T01:44:56.000Z</time>
      </trkpt>
      <trkpt lat="45.42786" lon="4.58568">
        <ele>458.4</ele>
        <time>1970-01-01T01:44:57.000Z</time>
      </trkpt>
      <trkpt lat="45.42788" lon="4.58567">
        <ele>458.8</ele>
        <time>1970-01-01T01:44:58.000Z</time>
      </trkpt>
      <trkpt lat="45.42789" lon="4.58566">
        <ele>459.2</ele>
        <time>1970-01-01T01:44:59.000Z</time>
      </trkpt>
      <trkpt lat="45.42796" lon="4.58564">
        <ele>460.2</ele>
        <time>1970-01-01T01:45:03.000Z</time>
      </trkpt>
      <trkpt lat="45.42798" lon="4.58563">
        <ele>460.6</ele>
        <time>1970-01-01T01:45:04.000Z</time>
      </trkpt>
      <trkpt lat="45.42799" lon="4.58562">
        <ele>461</ele>
        <time>1970-01-01T01:45:05.000Z</time>
      </trkpt>
      <trkpt lat="45.428" lon="4.58561">
        <ele>461.4</ele>
        <time>1970-01-01T01:45:06.000Z</time>
      </trkpt>
      <trkpt lat="45.42805" lon="4.58559">
        <ele>461.4</ele>
        <time>1970-01-01T01:45:09.000Z</time>
      </trkpt>
      <trkpt lat="45.42807" lon="4.58558">
        <ele>461.8</ele>
        <time>1970-01-01T01:45:10.000Z</time>
      </trkpt>
      <trkpt lat="45.42811" lon="4.58558">
        <ele>462.2</ele>
        <time>1970-01-01T01:45:11.000Z</time>
      </trkpt>
      <trkpt lat="45.42812" lon="4.58557">
        <ele>462.8</ele>
        <time>1970-01-01T01:45:12.000Z</time>
      </trkpt>
      <trkpt lat="45.42814" lon="4.58556">
        <ele>463.2</ele>
        <time>1970-01-01T01:45:13.000Z</time>
      </trkpt>
      <trkpt lat="45.42815" lon="4.58555">
        <ele>463.6</ele>
        <time>1970-01-01T01:45:14.000Z</time>
      </trkpt>
      <trkpt lat="45.42817" lon="4.58555">
        <ele>463.6</ele>
        <time>1970-01-01T01:45:15.000Z</time>
      </trkpt>
      <trkpt lat="45.42821" lon="4.58552">
        <ele>464</ele>
        <time>1970-01-01T01:45:18.000Z</time>
      </trkpt>
      <trkpt lat="45.42822" lon="4.58551">
        <ele>464.4</ele>
        <time>1970-01-01T01:45:19.000Z</time>
      </trkpt>
      <trkpt lat="45.42824" lon="4.58551">
        <ele>464.8</ele>
        <time>1970-01-01T01:45:20.000Z</time>
      </trkpt>
      <trkpt lat="45.42826" lon="4.5855">
        <ele>465.2</ele>
        <time>1970-01-01T01:45:21.000Z</time>
      </trkpt>
      <trkpt lat="45.42827" lon="4.58549">
        <ele>465.6</ele>
        <time>1970-01-01T01:45:22.000Z</time>
      </trkpt>
      <trkpt lat="45.42833" lon="4.58547">
        <ele>465.6</ele>
        <time>1970-01-01T01:45:27.000Z</time>
      </trkpt>
      <trkpt lat="45.42835" lon="4.58546">
        <ele>466.2</ele>
        <time>1970-01-01T01:45:28.000Z</time>
      </trkpt>
      <trkpt lat="45.42836" lon="4.58546">
        <ele>466.6</ele>
        <time>1970-01-01T01:45:29.000Z</time>
      </trkpt>
      <trkpt lat="45.42838" lon="4.58546">
        <ele>467</ele>
        <time>1970-01-01T01:45:30.000Z</time>
      </trkpt>
      <trkpt lat="45.42839" lon="4.58546">
        <ele>467.4</ele>
        <time>1970-01-01T01:45:31.000Z</time>
      </trkpt>
      <trkpt lat="45.42841" lon="4.58547">
        <ele>467.8</ele>
        <time>1970-01-01T01:45:32.000Z</time>
      </trkpt>
      <trkpt lat="45.42842" lon="4.58548">
        <ele>468.2</ele>
        <time>1970-01-01T01:45:33.000Z</time>
      </trkpt>
      <trkpt lat="45.42844" lon="4.58549">
        <ele>468.8</ele>
        <time>1970-01-01T01:45:34.000Z</time>
      </trkpt>
      <trkpt lat="45.42848" lon="4.5855">
        <ele>469.2</ele>
        <time>1970-01-01T01:45:35.000Z</time>
      </trkpt>
      <trkpt lat="45.42851" lon="4.58552">
        <ele>469.6</ele>
        <time>1970-01-01T01:45:36.000Z</time>
      </trkpt>
      <trkpt lat="45.42854" lon="4.58554">
        <ele>470</ele>
        <time>1970-01-01T01:45:37.000Z</time>
      </trkpt>
      <trkpt lat="45.42873" lon="4.58558">
        <ele>470</ele>
        <time>1970-01-01T01:45:40.000Z</time>
      </trkpt>
      <trkpt lat="45.42885" lon="4.58557">
        <ele>469.6</ele>
        <time>1970-01-01T01:45:42.000Z</time>
      </trkpt>
      <trkpt lat="45.42893" lon="4.5855">
        <ele>469.2</ele>
        <time>1970-01-01T01:45:43.000Z</time>
      </trkpt>
      <trkpt lat="45.42897" lon="4.58542">
        <ele>468.6</ele>
        <time>1970-01-01T01:45:44.000Z</time>
      </trkpt>
      <trkpt lat="45.42899" lon="4.58533">
        <ele>468.2</ele>
        <time>1970-01-01T01:45:45.000Z</time>
      </trkpt>
      <trkpt lat="45.42899" lon="4.58524">
        <ele>467.8</ele>
        <time>1970-01-01T01:45:46.000Z</time>
      </trkpt>
      <trkpt lat="45.42898" lon="4.58513">
        <ele>467.8</ele>
        <time>1970-01-01T01:45:48.000Z</time>
      </trkpt>
      <trkpt lat="45.42895" lon="4.585">
        <ele>467.8</ele>
        <time>1970-01-01T01:45:52.000Z</time>
      </trkpt>
      <trkpt lat="45.42892" lon="4.58486">
        <ele>468.2</ele>
        <time>1970-01-01T01:45:57.000Z</time>
      </trkpt>
      <trkpt lat="45.42892" lon="4.58484">
        <ele>468.6</ele>
        <time>1970-01-01T01:45:58.000Z</time>
      </trkpt>
      <trkpt lat="45.42891" lon="4.58481">
        <ele>469</ele>
        <time>1970-01-01T01:45:59.000Z</time>
      </trkpt>
      <trkpt lat="45.4289" lon="4.58478">
        <ele>469.4</ele>
        <time>1970-01-01T01:46:00.000Z</time>
      </trkpt>
      <trkpt lat="45.42889" lon="4.58475">
        <ele>469.8</ele>
        <time>1970-01-01T01:46:01.000Z</time>
      </trkpt>
      <trkpt lat="45.42884" lon="4.58464">
        <ele>469.8</ele>
        <time>1970-01-01T01:46:05.000Z</time>
      </trkpt>
      <trkpt lat="45.42879" lon="4.58444">
        <ele>470.2</ele>
        <time>1970-01-01T01:46:11.000Z</time>
      </trkpt>
      <trkpt lat="45.42878" lon="4.5844">
        <ele>470.6</ele>
        <time>1970-01-01T01:46:12.000Z</time>
      </trkpt>
      <trkpt lat="45.42877" lon="4.58437">
        <ele>471</ele>
        <time>1970-01-01T01:46:13.000Z</time>
      </trkpt>
      <trkpt lat="45.42876" lon="4.58432">
        <ele>471.4</ele>
        <time>1970-01-01T01:46:14.000Z</time>
      </trkpt>
      <trkpt lat="45.42875" lon="4.58428">
        <ele>471.8</ele>
        <time>1970-01-01T01:46:15.000Z</time>
      </trkpt>
      <trkpt lat="45.42875" lon="4.58414">
        <ele>471.8</ele>
        <time>1970-01-01T01:46:18.000Z</time>
      </trkpt>
      <trkpt lat="45.42878" lon="4.58392">
        <ele>471.8</ele>
        <time>1970-01-01T01:46:24.000Z</time>
      </trkpt>
      <trkpt lat="45.42886" lon="4.58376">
        <ele>471.8</ele>
        <time>1970-01-01T01:46:30.000Z</time>
      </trkpt>
      <trkpt lat="45.42891" lon="4.5837">
        <ele>472.4</ele>
        <time>1970-01-01T01:46:33.000Z</time>
      </trkpt>
      <trkpt lat="45.42892" lon="4.58368">
        <ele>472.8</ele>
        <time>1970-01-01T01:46:34.000Z</time>
      </trkpt>
      <trkpt lat="45.42893" lon="4.58365">
        <ele>473.2</ele>
        <time>1970-01-01T01:46:35.000Z</time>
      </trkpt>
      <trkpt lat="45.42895" lon="4.58363">
        <ele>473.6</ele>
        <time>1970-01-01T01:46:36.000Z</time>
      </trkpt>
      <trkpt lat="45.42897" lon="4.58361">
        <ele>474</ele>
        <time>1970-01-01T01:46:37.000Z</time>
      </trkpt>
      <trkpt lat="45.42911" lon="4.58347">
        <ele>474</ele>
        <time>1970-01-01T01:46:44.000Z</time>
      </trkpt>
      <trkpt lat="45.42915" lon="4.58344">
        <ele>474.4</ele>
        <time>1970-01-01T01:46:46.000Z</time>
      </trkpt>
      <trkpt lat="45.42916" lon="4.58343">
        <ele>474.8</ele>
        <time>1970-01-01T01:46:47.000Z</time>
      </trkpt>
      <trkpt lat="45.42918" lon="4.58342">
        <ele>475.2</ele>
        <time>1970-01-01T01:46:48.000Z</time>
      </trkpt>
      <trkpt lat="45.42919" lon="4.5834">
        <ele>475.6</ele>
        <time>1970-01-01T01:46:49.000Z</time>
      </trkpt>
      <trkpt lat="45.42922" lon="4.58338">
        <ele>476</ele>
        <time>1970-01-01T01:46:50.000Z</time>
      </trkpt>
      <trkpt lat="45.42923" lon="4.58338">
        <ele>476</ele>
        <time>1970-01-01T01:46:51.000Z</time>
      </trkpt>
      <trkpt lat="45.42928" lon="4.58333">
        <ele>476.4</ele>
        <time>1970-01-01T01:46:54.000Z</time>
      </trkpt>
      <trkpt lat="45.4293" lon="4.58331">
        <ele>477</ele>
        <time>1970-01-01T01:46:55.000Z</time>
      </trkpt>
      <trkpt lat="45.42931" lon="4.58329">
        <ele>477.4</ele>
        <time>1970-01-01T01:46:56.000Z</time>
      </trkpt>
      <trkpt lat="45.42932" lon="4.58328">
        <ele>477.8</ele>
        <time>1970-01-01T01:46:57.000Z</time>
      </trkpt>
      <trkpt lat="45.42934" lon="4.58327">
        <ele>478.2</ele>
        <time>1970-01-01T01:46:58.000Z</time>
      </trkpt>
      <trkpt lat="45.42935" lon="4.58324">
        <ele>478.6</ele>
        <time>1970-01-01T01:47:00.000Z</time>
      </trkpt>
      <trkpt lat="45.42936" lon="4.58321">
        <ele>479</ele>
        <time>1970-01-01T01:47:01.000Z</time>
      </trkpt>
      <trkpt lat="45.42938" lon="4.58319">
        <ele>479.4</ele>
        <time>1970-01-01T01:47:02.000Z</time>
      </trkpt>
      <trkpt lat="45.42939" lon="4.58317">
        <ele>479.8</ele>
        <time>1970-01-01T01:47:03.000Z</time>
      </trkpt>
      <trkpt lat="45.4294" lon="4.58316">
        <ele>480.2</ele>
        <time>1970-01-01T01:47:04.000Z</time>
      </trkpt>
      <trkpt lat="45.42943" lon="4.58309">
        <ele>481</ele>
        <time>1970-01-01T01:47:07.000Z</time>
      </trkpt>
      <trkpt lat="45.42944" lon="4.58307">
        <ele>481.6</ele>
        <time>1970-01-01T01:47:08.000Z</time>
      </trkpt>
      <trkpt lat="45.42945" lon="4.58306">
        <ele>482</ele>
        <time>1970-01-01T01:47:09.000Z</time>
      </trkpt>
      <trkpt lat="45.42946" lon="4.58305">
        <ele>482.4</ele>
        <time>1970-01-01T01:47:10.000Z</time>
      </trkpt>
      <trkpt lat="45.42951" lon="4.58299">
        <ele>482.4</ele>
        <time>1970-01-01T01:47:14.000Z</time>
      </trkpt>
      <trkpt lat="45.42953" lon="4.58297">
        <ele>482.8</ele>
        <time>1970-01-01T01:47:15.000Z</time>
      </trkpt>
      <trkpt lat="45.42955" lon="4.58295">
        <ele>483.2</ele>
        <time>1970-01-01T01:47:16.000Z</time>
      </trkpt>
      <trkpt lat="45.42956" lon="4.58293">
        <ele>483.6</ele>
        <time>1970-01-01T01:47:17.000Z</time>
      </trkpt>
      <trkpt lat="45.42958" lon="4.58292">
        <ele>484</ele>
        <time>1970-01-01T01:47:18.000Z</time>
      </trkpt>
      <trkpt lat="45.4296" lon="4.5829">
        <ele>484.4</ele>
        <time>1970-01-01T01:47:19.000Z</time>
      </trkpt>
      <trkpt lat="45.42961" lon="4.5829">
        <ele>484.4</ele>
        <time>1970-01-01T01:47:20.000Z</time>
      </trkpt>
      <trkpt lat="45.42968" lon="4.58283">
        <ele>484.8</ele>
        <time>1970-01-01T01:47:25.000Z</time>
      </trkpt>
      <trkpt lat="45.42969" lon="4.58281">
        <ele>485.4</ele>
        <time>1970-01-01T01:47:26.000Z</time>
      </trkpt>
      <trkpt lat="45.42971" lon="4.58279">
        <ele>485.8</ele>
        <time>1970-01-01T01:47:27.000Z</time>
      </trkpt>
      <trkpt lat="45.42972" lon="4.58278">
        <ele>486.2</ele>
        <time>1970-01-01T01:47:28.000Z</time>
      </trkpt>
      <trkpt lat="45.42974" lon="4.58277">
        <ele>486.8</ele>
        <time>1970-01-01T01:47:29.000Z</time>
      </trkpt>
      <trkpt lat="45.4298" lon="4.58271">
        <ele>487.2</ele>
        <time>1970-01-01T01:47:33.000Z</time>
      </trkpt>
      <trkpt lat="45.4298" lon="4.5827">
        <ele>487.6</ele>
        <time>1970-01-01T01:47:34.000Z</time>
      </trkpt>
      <trkpt lat="45.42982" lon="4.58268">
        <ele>488</ele>
        <time>1970-01-01T01:47:35.000Z</time>
      </trkpt>
      <trkpt lat="45.42983" lon="4.58266">
        <ele>488.4</ele>
        <time>1970-01-01T01:47:36.000Z</time>
      </trkpt>
      <trkpt lat="45.42983" lon="4.58265">
        <ele>488.8</ele>
        <time>1970-01-01T01:47:37.000Z</time>
      </trkpt>
      <trkpt lat="45.42986" lon="4.58262">
        <ele>488.8</ele>
        <time>1970-01-01T01:47:39.000Z</time>
      </trkpt>
      <trkpt lat="45.4299" lon="4.5826">
        <ele>489.2</ele>
        <time>1970-01-01T01:47:41.000Z</time>
      </trkpt>
      <trkpt lat="45.42991" lon="4.58259">
        <ele>489.6</ele>
        <time>1970-01-01T01:47:42.000Z</time>
      </trkpt>
      <trkpt lat="45.42992" lon="4.58257">
        <ele>490</ele>
        <time>1970-01-01T01:47:43.000Z</time>
      </trkpt>
      <trkpt lat="45.42993" lon="4.58256">
        <ele>490.6</ele>
        <time>1970-01-01T01:47:44.000Z</time>
      </trkpt>
      <trkpt lat="45.42994" lon="4.58255">
        <ele>491</ele>
        <time>1970-01-01T01:47:45.000Z</time>
      </trkpt>
      <trkpt lat="45.42994" lon="4.58253">
        <ele>491</ele>
        <time>1970-01-01T01:47:46.000Z</time>
      </trkpt>
      <trkpt lat="45.42998" lon="4.58247">
        <ele>491.4</ele>
        <time>1970-01-01T01:47:50.000Z</time>
      </trkpt>
      <trkpt lat="45.42999" lon="4.58245">
        <ele>491.8</ele>
        <time>1970-01-01T01:47:51.000Z</time>
      </trkpt>
      <trkpt lat="45.43" lon="4.58243">
        <ele>492.2</ele>
        <time>1970-01-01T01:47:52.000Z</time>
      </trkpt>
      <trkpt lat="45.43001" lon="4.58242">
        <ele>492.6</ele>
        <time>1970-01-01T01:47:53.000Z</time>
      </trkpt>
      <trkpt lat="45.43002" lon="4.5824">
        <ele>493</ele>
        <time>1970-01-01T01:47:54.000Z</time>
      </trkpt>
      <trkpt lat="45.43004" lon="4.58235">
        <ele>493.4</ele>
        <time>1970-01-01T01:47:57.000Z</time>
      </trkpt>
      <trkpt lat="45.43004" lon="4.58233">
        <ele>494</ele>
        <time>1970-01-01T01:47:58.000Z</time>
      </trkpt>
      <trkpt lat="45.43005" lon="4.58232">
        <ele>494.4</ele>
        <time>1970-01-01T01:47:59.000Z</time>
      </trkpt>
      <trkpt lat="45.43006" lon="4.5823">
        <ele>494.8</ele>
        <time>1970-01-01T01:48:00.000Z</time>
      </trkpt>
      <trkpt lat="45.43007" lon="4.58229">
        <ele>495.4</ele>
        <time>1970-01-01T01:48:01.000Z</time>
      </trkpt>
      <trkpt lat="45.43009" lon="4.58228">
        <ele>495.4</ele>
        <time>1970-01-01T01:48:03.000Z</time>
      </trkpt>
      <trkpt lat="45.43012" lon="4.58228">
        <ele>495.4</ele>
        <time>1970-01-01T01:48:04.000Z</time>
      </trkpt>
      <trkpt lat="45.43015" lon="4.58221">
        <ele>495.4</ele>
        <time>1970-01-01T01:48:07.000Z</time>
      </trkpt>
      <trkpt lat="45.43017" lon="4.5822">
        <ele>495.4</ele>
        <time>1970-01-01T01:48:08.000Z</time>
      </trkpt>
      <trkpt lat="45.43024" lon="4.5821">
        <ele>495.8</ele>
        <time>1970-01-01T01:48:13.000Z</time>
      </trkpt>
      <trkpt lat="45.43025" lon="4.58208">
        <ele>496.2</ele>
        <time>1970-01-01T01:48:14.000Z</time>
      </trkpt>
      <trkpt lat="45.43026" lon="4.58206">
        <ele>496.6</ele>
        <time>1970-01-01T01:48:15.000Z</time>
      </trkpt>
      <trkpt lat="45.43028" lon="4.58204">
        <ele>497</ele>
        <time>1970-01-01T01:48:16.000Z</time>
      </trkpt>
      <trkpt lat="45.43029" lon="4.58203">
        <ele>497.4</ele>
        <time>1970-01-01T01:48:17.000Z</time>
      </trkpt>
      <trkpt lat="45.43033" lon="4.58197">
        <ele>497.8</ele>
        <time>1970-01-01T01:48:21.000Z</time>
      </trkpt>
      <trkpt lat="45.43035" lon="4.58196">
        <ele>498.2</ele>
        <time>1970-01-01T01:48:22.000Z</time>
      </trkpt>
      <trkpt lat="45.43035" lon="4.58195">
        <ele>498.6</ele>
        <time>1970-01-01T01:48:23.000Z</time>
      </trkpt>
      <trkpt lat="45.43037" lon="4.58193">
        <ele>499.2</ele>
        <time>1970-01-01T01:48:24.000Z</time>
      </trkpt>
      <trkpt lat="45.43038" lon="4.58193">
        <ele>499.6</ele>
        <time>1970-01-01T01:48:25.000Z</time>
      </trkpt>
      <trkpt lat="45.43041" lon="4.5819">
        <ele>499.6</ele>
        <time>1970-01-01T01:48:28.000Z</time>
      </trkpt>
      <trkpt lat="45.43043" lon="4.58189">
        <ele>500</ele>
        <time>1970-01-01T01:48:29.000Z</time>
      </trkpt>
      <trkpt lat="45.43044" lon="4.58187">
        <ele>500.4</ele>
        <time>1970-01-01T01:48:30.000Z</time>
      </trkpt>
      <trkpt lat="45.43045" lon="4.58186">
        <ele>500.8</ele>
        <time>1970-01-01T01:48:31.000Z</time>
      </trkpt>
      <trkpt lat="45.43047" lon="4.58186">
        <ele>501.4</ele>
        <time>1970-01-01T01:48:32.000Z</time>
      </trkpt>
      <trkpt lat="45.43048" lon="4.58185">
        <ele>501.8</ele>
        <time>1970-01-01T01:48:33.000Z</time>
      </trkpt>
      <trkpt lat="45.4305" lon="4.58183">
        <ele>501.8</ele>
        <time>1970-01-01T01:48:35.000Z</time>
      </trkpt>
      <trkpt lat="45.43054" lon="4.58181">
        <ele>502.2</ele>
        <time>1970-01-01T01:48:38.000Z</time>
      </trkpt>
      <trkpt lat="45.43056" lon="4.58181">
        <ele>502.6</ele>
        <time>1970-01-01T01:48:39.000Z</time>
      </trkpt>
      <trkpt lat="45.43058" lon="4.5818">
        <ele>503</ele>
        <time>1970-01-01T01:48:40.000Z</time>
      </trkpt>
      <trkpt lat="45.4306" lon="4.58179">
        <ele>503.4</ele>
        <time>1970-01-01T01:48:41.000Z</time>
      </trkpt>
      <trkpt lat="45.43061" lon="4.58178">
        <ele>503.8</ele>
        <time>1970-01-01T01:48:42.000Z</time>
      </trkpt>
      <trkpt lat="45.43065" lon="4.58176">
        <ele>503.8</ele>
        <time>1970-01-01T01:48:46.000Z</time>
      </trkpt>
      <trkpt lat="45.43072" lon="4.58174">
        <ele>504.2</ele>
        <time>1970-01-01T01:48:49.000Z</time>
      </trkpt>
      <trkpt lat="45.43074" lon="4.58172">
        <ele>504.6</ele>
        <time>1970-01-01T01:48:50.000Z</time>
      </trkpt>
      <trkpt lat="45.43077" lon="4.5817">
        <ele>505</ele>
        <time>1970-01-01T01:48:51.000Z</time>
      </trkpt>
      <trkpt lat="45.4308" lon="4.58169">
        <ele>505.4</ele>
        <time>1970-01-01T01:48:52.000Z</time>
      </trkpt>
      <trkpt lat="45.43082" lon="4.58167">
        <ele>505.8</ele>
        <time>1970-01-01T01:48:53.000Z</time>
      </trkpt>
      <trkpt lat="45.43086" lon="4.58165">
        <ele>506.2</ele>
        <time>1970-01-01T01:48:55.000Z</time>
      </trkpt>
      <trkpt lat="45.43089" lon="4.58164">
        <ele>506.6</ele>
        <time>1970-01-01T01:48:56.000Z</time>
      </trkpt>
      <trkpt lat="45.43091" lon="4.58163">
        <ele>507</ele>
        <time>1970-01-01T01:48:57.000Z</time>
      </trkpt>
      <trkpt lat="45.43092" lon="4.58162">
        <ele>507.4</ele>
        <time>1970-01-01T01:48:58.000Z</time>
      </trkpt>
      <trkpt lat="45.43094" lon="4.58162">
        <ele>507.8</ele>
        <time>1970-01-01T01:48:59.000Z</time>
      </trkpt>
      <trkpt lat="45.43099" lon="4.58162">
        <ele>507.8</ele>
        <time>1970-01-01T01:49:02.000Z</time>
      </trkpt>
      <trkpt lat="45.43108" lon="4.5816">
        <ele>508.4</ele>
        <time>1970-01-01T01:49:06.000Z</time>
      </trkpt>
      <trkpt lat="45.43111" lon="4.5816">
        <ele>508.8</ele>
        <time>1970-01-01T01:49:07.000Z</time>
      </trkpt>
      <trkpt lat="45.43113" lon="4.5816">
        <ele>509.2</ele>
        <time>1970-01-01T01:49:08.000Z</time>
      </trkpt>
      <trkpt lat="45.43115" lon="4.5816">
        <ele>509.6</ele>
        <time>1970-01-01T01:49:09.000Z</time>
      </trkpt>
      <trkpt lat="45.43116" lon="4.5816">
        <ele>510</ele>
        <time>1970-01-01T01:49:10.000Z</time>
      </trkpt>
      <trkpt lat="45.43122" lon="4.5816">
        <ele>510</ele>
        <time>1970-01-01T01:49:14.000Z</time>
      </trkpt>
      <trkpt lat="45.43127" lon="4.5816">
        <ele>510.4</ele>
        <time>1970-01-01T01:49:17.000Z</time>
      </trkpt>
      <trkpt lat="45.43128" lon="4.58159">
        <ele>510.8</ele>
        <time>1970-01-01T01:49:18.000Z</time>
      </trkpt>
      <trkpt lat="45.43129" lon="4.58159">
        <ele>511.4</ele>
        <time>1970-01-01T01:49:19.000Z</time>
      </trkpt>
      <trkpt lat="45.4313" lon="4.58159">
        <ele>511.8</ele>
        <time>1970-01-01T01:49:20.000Z</time>
      </trkpt>
      <trkpt lat="45.43132" lon="4.58158">
        <ele>512.2</ele>
        <time>1970-01-01T01:49:21.000Z</time>
      </trkpt>
      <trkpt lat="45.43138" lon="4.5816">
        <ele>512.2</ele>
        <time>1970-01-01T01:49:25.000Z</time>
      </trkpt>
      <trkpt lat="45.43146" lon="4.58161">
        <ele>512.6</ele>
        <time>1970-01-01T01:49:30.000Z</time>
      </trkpt>
      <trkpt lat="45.43148" lon="4.5816">
        <ele>513</ele>
        <time>1970-01-01T01:49:31.000Z</time>
      </trkpt>
      <trkpt lat="45.4315" lon="4.58158">
        <ele>513.4</ele>
        <time>1970-01-01T01:49:32.000Z</time>
      </trkpt>
      <trkpt lat="45.43152" lon="4.58158">
        <ele>513.8</ele>
        <time>1970-01-01T01:49:33.000Z</time>
      </trkpt>
      <trkpt lat="45.43155" lon="4.58157">
        <ele>514.4</ele>
        <time>1970-01-01T01:49:34.000Z</time>
      </trkpt>
      <trkpt lat="45.43157" lon="4.58156">
        <ele>514.4</ele>
        <time>1970-01-01T01:49:35.000Z</time>
      </trkpt>
      <trkpt lat="45.43166" lon="4.58153">
        <ele>514.8</ele>
        <time>1970-01-01T01:49:39.000Z</time>
      </trkpt>
      <trkpt lat="45.43168" lon="4.58152">
        <ele>515.2</ele>
        <time>1970-01-01T01:49:40.000Z</time>
      </trkpt>
      <trkpt lat="45.4317" lon="4.58152">
        <ele>515.6</ele>
        <time>1970-01-01T01:49:41.000Z</time>
      </trkpt>
      <trkpt lat="45.43172" lon="4.58152">
        <ele>516.2</ele>
        <time>1970-01-01T01:49:42.000Z</time>
      </trkpt>
      <trkpt lat="45.43174" lon="4.58152">
        <ele>516.6</ele>
        <time>1970-01-01T01:49:43.000Z</time>
      </trkpt>
      <trkpt lat="45.43184" lon="4.58152">
        <ele>516.6</ele>
        <time>1970-01-01T01:49:48.000Z</time>
      </trkpt>
      <trkpt lat="45.43193" lon="4.58153">
        <ele>517</ele>
        <time>1970-01-01T01:49:52.000Z</time>
      </trkpt>
      <trkpt lat="45.43195" lon="4.58154">
        <ele>517.4</ele>
        <time>1970-01-01T01:49:53.000Z</time>
      </trkpt>
      <trkpt lat="45.43197" lon="4.58155">
        <ele>517.8</ele>
        <time>1970-01-01T01:49:54.000Z</time>
      </trkpt>
      <trkpt lat="45.43199" lon="4.58155">
        <ele>518.2</ele>
        <time>1970-01-01T01:49:55.000Z</time>
      </trkpt>
      <trkpt lat="45.43202" lon="4.58155">
        <ele>518.6</ele>
        <time>1970-01-01T01:49:56.000Z</time>
      </trkpt>
      <trkpt lat="45.43219" lon="4.58159">
        <ele>518.6</ele>
        <time>1970-01-01T01:50:03.000Z</time>
      </trkpt>
      <trkpt lat="45.43233" lon="4.58162">
        <ele>519</ele>
        <time>1970-01-01T01:50:09.000Z</time>
      </trkpt>
      <trkpt lat="45.43235" lon="4.58162">
        <ele>519.4</ele>
        <time>1970-01-01T01:50:10.000Z</time>
      </trkpt>
      <trkpt lat="45.43237" lon="4.58162">
        <ele>519.8</ele>
        <time>1970-01-01T01:50:11.000Z</time>
      </trkpt>
      <trkpt lat="45.43239" lon="4.58163">
        <ele>520.4</ele>
        <time>1970-01-01T01:50:12.000Z</time>
      </trkpt>
      <trkpt lat="45.43241" lon="4.58163">
        <ele>520.8</ele>
        <time>1970-01-01T01:50:13.000Z</time>
      </trkpt>
      <trkpt lat="45.43257" lon="4.58168">
        <ele>520.8</ele>
        <time>1970-01-01T01:50:20.000Z</time>
      </trkpt>
      <trkpt lat="45.43269" lon="4.58171">
        <ele>521.2</ele>
        <time>1970-01-01T01:50:26.000Z</time>
      </trkpt>
      <trkpt lat="45.43271" lon="4.58172">
        <ele>521.6</ele>
        <time>1970-01-01T01:50:27.000Z</time>
      </trkpt>
      <trkpt lat="45.43273" lon="4.58173">
        <ele>522</ele>
        <time>1970-01-01T01:50:28.000Z</time>
      </trkpt>
      <trkpt lat="45.43274" lon="4.58174">
        <ele>522.4</ele>
        <time>1970-01-01T01:50:29.000Z</time>
      </trkpt>
      <trkpt lat="45.43277" lon="4.58175">
        <ele>522.8</ele>
        <time>1970-01-01T01:50:30.000Z</time>
      </trkpt>
      <trkpt lat="45.43287" lon="4.5818">
        <ele>522.8</ele>
        <time>1970-01-01T01:50:35.000Z</time>
      </trkpt>
      <trkpt lat="45.43301" lon="4.58186">
        <ele>523.2</ele>
        <time>1970-01-01T01:50:42.000Z</time>
      </trkpt>
      <trkpt lat="45.43303" lon="4.58187">
        <ele>523.6</ele>
        <time>1970-01-01T01:50:43.000Z</time>
      </trkpt>
      <trkpt lat="45.43305" lon="4.58188">
        <ele>524</ele>
        <time>1970-01-01T01:50:44.000Z</time>
      </trkpt>
      <trkpt lat="45.43307" lon="4.58189">
        <ele>524.4</ele>
        <time>1970-01-01T01:50:45.000Z</time>
      </trkpt>
      <trkpt lat="45.43309" lon="4.5819">
        <ele>524.8</ele>
        <time>1970-01-01T01:50:46.000Z</time>
      </trkpt>
      <trkpt lat="45.43318" lon="4.58193">
        <ele>524.8</ele>
        <time>1970-01-01T01:50:50.000Z</time>
      </trkpt>
      <trkpt lat="45.43324" lon="4.58196">
        <ele>525.2</ele>
        <time>1970-01-01T01:50:53.000Z</time>
      </trkpt>
      <trkpt lat="45.43325" lon="4.58196">
        <ele>525.8</ele>
        <time>1970-01-01T01:50:54.000Z</time>
      </trkpt>
      <trkpt lat="45.43327" lon="4.58197">
        <ele>526.2</ele>
        <time>1970-01-01T01:50:55.000Z</time>
      </trkpt>
      <trkpt lat="45.43329" lon="4.58197">
        <ele>526.6</ele>
        <time>1970-01-01T01:50:56.000Z</time>
      </trkpt>
      <trkpt lat="45.43331" lon="4.58198">
        <ele>527</ele>
        <time>1970-01-01T01:50:57.000Z</time>
      </trkpt>
      <trkpt lat="45.43333" lon="4.58198">
        <ele>527</ele>
        <time>1970-01-01T01:50:58.000Z</time>
      </trkpt>
      <trkpt lat="45.43338" lon="4.58201">
        <ele>527.6</ele>
        <time>1970-01-01T01:51:01.000Z</time>
      </trkpt>
      <trkpt lat="45.4334" lon="4.58203">
        <ele>528</ele>
        <time>1970-01-01T01:51:02.000Z</time>
      </trkpt>
      <trkpt lat="45.43343" lon="4.58204">
        <ele>528.4</ele>
        <time>1970-01-01T01:51:03.000Z</time>
      </trkpt>
      <trkpt lat="45.43345" lon="4.58204">
        <ele>528.8</ele>
        <time>1970-01-01T01:51:04.000Z</time>
      </trkpt>
      <trkpt lat="45.43347" lon="4.58205">
        <ele>529.4</ele>
        <time>1970-01-01T01:51:05.000Z</time>
      </trkpt>
      <trkpt lat="45.43355" lon="4.5821">
        <ele>529.8</ele>
        <time>1970-01-01T01:51:09.000Z</time>
      </trkpt>
      <trkpt lat="45.43357" lon="4.58211">
        <ele>530.2</ele>
        <time>1970-01-01T01:51:10.000Z</time>
      </trkpt>
      <trkpt lat="45.43359" lon="4.58212">
        <ele>530.6</ele>
        <time>1970-01-01T01:51:11.000Z</time>
      </trkpt>
      <trkpt lat="45.43361" lon="4.58213">
        <ele>531</ele>
        <time>1970-01-01T01:51:12.000Z</time>
      </trkpt>
      <trkpt lat="45.43362" lon="4.58214">
        <ele>531.4</ele>
        <time>1970-01-01T01:51:13.000Z</time>
      </trkpt>
      <trkpt lat="45.43374" lon="4.58221">
        <ele>531.8</ele>
        <time>1970-01-01T01:51:19.000Z</time>
      </trkpt>
      <trkpt lat="45.43376" lon="4.58223">
        <ele>532.2</ele>
        <time>1970-01-01T01:51:20.000Z</time>
      </trkpt>
      <trkpt lat="45.43378" lon="4.58224">
        <ele>532.6</ele>
        <time>1970-01-01T01:51:21.000Z</time>
      </trkpt>
      <trkpt lat="45.4338" lon="4.58225">
        <ele>533</ele>
        <time>1970-01-01T01:51:22.000Z</time>
      </trkpt>
      <trkpt lat="45.43382" lon="4.58226">
        <ele>533.6</ele>
        <time>1970-01-01T01:51:23.000Z</time>
      </trkpt>
      <trkpt lat="45.43388" lon="4.58229">
        <ele>533.6</ele>
        <time>1970-01-01T01:51:26.000Z</time>
      </trkpt>
      <trkpt lat="45.43396" lon="4.58233">
        <ele>534</ele>
        <time>1970-01-01T01:51:30.000Z</time>
      </trkpt>
      <trkpt lat="45.43398" lon="4.58234">
        <ele>534.4</ele>
        <time>1970-01-01T01:51:31.000Z</time>
      </trkpt>
      <trkpt lat="45.434" lon="4.58235">
        <ele>534.8</ele>
        <time>1970-01-01T01:51:32.000Z</time>
      </trkpt>
      <trkpt lat="45.43402" lon="4.58237">
        <ele>535.2</ele>
        <time>1970-01-01T01:51:33.000Z</time>
      </trkpt>
      <trkpt lat="45.43404" lon="4.58238">
        <ele>535.6</ele>
        <time>1970-01-01T01:51:34.000Z</time>
      </trkpt>
      <trkpt lat="45.43414" lon="4.58242">
        <ele>536</ele>
        <time>1970-01-01T01:51:39.000Z</time>
      </trkpt>
      <trkpt lat="45.43416" lon="4.58244">
        <ele>536.4</ele>
        <time>1970-01-01T01:51:40.000Z</time>
      </trkpt>
      <trkpt lat="45.43417" lon="4.58244">
        <ele>536.8</ele>
        <time>1970-01-01T01:51:41.000Z</time>
      </trkpt>
      <trkpt lat="45.4342" lon="4.58245">
        <ele>537.2</ele>
        <time>1970-01-01T01:51:42.000Z</time>
      </trkpt>
      <trkpt lat="45.43422" lon="4.58246">
        <ele>537.6</ele>
        <time>1970-01-01T01:51:43.000Z</time>
      </trkpt>
      <trkpt lat="45.43435" lon="4.58251">
        <ele>537.6</ele>
        <time>1970-01-01T01:51:49.000Z</time>
      </trkpt>
      <trkpt lat="45.43443" lon="4.58256">
        <ele>538</ele>
        <time>1970-01-01T01:51:53.000Z</time>
      </trkpt>
      <trkpt lat="45.43445" lon="4.58256">
        <ele>538.6</ele>
        <time>1970-01-01T01:51:54.000Z</time>
      </trkpt>
      <trkpt lat="45.43447" lon="4.58257">
        <ele>539</ele>
        <time>1970-01-01T01:51:55.000Z</time>
      </trkpt>
      <trkpt lat="45.43449" lon="4.58258">
        <ele>539.4</ele>
        <time>1970-01-01T01:51:56.000Z</time>
      </trkpt>
      <trkpt lat="45.43451" lon="4.58259">
        <ele>539.8</ele>
        <time>1970-01-01T01:51:57.000Z</time>
      </trkpt>
      <trkpt lat="45.43455" lon="4.58261">
        <ele>539.8</ele>
        <time>1970-01-01T01:51:59.000Z</time>
      </trkpt>
      <trkpt lat="45.43468" lon="4.5827">
        <ele>539.8</ele>
        <time>1970-01-01T01:52:06.000Z</time>
      </trkpt>
      <trkpt lat="45.43471" lon="4.58274">
        <ele>540.2</ele>
        <time>1970-01-01T01:52:08.000Z</time>
      </trkpt>
      <trkpt lat="45.43472" lon="4.58276">
        <ele>540.6</ele>
        <time>1970-01-01T01:52:09.000Z</time>
      </trkpt>
      <trkpt lat="45.43473" lon="4.58279">
        <ele>541</ele>
        <time>1970-01-01T01:52:10.000Z</time>
      </trkpt>
      <trkpt lat="45.43474" lon="4.58281">
        <ele>541.4</ele>
        <time>1970-01-01T01:52:11.000Z</time>
      </trkpt>
      <trkpt lat="45.43474" lon="4.58284">
        <ele>541.8</ele>
        <time>1970-01-01T01:52:12.000Z</time>
      </trkpt>
      <trkpt lat="45.43475" lon="4.58287">
        <ele>541.8</ele>
        <time>1970-01-01T01:52:13.000Z</time>
      </trkpt>
      <trkpt lat="45.43472" lon="4.583">
        <ele>542.2</ele>
        <time>1970-01-01T01:52:18.000Z</time>
      </trkpt>
      <trkpt lat="45.43471" lon="4.58303">
        <ele>542.6</ele>
        <time>1970-01-01T01:52:19.000Z</time>
      </trkpt>
      <trkpt lat="45.4347" lon="4.58305">
        <ele>543</ele>
        <time>1970-01-01T01:52:20.000Z</time>
      </trkpt>
      <trkpt lat="45.43469" lon="4.58307">
        <ele>543.4</ele>
        <time>1970-01-01T01:52:21.000Z</time>
      </trkpt>
      <trkpt lat="45.43468" lon="4.5831">
        <ele>543.8</ele>
        <time>1970-01-01T01:52:22.000Z</time>
      </trkpt>
      <trkpt lat="45.43461" lon="4.58322">
        <ele>544.8</ele>
        <time>1970-01-01T01:52:28.000Z</time>
      </trkpt>
      <trkpt lat="45.43459" lon="4.58325">
        <ele>545.2</ele>
        <time>1970-01-01T01:52:29.000Z</time>
      </trkpt>
      <trkpt lat="45.43458" lon="4.58327">
        <ele>545.6</ele>
        <time>1970-01-01T01:52:30.000Z</time>
      </trkpt>
      <trkpt lat="45.43457" lon="4.58329">
        <ele>546</ele>
        <time>1970-01-01T01:52:31.000Z</time>
      </trkpt>
      <trkpt lat="45.43449" lon="4.58347">
        <ele>546</ele>
        <time>1970-01-01T01:52:38.000Z</time>
      </trkpt>
      <trkpt lat="45.43447" lon="4.5835">
        <ele>546.4</ele>
        <time>1970-01-01T01:52:39.000Z</time>
      </trkpt>
      <trkpt lat="45.43446" lon="4.58352">
        <ele>546.8</ele>
        <time>1970-01-01T01:52:40.000Z</time>
      </trkpt>
      <trkpt lat="45.43445" lon="4.58355">
        <ele>547.2</ele>
        <time>1970-01-01T01:52:41.000Z</time>
      </trkpt>
      <trkpt lat="45.43444" lon="4.58357">
        <ele>547.8</ele>
        <time>1970-01-01T01:52:42.000Z</time>
      </trkpt>
      <trkpt lat="45.43443" lon="4.58359">
        <ele>548.2</ele>
        <time>1970-01-01T01:52:43.000Z</time>
      </trkpt>
      <trkpt lat="45.43437" lon="4.58373">
        <ele>548.2</ele>
        <time>1970-01-01T01:52:48.000Z</time>
      </trkpt>
      <trkpt lat="45.43432" lon="4.58384">
        <ele>549</ele>
        <time>1970-01-01T01:52:52.000Z</time>
      </trkpt>
      <trkpt lat="45.43431" lon="4.58387">
        <ele>549.4</ele>
        <time>1970-01-01T01:52:53.000Z</time>
      </trkpt>
      <trkpt lat="45.4343" lon="4.5839">
        <ele>549.8</ele>
        <time>1970-01-01T01:52:54.000Z</time>
      </trkpt>
      <trkpt lat="45.43429" lon="4.58393">
        <ele>550.2</ele>
        <time>1970-01-01T01:52:55.000Z</time>
      </trkpt>
      <trkpt lat="45.43425" lon="4.58401">
        <ele>550.2</ele>
        <time>1970-01-01T01:52:58.000Z</time>
      </trkpt>
      <trkpt lat="45.43421" lon="4.58415">
        <ele>550.6</ele>
        <time>1970-01-01T01:53:03.000Z</time>
      </trkpt>
      <trkpt lat="45.4342" lon="4.58417">
        <ele>551</ele>
        <time>1970-01-01T01:53:04.000Z</time>
      </trkpt>
      <trkpt lat="45.43419" lon="4.5842">
        <ele>551.4</ele>
        <time>1970-01-01T01:53:05.000Z</time>
      </trkpt>
      <trkpt lat="45.43419" lon="4.58423">
        <ele>551.8</ele>
        <time>1970-01-01T01:53:06.000Z</time>
      </trkpt>
      <trkpt lat="45.43418" lon="4.58426">
        <ele>552.2</ele>
        <time>1970-01-01T01:53:07.000Z</time>
      </trkpt>
      <trkpt lat="45.43418" lon="4.58428">
        <ele>552.2</ele>
        <time>1970-01-01T01:53:08.000Z</time>
      </trkpt>
      <trkpt lat="45.43416" lon="4.58442">
        <ele>552.8</ele>
        <time>1970-01-01T01:53:13.000Z</time>
      </trkpt>
      <trkpt lat="45.43416" lon="4.58445">
        <ele>553.2</ele>
        <time>1970-01-01T01:53:14.000Z</time>
      </trkpt>
      <trkpt lat="45.43415" lon="4.58448">
        <ele>553.6</ele>
        <time>1970-01-01T01:53:15.000Z</time>
      </trkpt>
      <trkpt lat="45.43415" lon="4.58451">
        <ele>554</ele>
        <time>1970-01-01T01:53:16.000Z</time>
      </trkpt>
      <trkpt lat="45.43415" lon="4.58454">
        <ele>554.6</ele>
        <time>1970-01-01T01:53:17.000Z</time>
      </trkpt>
      <trkpt lat="45.43415" lon="4.58465">
        <ele>555</ele>
        <time>1970-01-01T01:53:21.000Z</time>
      </trkpt>
      <trkpt lat="45.43415" lon="4.58468">
        <ele>555.4</ele>
        <time>1970-01-01T01:53:22.000Z</time>
      </trkpt>
      <trkpt lat="45.43416" lon="4.58471">
        <ele>555.8</ele>
        <time>1970-01-01T01:53:23.000Z</time>
      </trkpt>
      <trkpt lat="45.43416" lon="4.58474">
        <ele>556.2</ele>
        <time>1970-01-01T01:53:24.000Z</time>
      </trkpt>
      <trkpt lat="45.43416" lon="4.58477">
        <ele>556.6</ele>
        <time>1970-01-01T01:53:25.000Z</time>
      </trkpt>
      <trkpt lat="45.43417" lon="4.58497">
        <ele>557</ele>
        <time>1970-01-01T01:53:32.000Z</time>
      </trkpt>
      <trkpt lat="45.43418" lon="4.585">
        <ele>557.4</ele>
        <time>1970-01-01T01:53:33.000Z</time>
      </trkpt>
      <trkpt lat="45.43418" lon="4.58502">
        <ele>557.8</ele>
        <time>1970-01-01T01:53:34.000Z</time>
      </trkpt>
      <trkpt lat="45.43419" lon="4.58505">
        <ele>558.2</ele>
        <time>1970-01-01T01:53:35.000Z</time>
      </trkpt>
      <trkpt lat="45.43419" lon="4.58508">
        <ele>558.6</ele>
        <time>1970-01-01T01:53:36.000Z</time>
      </trkpt>
      <trkpt lat="45.43421" lon="4.58519">
        <ele>558.6</ele>
        <time>1970-01-01T01:53:40.000Z</time>
      </trkpt>
      <trkpt lat="45.43422" lon="4.58522">
        <ele>559.2</ele>
        <time>1970-01-01T01:53:41.000Z</time>
      </trkpt>
      <trkpt lat="45.43422" lon="4.58524">
        <ele>560</ele>
        <time>1970-01-01T01:53:42.000Z</time>
      </trkpt>
      <trkpt lat="45.43423" lon="4.58527">
        <ele>560.4</ele>
        <time>1970-01-01T01:53:43.000Z</time>
      </trkpt>
      <trkpt lat="45.43423" lon="4.5853">
        <ele>561</ele>
        <time>1970-01-01T01:53:44.000Z</time>
      </trkpt>
      <trkpt lat="45.43423" lon="4.58535">
        <ele>561</ele>
        <time>1970-01-01T01:53:46.000Z</time>
      </trkpt>
      <trkpt lat="45.43419" lon="4.58551">
        <ele>561.4</ele>
        <time>1970-01-01T01:53:52.000Z</time>
      </trkpt>
      <trkpt lat="45.43419" lon="4.58554">
        <ele>561.8</ele>
        <time>1970-01-01T01:53:53.000Z</time>
      </trkpt>
      <trkpt lat="45.43418" lon="4.58556">
        <ele>562.2</ele>
        <time>1970-01-01T01:53:54.000Z</time>
      </trkpt>
      <trkpt lat="45.43418" lon="4.58559">
        <ele>562.6</ele>
        <time>1970-01-01T01:53:55.000Z</time>
      </trkpt>
      <trkpt lat="45.43417" lon="4.58562">
        <ele>563</ele>
        <time>1970-01-01T01:53:56.000Z</time>
      </trkpt>
      <trkpt lat="45.43416" lon="4.58568">
        <ele>563</ele>
        <time>1970-01-01T01:53:58.000Z</time>
      </trkpt>
      <trkpt lat="45.43416" lon="4.5857">
        <ele>563.4</ele>
        <time>1970-01-01T01:53:59.000Z</time>
      </trkpt>
      <trkpt lat="45.43415" lon="4.58573">
        <ele>563.8</ele>
        <time>1970-01-01T01:54:00.000Z</time>
      </trkpt>
      <trkpt lat="45.43415" lon="4.58575">
        <ele>564.4</ele>
        <time>1970-01-01T01:54:01.000Z</time>
      </trkpt>
      <trkpt lat="45.43415" lon="4.58578">
        <ele>564.8</ele>
        <time>1970-01-01T01:54:02.000Z</time>
      </trkpt>
      <trkpt lat="45.43414" lon="4.5858">
        <ele>565.2</ele>
        <time>1970-01-01T01:54:03.000Z</time>
      </trkpt>
      <trkpt lat="45.43412" lon="4.58585">
        <ele>565.2</ele>
        <time>1970-01-01T01:54:05.000Z</time>
      </trkpt>
      <trkpt lat="45.43411" lon="4.58589">
        <ele>566.2</ele>
        <time>1970-01-01T01:54:07.000Z</time>
      </trkpt>
      <trkpt lat="45.4341" lon="4.58591">
        <ele>566.6</ele>
        <time>1970-01-01T01:54:08.000Z</time>
      </trkpt>
      <trkpt lat="45.4341" lon="4.58594">
        <ele>567</ele>
        <time>1970-01-01T01:54:09.000Z</time>
      </trkpt>
      <trkpt lat="45.43409" lon="4.58596">
        <ele>567.4</ele>
        <time>1970-01-01T01:54:10.000Z</time>
      </trkpt>
      <trkpt lat="45.43408" lon="4.586">
        <ele>567.4</ele>
        <time>1970-01-01T01:54:12.000Z</time>
      </trkpt>
      <trkpt lat="45.43407" lon="4.58603">
        <ele>568</ele>
        <time>1970-01-01T01:54:13.000Z</time>
      </trkpt>
      <trkpt lat="45.43407" lon="4.58605">
        <ele>568.4</ele>
        <time>1970-01-01T01:54:14.000Z</time>
      </trkpt>
      <trkpt lat="45.43407" lon="4.58608">
        <ele>568.8</ele>
        <time>1970-01-01T01:54:15.000Z</time>
      </trkpt>
      <trkpt lat="45.43406" lon="4.5861">
        <ele>569.2</ele>
        <time>1970-01-01T01:54:16.000Z</time>
      </trkpt>
      <trkpt lat="45.43406" lon="4.58613">
        <ele>569.6</ele>
        <time>1970-01-01T01:54:17.000Z</time>
      </trkpt>
      <trkpt lat="45.43405" lon="4.58618">
        <ele>569.6</ele>
        <time>1970-01-01T01:54:19.000Z</time>
      </trkpt>
      <trkpt lat="45.43403" lon="4.58622">
        <ele>570</ele>
        <time>1970-01-01T01:54:21.000Z</time>
      </trkpt>
      <trkpt lat="45.43403" lon="4.58625">
        <ele>570.4</ele>
        <time>1970-01-01T01:54:22.000Z</time>
      </trkpt>
      <trkpt lat="45.43402" lon="4.58627">
        <ele>570.8</ele>
        <time>1970-01-01T01:54:23.000Z</time>
      </trkpt>
      <trkpt lat="45.43402" lon="4.58629">
        <ele>571.4</ele>
        <time>1970-01-01T01:54:24.000Z</time>
      </trkpt>
      <trkpt lat="45.43401" lon="4.58632">
        <ele>571.8</ele>
        <time>1970-01-01T01:54:25.000Z</time>
      </trkpt>
      <trkpt lat="45.43399" lon="4.58644">
        <ele>572.2</ele>
        <time>1970-01-01T01:54:30.000Z</time>
      </trkpt>
      <trkpt lat="45.43398" lon="4.58646">
        <ele>573</ele>
        <time>1970-01-01T01:54:31.000Z</time>
      </trkpt>
      <trkpt lat="45.43397" lon="4.58648">
        <ele>573.4</ele>
        <time>1970-01-01T01:54:32.000Z</time>
      </trkpt>
      <trkpt lat="45.43397" lon="4.5865">
        <ele>573.8</ele>
        <time>1970-01-01T01:54:33.000Z</time>
      </trkpt>
      <trkpt lat="45.43394" lon="4.58665">
        <ele>574.2</ele>
        <time>1970-01-01T01:54:39.000Z</time>
      </trkpt>
      <trkpt lat="45.43393" lon="4.58667">
        <ele>574.6</ele>
        <time>1970-01-01T01:54:40.000Z</time>
      </trkpt>
      <trkpt lat="45.43392" lon="4.58669">
        <ele>575.2</ele>
        <time>1970-01-01T01:54:41.000Z</time>
      </trkpt>
      <trkpt lat="45.43391" lon="4.58672">
        <ele>575.6</ele>
        <time>1970-01-01T01:54:42.000Z</time>
      </trkpt>
      <trkpt lat="45.43391" lon="4.58675">
        <ele>576</ele>
        <time>1970-01-01T01:54:43.000Z</time>
      </trkpt>
      <trkpt lat="45.43389" lon="4.58682">
        <ele>576</ele>
        <time>1970-01-01T01:54:46.000Z</time>
      </trkpt>
      <trkpt lat="45.43388" lon="4.58687">
        <ele>576.4</ele>
        <time>1970-01-01T01:54:48.000Z</time>
      </trkpt>
      <trkpt lat="45.43388" lon="4.5869">
        <ele>576.8</ele>
        <time>1970-01-01T01:54:49.000Z</time>
      </trkpt>
      <trkpt lat="45.43387" lon="4.58692">
        <ele>577.2</ele>
        <time>1970-01-01T01:54:50.000Z</time>
      </trkpt>
      <trkpt lat="45.43386" lon="4.58695">
        <ele>577.6</ele>
        <time>1970-01-01T01:54:51.000Z</time>
      </trkpt>
      <trkpt lat="45.43386" lon="4.58697">
        <ele>578</ele>
        <time>1970-01-01T01:54:52.000Z</time>
      </trkpt>
      <trkpt lat="45.43385" lon="4.58702">
        <ele>578</ele>
        <time>1970-01-01T01:54:54.000Z</time>
      </trkpt>
      <trkpt lat="45.43384" lon="4.58706">
        <ele>578.6</ele>
        <time>1970-01-01T01:54:56.000Z</time>
      </trkpt>
      <trkpt lat="45.43384" lon="4.58708">
        <ele>579</ele>
        <time>1970-01-01T01:54:57.000Z</time>
      </trkpt>
      <trkpt lat="45.43383" lon="4.58711">
        <ele>579.4</ele>
        <time>1970-01-01T01:54:58.000Z</time>
      </trkpt>
      <trkpt lat="45.43383" lon="4.58713">
        <ele>579.8</ele>
        <time>1970-01-01T01:54:59.000Z</time>
      </trkpt>
      <trkpt lat="45.43382" lon="4.58715">
        <ele>580.2</ele>
        <time>1970-01-01T01:55:00.000Z</time>
      </trkpt>
      <trkpt lat="45.43382" lon="4.58718">
        <ele>580.2</ele>
        <time>1970-01-01T01:55:01.000Z</time>
      </trkpt>
      <trkpt lat="45.4338" lon="4.5873">
        <ele>580.8</ele>
        <time>1970-01-01T01:55:06.000Z</time>
      </trkpt>
      <trkpt lat="45.4338" lon="4.58732">
        <ele>581.2</ele>
        <time>1970-01-01T01:55:07.000Z</time>
      </trkpt>
      <trkpt lat="45.4338" lon="4.58735">
        <ele>581.6</ele>
        <time>1970-01-01T01:55:08.000Z</time>
      </trkpt>
      <trkpt lat="45.43379" lon="4.58737">
        <ele>582</ele>
        <time>1970-01-01T01:55:09.000Z</time>
      </trkpt>
      <trkpt lat="45.43379" lon="4.58739">
        <ele>582.4</ele>
        <time>1970-01-01T01:55:10.000Z</time>
      </trkpt>
      <trkpt lat="45.43377" lon="4.58755">
        <ele>582.4</ele>
        <time>1970-01-01T01:55:17.000Z</time>
      </trkpt>
      <trkpt lat="45.43376" lon="4.58762">
        <ele>582.8</ele>
        <time>1970-01-01T01:55:20.000Z</time>
      </trkpt>
      <trkpt lat="45.43376" lon="4.58764">
        <ele>583.2</ele>
        <time>1970-01-01T01:55:21.000Z</time>
      </trkpt>
      <trkpt lat="45.43375" lon="4.58767">
        <ele>583.6</ele>
        <time>1970-01-01T01:55:22.000Z</time>
      </trkpt>
      <trkpt lat="45.43375" lon="4.58769">
        <ele>584</ele>
        <time>1970-01-01T01:55:23.000Z</time>
      </trkpt>
      <trkpt lat="45.43374" lon="4.58772">
        <ele>584.4</ele>
        <time>1970-01-01T01:55:24.000Z</time>
      </trkpt>
      <trkpt lat="45.43374" lon="4.58774">
        <ele>584.4</ele>
        <time>1970-01-01T01:55:25.000Z</time>
      </trkpt>
      <trkpt lat="45.43372" lon="4.58786">
        <ele>584.8</ele>
        <time>1970-01-01T01:55:30.000Z</time>
      </trkpt>
      <trkpt lat="45.43371" lon="4.58788">
        <ele>585.2</ele>
        <time>1970-01-01T01:55:31.000Z</time>
      </trkpt>
      <trkpt lat="45.43371" lon="4.58791">
        <ele>585.6</ele>
        <time>1970-01-01T01:55:32.000Z</time>
      </trkpt>
      <trkpt lat="45.4337" lon="4.58793">
        <ele>586</ele>
        <time>1970-01-01T01:55:33.000Z</time>
      </trkpt>
      <trkpt lat="45.4337" lon="4.58796">
        <ele>586.4</ele>
        <time>1970-01-01T01:55:34.000Z</time>
      </trkpt>
      <trkpt lat="45.43368" lon="4.58809">
        <ele>586.8</ele>
        <time>1970-01-01T01:55:39.000Z</time>
      </trkpt>
      <trkpt lat="45.43368" lon="4.58811">
        <ele>587.2</ele>
        <time>1970-01-01T01:55:40.000Z</time>
      </trkpt>
      <trkpt lat="45.43367" lon="4.58814">
        <ele>587.8</ele>
        <time>1970-01-01T01:55:41.000Z</time>
      </trkpt>
      <trkpt lat="45.43367" lon="4.58816">
        <ele>588.2</ele>
        <time>1970-01-01T01:55:42.000Z</time>
      </trkpt>
      <trkpt lat="45.43367" lon="4.58819">
        <ele>588.6</ele>
        <time>1970-01-01T01:55:43.000Z</time>
      </trkpt>
      <trkpt lat="45.43365" lon="4.58829">
        <ele>589</ele>
        <time>1970-01-01T01:55:48.000Z</time>
      </trkpt>
      <trkpt lat="45.43365" lon="4.58832">
        <ele>589.4</ele>
        <time>1970-01-01T01:55:49.000Z</time>
      </trkpt>
      <trkpt lat="45.43364" lon="4.58834">
        <ele>589.8</ele>
        <time>1970-01-01T01:55:50.000Z</time>
      </trkpt>
      <trkpt lat="45.43364" lon="4.58836">
        <ele>590.2</ele>
        <time>1970-01-01T01:55:51.000Z</time>
      </trkpt>
      <trkpt lat="45.43363" lon="4.58839">
        <ele>590.8</ele>
        <time>1970-01-01T01:55:52.000Z</time>
      </trkpt>
      <trkpt lat="45.43359" lon="4.58857">
        <ele>590.8</ele>
        <time>1970-01-01T01:55:59.000Z</time>
      </trkpt>
      <trkpt lat="45.43359" lon="4.58859">
        <ele>591.2</ele>
        <time>1970-01-01T01:56:00.000Z</time>
      </trkpt>
      <trkpt lat="45.43358" lon="4.58861">
        <ele>591.6</ele>
        <time>1970-01-01T01:56:01.000Z</time>
      </trkpt>
      <trkpt lat="45.43358" lon="4.58864">
        <ele>592</ele>
        <time>1970-01-01T01:56:02.000Z</time>
      </trkpt>
      <trkpt lat="45.43357" lon="4.58866">
        <ele>592.8</ele>
        <time>1970-01-01T01:56:03.000Z</time>
      </trkpt>
      <trkpt lat="45.43355" lon="4.58873">
        <ele>592.8</ele>
        <time>1970-01-01T01:56:06.000Z</time>
      </trkpt>
      <trkpt lat="45.43352" lon="4.58881">
        <ele>593.2</ele>
        <time>1970-01-01T01:56:10.000Z</time>
      </trkpt>
      <trkpt lat="45.43351" lon="4.58883">
        <ele>593.6</ele>
        <time>1970-01-01T01:56:11.000Z</time>
      </trkpt>
      <trkpt lat="45.43351" lon="4.58885">
        <ele>594</ele>
        <time>1970-01-01T01:56:12.000Z</time>
      </trkpt>
      <trkpt lat="45.4335" lon="4.58887">
        <ele>594.6</ele>
        <time>1970-01-01T01:56:13.000Z</time>
      </trkpt>
      <trkpt lat="45.43349" lon="4.58889">
        <ele>595</ele>
        <time>1970-01-01T01:56:14.000Z</time>
      </trkpt>
      <trkpt lat="45.43345" lon="4.58901">
        <ele>595</ele>
        <time>1970-01-01T01:56:20.000Z</time>
      </trkpt>
      <trkpt lat="45.43343" lon="4.58906">
        <ele>595.4</ele>
        <time>1970-01-01T01:56:22.000Z</time>
      </trkpt>
      <trkpt lat="45.43343" lon="4.58908">
        <ele>595.8</ele>
        <time>1970-01-01T01:56:23.000Z</time>
      </trkpt>
      <trkpt lat="45.43342" lon="4.58911">
        <ele>596.2</ele>
        <time>1970-01-01T01:56:24.000Z</time>
      </trkpt>
      <trkpt lat="45.43341" lon="4.58913">
        <ele>596.6</ele>
        <time>1970-01-01T01:56:25.000Z</time>
      </trkpt>
      <trkpt lat="45.4334" lon="4.58916">
        <ele>597</ele>
        <time>1970-01-01T01:56:26.000Z</time>
      </trkpt>
      <trkpt lat="45.43339" lon="4.5892">
        <ele>597</ele>
        <time>1970-01-01T01:56:28.000Z</time>
      </trkpt>
      <trkpt lat="45.43335" lon="4.58935">
        <ele>597.4</ele>
        <time>1970-01-01T01:56:34.000Z</time>
      </trkpt>
      <trkpt lat="45.43335" lon="4.58937">
        <ele>597.8</ele>
        <time>1970-01-01T01:56:35.000Z</time>
      </trkpt>
      <trkpt lat="45.43334" lon="4.58939">
        <ele>598.2</ele>
        <time>1970-01-01T01:56:36.000Z</time>
      </trkpt>
      <trkpt lat="45.43333" lon="4.58942">
        <ele>598.6</ele>
        <time>1970-01-01T01:56:37.000Z</time>
      </trkpt>
      <trkpt lat="45.43333" lon="4.58944">
        <ele>599</ele>
        <time>1970-01-01T01:56:38.000Z</time>
      </trkpt>
      <trkpt lat="45.4333" lon="4.58955">
        <ele>599</ele>
        <time>1970-01-01T01:56:43.000Z</time>
      </trkpt>
      <trkpt lat="45.43327" lon="4.58963">
        <ele>599.4</ele>
        <time>1970-01-01T01:56:46.000Z</time>
      </trkpt>
      <trkpt lat="45.43327" lon="4.58965">
        <ele>599.8</ele>
        <time>1970-01-01T01:56:47.000Z</time>
      </trkpt>
      <trkpt lat="45.43326" lon="4.58967">
        <ele>600.4</ele>
        <time>1970-01-01T01:56:48.000Z</time>
      </trkpt>
      <trkpt lat="45.43325" lon="4.58969">
        <ele>600.8</ele>
        <time>1970-01-01T01:56:49.000Z</time>
      </trkpt>
      <trkpt lat="45.43325" lon="4.58971">
        <ele>601.2</ele>
        <time>1970-01-01T01:56:50.000Z</time>
      </trkpt>
      <trkpt lat="45.43322" lon="4.58982">
        <ele>601.6</ele>
        <time>1970-01-01T01:56:55.000Z</time>
      </trkpt>
      <trkpt lat="45.43321" lon="4.58984">
        <ele>602</ele>
        <time>1970-01-01T01:56:56.000Z</time>
      </trkpt>
      <trkpt lat="45.4332" lon="4.58986">
        <ele>602.4</ele>
        <time>1970-01-01T01:56:57.000Z</time>
      </trkpt>
      <trkpt lat="45.4332" lon="4.58987">
        <ele>603</ele>
        <time>1970-01-01T01:56:58.000Z</time>
      </trkpt>
      <trkpt lat="45.43319" lon="4.58989">
        <ele>603.4</ele>
        <time>1970-01-01T01:56:59.000Z</time>
      </trkpt>
      <trkpt lat="45.43317" lon="4.58992">
        <ele>603.4</ele>
        <time>1970-01-01T01:57:01.000Z</time>
      </trkpt>
      <trkpt lat="45.43315" lon="4.59005">
        <ele>603.4</ele>
        <time>1970-01-01T01:57:07.000Z</time>
      </trkpt>
      <trkpt lat="45.43312" lon="4.59018">
        <ele>603.4</ele>
        <time>1970-01-01T01:57:13.000Z</time>
      </trkpt>
      <trkpt lat="45.4331" lon="4.59028">
        <ele>603.4</ele>
        <time>1970-01-01T01:57:19.000Z</time>
      </trkpt>
      <trkpt lat="45.43309" lon="4.5903">
        <ele>603.4</ele>
        <time>1970-01-01T01:57:20.000Z</time>
      </trkpt>
      <trkpt lat="45.43305" lon="4.59044">
        <ele>603.8</ele>
        <time>1970-01-01T01:57:27.000Z</time>
      </trkpt>
      <trkpt lat="45.43304" lon="4.59046">
        <ele>604.2</ele>
        <time>1970-01-01T01:57:28.000Z</time>
      </trkpt>
      <trkpt lat="45.43304" lon="4.59048">
        <ele>604.6</ele>
        <time>1970-01-01T01:57:29.000Z</time>
      </trkpt>
      <trkpt lat="45.43304" lon="4.5905">
        <ele>605.2</ele>
        <time>1970-01-01T01:57:30.000Z</time>
      </trkpt>
      <trkpt lat="45.43304" lon="4.59053">
        <ele>605.6</ele>
        <time>1970-01-01T01:57:31.000Z</time>
      </trkpt>
      <trkpt lat="45.43303" lon="4.59062">
        <ele>605.6</ele>
        <time>1970-01-01T01:57:35.000Z</time>
      </trkpt>
      <trkpt lat="45.43301" lon="4.59071">
        <ele>605.6</ele>
        <time>1970-01-01T01:57:39.000Z</time>
      </trkpt>
      <trkpt lat="45.43301" lon="4.59078">
        <ele>606.6</ele>
        <time>1970-01-01T01:57:42.000Z</time>
      </trkpt>
      <trkpt lat="45.43301" lon="4.59081">
        <ele>607</ele>
        <time>1970-01-01T01:57:43.000Z</time>
      </trkpt>
      <trkpt lat="45.43302" lon="4.59083">
        <ele>607.4</ele>
        <time>1970-01-01T01:57:44.000Z</time>
      </trkpt>
      <trkpt lat="45.43303" lon="4.59085">
        <ele>608</ele>
        <time>1970-01-01T01:57:45.000Z</time>
      </trkpt>
      <trkpt lat="45.43304" lon="4.59096">
        <ele>608</ele>
        <time>1970-01-01T01:57:49.000Z</time>
      </trkpt>
      <trkpt lat="45.43312" lon="4.59105">
        <ele>608</ele>
        <time>1970-01-01T01:57:54.000Z</time>
      </trkpt>
      <trkpt lat="45.4332" lon="4.59123">
        <ele>608</ele>
        <time>1970-01-01T01:58:00.000Z</time>
      </trkpt>
      <trkpt lat="45.4333" lon="4.5915">
        <ele>608</ele>
        <time>1970-01-01T01:58:07.000Z</time>
      </trkpt>
      <trkpt lat="45.43337" lon="4.59168">
        <ele>608</ele>
        <time>1970-01-01T01:58:12.000Z</time>
      </trkpt>
      <trkpt lat="45.43346" lon="4.59187">
        <ele>608</ele>
        <time>1970-01-01T01:58:19.000Z</time>
      </trkpt>
      <trkpt lat="45.43357" lon="4.59205">
        <ele>608</ele>
        <time>1970-01-01T01:58:25.000Z</time>
      </trkpt>
      <trkpt lat="45.43368" lon="4.59225">
        <ele>608</ele>
        <time>1970-01-01T01:58:31.000Z</time>
      </trkpt>
      <trkpt lat="45.43378" lon="4.59247">
        <ele>608</ele>
        <time>1970-01-01T01:58:37.000Z</time>
      </trkpt>
      <trkpt lat="45.43394" lon="4.59277">
        <ele>608</ele>
        <time>1970-01-01T01:58:44.000Z</time>
      </trkpt>
      <trkpt lat="45.43405" lon="4.59306">
        <ele>608</ele>
        <time>1970-01-01T01:58:50.000Z</time>
      </trkpt>
      <trkpt lat="45.43411" lon="4.59329">
        <ele>608</ele>
        <time>1970-01-01T01:58:55.000Z</time>
      </trkpt>
      <trkpt lat="45.43418" lon="4.59358">
        <ele>608</ele>
        <time>1970-01-01T01:59:01.000Z</time>
      </trkpt>
      <trkpt lat="45.43428" lon="4.59382">
        <ele>608</ele>
        <time>1970-01-01T01:59:06.000Z</time>
      </trkpt>
      <trkpt lat="45.43434" lon="4.59403">
        <ele>608</ele>
        <time>1970-01-01T01:59:10.000Z</time>
      </trkpt>
      <trkpt lat="45.43439" lon="4.59424">
        <ele>608</ele>
        <time>1970-01-01T01:59:13.000Z</time>
      </trkpt>
      <trkpt lat="45.43446" lon="4.59439">
        <ele>608</ele>
        <time>1970-01-01T01:59:15.000Z</time>
      </trkpt>
      <trkpt lat="45.43458" lon="4.59476">
        <ele>607.4</ele>
        <time>1970-01-01T01:59:19.000Z</time>
      </trkpt>
      <trkpt lat="45.43461" lon="4.59486">
        <ele>607</ele>
        <time>1970-01-01T01:59:20.000Z</time>
      </trkpt>
      <trkpt lat="45.43464" lon="4.59496">
        <ele>606.4</ele>
        <time>1970-01-01T01:59:21.000Z</time>
      </trkpt>
      <trkpt lat="45.43466" lon="4.59507">
        <ele>605.6</ele>
        <time>1970-01-01T01:59:22.000Z</time>
      </trkpt>
      <trkpt lat="45.43487" lon="4.5955">
        <ele>605.6</ele>
        <time>1970-01-01T01:59:27.000Z</time>
      </trkpt>
      <trkpt lat="45.43489" lon="4.59558">
        <ele>605</ele>
        <time>1970-01-01T01:59:28.000Z</time>
      </trkpt>
      <trkpt lat="45.43491" lon="4.59566">
        <ele>604.6</ele>
        <time>1970-01-01T01:59:29.000Z</time>
      </trkpt>
      <trkpt lat="45.43493" lon="4.59575">
        <ele>604.2</ele>
        <time>1970-01-01T01:59:30.000Z</time>
      </trkpt>
      <trkpt lat="45.43495" lon="4.59582">
        <ele>603.8</ele>
        <time>1970-01-01T01:59:31.000Z</time>
      </trkpt>
      <trkpt lat="45.43496" lon="4.5959">
        <ele>603.2</ele>
        <time>1970-01-01T01:59:32.000Z</time>
      </trkpt>
      <trkpt lat="45.43498" lon="4.59599">
        <ele>603.2</ele>
        <time>1970-01-01T01:59:33.000Z</time>
      </trkpt>
      <trkpt lat="45.43503" lon="4.59633">
        <ele>602.8</ele>
        <time>1970-01-01T01:59:37.000Z</time>
      </trkpt>
      <trkpt lat="45.43504" lon="4.59642">
        <ele>602.4</ele>
        <time>1970-01-01T01:59:38.000Z</time>
      </trkpt>
      <trkpt lat="45.43504" lon="4.59651">
        <ele>601.8</ele>
        <time>1970-01-01T01:59:39.000Z</time>
      </trkpt>
      <trkpt lat="45.43505" lon="4.59661">
        <ele>601.4</ele>
        <time>1970-01-01T01:59:40.000Z</time>
      </trkpt>
      <trkpt lat="45.43505" lon="4.59668">
        <ele>601</ele>
        <time>1970-01-01T01:59:41.000Z</time>
      </trkpt>
      <trkpt lat="45.43506" lon="4.59681">
        <ele>601</ele>
        <time>1970-01-01T01:59:43.000Z</time>
      </trkpt>
      <trkpt lat="45.43508" lon="4.59693">
        <ele>601</ele>
        <time>1970-01-01T01:59:45.000Z</time>
      </trkpt>
      <trkpt lat="45.43509" lon="4.59698">
        <ele>601</ele>
        <time>1970-01-01T01:59:46.000Z</time>
      </trkpt>
      <trkpt lat="45.43514" lon="4.5972">
        <ele>601</ele>
        <time>1970-01-01T01:59:50.000Z</time>
      </trkpt>
      <trkpt lat="45.43519" lon="4.59765">
        <ele>601</ele>
        <time>1970-01-01T01:59:58.000Z</time>
      </trkpt>
      <trkpt lat="45.43524" lon="4.59787">
        <ele>601</ele>
        <time>1970-01-01T02:00:02.000Z</time>
      </trkpt>
      <trkpt lat="45.43533" lon="4.59815">
        <ele>601</ele>
        <time>1970-01-01T02:00:08.000Z</time>
      </trkpt>
      <trkpt lat="45.43539" lon="4.59829">
        <ele>601.4</ele>
        <time>1970-01-01T02:00:11.000Z</time>
      </trkpt>
      <trkpt lat="45.43541" lon="4.59833">
        <ele>602.2</ele>
        <time>1970-01-01T02:00:12.000Z</time>
      </trkpt>
      <trkpt lat="45.43544" lon="4.59837">
        <ele>602.6</ele>
        <time>1970-01-01T02:00:13.000Z</time>
      </trkpt>
      <trkpt lat="45.43546" lon="4.59841">
        <ele>603</ele>
        <time>1970-01-01T02:00:14.000Z</time>
      </trkpt>
      <trkpt lat="45.43557" lon="4.59866">
        <ele>603</ele>
        <time>1970-01-01T02:00:20.000Z</time>
      </trkpt>
      <trkpt lat="45.43564" lon="4.59878">
        <ele>603.4</ele>
        <time>1970-01-01T02:00:23.000Z</time>
      </trkpt>
      <trkpt lat="45.43566" lon="4.59882">
        <ele>603.8</ele>
        <time>1970-01-01T02:00:24.000Z</time>
      </trkpt>
      <trkpt lat="45.43568" lon="4.59886">
        <ele>604.4</ele>
        <time>1970-01-01T02:00:25.000Z</time>
      </trkpt>
      <trkpt lat="45.43569" lon="4.59889">
        <ele>604.8</ele>
        <time>1970-01-01T02:00:26.000Z</time>
      </trkpt>
      <trkpt lat="45.43571" lon="4.59893">
        <ele>605.2</ele>
        <time>1970-01-01T02:00:27.000Z</time>
      </trkpt>
      <trkpt lat="45.43576" lon="4.59907">
        <ele>605.2</ele>
        <time>1970-01-01T02:00:31.000Z</time>
      </trkpt>
      <trkpt lat="45.43582" lon="4.59925">
        <ele>606</ele>
        <time>1970-01-01T02:00:36.000Z</time>
      </trkpt>
      <trkpt lat="45.43583" lon="4.59929">
        <ele>606.4</ele>
        <time>1970-01-01T02:00:37.000Z</time>
      </trkpt>
      <trkpt lat="45.43584" lon="4.59932">
        <ele>606.8</ele>
        <time>1970-01-01T02:00:38.000Z</time>
      </trkpt>
      <trkpt lat="45.43586" lon="4.59935">
        <ele>607.2</ele>
        <time>1970-01-01T02:00:39.000Z</time>
      </trkpt>
      <trkpt lat="45.4359" lon="4.59944">
        <ele>607.2</ele>
        <time>1970-01-01T02:00:42.000Z</time>
      </trkpt>
      <trkpt lat="45.43604" lon="4.5996">
        <ele>607.8</ele>
        <time>1970-01-01T02:00:48.000Z</time>
      </trkpt>
      <trkpt lat="45.43607" lon="4.59962">
        <ele>608.2</ele>
        <time>1970-01-01T02:00:49.000Z</time>
      </trkpt>
      <trkpt lat="45.43608" lon="4.59965">
        <ele>608.6</ele>
        <time>1970-01-01T02:00:50.000Z</time>
      </trkpt>
      <trkpt lat="45.43611" lon="4.59967">
        <ele>609</ele>
        <time>1970-01-01T02:00:51.000Z</time>
      </trkpt>
      <trkpt lat="45.43613" lon="4.59969">
        <ele>609.4</ele>
        <time>1970-01-01T02:00:52.000Z</time>
      </trkpt>
      <trkpt lat="45.4362" lon="4.59976">
        <ele>609.4</ele>
        <time>1970-01-01T02:00:55.000Z</time>
      </trkpt>
      <trkpt lat="45.43621" lon="4.59978">
        <ele>609.4</ele>
        <time>1970-01-01T02:00:56.000Z</time>
      </trkpt>
      <trkpt lat="45.43627" lon="4.59985">
        <ele>609.4</ele>
        <time>1970-01-01T02:00:59.000Z</time>
      </trkpt>
      <trkpt lat="45.43628" lon="4.59987">
        <ele>610.4</ele>
        <time>1970-01-01T02:01:00.000Z</time>
      </trkpt>
      <trkpt lat="45.43629" lon="4.59989">
        <ele>610.8</ele>
        <time>1970-01-01T02:01:01.000Z</time>
      </trkpt>
      <trkpt lat="45.43631" lon="4.5999">
        <ele>611.2</ele>
        <time>1970-01-01T02:01:02.000Z</time>
      </trkpt>
      <trkpt lat="45.43633" lon="4.59991">
        <ele>611.6</ele>
        <time>1970-01-01T02:01:03.000Z</time>
      </trkpt>
      <trkpt lat="45.43637" lon="4.59994">
        <ele>611.6</ele>
        <time>1970-01-01T02:01:05.000Z</time>
      </trkpt>
      <trkpt lat="45.4364" lon="4.60001">
        <ele>612</ele>
        <time>1970-01-01T02:01:08.000Z</time>
      </trkpt>
      <trkpt lat="45.43641" lon="4.60003">
        <ele>612.6</ele>
        <time>1970-01-01T02:01:09.000Z</time>
      </trkpt>
      <trkpt lat="45.43643" lon="4.60005">
        <ele>613</ele>
        <time>1970-01-01T02:01:10.000Z</time>
      </trkpt>
      <trkpt lat="45.43645" lon="4.60007">
        <ele>613.4</ele>
        <time>1970-01-01T02:01:11.000Z</time>
      </trkpt>
      <trkpt lat="45.43654" lon="4.6001">
        <ele>613.8</ele>
        <time>1970-01-01T02:01:12.000Z</time>
      </trkpt>
      <trkpt lat="45.43664" lon="4.60013">
        <ele>613.8</ele>
        <time>1970-01-01T02:01:13.000Z</time>
      </trkpt>
      <trkpt lat="45.4367" lon="4.60016">
        <ele>613.8</ele>
        <time>1970-01-01T02:01:15.000Z</time>
      </trkpt>
      <trkpt lat="45.43672" lon="4.60019">
        <ele>613.8</ele>
        <time>1970-01-01T02:01:16.000Z</time>
      </trkpt>
      <trkpt lat="45.43676" lon="4.60024">
        <ele>613.8</ele>
        <time>1970-01-01T02:01:18.000Z</time>
      </trkpt>
      <trkpt lat="45.43678" lon="4.60026">
        <ele>613.8</ele>
        <time>1970-01-01T02:01:19.000Z</time>
      </trkpt>
      <trkpt lat="45.4368" lon="4.60028">
        <ele>614.2</ele>
        <time>1970-01-01T02:01:20.000Z</time>
      </trkpt>
      <trkpt lat="45.43681" lon="4.6003">
        <ele>614.6</ele>
        <time>1970-01-01T02:01:21.000Z</time>
      </trkpt>
      <trkpt lat="45.43682" lon="4.60032">
        <ele>615.2</ele>
        <time>1970-01-01T02:01:22.000Z</time>
      </trkpt>
      <trkpt lat="45.43684" lon="4.60034">
        <ele>615.6</ele>
        <time>1970-01-01T02:01:23.000Z</time>
      </trkpt>
      <trkpt lat="45.43686" lon="4.60037">
        <ele>616</ele>
        <time>1970-01-01T02:01:24.000Z</time>
      </trkpt>
      <trkpt lat="45.43696" lon="4.60046">
        <ele>616.4</ele>
        <time>1970-01-01T02:01:29.000Z</time>
      </trkpt>
      <trkpt lat="45.43699" lon="4.60048">
        <ele>616.8</ele>
        <time>1970-01-01T02:01:30.000Z</time>
      </trkpt>
      <trkpt lat="45.43701" lon="4.6005">
        <ele>617.2</ele>
        <time>1970-01-01T02:01:31.000Z</time>
      </trkpt>
      <trkpt lat="45.43704" lon="4.60052">
        <ele>617.6</ele>
        <time>1970-01-01T02:01:32.000Z</time>
      </trkpt>
      <trkpt lat="45.43706" lon="4.60053">
        <ele>618</ele>
        <time>1970-01-01T02:01:33.000Z</time>
      </trkpt>
      <trkpt lat="45.43714" lon="4.60056">
        <ele>618</ele>
        <time>1970-01-01T02:01:37.000Z</time>
      </trkpt>
      <trkpt lat="45.43717" lon="4.60057">
        <ele>618.4</ele>
        <time>1970-01-01T02:01:38.000Z</time>
      </trkpt>
      <trkpt lat="45.43719" lon="4.60059">
        <ele>618.8</ele>
        <time>1970-01-01T02:01:39.000Z</time>
      </trkpt>
      <trkpt lat="45.43721" lon="4.60061">
        <ele>619.2</ele>
        <time>1970-01-01T02:01:40.000Z</time>
      </trkpt>
      <trkpt lat="45.43723" lon="4.60063">
        <ele>619.6</ele>
        <time>1970-01-01T02:01:41.000Z</time>
      </trkpt>
      <trkpt lat="45.43726" lon="4.60065">
        <ele>620</ele>
        <time>1970-01-01T02:01:42.000Z</time>
      </trkpt>
      <trkpt lat="45.43742" lon="4.6008">
        <ele>620</ele>
        <time>1970-01-01T02:01:50.000Z</time>
      </trkpt>
      <trkpt lat="45.43751" lon="4.60088">
        <ele>620.4</ele>
        <time>1970-01-01T02:01:54.000Z</time>
      </trkpt>
      <trkpt lat="45.43753" lon="4.6009">
        <ele>620.8</ele>
        <time>1970-01-01T02:01:55.000Z</time>
      </trkpt>
      <trkpt lat="45.43755" lon="4.60093">
        <ele>621.2</ele>
        <time>1970-01-01T02:01:56.000Z</time>
      </trkpt>
      <trkpt lat="45.43757" lon="4.60095">
        <ele>621.6</ele>
        <time>1970-01-01T02:01:57.000Z</time>
      </trkpt>
      <trkpt lat="45.43758" lon="4.60098">
        <ele>622</ele>
        <time>1970-01-01T02:01:58.000Z</time>
      </trkpt>
      <trkpt lat="45.43767" lon="4.6011">
        <ele>622</ele>
        <time>1970-01-01T02:02:03.000Z</time>
      </trkpt>
      <trkpt lat="45.43768" lon="4.60112">
        <ele>622.4</ele>
        <time>1970-01-01T02:02:04.000Z</time>
      </trkpt>
      <trkpt lat="45.4377" lon="4.60115">
        <ele>622.8</ele>
        <time>1970-01-01T02:02:05.000Z</time>
      </trkpt>
      <trkpt lat="45.43771" lon="4.60117">
        <ele>623.2</ele>
        <time>1970-01-01T02:02:06.000Z</time>
      </trkpt>
      <trkpt lat="45.43772" lon="4.6012">
        <ele>623.8</ele>
        <time>1970-01-01T02:02:07.000Z</time>
      </trkpt>
      <trkpt lat="45.43773" lon="4.60124">
        <ele>624.2</ele>
        <time>1970-01-01T02:02:08.000Z</time>
      </trkpt>
      <trkpt lat="45.43774" lon="4.60131">
        <ele>624.2</ele>
        <time>1970-01-01T02:02:10.000Z</time>
      </trkpt>
      <trkpt lat="45.43775" lon="4.60136">
        <ele>624.6</ele>
        <time>1970-01-01T02:02:11.000Z</time>
      </trkpt>
      <trkpt lat="45.43775" lon="4.60139">
        <ele>625</ele>
        <time>1970-01-01T02:02:12.000Z</time>
      </trkpt>
      <trkpt lat="45.43776" lon="4.60142">
        <ele>625.4</ele>
        <time>1970-01-01T02:02:13.000Z</time>
      </trkpt>
      <trkpt lat="45.43777" lon="4.60144">
        <ele>626.4</ele>
        <time>1970-01-01T02:02:14.000Z</time>
      </trkpt>
      <trkpt lat="45.43777" lon="4.60147">
        <ele>626.4</ele>
        <time>1970-01-01T02:02:15.000Z</time>
      </trkpt>
      <trkpt lat="45.43778" lon="4.60149">
        <ele>626.8</ele>
        <time>1970-01-01T02:02:16.000Z</time>
      </trkpt>
      <trkpt lat="45.43779" lon="4.60152">
        <ele>627.2</ele>
        <time>1970-01-01T02:02:17.000Z</time>
      </trkpt>
      <trkpt lat="45.4378" lon="4.60154">
        <ele>627.8</ele>
        <time>1970-01-01T02:02:18.000Z</time>
      </trkpt>
      <trkpt lat="45.43781" lon="4.60157">
        <ele>628.2</ele>
        <time>1970-01-01T02:02:19.000Z</time>
      </trkpt>
      <trkpt lat="45.43781" lon="4.6016">
        <ele>628.8</ele>
        <time>1970-01-01T02:02:20.000Z</time>
      </trkpt>
      <trkpt lat="45.43783" lon="4.60165">
        <ele>629.2</ele>
        <time>1970-01-01T02:02:22.000Z</time>
      </trkpt>
      <trkpt lat="45.43784" lon="4.60167">
        <ele>629.6</ele>
        <time>1970-01-01T02:02:23.000Z</time>
      </trkpt>
      <trkpt lat="45.43785" lon="4.6017">
        <ele>630</ele>
        <time>1970-01-01T02:02:24.000Z</time>
      </trkpt>
      <trkpt lat="45.43786" lon="4.60174">
        <ele>630.6</ele>
        <time>1970-01-01T02:02:25.000Z</time>
      </trkpt>
      <trkpt lat="45.43786" lon="4.60177">
        <ele>631</ele>
        <time>1970-01-01T02:02:26.000Z</time>
      </trkpt>
      <trkpt lat="45.43786" lon="4.6018">
        <ele>631</ele>
        <time>1970-01-01T02:02:27.000Z</time>
      </trkpt>
      <trkpt lat="45.43788" lon="4.60189">
        <ele>631.4</ele>
        <time>1970-01-01T02:02:30.000Z</time>
      </trkpt>
      <trkpt lat="45.43789" lon="4.60192">
        <ele>632</ele>
        <time>1970-01-01T02:02:31.000Z</time>
      </trkpt>
      <trkpt lat="45.43789" lon="4.60195">
        <ele>632.4</ele>
        <time>1970-01-01T02:02:32.000Z</time>
      </trkpt>
      <trkpt lat="45.4379" lon="4.60198">
        <ele>632.8</ele>
        <time>1970-01-01T02:02:33.000Z</time>
      </trkpt>
      <trkpt lat="45.43791" lon="4.60201">
        <ele>633.2</ele>
        <time>1970-01-01T02:02:34.000Z</time>
      </trkpt>
      <trkpt lat="45.43792" lon="4.60213">
        <ele>633.8</ele>
        <time>1970-01-01T02:02:38.000Z</time>
      </trkpt>
      <trkpt lat="45.43792" lon="4.60216">
        <ele>634.6</ele>
        <time>1970-01-01T02:02:39.000Z</time>
      </trkpt>
      <trkpt lat="45.43791" lon="4.60219">
        <ele>635</ele>
        <time>1970-01-01T02:02:40.000Z</time>
      </trkpt>
      <trkpt lat="45.43791" lon="4.60222">
        <ele>635.4</ele>
        <time>1970-01-01T02:02:41.000Z</time>
      </trkpt>
      <trkpt lat="45.43789" lon="4.60233">
        <ele>635.8</ele>
        <time>1970-01-01T02:02:45.000Z</time>
      </trkpt>
      <trkpt lat="45.43788" lon="4.60236">
        <ele>636.2</ele>
        <time>1970-01-01T02:02:46.000Z</time>
      </trkpt>
      <trkpt lat="45.43787" lon="4.60239">
        <ele>636.6</ele>
        <time>1970-01-01T02:02:47.000Z</time>
      </trkpt>
      <trkpt lat="45.43786" lon="4.60241">
        <ele>637</ele>
        <time>1970-01-01T02:02:48.000Z</time>
      </trkpt>
      <trkpt lat="45.43785" lon="4.60243">
        <ele>637.4</ele>
        <time>1970-01-01T02:02:49.000Z</time>
      </trkpt>
      <trkpt lat="45.43782" lon="4.6025">
        <ele>638</ele>
        <time>1970-01-01T02:02:52.000Z</time>
      </trkpt>
      <trkpt lat="45.43781" lon="4.60253">
        <ele>638.4</ele>
        <time>1970-01-01T02:02:53.000Z</time>
      </trkpt>
      <trkpt lat="45.4378" lon="4.60255">
        <ele>638.8</ele>
        <time>1970-01-01T02:02:54.000Z</time>
      </trkpt>
      <trkpt lat="45.43779" lon="4.60257">
        <ele>639.2</ele>
        <time>1970-01-01T02:02:55.000Z</time>
      </trkpt>
      <trkpt lat="45.43779" lon="4.60258">
        <ele>639.8</ele>
        <time>1970-01-01T02:02:56.000Z</time>
      </trkpt>
      <trkpt lat="45.43778" lon="4.60261">
        <ele>640.2</ele>
        <time>1970-01-01T02:02:57.000Z</time>
      </trkpt>
      <trkpt lat="45.43778" lon="4.60262">
        <ele>640.6</ele>
        <time>1970-01-01T02:02:58.000Z</time>
      </trkpt>
      <trkpt lat="45.43777" lon="4.60264">
        <ele>641</ele>
        <time>1970-01-01T02:02:59.000Z</time>
      </trkpt>
      <trkpt lat="45.43777" lon="4.60266">
        <ele>641.4</ele>
        <time>1970-01-01T02:03:00.000Z</time>
      </trkpt>
      <trkpt lat="45.43776" lon="4.60267">
        <ele>641.8</ele>
        <time>1970-01-01T02:03:01.000Z</time>
      </trkpt>
      <trkpt lat="45.43775" lon="4.60272">
        <ele>641.8</ele>
        <time>1970-01-01T02:03:04.000Z</time>
      </trkpt>
      <trkpt lat="45.43774" lon="4.60273">
        <ele>642.2</ele>
        <time>1970-01-01T02:03:05.000Z</time>
      </trkpt>
      <trkpt lat="45.43773" lon="4.60275">
        <ele>642.6</ele>
        <time>1970-01-01T02:03:06.000Z</time>
      </trkpt>
      <trkpt lat="45.43773" lon="4.60277">
        <ele>643.2</ele>
        <time>1970-01-01T02:03:07.000Z</time>
      </trkpt>
      <trkpt lat="45.43773" lon="4.60279">
        <ele>643.6</ele>
        <time>1970-01-01T02:03:08.000Z</time>
      </trkpt>
      <trkpt lat="45.43772" lon="4.6028">
        <ele>644</ele>
        <time>1970-01-01T02:03:09.000Z</time>
      </trkpt>
      <trkpt lat="45.43771" lon="4.6028">
        <ele>644.4</ele>
        <time>1970-01-01T02:03:10.000Z</time>
      </trkpt>
      <trkpt lat="45.43771" lon="4.60282">
        <ele>645</ele>
        <time>1970-01-01T02:03:11.000Z</time>
      </trkpt>
      <trkpt lat="45.43771" lon="4.60282">
        <ele>645.4</ele>
        <time>1970-01-01T02:03:12.000Z</time>
      </trkpt>
      <trkpt lat="45.4377" lon="4.60284">
        <ele>645.8</ele>
        <time>1970-01-01T02:03:13.000Z</time>
      </trkpt>
      <trkpt lat="45.43769" lon="4.60285">
        <ele>646.2</ele>
        <time>1970-01-01T02:03:14.000Z</time>
      </trkpt>
      <trkpt lat="45.43766" lon="4.60289">
        <ele>646.2</ele>
        <time>1970-01-01T02:03:17.000Z</time>
      </trkpt>
      <trkpt lat="45.43766" lon="4.60289">
        <ele>646.6</ele>
        <time>1970-01-01T02:03:18.000Z</time>
      </trkpt>
      <trkpt lat="45.43766" lon="4.60291">
        <ele>647</ele>
        <time>1970-01-01T02:03:19.000Z</time>
      </trkpt>
      <trkpt lat="45.43765" lon="4.60292">
        <ele>647.4</ele>
        <time>1970-01-01T02:03:20.000Z</time>
      </trkpt>
      <trkpt lat="45.43763" lon="4.60294">
        <ele>647.8</ele>
        <time>1970-01-01T02:03:21.000Z</time>
      </trkpt>
      <trkpt lat="45.43761" lon="4.60295">
        <ele>648.2</ele>
        <time>1970-01-01T02:03:22.000Z</time>
      </trkpt>
      <trkpt lat="45.43759" lon="4.603">
        <ele>648.6</ele>
        <time>1970-01-01T02:03:24.000Z</time>
      </trkpt>
      <trkpt lat="45.43758" lon="4.60301">
        <ele>649.2</ele>
        <time>1970-01-01T02:03:25.000Z</time>
      </trkpt>
      <trkpt lat="45.43756" lon="4.60304">
        <ele>649.6</ele>
        <time>1970-01-01T02:03:26.000Z</time>
      </trkpt>
      <trkpt lat="45.43755" lon="4.60306">
        <ele>650</ele>
        <time>1970-01-01T02:03:27.000Z</time>
      </trkpt>
      <trkpt lat="45.43753" lon="4.60309">
        <ele>650.4</ele>
        <time>1970-01-01T02:03:28.000Z</time>
      </trkpt>
      <trkpt lat="45.4375" lon="4.60313">
        <ele>650.8</ele>
        <time>1970-01-01T02:03:30.000Z</time>
      </trkpt>
      <trkpt lat="45.43748" lon="4.60315">
        <ele>651.4</ele>
        <time>1970-01-01T02:03:31.000Z</time>
      </trkpt>
      <trkpt lat="45.43747" lon="4.60318">
        <ele>651.8</ele>
        <time>1970-01-01T02:03:32.000Z</time>
      </trkpt>
      <trkpt lat="45.43747" lon="4.60321">
        <ele>652.2</ele>
        <time>1970-01-01T02:03:33.000Z</time>
      </trkpt>
      <trkpt lat="45.43747" lon="4.60322">
        <ele>652.6</ele>
        <time>1970-01-01T02:03:34.000Z</time>
      </trkpt>
      <trkpt lat="45.43747" lon="4.60322">
        <ele>652.6</ele>
        <time>1970-01-01T02:03:35.000Z</time>
      </trkpt>
      <trkpt lat="45.43746" lon="4.60325">
        <ele>653</ele>
        <time>1970-01-01T02:03:37.000Z</time>
      </trkpt>
      <trkpt lat="45.43745" lon="4.60328">
        <ele>653.4</ele>
        <time>1970-01-01T02:03:38.000Z</time>
      </trkpt>
      <trkpt lat="45.43745" lon="4.60331">
        <ele>653.8</ele>
        <time>1970-01-01T02:03:39.000Z</time>
      </trkpt>
      <trkpt lat="45.43744" lon="4.60334">
        <ele>654.2</ele>
        <time>1970-01-01T02:03:40.000Z</time>
      </trkpt>
      <trkpt lat="45.43744" lon="4.60336">
        <ele>654.6</ele>
        <time>1970-01-01T02:03:41.000Z</time>
      </trkpt>
      <trkpt lat="45.43743" lon="4.60349">
        <ele>654.6</ele>
        <time>1970-01-01T02:03:45.000Z</time>
      </trkpt>
      <trkpt lat="45.43741" lon="4.60356">
        <ele>655.2</ele>
        <time>1970-01-01T02:03:48.000Z</time>
      </trkpt>
      <trkpt lat="45.43741" lon="4.60359">
        <ele>655.6</ele>
        <time>1970-01-01T02:03:49.000Z</time>
      </trkpt>
      <trkpt lat="45.43741" lon="4.60361">
        <ele>656</ele>
        <time>1970-01-01T02:03:50.000Z</time>
      </trkpt>
      <trkpt lat="45.4374" lon="4.60362">
        <ele>656.4</ele>
        <time>1970-01-01T02:03:51.000Z</time>
      </trkpt>
      <trkpt lat="45.43741" lon="4.60365">
        <ele>656.8</ele>
        <time>1970-01-01T02:03:52.000Z</time>
      </trkpt>
      <trkpt lat="45.4374" lon="4.60379">
        <ele>657.2</ele>
        <time>1970-01-01T02:03:57.000Z</time>
      </trkpt>
      <trkpt lat="45.4374" lon="4.60381">
        <ele>657.8</ele>
        <time>1970-01-01T02:03:58.000Z</time>
      </trkpt>
      <trkpt lat="45.43739" lon="4.60383">
        <ele>658.2</ele>
        <time>1970-01-01T02:03:59.000Z</time>
      </trkpt>
      <trkpt lat="45.43738" lon="4.60387">
        <ele>658.6</ele>
        <time>1970-01-01T02:04:00.000Z</time>
      </trkpt>
      <trkpt lat="45.43738" lon="4.60389">
        <ele>659</ele>
        <time>1970-01-01T02:04:01.000Z</time>
      </trkpt>
      <trkpt lat="45.43739" lon="4.60392">
        <ele>659</ele>
        <time>1970-01-01T02:04:02.000Z</time>
      </trkpt>
      <trkpt lat="45.43739" lon="4.60394">
        <ele>659</ele>
        <time>1970-01-01T02:04:03.000Z</time>
      </trkpt>
      <trkpt lat="45.43741" lon="4.60415">
        <ele>659</ele>
        <time>1970-01-01T02:04:09.000Z</time>
      </trkpt>
      <trkpt lat="45.43742" lon="4.60419">
        <ele>659.4</ele>
        <time>1970-01-01T02:04:10.000Z</time>
      </trkpt>
      <trkpt lat="45.43744" lon="4.60428">
        <ele>659.8</ele>
        <time>1970-01-01T02:04:11.000Z</time>
      </trkpt>
      <trkpt lat="45.43745" lon="4.60435">
        <ele>660.2</ele>
        <time>1970-01-01T02:04:12.000Z</time>
      </trkpt>
      <trkpt lat="45.43746" lon="4.60441">
        <ele>660.6</ele>
        <time>1970-01-01T02:04:13.000Z</time>
      </trkpt>
      <trkpt lat="45.43747" lon="4.60446">
        <ele>661.2</ele>
        <time>1970-01-01T02:04:14.000Z</time>
      </trkpt>
      <trkpt lat="45.43751" lon="4.60465">
        <ele>661.2</ele>
        <time>1970-01-01T02:04:18.000Z</time>
      </trkpt>
      <trkpt lat="45.43752" lon="4.60472">
        <ele>661.2</ele>
        <time>1970-01-01T02:04:20.000Z</time>
      </trkpt>
      <trkpt lat="45.43753" lon="4.60476">
        <ele>661.2</ele>
        <time>1970-01-01T02:04:21.000Z</time>
      </trkpt>
      <trkpt lat="45.43752" lon="4.60482">
        <ele>661.6</ele>
        <time>1970-01-01T02:04:23.000Z</time>
      </trkpt>
      <trkpt lat="45.43753" lon="4.60484">
        <ele>662</ele>
        <time>1970-01-01T02:04:24.000Z</time>
      </trkpt>
      <trkpt lat="45.43753" lon="4.60488">
        <ele>662.4</ele>
        <time>1970-01-01T02:04:25.000Z</time>
      </trkpt>
      <trkpt lat="45.43754" lon="4.60491">
        <ele>662.8</ele>
        <time>1970-01-01T02:04:26.000Z</time>
      </trkpt>
      <trkpt lat="45.43754" lon="4.60495">
        <ele>663.2</ele>
        <time>1970-01-01T02:04:27.000Z</time>
      </trkpt>
      <trkpt lat="45.43754" lon="4.60504">
        <ele>663.8</ele>
        <time>1970-01-01T02:04:30.000Z</time>
      </trkpt>
      <trkpt lat="45.43754" lon="4.60508">
        <ele>664.2</ele>
        <time>1970-01-01T02:04:31.000Z</time>
      </trkpt>
      <trkpt lat="45.43754" lon="4.60511">
        <ele>664.6</ele>
        <time>1970-01-01T02:04:32.000Z</time>
      </trkpt>
      <trkpt lat="45.43755" lon="4.60514">
        <ele>665</ele>
        <time>1970-01-01T02:04:33.000Z</time>
      </trkpt>
      <trkpt lat="45.43755" lon="4.60517">
        <ele>665.4</ele>
        <time>1970-01-01T02:04:34.000Z</time>
      </trkpt>
      <trkpt lat="45.43756" lon="4.6052">
        <ele>665.8</ele>
        <time>1970-01-01T02:04:35.000Z</time>
      </trkpt>
      <trkpt lat="45.43756" lon="4.60522">
        <ele>666.4</ele>
        <time>1970-01-01T02:04:36.000Z</time>
      </trkpt>
      <trkpt lat="45.43757" lon="4.60525">
        <ele>666.8</ele>
        <time>1970-01-01T02:04:37.000Z</time>
      </trkpt>
      <trkpt lat="45.43757" lon="4.60528">
        <ele>667.2</ele>
        <time>1970-01-01T02:04:38.000Z</time>
      </trkpt>
      <trkpt lat="45.43758" lon="4.60531">
        <ele>667.6</ele>
        <time>1970-01-01T02:04:39.000Z</time>
      </trkpt>
      <trkpt lat="45.43757" lon="4.60533">
        <ele>667.6</ele>
        <time>1970-01-01T02:04:40.000Z</time>
      </trkpt>
      <trkpt lat="45.43756" lon="4.60539">
        <ele>668.6</ele>
        <time>1970-01-01T02:04:42.000Z</time>
      </trkpt>
      <trkpt lat="45.43757" lon="4.60542">
        <ele>669</ele>
        <time>1970-01-01T02:04:43.000Z</time>
      </trkpt>
      <trkpt lat="45.43757" lon="4.60545">
        <ele>669.4</ele>
        <time>1970-01-01T02:04:44.000Z</time>
      </trkpt>
      <trkpt lat="45.43757" lon="4.60548">
        <ele>669.8</ele>
        <time>1970-01-01T02:04:45.000Z</time>
      </trkpt>
      <trkpt lat="45.43759" lon="4.60561">
        <ele>670.4</ele>
        <time>1970-01-01T02:04:49.000Z</time>
      </trkpt>
      <trkpt lat="45.4376" lon="4.60564">
        <ele>670.8</ele>
        <time>1970-01-01T02:04:50.000Z</time>
      </trkpt>
      <trkpt lat="45.4376" lon="4.60567">
        <ele>671.2</ele>
        <time>1970-01-01T02:04:51.000Z</time>
      </trkpt>
      <trkpt lat="45.4376" lon="4.6057">
        <ele>671.6</ele>
        <time>1970-01-01T02:04:52.000Z</time>
      </trkpt>
      <trkpt lat="45.43761" lon="4.60573">
        <ele>672</ele>
        <time>1970-01-01T02:04:53.000Z</time>
      </trkpt>
      <trkpt lat="45.43762" lon="4.60577">
        <ele>672</ele>
        <time>1970-01-01T02:04:55.000Z</time>
      </trkpt>
      <trkpt lat="45.43763" lon="4.60582">
        <ele>672.4</ele>
        <time>1970-01-01T02:04:57.000Z</time>
      </trkpt>
      <trkpt lat="45.43763" lon="4.60585">
        <ele>672.8</ele>
        <time>1970-01-01T02:04:58.000Z</time>
      </trkpt>
      <trkpt lat="45.43763" lon="4.60588">
        <ele>673.2</ele>
        <time>1970-01-01T02:04:59.000Z</time>
      </trkpt>
      <trkpt lat="45.43763" lon="4.60591">
        <ele>673.8</ele>
        <time>1970-01-01T02:05:00.000Z</time>
      </trkpt>
      <trkpt lat="45.43762" lon="4.60593">
        <ele>674.2</ele>
        <time>1970-01-01T02:05:01.000Z</time>
      </trkpt>
      <trkpt lat="45.4376" lon="4.60611">
        <ele>674.6</ele>
        <time>1970-01-01T02:05:06.000Z</time>
      </trkpt>
      <trkpt lat="45.4376" lon="4.60614">
        <ele>675.4</ele>
        <time>1970-01-01T02:05:07.000Z</time>
      </trkpt>
      <trkpt lat="45.43761" lon="4.60617">
        <ele>675.8</ele>
        <time>1970-01-01T02:05:08.000Z</time>
      </trkpt>
      <trkpt lat="45.43761" lon="4.60621">
        <ele>676.2</ele>
        <time>1970-01-01T02:05:09.000Z</time>
      </trkpt>
      <trkpt lat="45.43762" lon="4.60628">
        <ele>676.2</ele>
        <time>1970-01-01T02:05:11.000Z</time>
      </trkpt>
      <trkpt lat="45.43762" lon="4.60634">
        <ele>676.2</ele>
        <time>1970-01-01T02:05:13.000Z</time>
      </trkpt>
      <trkpt lat="45.43763" lon="4.60639">
        <ele>676.6</ele>
        <time>1970-01-01T02:05:15.000Z</time>
      </trkpt>
      <trkpt lat="45.43764" lon="4.60642">
        <ele>677</ele>
        <time>1970-01-01T02:05:16.000Z</time>
      </trkpt>
      <trkpt lat="45.43764" lon="4.60645">
        <ele>677.4</ele>
        <time>1970-01-01T02:05:17.000Z</time>
      </trkpt>
      <trkpt lat="45.43765" lon="4.60648">
        <ele>677.8</ele>
        <time>1970-01-01T02:05:18.000Z</time>
      </trkpt>
      <trkpt lat="45.43765" lon="4.60652">
        <ele>678.2</ele>
        <time>1970-01-01T02:05:19.000Z</time>
      </trkpt>
      <trkpt lat="45.43767" lon="4.6066">
        <ele>678.2</ele>
        <time>1970-01-01T02:05:21.000Z</time>
      </trkpt>
      <trkpt lat="45.43769" lon="4.60684">
        <ele>678.2</ele>
        <time>1970-01-01T02:05:27.000Z</time>
      </trkpt>
      <trkpt lat="45.43772" lon="4.60705">
        <ele>678.2</ele>
        <time>1970-01-01T02:05:32.000Z</time>
      </trkpt>
      <trkpt lat="45.43774" lon="4.60722">
        <ele>678.2</ele>
        <time>1970-01-01T02:05:37.000Z</time>
      </trkpt>
      <trkpt lat="45.43772" lon="4.60726">
        <ele>678.2</ele>
        <time>1970-01-01T02:05:38.000Z</time>
      </trkpt>
      <trkpt lat="45.43769" lon="4.60741">
        <ele>678.2</ele>
        <time>1970-01-01T02:05:41.000Z</time>
      </trkpt>
      <trkpt lat="45.43768" lon="4.60754">
        <ele>678.2</ele>
        <time>1970-01-01T02:05:43.000Z</time>
      </trkpt>
      <trkpt lat="45.43765" lon="4.6077">
        <ele>678.2</ele>
        <time>1970-01-01T02:05:45.000Z</time>
      </trkpt>
      <trkpt lat="45.43759" lon="4.60788">
        <ele>677.8</ele>
        <time>1970-01-01T02:05:47.000Z</time>
      </trkpt>
      <trkpt lat="45.43757" lon="4.60797">
        <ele>677.4</ele>
        <time>1970-01-01T02:05:48.000Z</time>
      </trkpt>
      <trkpt lat="45.43754" lon="4.60807">
        <ele>677</ele>
        <time>1970-01-01T02:05:49.000Z</time>
      </trkpt>
      <trkpt lat="45.43753" lon="4.60816">
        <ele>676.4</ele>
        <time>1970-01-01T02:05:50.000Z</time>
      </trkpt>
      <trkpt lat="45.43752" lon="4.60824">
        <ele>676</ele>
        <time>1970-01-01T02:05:51.000Z</time>
      </trkpt>
      <trkpt lat="45.43751" lon="4.60841">
        <ele>675.6</ele>
        <time>1970-01-01T02:05:53.000Z</time>
      </trkpt>
      <trkpt lat="45.4375" lon="4.6085">
        <ele>675.2</ele>
        <time>1970-01-01T02:05:54.000Z</time>
      </trkpt>
      <trkpt lat="45.4375" lon="4.60857">
        <ele>674.8</ele>
        <time>1970-01-01T02:05:55.000Z</time>
      </trkpt>
      <trkpt lat="45.4375" lon="4.60866">
        <ele>673.8</ele>
        <time>1970-01-01T02:05:56.000Z</time>
      </trkpt>
      <trkpt lat="45.43749" lon="4.60882">
        <ele>673.8</ele>
        <time>1970-01-01T02:05:58.000Z</time>
      </trkpt>
      <trkpt lat="45.43748" lon="4.60904">
        <ele>673.8</ele>
        <time>1970-01-01T02:06:01.000Z</time>
      </trkpt>
      <trkpt lat="45.43747" lon="4.60922">
        <ele>673.8</ele>
        <time>1970-01-01T02:06:04.000Z</time>
      </trkpt>
      <trkpt lat="45.43741" lon="4.60957">
        <ele>674.4</ele>
        <time>1970-01-01T02:06:11.000Z</time>
      </trkpt>
      <trkpt lat="45.43739" lon="4.60962">
        <ele>674.8</ele>
        <time>1970-01-01T02:06:12.000Z</time>
      </trkpt>
      <trkpt lat="45.43737" lon="4.60965">
        <ele>675.2</ele>
        <time>1970-01-01T02:06:13.000Z</time>
      </trkpt>
      <trkpt lat="45.43734" lon="4.60968">
        <ele>675.8</ele>
        <time>1970-01-01T02:06:14.000Z</time>
      </trkpt>
      <trkpt lat="45.43732" lon="4.60971">
        <ele>676.2</ele>
        <time>1970-01-01T02:06:15.000Z</time>
      </trkpt>
      <trkpt lat="45.43729" lon="4.60983">
        <ele>676.6</ele>
        <time>1970-01-01T02:06:17.000Z</time>
      </trkpt>
      <trkpt lat="45.43728" lon="4.60991">
        <ele>677</ele>
        <time>1970-01-01T02:06:18.000Z</time>
      </trkpt>
      <trkpt lat="45.43726" lon="4.60997">
        <ele>677.6</ele>
        <time>1970-01-01T02:06:19.000Z</time>
      </trkpt>
      <trkpt lat="45.43724" lon="4.61002">
        <ele>678</ele>
        <time>1970-01-01T02:06:20.000Z</time>
      </trkpt>
      <trkpt lat="45.43723" lon="4.61007">
        <ele>678.4</ele>
        <time>1970-01-01T02:06:21.000Z</time>
      </trkpt>
      <trkpt lat="45.43723" lon="4.61012">
        <ele>678.8</ele>
        <time>1970-01-01T02:06:22.000Z</time>
      </trkpt>
      <trkpt lat="45.43724" lon="4.61015">
        <ele>679.4</ele>
        <time>1970-01-01T02:06:23.000Z</time>
      </trkpt>
      <trkpt lat="45.43726" lon="4.61019">
        <ele>679.8</ele>
        <time>1970-01-01T02:06:24.000Z</time>
      </trkpt>
      <trkpt lat="45.43727" lon="4.6102">
        <ele>680.2</ele>
        <time>1970-01-01T02:06:25.000Z</time>
      </trkpt>
      <trkpt lat="45.43729" lon="4.61023">
        <ele>680.6</ele>
        <time>1970-01-01T02:06:26.000Z</time>
      </trkpt>
      <trkpt lat="45.43729" lon="4.61027">
        <ele>680.6</ele>
        <time>1970-01-01T02:06:27.000Z</time>
      </trkpt>
      <trkpt lat="45.4373" lon="4.61033">
        <ele>681</ele>
        <time>1970-01-01T02:06:28.000Z</time>
      </trkpt>
      <trkpt lat="45.43731" lon="4.61039">
        <ele>681.6</ele>
        <time>1970-01-01T02:06:29.000Z</time>
      </trkpt>
      <trkpt lat="45.43733" lon="4.61045">
        <ele>682</ele>
        <time>1970-01-01T02:06:30.000Z</time>
      </trkpt>
      <trkpt lat="45.43734" lon="4.6105">
        <ele>682.4</ele>
        <time>1970-01-01T02:06:31.000Z</time>
      </trkpt>
      <trkpt lat="45.43735" lon="4.61054">
        <ele>682.8</ele>
        <time>1970-01-01T02:06:32.000Z</time>
      </trkpt>
      <trkpt lat="45.43739" lon="4.61074">
        <ele>682.8</ele>
        <time>1970-01-01T02:06:36.000Z</time>
      </trkpt>
      <trkpt lat="45.43745" lon="4.61094">
        <ele>682.8</ele>
        <time>1970-01-01T02:06:41.000Z</time>
      </trkpt>
      <trkpt lat="45.43746" lon="4.61114">
        <ele>682.8</ele>
        <time>1970-01-01T02:06:45.000Z</time>
      </trkpt>
      <trkpt lat="45.43747" lon="4.6113">
        <ele>682.8</ele>
        <time>1970-01-01T02:06:49.000Z</time>
      </trkpt>
      <trkpt lat="45.4375" lon="4.6115">
        <ele>682.8</ele>
        <time>1970-01-01T02:06:55.000Z</time>
      </trkpt>
      <trkpt lat="45.43749" lon="4.61174">
        <ele>682.8</ele>
        <time>1970-01-01T02:07:01.000Z</time>
      </trkpt>
      <trkpt lat="45.43743" lon="4.61187">
        <ele>683.2</ele>
        <time>1970-01-01T02:07:05.000Z</time>
      </trkpt>
      <trkpt lat="45.43741" lon="4.61191">
        <ele>683.6</ele>
        <time>1970-01-01T02:07:06.000Z</time>
      </trkpt>
      <trkpt lat="45.4374" lon="4.61194">
        <ele>684</ele>
        <time>1970-01-01T02:07:07.000Z</time>
      </trkpt>
      <trkpt lat="45.4374" lon="4.61197">
        <ele>684.4</ele>
        <time>1970-01-01T02:07:08.000Z</time>
      </trkpt>
      <trkpt lat="45.43739" lon="4.612">
        <ele>684.8</ele>
        <time>1970-01-01T02:07:09.000Z</time>
      </trkpt>
      <trkpt lat="45.43737" lon="4.61203">
        <ele>684.8</ele>
        <time>1970-01-01T02:07:11.000Z</time>
      </trkpt>
      <trkpt lat="45.43738" lon="4.61206">
        <ele>684.8</ele>
        <time>1970-01-01T02:07:12.000Z</time>
      </trkpt>
      <trkpt lat="45.43735" lon="4.61223">
        <ele>684.8</ele>
        <time>1970-01-01T02:07:16.000Z</time>
      </trkpt>
      <trkpt lat="45.43733" lon="4.61233">
        <ele>684.8</ele>
        <time>1970-01-01T02:07:19.000Z</time>
      </trkpt>
      <trkpt lat="45.4373" lon="4.61246">
        <ele>684.8</ele>
        <time>1970-01-01T02:07:23.000Z</time>
      </trkpt>
      <trkpt lat="45.43727" lon="4.61252">
        <ele>684.8</ele>
        <time>1970-01-01T02:07:25.000Z</time>
      </trkpt>
      <trkpt lat="45.43724" lon="4.61263">
        <ele>685.4</ele>
        <time>1970-01-01T02:07:29.000Z</time>
      </trkpt>
      <trkpt lat="45.43723" lon="4.61266">
        <ele>685.8</ele>
        <time>1970-01-01T02:07:30.000Z</time>
      </trkpt>
      <trkpt lat="45.43722" lon="4.61269">
        <ele>686.2</ele>
        <time>1970-01-01T02:07:31.000Z</time>
      </trkpt>
      <trkpt lat="45.43722" lon="4.61271">
        <ele>686.8</ele>
        <time>1970-01-01T02:07:32.000Z</time>
      </trkpt>
      <trkpt lat="45.43721" lon="4.61273">
        <ele>687.2</ele>
        <time>1970-01-01T02:07:33.000Z</time>
      </trkpt>
      <trkpt lat="45.43719" lon="4.61279">
        <ele>687.2</ele>
        <time>1970-01-01T02:07:35.000Z</time>
      </trkpt>
      <trkpt lat="45.43717" lon="4.61282">
        <ele>687.6</ele>
        <time>1970-01-01T02:07:36.000Z</time>
      </trkpt>
      <trkpt lat="45.43717" lon="4.61285">
        <ele>688</ele>
        <time>1970-01-01T02:07:37.000Z</time>
      </trkpt>
      <trkpt lat="45.43715" lon="4.61289">
        <ele>688.6</ele>
        <time>1970-01-01T02:07:38.000Z</time>
      </trkpt>
      <trkpt lat="45.43715" lon="4.61292">
        <ele>689</ele>
        <time>1970-01-01T02:07:39.000Z</time>
      </trkpt>
      <trkpt lat="45.43714" lon="4.61294">
        <ele>689.4</ele>
        <time>1970-01-01T02:07:40.000Z</time>
      </trkpt>
      <trkpt lat="45.4371" lon="4.61311">
        <ele>689.4</ele>
        <time>1970-01-01T02:07:45.000Z</time>
      </trkpt>
      <trkpt lat="45.43708" lon="4.61325">
        <ele>689.8</ele>
        <time>1970-01-01T02:07:51.000Z</time>
      </trkpt>
      <trkpt lat="45.43709" lon="4.61327">
        <ele>690.2</ele>
        <time>1970-01-01T02:07:52.000Z</time>
      </trkpt>
      <trkpt lat="45.43709" lon="4.61331">
        <ele>690.6</ele>
        <time>1970-01-01T02:07:53.000Z</time>
      </trkpt>
      <trkpt lat="45.43709" lon="4.61334">
        <ele>691</ele>
        <time>1970-01-01T02:07:54.000Z</time>
      </trkpt>
      <trkpt lat="45.43709" lon="4.61337">
        <ele>691.6</ele>
        <time>1970-01-01T02:07:55.000Z</time>
      </trkpt>
      <trkpt lat="45.43707" lon="4.61341">
        <ele>691.6</ele>
        <time>1970-01-01T02:07:56.000Z</time>
      </trkpt>
      <trkpt lat="45.43705" lon="4.61352">
        <ele>691.6</ele>
        <time>1970-01-01T02:08:00.000Z</time>
      </trkpt>
      <trkpt lat="45.43703" lon="4.61361">
        <ele>691.6</ele>
        <time>1970-01-01T02:08:03.000Z</time>
      </trkpt>
      <trkpt lat="45.43703" lon="4.61365">
        <ele>691.6</ele>
        <time>1970-01-01T02:08:09.000Z</time>
      </trkpt>
      <trkpt lat="45.43702" lon="4.61368">
        <ele>691.6</ele>
        <time>1970-01-01T02:08:16.000Z</time>
      </trkpt>
      <trkpt lat="45.43702" lon="4.61371">
        <ele>692</ele>
        <time>1970-01-01T02:08:17.000Z</time>
      </trkpt>
      <trkpt lat="45.43702" lon="4.61374">
        <ele>692.4</ele>
        <time>1970-01-01T02:08:18.000Z</time>
      </trkpt>
      <trkpt lat="45.43701" lon="4.61377">
        <ele>692.8</ele>
        <time>1970-01-01T02:08:19.000Z</time>
      </trkpt>
      <trkpt lat="45.43701" lon="4.61381">
        <ele>693.2</ele>
        <time>1970-01-01T02:08:20.000Z</time>
      </trkpt>
      <trkpt lat="45.43705" lon="4.61391">
        <ele>693.6</ele>
        <time>1970-01-01T02:08:21.000Z</time>
      </trkpt>
      <trkpt lat="45.43704" lon="4.61467">
        <ele>693.6</ele>
        <time>1970-01-01T02:08:23.000Z</time>
      </trkpt>
      <trkpt lat="45.43704" lon="4.61506">
        <ele>693.6</ele>
        <time>1970-01-01T02:08:24.000Z</time>
      </trkpt>
      <trkpt lat="45.43698" lon="4.61519">
        <ele>693.6</ele>
        <time>1970-01-01T02:08:27.000Z</time>
      </trkpt>
      <trkpt lat="45.43696" lon="4.61529">
        <ele>693.6</ele>
        <time>1970-01-01T02:08:29.000Z</time>
      </trkpt>
      <trkpt lat="45.43692" lon="4.61543">
        <ele>693.6</ele>
        <time>1970-01-01T02:08:33.000Z</time>
      </trkpt>
      <trkpt lat="45.4369" lon="4.61562">
        <ele>693.6</ele>
        <time>1970-01-01T02:08:36.000Z</time>
      </trkpt>
      <trkpt lat="45.43692" lon="4.61571">
        <ele>693.6</ele>
        <time>1970-01-01T02:08:37.000Z</time>
      </trkpt>
      <trkpt lat="45.43701" lon="4.6161">
        <ele>693.6</ele>
        <time>1970-01-01T02:08:41.000Z</time>
      </trkpt>
      <trkpt lat="45.43706" lon="4.61643">
        <ele>693.6</ele>
        <time>1970-01-01T02:08:45.000Z</time>
      </trkpt>
      <trkpt lat="45.43709" lon="4.61675">
        <ele>693.6</ele>
        <time>1970-01-01T02:08:50.000Z</time>
      </trkpt>
      <trkpt lat="45.43711" lon="4.61706">
        <ele>693.6</ele>
        <time>1970-01-01T02:08:55.000Z</time>
      </trkpt>
      <trkpt lat="45.43712" lon="4.61715">
        <ele>693.6</ele>
        <time>1970-01-01T02:08:57.000Z</time>
      </trkpt>
      <trkpt lat="45.43713" lon="4.61719">
        <ele>693.6</ele>
        <time>1970-01-01T02:08:58.000Z</time>
      </trkpt>
      <trkpt lat="45.43715" lon="4.6174">
        <ele>693.6</ele>
        <time>1970-01-01T02:09:02.000Z</time>
      </trkpt>
      <trkpt lat="45.4372" lon="4.61768">
        <ele>693.6</ele>
        <time>1970-01-01T02:09:07.000Z</time>
      </trkpt>
      <trkpt lat="45.43724" lon="4.61791">
        <ele>693.6</ele>
        <time>1970-01-01T02:09:12.000Z</time>
      </trkpt>
      <trkpt lat="45.43725" lon="4.61792">
        <ele>693.6</ele>
        <time>1970-01-01T02:09:13.000Z</time>
      </trkpt>
      <trkpt lat="45.43728" lon="4.61802">
        <ele>693.6</ele>
        <time>1970-01-01T02:09:16.000Z</time>
      </trkpt>
      <trkpt lat="45.43729" lon="4.6181">
        <ele>693.6</ele>
        <time>1970-01-01T02:09:19.000Z</time>
      </trkpt>
      <trkpt lat="45.43729" lon="4.61815">
        <ele>693.6</ele>
        <time>1970-01-01T02:09:21.000Z</time>
      </trkpt>
      <trkpt lat="45.4373" lon="4.6182">
        <ele>693.6</ele>
        <time>1970-01-01T02:09:23.000Z</time>
      </trkpt>
      <trkpt lat="45.43733" lon="4.61834">
        <ele>693.6</ele>
        <time>1970-01-01T02:09:26.000Z</time>
      </trkpt>
      <trkpt lat="45.43737" lon="4.61858">
        <ele>693.6</ele>
        <time>1970-01-01T02:09:32.000Z</time>
      </trkpt>
      <trkpt lat="45.43744" lon="4.61885">
        <ele>693.6</ele>
        <time>1970-01-01T02:09:37.000Z</time>
      </trkpt>
      <trkpt lat="45.43748" lon="4.61912">
        <ele>693.6</ele>
        <time>1970-01-01T02:09:42.000Z</time>
      </trkpt>
      <trkpt lat="45.43749" lon="4.61935">
        <ele>693.6</ele>
        <time>1970-01-01T02:09:46.000Z</time>
      </trkpt>
      <trkpt lat="45.4375" lon="4.61941">
        <ele>693.2</ele>
        <time>1970-01-01T02:09:47.000Z</time>
      </trkpt>
      <trkpt lat="45.43751" lon="4.61947">
        <ele>692.8</ele>
        <time>1970-01-01T02:09:48.000Z</time>
      </trkpt>
      <trkpt lat="45.43751" lon="4.61955">
        <ele>692.4</ele>
        <time>1970-01-01T02:09:49.000Z</time>
      </trkpt>
      <trkpt lat="45.43752" lon="4.61961">
        <ele>692</ele>
        <time>1970-01-01T02:09:50.000Z</time>
      </trkpt>
      <trkpt lat="45.43753" lon="4.61967">
        <ele>691.6</ele>
        <time>1970-01-01T02:09:51.000Z</time>
      </trkpt>
      <trkpt lat="45.43755" lon="4.6198">
        <ele>691.6</ele>
        <time>1970-01-01T02:09:53.000Z</time>
      </trkpt>
      <trkpt lat="45.43755" lon="4.61985">
        <ele>691.6</ele>
        <time>1970-01-01T02:09:54.000Z</time>
      </trkpt>
      <trkpt lat="45.43755" lon="4.6201">
        <ele>691</ele>
        <time>1970-01-01T02:09:58.000Z</time>
      </trkpt>
      <trkpt lat="45.43755" lon="4.62016">
        <ele>690.6</ele>
        <time>1970-01-01T02:09:59.000Z</time>
      </trkpt>
      <trkpt lat="45.43756" lon="4.62022">
        <ele>690.2</ele>
        <time>1970-01-01T02:10:00.000Z</time>
      </trkpt>
      <trkpt lat="45.43756" lon="4.62028">
        <ele>689.6</ele>
        <time>1970-01-01T02:10:01.000Z</time>
      </trkpt>
      <trkpt lat="45.43756" lon="4.62035">
        <ele>689.2</ele>
        <time>1970-01-01T02:10:02.000Z</time>
      </trkpt>
      <trkpt lat="45.43756" lon="4.62043">
        <ele>688.4</ele>
        <time>1970-01-01T02:10:03.000Z</time>
      </trkpt>
      <trkpt lat="45.43757" lon="4.62051">
        <ele>687.8</ele>
        <time>1970-01-01T02:10:04.000Z</time>
      </trkpt>
      <trkpt lat="45.43758" lon="4.6206">
        <ele>687.4</ele>
        <time>1970-01-01T02:10:05.000Z</time>
      </trkpt>
      <trkpt lat="45.43758" lon="4.6207">
        <ele>686.8</ele>
        <time>1970-01-01T02:10:06.000Z</time>
      </trkpt>
      <trkpt lat="45.43758" lon="4.62079">
        <ele>686.2</ele>
        <time>1970-01-01T02:10:07.000Z</time>
      </trkpt>
      <trkpt lat="45.43759" lon="4.62089">
        <ele>685.6</ele>
        <time>1970-01-01T02:10:08.000Z</time>
      </trkpt>
      <trkpt lat="45.43759" lon="4.62099">
        <ele>685</ele>
        <time>1970-01-01T02:10:09.000Z</time>
      </trkpt>
      <trkpt lat="45.43759" lon="4.62112">
        <ele>684.2</ele>
        <time>1970-01-01T02:10:10.000Z</time>
      </trkpt>
      <trkpt lat="45.43758" lon="4.62127">
        <ele>683.6</ele>
        <time>1970-01-01T02:10:11.000Z</time>
      </trkpt>
      <trkpt lat="45.43757" lon="4.62142">
        <ele>682.8</ele>
        <time>1970-01-01T02:10:12.000Z</time>
      </trkpt>
      <trkpt lat="45.43755" lon="4.62158">
        <ele>681.8</ele>
        <time>1970-01-01T02:10:13.000Z</time>
      </trkpt>
      <trkpt lat="45.43754" lon="4.62174">
        <ele>681</ele>
        <time>1970-01-01T02:10:14.000Z</time>
      </trkpt>
      <trkpt lat="45.43752" lon="4.62189">
        <ele>680.2</ele>
        <time>1970-01-01T02:10:15.000Z</time>
      </trkpt>
      <trkpt lat="45.43751" lon="4.62203">
        <ele>679.4</ele>
        <time>1970-01-01T02:10:16.000Z</time>
      </trkpt>
      <trkpt lat="45.4375" lon="4.62219">
        <ele>678.6</ele>
        <time>1970-01-01T02:10:17.000Z</time>
      </trkpt>
      <trkpt lat="45.4375" lon="4.62233">
        <ele>677.8</ele>
        <time>1970-01-01T02:10:18.000Z</time>
      </trkpt>
      <trkpt lat="45.43751" lon="4.62246">
        <ele>677</ele>
        <time>1970-01-01T02:10:19.000Z</time>
      </trkpt>
      <trkpt lat="45.43753" lon="4.6226">
        <ele>676</ele>
        <time>1970-01-01T02:10:20.000Z</time>
      </trkpt>
      <trkpt lat="45.43755" lon="4.62273">
        <ele>675.2</ele>
        <time>1970-01-01T02:10:21.000Z</time>
      </trkpt>
      <trkpt lat="45.43759" lon="4.62285">
        <ele>674.6</ele>
        <time>1970-01-01T02:10:22.000Z</time>
      </trkpt>
      <trkpt lat="45.43762" lon="4.62297">
        <ele>674</ele>
        <time>1970-01-01T02:10:23.000Z</time>
      </trkpt>
      <trkpt lat="45.43767" lon="4.62308">
        <ele>673.2</ele>
        <time>1970-01-01T02:10:24.000Z</time>
      </trkpt>
      <trkpt lat="45.4377" lon="4.62317">
        <ele>672.4</ele>
        <time>1970-01-01T02:10:25.000Z</time>
      </trkpt>
      <trkpt lat="45.43776" lon="4.62324">
        <ele>671.6</ele>
        <time>1970-01-01T02:10:26.000Z</time>
      </trkpt>
      <trkpt lat="45.43782" lon="4.6233">
        <ele>670.6</ele>
        <time>1970-01-01T02:10:27.000Z</time>
      </trkpt>
      <trkpt lat="45.4379" lon="4.62335">
        <ele>668.8</ele>
        <time>1970-01-01T02:10:28.000Z</time>
      </trkpt>
      <trkpt lat="45.43797" lon="4.62338">
        <ele>668</ele>
        <time>1970-01-01T02:10:29.000Z</time>
      </trkpt>
      <trkpt lat="45.43815" lon="4.6234">
        <ele>667</ele>
        <time>1970-01-01T02:10:30.000Z</time>
      </trkpt>
      <trkpt lat="45.4384" lon="4.62341">
        <ele>666</ele>
        <time>1970-01-01T02:10:31.000Z</time>
      </trkpt>
      <trkpt lat="45.43848" lon="4.62345">
        <ele>665.4</ele>
        <time>1970-01-01T02:10:32.000Z</time>
      </trkpt>
      <trkpt lat="45.43856" lon="4.62348">
        <ele>664.6</ele>
        <time>1970-01-01T02:10:33.000Z</time>
      </trkpt>
      <trkpt lat="45.43863" lon="4.62352">
        <ele>663.8</ele>
        <time>1970-01-01T02:10:34.000Z</time>
      </trkpt>
      <trkpt lat="45.43869" lon="4.62357">
        <ele>663</ele>
        <time>1970-01-01T02:10:35.000Z</time>
      </trkpt>
      <trkpt lat="45.43875" lon="4.62362">
        <ele>662.4</ele>
        <time>1970-01-01T02:10:36.000Z</time>
      </trkpt>
      <trkpt lat="45.43889" lon="4.62377">
        <ele>662.4</ele>
        <time>1970-01-01T02:10:39.000Z</time>
      </trkpt>
      <trkpt lat="45.43901" lon="4.62401">
        <ele>662.4</ele>
        <time>1970-01-01T02:10:43.000Z</time>
      </trkpt>
      <trkpt lat="45.43906" lon="4.62413">
        <ele>662.4</ele>
        <time>1970-01-01T02:10:45.000Z</time>
      </trkpt>
      <trkpt lat="45.43913" lon="4.62428">
        <ele>662.4</ele>
        <time>1970-01-01T02:10:48.000Z</time>
      </trkpt>
      <trkpt lat="45.43921" lon="4.62441">
        <ele>662.8</ele>
        <time>1970-01-01T02:10:51.000Z</time>
      </trkpt>
      <trkpt lat="45.43923" lon="4.62446">
        <ele>663.2</ele>
        <time>1970-01-01T02:10:52.000Z</time>
      </trkpt>
      <trkpt lat="45.43925" lon="4.6245">
        <ele>664</ele>
        <time>1970-01-01T02:10:53.000Z</time>
      </trkpt>
      <trkpt lat="45.43927" lon="4.62455">
        <ele>664.4</ele>
        <time>1970-01-01T02:10:54.000Z</time>
      </trkpt>
      <trkpt lat="45.43928" lon="4.62459">
        <ele>664.4</ele>
        <time>1970-01-01T02:10:55.000Z</time>
      </trkpt>
      <trkpt lat="45.43936" lon="4.62479">
        <ele>664.4</ele>
        <time>1970-01-01T02:11:00.000Z</time>
      </trkpt>
      <trkpt lat="45.43941" lon="4.62494">
        <ele>664.8</ele>
        <time>1970-01-01T02:11:04.000Z</time>
      </trkpt>
      <trkpt lat="45.43942" lon="4.62498">
        <ele>665.2</ele>
        <time>1970-01-01T02:11:05.000Z</time>
      </trkpt>
      <trkpt lat="45.43943" lon="4.62502">
        <ele>665.8</ele>
        <time>1970-01-01T02:11:06.000Z</time>
      </trkpt>
      <trkpt lat="45.43943" lon="4.62506">
        <ele>666.2</ele>
        <time>1970-01-01T02:11:07.000Z</time>
      </trkpt>
      <trkpt lat="45.43945" lon="4.62509">
        <ele>666.8</ele>
        <time>1970-01-01T02:11:08.000Z</time>
      </trkpt>
      <trkpt lat="45.43946" lon="4.62513">
        <ele>667.2</ele>
        <time>1970-01-01T02:11:09.000Z</time>
      </trkpt>
      <trkpt lat="45.43946" lon="4.62517">
        <ele>667.6</ele>
        <time>1970-01-01T02:11:10.000Z</time>
      </trkpt>
      <trkpt lat="45.43948" lon="4.62521">
        <ele>668.2</ele>
        <time>1970-01-01T02:11:11.000Z</time>
      </trkpt>
      <trkpt lat="45.43949" lon="4.62527">
        <ele>668.6</ele>
        <time>1970-01-01T02:11:12.000Z</time>
      </trkpt>
      <trkpt lat="45.4395" lon="4.6253">
        <ele>669.2</ele>
        <time>1970-01-01T02:11:13.000Z</time>
      </trkpt>
      <trkpt lat="45.43951" lon="4.62534">
        <ele>669.2</ele>
        <time>1970-01-01T02:11:14.000Z</time>
      </trkpt>
      <trkpt lat="45.43952" lon="4.62547">
        <ele>670</ele>
        <time>1970-01-01T02:11:17.000Z</time>
      </trkpt>
      <trkpt lat="45.43952" lon="4.62551">
        <ele>670.4</ele>
        <time>1970-01-01T02:11:18.000Z</time>
      </trkpt>
      <trkpt lat="45.43952" lon="4.62555">
        <ele>670.8</ele>
        <time>1970-01-01T02:11:19.000Z</time>
      </trkpt>
      <trkpt lat="45.43953" lon="4.62559">
        <ele>671.2</ele>
        <time>1970-01-01T02:11:20.000Z</time>
      </trkpt>
      <trkpt lat="45.43955" lon="4.62574">
        <ele>671.6</ele>
        <time>1970-01-01T02:11:24.000Z</time>
      </trkpt>
      <trkpt lat="45.43955" lon="4.62577">
        <ele>672</ele>
        <time>1970-01-01T02:11:25.000Z</time>
      </trkpt>
      <trkpt lat="45.43956" lon="4.6258">
        <ele>672.4</ele>
        <time>1970-01-01T02:11:26.000Z</time>
      </trkpt>
      <trkpt lat="45.43956" lon="4.62583">
        <ele>672.8</ele>
        <time>1970-01-01T02:11:27.000Z</time>
      </trkpt>
      <trkpt lat="45.43956" lon="4.62587">
        <ele>673.2</ele>
        <time>1970-01-01T02:11:28.000Z</time>
      </trkpt>
      <trkpt lat="45.43957" lon="4.62595">
        <ele>673.2</ele>
        <time>1970-01-01T02:11:31.000Z</time>
      </trkpt>
      <trkpt lat="45.43958" lon="4.62597">
        <ele>673.8</ele>
        <time>1970-01-01T02:11:32.000Z</time>
      </trkpt>
      <trkpt lat="45.43958" lon="4.62599">
        <ele>674.4</ele>
        <time>1970-01-01T02:11:33.000Z</time>
      </trkpt>
      <trkpt lat="45.43958" lon="4.62602">
        <ele>675</ele>
        <time>1970-01-01T02:11:34.000Z</time>
      </trkpt>
      <trkpt lat="45.43959" lon="4.62606">
        <ele>675.6</ele>
        <time>1970-01-01T02:11:35.000Z</time>
      </trkpt>
      <trkpt lat="45.4396" lon="4.62609">
        <ele>676.2</ele>
        <time>1970-01-01T02:11:36.000Z</time>
      </trkpt>
      <trkpt lat="45.4396" lon="4.62612">
        <ele>676.8</ele>
        <time>1970-01-01T02:11:37.000Z</time>
      </trkpt>
      <trkpt lat="45.43961" lon="4.62615">
        <ele>677.2</ele>
        <time>1970-01-01T02:11:38.000Z</time>
      </trkpt>
      <trkpt lat="45.43961" lon="4.62618">
        <ele>677.8</ele>
        <time>1970-01-01T02:11:39.000Z</time>
      </trkpt>
      <trkpt lat="45.43962" lon="4.62621">
        <ele>678.4</ele>
        <time>1970-01-01T02:11:40.000Z</time>
      </trkpt>
      <trkpt lat="45.43963" lon="4.62631">
        <ele>678.8</ele>
        <time>1970-01-01T02:11:43.000Z</time>
      </trkpt>
      <trkpt lat="45.43963" lon="4.62634">
        <ele>679.4</ele>
        <time>1970-01-01T02:11:44.000Z</time>
      </trkpt>
      <trkpt lat="45.43964" lon="4.62637">
        <ele>679.8</ele>
        <time>1970-01-01T02:11:45.000Z</time>
      </trkpt>
      <trkpt lat="45.43965" lon="4.6264">
        <ele>680.2</ele>
        <time>1970-01-01T02:11:46.000Z</time>
      </trkpt>
      <trkpt lat="45.43966" lon="4.62643">
        <ele>680.6</ele>
        <time>1970-01-01T02:11:47.000Z</time>
      </trkpt>
      <trkpt lat="45.43969" lon="4.62656">
        <ele>680.6</ele>
        <time>1970-01-01T02:11:52.000Z</time>
      </trkpt>
      <trkpt lat="45.43971" lon="4.62671">
        <ele>680.6</ele>
        <time>1970-01-01T02:11:58.000Z</time>
      </trkpt>
      <trkpt lat="45.43973" lon="4.6268">
        <ele>681.2</ele>
        <time>1970-01-01T02:12:01.000Z</time>
      </trkpt>
      <trkpt lat="45.43974" lon="4.62683">
        <ele>681.6</ele>
        <time>1970-01-01T02:12:02.000Z</time>
      </trkpt>
      <trkpt lat="45.43975" lon="4.62687">
        <ele>682</ele>
        <time>1970-01-01T02:12:03.000Z</time>
      </trkpt>
      <trkpt lat="45.43976" lon="4.62689">
        <ele>682.4</ele>
        <time>1970-01-01T02:12:04.000Z</time>
      </trkpt>
      <trkpt lat="45.43977" lon="4.62692">
        <ele>682.8</ele>
        <time>1970-01-01T02:12:05.000Z</time>
      </trkpt>
      <trkpt lat="45.43984" lon="4.6271">
        <ele>682.8</ele>
        <time>1970-01-01T02:12:11.000Z</time>
      </trkpt>
      <trkpt lat="45.43993" lon="4.62732">
        <ele>682.8</ele>
        <time>1970-01-01T02:12:18.000Z</time>
      </trkpt>
      <trkpt lat="45.43994" lon="4.62736">
        <ele>683.2</ele>
        <time>1970-01-01T02:12:19.000Z</time>
      </trkpt>
      <trkpt lat="45.43995" lon="4.62739">
        <ele>683.6</ele>
        <time>1970-01-01T02:12:20.000Z</time>
      </trkpt>
      <trkpt lat="45.43996" lon="4.62743">
        <ele>684.2</ele>
        <time>1970-01-01T02:12:21.000Z</time>
      </trkpt>
      <trkpt lat="45.43997" lon="4.62746">
        <ele>684.6</ele>
        <time>1970-01-01T02:12:22.000Z</time>
      </trkpt>
      <trkpt lat="45.43998" lon="4.62749">
        <ele>685</ele>
        <time>1970-01-01T02:12:23.000Z</time>
      </trkpt>
      <trkpt lat="45.44" lon="4.62756">
        <ele>685</ele>
        <time>1970-01-01T02:12:25.000Z</time>
      </trkpt>
      <trkpt lat="45.44007" lon="4.62779">
        <ele>685.8</ele>
        <time>1970-01-01T02:12:31.000Z</time>
      </trkpt>
      <trkpt lat="45.44009" lon="4.62782">
        <ele>686.2</ele>
        <time>1970-01-01T02:12:32.000Z</time>
      </trkpt>
      <trkpt lat="45.4401" lon="4.62786">
        <ele>686.6</ele>
        <time>1970-01-01T02:12:33.000Z</time>
      </trkpt>
      <trkpt lat="45.4401" lon="4.62791">
        <ele>687</ele>
        <time>1970-01-01T02:12:34.000Z</time>
      </trkpt>
      <trkpt lat="45.44011" lon="4.62801">
        <ele>687</ele>
        <time>1970-01-01T02:12:36.000Z</time>
      </trkpt>
      <trkpt lat="45.4402" lon="4.62825">
        <ele>687</ele>
        <time>1970-01-01T02:12:42.000Z</time>
      </trkpt>
      <trkpt lat="45.44023" lon="4.62829">
        <ele>687.6</ele>
        <time>1970-01-01T02:12:43.000Z</time>
      </trkpt>
      <trkpt lat="45.44025" lon="4.62834">
        <ele>688</ele>
        <time>1970-01-01T02:12:44.000Z</time>
      </trkpt>
      <trkpt lat="45.44026" lon="4.62838">
        <ele>688.4</ele>
        <time>1970-01-01T02:12:45.000Z</time>
      </trkpt>
      <trkpt lat="45.44028" lon="4.62842">
        <ele>688.8</ele>
        <time>1970-01-01T02:12:46.000Z</time>
      </trkpt>
      <trkpt lat="45.44029" lon="4.62846">
        <ele>689.4</ele>
        <time>1970-01-01T02:12:47.000Z</time>
      </trkpt>
      <trkpt lat="45.44031" lon="4.62854">
        <ele>689.4</ele>
        <time>1970-01-01T02:12:49.000Z</time>
      </trkpt>
      <trkpt lat="45.4404" lon="4.62884">
        <ele>689.4</ele>
        <time>1970-01-01T02:12:56.000Z</time>
      </trkpt>
      <trkpt lat="45.44041" lon="4.62888">
        <ele>689.8</ele>
        <time>1970-01-01T02:12:57.000Z</time>
      </trkpt>
      <trkpt lat="45.44042" lon="4.62892">
        <ele>690.2</ele>
        <time>1970-01-01T02:12:58.000Z</time>
      </trkpt>
      <trkpt lat="45.44044" lon="4.62896">
        <ele>690.6</ele>
        <time>1970-01-01T02:12:59.000Z</time>
      </trkpt>
      <trkpt lat="45.44045" lon="4.629">
        <ele>691</ele>
        <time>1970-01-01T02:13:00.000Z</time>
      </trkpt>
      <trkpt lat="45.44046" lon="4.62905">
        <ele>691.4</ele>
        <time>1970-01-01T02:13:01.000Z</time>
      </trkpt>
      <trkpt lat="45.44049" lon="4.62917">
        <ele>691.4</ele>
        <time>1970-01-01T02:13:04.000Z</time>
      </trkpt>
      <trkpt lat="45.44055" lon="4.62945">
        <ele>691.8</ele>
        <time>1970-01-01T02:13:11.000Z</time>
      </trkpt>
      <trkpt lat="45.44056" lon="4.62949">
        <ele>692.2</ele>
        <time>1970-01-01T02:13:12.000Z</time>
      </trkpt>
      <trkpt lat="45.44057" lon="4.62953">
        <ele>692.6</ele>
        <time>1970-01-01T02:13:13.000Z</time>
      </trkpt>
      <trkpt lat="45.44059" lon="4.62958">
        <ele>693</ele>
        <time>1970-01-01T02:13:14.000Z</time>
      </trkpt>
      <trkpt lat="45.4406" lon="4.62962">
        <ele>693.4</ele>
        <time>1970-01-01T02:13:15.000Z</time>
      </trkpt>
      <trkpt lat="45.44065" lon="4.62986">
        <ele>693.4</ele>
        <time>1970-01-01T02:13:21.000Z</time>
      </trkpt>
      <trkpt lat="45.44073" lon="4.63017">
        <ele>693.8</ele>
        <time>1970-01-01T02:13:28.000Z</time>
      </trkpt>
      <trkpt lat="45.44074" lon="4.63021">
        <ele>694.2</ele>
        <time>1970-01-01T02:13:29.000Z</time>
      </trkpt>
      <trkpt lat="45.44075" lon="4.63026">
        <ele>694.6</ele>
        <time>1970-01-01T02:13:30.000Z</time>
      </trkpt>
      <trkpt lat="45.44076" lon="4.6303">
        <ele>695</ele>
        <time>1970-01-01T02:13:31.000Z</time>
      </trkpt>
      <trkpt lat="45.44077" lon="4.63035">
        <ele>695.4</ele>
        <time>1970-01-01T02:13:32.000Z</time>
      </trkpt>
      <trkpt lat="45.44081" lon="4.63056">
        <ele>695.8</ele>
        <time>1970-01-01T02:13:37.000Z</time>
      </trkpt>
      <trkpt lat="45.44082" lon="4.6306">
        <ele>696.2</ele>
        <time>1970-01-01T02:13:38.000Z</time>
      </trkpt>
      <trkpt lat="45.44083" lon="4.63065">
        <ele>696.6</ele>
        <time>1970-01-01T02:13:39.000Z</time>
      </trkpt>
      <trkpt lat="45.44084" lon="4.63069">
        <ele>697</ele>
        <time>1970-01-01T02:13:40.000Z</time>
      </trkpt>
      <trkpt lat="45.44085" lon="4.63073">
        <ele>697.4</ele>
        <time>1970-01-01T02:13:41.000Z</time>
      </trkpt>
      <trkpt lat="45.44087" lon="4.63085">
        <ele>697.8</ele>
        <time>1970-01-01T02:13:44.000Z</time>
      </trkpt>
      <trkpt lat="45.44088" lon="4.63088">
        <ele>698.8</ele>
        <time>1970-01-01T02:13:45.000Z</time>
      </trkpt>
      <trkpt lat="45.44088" lon="4.6309">
        <ele>699.2</ele>
        <time>1970-01-01T02:13:46.000Z</time>
      </trkpt>
      <trkpt lat="45.44087" lon="4.63092">
        <ele>699.6</ele>
        <time>1970-01-01T02:13:47.000Z</time>
      </trkpt>
      <trkpt lat="45.44088" lon="4.63095">
        <ele>699.6</ele>
        <time>1970-01-01T02:13:49.000Z</time>
      </trkpt>
      <trkpt lat="45.44093" lon="4.63113">
        <ele>699.6</ele>
        <time>1970-01-01T02:13:54.000Z</time>
      </trkpt>
      <trkpt lat="45.44098" lon="4.63131">
        <ele>700</ele>
        <time>1970-01-01T02:13:58.000Z</time>
      </trkpt>
      <trkpt lat="45.441" lon="4.63135">
        <ele>700.4</ele>
        <time>1970-01-01T02:13:59.000Z</time>
      </trkpt>
      <trkpt lat="45.44101" lon="4.6314">
        <ele>700.8</ele>
        <time>1970-01-01T02:14:00.000Z</time>
      </trkpt>
      <trkpt lat="45.44103" lon="4.63144">
        <ele>701.2</ele>
        <time>1970-01-01T02:14:01.000Z</time>
      </trkpt>
      <trkpt lat="45.44104" lon="4.63148">
        <ele>701.6</ele>
        <time>1970-01-01T02:14:02.000Z</time>
      </trkpt>
      <trkpt lat="45.44108" lon="4.63159">
        <ele>701.6</ele>
        <time>1970-01-01T02:14:05.000Z</time>
      </trkpt>
      <trkpt lat="45.44119" lon="4.6319">
        <ele>701.6</ele>
        <time>1970-01-01T02:14:13.000Z</time>
      </trkpt>
      <trkpt lat="45.44121" lon="4.63194">
        <ele>702</ele>
        <time>1970-01-01T02:14:14.000Z</time>
      </trkpt>
      <trkpt lat="45.44123" lon="4.63197">
        <ele>702.4</ele>
        <time>1970-01-01T02:14:15.000Z</time>
      </trkpt>
      <trkpt lat="45.44124" lon="4.63201">
        <ele>702.8</ele>
        <time>1970-01-01T02:14:16.000Z</time>
      </trkpt>
      <trkpt lat="45.44127" lon="4.63205">
        <ele>703.2</ele>
        <time>1970-01-01T02:14:17.000Z</time>
      </trkpt>
      <trkpt lat="45.44128" lon="4.63208">
        <ele>703.6</ele>
        <time>1970-01-01T02:14:18.000Z</time>
      </trkpt>
      <trkpt lat="45.44133" lon="4.63215">
        <ele>704</ele>
        <time>1970-01-01T02:14:20.000Z</time>
      </trkpt>
      <trkpt lat="45.44135" lon="4.63218">
        <ele>704.4</ele>
        <time>1970-01-01T02:14:21.000Z</time>
      </trkpt>
      <trkpt lat="45.44137" lon="4.63221">
        <ele>704.8</ele>
        <time>1970-01-01T02:14:22.000Z</time>
      </trkpt>
      <trkpt lat="45.44139" lon="4.63224">
        <ele>705.4</ele>
        <time>1970-01-01T02:14:23.000Z</time>
      </trkpt>
      <trkpt lat="45.44141" lon="4.63226">
        <ele>705.8</ele>
        <time>1970-01-01T02:14:24.000Z</time>
      </trkpt>
      <trkpt lat="45.44146" lon="4.63231">
        <ele>705.8</ele>
        <time>1970-01-01T02:14:26.000Z</time>
      </trkpt>
      <trkpt lat="45.44163" lon="4.63244">
        <ele>705.8</ele>
        <time>1970-01-01T02:14:31.000Z</time>
      </trkpt>
      <trkpt lat="45.44182" lon="4.63251">
        <ele>705.8</ele>
        <time>1970-01-01T02:14:36.000Z</time>
      </trkpt>
      <trkpt lat="45.44201" lon="4.63255">
        <ele>705.8</ele>
        <time>1970-01-01T02:14:41.000Z</time>
      </trkpt>
      <trkpt lat="45.44223" lon="4.6326">
        <ele>705.8</ele>
        <time>1970-01-01T02:14:48.000Z</time>
      </trkpt>
      <trkpt lat="45.44226" lon="4.63265">
        <ele>705.8</ele>
        <time>1970-01-01T02:14:51.000Z</time>
      </trkpt>
      <trkpt lat="45.44228" lon="4.6328">
        <ele>705.8</ele>
        <time>1970-01-01T02:14:56.000Z</time>
      </trkpt>
      <trkpt lat="45.44231" lon="4.63296">
        <ele>705.8</ele>
        <time>1970-01-01T02:15:01.000Z</time>
      </trkpt>
      <trkpt lat="45.44234" lon="4.6331">
        <ele>705.8</ele>
        <time>1970-01-01T02:15:05.000Z</time>
      </trkpt>
      <trkpt lat="45.44233" lon="4.63313">
        <ele>705.8</ele>
        <time>1970-01-01T02:15:06.000Z</time>
      </trkpt>
      <trkpt lat="45.44231" lon="4.63318">
        <ele>705.8</ele>
        <time>1970-01-01T02:15:08.000Z</time>
      </trkpt>
      <trkpt lat="45.44227" lon="4.63316">
        <ele>705.8</ele>
        <time>1970-01-01T02:15:12.000Z</time>
      </trkpt>
      <trkpt lat="45.44211" lon="4.63317">
        <ele>705.8</ele>
        <time>1970-01-01T02:15:17.000Z</time>
      </trkpt>
      <trkpt lat="45.44198" lon="4.6332">
        <ele>705.8</ele>
        <time>1970-01-01T02:15:23.000Z</time>
      </trkpt>
      <trkpt lat="45.44187" lon="4.63325">
        <ele>705.8</ele>
        <time>1970-01-01T02:15:30.000Z</time>
      </trkpt>
      <trkpt lat="45.44183" lon="4.63329">
        <ele>706.2</ele>
        <time>1970-01-01T02:15:33.000Z</time>
      </trkpt>
      <trkpt lat="45.44181" lon="4.6333">
        <ele>706.6</ele>
        <time>1970-01-01T02:15:34.000Z</time>
      </trkpt>
      <trkpt lat="45.44179" lon="4.63331">
        <ele>707</ele>
        <time>1970-01-01T02:15:35.000Z</time>
      </trkpt>
      <trkpt lat="45.44178" lon="4.63332">
        <ele>707.4</ele>
        <time>1970-01-01T02:15:36.000Z</time>
      </trkpt>
      <trkpt lat="45.44174" lon="4.63332">
        <ele>707.8</ele>
        <time>1970-01-01T02:15:37.000Z</time>
      </trkpt>
      <trkpt lat="45.44163" lon="4.63337">
        <ele>708.2</ele>
        <time>1970-01-01T02:15:42.000Z</time>
      </trkpt>
      <trkpt lat="45.44161" lon="4.63337">
        <ele>708.8</ele>
        <time>1970-01-01T02:15:43.000Z</time>
      </trkpt>
      <trkpt lat="45.44159" lon="4.63338">
        <ele>709.2</ele>
        <time>1970-01-01T02:15:44.000Z</time>
      </trkpt>
      <trkpt lat="45.44157" lon="4.63339">
        <ele>709.6</ele>
        <time>1970-01-01T02:15:45.000Z</time>
      </trkpt>
      <trkpt lat="45.44156" lon="4.63339">
        <ele>710</ele>
        <time>1970-01-01T02:15:46.000Z</time>
      </trkpt>
      <trkpt lat="45.4415" lon="4.63342">
        <ele>710</ele>
        <time>1970-01-01T02:15:49.000Z</time>
      </trkpt>
      <trkpt lat="45.44148" lon="4.63343">
        <ele>710.6</ele>
        <time>1970-01-01T02:15:50.000Z</time>
      </trkpt>
      <trkpt lat="45.44146" lon="4.63344">
        <ele>711</ele>
        <time>1970-01-01T02:15:51.000Z</time>
      </trkpt>
      <trkpt lat="45.44144" lon="4.63344">
        <ele>711.4</ele>
        <time>1970-01-01T02:15:52.000Z</time>
      </trkpt>
      <trkpt lat="45.44142" lon="4.63346">
        <ele>711.8</ele>
        <time>1970-01-01T02:15:53.000Z</time>
      </trkpt>
      <trkpt lat="45.44141" lon="4.63348">
        <ele>712.2</ele>
        <time>1970-01-01T02:15:54.000Z</time>
      </trkpt>
      <trkpt lat="45.44139" lon="4.63351">
        <ele>712.2</ele>
        <time>1970-01-01T02:15:56.000Z</time>
      </trkpt>
      <trkpt lat="45.44134" lon="4.63359">
        <ele>712.6</ele>
        <time>1970-01-01T02:16:01.000Z</time>
      </trkpt>
      <trkpt lat="45.44132" lon="4.6336">
        <ele>713</ele>
        <time>1970-01-01T02:16:02.000Z</time>
      </trkpt>
      <trkpt lat="45.44131" lon="4.63361">
        <ele>713.4</ele>
        <time>1970-01-01T02:16:03.000Z</time>
      </trkpt>
      <trkpt lat="45.4413" lon="4.63362">
        <ele>714</ele>
        <time>1970-01-01T02:16:04.000Z</time>
      </trkpt>
      <trkpt lat="45.44129" lon="4.63363">
        <ele>714.4</ele>
        <time>1970-01-01T02:16:05.000Z</time>
      </trkpt>
      <trkpt lat="45.44127" lon="4.63364">
        <ele>714.8</ele>
        <time>1970-01-01T02:16:06.000Z</time>
      </trkpt>
      <trkpt lat="45.44126" lon="4.63366">
        <ele>715.2</ele>
        <time>1970-01-01T02:16:07.000Z</time>
      </trkpt>
      <trkpt lat="45.44124" lon="4.63367">
        <ele>715.6</ele>
        <time>1970-01-01T02:16:08.000Z</time>
      </trkpt>
      <trkpt lat="45.44123" lon="4.63368">
        <ele>716</ele>
        <time>1970-01-01T02:16:09.000Z</time>
      </trkpt>
      <trkpt lat="45.44122" lon="4.6337">
        <ele>716.4</ele>
        <time>1970-01-01T02:16:10.000Z</time>
      </trkpt>
      <trkpt lat="45.44118" lon="4.63374">
        <ele>716.8</ele>
        <time>1970-01-01T02:16:13.000Z</time>
      </trkpt>
      <trkpt lat="45.44117" lon="4.63375">
        <ele>717.6</ele>
        <time>1970-01-01T02:16:14.000Z</time>
      </trkpt>
      <trkpt lat="45.44115" lon="4.63376">
        <ele>718</ele>
        <time>1970-01-01T02:16:15.000Z</time>
      </trkpt>
      <trkpt lat="45.44114" lon="4.63377">
        <ele>718.6</ele>
        <time>1970-01-01T02:16:16.000Z</time>
      </trkpt>
      <trkpt lat="45.44111" lon="4.6338">
        <ele>718.6</ele>
        <time>1970-01-01T02:16:18.000Z</time>
      </trkpt>
      <trkpt lat="45.44103" lon="4.63386">
        <ele>719</ele>
        <time>1970-01-01T02:16:24.000Z</time>
      </trkpt>
      <trkpt lat="45.441" lon="4.63387">
        <ele>719.4</ele>
        <time>1970-01-01T02:16:25.000Z</time>
      </trkpt>
      <trkpt lat="45.44099" lon="4.63388">
        <ele>719.8</ele>
        <time>1970-01-01T02:16:26.000Z</time>
      </trkpt>
      <trkpt lat="45.44098" lon="4.63389">
        <ele>720.4</ele>
        <time>1970-01-01T02:16:27.000Z</time>
      </trkpt>
      <trkpt lat="45.44097" lon="4.6339">
        <ele>720.8</ele>
        <time>1970-01-01T02:16:28.000Z</time>
      </trkpt>
      <trkpt lat="45.44096" lon="4.63392">
        <ele>721.2</ele>
        <time>1970-01-01T02:16:30.000Z</time>
      </trkpt>
      <trkpt lat="45.44094" lon="4.63392">
        <ele>721.6</ele>
        <time>1970-01-01T02:16:31.000Z</time>
      </trkpt>
      <trkpt lat="45.44092" lon="4.63394">
        <ele>722</ele>
        <time>1970-01-01T02:16:32.000Z</time>
      </trkpt>
      <trkpt lat="45.44091" lon="4.63395">
        <ele>722.4</ele>
        <time>1970-01-01T02:16:33.000Z</time>
      </trkpt>
      <trkpt lat="45.44089" lon="4.63396">
        <ele>722.8</ele>
        <time>1970-01-01T02:16:34.000Z</time>
      </trkpt>
      <trkpt lat="45.44086" lon="4.63399">
        <ele>722.8</ele>
        <time>1970-01-01T02:16:36.000Z</time>
      </trkpt>
      <trkpt lat="45.44075" lon="4.63407">
        <ele>723.4</ele>
        <time>1970-01-01T02:16:42.000Z</time>
      </trkpt>
      <trkpt lat="45.44074" lon="4.63408">
        <ele>723.8</ele>
        <time>1970-01-01T02:16:43.000Z</time>
      </trkpt>
      <trkpt lat="45.44072" lon="4.63409">
        <ele>724.4</ele>
        <time>1970-01-01T02:16:44.000Z</time>
      </trkpt>
      <trkpt lat="45.44071" lon="4.6341">
        <ele>724.8</ele>
        <time>1970-01-01T02:16:45.000Z</time>
      </trkpt>
      <trkpt lat="45.44069" lon="4.63411">
        <ele>725.4</ele>
        <time>1970-01-01T02:16:46.000Z</time>
      </trkpt>
      <trkpt lat="45.44064" lon="4.63414">
        <ele>725.8</ele>
        <time>1970-01-01T02:16:50.000Z</time>
      </trkpt>
      <trkpt lat="45.44062" lon="4.63415">
        <ele>726.2</ele>
        <time>1970-01-01T02:16:51.000Z</time>
      </trkpt>
      <trkpt lat="45.44061" lon="4.63416">
        <ele>726.6</ele>
        <time>1970-01-01T02:16:52.000Z</time>
      </trkpt>
      <trkpt lat="45.4406" lon="4.63417">
        <ele>727</ele>
        <time>1970-01-01T02:16:53.000Z</time>
      </trkpt>
      <trkpt lat="45.44058" lon="4.63418">
        <ele>727.4</ele>
        <time>1970-01-01T02:16:54.000Z</time>
      </trkpt>
      <trkpt lat="45.44057" lon="4.63418">
        <ele>728</ele>
        <time>1970-01-01T02:16:55.000Z</time>
      </trkpt>
      <trkpt lat="45.44056" lon="4.63419">
        <ele>728.4</ele>
        <time>1970-01-01T02:16:56.000Z</time>
      </trkpt>
      <trkpt lat="45.44055" lon="4.6342">
        <ele>729</ele>
        <time>1970-01-01T02:16:57.000Z</time>
      </trkpt>
      <trkpt lat="45.44054" lon="4.63421">
        <ele>729.4</ele>
        <time>1970-01-01T02:16:58.000Z</time>
      </trkpt>
      <trkpt lat="45.44052" lon="4.63423">
        <ele>730</ele>
        <time>1970-01-01T02:16:59.000Z</time>
      </trkpt>
      <trkpt lat="45.4405" lon="4.63424">
        <ele>730.4</ele>
        <time>1970-01-01T02:17:01.000Z</time>
      </trkpt>
      <trkpt lat="45.44048" lon="4.63425">
        <ele>730.8</ele>
        <time>1970-01-01T02:17:02.000Z</time>
      </trkpt>
      <trkpt lat="45.44046" lon="4.63425">
        <ele>731.6</ele>
        <time>1970-01-01T02:17:03.000Z</time>
      </trkpt>
      <trkpt lat="45.44045" lon="4.63426">
        <ele>732</ele>
        <time>1970-01-01T02:17:04.000Z</time>
      </trkpt>
      <trkpt lat="45.4404" lon="4.63428">
        <ele>732</ele>
        <time>1970-01-01T02:17:07.000Z</time>
      </trkpt>
      <trkpt lat="45.44038" lon="4.63428">
        <ele>732.6</ele>
        <time>1970-01-01T02:17:08.000Z</time>
      </trkpt>
      <trkpt lat="45.44037" lon="4.63428">
        <ele>733</ele>
        <time>1970-01-01T02:17:09.000Z</time>
      </trkpt>
      <trkpt lat="45.44036" lon="4.63427">
        <ele>733.4</ele>
        <time>1970-01-01T02:17:10.000Z</time>
      </trkpt>
      <trkpt lat="45.44035" lon="4.63426">
        <ele>733.8</ele>
        <time>1970-01-01T02:17:11.000Z</time>
      </trkpt>
      <trkpt lat="45.44034" lon="4.63425">
        <ele>734.2</ele>
        <time>1970-01-01T02:17:12.000Z</time>
      </trkpt>
      <trkpt lat="45.44033" lon="4.63424">
        <ele>734.6</ele>
        <time>1970-01-01T02:17:14.000Z</time>
      </trkpt>
      <trkpt lat="45.44032" lon="4.63423">
        <ele>735</ele>
        <time>1970-01-01T02:17:15.000Z</time>
      </trkpt>
      <trkpt lat="45.44031" lon="4.63423">
        <ele>735.4</ele>
        <time>1970-01-01T02:17:16.000Z</time>
      </trkpt>
      <trkpt lat="45.4403" lon="4.63423">
        <ele>736</ele>
        <time>1970-01-01T02:17:17.000Z</time>
      </trkpt>
      <trkpt lat="45.44029" lon="4.63422">
        <ele>736.4</ele>
        <time>1970-01-01T02:17:18.000Z</time>
      </trkpt>
      <trkpt lat="45.44027" lon="4.6342">
        <ele>736.8</ele>
        <time>1970-01-01T02:17:21.000Z</time>
      </trkpt>
      <trkpt lat="45.44026" lon="4.63419">
        <ele>737.2</ele>
        <time>1970-01-01T02:17:22.000Z</time>
      </trkpt>
      <trkpt lat="45.44025" lon="4.63419">
        <ele>737.6</ele>
        <time>1970-01-01T02:17:23.000Z</time>
      </trkpt>
      <trkpt lat="45.44024" lon="4.63418">
        <ele>738</ele>
        <time>1970-01-01T02:17:24.000Z</time>
      </trkpt>
      <trkpt lat="45.44022" lon="4.63417">
        <ele>738.4</ele>
        <time>1970-01-01T02:17:25.000Z</time>
      </trkpt>
      <trkpt lat="45.4402" lon="4.63416">
        <ele>738.4</ele>
        <time>1970-01-01T02:17:27.000Z</time>
      </trkpt>
      <trkpt lat="45.44019" lon="4.63415">
        <ele>739</ele>
        <time>1970-01-01T02:17:28.000Z</time>
      </trkpt>
      <trkpt lat="45.44018" lon="4.63414">
        <ele>739.4</ele>
        <time>1970-01-01T02:17:29.000Z</time>
      </trkpt>
      <trkpt lat="45.44017" lon="4.63413">
        <ele>739.8</ele>
        <time>1970-01-01T02:17:30.000Z</time>
      </trkpt>
      <trkpt lat="45.44016" lon="4.63412">
        <ele>740.4</ele>
        <time>1970-01-01T02:17:31.000Z</time>
      </trkpt>
      <trkpt lat="45.44015" lon="4.63411">
        <ele>740.8</ele>
        <time>1970-01-01T02:17:32.000Z</time>
      </trkpt>
      <trkpt lat="45.44013" lon="4.63409">
        <ele>740.8</ele>
        <time>1970-01-01T02:17:34.000Z</time>
      </trkpt>
      <trkpt lat="45.4401" lon="4.63405">
        <ele>740.8</ele>
        <time>1970-01-01T02:17:40.000Z</time>
      </trkpt>
      <trkpt lat="45.44009" lon="4.63405">
        <ele>740.8</ele>
        <time>1970-01-01T02:17:41.000Z</time>
      </trkpt>
      <trkpt lat="45.44006" lon="4.63402">
        <ele>741.2</ele>
        <time>1970-01-01T02:17:44.000Z</time>
      </trkpt>
      <trkpt lat="45.44004" lon="4.634">
        <ele>741.6</ele>
        <time>1970-01-01T02:17:45.000Z</time>
      </trkpt>
      <trkpt lat="45.44002" lon="4.63399">
        <ele>742</ele>
        <time>1970-01-01T02:17:46.000Z</time>
      </trkpt>
      <trkpt lat="45.44001" lon="4.63399">
        <ele>742.4</ele>
        <time>1970-01-01T02:17:47.000Z</time>
      </trkpt>
      <trkpt lat="45.44" lon="4.63398">
        <ele>742.8</ele>
        <time>1970-01-01T02:17:48.000Z</time>
      </trkpt>
      <trkpt lat="45.43997" lon="4.63397">
        <ele>742.8</ele>
        <time>1970-01-01T02:17:50.000Z</time>
      </trkpt>
      <trkpt lat="45.43996" lon="4.63396">
        <ele>743.2</ele>
        <time>1970-01-01T02:17:51.000Z</time>
      </trkpt>
      <trkpt lat="45.43992" lon="4.63395">
        <ele>744</ele>
        <time>1970-01-01T02:17:52.000Z</time>
      </trkpt>
      <trkpt lat="45.43989" lon="4.63394">
        <ele>744.4</ele>
        <time>1970-01-01T02:17:53.000Z</time>
      </trkpt>
      <trkpt lat="45.43987" lon="4.63392">
        <ele>744.8</ele>
        <time>1970-01-01T02:17:54.000Z</time>
      </trkpt>
      <trkpt lat="45.43983" lon="4.63391">
        <ele>744.8</ele>
        <time>1970-01-01T02:17:56.000Z</time>
      </trkpt>
      <trkpt lat="45.43976" lon="4.63388">
        <ele>744.8</ele>
        <time>1970-01-01T02:18:02.000Z</time>
      </trkpt>
      <trkpt lat="45.43975" lon="4.63387">
        <ele>745.2</ele>
        <time>1970-01-01T02:18:03.000Z</time>
      </trkpt>
      <trkpt lat="45.43974" lon="4.63386">
        <ele>745.6</ele>
        <time>1970-01-01T02:18:04.000Z</time>
      </trkpt>
      <trkpt lat="45.43972" lon="4.63386">
        <ele>746</ele>
        <time>1970-01-01T02:18:05.000Z</time>
      </trkpt>
      <trkpt lat="45.4397" lon="4.63386">
        <ele>746.4</ele>
        <time>1970-01-01T02:18:06.000Z</time>
      </trkpt>
      <trkpt lat="45.43969" lon="4.63386">
        <ele>746.8</ele>
        <time>1970-01-01T02:18:07.000Z</time>
      </trkpt>
      <trkpt lat="45.43967" lon="4.63386">
        <ele>746.8</ele>
        <time>1970-01-01T02:18:08.000Z</time>
      </trkpt>
      <trkpt lat="45.43959" lon="4.63382">
        <ele>747.4</ele>
        <time>1970-01-01T02:18:13.000Z</time>
      </trkpt>
      <trkpt lat="45.43958" lon="4.63382">
        <ele>747.8</ele>
        <time>1970-01-01T02:18:14.000Z</time>
      </trkpt>
      <trkpt lat="45.43957" lon="4.63381">
        <ele>748.2</ele>
        <time>1970-01-01T02:18:15.000Z</time>
      </trkpt>
      <trkpt lat="45.43955" lon="4.63381">
        <ele>748.6</ele>
        <time>1970-01-01T02:18:16.000Z</time>
      </trkpt>
      <trkpt lat="45.43954" lon="4.63381">
        <ele>749</ele>
        <time>1970-01-01T02:18:17.000Z</time>
      </trkpt>
      <trkpt lat="45.43952" lon="4.6338">
        <ele>749</ele>
        <time>1970-01-01T02:18:19.000Z</time>
      </trkpt>
      <trkpt lat="45.4395" lon="4.6338">
        <ele>749.4</ele>
        <time>1970-01-01T02:18:20.000Z</time>
      </trkpt>
      <trkpt lat="45.43949" lon="4.63379">
        <ele>749.8</ele>
        <time>1970-01-01T02:18:21.000Z</time>
      </trkpt>
      <trkpt lat="45.43948" lon="4.63379">
        <ele>750.2</ele>
        <time>1970-01-01T02:18:22.000Z</time>
      </trkpt>
      <trkpt lat="45.43947" lon="4.63378">
        <ele>750.8</ele>
        <time>1970-01-01T02:18:23.000Z</time>
      </trkpt>
      <trkpt lat="45.43945" lon="4.63377">
        <ele>751.2</ele>
        <time>1970-01-01T02:18:24.000Z</time>
      </trkpt>
      <trkpt lat="45.43939" lon="4.63372">
        <ele>751.2</ele>
        <time>1970-01-01T02:18:29.000Z</time>
      </trkpt>
      <trkpt lat="45.43936" lon="4.6337">
        <ele>751.6</ele>
        <time>1970-01-01T02:18:31.000Z</time>
      </trkpt>
      <trkpt lat="45.43935" lon="4.6337">
        <ele>752</ele>
        <time>1970-01-01T02:18:32.000Z</time>
      </trkpt>
      <trkpt lat="45.43933" lon="4.6337">
        <ele>752.4</ele>
        <time>1970-01-01T02:18:33.000Z</time>
      </trkpt>
      <trkpt lat="45.43932" lon="4.63369">
        <ele>752.8</ele>
        <time>1970-01-01T02:18:34.000Z</time>
      </trkpt>
      <trkpt lat="45.4393" lon="4.63369">
        <ele>753.4</ele>
        <time>1970-01-01T02:18:35.000Z</time>
      </trkpt>
      <trkpt lat="45.43928" lon="4.63369">
        <ele>753.4</ele>
        <time>1970-01-01T02:18:37.000Z</time>
      </trkpt>
      <trkpt lat="45.43924" lon="4.63367">
        <ele>753.8</ele>
        <time>1970-01-01T02:18:40.000Z</time>
      </trkpt>
      <trkpt lat="45.43922" lon="4.63367">
        <ele>754.2</ele>
        <time>1970-01-01T02:18:41.000Z</time>
      </trkpt>
      <trkpt lat="45.43921" lon="4.63366">
        <ele>755.2</ele>
        <time>1970-01-01T02:18:42.000Z</time>
      </trkpt>
      <trkpt lat="45.4392" lon="4.63365">
        <ele>755.6</ele>
        <time>1970-01-01T02:18:43.000Z</time>
      </trkpt>
      <trkpt lat="45.43919" lon="4.63364">
        <ele>755.6</ele>
        <time>1970-01-01T02:18:44.000Z</time>
      </trkpt>
      <trkpt lat="45.43907" lon="4.63356">
        <ele>755.6</ele>
        <time>1970-01-01T02:18:51.000Z</time>
      </trkpt>
      <trkpt lat="45.43902" lon="4.63354">
        <ele>756</ele>
        <time>1970-01-01T02:18:54.000Z</time>
      </trkpt>
      <trkpt lat="45.43901" lon="4.63353">
        <ele>756.4</ele>
        <time>1970-01-01T02:18:55.000Z</time>
      </trkpt>
      <trkpt lat="45.43899" lon="4.63352">
        <ele>756.8</ele>
        <time>1970-01-01T02:18:56.000Z</time>
      </trkpt>
      <trkpt lat="45.43898" lon="4.63351">
        <ele>757.2</ele>
        <time>1970-01-01T02:18:57.000Z</time>
      </trkpt>
      <trkpt lat="45.43897" lon="4.6335">
        <ele>757.6</ele>
        <time>1970-01-01T02:18:58.000Z</time>
      </trkpt>
      <trkpt lat="45.43897" lon="4.63349">
        <ele>757.6</ele>
        <time>1970-01-01T02:18:59.000Z</time>
      </trkpt>
      <trkpt lat="45.43894" lon="4.63346">
        <ele>758.2</ele>
        <time>1970-01-01T02:19:01.000Z</time>
      </trkpt>
      <trkpt lat="45.43893" lon="4.63345">
        <ele>758.6</ele>
        <time>1970-01-01T02:19:02.000Z</time>
      </trkpt>
      <trkpt lat="45.43891" lon="4.63344">
        <ele>759.2</ele>
        <time>1970-01-01T02:19:03.000Z</time>
      </trkpt>
      <trkpt lat="45.4389" lon="4.63343">
        <ele>759.6</ele>
        <time>1970-01-01T02:19:04.000Z</time>
      </trkpt>
      <trkpt lat="45.43888" lon="4.63341">
        <ele>760.2</ele>
        <time>1970-01-01T02:19:05.000Z</time>
      </trkpt>
      <trkpt lat="45.43883" lon="4.63336">
        <ele>760.2</ele>
        <time>1970-01-01T02:19:09.000Z</time>
      </trkpt>
      <trkpt lat="45.43881" lon="4.63334">
        <ele>760.6</ele>
        <time>1970-01-01T02:19:11.000Z</time>
      </trkpt>
      <trkpt lat="45.43879" lon="4.63333">
        <ele>761</ele>
        <time>1970-01-01T02:19:12.000Z</time>
      </trkpt>
      <trkpt lat="45.43878" lon="4.63332">
        <ele>761.4</ele>
        <time>1970-01-01T02:19:13.000Z</time>
      </trkpt>
      <trkpt lat="45.43877" lon="4.63331">
        <ele>761.8</ele>
        <time>1970-01-01T02:19:14.000Z</time>
      </trkpt>
      <trkpt lat="45.43876" lon="4.6333">
        <ele>762.2</ele>
        <time>1970-01-01T02:19:15.000Z</time>
      </trkpt>
      <trkpt lat="45.43869" lon="4.63325">
        <ele>762.6</ele>
        <time>1970-01-01T02:19:20.000Z</time>
      </trkpt>
      <trkpt lat="45.43868" lon="4.63324">
        <ele>763</ele>
        <time>1970-01-01T02:19:21.000Z</time>
      </trkpt>
      <trkpt lat="45.43867" lon="4.63323">
        <ele>763.4</ele>
        <time>1970-01-01T02:19:22.000Z</time>
      </trkpt>
      <trkpt lat="45.43865" lon="4.63321">
        <ele>763.8</ele>
        <time>1970-01-01T02:19:23.000Z</time>
      </trkpt>
      <trkpt lat="45.43864" lon="4.6332">
        <ele>764.2</ele>
        <time>1970-01-01T02:19:24.000Z</time>
      </trkpt>
      <trkpt lat="45.43861" lon="4.63317">
        <ele>764.2</ele>
        <time>1970-01-01T02:19:27.000Z</time>
      </trkpt>
      <trkpt lat="45.43852" lon="4.6331">
        <ele>764.2</ele>
        <time>1970-01-01T02:19:33.000Z</time>
      </trkpt>
      <trkpt lat="45.43849" lon="4.63308">
        <ele>764.6</ele>
        <time>1970-01-01T02:19:35.000Z</time>
      </trkpt>
      <trkpt lat="45.43847" lon="4.63306">
        <ele>765</ele>
        <time>1970-01-01T02:19:36.000Z</time>
      </trkpt>
      <trkpt lat="45.43845" lon="4.63305">
        <ele>765.6</ele>
        <time>1970-01-01T02:19:37.000Z</time>
      </trkpt>
      <trkpt lat="45.43843" lon="4.63303">
        <ele>766</ele>
        <time>1970-01-01T02:19:38.000Z</time>
      </trkpt>
      <trkpt lat="45.43842" lon="4.63302">
        <ele>766.4</ele>
        <time>1970-01-01T02:19:39.000Z</time>
      </trkpt>
      <trkpt lat="45.4384" lon="4.63301">
        <ele>766.4</ele>
        <time>1970-01-01T02:19:40.000Z</time>
      </trkpt>
      <trkpt lat="45.43834" lon="4.63297">
        <ele>766.8</ele>
        <time>1970-01-01T02:19:44.000Z</time>
      </trkpt>
      <trkpt lat="45.43833" lon="4.63295">
        <ele>767.4</ele>
        <time>1970-01-01T02:19:45.000Z</time>
      </trkpt>
      <trkpt lat="45.43831" lon="4.63294">
        <ele>767.8</ele>
        <time>1970-01-01T02:19:46.000Z</time>
      </trkpt>
      <trkpt lat="45.4383" lon="4.63292">
        <ele>768.2</ele>
        <time>1970-01-01T02:19:47.000Z</time>
      </trkpt>
      <trkpt lat="45.43829" lon="4.6329">
        <ele>768.8</ele>
        <time>1970-01-01T02:19:48.000Z</time>
      </trkpt>
      <trkpt lat="45.43822" lon="4.63284">
        <ele>768.8</ele>
        <time>1970-01-01T02:19:53.000Z</time>
      </trkpt>
      <trkpt lat="45.43819" lon="4.63281">
        <ele>769.6</ele>
        <time>1970-01-01T02:19:55.000Z</time>
      </trkpt>
      <trkpt lat="45.43817" lon="4.63279">
        <ele>770</ele>
        <time>1970-01-01T02:19:56.000Z</time>
      </trkpt>
      <trkpt lat="45.43816" lon="4.63278">
        <ele>770.4</ele>
        <time>1970-01-01T02:19:57.000Z</time>
      </trkpt>
      <trkpt lat="45.43814" lon="4.63277">
        <ele>771</ele>
        <time>1970-01-01T02:19:58.000Z</time>
      </trkpt>
      <trkpt lat="45.43811" lon="4.63274">
        <ele>771</ele>
        <time>1970-01-01T02:20:00.000Z</time>
      </trkpt>
      <trkpt lat="45.43806" lon="4.63269">
        <ele>771.4</ele>
        <time>1970-01-01T02:20:05.000Z</time>
      </trkpt>
      <trkpt lat="45.43804" lon="4.63267">
        <ele>771.8</ele>
        <time>1970-01-01T02:20:06.000Z</time>
      </trkpt>
      <trkpt lat="45.43802" lon="4.63265">
        <ele>772.2</ele>
        <time>1970-01-01T02:20:07.000Z</time>
      </trkpt>
      <trkpt lat="45.43801" lon="4.63263">
        <ele>772.8</ele>
        <time>1970-01-01T02:20:08.000Z</time>
      </trkpt>
      <trkpt lat="45.43799" lon="4.63261">
        <ele>773.2</ele>
        <time>1970-01-01T02:20:09.000Z</time>
      </trkpt>
      <trkpt lat="45.43792" lon="4.63254">
        <ele>773.2</ele>
        <time>1970-01-01T02:20:14.000Z</time>
      </trkpt>
      <trkpt lat="45.43787" lon="4.63251">
        <ele>773.6</ele>
        <time>1970-01-01T02:20:17.000Z</time>
      </trkpt>
      <trkpt lat="45.43785" lon="4.63249">
        <ele>774</ele>
        <time>1970-01-01T02:20:18.000Z</time>
      </trkpt>
      <trkpt lat="45.43784" lon="4.63247">
        <ele>775</ele>
        <time>1970-01-01T02:20:19.000Z</time>
      </trkpt>
      <trkpt lat="45.43783" lon="4.63246">
        <ele>775.4</ele>
        <time>1970-01-01T02:20:20.000Z</time>
      </trkpt>
      <trkpt lat="45.43781" lon="4.63245">
        <ele>775.4</ele>
        <time>1970-01-01T02:20:21.000Z</time>
      </trkpt>
      <trkpt lat="45.43776" lon="4.63238">
        <ele>775.4</ele>
        <time>1970-01-01T02:20:25.000Z</time>
      </trkpt>
      <trkpt lat="45.43774" lon="4.63237">
        <ele>775.8</ele>
        <time>1970-01-01T02:20:26.000Z</time>
      </trkpt>
      <trkpt lat="45.43773" lon="4.63235">
        <ele>776.2</ele>
        <time>1970-01-01T02:20:27.000Z</time>
      </trkpt>
      <trkpt lat="45.43771" lon="4.63234">
        <ele>776.8</ele>
        <time>1970-01-01T02:20:28.000Z</time>
      </trkpt>
      <trkpt lat="45.43768" lon="4.63232">
        <ele>777.2</ele>
        <time>1970-01-01T02:20:29.000Z</time>
      </trkpt>
      <trkpt lat="45.43766" lon="4.6323">
        <ele>777.6</ele>
        <time>1970-01-01T02:20:30.000Z</time>
      </trkpt>
      <trkpt lat="45.43762" lon="4.63226">
        <ele>777.6</ele>
        <time>1970-01-01T02:20:32.000Z</time>
      </trkpt>
      <trkpt lat="45.43757" lon="4.63221">
        <ele>777.6</ele>
        <time>1970-01-01T02:20:36.000Z</time>
      </trkpt>
      <trkpt lat="45.43756" lon="4.63219">
        <ele>778</ele>
        <time>1970-01-01T02:20:37.000Z</time>
      </trkpt>
      <trkpt lat="45.43754" lon="4.63218">
        <ele>778.4</ele>
        <time>1970-01-01T02:20:38.000Z</time>
      </trkpt>
      <trkpt lat="45.43752" lon="4.63216">
        <ele>779</ele>
        <time>1970-01-01T02:20:39.000Z</time>
      </trkpt>
      <trkpt lat="45.43751" lon="4.63214">
        <ele>779.4</ele>
        <time>1970-01-01T02:20:40.000Z</time>
      </trkpt>
      <trkpt lat="45.4375" lon="4.63211">
        <ele>779.8</ele>
        <time>1970-01-01T02:20:41.000Z</time>
      </trkpt>
      <trkpt lat="45.43749" lon="4.63209">
        <ele>779.8</ele>
        <time>1970-01-01T02:20:42.000Z</time>
      </trkpt>
      <trkpt lat="45.43745" lon="4.63204">
        <ele>780.2</ele>
        <time>1970-01-01T02:20:45.000Z</time>
      </trkpt>
      <trkpt lat="45.43744" lon="4.63202">
        <ele>780.8</ele>
        <time>1970-01-01T02:20:46.000Z</time>
      </trkpt>
      <trkpt lat="45.43743" lon="4.632">
        <ele>781.2</ele>
        <time>1970-01-01T02:20:47.000Z</time>
      </trkpt>
      <trkpt lat="45.43742" lon="4.63199">
        <ele>781.6</ele>
        <time>1970-01-01T02:20:48.000Z</time>
      </trkpt>
      <trkpt lat="45.43741" lon="4.63197">
        <ele>782</ele>
        <time>1970-01-01T02:20:49.000Z</time>
      </trkpt>
      <trkpt lat="45.43737" lon="4.6319">
        <ele>782.4</ele>
        <time>1970-01-01T02:20:53.000Z</time>
      </trkpt>
      <trkpt lat="45.43736" lon="4.63189">
        <ele>782.8</ele>
        <time>1970-01-01T02:20:54.000Z</time>
      </trkpt>
      <trkpt lat="45.43735" lon="4.63187">
        <ele>783.2</ele>
        <time>1970-01-01T02:20:55.000Z</time>
      </trkpt>
      <trkpt lat="45.43734" lon="4.63186">
        <ele>783.6</ele>
        <time>1970-01-01T02:20:56.000Z</time>
      </trkpt>
      <trkpt lat="45.43732" lon="4.63184">
        <ele>784</ele>
        <time>1970-01-01T02:20:57.000Z</time>
      </trkpt>
      <trkpt lat="45.43728" lon="4.63181">
        <ele>784.4</ele>
        <time>1970-01-01T02:20:59.000Z</time>
      </trkpt>
      <trkpt lat="45.43726" lon="4.63179">
        <ele>784.8</ele>
        <time>1970-01-01T02:21:00.000Z</time>
      </trkpt>
      <trkpt lat="45.43724" lon="4.63178">
        <ele>785.2</ele>
        <time>1970-01-01T02:21:01.000Z</time>
      </trkpt>
      <trkpt lat="45.43721" lon="4.63177">
        <ele>785.6</ele>
        <time>1970-01-01T02:21:02.000Z</time>
      </trkpt>
      <trkpt lat="45.43719" lon="4.63175">
        <ele>786.2</ele>
        <time>1970-01-01T02:21:03.000Z</time>
      </trkpt>
      <trkpt lat="45.43716" lon="4.63172">
        <ele>786.2</ele>
        <time>1970-01-01T02:21:05.000Z</time>
      </trkpt>
      <trkpt lat="45.43709" lon="4.63166">
        <ele>786.6</ele>
        <time>1970-01-01T02:21:10.000Z</time>
      </trkpt>
      <trkpt lat="45.43707" lon="4.63164">
        <ele>787</ele>
        <time>1970-01-01T02:21:11.000Z</time>
      </trkpt>
      <trkpt lat="45.43705" lon="4.63163">
        <ele>787.4</ele>
        <time>1970-01-01T02:21:12.000Z</time>
      </trkpt>
      <trkpt lat="45.43704" lon="4.63161">
        <ele>787.8</ele>
        <time>1970-01-01T02:21:13.000Z</time>
      </trkpt>
      <trkpt lat="45.43703" lon="4.63158">
        <ele>788.2</ele>
        <time>1970-01-01T02:21:14.000Z</time>
      </trkpt>
      <trkpt lat="45.43702" lon="4.63157">
        <ele>788.2</ele>
        <time>1970-01-01T02:21:15.000Z</time>
      </trkpt>
      <trkpt lat="45.43701" lon="4.63155">
        <ele>788.2</ele>
        <time>1970-01-01T02:21:16.000Z</time>
      </trkpt>
      <trkpt lat="45.43699" lon="4.63152">
        <ele>788.6</ele>
        <time>1970-01-01T02:21:17.000Z</time>
      </trkpt>
      <trkpt lat="45.43698" lon="4.63149">
        <ele>789</ele>
        <time>1970-01-01T02:21:18.000Z</time>
      </trkpt>
      <trkpt lat="45.43697" lon="4.63147">
        <ele>789.4</ele>
        <time>1970-01-01T02:21:19.000Z</time>
      </trkpt>
      <trkpt lat="45.43696" lon="4.63144">
        <ele>789.8</ele>
        <time>1970-01-01T02:21:20.000Z</time>
      </trkpt>
      <trkpt lat="45.43695" lon="4.63142">
        <ele>790.2</ele>
        <time>1970-01-01T02:21:21.000Z</time>
      </trkpt>
      <trkpt lat="45.43693" lon="4.63133">
        <ele>790.2</ele>
        <time>1970-01-01T02:21:26.000Z</time>
      </trkpt>
      <trkpt lat="45.43691" lon="4.63131">
        <ele>790.6</ele>
        <time>1970-01-01T02:21:27.000Z</time>
      </trkpt>
      <trkpt lat="45.4369" lon="4.63129">
        <ele>791</ele>
        <time>1970-01-01T02:21:28.000Z</time>
      </trkpt>
      <trkpt lat="45.4369" lon="4.63127">
        <ele>791.4</ele>
        <time>1970-01-01T02:21:29.000Z</time>
      </trkpt>
      <trkpt lat="45.43689" lon="4.63125">
        <ele>791.8</ele>
        <time>1970-01-01T02:21:30.000Z</time>
      </trkpt>
      <trkpt lat="45.43688" lon="4.63122">
        <ele>792.2</ele>
        <time>1970-01-01T02:21:31.000Z</time>
      </trkpt>
      <trkpt lat="45.43687" lon="4.63115">
        <ele>792.8</ele>
        <time>1970-01-01T02:21:34.000Z</time>
      </trkpt>
      <trkpt lat="45.43686" lon="4.63113">
        <ele>793.2</ele>
        <time>1970-01-01T02:21:35.000Z</time>
      </trkpt>
      <trkpt lat="45.43685" lon="4.63111">
        <ele>793.8</ele>
        <time>1970-01-01T02:21:36.000Z</time>
      </trkpt>
      <trkpt lat="45.43685" lon="4.63108">
        <ele>794.2</ele>
        <time>1970-01-01T02:21:37.000Z</time>
      </trkpt>
      <trkpt lat="45.43684" lon="4.63106">
        <ele>794.6</ele>
        <time>1970-01-01T02:21:38.000Z</time>
      </trkpt>
      <trkpt lat="45.43682" lon="4.63104">
        <ele>794.6</ele>
        <time>1970-01-01T02:21:39.000Z</time>
      </trkpt>
      <trkpt lat="45.4368" lon="4.63101">
        <ele>794.6</ele>
        <time>1970-01-01T02:21:41.000Z</time>
      </trkpt>
      <trkpt lat="45.43678" lon="4.63096">
        <ele>795.2</ele>
        <time>1970-01-01T02:21:43.000Z</time>
      </trkpt>
      <trkpt lat="45.43677" lon="4.63094">
        <ele>795.6</ele>
        <time>1970-01-01T02:21:44.000Z</time>
      </trkpt>
      <trkpt lat="45.43676" lon="4.63091">
        <ele>796</ele>
        <time>1970-01-01T02:21:45.000Z</time>
      </trkpt>
      <trkpt lat="45.43675" lon="4.63088">
        <ele>796.4</ele>
        <time>1970-01-01T02:21:46.000Z</time>
      </trkpt>
      <trkpt lat="45.43675" lon="4.63086">
        <ele>797</ele>
        <time>1970-01-01T02:21:47.000Z</time>
      </trkpt>
      <trkpt lat="45.43673" lon="4.63078">
        <ele>797.4</ele>
        <time>1970-01-01T02:21:50.000Z</time>
      </trkpt>
      <trkpt lat="45.43673" lon="4.63076">
        <ele>797.8</ele>
        <time>1970-01-01T02:21:51.000Z</time>
      </trkpt>
      <trkpt lat="45.43672" lon="4.63073">
        <ele>798.2</ele>
        <time>1970-01-01T02:21:52.000Z</time>
      </trkpt>
      <trkpt lat="45.43671" lon="4.63071">
        <ele>798.8</ele>
        <time>1970-01-01T02:21:53.000Z</time>
      </trkpt>
      <trkpt lat="45.4367" lon="4.63069">
        <ele>799.2</ele>
        <time>1970-01-01T02:21:54.000Z</time>
      </trkpt>
      <trkpt lat="45.43669" lon="4.63067">
        <ele>799.2</ele>
        <time>1970-01-01T02:21:55.000Z</time>
      </trkpt>
      <trkpt lat="45.43667" lon="4.63063">
        <ele>799.2</ele>
        <time>1970-01-01T02:21:57.000Z</time>
      </trkpt>
      <trkpt lat="45.43665" lon="4.63058">
        <ele>799.6</ele>
        <time>1970-01-01T02:21:59.000Z</time>
      </trkpt>
      <trkpt lat="45.43664" lon="4.63056">
        <ele>800</ele>
        <time>1970-01-01T02:22:00.000Z</time>
      </trkpt>
      <trkpt lat="45.43662" lon="4.63054">
        <ele>800.4</ele>
        <time>1970-01-01T02:22:01.000Z</time>
      </trkpt>
      <trkpt lat="45.43661" lon="4.63052">
        <ele>800.8</ele>
        <time>1970-01-01T02:22:02.000Z</time>
      </trkpt>
      <trkpt lat="45.43661" lon="4.6305">
        <ele>801.2</ele>
        <time>1970-01-01T02:22:03.000Z</time>
      </trkpt>
      <trkpt lat="45.43659" lon="4.6304">
        <ele>801.2</ele>
        <time>1970-01-01T02:22:07.000Z</time>
      </trkpt>
      <trkpt lat="45.43657" lon="4.63036">
        <ele>801.6</ele>
        <time>1970-01-01T02:22:09.000Z</time>
      </trkpt>
      <trkpt lat="45.43657" lon="4.63034">
        <ele>802.2</ele>
        <time>1970-01-01T02:22:10.000Z</time>
      </trkpt>
      <trkpt lat="45.43658" lon="4.63032">
        <ele>802.6</ele>
        <time>1970-01-01T02:22:11.000Z</time>
      </trkpt>
      <trkpt lat="45.43658" lon="4.63029">
        <ele>803</ele>
        <time>1970-01-01T02:22:12.000Z</time>
      </trkpt>
      <trkpt lat="45.43657" lon="4.63027">
        <ele>803.4</ele>
        <time>1970-01-01T02:22:13.000Z</time>
      </trkpt>
      <trkpt lat="45.43655" lon="4.63019">
        <ele>804</ele>
        <time>1970-01-01T02:22:17.000Z</time>
      </trkpt>
      <trkpt lat="45.43654" lon="4.63017">
        <ele>804.4</ele>
        <time>1970-01-01T02:22:18.000Z</time>
      </trkpt>
      <trkpt lat="45.43654" lon="4.63015">
        <ele>804.8</ele>
        <time>1970-01-01T02:22:19.000Z</time>
      </trkpt>
      <trkpt lat="45.43652" lon="4.63014">
        <ele>805.2</ele>
        <time>1970-01-01T02:22:20.000Z</time>
      </trkpt>
      <trkpt lat="45.43651" lon="4.63012">
        <ele>805.6</ele>
        <time>1970-01-01T02:22:21.000Z</time>
      </trkpt>
      <trkpt lat="45.43651" lon="4.6301">
        <ele>805.6</ele>
        <time>1970-01-01T02:22:22.000Z</time>
      </trkpt>
      <trkpt lat="45.43649" lon="4.63004">
        <ele>805.6</ele>
        <time>1970-01-01T02:22:25.000Z</time>
      </trkpt>
      <trkpt lat="45.4365" lon="4.63002">
        <ele>806</ele>
        <time>1970-01-01T02:22:26.000Z</time>
      </trkpt>
      <trkpt lat="45.4365" lon="4.63">
        <ele>806.4</ele>
        <time>1970-01-01T02:22:27.000Z</time>
      </trkpt>
      <trkpt lat="45.43651" lon="4.62998">
        <ele>806.8</ele>
        <time>1970-01-01T02:22:28.000Z</time>
      </trkpt>
      <trkpt lat="45.43651" lon="4.62996">
        <ele>807.2</ele>
        <time>1970-01-01T02:22:29.000Z</time>
      </trkpt>
      <trkpt lat="45.4365" lon="4.62995">
        <ele>807.8</ele>
        <time>1970-01-01T02:22:30.000Z</time>
      </trkpt>
      <trkpt lat="45.43648" lon="4.62992">
        <ele>808.2</ele>
        <time>1970-01-01T02:22:32.000Z</time>
      </trkpt>
      <trkpt lat="45.43646" lon="4.62991">
        <ele>808.6</ele>
        <time>1970-01-01T02:22:33.000Z</time>
      </trkpt>
      <trkpt lat="45.43644" lon="4.62989">
        <ele>809</ele>
        <time>1970-01-01T02:22:34.000Z</time>
      </trkpt>
      <trkpt lat="45.43643" lon="4.62988">
        <ele>809.4</ele>
        <time>1970-01-01T02:22:35.000Z</time>
      </trkpt>
      <trkpt lat="45.43642" lon="4.62986">
        <ele>809.8</ele>
        <time>1970-01-01T02:22:36.000Z</time>
      </trkpt>
      <trkpt lat="45.43641" lon="4.62984">
        <ele>809.8</ele>
        <time>1970-01-01T02:22:37.000Z</time>
      </trkpt>
      <trkpt lat="45.43635" lon="4.62977">
        <ele>810.2</ele>
        <time>1970-01-01T02:22:41.000Z</time>
      </trkpt>
      <trkpt lat="45.43634" lon="4.62976">
        <ele>810.8</ele>
        <time>1970-01-01T02:22:42.000Z</time>
      </trkpt>
      <trkpt lat="45.43634" lon="4.62974">
        <ele>811.2</ele>
        <time>1970-01-01T02:22:43.000Z</time>
      </trkpt>
      <trkpt lat="45.43633" lon="4.62973">
        <ele>811.6</ele>
        <time>1970-01-01T02:22:44.000Z</time>
      </trkpt>
      <trkpt lat="45.43632" lon="4.62971">
        <ele>812.2</ele>
        <time>1970-01-01T02:22:45.000Z</time>
      </trkpt>
      <trkpt lat="45.43628" lon="4.62964">
        <ele>812.2</ele>
        <time>1970-01-01T02:22:50.000Z</time>
      </trkpt>
      <trkpt lat="45.43627" lon="4.62962">
        <ele>812.6</ele>
        <time>1970-01-01T02:22:51.000Z</time>
      </trkpt>
      <trkpt lat="45.43626" lon="4.6296">
        <ele>813.2</ele>
        <time>1970-01-01T02:22:52.000Z</time>
      </trkpt>
      <trkpt lat="45.43626" lon="4.62959">
        <ele>813.8</ele>
        <time>1970-01-01T02:22:53.000Z</time>
      </trkpt>
      <trkpt lat="45.43625" lon="4.62957">
        <ele>814.2</ele>
        <time>1970-01-01T02:22:54.000Z</time>
      </trkpt>
      <trkpt lat="45.43624" lon="4.62955">
        <ele>814.8</ele>
        <time>1970-01-01T02:22:55.000Z</time>
      </trkpt>
      <trkpt lat="45.43622" lon="4.62952">
        <ele>814.8</ele>
        <time>1970-01-01T02:22:57.000Z</time>
      </trkpt>
      <trkpt lat="45.43621" lon="4.62947">
        <ele>815.4</ele>
        <time>1970-01-01T02:23:00.000Z</time>
      </trkpt>
      <trkpt lat="45.43621" lon="4.62946">
        <ele>815.8</ele>
        <time>1970-01-01T02:23:01.000Z</time>
      </trkpt>
      <trkpt lat="45.4362" lon="4.62944">
        <ele>816.4</ele>
        <time>1970-01-01T02:23:02.000Z</time>
      </trkpt>
      <trkpt lat="45.4362" lon="4.62943">
        <ele>816.8</ele>
        <time>1970-01-01T02:23:03.000Z</time>
      </trkpt>
      <trkpt lat="45.43619" lon="4.62941">
        <ele>817.4</ele>
        <time>1970-01-01T02:23:04.000Z</time>
      </trkpt>
      <trkpt lat="45.43618" lon="4.62939">
        <ele>817.4</ele>
        <time>1970-01-01T02:23:06.000Z</time>
      </trkpt>
      <trkpt lat="45.43617" lon="4.62938">
        <ele>817.4</ele>
        <time>1970-01-01T02:23:07.000Z</time>
      </trkpt>
      <trkpt lat="45.43617" lon="4.62936">
        <ele>817.8</ele>
        <time>1970-01-01T02:23:08.000Z</time>
      </trkpt>
      <trkpt lat="45.43617" lon="4.62935">
        <ele>818.2</ele>
        <time>1970-01-01T02:23:09.000Z</time>
      </trkpt>
      <trkpt lat="45.43616" lon="4.62933">
        <ele>818.6</ele>
        <time>1970-01-01T02:23:10.000Z</time>
      </trkpt>
      <trkpt lat="45.43616" lon="4.62932">
        <ele>819</ele>
        <time>1970-01-01T02:23:11.000Z</time>
      </trkpt>
      <trkpt lat="45.43615" lon="4.6293">
        <ele>819.4</ele>
        <time>1970-01-01T02:23:12.000Z</time>
      </trkpt>
      <trkpt lat="45.43613" lon="4.62928">
        <ele>819.4</ele>
        <time>1970-01-01T02:23:14.000Z</time>
      </trkpt>
      <trkpt lat="45.43611" lon="4.62926">
        <ele>819.4</ele>
        <time>1970-01-01T02:23:16.000Z</time>
      </trkpt>
      <trkpt lat="45.43611" lon="4.62925">
        <ele>819.8</ele>
        <time>1970-01-01T02:23:17.000Z</time>
      </trkpt>
      <trkpt lat="45.4361" lon="4.62924">
        <ele>820.2</ele>
        <time>1970-01-01T02:23:18.000Z</time>
      </trkpt>
      <trkpt lat="45.43609" lon="4.62923">
        <ele>820.6</ele>
        <time>1970-01-01T02:23:19.000Z</time>
      </trkpt>
      <trkpt lat="45.43609" lon="4.62921">
        <ele>821</ele>
        <time>1970-01-01T02:23:20.000Z</time>
      </trkpt>
      <trkpt lat="45.43608" lon="4.6292">
        <ele>821.4</ele>
        <time>1970-01-01T02:23:21.000Z</time>
      </trkpt>
      <trkpt lat="45.43607" lon="4.62919">
        <ele>821.4</ele>
        <time>1970-01-01T02:23:22.000Z</time>
      </trkpt>
      <trkpt lat="45.43601" lon="4.62913">
        <ele>821.8</ele>
        <time>1970-01-01T02:23:27.000Z</time>
      </trkpt>
      <trkpt lat="45.43599" lon="4.62911">
        <ele>822.4</ele>
        <time>1970-01-01T02:23:28.000Z</time>
      </trkpt>
      <trkpt lat="45.43598" lon="4.6291">
        <ele>822.8</ele>
        <time>1970-01-01T02:23:29.000Z</time>
      </trkpt>
      <trkpt lat="45.43597" lon="4.62909">
        <ele>823.2</ele>
        <time>1970-01-01T02:23:30.000Z</time>
      </trkpt>
      <trkpt lat="45.43595" lon="4.62908">
        <ele>823.6</ele>
        <time>1970-01-01T02:23:31.000Z</time>
      </trkpt>
      <trkpt lat="45.43593" lon="4.62906">
        <ele>824.2</ele>
        <time>1970-01-01T02:23:33.000Z</time>
      </trkpt>
      <trkpt lat="45.43593" lon="4.62906">
        <ele>824.6</ele>
        <time>1970-01-01T02:23:34.000Z</time>
      </trkpt>
      <trkpt lat="45.43592" lon="4.62906">
        <ele>825.2</ele>
        <time>1970-01-01T02:23:35.000Z</time>
      </trkpt>
      <trkpt lat="45.43591" lon="4.62905">
        <ele>825.6</ele>
        <time>1970-01-01T02:23:36.000Z</time>
      </trkpt>
      <trkpt lat="45.43589" lon="4.62904">
        <ele>826</ele>
        <time>1970-01-01T02:23:37.000Z</time>
      </trkpt>
      <trkpt lat="45.43588" lon="4.62903">
        <ele>826</ele>
        <time>1970-01-01T02:23:38.000Z</time>
      </trkpt>
      <trkpt lat="45.43584" lon="4.629">
        <ele>826</ele>
        <time>1970-01-01T02:23:42.000Z</time>
      </trkpt>
      <trkpt lat="45.4358" lon="4.62896">
        <ele>826.4</ele>
        <time>1970-01-01T02:23:46.000Z</time>
      </trkpt>
      <trkpt lat="45.43579" lon="4.62895">
        <ele>826.8</ele>
        <time>1970-01-01T02:23:47.000Z</time>
      </trkpt>
      <trkpt lat="45.43578" lon="4.62894">
        <ele>827.4</ele>
        <time>1970-01-01T02:23:48.000Z</time>
      </trkpt>
      <trkpt lat="45.43578" lon="4.62892">
        <ele>827.8</ele>
        <time>1970-01-01T02:23:49.000Z</time>
      </trkpt>
      <trkpt lat="45.43577" lon="4.62891">
        <ele>828.2</ele>
        <time>1970-01-01T02:23:50.000Z</time>
      </trkpt>
      <trkpt lat="45.43575" lon="4.62889">
        <ele>828.2</ele>
        <time>1970-01-01T02:23:53.000Z</time>
      </trkpt>
      <trkpt lat="45.43573" lon="4.62887">
        <ele>828.6</ele>
        <time>1970-01-01T02:23:56.000Z</time>
      </trkpt>
      <trkpt lat="45.43572" lon="4.62886">
        <ele>829</ele>
        <time>1970-01-01T02:23:57.000Z</time>
      </trkpt>
      <trkpt lat="45.4357" lon="4.62884">
        <ele>829.4</ele>
        <time>1970-01-01T02:23:58.000Z</time>
      </trkpt>
      <trkpt lat="45.43569" lon="4.62883">
        <ele>829.8</ele>
        <time>1970-01-01T02:23:59.000Z</time>
      </trkpt>
      <trkpt lat="45.43568" lon="4.62882">
        <ele>830.2</ele>
        <time>1970-01-01T02:24:00.000Z</time>
      </trkpt>
      <trkpt lat="45.43565" lon="4.6288">
        <ele>830.2</ele>
        <time>1970-01-01T02:24:03.000Z</time>
      </trkpt>
      <trkpt lat="45.43564" lon="4.62879">
        <ele>830.6</ele>
        <time>1970-01-01T02:24:04.000Z</time>
      </trkpt>
      <trkpt lat="45.43563" lon="4.62879">
        <ele>831</ele>
        <time>1970-01-01T02:24:05.000Z</time>
      </trkpt>
      <trkpt lat="45.43563" lon="4.62879">
        <ele>831.4</ele>
        <time>1970-01-01T02:24:06.000Z</time>
      </trkpt>
      <trkpt lat="45.43561" lon="4.62878">
        <ele>831.8</ele>
        <time>1970-01-01T02:24:07.000Z</time>
      </trkpt>
      <trkpt lat="45.4356" lon="4.62877">
        <ele>832.4</ele>
        <time>1970-01-01T02:24:08.000Z</time>
      </trkpt>
      <trkpt lat="45.43556" lon="4.62873">
        <ele>832.4</ele>
        <time>1970-01-01T02:24:12.000Z</time>
      </trkpt>
      <trkpt lat="45.43554" lon="4.62872">
        <ele>832.8</ele>
        <time>1970-01-01T02:24:13.000Z</time>
      </trkpt>
      <trkpt lat="45.43553" lon="4.62871">
        <ele>833.2</ele>
        <time>1970-01-01T02:24:14.000Z</time>
      </trkpt>
      <trkpt lat="45.43552" lon="4.6287">
        <ele>833.6</ele>
        <time>1970-01-01T02:24:15.000Z</time>
      </trkpt>
      <trkpt lat="45.4355" lon="4.62869">
        <ele>834</ele>
        <time>1970-01-01T02:24:16.000Z</time>
      </trkpt>
      <trkpt lat="45.43548" lon="4.62867">
        <ele>834.4</ele>
        <time>1970-01-01T02:24:17.000Z</time>
      </trkpt>
      <trkpt lat="45.43546" lon="4.62865">
        <ele>834.4</ele>
        <time>1970-01-01T02:24:19.000Z</time>
      </trkpt>
      <trkpt lat="45.4354" lon="4.62861">
        <ele>834.8</ele>
        <time>1970-01-01T02:24:22.000Z</time>
      </trkpt>
      <trkpt lat="45.43539" lon="4.6286">
        <ele>835.2</ele>
        <time>1970-01-01T02:24:23.000Z</time>
      </trkpt>
      <trkpt lat="45.43537" lon="4.62859">
        <ele>835.6</ele>
        <time>1970-01-01T02:24:24.000Z</time>
      </trkpt>
      <trkpt lat="45.43536" lon="4.62858">
        <ele>836</ele>
        <time>1970-01-01T02:24:25.000Z</time>
      </trkpt>
      <trkpt lat="45.43536" lon="4.62858">
        <ele>836.6</ele>
        <time>1970-01-01T02:24:26.000Z</time>
      </trkpt>
      <trkpt lat="45.43534" lon="4.62856">
        <ele>836.6</ele>
        <time>1970-01-01T02:24:30.000Z</time>
      </trkpt>
      <trkpt lat="45.43531" lon="4.62854">
        <ele>837</ele>
        <time>1970-01-01T02:24:33.000Z</time>
      </trkpt>
      <trkpt lat="45.43529" lon="4.62853">
        <ele>837.4</ele>
        <time>1970-01-01T02:24:34.000Z</time>
      </trkpt>
      <trkpt lat="45.43528" lon="4.62852">
        <ele>837.8</ele>
        <time>1970-01-01T02:24:35.000Z</time>
      </trkpt>
      <trkpt lat="45.43527" lon="4.62851">
        <ele>838.2</ele>
        <time>1970-01-01T02:24:36.000Z</time>
      </trkpt>
      <trkpt lat="45.43525" lon="4.62849">
        <ele>838.6</ele>
        <time>1970-01-01T02:24:37.000Z</time>
      </trkpt>
      <trkpt lat="45.4352" lon="4.62844">
        <ele>839</ele>
        <time>1970-01-01T02:24:40.000Z</time>
      </trkpt>
      <trkpt lat="45.43518" lon="4.62843">
        <ele>839.4</ele>
        <time>1970-01-01T02:24:41.000Z</time>
      </trkpt>
      <trkpt lat="45.43517" lon="4.62842">
        <ele>839.8</ele>
        <time>1970-01-01T02:24:42.000Z</time>
      </trkpt>
      <trkpt lat="45.43516" lon="4.62841">
        <ele>840.4</ele>
        <time>1970-01-01T02:24:43.000Z</time>
      </trkpt>
      <trkpt lat="45.43514" lon="4.6284">
        <ele>840.8</ele>
        <time>1970-01-01T02:24:44.000Z</time>
      </trkpt>
      <trkpt lat="45.43505" lon="4.62832">
        <ele>841.2</ele>
        <time>1970-01-01T02:24:50.000Z</time>
      </trkpt>
      <trkpt lat="45.43505" lon="4.62831">
        <ele>842</ele>
        <time>1970-01-01T02:24:51.000Z</time>
      </trkpt>
      <trkpt lat="45.43504" lon="4.6283">
        <ele>842.6</ele>
        <time>1970-01-01T02:24:52.000Z</time>
      </trkpt>
      <trkpt lat="45.43501" lon="4.62828">
        <ele>843</ele>
        <time>1970-01-01T02:24:53.000Z</time>
      </trkpt>
      <trkpt lat="45.43492" lon="4.62821">
        <ele>843.4</ele>
        <time>1970-01-01T02:24:58.000Z</time>
      </trkpt>
      <trkpt lat="45.43491" lon="4.6282">
        <ele>843.8</ele>
        <time>1970-01-01T02:24:59.000Z</time>
      </trkpt>
      <trkpt lat="45.43489" lon="4.62819">
        <ele>844.4</ele>
        <time>1970-01-01T02:25:00.000Z</time>
      </trkpt>
      <trkpt lat="45.43488" lon="4.62818">
        <ele>844.8</ele>
        <time>1970-01-01T02:25:01.000Z</time>
      </trkpt>
      <trkpt lat="45.43486" lon="4.62818">
        <ele>845.2</ele>
        <time>1970-01-01T02:25:02.000Z</time>
      </trkpt>
      <trkpt lat="45.43483" lon="4.62816">
        <ele>845.2</ele>
        <time>1970-01-01T02:25:04.000Z</time>
      </trkpt>
      <trkpt lat="45.43475" lon="4.62811">
        <ele>845.6</ele>
        <time>1970-01-01T02:25:10.000Z</time>
      </trkpt>
      <trkpt lat="45.43473" lon="4.62811">
        <ele>846</ele>
        <time>1970-01-01T02:25:11.000Z</time>
      </trkpt>
      <trkpt lat="45.43471" lon="4.62811">
        <ele>846.6</ele>
        <time>1970-01-01T02:25:12.000Z</time>
      </trkpt>
      <trkpt lat="45.43469" lon="4.6281">
        <ele>847</ele>
        <time>1970-01-01T02:25:13.000Z</time>
      </trkpt>
      <trkpt lat="45.43467" lon="4.62809">
        <ele>847.4</ele>
        <time>1970-01-01T02:25:14.000Z</time>
      </trkpt>
      <trkpt lat="45.43464" lon="4.62808">
        <ele>848.2</ele>
        <time>1970-01-01T02:25:16.000Z</time>
      </trkpt>
      <trkpt lat="45.43462" lon="4.62807">
        <ele>848.6</ele>
        <time>1970-01-01T02:25:17.000Z</time>
      </trkpt>
      <trkpt lat="45.4346" lon="4.62807">
        <ele>849</ele>
        <time>1970-01-01T02:25:18.000Z</time>
      </trkpt>
      <trkpt lat="45.43459" lon="4.62806">
        <ele>849.4</ele>
        <time>1970-01-01T02:25:19.000Z</time>
      </trkpt>
      <trkpt lat="45.43454" lon="4.62805">
        <ele>849.4</ele>
        <time>1970-01-01T02:25:21.000Z</time>
      </trkpt>
      <trkpt lat="45.43441" lon="4.628">
        <ele>849.4</ele>
        <time>1970-01-01T02:25:27.000Z</time>
      </trkpt>
      <trkpt lat="45.43439" lon="4.62798">
        <ele>849.8</ele>
        <time>1970-01-01T02:25:29.000Z</time>
      </trkpt>
      <trkpt lat="45.43437" lon="4.62797">
        <ele>850.2</ele>
        <time>1970-01-01T02:25:30.000Z</time>
      </trkpt>
      <trkpt lat="45.43437" lon="4.62796">
        <ele>850.6</ele>
        <time>1970-01-01T02:25:31.000Z</time>
      </trkpt>
      <trkpt lat="45.43435" lon="4.62796">
        <ele>851</ele>
        <time>1970-01-01T02:25:32.000Z</time>
      </trkpt>
      <trkpt lat="45.43433" lon="4.62795">
        <ele>851.4</ele>
        <time>1970-01-01T02:25:33.000Z</time>
      </trkpt>
      <trkpt lat="45.43429" lon="4.62791">
        <ele>852</ele>
        <time>1970-01-01T02:25:37.000Z</time>
      </trkpt>
      <trkpt lat="45.43428" lon="4.62791">
        <ele>852.4</ele>
        <time>1970-01-01T02:25:38.000Z</time>
      </trkpt>
      <trkpt lat="45.43427" lon="4.6279">
        <ele>852.8</ele>
        <time>1970-01-01T02:25:39.000Z</time>
      </trkpt>
      <trkpt lat="45.43425" lon="4.62789">
        <ele>853.8</ele>
        <time>1970-01-01T02:25:40.000Z</time>
      </trkpt>
      <trkpt lat="45.43425" lon="4.62789">
        <ele>854.4</ele>
        <time>1970-01-01T02:25:41.000Z</time>
      </trkpt>
      <trkpt lat="45.43423" lon="4.62788">
        <ele>854.8</ele>
        <time>1970-01-01T02:25:42.000Z</time>
      </trkpt>
      <trkpt lat="45.43421" lon="4.62787">
        <ele>855.4</ele>
        <time>1970-01-01T02:25:43.000Z</time>
      </trkpt>
      <trkpt lat="45.4342" lon="4.62787">
        <ele>856</ele>
        <time>1970-01-01T02:25:44.000Z</time>
      </trkpt>
      <trkpt lat="45.43413" lon="4.62784">
        <ele>856</ele>
        <time>1970-01-01T02:25:48.000Z</time>
      </trkpt>
      <trkpt lat="45.43407" lon="4.6278">
        <ele>856</ele>
        <time>1970-01-01T02:25:51.000Z</time>
      </trkpt>
      <trkpt lat="45.43401" lon="4.62778">
        <ele>856.4</ele>
        <time>1970-01-01T02:25:55.000Z</time>
      </trkpt>
      <trkpt lat="45.43399" lon="4.62777">
        <ele>856.8</ele>
        <time>1970-01-01T02:25:56.000Z</time>
      </trkpt>
      <trkpt lat="45.43397" lon="4.62776">
        <ele>857.4</ele>
        <time>1970-01-01T02:25:57.000Z</time>
      </trkpt>
      <trkpt lat="45.43395" lon="4.62775">
        <ele>858</ele>
        <time>1970-01-01T02:25:58.000Z</time>
      </trkpt>
      <trkpt lat="45.43394" lon="4.62774">
        <ele>858.6</ele>
        <time>1970-01-01T02:25:59.000Z</time>
      </trkpt>
      <trkpt lat="45.43392" lon="4.62774">
        <ele>859.2</ele>
        <time>1970-01-01T02:26:00.000Z</time>
      </trkpt>
      <trkpt lat="45.43391" lon="4.62773">
        <ele>859.8</ele>
        <time>1970-01-01T02:26:01.000Z</time>
      </trkpt>
      <trkpt lat="45.43389" lon="4.62772">
        <ele>860.4</ele>
        <time>1970-01-01T02:26:02.000Z</time>
      </trkpt>
      <trkpt lat="45.43387" lon="4.62772">
        <ele>860.4</ele>
        <time>1970-01-01T02:26:03.000Z</time>
      </trkpt>
      <trkpt lat="45.43378" lon="4.62766">
        <ele>860.4</ele>
        <time>1970-01-01T02:26:09.000Z</time>
      </trkpt>
      <trkpt lat="45.43371" lon="4.62765">
        <ele>860.8</ele>
        <time>1970-01-01T02:26:13.000Z</time>
      </trkpt>
      <trkpt lat="45.43369" lon="4.62764">
        <ele>861.2</ele>
        <time>1970-01-01T02:26:14.000Z</time>
      </trkpt>
      <trkpt lat="45.43367" lon="4.62763">
        <ele>861.6</ele>
        <time>1970-01-01T02:26:15.000Z</time>
      </trkpt>
      <trkpt lat="45.43365" lon="4.62762">
        <ele>862</ele>
        <time>1970-01-01T02:26:16.000Z</time>
      </trkpt>
      <trkpt lat="45.43363" lon="4.62761">
        <ele>862.6</ele>
        <time>1970-01-01T02:26:17.000Z</time>
      </trkpt>
      <trkpt lat="45.4336" lon="4.62759">
        <ele>862.6</ele>
        <time>1970-01-01T02:26:19.000Z</time>
      </trkpt>
      <trkpt lat="45.43358" lon="4.62759">
        <ele>863</ele>
        <time>1970-01-01T02:26:20.000Z</time>
      </trkpt>
      <trkpt lat="45.43356" lon="4.62759">
        <ele>863.4</ele>
        <time>1970-01-01T02:26:21.000Z</time>
      </trkpt>
      <trkpt lat="45.43353" lon="4.62758">
        <ele>863.8</ele>
        <time>1970-01-01T02:26:22.000Z</time>
      </trkpt>
      <trkpt lat="45.43351" lon="4.62757">
        <ele>864.2</ele>
        <time>1970-01-01T02:26:23.000Z</time>
      </trkpt>
      <trkpt lat="45.43348" lon="4.62755">
        <ele>864.6</ele>
        <time>1970-01-01T02:26:24.000Z</time>
      </trkpt>
      <trkpt lat="45.43346" lon="4.62754">
        <ele>864.6</ele>
        <time>1970-01-01T02:26:25.000Z</time>
      </trkpt>
      <trkpt lat="45.43336" lon="4.6275">
        <ele>865.6</ele>
        <time>1970-01-01T02:26:30.000Z</time>
      </trkpt>
      <trkpt lat="45.43333" lon="4.62751">
        <ele>866</ele>
        <time>1970-01-01T02:26:31.000Z</time>
      </trkpt>
      <trkpt lat="45.43331" lon="4.62751">
        <ele>866.6</ele>
        <time>1970-01-01T02:26:32.000Z</time>
      </trkpt>
      <trkpt lat="45.43329" lon="4.6275">
        <ele>867.2</ele>
        <time>1970-01-01T02:26:33.000Z</time>
      </trkpt>
      <trkpt lat="45.43324" lon="4.62749">
        <ele>867.2</ele>
        <time>1970-01-01T02:26:36.000Z</time>
      </trkpt>
      <trkpt lat="45.4332" lon="4.62747">
        <ele>867.6</ele>
        <time>1970-01-01T02:26:38.000Z</time>
      </trkpt>
      <trkpt lat="45.43318" lon="4.62746">
        <ele>868</ele>
        <time>1970-01-01T02:26:39.000Z</time>
      </trkpt>
      <trkpt lat="45.43317" lon="4.62745">
        <ele>868.4</ele>
        <time>1970-01-01T02:26:40.000Z</time>
      </trkpt>
      <trkpt lat="45.43316" lon="4.62744">
        <ele>868.8</ele>
        <time>1970-01-01T02:26:41.000Z</time>
      </trkpt>
      <trkpt lat="45.43314" lon="4.62743">
        <ele>869.2</ele>
        <time>1970-01-01T02:26:42.000Z</time>
      </trkpt>
      <trkpt lat="45.43312" lon="4.62742">
        <ele>869.2</ele>
        <time>1970-01-01T02:26:43.000Z</time>
      </trkpt>
      <trkpt lat="45.43307" lon="4.6274">
        <ele>869.8</ele>
        <time>1970-01-01T02:26:46.000Z</time>
      </trkpt>
      <trkpt lat="45.43304" lon="4.62739">
        <ele>870.2</ele>
        <time>1970-01-01T02:26:47.000Z</time>
      </trkpt>
      <trkpt lat="45.43301" lon="4.62737">
        <ele>870.6</ele>
        <time>1970-01-01T02:26:48.000Z</time>
      </trkpt>
      <trkpt lat="45.43299" lon="4.62736">
        <ele>871.2</ele>
        <time>1970-01-01T02:26:49.000Z</time>
      </trkpt>
      <trkpt lat="45.43297" lon="4.62735">
        <ele>871.6</ele>
        <time>1970-01-01T02:26:50.000Z</time>
      </trkpt>
      <trkpt lat="45.43291" lon="4.62732">
        <ele>871.6</ele>
        <time>1970-01-01T02:26:55.000Z</time>
      </trkpt>
      <trkpt lat="45.43289" lon="4.62731">
        <ele>872</ele>
        <time>1970-01-01T02:26:56.000Z</time>
      </trkpt>
      <trkpt lat="45.43287" lon="4.6273">
        <ele>872.4</ele>
        <time>1970-01-01T02:26:57.000Z</time>
      </trkpt>
      <trkpt lat="45.43286" lon="4.62729">
        <ele>872.8</ele>
        <time>1970-01-01T02:26:58.000Z</time>
      </trkpt>
      <trkpt lat="45.43284" lon="4.62729">
        <ele>873.2</ele>
        <time>1970-01-01T02:26:59.000Z</time>
      </trkpt>
      <trkpt lat="45.43283" lon="4.62728">
        <ele>873.8</ele>
        <time>1970-01-01T02:27:00.000Z</time>
      </trkpt>
      <trkpt lat="45.43281" lon="4.62728">
        <ele>873.8</ele>
        <time>1970-01-01T02:27:01.000Z</time>
      </trkpt>
      <trkpt lat="45.4328" lon="4.62727">
        <ele>874.2</ele>
        <time>1970-01-01T02:27:02.000Z</time>
      </trkpt>
      <trkpt lat="45.43279" lon="4.62727">
        <ele>874.6</ele>
        <time>1970-01-01T02:27:03.000Z</time>
      </trkpt>
      <trkpt lat="45.43279" lon="4.62727">
        <ele>875.2</ele>
        <time>1970-01-01T02:27:04.000Z</time>
      </trkpt>
      <trkpt lat="45.43278" lon="4.62727">
        <ele>875.6</ele>
        <time>1970-01-01T02:27:05.000Z</time>
      </trkpt>
      <trkpt lat="45.43277" lon="4.62727">
        <ele>876</ele>
        <time>1970-01-01T02:27:06.000Z</time>
      </trkpt>
      <trkpt lat="45.43275" lon="4.62726">
        <ele>876.6</ele>
        <time>1970-01-01T02:27:07.000Z</time>
      </trkpt>
      <trkpt lat="45.43273" lon="4.62725">
        <ele>877</ele>
        <time>1970-01-01T02:27:08.000Z</time>
      </trkpt>
      <trkpt lat="45.43271" lon="4.62724">
        <ele>877.4</ele>
        <time>1970-01-01T02:27:09.000Z</time>
      </trkpt>
      <trkpt lat="45.43269" lon="4.62724">
        <ele>878</ele>
        <time>1970-01-01T02:27:10.000Z</time>
      </trkpt>
      <trkpt lat="45.43268" lon="4.62723">
        <ele>878.4</ele>
        <time>1970-01-01T02:27:11.000Z</time>
      </trkpt>
      <trkpt lat="45.43265" lon="4.62722">
        <ele>878.4</ele>
        <time>1970-01-01T02:27:13.000Z</time>
      </trkpt>
      <trkpt lat="45.43258" lon="4.62718">
        <ele>878.4</ele>
        <time>1970-01-01T02:27:18.000Z</time>
      </trkpt>
      <trkpt lat="45.43247" lon="4.62713">
        <ele>879</ele>
        <time>1970-01-01T02:27:24.000Z</time>
      </trkpt>
      <trkpt lat="45.43245" lon="4.62712">
        <ele>879.4</ele>
        <time>1970-01-01T02:27:25.000Z</time>
      </trkpt>
      <trkpt lat="45.43242" lon="4.62711">
        <ele>879.8</ele>
        <time>1970-01-01T02:27:26.000Z</time>
      </trkpt>
      <trkpt lat="45.43239" lon="4.6271">
        <ele>880.2</ele>
        <time>1970-01-01T02:27:27.000Z</time>
      </trkpt>
      <trkpt lat="45.43237" lon="4.62709">
        <ele>880.8</ele>
        <time>1970-01-01T02:27:28.000Z</time>
      </trkpt>
      <trkpt lat="45.43229" lon="4.62707">
        <ele>880.8</ele>
        <time>1970-01-01T02:27:32.000Z</time>
      </trkpt>
      <trkpt lat="45.43227" lon="4.62706">
        <ele>881.2</ele>
        <time>1970-01-01T02:27:33.000Z</time>
      </trkpt>
      <trkpt lat="45.43226" lon="4.62706">
        <ele>881.6</ele>
        <time>1970-01-01T02:27:34.000Z</time>
      </trkpt>
      <trkpt lat="45.43224" lon="4.62706">
        <ele>882.2</ele>
        <time>1970-01-01T02:27:35.000Z</time>
      </trkpt>
      <trkpt lat="45.43223" lon="4.62706">
        <ele>882.6</ele>
        <time>1970-01-01T02:27:36.000Z</time>
      </trkpt>
      <trkpt lat="45.43222" lon="4.62706">
        <ele>883</ele>
        <time>1970-01-01T02:27:37.000Z</time>
      </trkpt>
      <trkpt lat="45.43218" lon="4.62708">
        <ele>883</ele>
        <time>1970-01-01T02:27:39.000Z</time>
      </trkpt>
      <trkpt lat="45.43217" lon="4.62709">
        <ele>883</ele>
        <time>1970-01-01T02:27:40.000Z</time>
      </trkpt>
      <trkpt lat="45.43217" lon="4.62716">
        <ele>883</ele>
        <time>1970-01-01T02:27:43.000Z</time>
      </trkpt>
      <trkpt lat="45.4322" lon="4.62723">
        <ele>883</ele>
        <time>1970-01-01T02:27:45.000Z</time>
      </trkpt>
      <trkpt lat="45.43223" lon="4.62733">
        <ele>883</ele>
        <time>1970-01-01T02:27:48.000Z</time>
      </trkpt>
      <trkpt lat="45.43224" lon="4.62737">
        <ele>883.4</ele>
        <time>1970-01-01T02:27:49.000Z</time>
      </trkpt>
      <trkpt lat="45.43225" lon="4.62741">
        <ele>883.8</ele>
        <time>1970-01-01T02:27:50.000Z</time>
      </trkpt>
      <trkpt lat="45.43225" lon="4.62745">
        <ele>884.2</ele>
        <time>1970-01-01T02:27:51.000Z</time>
      </trkpt>
      <trkpt lat="45.43226" lon="4.62749">
        <ele>884.8</ele>
        <time>1970-01-01T02:27:52.000Z</time>
      </trkpt>
      <trkpt lat="45.43227" lon="4.62752">
        <ele>885.2</ele>
        <time>1970-01-01T02:27:53.000Z</time>
      </trkpt>
      <trkpt lat="45.43228" lon="4.62755">
        <ele>885.2</ele>
        <time>1970-01-01T02:27:54.000Z</time>
      </trkpt>
      <trkpt lat="45.43233" lon="4.62776">
        <ele>885.2</ele>
        <time>1970-01-01T02:28:00.000Z</time>
      </trkpt>
      <trkpt lat="45.43236" lon="4.6279">
        <ele>885.6</ele>
        <time>1970-01-01T02:28:04.000Z</time>
      </trkpt>
      <trkpt lat="45.43236" lon="4.62794">
        <ele>886</ele>
        <time>1970-01-01T02:28:05.000Z</time>
      </trkpt>
      <trkpt lat="45.43237" lon="4.62797">
        <ele>886.4</ele>
        <time>1970-01-01T02:28:06.000Z</time>
      </trkpt>
      <trkpt lat="45.43237" lon="4.62801">
        <ele>886.8</ele>
        <time>1970-01-01T02:28:07.000Z</time>
      </trkpt>
      <trkpt lat="45.43238" lon="4.62804">
        <ele>887.4</ele>
        <time>1970-01-01T02:28:08.000Z</time>
      </trkpt>
      <trkpt lat="45.4324" lon="4.62814">
        <ele>887.8</ele>
        <time>1970-01-01T02:28:11.000Z</time>
      </trkpt>
      <trkpt lat="45.4324" lon="4.62817">
        <ele>888.4</ele>
        <time>1970-01-01T02:28:12.000Z</time>
      </trkpt>
      <trkpt lat="45.43241" lon="4.6282">
        <ele>889</ele>
        <time>1970-01-01T02:28:13.000Z</time>
      </trkpt>
      <trkpt lat="45.43241" lon="4.62824">
        <ele>889.4</ele>
        <time>1970-01-01T02:28:14.000Z</time>
      </trkpt>
      <trkpt lat="45.43242" lon="4.62827">
        <ele>890</ele>
        <time>1970-01-01T02:28:15.000Z</time>
      </trkpt>
      <trkpt lat="45.43247" lon="4.62843">
        <ele>890</ele>
        <time>1970-01-01T02:28:20.000Z</time>
      </trkpt>
      <trkpt lat="45.4325" lon="4.62853">
        <ele>890.4</ele>
        <time>1970-01-01T02:28:23.000Z</time>
      </trkpt>
      <trkpt lat="45.43251" lon="4.62856">
        <ele>891</ele>
        <time>1970-01-01T02:28:24.000Z</time>
      </trkpt>
      <trkpt lat="45.43252" lon="4.6286">
        <ele>891.4</ele>
        <time>1970-01-01T02:28:25.000Z</time>
      </trkpt>
      <trkpt lat="45.43253" lon="4.62864">
        <ele>891.8</ele>
        <time>1970-01-01T02:28:26.000Z</time>
      </trkpt>
      <trkpt lat="45.43254" lon="4.62868">
        <ele>892.2</ele>
        <time>1970-01-01T02:28:27.000Z</time>
      </trkpt>
      <trkpt lat="45.43256" lon="4.62874">
        <ele>892.2</ele>
        <time>1970-01-01T02:28:30.000Z</time>
      </trkpt>
      <trkpt lat="45.43257" lon="4.62867">
        <ele>892.2</ele>
        <time>1970-01-01T02:28:33.000Z</time>
      </trkpt>
      <trkpt lat="45.43254" lon="4.62859">
        <ele>892.2</ele>
        <time>1970-01-01T02:28:35.000Z</time>
      </trkpt>
      <trkpt lat="45.4325" lon="4.62845">
        <ele>892.2</ele>
        <time>1970-01-01T02:28:38.000Z</time>
      </trkpt>
      <trkpt lat="45.43239" lon="4.62812">
        <ele>892.2</ele>
        <time>1970-01-01T02:28:43.000Z</time>
      </trkpt>
      <trkpt lat="45.43237" lon="4.62804">
        <ele>892.2</ele>
        <time>1970-01-01T02:28:44.000Z</time>
      </trkpt>
      <trkpt lat="45.43233" lon="4.62785">
        <ele>891.8</ele>
        <time>1970-01-01T02:28:46.000Z</time>
      </trkpt>
      <trkpt lat="45.43231" lon="4.62776">
        <ele>891.2</ele>
        <time>1970-01-01T02:28:47.000Z</time>
      </trkpt>
      <trkpt lat="45.43228" lon="4.62766">
        <ele>890.8</ele>
        <time>1970-01-01T02:28:48.000Z</time>
      </trkpt>
      <trkpt lat="45.43225" lon="4.62756">
        <ele>890</ele>
        <time>1970-01-01T02:28:49.000Z</time>
      </trkpt>
      <trkpt lat="45.43222" lon="4.62746">
        <ele>889.4</ele>
        <time>1970-01-01T02:28:50.000Z</time>
      </trkpt>
      <trkpt lat="45.43219" lon="4.62737">
        <ele>888.6</ele>
        <time>1970-01-01T02:28:51.000Z</time>
      </trkpt>
      <trkpt lat="45.43216" lon="4.62731">
        <ele>888</ele>
        <time>1970-01-01T02:28:52.000Z</time>
      </trkpt>
      <trkpt lat="45.43214" lon="4.62727">
        <ele>887.2</ele>
        <time>1970-01-01T02:28:53.000Z</time>
      </trkpt>
      <trkpt lat="45.43211" lon="4.62721">
        <ele>887.2</ele>
        <time>1970-01-01T02:28:55.000Z</time>
      </trkpt>
      <trkpt lat="45.43208" lon="4.62717">
        <ele>886.8</ele>
        <time>1970-01-01T02:28:57.000Z</time>
      </trkpt>
      <trkpt lat="45.43206" lon="4.62716">
        <ele>885.8</ele>
        <time>1970-01-01T02:28:58.000Z</time>
      </trkpt>
      <trkpt lat="45.43205" lon="4.62715">
        <ele>885.2</ele>
        <time>1970-01-01T02:28:59.000Z</time>
      </trkpt>
      <trkpt lat="45.43204" lon="4.62713">
        <ele>884.8</ele>
        <time>1970-01-01T02:29:00.000Z</time>
      </trkpt>
      <trkpt lat="45.43201" lon="4.62707">
        <ele>885.2</ele>
        <time>1970-01-01T02:29:04.000Z</time>
      </trkpt>
      <trkpt lat="45.432" lon="4.62706">
        <ele>885.6</ele>
        <time>1970-01-01T02:29:05.000Z</time>
      </trkpt>
      <trkpt lat="45.43199" lon="4.62705">
        <ele>886</ele>
        <time>1970-01-01T02:29:06.000Z</time>
      </trkpt>
      <trkpt lat="45.43198" lon="4.62703">
        <ele>886.6</ele>
        <time>1970-01-01T02:29:07.000Z</time>
      </trkpt>
      <trkpt lat="45.43198" lon="4.62701">
        <ele>887</ele>
        <time>1970-01-01T02:29:08.000Z</time>
      </trkpt>
      <trkpt lat="45.43195" lon="4.62696">
        <ele>887</ele>
        <time>1970-01-01T02:29:10.000Z</time>
      </trkpt>
      <trkpt lat="45.4319" lon="4.62689">
        <ele>887</ele>
        <time>1970-01-01T02:29:15.000Z</time>
      </trkpt>
      <trkpt lat="45.43183" lon="4.62679">
        <ele>887</ele>
        <time>1970-01-01T02:29:20.000Z</time>
      </trkpt>
      <trkpt lat="45.43182" lon="4.62678">
        <ele>887.4</ele>
        <time>1970-01-01T02:29:21.000Z</time>
      </trkpt>
      <trkpt lat="45.43181" lon="4.62677">
        <ele>887.8</ele>
        <time>1970-01-01T02:29:22.000Z</time>
      </trkpt>
      <trkpt lat="45.4318" lon="4.62676">
        <ele>888.6</ele>
        <time>1970-01-01T02:29:23.000Z</time>
      </trkpt>
      <trkpt lat="45.4318" lon="4.62674">
        <ele>889</ele>
        <time>1970-01-01T02:29:24.000Z</time>
      </trkpt>
      <trkpt lat="45.43179" lon="4.62672">
        <ele>889</ele>
        <time>1970-01-01T02:29:25.000Z</time>
      </trkpt>
      <trkpt lat="45.43177" lon="4.62664">
        <ele>889</ele>
        <time>1970-01-01T02:29:28.000Z</time>
      </trkpt>
      <trkpt lat="45.43176" lon="4.62662">
        <ele>889</ele>
        <time>1970-01-01T02:29:29.000Z</time>
      </trkpt>
      <trkpt lat="45.43174" lon="4.62659">
        <ele>889</ele>
        <time>1970-01-01T02:29:31.000Z</time>
      </trkpt>
      <trkpt lat="45.43173" lon="4.6266">
        <ele>889</ele>
        <time>1970-01-01T02:29:32.000Z</time>
      </trkpt>
      <trkpt lat="45.4317" lon="4.62656">
        <ele>889</ele>
        <time>1970-01-01T02:29:35.000Z</time>
      </trkpt>
      <trkpt lat="45.43169" lon="4.62653">
        <ele>889</ele>
        <time>1970-01-01T02:29:36.000Z</time>
      </trkpt>
      <trkpt lat="45.43163" lon="4.62637">
        <ele>889</ele>
        <time>1970-01-01T02:29:42.000Z</time>
      </trkpt>
      <trkpt lat="45.43163" lon="4.62635">
        <ele>889</ele>
        <time>1970-01-01T02:29:43.000Z</time>
      </trkpt>
      <trkpt lat="45.43164" lon="4.62625">
        <ele>889</ele>
        <time>1970-01-01T02:29:47.000Z</time>
      </trkpt>
      <trkpt lat="45.43164" lon="4.6262">
        <ele>889</ele>
        <time>1970-01-01T02:29:49.000Z</time>
      </trkpt>
      <trkpt lat="45.43162" lon="4.62615">
        <ele>889.4</ele>
        <time>1970-01-01T02:29:51.000Z</time>
      </trkpt>
      <trkpt lat="45.43161" lon="4.62612">
        <ele>889.8</ele>
        <time>1970-01-01T02:29:52.000Z</time>
      </trkpt>
      <trkpt lat="45.43159" lon="4.6261">
        <ele>890.2</ele>
        <time>1970-01-01T02:29:53.000Z</time>
      </trkpt>
      <trkpt lat="45.43158" lon="4.62606">
        <ele>890.6</ele>
        <time>1970-01-01T02:29:54.000Z</time>
      </trkpt>
      <trkpt lat="45.43157" lon="4.62603">
        <ele>891</ele>
        <time>1970-01-01T02:29:55.000Z</time>
      </trkpt>
      <trkpt lat="45.43157" lon="4.62595">
        <ele>891</ele>
        <time>1970-01-01T02:29:58.000Z</time>
      </trkpt>
      <trkpt lat="45.43155" lon="4.62593">
        <ele>891</ele>
        <time>1970-01-01T02:29:59.000Z</time>
      </trkpt>
      <trkpt lat="45.43148" lon="4.62577">
        <ele>891</ele>
        <time>1970-01-01T02:30:05.000Z</time>
      </trkpt>
      <trkpt lat="45.43143" lon="4.6256">
        <ele>891</ele>
        <time>1970-01-01T02:30:10.000Z</time>
      </trkpt>
      <trkpt lat="45.43141" lon="4.62542">
        <ele>891.4</ele>
        <time>1970-01-01T02:30:14.000Z</time>
      </trkpt>
      <trkpt lat="45.4314" lon="4.62537">
        <ele>891.8</ele>
        <time>1970-01-01T02:30:15.000Z</time>
      </trkpt>
      <trkpt lat="45.43139" lon="4.62532">
        <ele>892.2</ele>
        <time>1970-01-01T02:30:16.000Z</time>
      </trkpt>
      <trkpt lat="45.43137" lon="4.62528">
        <ele>892.6</ele>
        <time>1970-01-01T02:30:17.000Z</time>
      </trkpt>
      <trkpt lat="45.43137" lon="4.62524">
        <ele>893</ele>
        <time>1970-01-01T02:30:18.000Z</time>
      </trkpt>
      <trkpt lat="45.43133" lon="4.62509">
        <ele>893</ele>
        <time>1970-01-01T02:30:21.000Z</time>
      </trkpt>
      <trkpt lat="45.43126" lon="4.62484">
        <ele>893</ele>
        <time>1970-01-01T02:30:26.000Z</time>
      </trkpt>
      <trkpt lat="45.43122" lon="4.62454">
        <ele>893</ele>
        <time>1970-01-01T02:30:32.000Z</time>
      </trkpt>
      <trkpt lat="45.43119" lon="4.62434">
        <ele>893.6</ele>
        <time>1970-01-01T02:30:36.000Z</time>
      </trkpt>
      <trkpt lat="45.43118" lon="4.62429">
        <ele>894.4</ele>
        <time>1970-01-01T02:30:37.000Z</time>
      </trkpt>
      <trkpt lat="45.43118" lon="4.62424">
        <ele>895</ele>
        <time>1970-01-01T02:30:38.000Z</time>
      </trkpt>
      <trkpt lat="45.43118" lon="4.6242">
        <ele>895.4</ele>
        <time>1970-01-01T02:30:39.000Z</time>
      </trkpt>
      <trkpt lat="45.43114" lon="4.62382">
        <ele>895.4</ele>
        <time>1970-01-01T02:30:47.000Z</time>
      </trkpt>
      <trkpt lat="45.4311" lon="4.62351">
        <ele>895.4</ele>
        <time>1970-01-01T02:30:53.000Z</time>
      </trkpt>
      <trkpt lat="45.43109" lon="4.6234">
        <ele>895.4</ele>
        <time>1970-01-01T02:30:55.000Z</time>
      </trkpt>
      <trkpt lat="45.43109" lon="4.62327">
        <ele>895.4</ele>
        <time>1970-01-01T02:30:57.000Z</time>
      </trkpt>
      <trkpt lat="45.43106" lon="4.62298">
        <ele>895.4</ele>
        <time>1970-01-01T02:31:02.000Z</time>
      </trkpt>
      <trkpt lat="45.431" lon="4.62272">
        <ele>895.4</ele>
        <time>1970-01-01T02:31:07.000Z</time>
      </trkpt>
      <trkpt lat="45.43096" lon="4.62244">
        <ele>895.4</ele>
        <time>1970-01-01T02:31:12.000Z</time>
      </trkpt>
      <trkpt lat="45.43091" lon="4.62227">
        <ele>895.4</ele>
        <time>1970-01-01T02:31:15.000Z</time>
      </trkpt>
      <trkpt lat="45.43087" lon="4.6221">
        <ele>895.4</ele>
        <time>1970-01-01T02:31:18.000Z</time>
      </trkpt>
      <trkpt lat="45.43081" lon="4.62178">
        <ele>895.4</ele>
        <time>1970-01-01T02:31:24.000Z</time>
      </trkpt>
      <trkpt lat="45.43079" lon="4.62166">
        <ele>895.4</ele>
        <time>1970-01-01T02:31:26.000Z</time>
      </trkpt>
      <trkpt lat="45.43076" lon="4.62148">
        <ele>895.4</ele>
        <time>1970-01-01T02:31:29.000Z</time>
      </trkpt>
      <trkpt lat="45.43074" lon="4.62137">
        <ele>895.4</ele>
        <time>1970-01-01T02:31:31.000Z</time>
      </trkpt>
      <trkpt lat="45.43071" lon="4.62121">
        <ele>895.4</ele>
        <time>1970-01-01T02:31:34.000Z</time>
      </trkpt>
      <trkpt lat="45.43067" lon="4.6209">
        <ele>895</ele>
        <time>1970-01-01T02:31:40.000Z</time>
      </trkpt>
      <trkpt lat="45.43066" lon="4.62083">
        <ele>894.6</ele>
        <time>1970-01-01T02:31:41.000Z</time>
      </trkpt>
      <trkpt lat="45.43065" lon="4.62077">
        <ele>894.2</ele>
        <time>1970-01-01T02:31:42.000Z</time>
      </trkpt>
      <trkpt lat="45.43064" lon="4.6207">
        <ele>893.6</ele>
        <time>1970-01-01T02:31:43.000Z</time>
      </trkpt>
      <trkpt lat="45.43063" lon="4.62062">
        <ele>893.2</ele>
        <time>1970-01-01T02:31:44.000Z</time>
      </trkpt>
      <trkpt lat="45.43062" lon="4.62055">
        <ele>893.2</ele>
        <time>1970-01-01T02:31:45.000Z</time>
      </trkpt>
      <trkpt lat="45.43062" lon="4.62048">
        <ele>893.2</ele>
        <time>1970-01-01T02:31:46.000Z</time>
      </trkpt>
      <trkpt lat="45.43061" lon="4.62025">
        <ele>893.2</ele>
        <time>1970-01-01T02:31:49.000Z</time>
      </trkpt>
      <trkpt lat="45.4306" lon="4.62017">
        <ele>892.8</ele>
        <time>1970-01-01T02:31:50.000Z</time>
      </trkpt>
      <trkpt lat="45.4306" lon="4.6201">
        <ele>892</ele>
        <time>1970-01-01T02:31:51.000Z</time>
      </trkpt>
      <trkpt lat="45.4306" lon="4.62003">
        <ele>891.6</ele>
        <time>1970-01-01T02:31:52.000Z</time>
      </trkpt>
      <trkpt lat="45.43059" lon="4.61997">
        <ele>891.2</ele>
        <time>1970-01-01T02:31:53.000Z</time>
      </trkpt>
      <trkpt lat="45.43058" lon="4.61986">
        <ele>891.2</ele>
        <time>1970-01-01T02:31:55.000Z</time>
      </trkpt>
      <trkpt lat="45.43057" lon="4.61979">
        <ele>891.2</ele>
        <time>1970-01-01T02:31:56.000Z</time>
      </trkpt>
      <trkpt lat="45.43054" lon="4.61962">
        <ele>891.2</ele>
        <time>1970-01-01T02:31:59.000Z</time>
      </trkpt>
      <trkpt lat="45.43052" lon="4.61951">
        <ele>891.2</ele>
        <time>1970-01-01T02:32:01.000Z</time>
      </trkpt>
      <trkpt lat="45.43053" lon="4.61924">
        <ele>891.2</ele>
        <time>1970-01-01T02:32:06.000Z</time>
      </trkpt>
      <trkpt lat="45.43053" lon="4.61918">
        <ele>890.8</ele>
        <time>1970-01-01T02:32:07.000Z</time>
      </trkpt>
      <trkpt lat="45.43053" lon="4.61912">
        <ele>890.4</ele>
        <time>1970-01-01T02:32:08.000Z</time>
      </trkpt>
      <trkpt lat="45.43054" lon="4.61906">
        <ele>890</ele>
        <time>1970-01-01T02:32:09.000Z</time>
      </trkpt>
      <trkpt lat="45.43054" lon="4.619">
        <ele>889.6</ele>
        <time>1970-01-01T02:32:10.000Z</time>
      </trkpt>
      <trkpt lat="45.43055" lon="4.61894">
        <ele>889.2</ele>
        <time>1970-01-01T02:32:11.000Z</time>
      </trkpt>
      <trkpt lat="45.43056" lon="4.61888">
        <ele>889.2</ele>
        <time>1970-01-01T02:32:12.000Z</time>
      </trkpt>
      <trkpt lat="45.43057" lon="4.61875">
        <ele>889.2</ele>
        <time>1970-01-01T02:32:14.000Z</time>
      </trkpt>
      <trkpt lat="45.43059" lon="4.61858">
        <ele>889.2</ele>
        <time>1970-01-01T02:32:17.000Z</time>
      </trkpt>
      <trkpt lat="45.43058" lon="4.61833">
        <ele>889.2</ele>
        <time>1970-01-01T02:32:22.000Z</time>
      </trkpt>
      <trkpt lat="45.43063" lon="4.61804">
        <ele>889.2</ele>
        <time>1970-01-01T02:32:28.000Z</time>
      </trkpt>
      <trkpt lat="45.43071" lon="4.61771">
        <ele>888.6</ele>
        <time>1970-01-01T02:32:34.000Z</time>
      </trkpt>
      <trkpt lat="45.43071" lon="4.61765">
        <ele>888.2</ele>
        <time>1970-01-01T02:32:35.000Z</time>
      </trkpt>
      <trkpt lat="45.43071" lon="4.61758">
        <ele>887.8</ele>
        <time>1970-01-01T02:32:36.000Z</time>
      </trkpt>
      <trkpt lat="45.43072" lon="4.61752">
        <ele>887.4</ele>
        <time>1970-01-01T02:32:37.000Z</time>
      </trkpt>
      <trkpt lat="45.43072" lon="4.61747">
        <ele>887</ele>
        <time>1970-01-01T02:32:38.000Z</time>
      </trkpt>
      <trkpt lat="45.43075" lon="4.61718">
        <ele>887</ele>
        <time>1970-01-01T02:32:44.000Z</time>
      </trkpt>
      <trkpt lat="45.43079" lon="4.61695">
        <ele>887</ele>
        <time>1970-01-01T02:32:51.000Z</time>
      </trkpt>
      <trkpt lat="45.43079" lon="4.61674">
        <ele>887</ele>
        <time>1970-01-01T02:32:56.000Z</time>
      </trkpt>
      <trkpt lat="45.43081" lon="4.61662">
        <ele>887</ele>
        <time>1970-01-01T02:33:00.000Z</time>
      </trkpt>
      <trkpt lat="45.43082" lon="4.6166">
        <ele>887</ele>
        <time>1970-01-01T02:33:01.000Z</time>
      </trkpt>
      <trkpt lat="45.43086" lon="4.61648">
        <ele>887</ele>
        <time>1970-01-01T02:33:06.000Z</time>
      </trkpt>
      <trkpt lat="45.43092" lon="4.61639">
        <ele>887</ele>
        <time>1970-01-01T02:33:12.000Z</time>
      </trkpt>
      <trkpt lat="45.43095" lon="4.61629">
        <ele>887</ele>
        <time>1970-01-01T02:33:17.000Z</time>
      </trkpt>
      <trkpt lat="45.43094" lon="4.61626">
        <ele>887</ele>
        <time>1970-01-01T02:33:19.000Z</time>
      </trkpt>
      <trkpt lat="45.43095" lon="4.61618">
        <ele>887</ele>
        <time>1970-01-01T02:33:21.000Z</time>
      </trkpt>
      <trkpt lat="45.43095" lon="4.61608">
        <ele>887</ele>
        <time>1970-01-01T02:33:23.000Z</time>
      </trkpt>
      <trkpt lat="45.43096" lon="4.61596">
        <ele>887</ele>
        <time>1970-01-01T02:33:25.000Z</time>
      </trkpt>
      <trkpt lat="45.43097" lon="4.61588">
        <ele>887</ele>
        <time>1970-01-01T02:33:26.000Z</time>
      </trkpt>
      <trkpt lat="45.43099" lon="4.6158">
        <ele>887</ele>
        <time>1970-01-01T02:33:27.000Z</time>
      </trkpt>
      <trkpt lat="45.43106" lon="4.61559">
        <ele>886.4</ele>
        <time>1970-01-01T02:33:30.000Z</time>
      </trkpt>
      <trkpt lat="45.43108" lon="4.61552">
        <ele>885.8</ele>
        <time>1970-01-01T02:33:31.000Z</time>
      </trkpt>
      <trkpt lat="45.4311" lon="4.61545">
        <ele>885</ele>
        <time>1970-01-01T02:33:32.000Z</time>
      </trkpt>
      <trkpt lat="45.43113" lon="4.61538">
        <ele>884.2</ele>
        <time>1970-01-01T02:33:33.000Z</time>
      </trkpt>
      <trkpt lat="45.43115" lon="4.6153">
        <ele>883.2</ele>
        <time>1970-01-01T02:33:34.000Z</time>
      </trkpt>
      <trkpt lat="45.43117" lon="4.61523">
        <ele>882.2</ele>
        <time>1970-01-01T02:33:35.000Z</time>
      </trkpt>
      <trkpt lat="45.43118" lon="4.61517">
        <ele>881.2</ele>
        <time>1970-01-01T02:33:36.000Z</time>
      </trkpt>
      <trkpt lat="45.43117" lon="4.6151">
        <ele>880</ele>
        <time>1970-01-01T02:33:37.000Z</time>
      </trkpt>
      <trkpt lat="45.43118" lon="4.61505">
        <ele>878.8</ele>
        <time>1970-01-01T02:33:38.000Z</time>
      </trkpt>
      <trkpt lat="45.43119" lon="4.61501">
        <ele>878</ele>
        <time>1970-01-01T02:33:39.000Z</time>
      </trkpt>
      <trkpt lat="45.43119" lon="4.61497">
        <ele>877</ele>
        <time>1970-01-01T02:33:40.000Z</time>
      </trkpt>
      <trkpt lat="45.4312" lon="4.61491">
        <ele>876</ele>
        <time>1970-01-01T02:33:41.000Z</time>
      </trkpt>
      <trkpt lat="45.43121" lon="4.61485">
        <ele>875</ele>
        <time>1970-01-01T02:33:42.000Z</time>
      </trkpt>
      <trkpt lat="45.43123" lon="4.6148">
        <ele>874.2</ele>
        <time>1970-01-01T02:33:43.000Z</time>
      </trkpt>
      <trkpt lat="45.43125" lon="4.61474">
        <ele>873.2</ele>
        <time>1970-01-01T02:33:44.000Z</time>
      </trkpt>
      <trkpt lat="45.43128" lon="4.61468">
        <ele>872.4</ele>
        <time>1970-01-01T02:33:45.000Z</time>
      </trkpt>
      <trkpt lat="45.43129" lon="4.6146">
        <ele>871.4</ele>
        <time>1970-01-01T02:33:46.000Z</time>
      </trkpt>
      <trkpt lat="45.4313" lon="4.61451">
        <ele>870.6</ele>
        <time>1970-01-01T02:33:47.000Z</time>
      </trkpt>
      <trkpt lat="45.43131" lon="4.61442">
        <ele>869.6</ele>
        <time>1970-01-01T02:33:48.000Z</time>
      </trkpt>
      <trkpt lat="45.43133" lon="4.61433">
        <ele>869</ele>
        <time>1970-01-01T02:33:49.000Z</time>
      </trkpt>
      <trkpt lat="45.43135" lon="4.61422">
        <ele>868.4</ele>
        <time>1970-01-01T02:33:50.000Z</time>
      </trkpt>
      <trkpt lat="45.43137" lon="4.61412">
        <ele>867.8</ele>
        <time>1970-01-01T02:33:51.000Z</time>
      </trkpt>
      <trkpt lat="45.4314" lon="4.61402">
        <ele>867.2</ele>
        <time>1970-01-01T02:33:52.000Z</time>
      </trkpt>
      <trkpt lat="45.43142" lon="4.6139">
        <ele>866.4</ele>
        <time>1970-01-01T02:33:53.000Z</time>
      </trkpt>
      <trkpt lat="45.43145" lon="4.61377">
        <ele>865.6</ele>
        <time>1970-01-01T02:33:54.000Z</time>
      </trkpt>
      <trkpt lat="45.43148" lon="4.61366">
        <ele>863.6</ele>
        <time>1970-01-01T02:33:55.000Z</time>
      </trkpt>
      <trkpt lat="45.43151" lon="4.61356">
        <ele>862.6</ele>
        <time>1970-01-01T02:33:56.000Z</time>
      </trkpt>
      <trkpt lat="45.43153" lon="4.61346">
        <ele>861.4</ele>
        <time>1970-01-01T02:33:57.000Z</time>
      </trkpt>
      <trkpt lat="45.43155" lon="4.6134">
        <ele>860.4</ele>
        <time>1970-01-01T02:33:58.000Z</time>
      </trkpt>
      <trkpt lat="45.43158" lon="4.61335">
        <ele>859.2</ele>
        <time>1970-01-01T02:33:59.000Z</time>
      </trkpt>
      <trkpt lat="45.43161" lon="4.61329">
        <ele>858.2</ele>
        <time>1970-01-01T02:34:00.000Z</time>
      </trkpt>
      <trkpt lat="45.43163" lon="4.61325">
        <ele>857</ele>
        <time>1970-01-01T02:34:01.000Z</time>
      </trkpt>
      <trkpt lat="45.43167" lon="4.61324">
        <ele>856.6</ele>
        <time>1970-01-01T02:34:02.000Z</time>
      </trkpt>
      <trkpt lat="45.43171" lon="4.61322">
        <ele>856</ele>
        <time>1970-01-01T02:34:03.000Z</time>
      </trkpt>
      <trkpt lat="45.43175" lon="4.61317">
        <ele>855.6</ele>
        <time>1970-01-01T02:34:04.000Z</time>
      </trkpt>
      <trkpt lat="45.43178" lon="4.61311">
        <ele>855.2</ele>
        <time>1970-01-01T02:34:05.000Z</time>
      </trkpt>
      <trkpt lat="45.43181" lon="4.61305">
        <ele>854.6</ele>
        <time>1970-01-01T02:34:06.000Z</time>
      </trkpt>
      <trkpt lat="45.43186" lon="4.61299">
        <ele>854.6</ele>
        <time>1970-01-01T02:34:07.000Z</time>
      </trkpt>
      <trkpt lat="45.43193" lon="4.61283">
        <ele>854.6</ele>
        <time>1970-01-01T02:34:09.000Z</time>
      </trkpt>
      <trkpt lat="45.43202" lon="4.61266">
        <ele>854.6</ele>
        <time>1970-01-01T02:34:12.000Z</time>
      </trkpt>
      <trkpt lat="45.4321" lon="4.61248">
        <ele>854.6</ele>
        <time>1970-01-01T02:34:15.000Z</time>
      </trkpt>
      <trkpt lat="45.43217" lon="4.61225">
        <ele>854.2</ele>
        <time>1970-01-01T02:34:19.000Z</time>
      </trkpt>
      <trkpt lat="45.4322" lon="4.61223">
        <ele>853.4</ele>
        <time>1970-01-01T02:34:20.000Z</time>
      </trkpt>
      <trkpt lat="45.43223" lon="4.61225">
        <ele>852.8</ele>
        <time>1970-01-01T02:34:21.000Z</time>
      </trkpt>
      <trkpt lat="45.43227" lon="4.61228">
        <ele>852.4</ele>
        <time>1970-01-01T02:34:22.000Z</time>
      </trkpt>
      <trkpt lat="45.43239" lon="4.61222">
        <ele>852.4</ele>
        <time>1970-01-01T02:34:25.000Z</time>
      </trkpt>
      <trkpt lat="45.43242" lon="4.61217">
        <ele>852.4</ele>
        <time>1970-01-01T02:34:26.000Z</time>
      </trkpt>
      <trkpt lat="45.43244" lon="4.6121">
        <ele>852.4</ele>
        <time>1970-01-01T02:34:27.000Z</time>
      </trkpt>
      <trkpt lat="45.43246" lon="4.61203">
        <ele>852</ele>
        <time>1970-01-01T02:34:28.000Z</time>
      </trkpt>
      <trkpt lat="45.43249" lon="4.61197">
        <ele>851.6</ele>
        <time>1970-01-01T02:34:29.000Z</time>
      </trkpt>
      <trkpt lat="45.43252" lon="4.61194">
        <ele>851</ele>
        <time>1970-01-01T02:34:30.000Z</time>
      </trkpt>
      <trkpt lat="45.43255" lon="4.61192">
        <ele>850.6</ele>
        <time>1970-01-01T02:34:31.000Z</time>
      </trkpt>
      <trkpt lat="45.43258" lon="4.6119">
        <ele>850.2</ele>
        <time>1970-01-01T02:34:32.000Z</time>
      </trkpt>
      <trkpt lat="45.43262" lon="4.61187">
        <ele>849.6</ele>
        <time>1970-01-01T02:34:33.000Z</time>
      </trkpt>
      <trkpt lat="45.43265" lon="4.61185">
        <ele>849</ele>
        <time>1970-01-01T02:34:34.000Z</time>
      </trkpt>
      <trkpt lat="45.4327" lon="4.61186">
        <ele>848.4</ele>
        <time>1970-01-01T02:34:35.000Z</time>
      </trkpt>
      <trkpt lat="45.43273" lon="4.61185">
        <ele>847.8</ele>
        <time>1970-01-01T02:34:36.000Z</time>
      </trkpt>
      <trkpt lat="45.43275" lon="4.61183">
        <ele>847.2</ele>
        <time>1970-01-01T02:34:37.000Z</time>
      </trkpt>
      <trkpt lat="45.43275" lon="4.6118">
        <ele>846.6</ele>
        <time>1970-01-01T02:34:38.000Z</time>
      </trkpt>
      <trkpt lat="45.43275" lon="4.61176">
        <ele>845.8</ele>
        <time>1970-01-01T02:34:39.000Z</time>
      </trkpt>
      <trkpt lat="45.43276" lon="4.61169">
        <ele>845.2</ele>
        <time>1970-01-01T02:34:40.000Z</time>
      </trkpt>
      <trkpt lat="45.4328" lon="4.61161">
        <ele>844.4</ele>
        <time>1970-01-01T02:34:41.000Z</time>
      </trkpt>
      <trkpt lat="45.43282" lon="4.61154">
        <ele>843.8</ele>
        <time>1970-01-01T02:34:42.000Z</time>
      </trkpt>
      <trkpt lat="45.43283" lon="4.61137">
        <ele>843.4</ele>
        <time>1970-01-01T02:34:44.000Z</time>
      </trkpt>
      <trkpt lat="45.43284" lon="4.6113">
        <ele>842.8</ele>
        <time>1970-01-01T02:34:45.000Z</time>
      </trkpt>
      <trkpt lat="45.43285" lon="4.61122">
        <ele>842.4</ele>
        <time>1970-01-01T02:34:46.000Z</time>
      </trkpt>
      <trkpt lat="45.43285" lon="4.61115">
        <ele>841.8</ele>
        <time>1970-01-01T02:34:47.000Z</time>
      </trkpt>
      <trkpt lat="45.43285" lon="4.6111">
        <ele>841.4</ele>
        <time>1970-01-01T02:34:48.000Z</time>
      </trkpt>
      <trkpt lat="45.43285" lon="4.611">
        <ele>841.4</ele>
        <time>1970-01-01T02:34:50.000Z</time>
      </trkpt>
      <trkpt lat="45.43283" lon="4.61081">
        <ele>841.4</ele>
        <time>1970-01-01T02:34:53.000Z</time>
      </trkpt>
      <trkpt lat="45.43282" lon="4.61074">
        <ele>841.4</ele>
        <time>1970-01-01T02:34:54.000Z</time>
      </trkpt>
      <trkpt lat="45.43283" lon="4.61043">
        <ele>841.4</ele>
        <time>1970-01-01T02:34:59.000Z</time>
      </trkpt>
      <trkpt lat="45.43282" lon="4.61017">
        <ele>841.4</ele>
        <time>1970-01-01T02:35:02.000Z</time>
      </trkpt>
      <trkpt lat="45.43275" lon="4.61007">
        <ele>841</ele>
        <time>1970-01-01T02:35:04.000Z</time>
      </trkpt>
      <trkpt lat="45.43273" lon="4.61002">
        <ele>840.6</ele>
        <time>1970-01-01T02:35:05.000Z</time>
      </trkpt>
      <trkpt lat="45.4327" lon="4.60996">
        <ele>840</ele>
        <time>1970-01-01T02:35:06.000Z</time>
      </trkpt>
      <trkpt lat="45.43268" lon="4.60991">
        <ele>839.6</ele>
        <time>1970-01-01T02:35:07.000Z</time>
      </trkpt>
      <trkpt lat="45.43266" lon="4.60985">
        <ele>839.2</ele>
        <time>1970-01-01T02:35:08.000Z</time>
      </trkpt>
      <trkpt lat="45.43264" lon="4.60979">
        <ele>838.8</ele>
        <time>1970-01-01T02:35:09.000Z</time>
      </trkpt>
      <trkpt lat="45.43264" lon="4.60973">
        <ele>838.2</ele>
        <time>1970-01-01T02:35:10.000Z</time>
      </trkpt>
      <trkpt lat="45.43263" lon="4.60969">
        <ele>837.8</ele>
        <time>1970-01-01T02:35:11.000Z</time>
      </trkpt>
      <trkpt lat="45.43263" lon="4.60964">
        <ele>837.2</ele>
        <time>1970-01-01T02:35:12.000Z</time>
      </trkpt>
      <trkpt lat="45.43264" lon="4.60959">
        <ele>836.8</ele>
        <time>1970-01-01T02:35:13.000Z</time>
      </trkpt>
      <trkpt lat="45.43264" lon="4.60954">
        <ele>836.8</ele>
        <time>1970-01-01T02:35:14.000Z</time>
      </trkpt>
      <trkpt lat="45.43264" lon="4.60947">
        <ele>836.4</ele>
        <time>1970-01-01T02:35:15.000Z</time>
      </trkpt>
      <trkpt lat="45.43265" lon="4.60942">
        <ele>836</ele>
        <time>1970-01-01T02:35:16.000Z</time>
      </trkpt>
      <trkpt lat="45.43266" lon="4.60936">
        <ele>835.6</ele>
        <time>1970-01-01T02:35:17.000Z</time>
      </trkpt>
      <trkpt lat="45.43267" lon="4.60927">
        <ele>835</ele>
        <time>1970-01-01T02:35:18.000Z</time>
      </trkpt>
      <trkpt lat="45.43265" lon="4.60922">
        <ele>834.6</ele>
        <time>1970-01-01T02:35:19.000Z</time>
      </trkpt>
      <trkpt lat="45.43264" lon="4.60911">
        <ele>834.2</ele>
        <time>1970-01-01T02:35:21.000Z</time>
      </trkpt>
      <trkpt lat="45.43264" lon="4.60906">
        <ele>833.8</ele>
        <time>1970-01-01T02:35:22.000Z</time>
      </trkpt>
      <trkpt lat="45.43264" lon="4.609">
        <ele>833.4</ele>
        <time>1970-01-01T02:35:23.000Z</time>
      </trkpt>
      <trkpt lat="45.43266" lon="4.60897">
        <ele>833</ele>
        <time>1970-01-01T02:35:24.000Z</time>
      </trkpt>
      <trkpt lat="45.43268" lon="4.60895">
        <ele>832.4</ele>
        <time>1970-01-01T02:35:25.000Z</time>
      </trkpt>
      <trkpt lat="45.43271" lon="4.60889">
        <ele>832</ele>
        <time>1970-01-01T02:35:26.000Z</time>
      </trkpt>
      <trkpt lat="45.43273" lon="4.60881">
        <ele>831.6</ele>
        <time>1970-01-01T02:35:27.000Z</time>
      </trkpt>
      <trkpt lat="45.43275" lon="4.60874">
        <ele>831</ele>
        <time>1970-01-01T02:35:28.000Z</time>
      </trkpt>
      <trkpt lat="45.43278" lon="4.60867">
        <ele>830.6</ele>
        <time>1970-01-01T02:35:29.000Z</time>
      </trkpt>
      <trkpt lat="45.43279" lon="4.60858">
        <ele>830</ele>
        <time>1970-01-01T02:35:30.000Z</time>
      </trkpt>
      <trkpt lat="45.43281" lon="4.60847">
        <ele>829.6</ele>
        <time>1970-01-01T02:35:31.000Z</time>
      </trkpt>
      <trkpt lat="45.43283" lon="4.60838">
        <ele>829</ele>
        <time>1970-01-01T02:35:32.000Z</time>
      </trkpt>
      <trkpt lat="45.43285" lon="4.60832">
        <ele>828.4</ele>
        <time>1970-01-01T02:35:33.000Z</time>
      </trkpt>
      <trkpt lat="45.43288" lon="4.60829">
        <ele>826.4</ele>
        <time>1970-01-01T02:35:34.000Z</time>
      </trkpt>
      <trkpt lat="45.43291" lon="4.60827">
        <ele>825.4</ele>
        <time>1970-01-01T02:35:35.000Z</time>
      </trkpt>
      <trkpt lat="45.43296" lon="4.60823">
        <ele>824.4</ele>
        <time>1970-01-01T02:35:36.000Z</time>
      </trkpt>
      <trkpt lat="45.433" lon="4.60818">
        <ele>823.4</ele>
        <time>1970-01-01T02:35:37.000Z</time>
      </trkpt>
      <trkpt lat="45.43304" lon="4.60813">
        <ele>822.2</ele>
        <time>1970-01-01T02:35:38.000Z</time>
      </trkpt>
      <trkpt lat="45.43307" lon="4.6081">
        <ele>821</ele>
        <time>1970-01-01T02:35:39.000Z</time>
      </trkpt>
      <trkpt lat="45.43309" lon="4.60805">
        <ele>819.8</ele>
        <time>1970-01-01T02:35:40.000Z</time>
      </trkpt>
      <trkpt lat="45.4331" lon="4.60799">
        <ele>818.8</ele>
        <time>1970-01-01T02:35:41.000Z</time>
      </trkpt>
      <trkpt lat="45.43309" lon="4.60793">
        <ele>817.6</ele>
        <time>1970-01-01T02:35:42.000Z</time>
      </trkpt>
      <trkpt lat="45.43309" lon="4.60784">
        <ele>816.4</ele>
        <time>1970-01-01T02:35:43.000Z</time>
      </trkpt>
      <trkpt lat="45.43308" lon="4.60778">
        <ele>815.4</ele>
        <time>1970-01-01T02:35:44.000Z</time>
      </trkpt>
      <trkpt lat="45.43308" lon="4.60773">
        <ele>814.4</ele>
        <time>1970-01-01T02:35:45.000Z</time>
      </trkpt>
      <trkpt lat="45.4331" lon="4.6077">
        <ele>813.4</ele>
        <time>1970-01-01T02:35:46.000Z</time>
      </trkpt>
      <trkpt lat="45.43312" lon="4.60768">
        <ele>812.4</ele>
        <time>1970-01-01T02:35:47.000Z</time>
      </trkpt>
      <trkpt lat="45.43314" lon="4.60765">
        <ele>811.4</ele>
        <time>1970-01-01T02:35:48.000Z</time>
      </trkpt>
      <trkpt lat="45.43317" lon="4.60762">
        <ele>810.4</ele>
        <time>1970-01-01T02:35:49.000Z</time>
      </trkpt>
      <trkpt lat="45.4332" lon="4.6076">
        <ele>809.4</ele>
        <time>1970-01-01T02:35:50.000Z</time>
      </trkpt>
      <trkpt lat="45.43323" lon="4.60757">
        <ele>808.4</ele>
        <time>1970-01-01T02:35:51.000Z</time>
      </trkpt>
      <trkpt lat="45.43326" lon="4.60754">
        <ele>807.2</ele>
        <time>1970-01-01T02:35:52.000Z</time>
      </trkpt>
      <trkpt lat="45.43329" lon="4.6075">
        <ele>806</ele>
        <time>1970-01-01T02:35:53.000Z</time>
      </trkpt>
      <trkpt lat="45.43332" lon="4.60746">
        <ele>805.2</ele>
        <time>1970-01-01T02:35:54.000Z</time>
      </trkpt>
      <trkpt lat="45.43335" lon="4.60741">
        <ele>804.2</ele>
        <time>1970-01-01T02:35:55.000Z</time>
      </trkpt>
      <trkpt lat="45.43338" lon="4.60738">
        <ele>803.4</ele>
        <time>1970-01-01T02:35:56.000Z</time>
      </trkpt>
      <trkpt lat="45.43341" lon="4.60736">
        <ele>802.4</ele>
        <time>1970-01-01T02:35:57.000Z</time>
      </trkpt>
      <trkpt lat="45.43344" lon="4.60733">
        <ele>801.8</ele>
        <time>1970-01-01T02:35:58.000Z</time>
      </trkpt>
      <trkpt lat="45.43347" lon="4.60725">
        <ele>800.6</ele>
        <time>1970-01-01T02:35:59.000Z</time>
      </trkpt>
      <trkpt lat="45.43349" lon="4.60717">
        <ele>800</ele>
        <time>1970-01-01T02:36:00.000Z</time>
      </trkpt>
      <trkpt lat="45.4335" lon="4.60708">
        <ele>799.4</ele>
        <time>1970-01-01T02:36:01.000Z</time>
      </trkpt>
      <trkpt lat="45.43349" lon="4.60692">
        <ele>799.4</ele>
        <time>1970-01-01T02:36:03.000Z</time>
      </trkpt>
      <trkpt lat="45.4335" lon="4.60681">
        <ele>799.4</ele>
        <time>1970-01-01T02:36:04.000Z</time>
      </trkpt>
      <trkpt lat="45.4335" lon="4.60673">
        <ele>799</ele>
        <time>1970-01-01T02:36:05.000Z</time>
      </trkpt>
      <trkpt lat="45.43352" lon="4.60664">
        <ele>798.4</ele>
        <time>1970-01-01T02:36:06.000Z</time>
      </trkpt>
      <trkpt lat="45.43354" lon="4.60655">
        <ele>797.6</ele>
        <time>1970-01-01T02:36:07.000Z</time>
      </trkpt>
      <trkpt lat="45.43357" lon="4.60644">
        <ele>796.8</ele>
        <time>1970-01-01T02:36:08.000Z</time>
      </trkpt>
      <trkpt lat="45.43358" lon="4.60632">
        <ele>795.8</ele>
        <time>1970-01-01T02:36:09.000Z</time>
      </trkpt>
      <trkpt lat="45.4336" lon="4.60621">
        <ele>795</ele>
        <time>1970-01-01T02:36:10.000Z</time>
      </trkpt>
      <trkpt lat="45.43361" lon="4.60611">
        <ele>794</ele>
        <time>1970-01-01T02:36:11.000Z</time>
      </trkpt>
      <trkpt lat="45.43364" lon="4.60599">
        <ele>793.2</ele>
        <time>1970-01-01T02:36:12.000Z</time>
      </trkpt>
      <trkpt lat="45.43365" lon="4.60587">
        <ele>792.6</ele>
        <time>1970-01-01T02:36:13.000Z</time>
      </trkpt>
      <trkpt lat="45.43367" lon="4.60576">
        <ele>792</ele>
        <time>1970-01-01T02:36:14.000Z</time>
      </trkpt>
      <trkpt lat="45.43367" lon="4.60568">
        <ele>791.2</ele>
        <time>1970-01-01T02:36:15.000Z</time>
      </trkpt>
      <trkpt lat="45.43367" lon="4.60563">
        <ele>790.6</ele>
        <time>1970-01-01T02:36:16.000Z</time>
      </trkpt>
      <trkpt lat="45.43365" lon="4.60559">
        <ele>790</ele>
        <time>1970-01-01T02:36:17.000Z</time>
      </trkpt>
      <trkpt lat="45.43363" lon="4.60552">
        <ele>789.2</ele>
        <time>1970-01-01T02:36:18.000Z</time>
      </trkpt>
      <trkpt lat="45.43362" lon="4.60546">
        <ele>788.6</ele>
        <time>1970-01-01T02:36:19.000Z</time>
      </trkpt>
      <trkpt lat="45.4336" lon="4.60539">
        <ele>788</ele>
        <time>1970-01-01T02:36:20.000Z</time>
      </trkpt>
      <trkpt lat="45.43358" lon="4.60524">
        <ele>787.6</ele>
        <time>1970-01-01T02:36:22.000Z</time>
      </trkpt>
      <trkpt lat="45.43356" lon="4.60517">
        <ele>787.2</ele>
        <time>1970-01-01T02:36:23.000Z</time>
      </trkpt>
      <trkpt lat="45.43354" lon="4.60509">
        <ele>786</ele>
        <time>1970-01-01T02:36:24.000Z</time>
      </trkpt>
      <trkpt lat="45.43352" lon="4.60501">
        <ele>785.2</ele>
        <time>1970-01-01T02:36:25.000Z</time>
      </trkpt>
      <trkpt lat="45.43351" lon="4.60493">
        <ele>784.4</ele>
        <time>1970-01-01T02:36:26.000Z</time>
      </trkpt>
      <trkpt lat="45.43349" lon="4.60485">
        <ele>783.4</ele>
        <time>1970-01-01T02:36:27.000Z</time>
      </trkpt>
      <trkpt lat="45.43349" lon="4.6048">
        <ele>782.2</ele>
        <time>1970-01-01T02:36:28.000Z</time>
      </trkpt>
      <trkpt lat="45.43351" lon="4.60474">
        <ele>781.2</ele>
        <time>1970-01-01T02:36:29.000Z</time>
      </trkpt>
      <trkpt lat="45.43352" lon="4.60467">
        <ele>779.8</ele>
        <time>1970-01-01T02:36:30.000Z</time>
      </trkpt>
      <trkpt lat="45.43353" lon="4.60461">
        <ele>778.4</ele>
        <time>1970-01-01T02:36:31.000Z</time>
      </trkpt>
      <trkpt lat="45.43355" lon="4.60454">
        <ele>777</ele>
        <time>1970-01-01T02:36:32.000Z</time>
      </trkpt>
      <trkpt lat="45.43358" lon="4.60448">
        <ele>775.4</ele>
        <time>1970-01-01T02:36:33.000Z</time>
      </trkpt>
      <trkpt lat="45.43361" lon="4.6044">
        <ele>773.6</ele>
        <time>1970-01-01T02:36:34.000Z</time>
      </trkpt>
      <trkpt lat="45.43364" lon="4.60431">
        <ele>772</ele>
        <time>1970-01-01T02:36:35.000Z</time>
      </trkpt>
      <trkpt lat="45.43367" lon="4.60425">
        <ele>770.2</ele>
        <time>1970-01-01T02:36:36.000Z</time>
      </trkpt>
      <trkpt lat="45.43371" lon="4.6042">
        <ele>768.2</ele>
        <time>1970-01-01T02:36:37.000Z</time>
      </trkpt>
      <trkpt lat="45.43374" lon="4.60414">
        <ele>766</ele>
        <time>1970-01-01T02:36:38.000Z</time>
      </trkpt>
      <trkpt lat="45.43377" lon="4.60408">
        <ele>764</ele>
        <time>1970-01-01T02:36:39.000Z</time>
      </trkpt>
      <trkpt lat="45.4338" lon="4.60402">
        <ele>762</ele>
        <time>1970-01-01T02:36:40.000Z</time>
      </trkpt>
      <trkpt lat="45.43381" lon="4.60398">
        <ele>760.2</ele>
        <time>1970-01-01T02:36:41.000Z</time>
      </trkpt>
      <trkpt lat="45.43382" lon="4.60392">
        <ele>758.2</ele>
        <time>1970-01-01T02:36:42.000Z</time>
      </trkpt>
      <trkpt lat="45.4338" lon="4.60387">
        <ele>756.4</ele>
        <time>1970-01-01T02:36:43.000Z</time>
      </trkpt>
      <trkpt lat="45.43378" lon="4.60382">
        <ele>754.4</ele>
        <time>1970-01-01T02:36:44.000Z</time>
      </trkpt>
      <trkpt lat="45.43376" lon="4.60375">
        <ele>753.2</ele>
        <time>1970-01-01T02:36:45.000Z</time>
      </trkpt>
      <trkpt lat="45.43374" lon="4.60367">
        <ele>752</ele>
        <time>1970-01-01T02:36:46.000Z</time>
      </trkpt>
      <trkpt lat="45.43371" lon="4.60359">
        <ele>750.6</ele>
        <time>1970-01-01T02:36:47.000Z</time>
      </trkpt>
      <trkpt lat="45.43367" lon="4.60351">
        <ele>748.8</ele>
        <time>1970-01-01T02:36:48.000Z</time>
      </trkpt>
      <trkpt lat="45.43365" lon="4.60342">
        <ele>748</ele>
        <time>1970-01-01T02:36:49.000Z</time>
      </trkpt>
      <trkpt lat="45.43362" lon="4.60333">
        <ele>747.4</ele>
        <time>1970-01-01T02:36:50.000Z</time>
      </trkpt>
      <trkpt lat="45.43361" lon="4.60324">
        <ele>746.6</ele>
        <time>1970-01-01T02:36:51.000Z</time>
      </trkpt>
      <trkpt lat="45.4336" lon="4.60316">
        <ele>746</ele>
        <time>1970-01-01T02:36:52.000Z</time>
      </trkpt>
      <trkpt lat="45.4336" lon="4.6031">
        <ele>744.8</ele>
        <time>1970-01-01T02:36:53.000Z</time>
      </trkpt>
      <trkpt lat="45.43358" lon="4.60303">
        <ele>743.8</ele>
        <time>1970-01-01T02:36:54.000Z</time>
      </trkpt>
      <trkpt lat="45.43358" lon="4.60297">
        <ele>742.6</ele>
        <time>1970-01-01T02:36:55.000Z</time>
      </trkpt>
      <trkpt lat="45.43359" lon="4.60294">
        <ele>741.4</ele>
        <time>1970-01-01T02:36:56.000Z</time>
      </trkpt>
      <trkpt lat="45.43359" lon="4.60291">
        <ele>740.2</ele>
        <time>1970-01-01T02:36:57.000Z</time>
      </trkpt>
      <trkpt lat="45.43358" lon="4.60287">
        <ele>739.2</ele>
        <time>1970-01-01T02:36:58.000Z</time>
      </trkpt>
      <trkpt lat="45.43358" lon="4.60285">
        <ele>738.2</ele>
        <time>1970-01-01T02:36:59.000Z</time>
      </trkpt>
      <trkpt lat="45.43358" lon="4.6028">
        <ele>737.2</ele>
        <time>1970-01-01T02:37:00.000Z</time>
      </trkpt>
      <trkpt lat="45.43358" lon="4.60273">
        <ele>736.2</ele>
        <time>1970-01-01T02:37:01.000Z</time>
      </trkpt>
      <trkpt lat="45.4336" lon="4.60266">
        <ele>735.4</ele>
        <time>1970-01-01T02:37:02.000Z</time>
      </trkpt>
      <trkpt lat="45.43361" lon="4.60257">
        <ele>734.8</ele>
        <time>1970-01-01T02:37:03.000Z</time>
      </trkpt>
      <trkpt lat="45.43363" lon="4.60251">
        <ele>733.8</ele>
        <time>1970-01-01T02:37:04.000Z</time>
      </trkpt>
      <trkpt lat="45.43363" lon="4.60246">
        <ele>732.8</ele>
        <time>1970-01-01T02:37:05.000Z</time>
      </trkpt>
      <trkpt lat="45.43363" lon="4.6024">
        <ele>731.8</ele>
        <time>1970-01-01T02:37:06.000Z</time>
      </trkpt>
      <trkpt lat="45.43364" lon="4.60234">
        <ele>730.6</ele>
        <time>1970-01-01T02:37:07.000Z</time>
      </trkpt>
      <trkpt lat="45.43363" lon="4.60224">
        <ele>729.6</ele>
        <time>1970-01-01T02:37:08.000Z</time>
      </trkpt>
      <trkpt lat="45.43361" lon="4.60215">
        <ele>728.8</ele>
        <time>1970-01-01T02:37:09.000Z</time>
      </trkpt>
      <trkpt lat="45.43359" lon="4.60208">
        <ele>727.8</ele>
        <time>1970-01-01T02:37:10.000Z</time>
      </trkpt>
      <trkpt lat="45.43357" lon="4.60202">
        <ele>726.8</ele>
        <time>1970-01-01T02:37:11.000Z</time>
      </trkpt>
      <trkpt lat="45.43356" lon="4.60198">
        <ele>725.8</ele>
        <time>1970-01-01T02:37:12.000Z</time>
      </trkpt>
      <trkpt lat="45.43357" lon="4.60193">
        <ele>723.6</ele>
        <time>1970-01-01T02:37:13.000Z</time>
      </trkpt>
      <trkpt lat="45.43355" lon="4.60187">
        <ele>722.4</ele>
        <time>1970-01-01T02:37:14.000Z</time>
      </trkpt>
      <trkpt lat="45.43354" lon="4.60181">
        <ele>721.2</ele>
        <time>1970-01-01T02:37:15.000Z</time>
      </trkpt>
      <trkpt lat="45.43352" lon="4.60176">
        <ele>720</ele>
        <time>1970-01-01T02:37:16.000Z</time>
      </trkpt>
      <trkpt lat="45.43351" lon="4.6017">
        <ele>719.2</ele>
        <time>1970-01-01T02:37:17.000Z</time>
      </trkpt>
      <trkpt lat="45.4335" lon="4.60162">
        <ele>718.2</ele>
        <time>1970-01-01T02:37:18.000Z</time>
      </trkpt>
      <trkpt lat="45.43348" lon="4.60154">
        <ele>717.2</ele>
        <time>1970-01-01T02:37:19.000Z</time>
      </trkpt>
      <trkpt lat="45.43346" lon="4.60144">
        <ele>716.2</ele>
        <time>1970-01-01T02:37:20.000Z</time>
      </trkpt>
      <trkpt lat="45.43344" lon="4.60135">
        <ele>715.4</ele>
        <time>1970-01-01T02:37:21.000Z</time>
      </trkpt>
      <trkpt lat="45.43343" lon="4.60125">
        <ele>714.2</ele>
        <time>1970-01-01T02:37:22.000Z</time>
      </trkpt>
      <trkpt lat="45.43341" lon="4.60115">
        <ele>713.2</ele>
        <time>1970-01-01T02:37:23.000Z</time>
      </trkpt>
      <trkpt lat="45.43339" lon="4.60107">
        <ele>712</ele>
        <time>1970-01-01T02:37:24.000Z</time>
      </trkpt>
      <trkpt lat="45.43339" lon="4.60098">
        <ele>710.8</ele>
        <time>1970-01-01T02:37:25.000Z</time>
      </trkpt>
      <trkpt lat="45.43339" lon="4.60091">
        <ele>709.8</ele>
        <time>1970-01-01T02:37:26.000Z</time>
      </trkpt>
      <trkpt lat="45.43338" lon="4.60084">
        <ele>708.6</ele>
        <time>1970-01-01T02:37:27.000Z</time>
      </trkpt>
      <trkpt lat="45.43337" lon="4.60077">
        <ele>707.8</ele>
        <time>1970-01-01T02:37:28.000Z</time>
      </trkpt>
      <trkpt lat="45.43336" lon="4.60068">
        <ele>707.2</ele>
        <time>1970-01-01T02:37:29.000Z</time>
      </trkpt>
      <trkpt lat="45.43335" lon="4.60062">
        <ele>706.4</ele>
        <time>1970-01-01T02:37:30.000Z</time>
      </trkpt>
      <trkpt lat="45.43335" lon="4.60055">
        <ele>705.8</ele>
        <time>1970-01-01T02:37:31.000Z</time>
      </trkpt>
      <trkpt lat="45.43334" lon="4.60047">
        <ele>705</ele>
        <time>1970-01-01T02:37:32.000Z</time>
      </trkpt>
      <trkpt lat="45.43332" lon="4.60038">
        <ele>704.2</ele>
        <time>1970-01-01T02:37:33.000Z</time>
      </trkpt>
      <trkpt lat="45.43331" lon="4.6003">
        <ele>703.6</ele>
        <time>1970-01-01T02:37:34.000Z</time>
      </trkpt>
      <trkpt lat="45.43329" lon="4.60021">
        <ele>702.8</ele>
        <time>1970-01-01T02:37:35.000Z</time>
      </trkpt>
      <trkpt lat="45.43325" lon="4.60013">
        <ele>701.2</ele>
        <time>1970-01-01T02:37:36.000Z</time>
      </trkpt>
      <trkpt lat="45.43322" lon="4.60005">
        <ele>700.4</ele>
        <time>1970-01-01T02:37:37.000Z</time>
      </trkpt>
      <trkpt lat="45.43319" lon="4.59996">
        <ele>699.6</ele>
        <time>1970-01-01T02:37:38.000Z</time>
      </trkpt>
      <trkpt lat="45.43317" lon="4.59988">
        <ele>698.8</ele>
        <time>1970-01-01T02:37:39.000Z</time>
      </trkpt>
      <trkpt lat="45.43314" lon="4.5998">
        <ele>698.2</ele>
        <time>1970-01-01T02:37:40.000Z</time>
      </trkpt>
      <trkpt lat="45.43311" lon="4.59971">
        <ele>697.6</ele>
        <time>1970-01-01T02:37:41.000Z</time>
      </trkpt>
      <trkpt lat="45.43308" lon="4.59963">
        <ele>697</ele>
        <time>1970-01-01T02:37:42.000Z</time>
      </trkpt>
      <trkpt lat="45.43306" lon="4.59955">
        <ele>696.4</ele>
        <time>1970-01-01T02:37:43.000Z</time>
      </trkpt>
      <trkpt lat="45.43304" lon="4.59946">
        <ele>695.8</ele>
        <time>1970-01-01T02:37:44.000Z</time>
      </trkpt>
      <trkpt lat="45.43302" lon="4.59938">
        <ele>695</ele>
        <time>1970-01-01T02:37:45.000Z</time>
      </trkpt>
      <trkpt lat="45.43301" lon="4.59931">
        <ele>694.2</ele>
        <time>1970-01-01T02:37:46.000Z</time>
      </trkpt>
      <trkpt lat="45.433" lon="4.59924">
        <ele>693.4</ele>
        <time>1970-01-01T02:37:47.000Z</time>
      </trkpt>
      <trkpt lat="45.433" lon="4.59918">
        <ele>692.6</ele>
        <time>1970-01-01T02:37:48.000Z</time>
      </trkpt>
      <trkpt lat="45.433" lon="4.59912">
        <ele>691.8</ele>
        <time>1970-01-01T02:37:49.000Z</time>
      </trkpt>
      <trkpt lat="45.433" lon="4.59906">
        <ele>691</ele>
        <time>1970-01-01T02:37:50.000Z</time>
      </trkpt>
      <trkpt lat="45.433" lon="4.59901">
        <ele>690.2</ele>
        <time>1970-01-01T02:37:51.000Z</time>
      </trkpt>
      <trkpt lat="45.433" lon="4.59895">
        <ele>689.2</ele>
        <time>1970-01-01T02:37:52.000Z</time>
      </trkpt>
      <trkpt lat="45.43299" lon="4.59891">
        <ele>688.6</ele>
        <time>1970-01-01T02:37:53.000Z</time>
      </trkpt>
      <trkpt lat="45.43299" lon="4.59886">
        <ele>688</ele>
        <time>1970-01-01T02:37:54.000Z</time>
      </trkpt>
      <trkpt lat="45.433" lon="4.59879">
        <ele>687.4</ele>
        <time>1970-01-01T02:37:55.000Z</time>
      </trkpt>
      <trkpt lat="45.433" lon="4.59869">
        <ele>686.8</ele>
        <time>1970-01-01T02:37:56.000Z</time>
      </trkpt>
      <trkpt lat="45.433" lon="4.59861">
        <ele>686</ele>
        <time>1970-01-01T02:37:57.000Z</time>
      </trkpt>
      <trkpt lat="45.433" lon="4.59853">
        <ele>686</ele>
        <time>1970-01-01T02:37:58.000Z</time>
      </trkpt>
      <trkpt lat="45.43298" lon="4.59823">
        <ele>686</ele>
        <time>1970-01-01T02:38:02.000Z</time>
      </trkpt>
      <trkpt lat="45.43298" lon="4.59811">
        <ele>686</ele>
        <time>1970-01-01T02:38:05.000Z</time>
      </trkpt>
      <trkpt lat="45.43295" lon="4.59798">
        <ele>686</ele>
        <time>1970-01-01T02:38:09.000Z</time>
      </trkpt>
      <trkpt lat="45.43295" lon="4.59791">
        <ele>686</ele>
        <time>1970-01-01T02:38:10.000Z</time>
      </trkpt>
      <trkpt lat="45.43295" lon="4.59783">
        <ele>686</ele>
        <time>1970-01-01T02:38:11.000Z</time>
      </trkpt>
      <trkpt lat="45.43297" lon="4.59763">
        <ele>686</ele>
        <time>1970-01-01T02:38:14.000Z</time>
      </trkpt>
      <trkpt lat="45.43297" lon="4.59756">
        <ele>686</ele>
        <time>1970-01-01T02:38:15.000Z</time>
      </trkpt>
      <trkpt lat="45.43298" lon="4.59736">
        <ele>686</ele>
        <time>1970-01-01T02:38:18.000Z</time>
      </trkpt>
      <trkpt lat="45.43298" lon="4.59723">
        <ele>686</ele>
        <time>1970-01-01T02:38:20.000Z</time>
      </trkpt>
      <trkpt lat="45.43297" lon="4.59711">
        <ele>686</ele>
        <time>1970-01-01T02:38:22.000Z</time>
      </trkpt>
      <trkpt lat="45.43299" lon="4.59692">
        <ele>686</ele>
        <time>1970-01-01T02:38:25.000Z</time>
      </trkpt>
      <trkpt lat="45.433" lon="4.59684">
        <ele>686</ele>
        <time>1970-01-01T02:38:26.000Z</time>
      </trkpt>
      <trkpt lat="45.43302" lon="4.59675">
        <ele>685.6</ele>
        <time>1970-01-01T02:38:27.000Z</time>
      </trkpt>
      <trkpt lat="45.43304" lon="4.59667">
        <ele>685.2</ele>
        <time>1970-01-01T02:38:28.000Z</time>
      </trkpt>
      <trkpt lat="45.43306" lon="4.59657">
        <ele>684.8</ele>
        <time>1970-01-01T02:38:29.000Z</time>
      </trkpt>
      <trkpt lat="45.43309" lon="4.59647">
        <ele>684.2</ele>
        <time>1970-01-01T02:38:30.000Z</time>
      </trkpt>
      <trkpt lat="45.43312" lon="4.59635">
        <ele>683.6</ele>
        <time>1970-01-01T02:38:31.000Z</time>
      </trkpt>
      <trkpt lat="45.43314" lon="4.59623">
        <ele>682.6</ele>
        <time>1970-01-01T02:38:32.000Z</time>
      </trkpt>
      <trkpt lat="45.43317" lon="4.59611">
        <ele>681.6</ele>
        <time>1970-01-01T02:38:33.000Z</time>
      </trkpt>
      <trkpt lat="45.4332" lon="4.59603">
        <ele>680.2</ele>
        <time>1970-01-01T02:38:34.000Z</time>
      </trkpt>
      <trkpt lat="45.43322" lon="4.59597">
        <ele>678.8</ele>
        <time>1970-01-01T02:38:35.000Z</time>
      </trkpt>
      <trkpt lat="45.43325" lon="4.59596">
        <ele>677.4</ele>
        <time>1970-01-01T02:38:36.000Z</time>
      </trkpt>
      <trkpt lat="45.43328" lon="4.59596">
        <ele>675.8</ele>
        <time>1970-01-01T02:38:37.000Z</time>
      </trkpt>
      <trkpt lat="45.4333" lon="4.59595">
        <ele>674.4</ele>
        <time>1970-01-01T02:38:38.000Z</time>
      </trkpt>
      <trkpt lat="45.43331" lon="4.59591">
        <ele>673.4</ele>
        <time>1970-01-01T02:38:39.000Z</time>
      </trkpt>
      <trkpt lat="45.43332" lon="4.59585">
        <ele>672.4</ele>
        <time>1970-01-01T02:38:40.000Z</time>
      </trkpt>
      <trkpt lat="45.43331" lon="4.59579">
        <ele>671.2</ele>
        <time>1970-01-01T02:38:41.000Z</time>
      </trkpt>
      <trkpt lat="45.43333" lon="4.59575">
        <ele>670.4</ele>
        <time>1970-01-01T02:38:42.000Z</time>
      </trkpt>
      <trkpt lat="45.43337" lon="4.59574">
        <ele>669.6</ele>
        <time>1970-01-01T02:38:43.000Z</time>
      </trkpt>
      <trkpt lat="45.4334" lon="4.59572">
        <ele>668.6</ele>
        <time>1970-01-01T02:38:44.000Z</time>
      </trkpt>
      <trkpt lat="45.43341" lon="4.59568">
        <ele>667.8</ele>
        <time>1970-01-01T02:38:45.000Z</time>
      </trkpt>
      <trkpt lat="45.43341" lon="4.5956">
        <ele>667</ele>
        <time>1970-01-01T02:38:46.000Z</time>
      </trkpt>
      <trkpt lat="45.4334" lon="4.59554">
        <ele>666.2</ele>
        <time>1970-01-01T02:38:47.000Z</time>
      </trkpt>
      <trkpt lat="45.4334" lon="4.59548">
        <ele>665.4</ele>
        <time>1970-01-01T02:38:48.000Z</time>
      </trkpt>
      <trkpt lat="45.43342" lon="4.59545">
        <ele>664.8</ele>
        <time>1970-01-01T02:38:49.000Z</time>
      </trkpt>
      <trkpt lat="45.43346" lon="4.59541">
        <ele>663.2</ele>
        <time>1970-01-01T02:38:50.000Z</time>
      </trkpt>
      <trkpt lat="45.4335" lon="4.5954">
        <ele>662.2</ele>
        <time>1970-01-01T02:38:51.000Z</time>
      </trkpt>
      <trkpt lat="45.43353" lon="4.59541">
        <ele>661</ele>
        <time>1970-01-01T02:38:52.000Z</time>
      </trkpt>
      <trkpt lat="45.43355" lon="4.59539">
        <ele>659.6</ele>
        <time>1970-01-01T02:38:53.000Z</time>
      </trkpt>
      <trkpt lat="45.43355" lon="4.59536">
        <ele>658.4</ele>
        <time>1970-01-01T02:38:54.000Z</time>
      </trkpt>
      <trkpt lat="45.43354" lon="4.59528">
        <ele>657.2</ele>
        <time>1970-01-01T02:38:55.000Z</time>
      </trkpt>
      <trkpt lat="45.43354" lon="4.59522">
        <ele>656</ele>
        <time>1970-01-01T02:38:56.000Z</time>
      </trkpt>
      <trkpt lat="45.43354" lon="4.59516">
        <ele>655.2</ele>
        <time>1970-01-01T02:38:57.000Z</time>
      </trkpt>
      <trkpt lat="45.43354" lon="4.59509">
        <ele>654.2</ele>
        <time>1970-01-01T02:38:58.000Z</time>
      </trkpt>
      <trkpt lat="45.43353" lon="4.59502">
        <ele>653.4</ele>
        <time>1970-01-01T02:38:59.000Z</time>
      </trkpt>
      <trkpt lat="45.43353" lon="4.59497">
        <ele>652.4</ele>
        <time>1970-01-01T02:39:00.000Z</time>
      </trkpt>
      <trkpt lat="45.43356" lon="4.5949">
        <ele>651.4</ele>
        <time>1970-01-01T02:39:01.000Z</time>
      </trkpt>
      <trkpt lat="45.43358" lon="4.59483">
        <ele>650.4</ele>
        <time>1970-01-01T02:39:02.000Z</time>
      </trkpt>
      <trkpt lat="45.43358" lon="4.59473">
        <ele>649.4</ele>
        <time>1970-01-01T02:39:03.000Z</time>
      </trkpt>
      <trkpt lat="45.43358" lon="4.59464">
        <ele>648.2</ele>
        <time>1970-01-01T02:39:04.000Z</time>
      </trkpt>
      <trkpt lat="45.43358" lon="4.59456">
        <ele>647.4</ele>
        <time>1970-01-01T02:39:05.000Z</time>
      </trkpt>
      <trkpt lat="45.43359" lon="4.59449">
        <ele>646.4</ele>
        <time>1970-01-01T02:39:06.000Z</time>
      </trkpt>
      <trkpt lat="45.43362" lon="4.59443">
        <ele>645.4</ele>
        <time>1970-01-01T02:39:07.000Z</time>
      </trkpt>
      <trkpt lat="45.43365" lon="4.59437">
        <ele>644.4</ele>
        <time>1970-01-01T02:39:08.000Z</time>
      </trkpt>
      <trkpt lat="45.43366" lon="4.5943">
        <ele>643.2</ele>
        <time>1970-01-01T02:39:09.000Z</time>
      </trkpt>
      <trkpt lat="45.43365" lon="4.59422">
        <ele>642</ele>
        <time>1970-01-01T02:39:10.000Z</time>
      </trkpt>
      <trkpt lat="45.43364" lon="4.59416">
        <ele>640.8</ele>
        <time>1970-01-01T02:39:11.000Z</time>
      </trkpt>
      <trkpt lat="45.43361" lon="4.59411">
        <ele>639.6</ele>
        <time>1970-01-01T02:39:12.000Z</time>
      </trkpt>
      <trkpt lat="45.43357" lon="4.59405">
        <ele>638.4</ele>
        <time>1970-01-01T02:39:13.000Z</time>
      </trkpt>
      <trkpt lat="45.43353" lon="4.59399">
        <ele>638.4</ele>
        <time>1970-01-01T02:39:14.000Z</time>
      </trkpt>
      <trkpt lat="45.4335" lon="4.59395">
        <ele>638.4</ele>
        <time>1970-01-01T02:39:15.000Z</time>
      </trkpt>
      <trkpt lat="45.43338" lon="4.5938">
        <ele>638.4</ele>
        <time>1970-01-01T02:39:18.000Z</time>
      </trkpt>
      <trkpt lat="45.43313" lon="4.59357">
        <ele>638.4</ele>
        <time>1970-01-01T02:39:23.000Z</time>
      </trkpt>
      <trkpt lat="45.43289" lon="4.59338">
        <ele>638.4</ele>
        <time>1970-01-01T02:39:28.000Z</time>
      </trkpt>
      <trkpt lat="45.43278" lon="4.59327">
        <ele>638.4</ele>
        <time>1970-01-01T02:39:31.000Z</time>
      </trkpt>
      <trkpt lat="45.43276" lon="4.59321">
        <ele>638.4</ele>
        <time>1970-01-01T02:39:32.000Z</time>
      </trkpt>
      <trkpt lat="45.43269" lon="4.59301">
        <ele>638</ele>
        <time>1970-01-01T02:39:35.000Z</time>
      </trkpt>
      <trkpt lat="45.43267" lon="4.59293">
        <ele>637.6</ele>
        <time>1970-01-01T02:39:36.000Z</time>
      </trkpt>
      <trkpt lat="45.43267" lon="4.59288">
        <ele>637</ele>
        <time>1970-01-01T02:39:37.000Z</time>
      </trkpt>
      <trkpt lat="45.43267" lon="4.59282">
        <ele>636.2</ele>
        <time>1970-01-01T02:39:38.000Z</time>
      </trkpt>
      <trkpt lat="45.43268" lon="4.59272">
        <ele>635.6</ele>
        <time>1970-01-01T02:39:39.000Z</time>
      </trkpt>
      <trkpt lat="45.43268" lon="4.59263">
        <ele>634</ele>
        <time>1970-01-01T02:39:40.000Z</time>
      </trkpt>
      <trkpt lat="45.4327" lon="4.59255">
        <ele>632.8</ele>
        <time>1970-01-01T02:39:41.000Z</time>
      </trkpt>
      <trkpt lat="45.43271" lon="4.59249">
        <ele>631.8</ele>
        <time>1970-01-01T02:39:42.000Z</time>
      </trkpt>
      <trkpt lat="45.43271" lon="4.59245">
        <ele>630.6</ele>
        <time>1970-01-01T02:39:43.000Z</time>
      </trkpt>
      <trkpt lat="45.43272" lon="4.59241">
        <ele>629.4</ele>
        <time>1970-01-01T02:39:44.000Z</time>
      </trkpt>
      <trkpt lat="45.43272" lon="4.59234">
        <ele>628.2</ele>
        <time>1970-01-01T02:39:45.000Z</time>
      </trkpt>
      <trkpt lat="45.43273" lon="4.59228">
        <ele>627</ele>
        <time>1970-01-01T02:39:46.000Z</time>
      </trkpt>
      <trkpt lat="45.43273" lon="4.59222">
        <ele>625.8</ele>
        <time>1970-01-01T02:39:47.000Z</time>
      </trkpt>
      <trkpt lat="45.43273" lon="4.59214">
        <ele>624.8</ele>
        <time>1970-01-01T02:39:48.000Z</time>
      </trkpt>
      <trkpt lat="45.43272" lon="4.59204">
        <ele>623.8</ele>
        <time>1970-01-01T02:39:49.000Z</time>
      </trkpt>
      <trkpt lat="45.43271" lon="4.59196">
        <ele>622.6</ele>
        <time>1970-01-01T02:39:50.000Z</time>
      </trkpt>
      <trkpt lat="45.43271" lon="4.59188">
        <ele>621.6</ele>
        <time>1970-01-01T02:39:51.000Z</time>
      </trkpt>
      <trkpt lat="45.43272" lon="4.59181">
        <ele>620.6</ele>
        <time>1970-01-01T02:39:52.000Z</time>
      </trkpt>
      <trkpt lat="45.43273" lon="4.59176">
        <ele>619.6</ele>
        <time>1970-01-01T02:39:53.000Z</time>
      </trkpt>
      <trkpt lat="45.43277" lon="4.59168">
        <ele>618.4</ele>
        <time>1970-01-01T02:39:54.000Z</time>
      </trkpt>
      <trkpt lat="45.4328" lon="4.59161">
        <ele>617.4</ele>
        <time>1970-01-01T02:39:55.000Z</time>
      </trkpt>
      <trkpt lat="45.43282" lon="4.59153">
        <ele>616.4</ele>
        <time>1970-01-01T02:39:56.000Z</time>
      </trkpt>
      <trkpt lat="45.43292" lon="4.59137">
        <ele>615.8</ele>
        <time>1970-01-01T02:39:58.000Z</time>
      </trkpt>
      <trkpt lat="45.43298" lon="4.59129">
        <ele>615.4</ele>
        <time>1970-01-01T02:39:59.000Z</time>
      </trkpt>
      <trkpt lat="45.43302" lon="4.59122">
        <ele>614.8</ele>
        <time>1970-01-01T02:40:00.000Z</time>
      </trkpt>
      <trkpt lat="45.43307" lon="4.59113">
        <ele>614</ele>
        <time>1970-01-01T02:40:01.000Z</time>
      </trkpt>
      <trkpt lat="45.43311" lon="4.59104">
        <ele>613.2</ele>
        <time>1970-01-01T02:40:02.000Z</time>
      </trkpt>
      <trkpt lat="45.4331" lon="4.59101">
        <ele>612.4</ele>
        <time>1970-01-01T02:40:03.000Z</time>
      </trkpt>
      <trkpt lat="45.43303" lon="4.59101">
        <ele>610.6</ele>
        <time>1970-01-01T02:40:04.000Z</time>
      </trkpt>
      <trkpt lat="45.43305" lon="4.59092">
        <ele>609.6</ele>
        <time>1970-01-01T02:40:05.000Z</time>
      </trkpt>
      <trkpt lat="45.43308" lon="4.59086">
        <ele>608.6</ele>
        <time>1970-01-01T02:40:06.000Z</time>
      </trkpt>
      <trkpt lat="45.4331" lon="4.59084">
        <ele>608.6</ele>
        <time>1970-01-01T02:40:07.000Z</time>
      </trkpt>
      <trkpt lat="45.43311" lon="4.59083">
        <ele>608.2</ele>
        <time>1970-01-01T02:40:08.000Z</time>
      </trkpt>
      <trkpt lat="45.43311" lon="4.59083">
        <ele>607.8</ele>
        <time>1970-01-01T02:40:09.000Z</time>
      </trkpt>
      <trkpt lat="45.43311" lon="4.59083">
        <ele>607.4</ele>
        <time>1970-01-01T02:40:10.000Z</time>
      </trkpt>
      <trkpt lat="45.43311" lon="4.59083">
        <ele>607</ele>
        <time>1970-01-01T02:40:11.000Z</time>
      </trkpt>
      <trkpt lat="45.43311" lon="4.59083">
        <ele>606.6</ele>
        <time>1970-01-01T02:40:12.000Z</time>
      </trkpt>
      <trkpt lat="45.43311" lon="4.59083">
        <ele>606.6</ele>
        <time>1970-01-01T02:40:19.000Z</time>
      </trkpt>
      <trkpt lat="45.43311" lon="4.59083">
        <ele>606.6</ele>
        <time>1970-01-01T02:40:31.000Z</time>
      </trkpt>
      <trkpt lat="45.43309" lon="4.59083">
        <ele>606.6</ele>
        <time>1970-01-01T02:40:39.000Z</time>
      </trkpt>
      <trkpt lat="45.43309" lon="4.59083">
        <ele>606.6</ele>
        <time>1970-01-01T02:40:49.000Z</time>
      </trkpt>
      <trkpt lat="45.43309" lon="4.59083">
        <ele>606.6</ele>
        <time>1970-01-01T02:41:00.000Z</time>
      </trkpt>
      <trkpt lat="45.43308" lon="4.59083">
        <ele>606.6</ele>
        <time>1970-01-01T02:41:03.000Z</time>
      </trkpt>
      <trkpt lat="45.43304" lon="4.59085">
        <ele>606.6</ele>
        <time>1970-01-01T02:41:05.000Z</time>
      </trkpt>
      <trkpt lat="45.43298" lon="4.59095">
        <ele>606.6</ele>
        <time>1970-01-01T02:41:09.000Z</time>
      </trkpt>
      <trkpt lat="45.43302" lon="4.59097">
        <ele>607</ele>
        <time>1970-01-01T02:41:12.000Z</time>
      </trkpt>
      <trkpt lat="45.43304" lon="4.59098">
        <ele>607.4</ele>
        <time>1970-01-01T02:41:13.000Z</time>
      </trkpt>
      <trkpt lat="45.43306" lon="4.59099">
        <ele>608</ele>
        <time>1970-01-01T02:41:14.000Z</time>
      </trkpt>
      <trkpt lat="45.43307" lon="4.591">
        <ele>608.4</ele>
        <time>1970-01-01T02:41:15.000Z</time>
      </trkpt>
      <trkpt lat="45.43308" lon="4.59101">
        <ele>608.8</ele>
        <time>1970-01-01T02:41:16.000Z</time>
      </trkpt>
      <trkpt lat="45.43309" lon="4.59102">
        <ele>608.8</ele>
        <time>1970-01-01T02:41:17.000Z</time>
      </trkpt>
      <trkpt lat="45.43312" lon="4.59103">
        <ele>608.8</ele>
        <time>1970-01-01T02:41:20.000Z</time>
      </trkpt>
      <trkpt lat="45.43312" lon="4.59097">
        <ele>608.8</ele>
        <time>1970-01-01T02:41:24.000Z</time>
      </trkpt>
      <trkpt lat="45.43309" lon="4.59095">
        <ele>608.8</ele>
        <time>1970-01-01T02:41:27.000Z</time>
      </trkpt>
      <trkpt lat="45.43306" lon="4.59093">
        <ele>608.8</ele>
        <time>1970-01-01T02:41:29.000Z</time>
      </trkpt>
      <trkpt lat="45.43304" lon="4.59089">
        <ele>608.8</ele>
        <time>1970-01-01T02:41:32.000Z</time>
      </trkpt>
      <trkpt lat="45.43304" lon="4.59089">
        <ele>608.8</ele>
        <time>1970-01-01T02:41:33.000Z</time>
      </trkpt>
      <trkpt lat="45.43303" lon="4.59089">
        <ele>608.8</ele>
        <time>1970-01-01T02:41:41.000Z</time>
      </trkpt>
      <trkpt lat="45.43301" lon="4.59086">
        <ele>608.4</ele>
        <time>1970-01-01T02:41:43.000Z</time>
      </trkpt>
      <trkpt lat="45.433" lon="4.59084">
        <ele>607.8</ele>
        <time>1970-01-01T02:41:44.000Z</time>
      </trkpt>
      <trkpt lat="45.433" lon="4.59084">
        <ele>607.4</ele>
        <time>1970-01-01T02:41:45.000Z</time>
      </trkpt>
      <trkpt lat="45.433" lon="4.59084">
        <ele>607</ele>
        <time>1970-01-01T02:41:46.000Z</time>
      </trkpt>
      <trkpt lat="45.433" lon="4.59084">
        <ele>606.4</ele>
        <time>1970-01-01T02:41:47.000Z</time>
      </trkpt>
      <trkpt lat="45.433" lon="4.59084">
        <ele>606.4</ele>
        <time>1970-01-01T02:41:55.000Z</time>
      </trkpt>
      <trkpt lat="45.43299" lon="4.59084">
        <ele>606.4</ele>
        <time>1970-01-01T02:42:05.000Z</time>
      </trkpt>
      <trkpt lat="45.43298" lon="4.59082">
        <ele>606.4</ele>
        <time>1970-01-01T02:42:06.000Z</time>
      </trkpt>
      <trkpt lat="45.43286" lon="4.59075">
        <ele>606.4</ele>
        <time>1970-01-01T02:42:12.000Z</time>
      </trkpt>
      <trkpt lat="45.4328" lon="4.59075">
        <ele>606</ele>
        <time>1970-01-01T02:42:14.000Z</time>
      </trkpt>
      <trkpt lat="45.43276" lon="4.59075">
        <ele>605.6</ele>
        <time>1970-01-01T02:42:15.000Z</time>
      </trkpt>
      <trkpt lat="45.43272" lon="4.59076">
        <ele>605.2</ele>
        <time>1970-01-01T02:42:16.000Z</time>
      </trkpt>
      <trkpt lat="45.43268" lon="4.59079">
        <ele>604.8</ele>
        <time>1970-01-01T02:42:17.000Z</time>
      </trkpt>
      <trkpt lat="45.43263" lon="4.59082">
        <ele>604.4</ele>
        <time>1970-01-01T02:42:18.000Z</time>
      </trkpt>
      <trkpt lat="45.43253" lon="4.59089">
        <ele>604.4</ele>
        <time>1970-01-01T02:42:20.000Z</time>
      </trkpt>
      <trkpt lat="45.43243" lon="4.59096">
        <ele>604</ele>
        <time>1970-01-01T02:42:22.000Z</time>
      </trkpt>
      <trkpt lat="45.43238" lon="4.591">
        <ele>603.6</ele>
        <time>1970-01-01T02:42:23.000Z</time>
      </trkpt>
      <trkpt lat="45.43234" lon="4.59105">
        <ele>603.2</ele>
        <time>1970-01-01T02:42:24.000Z</time>
      </trkpt>
      <trkpt lat="45.43229" lon="4.5911">
        <ele>602.8</ele>
        <time>1970-01-01T02:42:25.000Z</time>
      </trkpt>
      <trkpt lat="45.43224" lon="4.59114">
        <ele>602.4</ele>
        <time>1970-01-01T02:42:26.000Z</time>
      </trkpt>
      <trkpt lat="45.43204" lon="4.59129">
        <ele>602</ele>
        <time>1970-01-01T02:42:30.000Z</time>
      </trkpt>
      <trkpt lat="45.43199" lon="4.59132">
        <ele>601.6</ele>
        <time>1970-01-01T02:42:31.000Z</time>
      </trkpt>
      <trkpt lat="45.43194" lon="4.59136">
        <ele>601.2</ele>
        <time>1970-01-01T02:42:32.000Z</time>
      </trkpt>
      <trkpt lat="45.4319" lon="4.59138">
        <ele>600.4</ele>
        <time>1970-01-01T02:42:33.000Z</time>
      </trkpt>
      <trkpt lat="45.4317" lon="4.5915">
        <ele>600.4</ele>
        <time>1970-01-01T02:42:38.000Z</time>
      </trkpt>
      <trkpt lat="45.43166" lon="4.59152">
        <ele>600.4</ele>
        <time>1970-01-01T02:42:39.000Z</time>
      </trkpt>
      <trkpt lat="45.43141" lon="4.59174">
        <ele>600.4</ele>
        <time>1970-01-01T02:42:46.000Z</time>
      </trkpt>
      <trkpt lat="45.43115" lon="4.59194">
        <ele>600.4</ele>
        <time>1970-01-01T02:42:53.000Z</time>
      </trkpt>
      <trkpt lat="45.43098" lon="4.59208">
        <ele>600.4</ele>
        <time>1970-01-01T02:42:58.000Z</time>
      </trkpt>
      <trkpt lat="45.4308" lon="4.5922">
        <ele>600.4</ele>
        <time>1970-01-01T02:43:04.000Z</time>
      </trkpt>
      <trkpt lat="45.4306" lon="4.59226">
        <ele>600.4</ele>
        <time>1970-01-01T02:43:09.000Z</time>
      </trkpt>
      <trkpt lat="45.43033" lon="4.59239">
        <ele>600.4</ele>
        <time>1970-01-01T02:43:16.000Z</time>
      </trkpt>
      <trkpt lat="45.4301" lon="4.59251">
        <ele>600.4</ele>
        <time>1970-01-01T02:43:23.000Z</time>
      </trkpt>
      <trkpt lat="45.43002" lon="4.59253">
        <ele>600</ele>
        <time>1970-01-01T02:43:25.000Z</time>
      </trkpt>
      <trkpt lat="45.42997" lon="4.59253">
        <ele>599.6</ele>
        <time>1970-01-01T02:43:26.000Z</time>
      </trkpt>
      <trkpt lat="45.42991" lon="4.59255">
        <ele>599.2</ele>
        <time>1970-01-01T02:43:27.000Z</time>
      </trkpt>
      <trkpt lat="45.42984" lon="4.59256">
        <ele>598.8</ele>
        <time>1970-01-01T02:43:28.000Z</time>
      </trkpt>
      <trkpt lat="45.42977" lon="4.59254">
        <ele>598.4</ele>
        <time>1970-01-01T02:43:29.000Z</time>
      </trkpt>
      <trkpt lat="45.42969" lon="4.59252">
        <ele>597.8</ele>
        <time>1970-01-01T02:43:30.000Z</time>
      </trkpt>
      <trkpt lat="45.42961" lon="4.59252">
        <ele>597.4</ele>
        <time>1970-01-01T02:43:31.000Z</time>
      </trkpt>
      <trkpt lat="45.42953" lon="4.59252">
        <ele>596.8</ele>
        <time>1970-01-01T02:43:32.000Z</time>
      </trkpt>
      <trkpt lat="45.42945" lon="4.59251">
        <ele>596.2</ele>
        <time>1970-01-01T02:43:33.000Z</time>
      </trkpt>
      <trkpt lat="45.42937" lon="4.59249">
        <ele>595.6</ele>
        <time>1970-01-01T02:43:34.000Z</time>
      </trkpt>
      <trkpt lat="45.42931" lon="4.59246">
        <ele>595.2</ele>
        <time>1970-01-01T02:43:35.000Z</time>
      </trkpt>
      <trkpt lat="45.42924" lon="4.5924">
        <ele>594.6</ele>
        <time>1970-01-01T02:43:36.000Z</time>
      </trkpt>
      <trkpt lat="45.42919" lon="4.59234">
        <ele>594</ele>
        <time>1970-01-01T02:43:37.000Z</time>
      </trkpt>
      <trkpt lat="45.42913" lon="4.59229">
        <ele>593.6</ele>
        <time>1970-01-01T02:43:38.000Z</time>
      </trkpt>
      <trkpt lat="45.42906" lon="4.59223">
        <ele>593</ele>
        <time>1970-01-01T02:43:39.000Z</time>
      </trkpt>
      <trkpt lat="45.42899" lon="4.59218">
        <ele>592.6</ele>
        <time>1970-01-01T02:43:40.000Z</time>
      </trkpt>
      <trkpt lat="45.42893" lon="4.59211">
        <ele>592</ele>
        <time>1970-01-01T02:43:41.000Z</time>
      </trkpt>
      <trkpt lat="45.42888" lon="4.59207">
        <ele>591.4</ele>
        <time>1970-01-01T02:43:42.000Z</time>
      </trkpt>
      <trkpt lat="45.42885" lon="4.59207">
        <ele>590.6</ele>
        <time>1970-01-01T02:43:43.000Z</time>
      </trkpt>
      <trkpt lat="45.42883" lon="4.59206">
        <ele>589.8</ele>
        <time>1970-01-01T02:43:44.000Z</time>
      </trkpt>
      <trkpt lat="45.42879" lon="4.59204">
        <ele>588.8</ele>
        <time>1970-01-01T02:43:45.000Z</time>
      </trkpt>
      <trkpt lat="45.42875" lon="4.59202">
        <ele>587.8</ele>
        <time>1970-01-01T02:43:46.000Z</time>
      </trkpt>
      <trkpt lat="45.42872" lon="4.59198">
        <ele>586</ele>
        <time>1970-01-01T02:43:47.000Z</time>
      </trkpt>
      <trkpt lat="45.4287" lon="4.59192">
        <ele>585.6</ele>
        <time>1970-01-01T02:43:48.000Z</time>
      </trkpt>
      <trkpt lat="45.42867" lon="4.59185">
        <ele>585.2</ele>
        <time>1970-01-01T02:43:49.000Z</time>
      </trkpt>
      <trkpt lat="45.42864" lon="4.59176">
        <ele>584.6</ele>
        <time>1970-01-01T02:43:50.000Z</time>
      </trkpt>
      <trkpt lat="45.42863" lon="4.59166">
        <ele>584</ele>
        <time>1970-01-01T02:43:51.000Z</time>
      </trkpt>
      <trkpt lat="45.42865" lon="4.59157">
        <ele>583.4</ele>
        <time>1970-01-01T02:43:52.000Z</time>
      </trkpt>
      <trkpt lat="45.42867" lon="4.59148">
        <ele>582.8</ele>
        <time>1970-01-01T02:43:53.000Z</time>
      </trkpt>
      <trkpt lat="45.4287" lon="4.5914">
        <ele>582</ele>
        <time>1970-01-01T02:43:54.000Z</time>
      </trkpt>
      <trkpt lat="45.42874" lon="4.59131">
        <ele>581.2</ele>
        <time>1970-01-01T02:43:55.000Z</time>
      </trkpt>
      <trkpt lat="45.42876" lon="4.59122">
        <ele>580.4</ele>
        <time>1970-01-01T02:43:56.000Z</time>
      </trkpt>
      <trkpt lat="45.4288" lon="4.59114">
        <ele>579.6</ele>
        <time>1970-01-01T02:43:57.000Z</time>
      </trkpt>
      <trkpt lat="45.42883" lon="4.59108">
        <ele>579</ele>
        <time>1970-01-01T02:43:58.000Z</time>
      </trkpt>
      <trkpt lat="45.42887" lon="4.591">
        <ele>578.4</ele>
        <time>1970-01-01T02:43:59.000Z</time>
      </trkpt>
      <trkpt lat="45.42889" lon="4.59093">
        <ele>577.8</ele>
        <time>1970-01-01T02:44:00.000Z</time>
      </trkpt>
      <trkpt lat="45.4289" lon="4.59088">
        <ele>577.2</ele>
        <time>1970-01-01T02:44:01.000Z</time>
      </trkpt>
      <trkpt lat="45.4289" lon="4.59083">
        <ele>576.6</ele>
        <time>1970-01-01T02:44:02.000Z</time>
      </trkpt>
      <trkpt lat="45.4289" lon="4.59077">
        <ele>576</ele>
        <time>1970-01-01T02:44:03.000Z</time>
      </trkpt>
      <trkpt lat="45.4289" lon="4.59071">
        <ele>575.4</ele>
        <time>1970-01-01T02:44:04.000Z</time>
      </trkpt>
      <trkpt lat="45.4289" lon="4.59066">
        <ele>574.6</ele>
        <time>1970-01-01T02:44:05.000Z</time>
      </trkpt>
      <trkpt lat="45.4289" lon="4.5906">
        <ele>573.8</ele>
        <time>1970-01-01T02:44:06.000Z</time>
      </trkpt>
      <trkpt lat="45.42889" lon="4.59053">
        <ele>573</ele>
        <time>1970-01-01T02:44:07.000Z</time>
      </trkpt>
      <trkpt lat="45.42888" lon="4.59046">
        <ele>572.2</ele>
        <time>1970-01-01T02:44:08.000Z</time>
      </trkpt>
      <trkpt lat="45.42887" lon="4.59039">
        <ele>571.4</ele>
        <time>1970-01-01T02:44:09.000Z</time>
      </trkpt>
      <trkpt lat="45.42888" lon="4.59032">
        <ele>570.6</ele>
        <time>1970-01-01T02:44:10.000Z</time>
      </trkpt>
      <trkpt lat="45.42888" lon="4.59026">
        <ele>569.8</ele>
        <time>1970-01-01T02:44:11.000Z</time>
      </trkpt>
      <trkpt lat="45.42888" lon="4.59019">
        <ele>568.2</ele>
        <time>1970-01-01T02:44:12.000Z</time>
      </trkpt>
      <trkpt lat="45.42889" lon="4.59014">
        <ele>567.4</ele>
        <time>1970-01-01T02:44:13.000Z</time>
      </trkpt>
      <trkpt lat="45.4289" lon="4.59009">
        <ele>566.6</ele>
        <time>1970-01-01T02:44:14.000Z</time>
      </trkpt>
      <trkpt lat="45.4289" lon="4.59003">
        <ele>565.6</ele>
        <time>1970-01-01T02:44:15.000Z</time>
      </trkpt>
      <trkpt lat="45.4289" lon="4.58996">
        <ele>564.8</ele>
        <time>1970-01-01T02:44:16.000Z</time>
      </trkpt>
      <trkpt lat="45.42891" lon="4.58989">
        <ele>564</ele>
        <time>1970-01-01T02:44:17.000Z</time>
      </trkpt>
      <trkpt lat="45.42892" lon="4.58982">
        <ele>563</ele>
        <time>1970-01-01T02:44:18.000Z</time>
      </trkpt>
      <trkpt lat="45.42893" lon="4.58976">
        <ele>562</ele>
        <time>1970-01-01T02:44:19.000Z</time>
      </trkpt>
      <trkpt lat="45.42894" lon="4.58969">
        <ele>561</ele>
        <time>1970-01-01T02:44:20.000Z</time>
      </trkpt>
      <trkpt lat="45.42895" lon="4.58961">
        <ele>560</ele>
        <time>1970-01-01T02:44:21.000Z</time>
      </trkpt>
      <trkpt lat="45.42896" lon="4.58952">
        <ele>559.2</ele>
        <time>1970-01-01T02:44:22.000Z</time>
      </trkpt>
      <trkpt lat="45.42898" lon="4.58945">
        <ele>558.2</ele>
        <time>1970-01-01T02:44:23.000Z</time>
      </trkpt>
      <trkpt lat="45.42899" lon="4.58936">
        <ele>557.4</ele>
        <time>1970-01-01T02:44:24.000Z</time>
      </trkpt>
      <trkpt lat="45.42901" lon="4.58928">
        <ele>556.4</ele>
        <time>1970-01-01T02:44:25.000Z</time>
      </trkpt>
      <trkpt lat="45.42902" lon="4.5892">
        <ele>555.6</ele>
        <time>1970-01-01T02:44:26.000Z</time>
      </trkpt>
      <trkpt lat="45.42902" lon="4.58912">
        <ele>554.6</ele>
        <time>1970-01-01T02:44:27.000Z</time>
      </trkpt>
      <trkpt lat="45.42903" lon="4.58906">
        <ele>553.8</ele>
        <time>1970-01-01T02:44:28.000Z</time>
      </trkpt>
      <trkpt lat="45.42902" lon="4.58899">
        <ele>552.8</ele>
        <time>1970-01-01T02:44:29.000Z</time>
      </trkpt>
      <trkpt lat="45.42902" lon="4.58892">
        <ele>551.8</ele>
        <time>1970-01-01T02:44:30.000Z</time>
      </trkpt>
      <trkpt lat="45.42902" lon="4.58888">
        <ele>551</ele>
        <time>1970-01-01T02:44:31.000Z</time>
      </trkpt>
      <trkpt lat="45.429" lon="4.58882">
        <ele>550</ele>
        <time>1970-01-01T02:44:32.000Z</time>
      </trkpt>
      <trkpt lat="45.42898" lon="4.58878">
        <ele>549</ele>
        <time>1970-01-01T02:44:33.000Z</time>
      </trkpt>
      <trkpt lat="45.42896" lon="4.58875">
        <ele>548.2</ele>
        <time>1970-01-01T02:44:34.000Z</time>
      </trkpt>
      <trkpt lat="45.42894" lon="4.58871">
        <ele>547.2</ele>
        <time>1970-01-01T02:44:35.000Z</time>
      </trkpt>
      <trkpt lat="45.42892" lon="4.58867">
        <ele>545.6</ele>
        <time>1970-01-01T02:44:36.000Z</time>
      </trkpt>
      <trkpt lat="45.42889" lon="4.58864">
        <ele>544.8</ele>
        <time>1970-01-01T02:44:37.000Z</time>
      </trkpt>
      <trkpt lat="45.42885" lon="4.58862">
        <ele>543.8</ele>
        <time>1970-01-01T02:44:38.000Z</time>
      </trkpt>
      <trkpt lat="45.42881" lon="4.58861">
        <ele>542.8</ele>
        <time>1970-01-01T02:44:39.000Z</time>
      </trkpt>
      <trkpt lat="45.42879" lon="4.58859">
        <ele>542</ele>
        <time>1970-01-01T02:44:40.000Z</time>
      </trkpt>
      <trkpt lat="45.42876" lon="4.58854">
        <ele>541.2</ele>
        <time>1970-01-01T02:44:41.000Z</time>
      </trkpt>
      <trkpt lat="45.42873" lon="4.58849">
        <ele>540.6</ele>
        <time>1970-01-01T02:44:42.000Z</time>
      </trkpt>
      <trkpt lat="45.4287" lon="4.58844">
        <ele>540</ele>
        <time>1970-01-01T02:44:43.000Z</time>
      </trkpt>
      <trkpt lat="45.42866" lon="4.5884">
        <ele>539.2</ele>
        <time>1970-01-01T02:44:44.000Z</time>
      </trkpt>
      <trkpt lat="45.42863" lon="4.58836">
        <ele>538.4</ele>
        <time>1970-01-01T02:44:45.000Z</time>
      </trkpt>
      <trkpt lat="45.42858" lon="4.58828">
        <ele>537.6</ele>
        <time>1970-01-01T02:44:46.000Z</time>
      </trkpt>
      <trkpt lat="45.42855" lon="4.5882">
        <ele>536.8</ele>
        <time>1970-01-01T02:44:47.000Z</time>
      </trkpt>
      <trkpt lat="45.42851" lon="4.58813">
        <ele>536</ele>
        <time>1970-01-01T02:44:48.000Z</time>
      </trkpt>
      <trkpt lat="45.42849" lon="4.58807">
        <ele>534.8</ele>
        <time>1970-01-01T02:44:49.000Z</time>
      </trkpt>
      <trkpt lat="45.42846" lon="4.58801">
        <ele>533.8</ele>
        <time>1970-01-01T02:44:50.000Z</time>
      </trkpt>
      <trkpt lat="45.42843" lon="4.58795">
        <ele>532.6</ele>
        <time>1970-01-01T02:44:51.000Z</time>
      </trkpt>
      <trkpt lat="45.42842" lon="4.58788">
        <ele>531.4</ele>
        <time>1970-01-01T02:44:52.000Z</time>
      </trkpt>
      <trkpt lat="45.42841" lon="4.58782">
        <ele>530.2</ele>
        <time>1970-01-01T02:44:53.000Z</time>
      </trkpt>
      <trkpt lat="45.42841" lon="4.58777">
        <ele>529</ele>
        <time>1970-01-01T02:44:54.000Z</time>
      </trkpt>
      <trkpt lat="45.42844" lon="4.58773">
        <ele>527.8</ele>
        <time>1970-01-01T02:44:55.000Z</time>
      </trkpt>
      <trkpt lat="45.42846" lon="4.58768">
        <ele>526.6</ele>
        <time>1970-01-01T02:44:56.000Z</time>
      </trkpt>
      <trkpt lat="45.42844" lon="4.58766">
        <ele>525.4</ele>
        <time>1970-01-01T02:44:57.000Z</time>
      </trkpt>
      <trkpt lat="45.42843" lon="4.58764">
        <ele>524.4</ele>
        <time>1970-01-01T02:44:58.000Z</time>
      </trkpt>
      <trkpt lat="45.4284" lon="4.58762">
        <ele>523.2</ele>
        <time>1970-01-01T02:44:59.000Z</time>
      </trkpt>
      <trkpt lat="45.42837" lon="4.58762">
        <ele>522</ele>
        <time>1970-01-01T02:45:00.000Z</time>
      </trkpt>
      <trkpt lat="45.42833" lon="4.58763">
        <ele>520.6</ele>
        <time>1970-01-01T02:45:01.000Z</time>
      </trkpt>
      <trkpt lat="45.42828" lon="4.58765">
        <ele>520</ele>
        <time>1970-01-01T02:45:02.000Z</time>
      </trkpt>
      <trkpt lat="45.42824" lon="4.58768">
        <ele>519.6</ele>
        <time>1970-01-01T02:45:03.000Z</time>
      </trkpt>
      <trkpt lat="45.42818" lon="4.58771">
        <ele>519</ele>
        <time>1970-01-01T02:45:04.000Z</time>
      </trkpt>
      <trkpt lat="45.42812" lon="4.58771">
        <ele>518.4</ele>
        <time>1970-01-01T02:45:05.000Z</time>
      </trkpt>
      <trkpt lat="45.42807" lon="4.5877">
        <ele>517.6</ele>
        <time>1970-01-01T02:45:06.000Z</time>
      </trkpt>
      <trkpt lat="45.42801" lon="4.58767">
        <ele>516.6</ele>
        <time>1970-01-01T02:45:07.000Z</time>
      </trkpt>
      <trkpt lat="45.42797" lon="4.58766">
        <ele>515.6</ele>
        <time>1970-01-01T02:45:08.000Z</time>
      </trkpt>
      <trkpt lat="45.42794" lon="4.58768">
        <ele>514.6</ele>
        <time>1970-01-01T02:45:09.000Z</time>
      </trkpt>
      <trkpt lat="45.42791" lon="4.58772">
        <ele>513.6</ele>
        <time>1970-01-01T02:45:10.000Z</time>
      </trkpt>
      <trkpt lat="45.42789" lon="4.58777">
        <ele>512.6</ele>
        <time>1970-01-01T02:45:11.000Z</time>
      </trkpt>
      <trkpt lat="45.42789" lon="4.58783">
        <ele>511.6</ele>
        <time>1970-01-01T02:45:12.000Z</time>
      </trkpt>
      <trkpt lat="45.42788" lon="4.58787">
        <ele>510.6</ele>
        <time>1970-01-01T02:45:13.000Z</time>
      </trkpt>
      <trkpt lat="45.42787" lon="4.58791">
        <ele>509.8</ele>
        <time>1970-01-01T02:45:14.000Z</time>
      </trkpt>
      <trkpt lat="45.42786" lon="4.58796">
        <ele>508.8</ele>
        <time>1970-01-01T02:45:15.000Z</time>
      </trkpt>
      <trkpt lat="45.42787" lon="4.58801">
        <ele>508</ele>
        <time>1970-01-01T02:45:16.000Z</time>
      </trkpt>
      <trkpt lat="45.42788" lon="4.58806">
        <ele>507.2</ele>
        <time>1970-01-01T02:45:17.000Z</time>
      </trkpt>
      <trkpt lat="45.42789" lon="4.58811">
        <ele>506.2</ele>
        <time>1970-01-01T02:45:18.000Z</time>
      </trkpt>
      <trkpt lat="45.42788" lon="4.58817">
        <ele>505.4</ele>
        <time>1970-01-01T02:45:19.000Z</time>
      </trkpt>
      <trkpt lat="45.42787" lon="4.58823">
        <ele>504.6</ele>
        <time>1970-01-01T02:45:20.000Z</time>
      </trkpt>
      <trkpt lat="45.42787" lon="4.5883">
        <ele>503.6</ele>
        <time>1970-01-01T02:45:21.000Z</time>
      </trkpt>
      <trkpt lat="45.42786" lon="4.58835">
        <ele>502.8</ele>
        <time>1970-01-01T02:45:22.000Z</time>
      </trkpt>
      <trkpt lat="45.42785" lon="4.5884">
        <ele>502</ele>
        <time>1970-01-01T02:45:23.000Z</time>
      </trkpt>
      <trkpt lat="45.42782" lon="4.58843">
        <ele>501</ele>
        <time>1970-01-01T02:45:24.000Z</time>
      </trkpt>
      <trkpt lat="45.42781" lon="4.58847">
        <ele>500</ele>
        <time>1970-01-01T02:45:25.000Z</time>
      </trkpt>
      <trkpt lat="45.4278" lon="4.58851">
        <ele>497.8</ele>
        <time>1970-01-01T02:45:26.000Z</time>
      </trkpt>
      <trkpt lat="45.4278" lon="4.58855">
        <ele>496.6</ele>
        <time>1970-01-01T02:45:27.000Z</time>
      </trkpt>
      <trkpt lat="45.42779" lon="4.5886">
        <ele>495.6</ele>
        <time>1970-01-01T02:45:28.000Z</time>
      </trkpt>
      <trkpt lat="45.42777" lon="4.58866">
        <ele>494.6</ele>
        <time>1970-01-01T02:45:29.000Z</time>
      </trkpt>
      <trkpt lat="45.42772" lon="4.5887">
        <ele>493.4</ele>
        <time>1970-01-01T02:45:30.000Z</time>
      </trkpt>
      <trkpt lat="45.42767" lon="4.58877">
        <ele>492.4</ele>
        <time>1970-01-01T02:45:31.000Z</time>
      </trkpt>
      <trkpt lat="45.42763" lon="4.58883">
        <ele>491.2</ele>
        <time>1970-01-01T02:45:32.000Z</time>
      </trkpt>
      <trkpt lat="45.42759" lon="4.58889">
        <ele>489.8</ele>
        <time>1970-01-01T02:45:33.000Z</time>
      </trkpt>
      <trkpt lat="45.42755" lon="4.58894">
        <ele>488.6</ele>
        <time>1970-01-01T02:45:34.000Z</time>
      </trkpt>
      <trkpt lat="45.42751" lon="4.58897">
        <ele>487.6</ele>
        <time>1970-01-01T02:45:35.000Z</time>
      </trkpt>
      <trkpt lat="45.42747" lon="4.58896">
        <ele>486.6</ele>
        <time>1970-01-01T02:45:36.000Z</time>
      </trkpt>
      <trkpt lat="45.42745" lon="4.58894">
        <ele>485.6</ele>
        <time>1970-01-01T02:45:37.000Z</time>
      </trkpt>
      <trkpt lat="45.42743" lon="4.58892">
        <ele>484.6</ele>
        <time>1970-01-01T02:45:38.000Z</time>
      </trkpt>
      <trkpt lat="45.42744" lon="4.58889">
        <ele>483.6</ele>
        <time>1970-01-01T02:45:39.000Z</time>
      </trkpt>
      <trkpt lat="45.42745" lon="4.58885">
        <ele>483.6</ele>
        <time>1970-01-01T02:45:40.000Z</time>
      </trkpt>
      <trkpt lat="45.42748" lon="4.58874">
        <ele>483.6</ele>
        <time>1970-01-01T02:45:42.000Z</time>
      </trkpt>
      <trkpt lat="45.42749" lon="4.58864">
        <ele>483</ele>
        <time>1970-01-01T02:45:43.000Z</time>
      </trkpt>
      <trkpt lat="45.42751" lon="4.58855">
        <ele>482.6</ele>
        <time>1970-01-01T02:45:44.000Z</time>
      </trkpt>
      <trkpt lat="45.4275" lon="4.58845">
        <ele>482</ele>
        <time>1970-01-01T02:45:45.000Z</time>
      </trkpt>
      <trkpt lat="45.42748" lon="4.58833">
        <ele>481.4</ele>
        <time>1970-01-01T02:45:46.000Z</time>
      </trkpt>
      <trkpt lat="45.42745" lon="4.58821">
        <ele>480.8</ele>
        <time>1970-01-01T02:45:47.000Z</time>
      </trkpt>
      <trkpt lat="45.42741" lon="4.58808">
        <ele>480</ele>
        <time>1970-01-01T02:45:48.000Z</time>
      </trkpt>
      <trkpt lat="45.42737" lon="4.58794">
        <ele>479.2</ele>
        <time>1970-01-01T02:45:49.000Z</time>
      </trkpt>
      <trkpt lat="45.42732" lon="4.58778">
        <ele>477.2</ele>
        <time>1970-01-01T02:45:50.000Z</time>
      </trkpt>
      <trkpt lat="45.42727" lon="4.58764">
        <ele>475.8</ele>
        <time>1970-01-01T02:45:51.000Z</time>
      </trkpt>
      <trkpt lat="45.42722" lon="4.58751">
        <ele>474.2</ele>
        <time>1970-01-01T02:45:52.000Z</time>
      </trkpt>
      <trkpt lat="45.42718" lon="4.58738">
        <ele>472.4</ele>
        <time>1970-01-01T02:45:53.000Z</time>
      </trkpt>
      <trkpt lat="45.42714" lon="4.58725">
        <ele>470.6</ele>
        <time>1970-01-01T02:45:54.000Z</time>
      </trkpt>
      <trkpt lat="45.4271" lon="4.58712">
        <ele>469</ele>
        <time>1970-01-01T02:45:55.000Z</time>
      </trkpt>
      <trkpt lat="45.42707" lon="4.587">
        <ele>467.2</ele>
        <time>1970-01-01T02:45:56.000Z</time>
      </trkpt>
      <trkpt lat="45.42705" lon="4.58687">
        <ele>465.6</ele>
        <time>1970-01-01T02:45:57.000Z</time>
      </trkpt>
      <trkpt lat="45.42701" lon="4.58675">
        <ele>464</ele>
        <time>1970-01-01T02:45:58.000Z</time>
      </trkpt>
      <trkpt lat="45.42709" lon="4.58668">
        <ele>462.6</ele>
        <time>1970-01-01T02:45:59.000Z</time>
      </trkpt>
      <trkpt lat="45.42708" lon="4.58655">
        <ele>461</ele>
        <time>1970-01-01T02:46:00.000Z</time>
      </trkpt>
      <trkpt lat="45.42708" lon="4.58643">
        <ele>459.6</ele>
        <time>1970-01-01T02:46:01.000Z</time>
      </trkpt>
      <trkpt lat="45.42709" lon="4.58631">
        <ele>458.2</ele>
        <time>1970-01-01T02:46:02.000Z</time>
      </trkpt>
      <trkpt lat="45.42711" lon="4.5862">
        <ele>456.8</ele>
        <time>1970-01-01T02:46:03.000Z</time>
      </trkpt>
      <trkpt lat="45.42714" lon="4.58607">
        <ele>455.8</ele>
        <time>1970-01-01T02:46:04.000Z</time>
      </trkpt>
      <trkpt lat="45.42715" lon="4.58593">
        <ele>454.8</ele>
        <time>1970-01-01T02:46:05.000Z</time>
      </trkpt>
      <trkpt lat="45.42723" lon="4.58586">
        <ele>453.6</ele>
        <time>1970-01-01T02:46:06.000Z</time>
      </trkpt>
      <trkpt lat="45.42725" lon="4.58579">
        <ele>452.8</ele>
        <time>1970-01-01T02:46:07.000Z</time>
      </trkpt>
      <trkpt lat="45.42726" lon="4.58571">
        <ele>452</ele>
        <time>1970-01-01T02:46:08.000Z</time>
      </trkpt>
      <trkpt lat="45.42728" lon="4.58564">
        <ele>451</ele>
        <time>1970-01-01T02:46:09.000Z</time>
      </trkpt>
      <trkpt lat="45.42732" lon="4.58559">
        <ele>450.2</ele>
        <time>1970-01-01T02:46:10.000Z</time>
      </trkpt>
      <trkpt lat="45.42737" lon="4.58556">
        <ele>449.4</ele>
        <time>1970-01-01T02:46:11.000Z</time>
      </trkpt>
      <trkpt lat="45.42753" lon="4.58539">
        <ele>448.8</ele>
        <time>1970-01-01T02:46:14.000Z</time>
      </trkpt>
      <trkpt lat="45.42758" lon="4.58532">
        <ele>448</ele>
        <time>1970-01-01T02:46:15.000Z</time>
      </trkpt>
      <trkpt lat="45.42763" lon="4.58526">
        <ele>447.6</ele>
        <time>1970-01-01T02:46:16.000Z</time>
      </trkpt>
      <trkpt lat="45.42766" lon="4.58518">
        <ele>447.2</ele>
        <time>1970-01-01T02:46:17.000Z</time>
      </trkpt>
      <trkpt lat="45.42777" lon="4.58503">
        <ele>446.6</ele>
        <time>1970-01-01T02:46:19.000Z</time>
      </trkpt>
      <trkpt lat="45.42781" lon="4.58494">
        <ele>446.2</ele>
        <time>1970-01-01T02:46:20.000Z</time>
      </trkpt>
      <trkpt lat="45.42786" lon="4.58485">
        <ele>445.8</ele>
        <time>1970-01-01T02:46:21.000Z</time>
      </trkpt>
      <trkpt lat="45.4279" lon="4.58474">
        <ele>445.4</ele>
        <time>1970-01-01T02:46:22.000Z</time>
      </trkpt>
      <trkpt lat="45.42791" lon="4.58463">
        <ele>445</ele>
        <time>1970-01-01T02:46:23.000Z</time>
      </trkpt>
      <trkpt lat="45.4279" lon="4.58444">
        <ele>444.4</ele>
        <time>1970-01-01T02:46:25.000Z</time>
      </trkpt>
      <trkpt lat="45.42789" lon="4.58436">
        <ele>444</ele>
        <time>1970-01-01T02:46:26.000Z</time>
      </trkpt>
      <trkpt lat="45.42787" lon="4.58429">
        <ele>443.6</ele>
        <time>1970-01-01T02:46:27.000Z</time>
      </trkpt>
      <trkpt lat="45.42786" lon="4.58422">
        <ele>443.2</ele>
        <time>1970-01-01T02:46:28.000Z</time>
      </trkpt>
      <trkpt lat="45.42785" lon="4.58415">
        <ele>442.8</ele>
        <time>1970-01-01T02:46:29.000Z</time>
      </trkpt>
      <trkpt lat="45.42782" lon="4.58403">
        <ele>442.8</ele>
        <time>1970-01-01T02:46:31.000Z</time>
      </trkpt>
      <trkpt lat="45.42773" lon="4.5838">
        <ele>442.8</ele>
        <time>1970-01-01T02:46:36.000Z</time>
      </trkpt>
      <trkpt lat="45.4277" lon="4.58362">
        <ele>443.2</ele>
        <time>1970-01-01T02:46:41.000Z</time>
      </trkpt>
      <trkpt lat="45.4277" lon="4.58358">
        <ele>443.6</ele>
        <time>1970-01-01T02:46:42.000Z</time>
      </trkpt>
      <trkpt lat="45.42771" lon="4.58355">
        <ele>444</ele>
        <time>1970-01-01T02:46:43.000Z</time>
      </trkpt>
      <trkpt lat="45.42772" lon="4.58351">
        <ele>444.4</ele>
        <time>1970-01-01T02:46:44.000Z</time>
      </trkpt>
      <trkpt lat="45.42773" lon="4.58348">
        <ele>445</ele>
        <time>1970-01-01T02:46:45.000Z</time>
      </trkpt>
      <trkpt lat="45.42774" lon="4.58337">
        <ele>445</ele>
        <time>1970-01-01T02:46:48.000Z</time>
      </trkpt>
      <trkpt lat="45.42779" lon="4.5831">
        <ele>445.4</ele>
        <time>1970-01-01T02:46:55.000Z</time>
      </trkpt>
      <trkpt lat="45.42781" lon="4.58307">
        <ele>445.8</ele>
        <time>1970-01-01T02:46:56.000Z</time>
      </trkpt>
      <trkpt lat="45.42782" lon="4.58303">
        <ele>446.2</ele>
        <time>1970-01-01T02:46:57.000Z</time>
      </trkpt>
      <trkpt lat="45.42783" lon="4.583">
        <ele>446.6</ele>
        <time>1970-01-01T02:46:58.000Z</time>
      </trkpt>
      <trkpt lat="45.42784" lon="4.58297">
        <ele>447</ele>
        <time>1970-01-01T02:46:59.000Z</time>
      </trkpt>
      <trkpt lat="45.42787" lon="4.58287">
        <ele>447</ele>
        <time>1970-01-01T02:47:02.000Z</time>
      </trkpt>
      <trkpt lat="45.42792" lon="4.58275">
        <ele>447.4</ele>
        <time>1970-01-01T02:47:06.000Z</time>
      </trkpt>
      <trkpt lat="45.42793" lon="4.58272">
        <ele>447.8</ele>
        <time>1970-01-01T02:47:07.000Z</time>
      </trkpt>
      <trkpt lat="45.42794" lon="4.58269">
        <ele>448.2</ele>
        <time>1970-01-01T02:47:08.000Z</time>
      </trkpt>
      <trkpt lat="45.42794" lon="4.58265">
        <ele>448.6</ele>
        <time>1970-01-01T02:47:09.000Z</time>
      </trkpt>
      <trkpt lat="45.42796" lon="4.58262">
        <ele>449</ele>
        <time>1970-01-01T02:47:10.000Z</time>
      </trkpt>
      <trkpt lat="45.42801" lon="4.58246">
        <ele>449</ele>
        <time>1970-01-01T02:47:15.000Z</time>
      </trkpt>
      <trkpt lat="45.42805" lon="4.58233">
        <ele>449.4</ele>
        <time>1970-01-01T02:47:19.000Z</time>
      </trkpt>
      <trkpt lat="45.42806" lon="4.58229">
        <ele>449.8</ele>
        <time>1970-01-01T02:47:20.000Z</time>
      </trkpt>
      <trkpt lat="45.42807" lon="4.58226">
        <ele>450.2</ele>
        <time>1970-01-01T02:47:21.000Z</time>
      </trkpt>
      <trkpt lat="45.42808" lon="4.58223">
        <ele>450.6</ele>
        <time>1970-01-01T02:47:22.000Z</time>
      </trkpt>
      <trkpt lat="45.42809" lon="4.58219">
        <ele>451.2</ele>
        <time>1970-01-01T02:47:23.000Z</time>
      </trkpt>
      <trkpt lat="45.42813" lon="4.5821">
        <ele>451.2</ele>
        <time>1970-01-01T02:47:26.000Z</time>
      </trkpt>
      <trkpt lat="45.42817" lon="4.58201">
        <ele>451.6</ele>
        <time>1970-01-01T02:47:29.000Z</time>
      </trkpt>
      <trkpt lat="45.42819" lon="4.58198">
        <ele>452</ele>
        <time>1970-01-01T02:47:30.000Z</time>
      </trkpt>
      <trkpt lat="45.4282" lon="4.58194">
        <ele>452.4</ele>
        <time>1970-01-01T02:47:31.000Z</time>
      </trkpt>
      <trkpt lat="45.42821" lon="4.58191">
        <ele>452.8</ele>
        <time>1970-01-01T02:47:32.000Z</time>
      </trkpt>
      <trkpt lat="45.42822" lon="4.58188">
        <ele>453.2</ele>
        <time>1970-01-01T02:47:33.000Z</time>
      </trkpt>
      <trkpt lat="45.42824" lon="4.5818">
        <ele>453.2</ele>
        <time>1970-01-01T02:47:35.000Z</time>
      </trkpt>
      <trkpt lat="45.42831" lon="4.58158">
        <ele>453.2</ele>
        <time>1970-01-01T02:47:41.000Z</time>
      </trkpt>
      <trkpt lat="45.42833" lon="4.58151">
        <ele>453.6</ele>
        <time>1970-01-01T02:47:43.000Z</time>
      </trkpt>
      <trkpt lat="45.42833" lon="4.58147">
        <ele>454</ele>
        <time>1970-01-01T02:47:44.000Z</time>
      </trkpt>
      <trkpt lat="45.42834" lon="4.58144">
        <ele>454.4</ele>
        <time>1970-01-01T02:47:45.000Z</time>
      </trkpt>
      <trkpt lat="45.42835" lon="4.5814">
        <ele>454.8</ele>
        <time>1970-01-01T02:47:46.000Z</time>
      </trkpt>
      <trkpt lat="45.42836" lon="4.58137">
        <ele>455.2</ele>
        <time>1970-01-01T02:47:47.000Z</time>
      </trkpt>
      <trkpt lat="45.4284" lon="4.58116">
        <ele>456</ele>
        <time>1970-01-01T02:47:53.000Z</time>
      </trkpt>
      <trkpt lat="45.42841" lon="4.58112">
        <ele>456.4</ele>
        <time>1970-01-01T02:47:54.000Z</time>
      </trkpt>
      <trkpt lat="45.42842" lon="4.58108">
        <ele>456.8</ele>
        <time>1970-01-01T02:47:55.000Z</time>
      </trkpt>
      <trkpt lat="45.42843" lon="4.58104">
        <ele>457.2</ele>
        <time>1970-01-01T02:47:56.000Z</time>
      </trkpt>
      <trkpt lat="45.42845" lon="4.58088">
        <ele>457.2</ele>
        <time>1970-01-01T02:48:01.000Z</time>
      </trkpt>
      <trkpt lat="45.42846" lon="4.58073">
        <ele>457.6</ele>
        <time>1970-01-01T02:48:05.000Z</time>
      </trkpt>
      <trkpt lat="45.42845" lon="4.58069">
        <ele>458.2</ele>
        <time>1970-01-01T02:48:06.000Z</time>
      </trkpt>
      <trkpt lat="45.42844" lon="4.58067">
        <ele>458.6</ele>
        <time>1970-01-01T02:48:07.000Z</time>
      </trkpt>
      <trkpt lat="45.42841" lon="4.58065">
        <ele>459</ele>
        <time>1970-01-01T02:48:08.000Z</time>
      </trkpt>
      <trkpt lat="45.42839" lon="4.58067">
        <ele>459.4</ele>
        <time>1970-01-01T02:48:09.000Z</time>
      </trkpt>
      <trkpt lat="45.42837" lon="4.5807">
        <ele>459.4</ele>
        <time>1970-01-01T02:48:10.000Z</time>
      </trkpt>
      <trkpt lat="45.42834" lon="4.58077">
        <ele>459.4</ele>
        <time>1970-01-01T02:48:12.000Z</time>
      </trkpt>
      <trkpt lat="45.4283" lon="4.58086">
        <ele>459.4</ele>
        <time>1970-01-01T02:48:15.000Z</time>
      </trkpt>
      <trkpt lat="45.42824" lon="4.581">
        <ele>459.8</ele>
        <time>1970-01-01T02:48:20.000Z</time>
      </trkpt>
      <trkpt lat="45.42822" lon="4.58102">
        <ele>460.2</ele>
        <time>1970-01-01T02:48:21.000Z</time>
      </trkpt>
      <trkpt lat="45.4282" lon="4.58105">
        <ele>460.6</ele>
        <time>1970-01-01T02:48:22.000Z</time>
      </trkpt>
      <trkpt lat="45.42819" lon="4.58107">
        <ele>461.2</ele>
        <time>1970-01-01T02:48:23.000Z</time>
      </trkpt>
      <trkpt lat="45.42817" lon="4.58109">
        <ele>461.6</ele>
        <time>1970-01-01T02:48:24.000Z</time>
      </trkpt>
      <trkpt lat="45.42813" lon="4.58113">
        <ele>461.6</ele>
        <time>1970-01-01T02:48:26.000Z</time>
      </trkpt>
      <trkpt lat="45.42811" lon="4.58115">
        <ele>462</ele>
        <time>1970-01-01T02:48:27.000Z</time>
      </trkpt>
      <trkpt lat="45.42809" lon="4.58116">
        <ele>462.4</ele>
        <time>1970-01-01T02:48:28.000Z</time>
      </trkpt>
      <trkpt lat="45.42807" lon="4.58117">
        <ele>462.8</ele>
        <time>1970-01-01T02:48:29.000Z</time>
      </trkpt>
      <trkpt lat="45.42804" lon="4.58117">
        <ele>463.2</ele>
        <time>1970-01-01T02:48:30.000Z</time>
      </trkpt>
      <trkpt lat="45.42803" lon="4.58117">
        <ele>463.6</ele>
        <time>1970-01-01T02:48:31.000Z</time>
      </trkpt>
      <trkpt lat="45.42795" lon="4.58114">
        <ele>464</ele>
        <time>1970-01-01T02:48:35.000Z</time>
      </trkpt>
      <trkpt lat="45.42794" lon="4.58112">
        <ele>464.6</ele>
        <time>1970-01-01T02:48:36.000Z</time>
      </trkpt>
      <trkpt lat="45.42792" lon="4.58111">
        <ele>465</ele>
        <time>1970-01-01T02:48:37.000Z</time>
      </trkpt>
      <trkpt lat="45.42791" lon="4.58109">
        <ele>465.4</ele>
        <time>1970-01-01T02:48:38.000Z</time>
      </trkpt>
      <trkpt lat="45.4279" lon="4.58106">
        <ele>466</ele>
        <time>1970-01-01T02:48:39.000Z</time>
      </trkpt>
      <trkpt lat="45.4279" lon="4.58104">
        <ele>466.4</ele>
        <time>1970-01-01T02:48:40.000Z</time>
      </trkpt>
      <trkpt lat="45.42789" lon="4.58101">
        <ele>466.8</ele>
        <time>1970-01-01T02:48:41.000Z</time>
      </trkpt>
      <trkpt lat="45.42788" lon="4.581">
        <ele>467.8</ele>
        <time>1970-01-01T02:48:42.000Z</time>
      </trkpt>
      <trkpt lat="45.42788" lon="4.58098">
        <ele>468.2</ele>
        <time>1970-01-01T02:48:43.000Z</time>
      </trkpt>
      <trkpt lat="45.42786" lon="4.58095">
        <ele>468.6</ele>
        <time>1970-01-01T02:48:45.000Z</time>
      </trkpt>
      <trkpt lat="45.42786" lon="4.58093">
        <ele>469</ele>
        <time>1970-01-01T02:48:46.000Z</time>
      </trkpt>
      <trkpt lat="45.42785" lon="4.58091">
        <ele>469.4</ele>
        <time>1970-01-01T02:48:47.000Z</time>
      </trkpt>
      <trkpt lat="45.42784" lon="4.58089">
        <ele>470</ele>
        <time>1970-01-01T02:48:48.000Z</time>
      </trkpt>
      <trkpt lat="45.42784" lon="4.58087">
        <ele>470.4</ele>
        <time>1970-01-01T02:48:49.000Z</time>
      </trkpt>
      <trkpt lat="45.42783" lon="4.58085">
        <ele>470.4</ele>
        <time>1970-01-01T02:48:51.000Z</time>
      </trkpt>
      <trkpt lat="45.42782" lon="4.58083">
        <ele>470.4</ele>
        <time>1970-01-01T02:48:52.000Z</time>
      </trkpt>
      <trkpt lat="45.42781" lon="4.5808">
        <ele>470.8</ele>
        <time>1970-01-01T02:48:53.000Z</time>
      </trkpt>
      <trkpt lat="45.42781" lon="4.58078">
        <ele>471.2</ele>
        <time>1970-01-01T02:48:54.000Z</time>
      </trkpt>
      <trkpt lat="45.4278" lon="4.58076">
        <ele>471.6</ele>
        <time>1970-01-01T02:48:55.000Z</time>
      </trkpt>
      <trkpt lat="45.4278" lon="4.58074">
        <ele>472.2</ele>
        <time>1970-01-01T02:48:56.000Z</time>
      </trkpt>
      <trkpt lat="45.4278" lon="4.58072">
        <ele>472.6</ele>
        <time>1970-01-01T02:48:57.000Z</time>
      </trkpt>
      <trkpt lat="45.42778" lon="4.58066">
        <ele>473</ele>
        <time>1970-01-01T02:49:00.000Z</time>
      </trkpt>
      <trkpt lat="45.42777" lon="4.58065">
        <ele>473.4</ele>
        <time>1970-01-01T02:49:01.000Z</time>
      </trkpt>
      <trkpt lat="45.42776" lon="4.58063">
        <ele>474</ele>
        <time>1970-01-01T02:49:02.000Z</time>
      </trkpt>
      <trkpt lat="45.42776" lon="4.58061">
        <ele>474.4</ele>
        <time>1970-01-01T02:49:03.000Z</time>
      </trkpt>
      <trkpt lat="45.42775" lon="4.58058">
        <ele>474.8</ele>
        <time>1970-01-01T02:49:04.000Z</time>
      </trkpt>
      <trkpt lat="45.42774" lon="4.58057">
        <ele>474.8</ele>
        <time>1970-01-01T02:49:05.000Z</time>
      </trkpt>
      <trkpt lat="45.42772" lon="4.58052">
        <ele>475.6</ele>
        <time>1970-01-01T02:49:07.000Z</time>
      </trkpt>
      <trkpt lat="45.42771" lon="4.5805">
        <ele>476</ele>
        <time>1970-01-01T02:49:08.000Z</time>
      </trkpt>
      <trkpt lat="45.4277" lon="4.58049">
        <ele>476.4</ele>
        <time>1970-01-01T02:49:09.000Z</time>
      </trkpt>
      <trkpt lat="45.42768" lon="4.58047">
        <ele>476.8</ele>
        <time>1970-01-01T02:49:10.000Z</time>
      </trkpt>
      <trkpt lat="45.42764" lon="4.58042">
        <ele>476.8</ele>
        <time>1970-01-01T02:49:14.000Z</time>
      </trkpt>
      <trkpt lat="45.42764" lon="4.5804">
        <ele>477.2</ele>
        <time>1970-01-01T02:49:15.000Z</time>
      </trkpt>
      <trkpt lat="45.42764" lon="4.58039">
        <ele>477.8</ele>
        <time>1970-01-01T02:49:16.000Z</time>
      </trkpt>
      <trkpt lat="45.42763" lon="4.58037">
        <ele>478.2</ele>
        <time>1970-01-01T02:49:17.000Z</time>
      </trkpt>
      <trkpt lat="45.42762" lon="4.58036">
        <ele>478.6</ele>
        <time>1970-01-01T02:49:18.000Z</time>
      </trkpt>
      <trkpt lat="45.42761" lon="4.58036">
        <ele>479</ele>
        <time>1970-01-01T02:49:19.000Z</time>
      </trkpt>
      <trkpt lat="45.42758" lon="4.58028">
        <ele>479</ele>
        <time>1970-01-01T02:49:24.000Z</time>
      </trkpt>
      <trkpt lat="45.42758" lon="4.58026">
        <ele>479.4</ele>
        <time>1970-01-01T02:49:25.000Z</time>
      </trkpt>
      <trkpt lat="45.42757" lon="4.58025">
        <ele>480</ele>
        <time>1970-01-01T02:49:26.000Z</time>
      </trkpt>
      <trkpt lat="45.42756" lon="4.58023">
        <ele>480.4</ele>
        <time>1970-01-01T02:49:27.000Z</time>
      </trkpt>
      <trkpt lat="45.42755" lon="4.58021">
        <ele>480.8</ele>
        <time>1970-01-01T02:49:28.000Z</time>
      </trkpt>
      <trkpt lat="45.42755" lon="4.5802">
        <ele>481.4</ele>
        <time>1970-01-01T02:49:29.000Z</time>
      </trkpt>
      <trkpt lat="45.42755" lon="4.58014">
        <ele>482.2</ele>
        <time>1970-01-01T02:49:32.000Z</time>
      </trkpt>
      <trkpt lat="45.42754" lon="4.58012">
        <ele>482.6</ele>
        <time>1970-01-01T02:49:33.000Z</time>
      </trkpt>
      <trkpt lat="45.42753" lon="4.58011">
        <ele>483</ele>
        <time>1970-01-01T02:49:34.000Z</time>
      </trkpt>
      <trkpt lat="45.42752" lon="4.58009">
        <ele>483.6</ele>
        <time>1970-01-01T02:49:35.000Z</time>
      </trkpt>
      <trkpt lat="45.4275" lon="4.58005">
        <ele>484</ele>
        <time>1970-01-01T02:49:38.000Z</time>
      </trkpt>
      <trkpt lat="45.42749" lon="4.58004">
        <ele>484.4</ele>
        <time>1970-01-01T02:49:39.000Z</time>
      </trkpt>
      <trkpt lat="45.42748" lon="4.58003">
        <ele>484.8</ele>
        <time>1970-01-01T02:49:40.000Z</time>
      </trkpt>
      <trkpt lat="45.42747" lon="4.58002">
        <ele>485.2</ele>
        <time>1970-01-01T02:49:41.000Z</time>
      </trkpt>
      <trkpt lat="45.42746" lon="4.58002">
        <ele>485.8</ele>
        <time>1970-01-01T02:49:42.000Z</time>
      </trkpt>
      <trkpt lat="45.42742" lon="4.58001">
        <ele>485.8</ele>
        <time>1970-01-01T02:49:45.000Z</time>
      </trkpt>
      <trkpt lat="45.42739" lon="4.58002">
        <ele>486.2</ele>
        <time>1970-01-01T02:49:48.000Z</time>
      </trkpt>
      <trkpt lat="45.42738" lon="4.58003">
        <ele>486.6</ele>
        <time>1970-01-01T02:49:49.000Z</time>
      </trkpt>
      <trkpt lat="45.42737" lon="4.58004">
        <ele>487</ele>
        <time>1970-01-01T02:49:50.000Z</time>
      </trkpt>
      <trkpt lat="45.42736" lon="4.58005">
        <ele>487.4</ele>
        <time>1970-01-01T02:49:51.000Z</time>
      </trkpt>
      <trkpt lat="45.42734" lon="4.58008">
        <ele>487.8</ele>
        <time>1970-01-01T02:49:52.000Z</time>
      </trkpt>
      <trkpt lat="45.42731" lon="4.58014">
        <ele>487.8</ele>
        <time>1970-01-01T02:49:55.000Z</time>
      </trkpt>
      <trkpt lat="45.42727" lon="4.58022">
        <ele>488.2</ele>
        <time>1970-01-01T02:49:59.000Z</time>
      </trkpt>
      <trkpt lat="45.42726" lon="4.58025">
        <ele>488.6</ele>
        <time>1970-01-01T02:50:00.000Z</time>
      </trkpt>
      <trkpt lat="45.42724" lon="4.58027">
        <ele>489</ele>
        <time>1970-01-01T02:50:01.000Z</time>
      </trkpt>
      <trkpt lat="45.42723" lon="4.58029">
        <ele>489.4</ele>
        <time>1970-01-01T02:50:02.000Z</time>
      </trkpt>
      <trkpt lat="45.42722" lon="4.58032">
        <ele>489.8</ele>
        <time>1970-01-01T02:50:03.000Z</time>
      </trkpt>
      <trkpt lat="45.42713" lon="4.5805">
        <ele>489.8</ele>
        <time>1970-01-01T02:50:10.000Z</time>
      </trkpt>
      <trkpt lat="45.42709" lon="4.58059">
        <ele>490.2</ele>
        <time>1970-01-01T02:50:13.000Z</time>
      </trkpt>
      <trkpt lat="45.42707" lon="4.58062">
        <ele>490.6</ele>
        <time>1970-01-01T02:50:14.000Z</time>
      </trkpt>
      <trkpt lat="45.42705" lon="4.58065">
        <ele>491</ele>
        <time>1970-01-01T02:50:15.000Z</time>
      </trkpt>
      <trkpt lat="45.42704" lon="4.58068">
        <ele>491.4</ele>
        <time>1970-01-01T02:50:16.000Z</time>
      </trkpt>
      <trkpt lat="45.42702" lon="4.58071">
        <ele>491.8</ele>
        <time>1970-01-01T02:50:17.000Z</time>
      </trkpt>
      <trkpt lat="45.42695" lon="4.58086">
        <ele>491.8</ele>
        <time>1970-01-01T02:50:22.000Z</time>
      </trkpt>
      <trkpt lat="45.42685" lon="4.58106">
        <ele>491.8</ele>
        <time>1970-01-01T02:50:28.000Z</time>
      </trkpt>
      <trkpt lat="45.42677" lon="4.58118">
        <ele>492.4</ele>
        <time>1970-01-01T02:50:32.000Z</time>
      </trkpt>
      <trkpt lat="45.42675" lon="4.58121">
        <ele>492.8</ele>
        <time>1970-01-01T02:50:33.000Z</time>
      </trkpt>
      <trkpt lat="45.42674" lon="4.58125">
        <ele>493.2</ele>
        <time>1970-01-01T02:50:34.000Z</time>
      </trkpt>
      <trkpt lat="45.42672" lon="4.58128">
        <ele>493.6</ele>
        <time>1970-01-01T02:50:35.000Z</time>
      </trkpt>
      <trkpt lat="45.4267" lon="4.58131">
        <ele>494</ele>
        <time>1970-01-01T02:50:36.000Z</time>
      </trkpt>
      <trkpt lat="45.42665" lon="4.58149">
        <ele>494</ele>
        <time>1970-01-01T02:50:41.000Z</time>
      </trkpt>
      <trkpt lat="45.42662" lon="4.58159">
        <ele>494.4</ele>
        <time>1970-01-01T02:50:44.000Z</time>
      </trkpt>
      <trkpt lat="45.42661" lon="4.58162">
        <ele>494.8</ele>
        <time>1970-01-01T02:50:45.000Z</time>
      </trkpt>
      <trkpt lat="45.4266" lon="4.58165">
        <ele>495.8</ele>
        <time>1970-01-01T02:50:46.000Z</time>
      </trkpt>
      <trkpt lat="45.42659" lon="4.58168">
        <ele>496.2</ele>
        <time>1970-01-01T02:50:47.000Z</time>
      </trkpt>
      <trkpt lat="45.42658" lon="4.58173">
        <ele>496.6</ele>
        <time>1970-01-01T02:50:49.000Z</time>
      </trkpt>
      <trkpt lat="45.42658" lon="4.58176">
        <ele>497</ele>
        <time>1970-01-01T02:50:50.000Z</time>
      </trkpt>
      <trkpt lat="45.42658" lon="4.58179">
        <ele>497.4</ele>
        <time>1970-01-01T02:50:51.000Z</time>
      </trkpt>
      <trkpt lat="45.42657" lon="4.58183">
        <ele>497.8</ele>
        <time>1970-01-01T02:50:52.000Z</time>
      </trkpt>
      <trkpt lat="45.42657" lon="4.58185">
        <ele>498.2</ele>
        <time>1970-01-01T02:50:53.000Z</time>
      </trkpt>
      <trkpt lat="45.42656" lon="4.58188">
        <ele>498.2</ele>
        <time>1970-01-01T02:50:54.000Z</time>
      </trkpt>
      <trkpt lat="45.42656" lon="4.58196">
        <ele>498.2</ele>
        <time>1970-01-01T02:50:57.000Z</time>
      </trkpt>
      <trkpt lat="45.42654" lon="4.58204">
        <ele>498.6</ele>
        <time>1970-01-01T02:51:00.000Z</time>
      </trkpt>
      <trkpt lat="45.42654" lon="4.58206">
        <ele>499</ele>
        <time>1970-01-01T02:51:01.000Z</time>
      </trkpt>
      <trkpt lat="45.42653" lon="4.58209">
        <ele>499.4</ele>
        <time>1970-01-01T02:51:02.000Z</time>
      </trkpt>
      <trkpt lat="45.42653" lon="4.58211">
        <ele>500</ele>
        <time>1970-01-01T02:51:03.000Z</time>
      </trkpt>
      <trkpt lat="45.42652" lon="4.58214">
        <ele>500.4</ele>
        <time>1970-01-01T02:51:04.000Z</time>
      </trkpt>
      <trkpt lat="45.42652" lon="4.5822">
        <ele>500.4</ele>
        <time>1970-01-01T02:51:06.000Z</time>
      </trkpt>
      <trkpt lat="45.42651" lon="4.58226">
        <ele>500.8</ele>
        <time>1970-01-01T02:51:08.000Z</time>
      </trkpt>
      <trkpt lat="45.4265" lon="4.58229">
        <ele>501.2</ele>
        <time>1970-01-01T02:51:09.000Z</time>
      </trkpt>
      <trkpt lat="45.4265" lon="4.58231">
        <ele>502.2</ele>
        <time>1970-01-01T02:51:10.000Z</time>
      </trkpt>
      <trkpt lat="45.4265" lon="4.58233">
        <ele>502.6</ele>
        <time>1970-01-01T02:51:11.000Z</time>
      </trkpt>
      <trkpt lat="45.42651" lon="4.58236">
        <ele>502.6</ele>
        <time>1970-01-01T02:51:13.000Z</time>
      </trkpt>
      <trkpt lat="45.42652" lon="4.58241">
        <ele>502.6</ele>
        <time>1970-01-01T02:51:18.000Z</time>
      </trkpt>
      <trkpt lat="45.42652" lon="4.58241">
        <ele>502.6</ele>
        <time>1970-01-01T02:51:23.000Z</time>
      </trkpt>
      <trkpt lat="45.42653" lon="4.58243">
        <ele>502.6</ele>
        <time>1970-01-01T02:51:29.000Z</time>
      </trkpt>
      <trkpt lat="45.42653" lon="4.58243">
        <ele>503</ele>
        <time>1970-01-01T02:51:36.000Z</time>
      </trkpt>
      <trkpt lat="45.42653" lon="4.58243">
        <ele>503.4</ele>
        <time>1970-01-01T02:51:37.000Z</time>
      </trkpt>
      <trkpt lat="45.42653" lon="4.58243">
        <ele>503.8</ele>
        <time>1970-01-01T02:51:38.000Z</time>
      </trkpt>
      <trkpt lat="45.42653" lon="4.58243">
        <ele>504.2</ele>
        <time>1970-01-01T02:51:39.000Z</time>
      </trkpt>
      <trkpt lat="45.42653" lon="4.58243">
        <ele>504.6</ele>
        <time>1970-01-01T02:51:40.000Z</time>
      </trkpt>
      <trkpt lat="45.42653" lon="4.58243">
        <ele>504.6</ele>
        <time>1970-01-01T02:51:47.000Z</time>
      </trkpt>
      <trkpt lat="45.42653" lon="4.58243">
        <ele>504.6</ele>
        <time>1970-01-01T02:51:53.000Z</time>
      </trkpt>
    </trkseg>
  </trk>
</gpx>